<?xml version="1.0" encoding="UTF-8" standalone="no" ?>
<gpx xmlns="http://www.topografix.com/GPX/1/1" xmlns:xsi="http://www.w3.org/2001/XMLSchema-instance" xsi:schemaLocation="http://www.topografix.com/GPX/1/1 http://www.topografix.com/GPX/1/1/gpx.xsd" version="1.1" creator="VisuGPX - https://www.visugpx.com">
  <metadata>
    <name>Badefols 1</name>
  </metadata>
  <trk>
    <name><![CDATA[Trace 1777642991000]]></name>
    <trkseg>
      <trkpt lat="44.84124" lon="0.78496">
        <ele>101.6</ele>
        <time>2026-05-01T13:43:11.000Z</time>
      </trkpt>
      <trkpt lat="44.84124" lon="0.78496">
        <ele>101.6</ele>
        <time>2026-05-01T13:43:12.000Z</time>
      </trkpt>
      <trkpt lat="44.84125" lon="0.78496">
        <ele>101.2</ele>
        <time>2026-05-01T13:43:13.000Z</time>
      </trkpt>
      <trkpt lat="44.84125" lon="0.78496">
        <ele>101.1</ele>
        <time>2026-05-01T13:43:14.000Z</time>
      </trkpt>
      <trkpt lat="44.84125" lon="0.78495">
        <ele>100.6</ele>
        <time>2026-05-01T13:43:15.000Z</time>
      </trkpt>
      <trkpt lat="44.84125" lon="0.78495">
        <ele>100.3</ele>
        <time>2026-05-01T13:43:16.000Z</time>
      </trkpt>
      <trkpt lat="44.84125" lon="0.78496">
        <ele>100.2</ele>
        <time>2026-05-01T13:43:17.000Z</time>
      </trkpt>
      <trkpt lat="44.84125" lon="0.78496">
        <ele>100.2</ele>
        <time>2026-05-01T13:43:18.000Z</time>
      </trkpt>
      <trkpt lat="44.84125" lon="0.78495">
        <ele>100.1</ele>
        <time>2026-05-01T13:43:19.000Z</time>
      </trkpt>
      <trkpt lat="44.84125" lon="0.78495">
        <ele>100.2</ele>
        <time>2026-05-01T13:43:20.000Z</time>
      </trkpt>
      <trkpt lat="44.84125" lon="0.78495">
        <ele>100.3</ele>
        <time>2026-05-01T13:43:21.000Z</time>
      </trkpt>
      <trkpt lat="44.84125" lon="0.78495">
        <ele>100.2</ele>
        <time>2026-05-01T13:43:22.000Z</time>
      </trkpt>
      <trkpt lat="44.84125" lon="0.78495">
        <ele>100.2</ele>
        <time>2026-05-01T13:43:23.000Z</time>
      </trkpt>
      <trkpt lat="44.84125" lon="0.78495">
        <ele>100</ele>
        <time>2026-05-01T13:43:24.000Z</time>
      </trkpt>
      <trkpt lat="44.84125" lon="0.78495">
        <ele>99.9</ele>
        <time>2026-05-01T13:43:25.000Z</time>
      </trkpt>
      <trkpt lat="44.84125" lon="0.78495">
        <ele>100</ele>
        <time>2026-05-01T13:43:26.000Z</time>
      </trkpt>
      <trkpt lat="44.84124" lon="0.78495">
        <ele>99.3</ele>
        <time>2026-05-01T13:43:27.000Z</time>
      </trkpt>
      <trkpt lat="44.84124" lon="0.78495">
        <ele>98.2</ele>
        <time>2026-05-01T13:43:28.000Z</time>
      </trkpt>
      <trkpt lat="44.84124" lon="0.78495">
        <ele>97.9</ele>
        <time>2026-05-01T13:43:29.000Z</time>
      </trkpt>
      <trkpt lat="44.84124" lon="0.78495">
        <ele>97.9</ele>
        <time>2026-05-01T13:43:30.000Z</time>
      </trkpt>
      <trkpt lat="44.84124" lon="0.78495">
        <ele>97.9</ele>
        <time>2026-05-01T13:43:31.000Z</time>
      </trkpt>
      <trkpt lat="44.84124" lon="0.78495">
        <ele>97.8</ele>
        <time>2026-05-01T13:43:32.000Z</time>
      </trkpt>
      <trkpt lat="44.84124" lon="0.78494">
        <ele>97.7</ele>
        <time>2026-05-01T13:43:33.000Z</time>
      </trkpt>
      <trkpt lat="44.84123" lon="0.78495">
        <ele>97.8</ele>
        <time>2026-05-01T13:43:34.000Z</time>
      </trkpt>
      <trkpt lat="44.84124" lon="0.78495">
        <ele>97.9</ele>
        <time>2026-05-01T13:43:35.000Z</time>
      </trkpt>
      <trkpt lat="44.84124" lon="0.78495">
        <ele>98.1</ele>
        <time>2026-05-01T13:43:36.000Z</time>
      </trkpt>
      <trkpt lat="44.84124" lon="0.78495">
        <ele>98.3</ele>
        <time>2026-05-01T13:43:37.000Z</time>
      </trkpt>
      <trkpt lat="44.84124" lon="0.78495">
        <ele>98.4</ele>
        <time>2026-05-01T13:43:38.000Z</time>
      </trkpt>
      <trkpt lat="44.84124" lon="0.78495">
        <ele>98.4</ele>
        <time>2026-05-01T13:43:39.000Z</time>
      </trkpt>
      <trkpt lat="44.84124" lon="0.78494">
        <ele>98.5</ele>
        <time>2026-05-01T13:43:40.000Z</time>
      </trkpt>
      <trkpt lat="44.84124" lon="0.78494">
        <ele>98.6</ele>
        <time>2026-05-01T13:43:41.000Z</time>
      </trkpt>
      <trkpt lat="44.84124" lon="0.78494">
        <ele>98.6</ele>
        <time>2026-05-01T13:43:42.000Z</time>
      </trkpt>
      <trkpt lat="44.84124" lon="0.78494">
        <ele>98.6</ele>
        <time>2026-05-01T13:43:43.000Z</time>
      </trkpt>
      <trkpt lat="44.84124" lon="0.78494">
        <ele>98.6</ele>
        <time>2026-05-01T13:43:44.000Z</time>
      </trkpt>
      <trkpt lat="44.84124" lon="0.78494">
        <ele>98.6</ele>
        <time>2026-05-01T13:43:45.000Z</time>
      </trkpt>
      <trkpt lat="44.84124" lon="0.78494">
        <ele>98.6</ele>
        <time>2026-05-01T13:43:46.000Z</time>
      </trkpt>
      <trkpt lat="44.84124" lon="0.78494">
        <ele>98.6</ele>
        <time>2026-05-01T13:43:47.000Z</time>
      </trkpt>
      <trkpt lat="44.84124" lon="0.78494">
        <ele>98.6</ele>
        <time>2026-05-01T13:43:48.000Z</time>
      </trkpt>
      <trkpt lat="44.84124" lon="0.78494">
        <ele>98.6</ele>
        <time>2026-05-01T13:43:49.000Z</time>
      </trkpt>
      <trkpt lat="44.84124" lon="0.78494">
        <ele>98.6</ele>
        <time>2026-05-01T13:43:50.000Z</time>
      </trkpt>
      <trkpt lat="44.84124" lon="0.78494">
        <ele>98.6</ele>
        <time>2026-05-01T13:43:51.000Z</time>
      </trkpt>
      <trkpt lat="44.84124" lon="0.78493">
        <ele>98.5</ele>
        <time>2026-05-01T13:43:52.000Z</time>
      </trkpt>
      <trkpt lat="44.84124" lon="0.78493">
        <ele>98.5</ele>
        <time>2026-05-01T13:43:53.000Z</time>
      </trkpt>
      <trkpt lat="44.84124" lon="0.78492">
        <ele>98.2</ele>
        <time>2026-05-01T13:43:54.000Z</time>
      </trkpt>
      <trkpt lat="44.84124" lon="0.78492">
        <ele>98.3</ele>
        <time>2026-05-01T13:43:55.000Z</time>
      </trkpt>
      <trkpt lat="44.84123" lon="0.78492">
        <ele>98.5</ele>
        <time>2026-05-01T13:43:56.000Z</time>
      </trkpt>
      <trkpt lat="44.84123" lon="0.78492">
        <ele>98.7</ele>
        <time>2026-05-01T13:43:57.000Z</time>
      </trkpt>
      <trkpt lat="44.84123" lon="0.78492">
        <ele>98.8</ele>
        <time>2026-05-01T13:43:58.000Z</time>
      </trkpt>
      <trkpt lat="44.84123" lon="0.78491">
        <ele>98.9</ele>
        <time>2026-05-01T13:43:59.000Z</time>
      </trkpt>
      <trkpt lat="44.84123" lon="0.78491">
        <ele>99</ele>
        <time>2026-05-01T13:44:00.000Z</time>
      </trkpt>
      <trkpt lat="44.84123" lon="0.78491">
        <ele>99.3</ele>
        <time>2026-05-01T13:44:01.000Z</time>
      </trkpt>
      <trkpt lat="44.84123" lon="0.78491">
        <ele>99.6</ele>
        <time>2026-05-01T13:44:02.000Z</time>
      </trkpt>
      <trkpt lat="44.84123" lon="0.78491">
        <ele>100</ele>
        <time>2026-05-01T13:44:03.000Z</time>
      </trkpt>
      <trkpt lat="44.84123" lon="0.78491">
        <ele>100</ele>
        <time>2026-05-01T13:44:04.000Z</time>
      </trkpt>
      <trkpt lat="44.84122" lon="0.78491">
        <ele>100.1</ele>
        <time>2026-05-01T13:44:05.000Z</time>
      </trkpt>
      <trkpt lat="44.84122" lon="0.78491">
        <ele>100.9</ele>
        <time>2026-05-01T13:44:06.000Z</time>
      </trkpt>
      <trkpt lat="44.84122" lon="0.78491">
        <ele>101.1</ele>
        <time>2026-05-01T13:44:07.000Z</time>
      </trkpt>
      <trkpt lat="44.84122" lon="0.78492">
        <ele>100.8</ele>
        <time>2026-05-01T13:44:08.000Z</time>
      </trkpt>
      <trkpt lat="44.84121" lon="0.78492">
        <ele>101</ele>
        <time>2026-05-01T13:44:09.000Z</time>
      </trkpt>
      <trkpt lat="44.84121" lon="0.78492">
        <ele>100.5</ele>
        <time>2026-05-01T13:44:10.000Z</time>
      </trkpt>
      <trkpt lat="44.84121" lon="0.78492">
        <ele>100.6</ele>
        <time>2026-05-01T13:44:11.000Z</time>
      </trkpt>
      <trkpt lat="44.84122" lon="0.78491">
        <ele>98.6</ele>
        <time>2026-05-01T13:44:12.000Z</time>
      </trkpt>
      <trkpt lat="44.84123" lon="0.7849">
        <ele>98</ele>
        <time>2026-05-01T13:44:13.000Z</time>
      </trkpt>
      <trkpt lat="44.84124" lon="0.78489">
        <ele>97.5</ele>
        <time>2026-05-01T13:44:14.000Z</time>
      </trkpt>
      <trkpt lat="44.84125" lon="0.78487">
        <ele>98.2</ele>
        <time>2026-05-01T13:44:15.000Z</time>
      </trkpt>
      <trkpt lat="44.84127" lon="0.78486">
        <ele>98.3</ele>
        <time>2026-05-01T13:44:16.000Z</time>
      </trkpt>
      <trkpt lat="44.84129" lon="0.78485">
        <ele>97.9</ele>
        <time>2026-05-01T13:44:17.000Z</time>
      </trkpt>
      <trkpt lat="44.84131" lon="0.78485">
        <ele>98</ele>
        <time>2026-05-01T13:44:18.000Z</time>
      </trkpt>
      <trkpt lat="44.84132" lon="0.78485">
        <ele>98.6</ele>
        <time>2026-05-01T13:44:19.000Z</time>
      </trkpt>
      <trkpt lat="44.84134" lon="0.78486">
        <ele>97.7</ele>
        <time>2026-05-01T13:44:20.000Z</time>
      </trkpt>
      <trkpt lat="44.84135" lon="0.78487">
        <ele>97.6</ele>
        <time>2026-05-01T13:44:21.000Z</time>
      </trkpt>
      <trkpt lat="44.84137" lon="0.78489">
        <ele>97.3</ele>
        <time>2026-05-01T13:44:22.000Z</time>
      </trkpt>
      <trkpt lat="44.84138" lon="0.7849">
        <ele>97</ele>
        <time>2026-05-01T13:44:23.000Z</time>
      </trkpt>
      <trkpt lat="44.84139" lon="0.78491">
        <ele>97.1</ele>
        <time>2026-05-01T13:44:24.000Z</time>
      </trkpt>
      <trkpt lat="44.8414" lon="0.78494">
        <ele>96.8</ele>
        <time>2026-05-01T13:44:25.000Z</time>
      </trkpt>
      <trkpt lat="44.84141" lon="0.78496">
        <ele>96.5</ele>
        <time>2026-05-01T13:44:26.000Z</time>
      </trkpt>
      <trkpt lat="44.84142" lon="0.78497">
        <ele>96.4</ele>
        <time>2026-05-01T13:44:27.000Z</time>
      </trkpt>
      <trkpt lat="44.84143" lon="0.78499">
        <ele>95.8</ele>
        <time>2026-05-01T13:44:28.000Z</time>
      </trkpt>
      <trkpt lat="44.84144" lon="0.78502">
        <ele>95.4</ele>
        <time>2026-05-01T13:44:29.000Z</time>
      </trkpt>
      <trkpt lat="44.84144" lon="0.78504">
        <ele>95.3</ele>
        <time>2026-05-01T13:44:30.000Z</time>
      </trkpt>
      <trkpt lat="44.84145" lon="0.78506">
        <ele>95</ele>
        <time>2026-05-01T13:44:31.000Z</time>
      </trkpt>
      <trkpt lat="44.84146" lon="0.78507">
        <ele>94.9</ele>
        <time>2026-05-01T13:44:32.000Z</time>
      </trkpt>
      <trkpt lat="44.84146" lon="0.78509">
        <ele>94.5</ele>
        <time>2026-05-01T13:44:33.000Z</time>
      </trkpt>
      <trkpt lat="44.84146" lon="0.7851">
        <ele>93.9</ele>
        <time>2026-05-01T13:44:34.000Z</time>
      </trkpt>
      <trkpt lat="44.84147" lon="0.78512">
        <ele>92.9</ele>
        <time>2026-05-01T13:44:35.000Z</time>
      </trkpt>
      <trkpt lat="44.84147" lon="0.78513">
        <ele>92.7</ele>
        <time>2026-05-01T13:44:36.000Z</time>
      </trkpt>
      <trkpt lat="44.84148" lon="0.78515">
        <ele>92.7</ele>
        <time>2026-05-01T13:44:37.000Z</time>
      </trkpt>
      <trkpt lat="44.84148" lon="0.78516">
        <ele>92.8</ele>
        <time>2026-05-01T13:44:38.000Z</time>
      </trkpt>
      <trkpt lat="44.84148" lon="0.78518">
        <ele>92.6</ele>
        <time>2026-05-01T13:44:39.000Z</time>
      </trkpt>
      <trkpt lat="44.84148" lon="0.7852">
        <ele>92.3</ele>
        <time>2026-05-01T13:44:40.000Z</time>
      </trkpt>
      <trkpt lat="44.84149" lon="0.78522">
        <ele>91.8</ele>
        <time>2026-05-01T13:44:41.000Z</time>
      </trkpt>
      <trkpt lat="44.84149" lon="0.78524">
        <ele>91.8</ele>
        <time>2026-05-01T13:44:42.000Z</time>
      </trkpt>
      <trkpt lat="44.84149" lon="0.78526">
        <ele>91.7</ele>
        <time>2026-05-01T13:44:43.000Z</time>
      </trkpt>
      <trkpt lat="44.84149" lon="0.78528">
        <ele>91.4</ele>
        <time>2026-05-01T13:44:44.000Z</time>
      </trkpt>
      <trkpt lat="44.84148" lon="0.7853">
        <ele>91.2</ele>
        <time>2026-05-01T13:44:45.000Z</time>
      </trkpt>
      <trkpt lat="44.84148" lon="0.78532">
        <ele>91.8</ele>
        <time>2026-05-01T13:44:46.000Z</time>
      </trkpt>
      <trkpt lat="44.84148" lon="0.78534">
        <ele>91.9</ele>
        <time>2026-05-01T13:44:47.000Z</time>
      </trkpt>
      <trkpt lat="44.84148" lon="0.78536">
        <ele>91.6</ele>
        <time>2026-05-01T13:44:48.000Z</time>
      </trkpt>
      <trkpt lat="44.84148" lon="0.78538">
        <ele>91.5</ele>
        <time>2026-05-01T13:44:49.000Z</time>
      </trkpt>
      <trkpt lat="44.84148" lon="0.7854">
        <ele>91.3</ele>
        <time>2026-05-01T13:44:50.000Z</time>
      </trkpt>
      <trkpt lat="44.84148" lon="0.78542">
        <ele>91.5</ele>
        <time>2026-05-01T13:44:51.000Z</time>
      </trkpt>
      <trkpt lat="44.84148" lon="0.78544">
        <ele>91.4</ele>
        <time>2026-05-01T13:44:52.000Z</time>
      </trkpt>
      <trkpt lat="44.84149" lon="0.78546">
        <ele>91.3</ele>
        <time>2026-05-01T13:44:53.000Z</time>
      </trkpt>
      <trkpt lat="44.84149" lon="0.78547">
        <ele>91.4</ele>
        <time>2026-05-01T13:44:54.000Z</time>
      </trkpt>
      <trkpt lat="44.8415" lon="0.78549">
        <ele>91.7</ele>
        <time>2026-05-01T13:44:55.000Z</time>
      </trkpt>
      <trkpt lat="44.8415" lon="0.7855">
        <ele>91.2</ele>
        <time>2026-05-01T13:44:56.000Z</time>
      </trkpt>
      <trkpt lat="44.84151" lon="0.78551">
        <ele>90.6</ele>
        <time>2026-05-01T13:44:57.000Z</time>
      </trkpt>
      <trkpt lat="44.84152" lon="0.78552">
        <ele>90.5</ele>
        <time>2026-05-01T13:44:58.000Z</time>
      </trkpt>
      <trkpt lat="44.84154" lon="0.78552">
        <ele>90.4</ele>
        <time>2026-05-01T13:44:59.000Z</time>
      </trkpt>
      <trkpt lat="44.84155" lon="0.78552">
        <ele>90.2</ele>
        <time>2026-05-01T13:45:00.000Z</time>
      </trkpt>
      <trkpt lat="44.84156" lon="0.78551">
        <ele>89.9</ele>
        <time>2026-05-01T13:45:01.000Z</time>
      </trkpt>
      <trkpt lat="44.84157" lon="0.7855">
        <ele>89.9</ele>
        <time>2026-05-01T13:45:02.000Z</time>
      </trkpt>
      <trkpt lat="44.84158" lon="0.7855">
        <ele>89.9</ele>
        <time>2026-05-01T13:45:03.000Z</time>
      </trkpt>
      <trkpt lat="44.8416" lon="0.78548">
        <ele>89.9</ele>
        <time>2026-05-01T13:45:04.000Z</time>
      </trkpt>
      <trkpt lat="44.84161" lon="0.78548">
        <ele>90.5</ele>
        <time>2026-05-01T13:45:05.000Z</time>
      </trkpt>
      <trkpt lat="44.84162" lon="0.78547">
        <ele>90.2</ele>
        <time>2026-05-01T13:45:06.000Z</time>
      </trkpt>
      <trkpt lat="44.84162" lon="0.78545">
        <ele>90.4</ele>
        <time>2026-05-01T13:45:07.000Z</time>
      </trkpt>
      <trkpt lat="44.84164" lon="0.78544">
        <ele>90.5</ele>
        <time>2026-05-01T13:45:08.000Z</time>
      </trkpt>
      <trkpt lat="44.84165" lon="0.78543">
        <ele>89.6</ele>
        <time>2026-05-01T13:45:09.000Z</time>
      </trkpt>
      <trkpt lat="44.84166" lon="0.78543">
        <ele>89.9</ele>
        <time>2026-05-01T13:45:10.000Z</time>
      </trkpt>
      <trkpt lat="44.84167" lon="0.78542">
        <ele>90.4</ele>
        <time>2026-05-01T13:45:11.000Z</time>
      </trkpt>
      <trkpt lat="44.84168" lon="0.78541">
        <ele>90.3</ele>
        <time>2026-05-01T13:45:12.000Z</time>
      </trkpt>
      <trkpt lat="44.84169" lon="0.7854">
        <ele>90.2</ele>
        <time>2026-05-01T13:45:13.000Z</time>
      </trkpt>
      <trkpt lat="44.8417" lon="0.78539">
        <ele>89.8</ele>
        <time>2026-05-01T13:45:14.000Z</time>
      </trkpt>
      <trkpt lat="44.84171" lon="0.78538">
        <ele>90.5</ele>
        <time>2026-05-01T13:45:15.000Z</time>
      </trkpt>
      <trkpt lat="44.84172" lon="0.78537">
        <ele>92.7</ele>
        <time>2026-05-01T13:45:16.000Z</time>
      </trkpt>
      <trkpt lat="44.84173" lon="0.78535">
        <ele>93.5</ele>
        <time>2026-05-01T13:45:17.000Z</time>
      </trkpt>
      <trkpt lat="44.84174" lon="0.78533">
        <ele>95.2</ele>
        <time>2026-05-01T13:45:18.000Z</time>
      </trkpt>
      <trkpt lat="44.84175" lon="0.78532">
        <ele>95.7</ele>
        <time>2026-05-01T13:45:19.000Z</time>
      </trkpt>
      <trkpt lat="44.84176" lon="0.78531">
        <ele>95.7</ele>
        <time>2026-05-01T13:45:20.000Z</time>
      </trkpt>
      <trkpt lat="44.84177" lon="0.7853">
        <ele>95.7</ele>
        <time>2026-05-01T13:45:21.000Z</time>
      </trkpt>
      <trkpt lat="44.84179" lon="0.78529">
        <ele>95.8</ele>
        <time>2026-05-01T13:45:22.000Z</time>
      </trkpt>
      <trkpt lat="44.8418" lon="0.78528">
        <ele>96.2</ele>
        <time>2026-05-01T13:45:23.000Z</time>
      </trkpt>
      <trkpt lat="44.84181" lon="0.78527">
        <ele>95.7</ele>
        <time>2026-05-01T13:45:24.000Z</time>
      </trkpt>
      <trkpt lat="44.84182" lon="0.78526">
        <ele>96.3</ele>
        <time>2026-05-01T13:45:25.000Z</time>
      </trkpt>
      <trkpt lat="44.84183" lon="0.78525">
        <ele>96</ele>
        <time>2026-05-01T13:45:26.000Z</time>
      </trkpt>
      <trkpt lat="44.84184" lon="0.78524">
        <ele>95.8</ele>
        <time>2026-05-01T13:45:27.000Z</time>
      </trkpt>
      <trkpt lat="44.84185" lon="0.78523">
        <ele>94.6</ele>
        <time>2026-05-01T13:45:28.000Z</time>
      </trkpt>
      <trkpt lat="44.84186" lon="0.78522">
        <ele>93.7</ele>
        <time>2026-05-01T13:45:29.000Z</time>
      </trkpt>
      <trkpt lat="44.84188" lon="0.78522">
        <ele>93.1</ele>
        <time>2026-05-01T13:45:30.000Z</time>
      </trkpt>
      <trkpt lat="44.84189" lon="0.78522">
        <ele>92.8</ele>
        <time>2026-05-01T13:45:31.000Z</time>
      </trkpt>
      <trkpt lat="44.84191" lon="0.78522">
        <ele>92.2</ele>
        <time>2026-05-01T13:45:32.000Z</time>
      </trkpt>
      <trkpt lat="44.84192" lon="0.78524">
        <ele>91.7</ele>
        <time>2026-05-01T13:45:33.000Z</time>
      </trkpt>
      <trkpt lat="44.84194" lon="0.78525">
        <ele>91.4</ele>
        <time>2026-05-01T13:45:34.000Z</time>
      </trkpt>
      <trkpt lat="44.84196" lon="0.78526">
        <ele>91</ele>
        <time>2026-05-01T13:45:35.000Z</time>
      </trkpt>
      <trkpt lat="44.84197" lon="0.78527">
        <ele>90.9</ele>
        <time>2026-05-01T13:45:36.000Z</time>
      </trkpt>
      <trkpt lat="44.84198" lon="0.78529">
        <ele>90.7</ele>
        <time>2026-05-01T13:45:37.000Z</time>
      </trkpt>
      <trkpt lat="44.84199" lon="0.78532">
        <ele>90.1</ele>
        <time>2026-05-01T13:45:38.000Z</time>
      </trkpt>
      <trkpt lat="44.842" lon="0.78534">
        <ele>90</ele>
        <time>2026-05-01T13:45:39.000Z</time>
      </trkpt>
      <trkpt lat="44.84201" lon="0.78537">
        <ele>90.4</ele>
        <time>2026-05-01T13:45:40.000Z</time>
      </trkpt>
      <trkpt lat="44.84202" lon="0.78539">
        <ele>90.1</ele>
        <time>2026-05-01T13:45:41.000Z</time>
      </trkpt>
      <trkpt lat="44.84202" lon="0.78541">
        <ele>90</ele>
        <time>2026-05-01T13:45:42.000Z</time>
      </trkpt>
      <trkpt lat="44.84203" lon="0.78544">
        <ele>89.9</ele>
        <time>2026-05-01T13:45:43.000Z</time>
      </trkpt>
      <trkpt lat="44.84203" lon="0.78546">
        <ele>89.3</ele>
        <time>2026-05-01T13:45:44.000Z</time>
      </trkpt>
      <trkpt lat="44.84204" lon="0.78548">
        <ele>89</ele>
        <time>2026-05-01T13:45:45.000Z</time>
      </trkpt>
      <trkpt lat="44.84205" lon="0.7855">
        <ele>88.6</ele>
        <time>2026-05-01T13:45:46.000Z</time>
      </trkpt>
      <trkpt lat="44.84206" lon="0.78552">
        <ele>88.4</ele>
        <time>2026-05-01T13:45:47.000Z</time>
      </trkpt>
      <trkpt lat="44.84206" lon="0.78554">
        <ele>87.9</ele>
        <time>2026-05-01T13:45:48.000Z</time>
      </trkpt>
      <trkpt lat="44.84206" lon="0.78557">
        <ele>88.1</ele>
        <time>2026-05-01T13:45:49.000Z</time>
      </trkpt>
      <trkpt lat="44.84207" lon="0.78559">
        <ele>87.4</ele>
        <time>2026-05-01T13:45:50.000Z</time>
      </trkpt>
      <trkpt lat="44.84207" lon="0.78561">
        <ele>87.1</ele>
        <time>2026-05-01T13:45:51.000Z</time>
      </trkpt>
      <trkpt lat="44.84208" lon="0.78563">
        <ele>87.3</ele>
        <time>2026-05-01T13:45:52.000Z</time>
      </trkpt>
      <trkpt lat="44.84209" lon="0.78565">
        <ele>87.4</ele>
        <time>2026-05-01T13:45:53.000Z</time>
      </trkpt>
      <trkpt lat="44.84209" lon="0.78567">
        <ele>87.4</ele>
        <time>2026-05-01T13:45:54.000Z</time>
      </trkpt>
      <trkpt lat="44.8421" lon="0.78569">
        <ele>87.4</ele>
        <time>2026-05-01T13:45:55.000Z</time>
      </trkpt>
      <trkpt lat="44.84211" lon="0.7857">
        <ele>87.6</ele>
        <time>2026-05-01T13:45:56.000Z</time>
      </trkpt>
      <trkpt lat="44.84212" lon="0.78572">
        <ele>87.5</ele>
        <time>2026-05-01T13:45:57.000Z</time>
      </trkpt>
      <trkpt lat="44.84212" lon="0.78574">
        <ele>88</ele>
        <time>2026-05-01T13:45:58.000Z</time>
      </trkpt>
      <trkpt lat="44.84213" lon="0.78576">
        <ele>88.5</ele>
        <time>2026-05-01T13:45:59.000Z</time>
      </trkpt>
      <trkpt lat="44.84214" lon="0.78578">
        <ele>88.7</ele>
        <time>2026-05-01T13:46:00.000Z</time>
      </trkpt>
      <trkpt lat="44.84214" lon="0.7858">
        <ele>88.4</ele>
        <time>2026-05-01T13:46:01.000Z</time>
      </trkpt>
      <trkpt lat="44.84215" lon="0.78582">
        <ele>88.4</ele>
        <time>2026-05-01T13:46:02.000Z</time>
      </trkpt>
      <trkpt lat="44.84215" lon="0.78584">
        <ele>88.3</ele>
        <time>2026-05-01T13:46:03.000Z</time>
      </trkpt>
      <trkpt lat="44.84216" lon="0.78586">
        <ele>88.2</ele>
        <time>2026-05-01T13:46:04.000Z</time>
      </trkpt>
      <trkpt lat="44.84216" lon="0.78588">
        <ele>88.5</ele>
        <time>2026-05-01T13:46:05.000Z</time>
      </trkpt>
      <trkpt lat="44.84217" lon="0.78589">
        <ele>88.7</ele>
        <time>2026-05-01T13:46:06.000Z</time>
      </trkpt>
      <trkpt lat="44.84218" lon="0.78591">
        <ele>89.2</ele>
        <time>2026-05-01T13:46:07.000Z</time>
      </trkpt>
      <trkpt lat="44.84219" lon="0.78593">
        <ele>89.6</ele>
        <time>2026-05-01T13:46:08.000Z</time>
      </trkpt>
      <trkpt lat="44.84219" lon="0.78594">
        <ele>89.5</ele>
        <time>2026-05-01T13:46:09.000Z</time>
      </trkpt>
      <trkpt lat="44.8422" lon="0.78596">
        <ele>89.2</ele>
        <time>2026-05-01T13:46:10.000Z</time>
      </trkpt>
      <trkpt lat="44.84221" lon="0.78598">
        <ele>88.8</ele>
        <time>2026-05-01T13:46:11.000Z</time>
      </trkpt>
      <trkpt lat="44.84221" lon="0.78601">
        <ele>88.5</ele>
        <time>2026-05-01T13:46:12.000Z</time>
      </trkpt>
      <trkpt lat="44.84222" lon="0.78603">
        <ele>87.6</ele>
        <time>2026-05-01T13:46:13.000Z</time>
      </trkpt>
      <trkpt lat="44.84222" lon="0.78605">
        <ele>87</ele>
        <time>2026-05-01T13:46:14.000Z</time>
      </trkpt>
      <trkpt lat="44.84223" lon="0.78607">
        <ele>86.9</ele>
        <time>2026-05-01T13:46:15.000Z</time>
      </trkpt>
      <trkpt lat="44.84224" lon="0.7861">
        <ele>86.3</ele>
        <time>2026-05-01T13:46:16.000Z</time>
      </trkpt>
      <trkpt lat="44.84225" lon="0.78612">
        <ele>86.4</ele>
        <time>2026-05-01T13:46:17.000Z</time>
      </trkpt>
      <trkpt lat="44.84225" lon="0.78614">
        <ele>85.7</ele>
        <time>2026-05-01T13:46:18.000Z</time>
      </trkpt>
      <trkpt lat="44.84226" lon="0.78617">
        <ele>85.4</ele>
        <time>2026-05-01T13:46:19.000Z</time>
      </trkpt>
      <trkpt lat="44.84227" lon="0.78619">
        <ele>85.1</ele>
        <time>2026-05-01T13:46:20.000Z</time>
      </trkpt>
      <trkpt lat="44.84227" lon="0.78621">
        <ele>85.3</ele>
        <time>2026-05-01T13:46:21.000Z</time>
      </trkpt>
      <trkpt lat="44.84228" lon="0.78623">
        <ele>84.3</ele>
        <time>2026-05-01T13:46:22.000Z</time>
      </trkpt>
      <trkpt lat="44.84228" lon="0.78625">
        <ele>84.4</ele>
        <time>2026-05-01T13:46:23.000Z</time>
      </trkpt>
      <trkpt lat="44.84229" lon="0.78627">
        <ele>84.7</ele>
        <time>2026-05-01T13:46:24.000Z</time>
      </trkpt>
      <trkpt lat="44.8423" lon="0.78629">
        <ele>85.1</ele>
        <time>2026-05-01T13:46:25.000Z</time>
      </trkpt>
      <trkpt lat="44.8423" lon="0.78631">
        <ele>84.9</ele>
        <time>2026-05-01T13:46:26.000Z</time>
      </trkpt>
      <trkpt lat="44.84231" lon="0.78633">
        <ele>84.4</ele>
        <time>2026-05-01T13:46:27.000Z</time>
      </trkpt>
      <trkpt lat="44.84231" lon="0.78635">
        <ele>84.9</ele>
        <time>2026-05-01T13:46:28.000Z</time>
      </trkpt>
      <trkpt lat="44.84232" lon="0.78637">
        <ele>84.8</ele>
        <time>2026-05-01T13:46:29.000Z</time>
      </trkpt>
      <trkpt lat="44.84232" lon="0.78639">
        <ele>85</ele>
        <time>2026-05-01T13:46:30.000Z</time>
      </trkpt>
      <trkpt lat="44.84233" lon="0.78641">
        <ele>85.4</ele>
        <time>2026-05-01T13:46:31.000Z</time>
      </trkpt>
      <trkpt lat="44.84234" lon="0.78643">
        <ele>86</ele>
        <time>2026-05-01T13:46:32.000Z</time>
      </trkpt>
      <trkpt lat="44.84234" lon="0.78645">
        <ele>86.9</ele>
        <time>2026-05-01T13:46:33.000Z</time>
      </trkpt>
      <trkpt lat="44.84235" lon="0.78647">
        <ele>87.5</ele>
        <time>2026-05-01T13:46:34.000Z</time>
      </trkpt>
      <trkpt lat="44.84236" lon="0.78649">
        <ele>87.9</ele>
        <time>2026-05-01T13:46:35.000Z</time>
      </trkpt>
      <trkpt lat="44.84237" lon="0.78651">
        <ele>88.4</ele>
        <time>2026-05-01T13:46:36.000Z</time>
      </trkpt>
      <trkpt lat="44.84238" lon="0.78653">
        <ele>88.2</ele>
        <time>2026-05-01T13:46:37.000Z</time>
      </trkpt>
      <trkpt lat="44.84238" lon="0.78655">
        <ele>88.3</ele>
        <time>2026-05-01T13:46:38.000Z</time>
      </trkpt>
      <trkpt lat="44.84239" lon="0.78657">
        <ele>88.4</ele>
        <time>2026-05-01T13:46:39.000Z</time>
      </trkpt>
      <trkpt lat="44.8424" lon="0.78659">
        <ele>88.7</ele>
        <time>2026-05-01T13:46:40.000Z</time>
      </trkpt>
      <trkpt lat="44.84241" lon="0.78661">
        <ele>89.4</ele>
        <time>2026-05-01T13:46:41.000Z</time>
      </trkpt>
      <trkpt lat="44.84241" lon="0.78663">
        <ele>89.3</ele>
        <time>2026-05-01T13:46:42.000Z</time>
      </trkpt>
      <trkpt lat="44.84241" lon="0.78666">
        <ele>89.5</ele>
        <time>2026-05-01T13:46:43.000Z</time>
      </trkpt>
      <trkpt lat="44.84242" lon="0.78668">
        <ele>89.7</ele>
        <time>2026-05-01T13:46:44.000Z</time>
      </trkpt>
      <trkpt lat="44.84243" lon="0.7867">
        <ele>89.5</ele>
        <time>2026-05-01T13:46:45.000Z</time>
      </trkpt>
      <trkpt lat="44.84243" lon="0.78672">
        <ele>89.2</ele>
        <time>2026-05-01T13:46:46.000Z</time>
      </trkpt>
      <trkpt lat="44.84244" lon="0.78674">
        <ele>89.1</ele>
        <time>2026-05-01T13:46:47.000Z</time>
      </trkpt>
      <trkpt lat="44.84245" lon="0.78676">
        <ele>89.1</ele>
        <time>2026-05-01T13:46:48.000Z</time>
      </trkpt>
      <trkpt lat="44.84246" lon="0.78677">
        <ele>89.2</ele>
        <time>2026-05-01T13:46:49.000Z</time>
      </trkpt>
      <trkpt lat="44.84247" lon="0.78679">
        <ele>89.1</ele>
        <time>2026-05-01T13:46:50.000Z</time>
      </trkpt>
      <trkpt lat="44.84248" lon="0.78681">
        <ele>89.4</ele>
        <time>2026-05-01T13:46:51.000Z</time>
      </trkpt>
      <trkpt lat="44.84249" lon="0.78683">
        <ele>89.7</ele>
        <time>2026-05-01T13:46:52.000Z</time>
      </trkpt>
      <trkpt lat="44.84249" lon="0.78685">
        <ele>89.8</ele>
        <time>2026-05-01T13:46:53.000Z</time>
      </trkpt>
      <trkpt lat="44.8425" lon="0.78687">
        <ele>90.2</ele>
        <time>2026-05-01T13:46:54.000Z</time>
      </trkpt>
      <trkpt lat="44.84251" lon="0.78689">
        <ele>90.1</ele>
        <time>2026-05-01T13:46:55.000Z</time>
      </trkpt>
      <trkpt lat="44.84251" lon="0.78691">
        <ele>90.4</ele>
        <time>2026-05-01T13:46:56.000Z</time>
      </trkpt>
      <trkpt lat="44.84252" lon="0.78693">
        <ele>90</ele>
        <time>2026-05-01T13:46:57.000Z</time>
      </trkpt>
      <trkpt lat="44.84253" lon="0.78695">
        <ele>90</ele>
        <time>2026-05-01T13:46:58.000Z</time>
      </trkpt>
      <trkpt lat="44.84254" lon="0.78697">
        <ele>89.9</ele>
        <time>2026-05-01T13:46:59.000Z</time>
      </trkpt>
      <trkpt lat="44.84254" lon="0.78699">
        <ele>89.8</ele>
        <time>2026-05-01T13:47:00.000Z</time>
      </trkpt>
      <trkpt lat="44.84255" lon="0.787">
        <ele>89.5</ele>
        <time>2026-05-01T13:47:01.000Z</time>
      </trkpt>
      <trkpt lat="44.84256" lon="0.78702">
        <ele>89.1</ele>
        <time>2026-05-01T13:47:02.000Z</time>
      </trkpt>
      <trkpt lat="44.84257" lon="0.78704">
        <ele>89.3</ele>
        <time>2026-05-01T13:47:03.000Z</time>
      </trkpt>
      <trkpt lat="44.84258" lon="0.78705">
        <ele>89.2</ele>
        <time>2026-05-01T13:47:04.000Z</time>
      </trkpt>
      <trkpt lat="44.84259" lon="0.78707">
        <ele>89.2</ele>
        <time>2026-05-01T13:47:05.000Z</time>
      </trkpt>
      <trkpt lat="44.8426" lon="0.78709">
        <ele>89.5</ele>
        <time>2026-05-01T13:47:06.000Z</time>
      </trkpt>
      <trkpt lat="44.84261" lon="0.78711">
        <ele>90.1</ele>
        <time>2026-05-01T13:47:07.000Z</time>
      </trkpt>
      <trkpt lat="44.84261" lon="0.78713">
        <ele>89.9</ele>
        <time>2026-05-01T13:47:08.000Z</time>
      </trkpt>
      <trkpt lat="44.84262" lon="0.78715">
        <ele>90.4</ele>
        <time>2026-05-01T13:47:09.000Z</time>
      </trkpt>
      <trkpt lat="44.84263" lon="0.78717">
        <ele>91</ele>
        <time>2026-05-01T13:47:10.000Z</time>
      </trkpt>
      <trkpt lat="44.84264" lon="0.78718">
        <ele>91.2</ele>
        <time>2026-05-01T13:47:11.000Z</time>
      </trkpt>
      <trkpt lat="44.84265" lon="0.7872">
        <ele>90.7</ele>
        <time>2026-05-01T13:47:12.000Z</time>
      </trkpt>
      <trkpt lat="44.84266" lon="0.78722">
        <ele>90.7</ele>
        <time>2026-05-01T13:47:13.000Z</time>
      </trkpt>
      <trkpt lat="44.84267" lon="0.78723">
        <ele>90.9</ele>
        <time>2026-05-01T13:47:14.000Z</time>
      </trkpt>
      <trkpt lat="44.84268" lon="0.78725">
        <ele>91.2</ele>
        <time>2026-05-01T13:47:15.000Z</time>
      </trkpt>
      <trkpt lat="44.84268" lon="0.78727">
        <ele>91.1</ele>
        <time>2026-05-01T13:47:16.000Z</time>
      </trkpt>
      <trkpt lat="44.84268" lon="0.78728">
        <ele>91.3</ele>
        <time>2026-05-01T13:47:17.000Z</time>
      </trkpt>
      <trkpt lat="44.84269" lon="0.7873">
        <ele>91</ele>
        <time>2026-05-01T13:47:18.000Z</time>
      </trkpt>
      <trkpt lat="44.8427" lon="0.78732">
        <ele>91.3</ele>
        <time>2026-05-01T13:47:19.000Z</time>
      </trkpt>
      <trkpt lat="44.8427" lon="0.78734">
        <ele>91</ele>
        <time>2026-05-01T13:47:20.000Z</time>
      </trkpt>
      <trkpt lat="44.84271" lon="0.78736">
        <ele>90.5</ele>
        <time>2026-05-01T13:47:21.000Z</time>
      </trkpt>
      <trkpt lat="44.84272" lon="0.78737">
        <ele>90.7</ele>
        <time>2026-05-01T13:47:22.000Z</time>
      </trkpt>
      <trkpt lat="44.84273" lon="0.78739">
        <ele>90.9</ele>
        <time>2026-05-01T13:47:23.000Z</time>
      </trkpt>
      <trkpt lat="44.84274" lon="0.78741">
        <ele>91.1</ele>
        <time>2026-05-01T13:47:24.000Z</time>
      </trkpt>
      <trkpt lat="44.84275" lon="0.78742">
        <ele>91.6</ele>
        <time>2026-05-01T13:47:25.000Z</time>
      </trkpt>
      <trkpt lat="44.84275" lon="0.78744">
        <ele>91.3</ele>
        <time>2026-05-01T13:47:26.000Z</time>
      </trkpt>
      <trkpt lat="44.84276" lon="0.78747">
        <ele>91.3</ele>
        <time>2026-05-01T13:47:27.000Z</time>
      </trkpt>
      <trkpt lat="44.84277" lon="0.78748">
        <ele>91.8</ele>
        <time>2026-05-01T13:47:28.000Z</time>
      </trkpt>
      <trkpt lat="44.84278" lon="0.7875">
        <ele>91.6</ele>
        <time>2026-05-01T13:47:29.000Z</time>
      </trkpt>
      <trkpt lat="44.84279" lon="0.78751">
        <ele>92.2</ele>
        <time>2026-05-01T13:47:30.000Z</time>
      </trkpt>
      <trkpt lat="44.8428" lon="0.78753">
        <ele>91.6</ele>
        <time>2026-05-01T13:47:31.000Z</time>
      </trkpt>
      <trkpt lat="44.8428" lon="0.78755">
        <ele>91.6</ele>
        <time>2026-05-01T13:47:32.000Z</time>
      </trkpt>
      <trkpt lat="44.84281" lon="0.78756">
        <ele>91.3</ele>
        <time>2026-05-01T13:47:33.000Z</time>
      </trkpt>
      <trkpt lat="44.84282" lon="0.78758">
        <ele>91.1</ele>
        <time>2026-05-01T13:47:34.000Z</time>
      </trkpt>
      <trkpt lat="44.84282" lon="0.7876">
        <ele>91.6</ele>
        <time>2026-05-01T13:47:35.000Z</time>
      </trkpt>
      <trkpt lat="44.84283" lon="0.78761">
        <ele>91.2</ele>
        <time>2026-05-01T13:47:36.000Z</time>
      </trkpt>
      <trkpt lat="44.84284" lon="0.78763">
        <ele>91</ele>
        <time>2026-05-01T13:47:37.000Z</time>
      </trkpt>
      <trkpt lat="44.84284" lon="0.78765">
        <ele>91</ele>
        <time>2026-05-01T13:47:38.000Z</time>
      </trkpt>
      <trkpt lat="44.84285" lon="0.78767">
        <ele>90.9</ele>
        <time>2026-05-01T13:47:39.000Z</time>
      </trkpt>
      <trkpt lat="44.84285" lon="0.78769">
        <ele>90.8</ele>
        <time>2026-05-01T13:47:40.000Z</time>
      </trkpt>
      <trkpt lat="44.84286" lon="0.78771">
        <ele>90.7</ele>
        <time>2026-05-01T13:47:41.000Z</time>
      </trkpt>
      <trkpt lat="44.84287" lon="0.78772">
        <ele>90.8</ele>
        <time>2026-05-01T13:47:42.000Z</time>
      </trkpt>
      <trkpt lat="44.84287" lon="0.78774">
        <ele>90.9</ele>
        <time>2026-05-01T13:47:43.000Z</time>
      </trkpt>
      <trkpt lat="44.84288" lon="0.78776">
        <ele>90.2</ele>
        <time>2026-05-01T13:47:44.000Z</time>
      </trkpt>
      <trkpt lat="44.84288" lon="0.78778">
        <ele>90.1</ele>
        <time>2026-05-01T13:47:45.000Z</time>
      </trkpt>
      <trkpt lat="44.84289" lon="0.7878">
        <ele>89.9</ele>
        <time>2026-05-01T13:47:46.000Z</time>
      </trkpt>
      <trkpt lat="44.8429" lon="0.78782">
        <ele>89.9</ele>
        <time>2026-05-01T13:47:47.000Z</time>
      </trkpt>
      <trkpt lat="44.84291" lon="0.78784">
        <ele>89.7</ele>
        <time>2026-05-01T13:47:48.000Z</time>
      </trkpt>
      <trkpt lat="44.84292" lon="0.78786">
        <ele>89.5</ele>
        <time>2026-05-01T13:47:49.000Z</time>
      </trkpt>
      <trkpt lat="44.84292" lon="0.78787">
        <ele>89.1</ele>
        <time>2026-05-01T13:47:50.000Z</time>
      </trkpt>
      <trkpt lat="44.84293" lon="0.78789">
        <ele>89.5</ele>
        <time>2026-05-01T13:47:51.000Z</time>
      </trkpt>
      <trkpt lat="44.84294" lon="0.78791">
        <ele>89.8</ele>
        <time>2026-05-01T13:47:52.000Z</time>
      </trkpt>
      <trkpt lat="44.84294" lon="0.78793">
        <ele>89.6</ele>
        <time>2026-05-01T13:47:53.000Z</time>
      </trkpt>
      <trkpt lat="44.84295" lon="0.78795">
        <ele>89.5</ele>
        <time>2026-05-01T13:47:54.000Z</time>
      </trkpt>
      <trkpt lat="44.84296" lon="0.78797">
        <ele>89.7</ele>
        <time>2026-05-01T13:47:55.000Z</time>
      </trkpt>
      <trkpt lat="44.84296" lon="0.78799">
        <ele>90</ele>
        <time>2026-05-01T13:47:56.000Z</time>
      </trkpt>
      <trkpt lat="44.84297" lon="0.788">
        <ele>89.7</ele>
        <time>2026-05-01T13:47:57.000Z</time>
      </trkpt>
      <trkpt lat="44.84297" lon="0.78802">
        <ele>89.9</ele>
        <time>2026-05-01T13:47:58.000Z</time>
      </trkpt>
      <trkpt lat="44.84297" lon="0.78804">
        <ele>90.5</ele>
        <time>2026-05-01T13:47:59.000Z</time>
      </trkpt>
      <trkpt lat="44.84297" lon="0.78806">
        <ele>90.3</ele>
        <time>2026-05-01T13:48:00.000Z</time>
      </trkpt>
      <trkpt lat="44.84297" lon="0.78807">
        <ele>90.9</ele>
        <time>2026-05-01T13:48:01.000Z</time>
      </trkpt>
      <trkpt lat="44.84298" lon="0.7881">
        <ele>90.9</ele>
        <time>2026-05-01T13:48:02.000Z</time>
      </trkpt>
      <trkpt lat="44.84299" lon="0.78811">
        <ele>91.1</ele>
        <time>2026-05-01T13:48:03.000Z</time>
      </trkpt>
      <trkpt lat="44.84299" lon="0.78813">
        <ele>91.3</ele>
        <time>2026-05-01T13:48:04.000Z</time>
      </trkpt>
      <trkpt lat="44.843" lon="0.78815">
        <ele>91.8</ele>
        <time>2026-05-01T13:48:05.000Z</time>
      </trkpt>
      <trkpt lat="44.843" lon="0.78817">
        <ele>91.9</ele>
        <time>2026-05-01T13:48:06.000Z</time>
      </trkpt>
      <trkpt lat="44.84301" lon="0.78819">
        <ele>91.7</ele>
        <time>2026-05-01T13:48:07.000Z</time>
      </trkpt>
      <trkpt lat="44.84301" lon="0.78821">
        <ele>92.7</ele>
        <time>2026-05-01T13:48:08.000Z</time>
      </trkpt>
      <trkpt lat="44.84302" lon="0.78823">
        <ele>93.1</ele>
        <time>2026-05-01T13:48:09.000Z</time>
      </trkpt>
      <trkpt lat="44.84302" lon="0.78825">
        <ele>93.2</ele>
        <time>2026-05-01T13:48:10.000Z</time>
      </trkpt>
      <trkpt lat="44.84303" lon="0.78827">
        <ele>92.5</ele>
        <time>2026-05-01T13:48:11.000Z</time>
      </trkpt>
      <trkpt lat="44.84304" lon="0.78829">
        <ele>92.4</ele>
        <time>2026-05-01T13:48:12.000Z</time>
      </trkpt>
      <trkpt lat="44.84305" lon="0.7883">
        <ele>91.8</ele>
        <time>2026-05-01T13:48:13.000Z</time>
      </trkpt>
      <trkpt lat="44.84305" lon="0.78832">
        <ele>91.1</ele>
        <time>2026-05-01T13:48:14.000Z</time>
      </trkpt>
      <trkpt lat="44.84305" lon="0.78834">
        <ele>90.8</ele>
        <time>2026-05-01T13:48:15.000Z</time>
      </trkpt>
      <trkpt lat="44.84305" lon="0.78836">
        <ele>90.8</ele>
        <time>2026-05-01T13:48:16.000Z</time>
      </trkpt>
      <trkpt lat="44.84305" lon="0.78838">
        <ele>91.1</ele>
        <time>2026-05-01T13:48:17.000Z</time>
      </trkpt>
      <trkpt lat="44.84306" lon="0.78839">
        <ele>90.9</ele>
        <time>2026-05-01T13:48:18.000Z</time>
      </trkpt>
      <trkpt lat="44.84306" lon="0.78841">
        <ele>91.1</ele>
        <time>2026-05-01T13:48:19.000Z</time>
      </trkpt>
      <trkpt lat="44.84307" lon="0.78843">
        <ele>90.7</ele>
        <time>2026-05-01T13:48:20.000Z</time>
      </trkpt>
      <trkpt lat="44.84307" lon="0.78845">
        <ele>90</ele>
        <time>2026-05-01T13:48:21.000Z</time>
      </trkpt>
      <trkpt lat="44.84308" lon="0.78847">
        <ele>89.3</ele>
        <time>2026-05-01T13:48:22.000Z</time>
      </trkpt>
      <trkpt lat="44.84308" lon="0.78849">
        <ele>88.5</ele>
        <time>2026-05-01T13:48:23.000Z</time>
      </trkpt>
      <trkpt lat="44.84309" lon="0.78851">
        <ele>89</ele>
        <time>2026-05-01T13:48:24.000Z</time>
      </trkpt>
      <trkpt lat="44.8431" lon="0.78853">
        <ele>89.7</ele>
        <time>2026-05-01T13:48:25.000Z</time>
      </trkpt>
      <trkpt lat="44.84311" lon="0.78855">
        <ele>89</ele>
        <time>2026-05-01T13:48:26.000Z</time>
      </trkpt>
      <trkpt lat="44.84311" lon="0.78857">
        <ele>88.8</ele>
        <time>2026-05-01T13:48:27.000Z</time>
      </trkpt>
      <trkpt lat="44.84312" lon="0.78859">
        <ele>89.3</ele>
        <time>2026-05-01T13:48:28.000Z</time>
      </trkpt>
      <trkpt lat="44.84312" lon="0.78861">
        <ele>89.1</ele>
        <time>2026-05-01T13:48:29.000Z</time>
      </trkpt>
      <trkpt lat="44.84313" lon="0.78863">
        <ele>89.3</ele>
        <time>2026-05-01T13:48:30.000Z</time>
      </trkpt>
      <trkpt lat="44.84314" lon="0.78865">
        <ele>89.3</ele>
        <time>2026-05-01T13:48:31.000Z</time>
      </trkpt>
      <trkpt lat="44.84314" lon="0.78866">
        <ele>89.5</ele>
        <time>2026-05-01T13:48:32.000Z</time>
      </trkpt>
      <trkpt lat="44.84315" lon="0.78868">
        <ele>88.9</ele>
        <time>2026-05-01T13:48:33.000Z</time>
      </trkpt>
      <trkpt lat="44.84315" lon="0.7887">
        <ele>90.1</ele>
        <time>2026-05-01T13:48:34.000Z</time>
      </trkpt>
      <trkpt lat="44.84316" lon="0.78872">
        <ele>89.1</ele>
        <time>2026-05-01T13:48:35.000Z</time>
      </trkpt>
      <trkpt lat="44.84316" lon="0.78875">
        <ele>89</ele>
        <time>2026-05-01T13:48:36.000Z</time>
      </trkpt>
      <trkpt lat="44.84316" lon="0.78877">
        <ele>88.9</ele>
        <time>2026-05-01T13:48:37.000Z</time>
      </trkpt>
      <trkpt lat="44.84316" lon="0.7888">
        <ele>88.7</ele>
        <time>2026-05-01T13:48:38.000Z</time>
      </trkpt>
      <trkpt lat="44.84317" lon="0.78882">
        <ele>89.2</ele>
        <time>2026-05-01T13:48:39.000Z</time>
      </trkpt>
      <trkpt lat="44.84318" lon="0.78884">
        <ele>89.3</ele>
        <time>2026-05-01T13:48:40.000Z</time>
      </trkpt>
      <trkpt lat="44.84319" lon="0.78885">
        <ele>89.4</ele>
        <time>2026-05-01T13:48:41.000Z</time>
      </trkpt>
      <trkpt lat="44.84319" lon="0.78887">
        <ele>89.3</ele>
        <time>2026-05-01T13:48:42.000Z</time>
      </trkpt>
      <trkpt lat="44.8432" lon="0.78889">
        <ele>89.5</ele>
        <time>2026-05-01T13:48:43.000Z</time>
      </trkpt>
      <trkpt lat="44.84321" lon="0.78891">
        <ele>89.3</ele>
        <time>2026-05-01T13:48:44.000Z</time>
      </trkpt>
      <trkpt lat="44.84322" lon="0.78893">
        <ele>89.5</ele>
        <time>2026-05-01T13:48:45.000Z</time>
      </trkpt>
      <trkpt lat="44.84322" lon="0.78895">
        <ele>88.4</ele>
        <time>2026-05-01T13:48:46.000Z</time>
      </trkpt>
      <trkpt lat="44.84323" lon="0.78897">
        <ele>88.6</ele>
        <time>2026-05-01T13:48:47.000Z</time>
      </trkpt>
      <trkpt lat="44.84323" lon="0.78898">
        <ele>88.8</ele>
        <time>2026-05-01T13:48:48.000Z</time>
      </trkpt>
      <trkpt lat="44.84323" lon="0.789">
        <ele>88.5</ele>
        <time>2026-05-01T13:48:49.000Z</time>
      </trkpt>
      <trkpt lat="44.84324" lon="0.78901">
        <ele>88.5</ele>
        <time>2026-05-01T13:48:50.000Z</time>
      </trkpt>
      <trkpt lat="44.84324" lon="0.78902">
        <ele>89.3</ele>
        <time>2026-05-01T13:48:51.000Z</time>
      </trkpt>
      <trkpt lat="44.84325" lon="0.78903">
        <ele>90</ele>
        <time>2026-05-01T13:48:52.000Z</time>
      </trkpt>
      <trkpt lat="44.84326" lon="0.78904">
        <ele>90.4</ele>
        <time>2026-05-01T13:48:53.000Z</time>
      </trkpt>
      <trkpt lat="44.84325" lon="0.78907">
        <ele>90.8</ele>
        <time>2026-05-01T13:48:54.000Z</time>
      </trkpt>
      <trkpt lat="44.84327" lon="0.78906">
        <ele>92.3</ele>
        <time>2026-05-01T13:48:55.000Z</time>
      </trkpt>
      <trkpt lat="44.84326" lon="0.78905">
        <ele>91</ele>
        <time>2026-05-01T13:48:56.000Z</time>
      </trkpt>
      <trkpt lat="44.84326" lon="0.78905">
        <ele>90.9</ele>
        <time>2026-05-01T13:48:57.000Z</time>
      </trkpt>
      <trkpt lat="44.84326" lon="0.78905">
        <ele>90.9</ele>
        <time>2026-05-01T13:48:58.000Z</time>
      </trkpt>
      <trkpt lat="44.84326" lon="0.78905">
        <ele>90.9</ele>
        <time>2026-05-01T13:48:59.000Z</time>
      </trkpt>
      <trkpt lat="44.84326" lon="0.78905">
        <ele>90.9</ele>
        <time>2026-05-01T13:49:00.000Z</time>
      </trkpt>
      <trkpt lat="44.84326" lon="0.78905">
        <ele>90.9</ele>
        <time>2026-05-01T13:49:01.000Z</time>
      </trkpt>
      <trkpt lat="44.84326" lon="0.78905">
        <ele>90.9</ele>
        <time>2026-05-01T13:49:02.000Z</time>
      </trkpt>
      <trkpt lat="44.84326" lon="0.78905">
        <ele>90.9</ele>
        <time>2026-05-01T13:49:03.000Z</time>
      </trkpt>
      <trkpt lat="44.84326" lon="0.78905">
        <ele>90.8</ele>
        <time>2026-05-01T13:49:04.000Z</time>
      </trkpt>
      <trkpt lat="44.84326" lon="0.78905">
        <ele>90.8</ele>
        <time>2026-05-01T13:49:05.000Z</time>
      </trkpt>
      <trkpt lat="44.84325" lon="0.78904">
        <ele>90.8</ele>
        <time>2026-05-01T13:49:06.000Z</time>
      </trkpt>
      <trkpt lat="44.84325" lon="0.78904">
        <ele>90.7</ele>
        <time>2026-05-01T13:49:07.000Z</time>
      </trkpt>
      <trkpt lat="44.84325" lon="0.78904">
        <ele>90.6</ele>
        <time>2026-05-01T13:49:08.000Z</time>
      </trkpt>
      <trkpt lat="44.84325" lon="0.78904">
        <ele>90.6</ele>
        <time>2026-05-01T13:49:09.000Z</time>
      </trkpt>
      <trkpt lat="44.84325" lon="0.78904">
        <ele>90.6</ele>
        <time>2026-05-01T13:49:10.000Z</time>
      </trkpt>
      <trkpt lat="44.84325" lon="0.78904">
        <ele>90.6</ele>
        <time>2026-05-01T13:49:11.000Z</time>
      </trkpt>
      <trkpt lat="44.84325" lon="0.78904">
        <ele>90.6</ele>
        <time>2026-05-01T13:49:12.000Z</time>
      </trkpt>
      <trkpt lat="44.84325" lon="0.78904">
        <ele>90.6</ele>
        <time>2026-05-01T13:49:13.000Z</time>
      </trkpt>
      <trkpt lat="44.84325" lon="0.78904">
        <ele>90.6</ele>
        <time>2026-05-01T13:49:14.000Z</time>
      </trkpt>
      <trkpt lat="44.84325" lon="0.78904">
        <ele>90.6</ele>
        <time>2026-05-01T13:49:15.000Z</time>
      </trkpt>
      <trkpt lat="44.84325" lon="0.78904">
        <ele>90.6</ele>
        <time>2026-05-01T13:49:16.000Z</time>
      </trkpt>
      <trkpt lat="44.84325" lon="0.78904">
        <ele>90.6</ele>
        <time>2026-05-01T13:49:17.000Z</time>
      </trkpt>
      <trkpt lat="44.84325" lon="0.78904">
        <ele>90.6</ele>
        <time>2026-05-01T13:49:18.000Z</time>
      </trkpt>
      <trkpt lat="44.84325" lon="0.78904">
        <ele>90.5</ele>
        <time>2026-05-01T13:49:19.000Z</time>
      </trkpt>
      <trkpt lat="44.84325" lon="0.78904">
        <ele>90.6</ele>
        <time>2026-05-01T13:49:20.000Z</time>
      </trkpt>
      <trkpt lat="44.84325" lon="0.78904">
        <ele>90.6</ele>
        <time>2026-05-01T13:49:21.000Z</time>
      </trkpt>
      <trkpt lat="44.84325" lon="0.78904">
        <ele>90</ele>
        <time>2026-05-01T13:49:22.000Z</time>
      </trkpt>
      <trkpt lat="44.84326" lon="0.78903">
        <ele>89.8</ele>
        <time>2026-05-01T13:49:23.000Z</time>
      </trkpt>
      <trkpt lat="44.84326" lon="0.78903">
        <ele>89.8</ele>
        <time>2026-05-01T13:49:24.000Z</time>
      </trkpt>
      <trkpt lat="44.84326" lon="0.78903">
        <ele>89.8</ele>
        <time>2026-05-01T13:49:25.000Z</time>
      </trkpt>
      <trkpt lat="44.84326" lon="0.78903">
        <ele>89.6</ele>
        <time>2026-05-01T13:49:26.000Z</time>
      </trkpt>
      <trkpt lat="44.84325" lon="0.78903">
        <ele>89.3</ele>
        <time>2026-05-01T13:49:27.000Z</time>
      </trkpt>
      <trkpt lat="44.84325" lon="0.78903">
        <ele>89.3</ele>
        <time>2026-05-01T13:49:28.000Z</time>
      </trkpt>
      <trkpt lat="44.84325" lon="0.78903">
        <ele>89.3</ele>
        <time>2026-05-01T13:49:29.000Z</time>
      </trkpt>
      <trkpt lat="44.84325" lon="0.78903">
        <ele>89.3</ele>
        <time>2026-05-01T13:49:30.000Z</time>
      </trkpt>
      <trkpt lat="44.84325" lon="0.78903">
        <ele>89.3</ele>
        <time>2026-05-01T13:49:31.000Z</time>
      </trkpt>
      <trkpt lat="44.84325" lon="0.78903">
        <ele>89.3</ele>
        <time>2026-05-01T13:49:32.000Z</time>
      </trkpt>
      <trkpt lat="44.84325" lon="0.78903">
        <ele>89.3</ele>
        <time>2026-05-01T13:49:33.000Z</time>
      </trkpt>
      <trkpt lat="44.84325" lon="0.78903">
        <ele>89.4</ele>
        <time>2026-05-01T13:49:34.000Z</time>
      </trkpt>
      <trkpt lat="44.84325" lon="0.78903">
        <ele>89.4</ele>
        <time>2026-05-01T13:49:35.000Z</time>
      </trkpt>
      <trkpt lat="44.84325" lon="0.78903">
        <ele>89.4</ele>
        <time>2026-05-01T13:49:36.000Z</time>
      </trkpt>
      <trkpt lat="44.84325" lon="0.78903">
        <ele>89.4</ele>
        <time>2026-05-01T13:49:37.000Z</time>
      </trkpt>
      <trkpt lat="44.84325" lon="0.78903">
        <ele>89.4</ele>
        <time>2026-05-01T13:49:38.000Z</time>
      </trkpt>
      <trkpt lat="44.84325" lon="0.78903">
        <ele>89.4</ele>
        <time>2026-05-01T13:49:39.000Z</time>
      </trkpt>
      <trkpt lat="44.84325" lon="0.78903">
        <ele>89.4</ele>
        <time>2026-05-01T13:49:40.000Z</time>
      </trkpt>
      <trkpt lat="44.84325" lon="0.78903">
        <ele>89.4</ele>
        <time>2026-05-01T13:49:41.000Z</time>
      </trkpt>
      <trkpt lat="44.84325" lon="0.78903">
        <ele>89.3</ele>
        <time>2026-05-01T13:49:42.000Z</time>
      </trkpt>
      <trkpt lat="44.84325" lon="0.78903">
        <ele>89.3</ele>
        <time>2026-05-01T13:49:43.000Z</time>
      </trkpt>
      <trkpt lat="44.84325" lon="0.78903">
        <ele>89.3</ele>
        <time>2026-05-01T13:49:44.000Z</time>
      </trkpt>
      <trkpt lat="44.84325" lon="0.78903">
        <ele>89.3</ele>
        <time>2026-05-01T13:49:45.000Z</time>
      </trkpt>
      <trkpt lat="44.84325" lon="0.78903">
        <ele>89.3</ele>
        <time>2026-05-01T13:49:46.000Z</time>
      </trkpt>
      <trkpt lat="44.84325" lon="0.78903">
        <ele>89.3</ele>
        <time>2026-05-01T13:49:47.000Z</time>
      </trkpt>
      <trkpt lat="44.84325" lon="0.78903">
        <ele>89.3</ele>
        <time>2026-05-01T13:49:48.000Z</time>
      </trkpt>
      <trkpt lat="44.84325" lon="0.78903">
        <ele>89.3</ele>
        <time>2026-05-01T13:49:49.000Z</time>
      </trkpt>
      <trkpt lat="44.84325" lon="0.78903">
        <ele>89.3</ele>
        <time>2026-05-01T13:49:50.000Z</time>
      </trkpt>
      <trkpt lat="44.84325" lon="0.78903">
        <ele>89.3</ele>
        <time>2026-05-01T13:49:51.000Z</time>
      </trkpt>
      <trkpt lat="44.84325" lon="0.78903">
        <ele>89.3</ele>
        <time>2026-05-01T13:49:52.000Z</time>
      </trkpt>
      <trkpt lat="44.84325" lon="0.78903">
        <ele>89.3</ele>
        <time>2026-05-01T13:49:53.000Z</time>
      </trkpt>
      <trkpt lat="44.84325" lon="0.78903">
        <ele>89.3</ele>
        <time>2026-05-01T13:49:54.000Z</time>
      </trkpt>
      <trkpt lat="44.84325" lon="0.78903">
        <ele>89.3</ele>
        <time>2026-05-01T13:49:55.000Z</time>
      </trkpt>
      <trkpt lat="44.84325" lon="0.78903">
        <ele>89.3</ele>
        <time>2026-05-01T13:49:56.000Z</time>
      </trkpt>
      <trkpt lat="44.84325" lon="0.78903">
        <ele>89.3</ele>
        <time>2026-05-01T13:49:57.000Z</time>
      </trkpt>
      <trkpt lat="44.84325" lon="0.78903">
        <ele>89.3</ele>
        <time>2026-05-01T13:49:58.000Z</time>
      </trkpt>
      <trkpt lat="44.84325" lon="0.78903">
        <ele>89.3</ele>
        <time>2026-05-01T13:49:59.000Z</time>
      </trkpt>
      <trkpt lat="44.84326" lon="0.78903">
        <ele>89.4</ele>
        <time>2026-05-01T13:50:00.000Z</time>
      </trkpt>
      <trkpt lat="44.84326" lon="0.78903">
        <ele>89.4</ele>
        <time>2026-05-01T13:50:01.000Z</time>
      </trkpt>
      <trkpt lat="44.84326" lon="0.78903">
        <ele>89.4</ele>
        <time>2026-05-01T13:50:02.000Z</time>
      </trkpt>
      <trkpt lat="44.84326" lon="0.78903">
        <ele>89.3</ele>
        <time>2026-05-01T13:50:03.000Z</time>
      </trkpt>
      <trkpt lat="44.84325" lon="0.78903">
        <ele>89.3</ele>
        <time>2026-05-01T13:50:04.000Z</time>
      </trkpt>
      <trkpt lat="44.84325" lon="0.78903">
        <ele>89.1</ele>
        <time>2026-05-01T13:50:05.000Z</time>
      </trkpt>
      <trkpt lat="44.84325" lon="0.78902">
        <ele>89</ele>
        <time>2026-05-01T13:50:06.000Z</time>
      </trkpt>
      <trkpt lat="44.84325" lon="0.78902">
        <ele>89.1</ele>
        <time>2026-05-01T13:50:07.000Z</time>
      </trkpt>
      <trkpt lat="44.84325" lon="0.78902">
        <ele>88.9</ele>
        <time>2026-05-01T13:50:08.000Z</time>
      </trkpt>
      <trkpt lat="44.84325" lon="0.78902">
        <ele>88.9</ele>
        <time>2026-05-01T13:50:09.000Z</time>
      </trkpt>
      <trkpt lat="44.84325" lon="0.78902">
        <ele>89</ele>
        <time>2026-05-01T13:50:10.000Z</time>
      </trkpt>
      <trkpt lat="44.84325" lon="0.78902">
        <ele>89</ele>
        <time>2026-05-01T13:50:11.000Z</time>
      </trkpt>
      <trkpt lat="44.84325" lon="0.78902">
        <ele>89</ele>
        <time>2026-05-01T13:50:12.000Z</time>
      </trkpt>
      <trkpt lat="44.84325" lon="0.78902">
        <ele>89</ele>
        <time>2026-05-01T13:50:13.000Z</time>
      </trkpt>
      <trkpt lat="44.84325" lon="0.78902">
        <ele>89</ele>
        <time>2026-05-01T13:50:14.000Z</time>
      </trkpt>
      <trkpt lat="44.84325" lon="0.78902">
        <ele>89</ele>
        <time>2026-05-01T13:50:15.000Z</time>
      </trkpt>
      <trkpt lat="44.84325" lon="0.78902">
        <ele>89</ele>
        <time>2026-05-01T13:50:16.000Z</time>
      </trkpt>
      <trkpt lat="44.84325" lon="0.78902">
        <ele>89</ele>
        <time>2026-05-01T13:50:17.000Z</time>
      </trkpt>
      <trkpt lat="44.84325" lon="0.78902">
        <ele>89</ele>
        <time>2026-05-01T13:50:18.000Z</time>
      </trkpt>
      <trkpt lat="44.84325" lon="0.78902">
        <ele>89</ele>
        <time>2026-05-01T13:50:19.000Z</time>
      </trkpt>
      <trkpt lat="44.84325" lon="0.78902">
        <ele>89</ele>
        <time>2026-05-01T13:50:20.000Z</time>
      </trkpt>
      <trkpt lat="44.84325" lon="0.78902">
        <ele>89</ele>
        <time>2026-05-01T13:50:21.000Z</time>
      </trkpt>
      <trkpt lat="44.84325" lon="0.78902">
        <ele>89</ele>
        <time>2026-05-01T13:50:22.000Z</time>
      </trkpt>
      <trkpt lat="44.84325" lon="0.78902">
        <ele>89</ele>
        <time>2026-05-01T13:50:23.000Z</time>
      </trkpt>
      <trkpt lat="44.84325" lon="0.78902">
        <ele>89</ele>
        <time>2026-05-01T13:50:24.000Z</time>
      </trkpt>
      <trkpt lat="44.84325" lon="0.78902">
        <ele>89</ele>
        <time>2026-05-01T13:50:25.000Z</time>
      </trkpt>
      <trkpt lat="44.84325" lon="0.78902">
        <ele>89</ele>
        <time>2026-05-01T13:50:26.000Z</time>
      </trkpt>
      <trkpt lat="44.84325" lon="0.78902">
        <ele>89</ele>
        <time>2026-05-01T13:50:27.000Z</time>
      </trkpt>
      <trkpt lat="44.84325" lon="0.78902">
        <ele>89</ele>
        <time>2026-05-01T13:50:28.000Z</time>
      </trkpt>
      <trkpt lat="44.84325" lon="0.78902">
        <ele>89</ele>
        <time>2026-05-01T13:50:29.000Z</time>
      </trkpt>
      <trkpt lat="44.84325" lon="0.78902">
        <ele>89</ele>
        <time>2026-05-01T13:50:30.000Z</time>
      </trkpt>
      <trkpt lat="44.84325" lon="0.78902">
        <ele>89</ele>
        <time>2026-05-01T13:50:31.000Z</time>
      </trkpt>
      <trkpt lat="44.84325" lon="0.78902">
        <ele>89</ele>
        <time>2026-05-01T13:50:32.000Z</time>
      </trkpt>
      <trkpt lat="44.84325" lon="0.78902">
        <ele>89</ele>
        <time>2026-05-01T13:50:33.000Z</time>
      </trkpt>
      <trkpt lat="44.84325" lon="0.78902">
        <ele>89</ele>
        <time>2026-05-01T13:50:34.000Z</time>
      </trkpt>
      <trkpt lat="44.84325" lon="0.78902">
        <ele>89</ele>
        <time>2026-05-01T13:50:35.000Z</time>
      </trkpt>
      <trkpt lat="44.84325" lon="0.78902">
        <ele>89.1</ele>
        <time>2026-05-01T13:50:36.000Z</time>
      </trkpt>
      <trkpt lat="44.84325" lon="0.78901">
        <ele>89.1</ele>
        <time>2026-05-01T13:50:37.000Z</time>
      </trkpt>
      <trkpt lat="44.84326" lon="0.78901">
        <ele>89.1</ele>
        <time>2026-05-01T13:50:38.000Z</time>
      </trkpt>
      <trkpt lat="44.84326" lon="0.78901">
        <ele>89</ele>
        <time>2026-05-01T13:50:39.000Z</time>
      </trkpt>
      <trkpt lat="44.84325" lon="0.78901">
        <ele>89.3</ele>
        <time>2026-05-01T13:50:40.000Z</time>
      </trkpt>
      <trkpt lat="44.84326" lon="0.78902">
        <ele>88.7</ele>
        <time>2026-05-01T13:50:41.000Z</time>
      </trkpt>
      <trkpt lat="44.84326" lon="0.78902">
        <ele>88.7</ele>
        <time>2026-05-01T13:50:42.000Z</time>
      </trkpt>
      <trkpt lat="44.84326" lon="0.78902">
        <ele>88.7</ele>
        <time>2026-05-01T13:50:43.000Z</time>
      </trkpt>
      <trkpt lat="44.84325" lon="0.78902">
        <ele>88.7</ele>
        <time>2026-05-01T13:50:44.000Z</time>
      </trkpt>
      <trkpt lat="44.84325" lon="0.78902">
        <ele>88.7</ele>
        <time>2026-05-01T13:50:45.000Z</time>
      </trkpt>
      <trkpt lat="44.84325" lon="0.78902">
        <ele>88.7</ele>
        <time>2026-05-01T13:50:46.000Z</time>
      </trkpt>
      <trkpt lat="44.84325" lon="0.78902">
        <ele>88.7</ele>
        <time>2026-05-01T13:50:47.000Z</time>
      </trkpt>
      <trkpt lat="44.84325" lon="0.78902">
        <ele>88.7</ele>
        <time>2026-05-01T13:50:48.000Z</time>
      </trkpt>
      <trkpt lat="44.84325" lon="0.78902">
        <ele>88.7</ele>
        <time>2026-05-01T13:50:49.000Z</time>
      </trkpt>
      <trkpt lat="44.84325" lon="0.78902">
        <ele>88.8</ele>
        <time>2026-05-01T13:50:50.000Z</time>
      </trkpt>
      <trkpt lat="44.84325" lon="0.78902">
        <ele>88.8</ele>
        <time>2026-05-01T13:50:51.000Z</time>
      </trkpt>
      <trkpt lat="44.84326" lon="0.78903">
        <ele>89.3</ele>
        <time>2026-05-01T13:50:52.000Z</time>
      </trkpt>
      <trkpt lat="44.84326" lon="0.78903">
        <ele>89.3</ele>
        <time>2026-05-01T13:50:53.000Z</time>
      </trkpt>
      <trkpt lat="44.84326" lon="0.78904">
        <ele>89.4</ele>
        <time>2026-05-01T13:50:54.000Z</time>
      </trkpt>
      <trkpt lat="44.84327" lon="0.78904">
        <ele>89.3</ele>
        <time>2026-05-01T13:50:55.000Z</time>
      </trkpt>
      <trkpt lat="44.84327" lon="0.78904">
        <ele>89.8</ele>
        <time>2026-05-01T13:50:56.000Z</time>
      </trkpt>
      <trkpt lat="44.84328" lon="0.78905">
        <ele>89.9</ele>
        <time>2026-05-01T13:50:57.000Z</time>
      </trkpt>
      <trkpt lat="44.84328" lon="0.78907">
        <ele>89.9</ele>
        <time>2026-05-01T13:50:58.000Z</time>
      </trkpt>
      <trkpt lat="44.84329" lon="0.78909">
        <ele>89.7</ele>
        <time>2026-05-01T13:50:59.000Z</time>
      </trkpt>
      <trkpt lat="44.8433" lon="0.78911">
        <ele>89.6</ele>
        <time>2026-05-01T13:51:00.000Z</time>
      </trkpt>
      <trkpt lat="44.84331" lon="0.78913">
        <ele>89.4</ele>
        <time>2026-05-01T13:51:01.000Z</time>
      </trkpt>
      <trkpt lat="44.84331" lon="0.78915">
        <ele>88.7</ele>
        <time>2026-05-01T13:51:02.000Z</time>
      </trkpt>
      <trkpt lat="44.84332" lon="0.78917">
        <ele>88.8</ele>
        <time>2026-05-01T13:51:03.000Z</time>
      </trkpt>
      <trkpt lat="44.84333" lon="0.78919">
        <ele>89</ele>
        <time>2026-05-01T13:51:04.000Z</time>
      </trkpt>
      <trkpt lat="44.84334" lon="0.78921">
        <ele>88.6</ele>
        <time>2026-05-01T13:51:05.000Z</time>
      </trkpt>
      <trkpt lat="44.84334" lon="0.78923">
        <ele>88.6</ele>
        <time>2026-05-01T13:51:06.000Z</time>
      </trkpt>
      <trkpt lat="44.84335" lon="0.78925">
        <ele>88.5</ele>
        <time>2026-05-01T13:51:07.000Z</time>
      </trkpt>
      <trkpt lat="44.84336" lon="0.78926">
        <ele>88.6</ele>
        <time>2026-05-01T13:51:08.000Z</time>
      </trkpt>
      <trkpt lat="44.84337" lon="0.78928">
        <ele>88.6</ele>
        <time>2026-05-01T13:51:09.000Z</time>
      </trkpt>
      <trkpt lat="44.84339" lon="0.78929">
        <ele>89.2</ele>
        <time>2026-05-01T13:51:10.000Z</time>
      </trkpt>
      <trkpt lat="44.8434" lon="0.7893">
        <ele>89.2</ele>
        <time>2026-05-01T13:51:11.000Z</time>
      </trkpt>
      <trkpt lat="44.84341" lon="0.78931">
        <ele>89.3</ele>
        <time>2026-05-01T13:51:12.000Z</time>
      </trkpt>
      <trkpt lat="44.84343" lon="0.78931">
        <ele>89.2</ele>
        <time>2026-05-01T13:51:13.000Z</time>
      </trkpt>
      <trkpt lat="44.84344" lon="0.78931">
        <ele>88.6</ele>
        <time>2026-05-01T13:51:14.000Z</time>
      </trkpt>
      <trkpt lat="44.84345" lon="0.78932">
        <ele>88.2</ele>
        <time>2026-05-01T13:51:15.000Z</time>
      </trkpt>
      <trkpt lat="44.84347" lon="0.78932">
        <ele>87.9</ele>
        <time>2026-05-01T13:51:16.000Z</time>
      </trkpt>
      <trkpt lat="44.84349" lon="0.78932">
        <ele>87.6</ele>
        <time>2026-05-01T13:51:17.000Z</time>
      </trkpt>
      <trkpt lat="44.8435" lon="0.78933">
        <ele>87.6</ele>
        <time>2026-05-01T13:51:18.000Z</time>
      </trkpt>
      <trkpt lat="44.84352" lon="0.78934">
        <ele>87.5</ele>
        <time>2026-05-01T13:51:19.000Z</time>
      </trkpt>
      <trkpt lat="44.84353" lon="0.78934">
        <ele>87.4</ele>
        <time>2026-05-01T13:51:20.000Z</time>
      </trkpt>
      <trkpt lat="44.84354" lon="0.78936">
        <ele>87.3</ele>
        <time>2026-05-01T13:51:21.000Z</time>
      </trkpt>
      <trkpt lat="44.84356" lon="0.78935">
        <ele>87.7</ele>
        <time>2026-05-01T13:51:22.000Z</time>
      </trkpt>
      <trkpt lat="44.84355" lon="0.78935">
        <ele>87.8</ele>
        <time>2026-05-01T13:51:23.000Z</time>
      </trkpt>
      <trkpt lat="44.84354" lon="0.78934">
        <ele>88.2</ele>
        <time>2026-05-01T13:51:24.000Z</time>
      </trkpt>
      <trkpt lat="44.84355" lon="0.78935">
        <ele>88.3</ele>
        <time>2026-05-01T13:51:25.000Z</time>
      </trkpt>
      <trkpt lat="44.84355" lon="0.78936">
        <ele>88.1</ele>
        <time>2026-05-01T13:51:26.000Z</time>
      </trkpt>
      <trkpt lat="44.84355" lon="0.78938">
        <ele>88.5</ele>
        <time>2026-05-01T13:51:27.000Z</time>
      </trkpt>
      <trkpt lat="44.84356" lon="0.78939">
        <ele>88.6</ele>
        <time>2026-05-01T13:51:28.000Z</time>
      </trkpt>
      <trkpt lat="44.84356" lon="0.78941">
        <ele>88.5</ele>
        <time>2026-05-01T13:51:29.000Z</time>
      </trkpt>
      <trkpt lat="44.84355" lon="0.78943">
        <ele>88.5</ele>
        <time>2026-05-01T13:51:30.000Z</time>
      </trkpt>
      <trkpt lat="44.84353" lon="0.78944">
        <ele>88</ele>
        <time>2026-05-01T13:51:31.000Z</time>
      </trkpt>
      <trkpt lat="44.84351" lon="0.78943">
        <ele>88.2</ele>
        <time>2026-05-01T13:51:32.000Z</time>
      </trkpt>
      <trkpt lat="44.8435" lon="0.7894">
        <ele>88.1</ele>
        <time>2026-05-01T13:51:33.000Z</time>
      </trkpt>
      <trkpt lat="44.84349" lon="0.78938">
        <ele>88.2</ele>
        <time>2026-05-01T13:51:34.000Z</time>
      </trkpt>
      <trkpt lat="44.84345" lon="0.7894">
        <ele>87.2</ele>
        <time>2026-05-01T13:51:35.000Z</time>
      </trkpt>
      <trkpt lat="44.84343" lon="0.78943">
        <ele>85.9</ele>
        <time>2026-05-01T13:51:36.000Z</time>
      </trkpt>
      <trkpt lat="44.84342" lon="0.78945">
        <ele>85.7</ele>
        <time>2026-05-01T13:51:37.000Z</time>
      </trkpt>
      <trkpt lat="44.84341" lon="0.78948">
        <ele>85.2</ele>
        <time>2026-05-01T13:51:38.000Z</time>
      </trkpt>
      <trkpt lat="44.8434" lon="0.78952">
        <ele>85.1</ele>
        <time>2026-05-01T13:51:39.000Z</time>
      </trkpt>
      <trkpt lat="44.8434" lon="0.78956">
        <ele>84.4</ele>
        <time>2026-05-01T13:51:40.000Z</time>
      </trkpt>
      <trkpt lat="44.8434" lon="0.78959">
        <ele>84</ele>
        <time>2026-05-01T13:51:41.000Z</time>
      </trkpt>
      <trkpt lat="44.84342" lon="0.78962">
        <ele>83.2</ele>
        <time>2026-05-01T13:51:42.000Z</time>
      </trkpt>
      <trkpt lat="44.84343" lon="0.78964">
        <ele>83.1</ele>
        <time>2026-05-01T13:51:43.000Z</time>
      </trkpt>
      <trkpt lat="44.84345" lon="0.78966">
        <ele>83.2</ele>
        <time>2026-05-01T13:51:44.000Z</time>
      </trkpt>
      <trkpt lat="44.84346" lon="0.78968">
        <ele>83.3</ele>
        <time>2026-05-01T13:51:45.000Z</time>
      </trkpt>
      <trkpt lat="44.84347" lon="0.7897">
        <ele>83.7</ele>
        <time>2026-05-01T13:51:46.000Z</time>
      </trkpt>
      <trkpt lat="44.84349" lon="0.78972">
        <ele>84.2</ele>
        <time>2026-05-01T13:51:47.000Z</time>
      </trkpt>
      <trkpt lat="44.8435" lon="0.78974">
        <ele>84.4</ele>
        <time>2026-05-01T13:51:48.000Z</time>
      </trkpt>
      <trkpt lat="44.84351" lon="0.78975">
        <ele>84.7</ele>
        <time>2026-05-01T13:51:49.000Z</time>
      </trkpt>
      <trkpt lat="44.84352" lon="0.78977">
        <ele>85</ele>
        <time>2026-05-01T13:51:50.000Z</time>
      </trkpt>
      <trkpt lat="44.84353" lon="0.78979">
        <ele>85.2</ele>
        <time>2026-05-01T13:51:51.000Z</time>
      </trkpt>
      <trkpt lat="44.84354" lon="0.78981">
        <ele>85.4</ele>
        <time>2026-05-01T13:51:52.000Z</time>
      </trkpt>
      <trkpt lat="44.84355" lon="0.78982">
        <ele>85.7</ele>
        <time>2026-05-01T13:51:53.000Z</time>
      </trkpt>
      <trkpt lat="44.84356" lon="0.78984">
        <ele>86.2</ele>
        <time>2026-05-01T13:51:54.000Z</time>
      </trkpt>
      <trkpt lat="44.84357" lon="0.78986">
        <ele>86.5</ele>
        <time>2026-05-01T13:51:55.000Z</time>
      </trkpt>
      <trkpt lat="44.84358" lon="0.78988">
        <ele>86.7</ele>
        <time>2026-05-01T13:51:56.000Z</time>
      </trkpt>
      <trkpt lat="44.8436" lon="0.7899">
        <ele>86.7</ele>
        <time>2026-05-01T13:51:57.000Z</time>
      </trkpt>
      <trkpt lat="44.8436" lon="0.78992">
        <ele>86.8</ele>
        <time>2026-05-01T13:51:58.000Z</time>
      </trkpt>
      <trkpt lat="44.84361" lon="0.78993">
        <ele>87.2</ele>
        <time>2026-05-01T13:51:59.000Z</time>
      </trkpt>
      <trkpt lat="44.84362" lon="0.78994">
        <ele>87.1</ele>
        <time>2026-05-01T13:52:00.000Z</time>
      </trkpt>
      <trkpt lat="44.84363" lon="0.78996">
        <ele>87.1</ele>
        <time>2026-05-01T13:52:01.000Z</time>
      </trkpt>
      <trkpt lat="44.84364" lon="0.78998">
        <ele>87</ele>
        <time>2026-05-01T13:52:02.000Z</time>
      </trkpt>
      <trkpt lat="44.84365" lon="0.79">
        <ele>87</ele>
        <time>2026-05-01T13:52:03.000Z</time>
      </trkpt>
      <trkpt lat="44.84366" lon="0.79002">
        <ele>87</ele>
        <time>2026-05-01T13:52:04.000Z</time>
      </trkpt>
      <trkpt lat="44.84367" lon="0.79003">
        <ele>87.2</ele>
        <time>2026-05-01T13:52:05.000Z</time>
      </trkpt>
      <trkpt lat="44.84367" lon="0.79006">
        <ele>87.2</ele>
        <time>2026-05-01T13:52:06.000Z</time>
      </trkpt>
      <trkpt lat="44.84368" lon="0.79008">
        <ele>87.3</ele>
        <time>2026-05-01T13:52:07.000Z</time>
      </trkpt>
      <trkpt lat="44.84369" lon="0.7901">
        <ele>87</ele>
        <time>2026-05-01T13:52:08.000Z</time>
      </trkpt>
      <trkpt lat="44.8437" lon="0.79012">
        <ele>87.5</ele>
        <time>2026-05-01T13:52:09.000Z</time>
      </trkpt>
      <trkpt lat="44.84371" lon="0.79014">
        <ele>87.4</ele>
        <time>2026-05-01T13:52:10.000Z</time>
      </trkpt>
      <trkpt lat="44.84372" lon="0.79016">
        <ele>87.8</ele>
        <time>2026-05-01T13:52:11.000Z</time>
      </trkpt>
      <trkpt lat="44.84373" lon="0.79018">
        <ele>87.8</ele>
        <time>2026-05-01T13:52:12.000Z</time>
      </trkpt>
      <trkpt lat="44.84373" lon="0.7902">
        <ele>87.6</ele>
        <time>2026-05-01T13:52:13.000Z</time>
      </trkpt>
      <trkpt lat="44.84374" lon="0.79023">
        <ele>87.9</ele>
        <time>2026-05-01T13:52:14.000Z</time>
      </trkpt>
      <trkpt lat="44.84375" lon="0.79024">
        <ele>87.7</ele>
        <time>2026-05-01T13:52:15.000Z</time>
      </trkpt>
      <trkpt lat="44.84376" lon="0.79026">
        <ele>88.5</ele>
        <time>2026-05-01T13:52:16.000Z</time>
      </trkpt>
      <trkpt lat="44.84377" lon="0.79028">
        <ele>88.5</ele>
        <time>2026-05-01T13:52:17.000Z</time>
      </trkpt>
      <trkpt lat="44.84377" lon="0.7903">
        <ele>88.5</ele>
        <time>2026-05-01T13:52:18.000Z</time>
      </trkpt>
      <trkpt lat="44.84378" lon="0.79032">
        <ele>88.5</ele>
        <time>2026-05-01T13:52:19.000Z</time>
      </trkpt>
      <trkpt lat="44.84379" lon="0.79034">
        <ele>88.7</ele>
        <time>2026-05-01T13:52:20.000Z</time>
      </trkpt>
      <trkpt lat="44.8438" lon="0.79036">
        <ele>88.7</ele>
        <time>2026-05-01T13:52:21.000Z</time>
      </trkpt>
      <trkpt lat="44.84381" lon="0.79038">
        <ele>88.8</ele>
        <time>2026-05-01T13:52:22.000Z</time>
      </trkpt>
      <trkpt lat="44.84381" lon="0.7904">
        <ele>89.4</ele>
        <time>2026-05-01T13:52:23.000Z</time>
      </trkpt>
      <trkpt lat="44.84381" lon="0.79043">
        <ele>89</ele>
        <time>2026-05-01T13:52:24.000Z</time>
      </trkpt>
      <trkpt lat="44.84382" lon="0.79046">
        <ele>89</ele>
        <time>2026-05-01T13:52:25.000Z</time>
      </trkpt>
      <trkpt lat="44.84382" lon="0.79048">
        <ele>88.7</ele>
        <time>2026-05-01T13:52:26.000Z</time>
      </trkpt>
      <trkpt lat="44.84382" lon="0.79051">
        <ele>89</ele>
        <time>2026-05-01T13:52:27.000Z</time>
      </trkpt>
      <trkpt lat="44.84383" lon="0.79053">
        <ele>89</ele>
        <time>2026-05-01T13:52:28.000Z</time>
      </trkpt>
      <trkpt lat="44.84383" lon="0.79056">
        <ele>89.1</ele>
        <time>2026-05-01T13:52:29.000Z</time>
      </trkpt>
      <trkpt lat="44.84383" lon="0.79059">
        <ele>89.3</ele>
        <time>2026-05-01T13:52:30.000Z</time>
      </trkpt>
      <trkpt lat="44.84383" lon="0.79061">
        <ele>89.6</ele>
        <time>2026-05-01T13:52:31.000Z</time>
      </trkpt>
      <trkpt lat="44.84383" lon="0.79063">
        <ele>89.6</ele>
        <time>2026-05-01T13:52:32.000Z</time>
      </trkpt>
      <trkpt lat="44.84383" lon="0.79066">
        <ele>89.5</ele>
        <time>2026-05-01T13:52:33.000Z</time>
      </trkpt>
      <trkpt lat="44.84384" lon="0.79068">
        <ele>89.6</ele>
        <time>2026-05-01T13:52:34.000Z</time>
      </trkpt>
      <trkpt lat="44.84384" lon="0.79071">
        <ele>89.8</ele>
        <time>2026-05-01T13:52:35.000Z</time>
      </trkpt>
      <trkpt lat="44.84384" lon="0.79073">
        <ele>89.8</ele>
        <time>2026-05-01T13:52:36.000Z</time>
      </trkpt>
      <trkpt lat="44.84384" lon="0.79075">
        <ele>90</ele>
        <time>2026-05-01T13:52:37.000Z</time>
      </trkpt>
      <trkpt lat="44.84384" lon="0.79077">
        <ele>89.8</ele>
        <time>2026-05-01T13:52:38.000Z</time>
      </trkpt>
      <trkpt lat="44.84385" lon="0.79079">
        <ele>89.9</ele>
        <time>2026-05-01T13:52:39.000Z</time>
      </trkpt>
      <trkpt lat="44.84385" lon="0.79082">
        <ele>90.3</ele>
        <time>2026-05-01T13:52:40.000Z</time>
      </trkpt>
      <trkpt lat="44.84385" lon="0.79084">
        <ele>90.5</ele>
        <time>2026-05-01T13:52:41.000Z</time>
      </trkpt>
      <trkpt lat="44.84385" lon="0.79085">
        <ele>90.6</ele>
        <time>2026-05-01T13:52:42.000Z</time>
      </trkpt>
      <trkpt lat="44.84385" lon="0.79086">
        <ele>90.8</ele>
        <time>2026-05-01T13:52:43.000Z</time>
      </trkpt>
      <trkpt lat="44.84386" lon="0.79088">
        <ele>90.4</ele>
        <time>2026-05-01T13:52:44.000Z</time>
      </trkpt>
      <trkpt lat="44.84386" lon="0.79089">
        <ele>89.7</ele>
        <time>2026-05-01T13:52:45.000Z</time>
      </trkpt>
      <trkpt lat="44.84386" lon="0.7909">
        <ele>89.6</ele>
        <time>2026-05-01T13:52:46.000Z</time>
      </trkpt>
      <trkpt lat="44.84386" lon="0.7909">
        <ele>89.9</ele>
        <time>2026-05-01T13:52:47.000Z</time>
      </trkpt>
      <trkpt lat="44.84386" lon="0.7909">
        <ele>90.1</ele>
        <time>2026-05-01T13:52:48.000Z</time>
      </trkpt>
      <trkpt lat="44.84386" lon="0.7909">
        <ele>90.3</ele>
        <time>2026-05-01T13:52:49.000Z</time>
      </trkpt>
      <trkpt lat="44.84386" lon="0.79091">
        <ele>90.3</ele>
        <time>2026-05-01T13:52:50.000Z</time>
      </trkpt>
      <trkpt lat="44.84386" lon="0.79092">
        <ele>90.4</ele>
        <time>2026-05-01T13:52:51.000Z</time>
      </trkpt>
      <trkpt lat="44.84386" lon="0.79093">
        <ele>90.4</ele>
        <time>2026-05-01T13:52:52.000Z</time>
      </trkpt>
      <trkpt lat="44.84387" lon="0.79095">
        <ele>90</ele>
        <time>2026-05-01T13:52:53.000Z</time>
      </trkpt>
      <trkpt lat="44.84388" lon="0.79096">
        <ele>90.2</ele>
        <time>2026-05-01T13:52:54.000Z</time>
      </trkpt>
      <trkpt lat="44.84389" lon="0.79098">
        <ele>90.4</ele>
        <time>2026-05-01T13:52:55.000Z</time>
      </trkpt>
      <trkpt lat="44.84389" lon="0.79098">
        <ele>90.5</ele>
        <time>2026-05-01T13:52:56.000Z</time>
      </trkpt>
      <trkpt lat="44.84389" lon="0.79099">
        <ele>90.5</ele>
        <time>2026-05-01T13:52:57.000Z</time>
      </trkpt>
      <trkpt lat="44.84389" lon="0.79099">
        <ele>90.5</ele>
        <time>2026-05-01T13:52:58.000Z</time>
      </trkpt>
      <trkpt lat="44.84389" lon="0.79099">
        <ele>90.6</ele>
        <time>2026-05-01T13:52:59.000Z</time>
      </trkpt>
      <trkpt lat="44.84389" lon="0.79099">
        <ele>90.6</ele>
        <time>2026-05-01T13:53:00.000Z</time>
      </trkpt>
      <trkpt lat="44.84389" lon="0.79099">
        <ele>90.6</ele>
        <time>2026-05-01T13:53:01.000Z</time>
      </trkpt>
      <trkpt lat="44.84389" lon="0.79099">
        <ele>90.6</ele>
        <time>2026-05-01T13:53:02.000Z</time>
      </trkpt>
      <trkpt lat="44.84389" lon="0.79099">
        <ele>90.6</ele>
        <time>2026-05-01T13:53:03.000Z</time>
      </trkpt>
      <trkpt lat="44.84389" lon="0.79099">
        <ele>90.8</ele>
        <time>2026-05-01T13:53:04.000Z</time>
      </trkpt>
      <trkpt lat="44.84389" lon="0.79099">
        <ele>90.8</ele>
        <time>2026-05-01T13:53:05.000Z</time>
      </trkpt>
      <trkpt lat="44.84389" lon="0.79099">
        <ele>90.6</ele>
        <time>2026-05-01T13:53:06.000Z</time>
      </trkpt>
      <trkpt lat="44.84389" lon="0.79099">
        <ele>90.6</ele>
        <time>2026-05-01T13:53:07.000Z</time>
      </trkpt>
      <trkpt lat="44.84389" lon="0.79099">
        <ele>90.5</ele>
        <time>2026-05-01T13:53:08.000Z</time>
      </trkpt>
      <trkpt lat="44.84389" lon="0.79099">
        <ele>90.6</ele>
        <time>2026-05-01T13:53:09.000Z</time>
      </trkpt>
      <trkpt lat="44.84389" lon="0.79099">
        <ele>90.5</ele>
        <time>2026-05-01T13:53:10.000Z</time>
      </trkpt>
      <trkpt lat="44.84389" lon="0.79099">
        <ele>90.2</ele>
        <time>2026-05-01T13:53:11.000Z</time>
      </trkpt>
      <trkpt lat="44.84388" lon="0.79099">
        <ele>90.4</ele>
        <time>2026-05-01T13:53:12.000Z</time>
      </trkpt>
      <trkpt lat="44.84388" lon="0.791">
        <ele>90.4</ele>
        <time>2026-05-01T13:53:13.000Z</time>
      </trkpt>
      <trkpt lat="44.84387" lon="0.79099">
        <ele>90.3</ele>
        <time>2026-05-01T13:53:14.000Z</time>
      </trkpt>
      <trkpt lat="44.84387" lon="0.79098">
        <ele>90.2</ele>
        <time>2026-05-01T13:53:15.000Z</time>
      </trkpt>
      <trkpt lat="44.84386" lon="0.79097">
        <ele>90.1</ele>
        <time>2026-05-01T13:53:16.000Z</time>
      </trkpt>
      <trkpt lat="44.84385" lon="0.79095">
        <ele>90.1</ele>
        <time>2026-05-01T13:53:17.000Z</time>
      </trkpt>
      <trkpt lat="44.84385" lon="0.79094">
        <ele>90</ele>
        <time>2026-05-01T13:53:18.000Z</time>
      </trkpt>
      <trkpt lat="44.84385" lon="0.79094">
        <ele>90.1</ele>
        <time>2026-05-01T13:53:19.000Z</time>
      </trkpt>
      <trkpt lat="44.84385" lon="0.79093">
        <ele>90.1</ele>
        <time>2026-05-01T13:53:20.000Z</time>
      </trkpt>
      <trkpt lat="44.84385" lon="0.79093">
        <ele>90.1</ele>
        <time>2026-05-01T13:53:21.000Z</time>
      </trkpt>
      <trkpt lat="44.84385" lon="0.79093">
        <ele>90.1</ele>
        <time>2026-05-01T13:53:22.000Z</time>
      </trkpt>
      <trkpt lat="44.84385" lon="0.79093">
        <ele>90</ele>
        <time>2026-05-01T13:53:23.000Z</time>
      </trkpt>
      <trkpt lat="44.84386" lon="0.79093">
        <ele>90</ele>
        <time>2026-05-01T13:53:24.000Z</time>
      </trkpt>
      <trkpt lat="44.84386" lon="0.79093">
        <ele>90</ele>
        <time>2026-05-01T13:53:25.000Z</time>
      </trkpt>
      <trkpt lat="44.84386" lon="0.79093">
        <ele>90.1</ele>
        <time>2026-05-01T13:53:26.000Z</time>
      </trkpt>
      <trkpt lat="44.84386" lon="0.79093">
        <ele>90.1</ele>
        <time>2026-05-01T13:53:27.000Z</time>
      </trkpt>
      <trkpt lat="44.84386" lon="0.79093">
        <ele>90.1</ele>
        <time>2026-05-01T13:53:28.000Z</time>
      </trkpt>
      <trkpt lat="44.84386" lon="0.79093">
        <ele>90.1</ele>
        <time>2026-05-01T13:53:29.000Z</time>
      </trkpt>
      <trkpt lat="44.84386" lon="0.79093">
        <ele>90.1</ele>
        <time>2026-05-01T13:53:30.000Z</time>
      </trkpt>
      <trkpt lat="44.84386" lon="0.79093">
        <ele>90.1</ele>
        <time>2026-05-01T13:53:31.000Z</time>
      </trkpt>
      <trkpt lat="44.84386" lon="0.79093">
        <ele>90.1</ele>
        <time>2026-05-01T13:53:32.000Z</time>
      </trkpt>
      <trkpt lat="44.84386" lon="0.79093">
        <ele>90.1</ele>
        <time>2026-05-01T13:53:33.000Z</time>
      </trkpt>
      <trkpt lat="44.84386" lon="0.79092">
        <ele>90.1</ele>
        <time>2026-05-01T13:53:34.000Z</time>
      </trkpt>
      <trkpt lat="44.84386" lon="0.79092">
        <ele>90.1</ele>
        <time>2026-05-01T13:53:35.000Z</time>
      </trkpt>
      <trkpt lat="44.84386" lon="0.79092">
        <ele>90.1</ele>
        <time>2026-05-01T13:53:36.000Z</time>
      </trkpt>
      <trkpt lat="44.84386" lon="0.79092">
        <ele>90.1</ele>
        <time>2026-05-01T13:53:37.000Z</time>
      </trkpt>
      <trkpt lat="44.84386" lon="0.79092">
        <ele>90.1</ele>
        <time>2026-05-01T13:53:38.000Z</time>
      </trkpt>
      <trkpt lat="44.84386" lon="0.79092">
        <ele>90.1</ele>
        <time>2026-05-01T13:53:39.000Z</time>
      </trkpt>
      <trkpt lat="44.84386" lon="0.79092">
        <ele>90.1</ele>
        <time>2026-05-01T13:53:40.000Z</time>
      </trkpt>
      <trkpt lat="44.84386" lon="0.79092">
        <ele>90.1</ele>
        <time>2026-05-01T13:53:41.000Z</time>
      </trkpt>
      <trkpt lat="44.84386" lon="0.79092">
        <ele>90.1</ele>
        <time>2026-05-01T13:53:42.000Z</time>
      </trkpt>
      <trkpt lat="44.84386" lon="0.79092">
        <ele>90.1</ele>
        <time>2026-05-01T13:53:43.000Z</time>
      </trkpt>
      <trkpt lat="44.84386" lon="0.79092">
        <ele>90.1</ele>
        <time>2026-05-01T13:53:44.000Z</time>
      </trkpt>
      <trkpt lat="44.84386" lon="0.79092">
        <ele>90.1</ele>
        <time>2026-05-01T13:53:45.000Z</time>
      </trkpt>
      <trkpt lat="44.84386" lon="0.79092">
        <ele>90.1</ele>
        <time>2026-05-01T13:53:46.000Z</time>
      </trkpt>
      <trkpt lat="44.84386" lon="0.79092">
        <ele>90.1</ele>
        <time>2026-05-01T13:53:47.000Z</time>
      </trkpt>
      <trkpt lat="44.84386" lon="0.79092">
        <ele>90.2</ele>
        <time>2026-05-01T13:53:48.000Z</time>
      </trkpt>
      <trkpt lat="44.84387" lon="0.79092">
        <ele>89.8</ele>
        <time>2026-05-01T13:53:49.000Z</time>
      </trkpt>
      <trkpt lat="44.84387" lon="0.79092">
        <ele>89.7</ele>
        <time>2026-05-01T13:53:50.000Z</time>
      </trkpt>
      <trkpt lat="44.84387" lon="0.79092">
        <ele>89.7</ele>
        <time>2026-05-01T13:53:51.000Z</time>
      </trkpt>
      <trkpt lat="44.84386" lon="0.79089">
        <ele>89.7</ele>
        <time>2026-05-01T13:53:52.000Z</time>
      </trkpt>
      <trkpt lat="44.84386" lon="0.79088">
        <ele>89.9</ele>
        <time>2026-05-01T13:53:53.000Z</time>
      </trkpt>
      <trkpt lat="44.84385" lon="0.79087">
        <ele>89.6</ele>
        <time>2026-05-01T13:53:54.000Z</time>
      </trkpt>
      <trkpt lat="44.84385" lon="0.79086">
        <ele>89.4</ele>
        <time>2026-05-01T13:53:55.000Z</time>
      </trkpt>
      <trkpt lat="44.84384" lon="0.79086">
        <ele>88.9</ele>
        <time>2026-05-01T13:53:56.000Z</time>
      </trkpt>
      <trkpt lat="44.84383" lon="0.79087">
        <ele>89</ele>
        <time>2026-05-01T13:53:57.000Z</time>
      </trkpt>
      <trkpt lat="44.84383" lon="0.79087">
        <ele>87.1</ele>
        <time>2026-05-01T13:53:58.000Z</time>
      </trkpt>
      <trkpt lat="44.84382" lon="0.79086">
        <ele>85.5</ele>
        <time>2026-05-01T13:53:59.000Z</time>
      </trkpt>
      <trkpt lat="44.84382" lon="0.79086">
        <ele>84.5</ele>
        <time>2026-05-01T13:54:00.000Z</time>
      </trkpt>
      <trkpt lat="44.8438" lon="0.79087">
        <ele>83.2</ele>
        <time>2026-05-01T13:54:01.000Z</time>
      </trkpt>
      <trkpt lat="44.84379" lon="0.7909">
        <ele>81.3</ele>
        <time>2026-05-01T13:54:02.000Z</time>
      </trkpt>
      <trkpt lat="44.84379" lon="0.79094">
        <ele>81.3</ele>
        <time>2026-05-01T13:54:03.000Z</time>
      </trkpt>
      <trkpt lat="44.84381" lon="0.79097">
        <ele>81.1</ele>
        <time>2026-05-01T13:54:04.000Z</time>
      </trkpt>
      <trkpt lat="44.84382" lon="0.791">
        <ele>81.3</ele>
        <time>2026-05-01T13:54:05.000Z</time>
      </trkpt>
      <trkpt lat="44.84383" lon="0.79104">
        <ele>81.4</ele>
        <time>2026-05-01T13:54:06.000Z</time>
      </trkpt>
      <trkpt lat="44.84385" lon="0.79107">
        <ele>81.1</ele>
        <time>2026-05-01T13:54:07.000Z</time>
      </trkpt>
      <trkpt lat="44.84386" lon="0.79111">
        <ele>81.8</ele>
        <time>2026-05-01T13:54:08.000Z</time>
      </trkpt>
      <trkpt lat="44.84387" lon="0.79113">
        <ele>81.9</ele>
        <time>2026-05-01T13:54:09.000Z</time>
      </trkpt>
      <trkpt lat="44.84388" lon="0.79116">
        <ele>82</ele>
        <time>2026-05-01T13:54:10.000Z</time>
      </trkpt>
      <trkpt lat="44.84389" lon="0.79118">
        <ele>82.1</ele>
        <time>2026-05-01T13:54:11.000Z</time>
      </trkpt>
      <trkpt lat="44.8439" lon="0.79121">
        <ele>81.9</ele>
        <time>2026-05-01T13:54:12.000Z</time>
      </trkpt>
      <trkpt lat="44.8439" lon="0.79123">
        <ele>82.3</ele>
        <time>2026-05-01T13:54:13.000Z</time>
      </trkpt>
      <trkpt lat="44.84391" lon="0.79126">
        <ele>82.6</ele>
        <time>2026-05-01T13:54:14.000Z</time>
      </trkpt>
      <trkpt lat="44.84391" lon="0.79128">
        <ele>82.6</ele>
        <time>2026-05-01T13:54:15.000Z</time>
      </trkpt>
      <trkpt lat="44.84391" lon="0.79131">
        <ele>82.4</ele>
        <time>2026-05-01T13:54:16.000Z</time>
      </trkpt>
      <trkpt lat="44.84391" lon="0.79133">
        <ele>82.8</ele>
        <time>2026-05-01T13:54:17.000Z</time>
      </trkpt>
      <trkpt lat="44.84391" lon="0.79134">
        <ele>83.1</ele>
        <time>2026-05-01T13:54:18.000Z</time>
      </trkpt>
      <trkpt lat="44.84392" lon="0.79135">
        <ele>83.2</ele>
        <time>2026-05-01T13:54:19.000Z</time>
      </trkpt>
      <trkpt lat="44.84393" lon="0.79136">
        <ele>83.4</ele>
        <time>2026-05-01T13:54:20.000Z</time>
      </trkpt>
      <trkpt lat="44.84395" lon="0.79138">
        <ele>83.5</ele>
        <time>2026-05-01T13:54:21.000Z</time>
      </trkpt>
      <trkpt lat="44.84396" lon="0.79139">
        <ele>83.6</ele>
        <time>2026-05-01T13:54:22.000Z</time>
      </trkpt>
      <trkpt lat="44.84398" lon="0.79141">
        <ele>84.5</ele>
        <time>2026-05-01T13:54:23.000Z</time>
      </trkpt>
      <trkpt lat="44.84399" lon="0.79143">
        <ele>84.8</ele>
        <time>2026-05-01T13:54:24.000Z</time>
      </trkpt>
      <trkpt lat="44.84401" lon="0.79144">
        <ele>85.2</ele>
        <time>2026-05-01T13:54:25.000Z</time>
      </trkpt>
      <trkpt lat="44.84403" lon="0.79146">
        <ele>85.8</ele>
        <time>2026-05-01T13:54:26.000Z</time>
      </trkpt>
      <trkpt lat="44.84405" lon="0.79148">
        <ele>86.3</ele>
        <time>2026-05-01T13:54:27.000Z</time>
      </trkpt>
      <trkpt lat="44.84406" lon="0.7915">
        <ele>86.7</ele>
        <time>2026-05-01T13:54:28.000Z</time>
      </trkpt>
      <trkpt lat="44.84407" lon="0.79151">
        <ele>87.1</ele>
        <time>2026-05-01T13:54:29.000Z</time>
      </trkpt>
      <trkpt lat="44.84408" lon="0.79153">
        <ele>88.2</ele>
        <time>2026-05-01T13:54:30.000Z</time>
      </trkpt>
      <trkpt lat="44.8441" lon="0.79155">
        <ele>87.8</ele>
        <time>2026-05-01T13:54:31.000Z</time>
      </trkpt>
      <trkpt lat="44.84411" lon="0.79157">
        <ele>88.2</ele>
        <time>2026-05-01T13:54:32.000Z</time>
      </trkpt>
      <trkpt lat="44.84412" lon="0.79158">
        <ele>88.5</ele>
        <time>2026-05-01T13:54:33.000Z</time>
      </trkpt>
      <trkpt lat="44.84413" lon="0.7916">
        <ele>88.7</ele>
        <time>2026-05-01T13:54:34.000Z</time>
      </trkpt>
      <trkpt lat="44.84414" lon="0.79162">
        <ele>89.2</ele>
        <time>2026-05-01T13:54:35.000Z</time>
      </trkpt>
      <trkpt lat="44.84415" lon="0.79164">
        <ele>89.4</ele>
        <time>2026-05-01T13:54:36.000Z</time>
      </trkpt>
      <trkpt lat="44.84417" lon="0.79165">
        <ele>89.6</ele>
        <time>2026-05-01T13:54:37.000Z</time>
      </trkpt>
      <trkpt lat="44.84417" lon="0.79167">
        <ele>89.9</ele>
        <time>2026-05-01T13:54:38.000Z</time>
      </trkpt>
      <trkpt lat="44.84419" lon="0.79169">
        <ele>90.2</ele>
        <time>2026-05-01T13:54:39.000Z</time>
      </trkpt>
      <trkpt lat="44.8442" lon="0.7917">
        <ele>90.4</ele>
        <time>2026-05-01T13:54:40.000Z</time>
      </trkpt>
      <trkpt lat="44.84421" lon="0.79172">
        <ele>90.7</ele>
        <time>2026-05-01T13:54:41.000Z</time>
      </trkpt>
      <trkpt lat="44.84422" lon="0.79174">
        <ele>91.1</ele>
        <time>2026-05-01T13:54:42.000Z</time>
      </trkpt>
      <trkpt lat="44.84423" lon="0.79176">
        <ele>91.5</ele>
        <time>2026-05-01T13:54:43.000Z</time>
      </trkpt>
      <trkpt lat="44.84424" lon="0.79177">
        <ele>91.8</ele>
        <time>2026-05-01T13:54:44.000Z</time>
      </trkpt>
      <trkpt lat="44.84425" lon="0.79179">
        <ele>92</ele>
        <time>2026-05-01T13:54:45.000Z</time>
      </trkpt>
      <trkpt lat="44.84426" lon="0.79181">
        <ele>92.1</ele>
        <time>2026-05-01T13:54:46.000Z</time>
      </trkpt>
      <trkpt lat="44.84426" lon="0.79183">
        <ele>92.3</ele>
        <time>2026-05-01T13:54:47.000Z</time>
      </trkpt>
      <trkpt lat="44.84427" lon="0.79185">
        <ele>92.3</ele>
        <time>2026-05-01T13:54:48.000Z</time>
      </trkpt>
      <trkpt lat="44.84428" lon="0.79187">
        <ele>93.1</ele>
        <time>2026-05-01T13:54:49.000Z</time>
      </trkpt>
      <trkpt lat="44.84429" lon="0.79189">
        <ele>93.1</ele>
        <time>2026-05-01T13:54:50.000Z</time>
      </trkpt>
      <trkpt lat="44.8443" lon="0.79191">
        <ele>92.8</ele>
        <time>2026-05-01T13:54:51.000Z</time>
      </trkpt>
      <trkpt lat="44.84431" lon="0.79193">
        <ele>93.1</ele>
        <time>2026-05-01T13:54:52.000Z</time>
      </trkpt>
      <trkpt lat="44.84432" lon="0.79195">
        <ele>93.5</ele>
        <time>2026-05-01T13:54:53.000Z</time>
      </trkpt>
      <trkpt lat="44.84433" lon="0.79197">
        <ele>93.6</ele>
        <time>2026-05-01T13:54:54.000Z</time>
      </trkpt>
      <trkpt lat="44.84434" lon="0.79198">
        <ele>93.7</ele>
        <time>2026-05-01T13:54:55.000Z</time>
      </trkpt>
      <trkpt lat="44.84436" lon="0.792">
        <ele>93.8</ele>
        <time>2026-05-01T13:54:56.000Z</time>
      </trkpt>
      <trkpt lat="44.84437" lon="0.79202">
        <ele>94.2</ele>
        <time>2026-05-01T13:54:57.000Z</time>
      </trkpt>
      <trkpt lat="44.84438" lon="0.79203">
        <ele>94.1</ele>
        <time>2026-05-01T13:54:58.000Z</time>
      </trkpt>
      <trkpt lat="44.84439" lon="0.79205">
        <ele>94</ele>
        <time>2026-05-01T13:54:59.000Z</time>
      </trkpt>
      <trkpt lat="44.8444" lon="0.79207">
        <ele>94.1</ele>
        <time>2026-05-01T13:55:00.000Z</time>
      </trkpt>
      <trkpt lat="44.84441" lon="0.79209">
        <ele>94.2</ele>
        <time>2026-05-01T13:55:01.000Z</time>
      </trkpt>
      <trkpt lat="44.84443" lon="0.7921">
        <ele>94.3</ele>
        <time>2026-05-01T13:55:02.000Z</time>
      </trkpt>
      <trkpt lat="44.84444" lon="0.79212">
        <ele>94.1</ele>
        <time>2026-05-01T13:55:03.000Z</time>
      </trkpt>
      <trkpt lat="44.84445" lon="0.79213">
        <ele>94.2</ele>
        <time>2026-05-01T13:55:04.000Z</time>
      </trkpt>
      <trkpt lat="44.84446" lon="0.79215">
        <ele>94.1</ele>
        <time>2026-05-01T13:55:05.000Z</time>
      </trkpt>
      <trkpt lat="44.84447" lon="0.79217">
        <ele>94</ele>
        <time>2026-05-01T13:55:06.000Z</time>
      </trkpt>
      <trkpt lat="44.84447" lon="0.79218">
        <ele>94.5</ele>
        <time>2026-05-01T13:55:07.000Z</time>
      </trkpt>
      <trkpt lat="44.84447" lon="0.7922">
        <ele>95.2</ele>
        <time>2026-05-01T13:55:08.000Z</time>
      </trkpt>
      <trkpt lat="44.84448" lon="0.7922">
        <ele>95.2</ele>
        <time>2026-05-01T13:55:09.000Z</time>
      </trkpt>
      <trkpt lat="44.84447" lon="0.7922">
        <ele>95.1</ele>
        <time>2026-05-01T13:55:10.000Z</time>
      </trkpt>
      <trkpt lat="44.84447" lon="0.7922">
        <ele>95.6</ele>
        <time>2026-05-01T13:55:11.000Z</time>
      </trkpt>
      <trkpt lat="44.84447" lon="0.79222">
        <ele>95.3</ele>
        <time>2026-05-01T13:55:12.000Z</time>
      </trkpt>
      <trkpt lat="44.84447" lon="0.79223">
        <ele>94.7</ele>
        <time>2026-05-01T13:55:13.000Z</time>
      </trkpt>
      <trkpt lat="44.84447" lon="0.79225">
        <ele>94.3</ele>
        <time>2026-05-01T13:55:14.000Z</time>
      </trkpt>
      <trkpt lat="44.84447" lon="0.79225">
        <ele>94.7</ele>
        <time>2026-05-01T13:55:15.000Z</time>
      </trkpt>
      <trkpt lat="44.84447" lon="0.79225">
        <ele>94.7</ele>
        <time>2026-05-01T13:55:16.000Z</time>
      </trkpt>
      <trkpt lat="44.84447" lon="0.79225">
        <ele>94.7</ele>
        <time>2026-05-01T13:55:17.000Z</time>
      </trkpt>
      <trkpt lat="44.84447" lon="0.79225">
        <ele>94.7</ele>
        <time>2026-05-01T13:55:18.000Z</time>
      </trkpt>
      <trkpt lat="44.84447" lon="0.79225">
        <ele>94.7</ele>
        <time>2026-05-01T13:55:19.000Z</time>
      </trkpt>
      <trkpt lat="44.84448" lon="0.79226">
        <ele>95.6</ele>
        <time>2026-05-01T13:55:20.000Z</time>
      </trkpt>
      <trkpt lat="44.84448" lon="0.79226">
        <ele>95.7</ele>
        <time>2026-05-01T13:55:21.000Z</time>
      </trkpt>
      <trkpt lat="44.84448" lon="0.79229">
        <ele>96.1</ele>
        <time>2026-05-01T13:55:22.000Z</time>
      </trkpt>
      <trkpt lat="44.84447" lon="0.79229">
        <ele>96.1</ele>
        <time>2026-05-01T13:55:23.000Z</time>
      </trkpt>
      <trkpt lat="44.84447" lon="0.79229">
        <ele>96.1</ele>
        <time>2026-05-01T13:55:24.000Z</time>
      </trkpt>
      <trkpt lat="44.84447" lon="0.79229">
        <ele>96.1</ele>
        <time>2026-05-01T13:55:25.000Z</time>
      </trkpt>
      <trkpt lat="44.84447" lon="0.79229">
        <ele>96.6</ele>
        <time>2026-05-01T13:55:26.000Z</time>
      </trkpt>
      <trkpt lat="44.84447" lon="0.79229">
        <ele>96.6</ele>
        <time>2026-05-01T13:55:27.000Z</time>
      </trkpt>
      <trkpt lat="44.84447" lon="0.79228">
        <ele>96.6</ele>
        <time>2026-05-01T13:55:28.000Z</time>
      </trkpt>
      <trkpt lat="44.84447" lon="0.79228">
        <ele>96.9</ele>
        <time>2026-05-01T13:55:29.000Z</time>
      </trkpt>
      <trkpt lat="44.84447" lon="0.79227">
        <ele>97</ele>
        <time>2026-05-01T13:55:30.000Z</time>
      </trkpt>
      <trkpt lat="44.84447" lon="0.79226">
        <ele>96.6</ele>
        <time>2026-05-01T13:55:31.000Z</time>
      </trkpt>
      <trkpt lat="44.84447" lon="0.79226">
        <ele>96.3</ele>
        <time>2026-05-01T13:55:32.000Z</time>
      </trkpt>
      <trkpt lat="44.84446" lon="0.79227">
        <ele>96.3</ele>
        <time>2026-05-01T13:55:33.000Z</time>
      </trkpt>
      <trkpt lat="44.84446" lon="0.79227">
        <ele>96.5</ele>
        <time>2026-05-01T13:55:34.000Z</time>
      </trkpt>
      <trkpt lat="44.84445" lon="0.79227">
        <ele>96.3</ele>
        <time>2026-05-01T13:55:35.000Z</time>
      </trkpt>
      <trkpt lat="44.84443" lon="0.79225">
        <ele>96.4</ele>
        <time>2026-05-01T13:55:36.000Z</time>
      </trkpt>
      <trkpt lat="44.84442" lon="0.79223">
        <ele>96.5</ele>
        <time>2026-05-01T13:55:37.000Z</time>
      </trkpt>
      <trkpt lat="44.84439" lon="0.79226">
        <ele>96</ele>
        <time>2026-05-01T13:55:38.000Z</time>
      </trkpt>
      <trkpt lat="44.84439" lon="0.79228">
        <ele>94</ele>
        <time>2026-05-01T13:55:39.000Z</time>
      </trkpt>
      <trkpt lat="44.84439" lon="0.7923">
        <ele>90.7</ele>
        <time>2026-05-01T13:55:40.000Z</time>
      </trkpt>
      <trkpt lat="44.84439" lon="0.79231">
        <ele>88.4</ele>
        <time>2026-05-01T13:55:41.000Z</time>
      </trkpt>
      <trkpt lat="44.84436" lon="0.79211">
        <ele>97.8</ele>
        <time>2026-05-01T13:55:42.000Z</time>
      </trkpt>
      <trkpt lat="44.84435" lon="0.79209">
        <ele>97.6</ele>
        <time>2026-05-01T13:55:43.000Z</time>
      </trkpt>
      <trkpt lat="44.84434" lon="0.79208">
        <ele>97.6</ele>
        <time>2026-05-01T13:55:44.000Z</time>
      </trkpt>
      <trkpt lat="44.84432" lon="0.79206">
        <ele>97.5</ele>
        <time>2026-05-01T13:55:45.000Z</time>
      </trkpt>
      <trkpt lat="44.84431" lon="0.79204">
        <ele>97.5</ele>
        <time>2026-05-01T13:55:46.000Z</time>
      </trkpt>
      <trkpt lat="44.8443" lon="0.79203">
        <ele>97.4</ele>
        <time>2026-05-01T13:55:47.000Z</time>
      </trkpt>
      <trkpt lat="44.84428" lon="0.79201">
        <ele>97.4</ele>
        <time>2026-05-01T13:55:48.000Z</time>
      </trkpt>
      <trkpt lat="44.84427" lon="0.79199">
        <ele>97.5</ele>
        <time>2026-05-01T13:55:49.000Z</time>
      </trkpt>
      <trkpt lat="44.84426" lon="0.79198">
        <ele>97.5</ele>
        <time>2026-05-01T13:55:50.000Z</time>
      </trkpt>
      <trkpt lat="44.84425" lon="0.79197">
        <ele>97.4</ele>
        <time>2026-05-01T13:55:51.000Z</time>
      </trkpt>
      <trkpt lat="44.84423" lon="0.79195">
        <ele>97.4</ele>
        <time>2026-05-01T13:55:52.000Z</time>
      </trkpt>
      <trkpt lat="44.84422" lon="0.79194">
        <ele>97.3</ele>
        <time>2026-05-01T13:55:53.000Z</time>
      </trkpt>
      <trkpt lat="44.8442" lon="0.79193">
        <ele>97.3</ele>
        <time>2026-05-01T13:55:54.000Z</time>
      </trkpt>
      <trkpt lat="44.84419" lon="0.79191">
        <ele>97.5</ele>
        <time>2026-05-01T13:55:55.000Z</time>
      </trkpt>
      <trkpt lat="44.84418" lon="0.7919">
        <ele>97.6</ele>
        <time>2026-05-01T13:55:56.000Z</time>
      </trkpt>
      <trkpt lat="44.84416" lon="0.79189">
        <ele>97.6</ele>
        <time>2026-05-01T13:55:57.000Z</time>
      </trkpt>
      <trkpt lat="44.84415" lon="0.79187">
        <ele>97.6</ele>
        <time>2026-05-01T13:55:58.000Z</time>
      </trkpt>
      <trkpt lat="44.84414" lon="0.79186">
        <ele>97.4</ele>
        <time>2026-05-01T13:55:59.000Z</time>
      </trkpt>
      <trkpt lat="44.84412" lon="0.79185">
        <ele>97.4</ele>
        <time>2026-05-01T13:56:00.000Z</time>
      </trkpt>
      <trkpt lat="44.84411" lon="0.79183">
        <ele>97.5</ele>
        <time>2026-05-01T13:56:01.000Z</time>
      </trkpt>
      <trkpt lat="44.84409" lon="0.79182">
        <ele>97.5</ele>
        <time>2026-05-01T13:56:02.000Z</time>
      </trkpt>
      <trkpt lat="44.84408" lon="0.79181">
        <ele>97.4</ele>
        <time>2026-05-01T13:56:03.000Z</time>
      </trkpt>
      <trkpt lat="44.84406" lon="0.7918">
        <ele>96.8</ele>
        <time>2026-05-01T13:56:04.000Z</time>
      </trkpt>
      <trkpt lat="44.84405" lon="0.79179">
        <ele>96.8</ele>
        <time>2026-05-01T13:56:05.000Z</time>
      </trkpt>
      <trkpt lat="44.84404" lon="0.79178">
        <ele>96.6</ele>
        <time>2026-05-01T13:56:06.000Z</time>
      </trkpt>
      <trkpt lat="44.84402" lon="0.79178">
        <ele>96.7</ele>
        <time>2026-05-01T13:56:07.000Z</time>
      </trkpt>
      <trkpt lat="44.84401" lon="0.79177">
        <ele>96.2</ele>
        <time>2026-05-01T13:56:08.000Z</time>
      </trkpt>
      <trkpt lat="44.844" lon="0.79176">
        <ele>95.9</ele>
        <time>2026-05-01T13:56:09.000Z</time>
      </trkpt>
      <trkpt lat="44.84399" lon="0.79174">
        <ele>95.5</ele>
        <time>2026-05-01T13:56:10.000Z</time>
      </trkpt>
      <trkpt lat="44.84397" lon="0.79173">
        <ele>95.2</ele>
        <time>2026-05-01T13:56:11.000Z</time>
      </trkpt>
      <trkpt lat="44.84396" lon="0.79172">
        <ele>95.2</ele>
        <time>2026-05-01T13:56:12.000Z</time>
      </trkpt>
      <trkpt lat="44.84395" lon="0.79171">
        <ele>95</ele>
        <time>2026-05-01T13:56:13.000Z</time>
      </trkpt>
      <trkpt lat="44.84394" lon="0.7917">
        <ele>95.4</ele>
        <time>2026-05-01T13:56:14.000Z</time>
      </trkpt>
      <trkpt lat="44.84392" lon="0.79169">
        <ele>94.3</ele>
        <time>2026-05-01T13:56:15.000Z</time>
      </trkpt>
      <trkpt lat="44.84391" lon="0.79168">
        <ele>93.7</ele>
        <time>2026-05-01T13:56:16.000Z</time>
      </trkpt>
      <trkpt lat="44.84389" lon="0.79166">
        <ele>93.7</ele>
        <time>2026-05-01T13:56:17.000Z</time>
      </trkpt>
      <trkpt lat="44.84388" lon="0.79165">
        <ele>93.5</ele>
        <time>2026-05-01T13:56:18.000Z</time>
      </trkpt>
      <trkpt lat="44.84386" lon="0.79163">
        <ele>93.6</ele>
        <time>2026-05-01T13:56:19.000Z</time>
      </trkpt>
      <trkpt lat="44.84385" lon="0.79162">
        <ele>93.8</ele>
        <time>2026-05-01T13:56:20.000Z</time>
      </trkpt>
      <trkpt lat="44.84383" lon="0.79161">
        <ele>93.8</ele>
        <time>2026-05-01T13:56:21.000Z</time>
      </trkpt>
      <trkpt lat="44.84381" lon="0.7916">
        <ele>93.9</ele>
        <time>2026-05-01T13:56:22.000Z</time>
      </trkpt>
      <trkpt lat="44.8438" lon="0.79159">
        <ele>94.4</ele>
        <time>2026-05-01T13:56:23.000Z</time>
      </trkpt>
      <trkpt lat="44.84378" lon="0.79158">
        <ele>94.5</ele>
        <time>2026-05-01T13:56:24.000Z</time>
      </trkpt>
      <trkpt lat="44.84377" lon="0.79156">
        <ele>94.8</ele>
        <time>2026-05-01T13:56:25.000Z</time>
      </trkpt>
      <trkpt lat="44.84375" lon="0.79155">
        <ele>95.1</ele>
        <time>2026-05-01T13:56:26.000Z</time>
      </trkpt>
      <trkpt lat="44.84374" lon="0.79154">
        <ele>95.2</ele>
        <time>2026-05-01T13:56:27.000Z</time>
      </trkpt>
      <trkpt lat="44.84372" lon="0.79152">
        <ele>95</ele>
        <time>2026-05-01T13:56:28.000Z</time>
      </trkpt>
      <trkpt lat="44.84371" lon="0.79151">
        <ele>95.1</ele>
        <time>2026-05-01T13:56:29.000Z</time>
      </trkpt>
      <trkpt lat="44.8437" lon="0.7915">
        <ele>94.4</ele>
        <time>2026-05-01T13:56:30.000Z</time>
      </trkpt>
      <trkpt lat="44.84368" lon="0.79149">
        <ele>94.6</ele>
        <time>2026-05-01T13:56:31.000Z</time>
      </trkpt>
      <trkpt lat="44.84367" lon="0.79149">
        <ele>94.5</ele>
        <time>2026-05-01T13:56:32.000Z</time>
      </trkpt>
      <trkpt lat="44.84366" lon="0.79149">
        <ele>94.1</ele>
        <time>2026-05-01T13:56:33.000Z</time>
      </trkpt>
      <trkpt lat="44.84365" lon="0.79151">
        <ele>94.4</ele>
        <time>2026-05-01T13:56:34.000Z</time>
      </trkpt>
      <trkpt lat="44.84363" lon="0.79152">
        <ele>94.5</ele>
        <time>2026-05-01T13:56:35.000Z</time>
      </trkpt>
      <trkpt lat="44.84362" lon="0.79153">
        <ele>94.9</ele>
        <time>2026-05-01T13:56:36.000Z</time>
      </trkpt>
      <trkpt lat="44.84361" lon="0.79154">
        <ele>94.7</ele>
        <time>2026-05-01T13:56:37.000Z</time>
      </trkpt>
      <trkpt lat="44.8436" lon="0.79155">
        <ele>94.9</ele>
        <time>2026-05-01T13:56:38.000Z</time>
      </trkpt>
      <trkpt lat="44.84359" lon="0.79157">
        <ele>95.6</ele>
        <time>2026-05-01T13:56:39.000Z</time>
      </trkpt>
      <trkpt lat="44.84359" lon="0.79159">
        <ele>95.7</ele>
        <time>2026-05-01T13:56:40.000Z</time>
      </trkpt>
      <trkpt lat="44.84358" lon="0.79161">
        <ele>95.8</ele>
        <time>2026-05-01T13:56:41.000Z</time>
      </trkpt>
      <trkpt lat="44.84358" lon="0.79163">
        <ele>95.9</ele>
        <time>2026-05-01T13:56:42.000Z</time>
      </trkpt>
      <trkpt lat="44.84357" lon="0.79165">
        <ele>95.8</ele>
        <time>2026-05-01T13:56:43.000Z</time>
      </trkpt>
      <trkpt lat="44.84357" lon="0.79167">
        <ele>95.9</ele>
        <time>2026-05-01T13:56:44.000Z</time>
      </trkpt>
      <trkpt lat="44.84356" lon="0.79169">
        <ele>96.1</ele>
        <time>2026-05-01T13:56:45.000Z</time>
      </trkpt>
      <trkpt lat="44.84356" lon="0.79171">
        <ele>96.1</ele>
        <time>2026-05-01T13:56:46.000Z</time>
      </trkpt>
      <trkpt lat="44.84355" lon="0.79173">
        <ele>96.4</ele>
        <time>2026-05-01T13:56:47.000Z</time>
      </trkpt>
      <trkpt lat="44.84354" lon="0.79175">
        <ele>96.3</ele>
        <time>2026-05-01T13:56:48.000Z</time>
      </trkpt>
      <trkpt lat="44.84354" lon="0.79177">
        <ele>96.4</ele>
        <time>2026-05-01T13:56:49.000Z</time>
      </trkpt>
      <trkpt lat="44.84353" lon="0.79179">
        <ele>96.4</ele>
        <time>2026-05-01T13:56:50.000Z</time>
      </trkpt>
      <trkpt lat="44.84352" lon="0.79181">
        <ele>96.4</ele>
        <time>2026-05-01T13:56:51.000Z</time>
      </trkpt>
      <trkpt lat="44.84351" lon="0.79182">
        <ele>96.4</ele>
        <time>2026-05-01T13:56:52.000Z</time>
      </trkpt>
      <trkpt lat="44.84351" lon="0.79184">
        <ele>96.2</ele>
        <time>2026-05-01T13:56:53.000Z</time>
      </trkpt>
      <trkpt lat="44.84348" lon="0.79185">
        <ele>96.5</ele>
        <time>2026-05-01T13:56:54.000Z</time>
      </trkpt>
      <trkpt lat="44.84347" lon="0.79187">
        <ele>96.5</ele>
        <time>2026-05-01T13:56:55.000Z</time>
      </trkpt>
      <trkpt lat="44.84346" lon="0.7919">
        <ele>96.6</ele>
        <time>2026-05-01T13:56:56.000Z</time>
      </trkpt>
      <trkpt lat="44.84346" lon="0.79192">
        <ele>96.5</ele>
        <time>2026-05-01T13:56:57.000Z</time>
      </trkpt>
      <trkpt lat="44.84345" lon="0.79194">
        <ele>96.6</ele>
        <time>2026-05-01T13:56:58.000Z</time>
      </trkpt>
      <trkpt lat="44.84344" lon="0.79196">
        <ele>96.7</ele>
        <time>2026-05-01T13:56:59.000Z</time>
      </trkpt>
      <trkpt lat="44.84343" lon="0.79198">
        <ele>96.4</ele>
        <time>2026-05-01T13:57:00.000Z</time>
      </trkpt>
      <trkpt lat="44.84343" lon="0.792">
        <ele>96.7</ele>
        <time>2026-05-01T13:57:01.000Z</time>
      </trkpt>
      <trkpt lat="44.84342" lon="0.79201">
        <ele>96.9</ele>
        <time>2026-05-01T13:57:02.000Z</time>
      </trkpt>
      <trkpt lat="44.84342" lon="0.79204">
        <ele>97.2</ele>
        <time>2026-05-01T13:57:03.000Z</time>
      </trkpt>
      <trkpt lat="44.84341" lon="0.79206">
        <ele>97.4</ele>
        <time>2026-05-01T13:57:04.000Z</time>
      </trkpt>
      <trkpt lat="44.84341" lon="0.79208">
        <ele>97.4</ele>
        <time>2026-05-01T13:57:05.000Z</time>
      </trkpt>
      <trkpt lat="44.84341" lon="0.7921">
        <ele>97.3</ele>
        <time>2026-05-01T13:57:06.000Z</time>
      </trkpt>
      <trkpt lat="44.8434" lon="0.79212">
        <ele>97</ele>
        <time>2026-05-01T13:57:07.000Z</time>
      </trkpt>
      <trkpt lat="44.84339" lon="0.79214">
        <ele>97</ele>
        <time>2026-05-01T13:57:08.000Z</time>
      </trkpt>
      <trkpt lat="44.84339" lon="0.79216">
        <ele>97</ele>
        <time>2026-05-01T13:57:09.000Z</time>
      </trkpt>
      <trkpt lat="44.84339" lon="0.79219">
        <ele>97.1</ele>
        <time>2026-05-01T13:57:10.000Z</time>
      </trkpt>
      <trkpt lat="44.84339" lon="0.79221">
        <ele>97.1</ele>
        <time>2026-05-01T13:57:11.000Z</time>
      </trkpt>
      <trkpt lat="44.84339" lon="0.79223">
        <ele>97.1</ele>
        <time>2026-05-01T13:57:12.000Z</time>
      </trkpt>
      <trkpt lat="44.84339" lon="0.79225">
        <ele>97</ele>
        <time>2026-05-01T13:57:13.000Z</time>
      </trkpt>
      <trkpt lat="44.84341" lon="0.79228">
        <ele>96.4</ele>
        <time>2026-05-01T13:57:14.000Z</time>
      </trkpt>
      <trkpt lat="44.8434" lon="0.7923">
        <ele>96.5</ele>
        <time>2026-05-01T13:57:15.000Z</time>
      </trkpt>
      <trkpt lat="44.8434" lon="0.79232">
        <ele>96.7</ele>
        <time>2026-05-01T13:57:16.000Z</time>
      </trkpt>
      <trkpt lat="44.8434" lon="0.79235">
        <ele>96.7</ele>
        <time>2026-05-01T13:57:17.000Z</time>
      </trkpt>
      <trkpt lat="44.84339" lon="0.79237">
        <ele>97.2</ele>
        <time>2026-05-01T13:57:18.000Z</time>
      </trkpt>
      <trkpt lat="44.84339" lon="0.79239">
        <ele>97.5</ele>
        <time>2026-05-01T13:57:19.000Z</time>
      </trkpt>
      <trkpt lat="44.84339" lon="0.79241">
        <ele>97.7</ele>
        <time>2026-05-01T13:57:20.000Z</time>
      </trkpt>
      <trkpt lat="44.84339" lon="0.79243">
        <ele>97.7</ele>
        <time>2026-05-01T13:57:21.000Z</time>
      </trkpt>
      <trkpt lat="44.84339" lon="0.79246">
        <ele>97.4</ele>
        <time>2026-05-01T13:57:22.000Z</time>
      </trkpt>
      <trkpt lat="44.84339" lon="0.79248">
        <ele>97.2</ele>
        <time>2026-05-01T13:57:23.000Z</time>
      </trkpt>
      <trkpt lat="44.84339" lon="0.7925">
        <ele>96.3</ele>
        <time>2026-05-01T13:57:24.000Z</time>
      </trkpt>
      <trkpt lat="44.84339" lon="0.79252">
        <ele>95.7</ele>
        <time>2026-05-01T13:57:25.000Z</time>
      </trkpt>
      <trkpt lat="44.84339" lon="0.79255">
        <ele>95.4</ele>
        <time>2026-05-01T13:57:26.000Z</time>
      </trkpt>
      <trkpt lat="44.84339" lon="0.79257">
        <ele>94.6</ele>
        <time>2026-05-01T13:57:27.000Z</time>
      </trkpt>
      <trkpt lat="44.84339" lon="0.7926">
        <ele>94.4</ele>
        <time>2026-05-01T13:57:28.000Z</time>
      </trkpt>
      <trkpt lat="44.84339" lon="0.79263">
        <ele>94.3</ele>
        <time>2026-05-01T13:57:29.000Z</time>
      </trkpt>
      <trkpt lat="44.84338" lon="0.79265">
        <ele>95.3</ele>
        <time>2026-05-01T13:57:30.000Z</time>
      </trkpt>
      <trkpt lat="44.84337" lon="0.79268">
        <ele>95.4</ele>
        <time>2026-05-01T13:57:31.000Z</time>
      </trkpt>
      <trkpt lat="44.84336" lon="0.7927">
        <ele>95.4</ele>
        <time>2026-05-01T13:57:32.000Z</time>
      </trkpt>
      <trkpt lat="44.84335" lon="0.79272">
        <ele>95.8</ele>
        <time>2026-05-01T13:57:33.000Z</time>
      </trkpt>
      <trkpt lat="44.84335" lon="0.79273">
        <ele>97.1</ele>
        <time>2026-05-01T13:57:34.000Z</time>
      </trkpt>
      <trkpt lat="44.84336" lon="0.79275">
        <ele>97.1</ele>
        <time>2026-05-01T13:57:35.000Z</time>
      </trkpt>
      <trkpt lat="44.84336" lon="0.79277">
        <ele>97.3</ele>
        <time>2026-05-01T13:57:36.000Z</time>
      </trkpt>
      <trkpt lat="44.84336" lon="0.79278">
        <ele>97.8</ele>
        <time>2026-05-01T13:57:37.000Z</time>
      </trkpt>
      <trkpt lat="44.84336" lon="0.7928">
        <ele>97.9</ele>
        <time>2026-05-01T13:57:38.000Z</time>
      </trkpt>
      <trkpt lat="44.84336" lon="0.79282">
        <ele>98.3</ele>
        <time>2026-05-01T13:57:39.000Z</time>
      </trkpt>
      <trkpt lat="44.84336" lon="0.79285">
        <ele>98.5</ele>
        <time>2026-05-01T13:57:40.000Z</time>
      </trkpt>
      <trkpt lat="44.84335" lon="0.79287">
        <ele>98.8</ele>
        <time>2026-05-01T13:57:41.000Z</time>
      </trkpt>
      <trkpt lat="44.84335" lon="0.79289">
        <ele>98.8</ele>
        <time>2026-05-01T13:57:42.000Z</time>
      </trkpt>
      <trkpt lat="44.84336" lon="0.7929">
        <ele>98.9</ele>
        <time>2026-05-01T13:57:43.000Z</time>
      </trkpt>
      <trkpt lat="44.84336" lon="0.79292">
        <ele>98.8</ele>
        <time>2026-05-01T13:57:44.000Z</time>
      </trkpt>
      <trkpt lat="44.84336" lon="0.79294">
        <ele>99.1</ele>
        <time>2026-05-01T13:57:45.000Z</time>
      </trkpt>
      <trkpt lat="44.84336" lon="0.79297">
        <ele>99.2</ele>
        <time>2026-05-01T13:57:46.000Z</time>
      </trkpt>
      <trkpt lat="44.84336" lon="0.79299">
        <ele>99.4</ele>
        <time>2026-05-01T13:57:47.000Z</time>
      </trkpt>
      <trkpt lat="44.84337" lon="0.79302">
        <ele>99.5</ele>
        <time>2026-05-01T13:57:48.000Z</time>
      </trkpt>
      <trkpt lat="44.84337" lon="0.79304">
        <ele>99.6</ele>
        <time>2026-05-01T13:57:49.000Z</time>
      </trkpt>
      <trkpt lat="44.84337" lon="0.79306">
        <ele>99.6</ele>
        <time>2026-05-01T13:57:50.000Z</time>
      </trkpt>
      <trkpt lat="44.84337" lon="0.79308">
        <ele>99.7</ele>
        <time>2026-05-01T13:57:51.000Z</time>
      </trkpt>
      <trkpt lat="44.84338" lon="0.7931">
        <ele>100.3</ele>
        <time>2026-05-01T13:57:52.000Z</time>
      </trkpt>
      <trkpt lat="44.84338" lon="0.79312">
        <ele>100.2</ele>
        <time>2026-05-01T13:57:53.000Z</time>
      </trkpt>
      <trkpt lat="44.84338" lon="0.79314">
        <ele>100.2</ele>
        <time>2026-05-01T13:57:54.000Z</time>
      </trkpt>
      <trkpt lat="44.84339" lon="0.79316">
        <ele>100.4</ele>
        <time>2026-05-01T13:57:55.000Z</time>
      </trkpt>
      <trkpt lat="44.84339" lon="0.79317">
        <ele>100.7</ele>
        <time>2026-05-01T13:57:56.000Z</time>
      </trkpt>
      <trkpt lat="44.84339" lon="0.79319">
        <ele>100.8</ele>
        <time>2026-05-01T13:57:57.000Z</time>
      </trkpt>
      <trkpt lat="44.8434" lon="0.79321">
        <ele>100.8</ele>
        <time>2026-05-01T13:57:58.000Z</time>
      </trkpt>
      <trkpt lat="44.84341" lon="0.79323">
        <ele>100.9</ele>
        <time>2026-05-01T13:57:59.000Z</time>
      </trkpt>
      <trkpt lat="44.84342" lon="0.79324">
        <ele>101</ele>
        <time>2026-05-01T13:58:00.000Z</time>
      </trkpt>
      <trkpt lat="44.84343" lon="0.79326">
        <ele>101.1</ele>
        <time>2026-05-01T13:58:01.000Z</time>
      </trkpt>
      <trkpt lat="44.84343" lon="0.79328">
        <ele>101.3</ele>
        <time>2026-05-01T13:58:02.000Z</time>
      </trkpt>
      <trkpt lat="44.84344" lon="0.7933">
        <ele>101.4</ele>
        <time>2026-05-01T13:58:03.000Z</time>
      </trkpt>
      <trkpt lat="44.84344" lon="0.79332">
        <ele>101.6</ele>
        <time>2026-05-01T13:58:04.000Z</time>
      </trkpt>
      <trkpt lat="44.84345" lon="0.79334">
        <ele>101.7</ele>
        <time>2026-05-01T13:58:05.000Z</time>
      </trkpt>
      <trkpt lat="44.84346" lon="0.79336">
        <ele>101.8</ele>
        <time>2026-05-01T13:58:06.000Z</time>
      </trkpt>
      <trkpt lat="44.84346" lon="0.79338">
        <ele>101.9</ele>
        <time>2026-05-01T13:58:07.000Z</time>
      </trkpt>
      <trkpt lat="44.84347" lon="0.7934">
        <ele>102.4</ele>
        <time>2026-05-01T13:58:08.000Z</time>
      </trkpt>
      <trkpt lat="44.84348" lon="0.79342">
        <ele>102.4</ele>
        <time>2026-05-01T13:58:09.000Z</time>
      </trkpt>
      <trkpt lat="44.84349" lon="0.79344">
        <ele>102.6</ele>
        <time>2026-05-01T13:58:10.000Z</time>
      </trkpt>
      <trkpt lat="44.8435" lon="0.79346">
        <ele>103</ele>
        <time>2026-05-01T13:58:11.000Z</time>
      </trkpt>
      <trkpt lat="44.84351" lon="0.79348">
        <ele>103</ele>
        <time>2026-05-01T13:58:12.000Z</time>
      </trkpt>
      <trkpt lat="44.84352" lon="0.7935">
        <ele>103.3</ele>
        <time>2026-05-01T13:58:13.000Z</time>
      </trkpt>
      <trkpt lat="44.84352" lon="0.79352">
        <ele>103.4</ele>
        <time>2026-05-01T13:58:14.000Z</time>
      </trkpt>
      <trkpt lat="44.84353" lon="0.79354">
        <ele>103.5</ele>
        <time>2026-05-01T13:58:15.000Z</time>
      </trkpt>
      <trkpt lat="44.84354" lon="0.79356">
        <ele>103.6</ele>
        <time>2026-05-01T13:58:16.000Z</time>
      </trkpt>
      <trkpt lat="44.84355" lon="0.79357">
        <ele>103.7</ele>
        <time>2026-05-01T13:58:17.000Z</time>
      </trkpt>
      <trkpt lat="44.84355" lon="0.79359">
        <ele>103.9</ele>
        <time>2026-05-01T13:58:18.000Z</time>
      </trkpt>
      <trkpt lat="44.84356" lon="0.7936">
        <ele>104.1</ele>
        <time>2026-05-01T13:58:19.000Z</time>
      </trkpt>
      <trkpt lat="44.84356" lon="0.79361">
        <ele>104.4</ele>
        <time>2026-05-01T13:58:20.000Z</time>
      </trkpt>
      <trkpt lat="44.84357" lon="0.79363">
        <ele>104.6</ele>
        <time>2026-05-01T13:58:21.000Z</time>
      </trkpt>
      <trkpt lat="44.84357" lon="0.79364">
        <ele>104.9</ele>
        <time>2026-05-01T13:58:22.000Z</time>
      </trkpt>
      <trkpt lat="44.84357" lon="0.79365">
        <ele>105.1</ele>
        <time>2026-05-01T13:58:23.000Z</time>
      </trkpt>
      <trkpt lat="44.84358" lon="0.79367">
        <ele>104.9</ele>
        <time>2026-05-01T13:58:24.000Z</time>
      </trkpt>
      <trkpt lat="44.84358" lon="0.79368">
        <ele>105.3</ele>
        <time>2026-05-01T13:58:25.000Z</time>
      </trkpt>
      <trkpt lat="44.84359" lon="0.7937">
        <ele>105.4</ele>
        <time>2026-05-01T13:58:26.000Z</time>
      </trkpt>
      <trkpt lat="44.84358" lon="0.79371">
        <ele>106</ele>
        <time>2026-05-01T13:58:27.000Z</time>
      </trkpt>
      <trkpt lat="44.84358" lon="0.79372">
        <ele>105.5</ele>
        <time>2026-05-01T13:58:28.000Z</time>
      </trkpt>
      <trkpt lat="44.84358" lon="0.79373">
        <ele>105.5</ele>
        <time>2026-05-01T13:58:29.000Z</time>
      </trkpt>
      <trkpt lat="44.84358" lon="0.79373">
        <ele>105.5</ele>
        <time>2026-05-01T13:58:30.000Z</time>
      </trkpt>
      <trkpt lat="44.84358" lon="0.79373">
        <ele>105.5</ele>
        <time>2026-05-01T13:58:31.000Z</time>
      </trkpt>
      <trkpt lat="44.84358" lon="0.79373">
        <ele>105.5</ele>
        <time>2026-05-01T13:58:32.000Z</time>
      </trkpt>
      <trkpt lat="44.84358" lon="0.79373">
        <ele>105.5</ele>
        <time>2026-05-01T13:58:33.000Z</time>
      </trkpt>
      <trkpt lat="44.84358" lon="0.79373">
        <ele>105.5</ele>
        <time>2026-05-01T13:58:34.000Z</time>
      </trkpt>
      <trkpt lat="44.84358" lon="0.79373">
        <ele>105.5</ele>
        <time>2026-05-01T13:58:35.000Z</time>
      </trkpt>
      <trkpt lat="44.84358" lon="0.79373">
        <ele>105.5</ele>
        <time>2026-05-01T13:58:36.000Z</time>
      </trkpt>
      <trkpt lat="44.84358" lon="0.79373">
        <ele>105.5</ele>
        <time>2026-05-01T13:58:37.000Z</time>
      </trkpt>
      <trkpt lat="44.84358" lon="0.79373">
        <ele>105.5</ele>
        <time>2026-05-01T13:58:38.000Z</time>
      </trkpt>
      <trkpt lat="44.84358" lon="0.79373">
        <ele>105.5</ele>
        <time>2026-05-01T13:58:39.000Z</time>
      </trkpt>
      <trkpt lat="44.84358" lon="0.79373">
        <ele>105.5</ele>
        <time>2026-05-01T13:58:40.000Z</time>
      </trkpt>
      <trkpt lat="44.84358" lon="0.79373">
        <ele>105.5</ele>
        <time>2026-05-01T13:58:41.000Z</time>
      </trkpt>
      <trkpt lat="44.84358" lon="0.79374">
        <ele>105.2</ele>
        <time>2026-05-01T13:58:42.000Z</time>
      </trkpt>
      <trkpt lat="44.84358" lon="0.79376">
        <ele>105.2</ele>
        <time>2026-05-01T13:58:43.000Z</time>
      </trkpt>
      <trkpt lat="44.84359" lon="0.79378">
        <ele>105.4</ele>
        <time>2026-05-01T13:58:44.000Z</time>
      </trkpt>
      <trkpt lat="44.84361" lon="0.7938">
        <ele>105.4</ele>
        <time>2026-05-01T13:58:45.000Z</time>
      </trkpt>
      <trkpt lat="44.84362" lon="0.79382">
        <ele>105.4</ele>
        <time>2026-05-01T13:58:46.000Z</time>
      </trkpt>
      <trkpt lat="44.84362" lon="0.79384">
        <ele>105.8</ele>
        <time>2026-05-01T13:58:47.000Z</time>
      </trkpt>
      <trkpt lat="44.84363" lon="0.79387">
        <ele>105.7</ele>
        <time>2026-05-01T13:58:48.000Z</time>
      </trkpt>
      <trkpt lat="44.84363" lon="0.79389">
        <ele>105.8</ele>
        <time>2026-05-01T13:58:49.000Z</time>
      </trkpt>
      <trkpt lat="44.84362" lon="0.7939">
        <ele>106.3</ele>
        <time>2026-05-01T13:58:50.000Z</time>
      </trkpt>
      <trkpt lat="44.84363" lon="0.79392">
        <ele>106.5</ele>
        <time>2026-05-01T13:58:51.000Z</time>
      </trkpt>
      <trkpt lat="44.84364" lon="0.79395">
        <ele>106.6</ele>
        <time>2026-05-01T13:58:52.000Z</time>
      </trkpt>
      <trkpt lat="44.84365" lon="0.79397">
        <ele>106.7</ele>
        <time>2026-05-01T13:58:53.000Z</time>
      </trkpt>
      <trkpt lat="44.84366" lon="0.79399">
        <ele>106.8</ele>
        <time>2026-05-01T13:58:54.000Z</time>
      </trkpt>
      <trkpt lat="44.84367" lon="0.79401">
        <ele>106.9</ele>
        <time>2026-05-01T13:58:55.000Z</time>
      </trkpt>
      <trkpt lat="44.84367" lon="0.79403">
        <ele>107.1</ele>
        <time>2026-05-01T13:58:56.000Z</time>
      </trkpt>
      <trkpt lat="44.84368" lon="0.79405">
        <ele>107.2</ele>
        <time>2026-05-01T13:58:57.000Z</time>
      </trkpt>
      <trkpt lat="44.84369" lon="0.79407">
        <ele>107</ele>
        <time>2026-05-01T13:58:58.000Z</time>
      </trkpt>
      <trkpt lat="44.84369" lon="0.7941">
        <ele>106.6</ele>
        <time>2026-05-01T13:58:59.000Z</time>
      </trkpt>
      <trkpt lat="44.8437" lon="0.79411">
        <ele>106.5</ele>
        <time>2026-05-01T13:59:00.000Z</time>
      </trkpt>
      <trkpt lat="44.84371" lon="0.79413">
        <ele>106.6</ele>
        <time>2026-05-01T13:59:01.000Z</time>
      </trkpt>
      <trkpt lat="44.84372" lon="0.79415">
        <ele>106.3</ele>
        <time>2026-05-01T13:59:02.000Z</time>
      </trkpt>
      <trkpt lat="44.84372" lon="0.79417">
        <ele>106.4</ele>
        <time>2026-05-01T13:59:03.000Z</time>
      </trkpt>
      <trkpt lat="44.84373" lon="0.79419">
        <ele>106.2</ele>
        <time>2026-05-01T13:59:04.000Z</time>
      </trkpt>
      <trkpt lat="44.84374" lon="0.79421">
        <ele>106</ele>
        <time>2026-05-01T13:59:05.000Z</time>
      </trkpt>
      <trkpt lat="44.84374" lon="0.79423">
        <ele>105.9</ele>
        <time>2026-05-01T13:59:06.000Z</time>
      </trkpt>
      <trkpt lat="44.84375" lon="0.79425">
        <ele>105.8</ele>
        <time>2026-05-01T13:59:07.000Z</time>
      </trkpt>
      <trkpt lat="44.84376" lon="0.79427">
        <ele>105.8</ele>
        <time>2026-05-01T13:59:08.000Z</time>
      </trkpt>
      <trkpt lat="44.84377" lon="0.79429">
        <ele>105.7</ele>
        <time>2026-05-01T13:59:09.000Z</time>
      </trkpt>
      <trkpt lat="44.84377" lon="0.79431">
        <ele>105.6</ele>
        <time>2026-05-01T13:59:10.000Z</time>
      </trkpt>
      <trkpt lat="44.84378" lon="0.79433">
        <ele>105.6</ele>
        <time>2026-05-01T13:59:11.000Z</time>
      </trkpt>
      <trkpt lat="44.84379" lon="0.79435">
        <ele>105.5</ele>
        <time>2026-05-01T13:59:12.000Z</time>
      </trkpt>
      <trkpt lat="44.84379" lon="0.79437">
        <ele>105.7</ele>
        <time>2026-05-01T13:59:13.000Z</time>
      </trkpt>
      <trkpt lat="44.8438" lon="0.79439">
        <ele>105.9</ele>
        <time>2026-05-01T13:59:14.000Z</time>
      </trkpt>
      <trkpt lat="44.84381" lon="0.79441">
        <ele>106</ele>
        <time>2026-05-01T13:59:15.000Z</time>
      </trkpt>
      <trkpt lat="44.84381" lon="0.79443">
        <ele>106</ele>
        <time>2026-05-01T13:59:16.000Z</time>
      </trkpt>
      <trkpt lat="44.84382" lon="0.79445">
        <ele>106.1</ele>
        <time>2026-05-01T13:59:17.000Z</time>
      </trkpt>
      <trkpt lat="44.84383" lon="0.79447">
        <ele>106.3</ele>
        <time>2026-05-01T13:59:18.000Z</time>
      </trkpt>
      <trkpt lat="44.84383" lon="0.79449">
        <ele>106.1</ele>
        <time>2026-05-01T13:59:19.000Z</time>
      </trkpt>
      <trkpt lat="44.84384" lon="0.79451">
        <ele>106.4</ele>
        <time>2026-05-01T13:59:20.000Z</time>
      </trkpt>
      <trkpt lat="44.84385" lon="0.79453">
        <ele>106.3</ele>
        <time>2026-05-01T13:59:21.000Z</time>
      </trkpt>
      <trkpt lat="44.84386" lon="0.79455">
        <ele>106.1</ele>
        <time>2026-05-01T13:59:22.000Z</time>
      </trkpt>
      <trkpt lat="44.84387" lon="0.79457">
        <ele>106.2</ele>
        <time>2026-05-01T13:59:23.000Z</time>
      </trkpt>
      <trkpt lat="44.84387" lon="0.79459">
        <ele>106.1</ele>
        <time>2026-05-01T13:59:24.000Z</time>
      </trkpt>
      <trkpt lat="44.84388" lon="0.79461">
        <ele>105.9</ele>
        <time>2026-05-01T13:59:25.000Z</time>
      </trkpt>
      <trkpt lat="44.84389" lon="0.79463">
        <ele>106.1</ele>
        <time>2026-05-01T13:59:26.000Z</time>
      </trkpt>
      <trkpt lat="44.8439" lon="0.79465">
        <ele>105.8</ele>
        <time>2026-05-01T13:59:27.000Z</time>
      </trkpt>
      <trkpt lat="44.84391" lon="0.79467">
        <ele>105.9</ele>
        <time>2026-05-01T13:59:28.000Z</time>
      </trkpt>
      <trkpt lat="44.84391" lon="0.79469">
        <ele>106</ele>
        <time>2026-05-01T13:59:29.000Z</time>
      </trkpt>
      <trkpt lat="44.84392" lon="0.7947">
        <ele>105.4</ele>
        <time>2026-05-01T13:59:30.000Z</time>
      </trkpt>
      <trkpt lat="44.84393" lon="0.79472">
        <ele>105.6</ele>
        <time>2026-05-01T13:59:31.000Z</time>
      </trkpt>
      <trkpt lat="44.84394" lon="0.79474">
        <ele>105.4</ele>
        <time>2026-05-01T13:59:32.000Z</time>
      </trkpt>
      <trkpt lat="44.84395" lon="0.79476">
        <ele>105.4</ele>
        <time>2026-05-01T13:59:33.000Z</time>
      </trkpt>
      <trkpt lat="44.84396" lon="0.79477">
        <ele>105.7</ele>
        <time>2026-05-01T13:59:34.000Z</time>
      </trkpt>
      <trkpt lat="44.84397" lon="0.79479">
        <ele>105.6</ele>
        <time>2026-05-01T13:59:35.000Z</time>
      </trkpt>
      <trkpt lat="44.84398" lon="0.79481">
        <ele>105.4</ele>
        <time>2026-05-01T13:59:36.000Z</time>
      </trkpt>
      <trkpt lat="44.84399" lon="0.79483">
        <ele>105.3</ele>
        <time>2026-05-01T13:59:37.000Z</time>
      </trkpt>
      <trkpt lat="44.844" lon="0.79485">
        <ele>105.3</ele>
        <time>2026-05-01T13:59:38.000Z</time>
      </trkpt>
      <trkpt lat="44.844" lon="0.79486">
        <ele>105.4</ele>
        <time>2026-05-01T13:59:39.000Z</time>
      </trkpt>
      <trkpt lat="44.84402" lon="0.79488">
        <ele>105.2</ele>
        <time>2026-05-01T13:59:40.000Z</time>
      </trkpt>
      <trkpt lat="44.84403" lon="0.7949">
        <ele>105.3</ele>
        <time>2026-05-01T13:59:41.000Z</time>
      </trkpt>
      <trkpt lat="44.84404" lon="0.79492">
        <ele>105.3</ele>
        <time>2026-05-01T13:59:42.000Z</time>
      </trkpt>
      <trkpt lat="44.84404" lon="0.79494">
        <ele>105.6</ele>
        <time>2026-05-01T13:59:43.000Z</time>
      </trkpt>
      <trkpt lat="44.84405" lon="0.79496">
        <ele>105.4</ele>
        <time>2026-05-01T13:59:44.000Z</time>
      </trkpt>
      <trkpt lat="44.84406" lon="0.79498">
        <ele>105.6</ele>
        <time>2026-05-01T13:59:45.000Z</time>
      </trkpt>
      <trkpt lat="44.84407" lon="0.79499">
        <ele>105.8</ele>
        <time>2026-05-01T13:59:46.000Z</time>
      </trkpt>
      <trkpt lat="44.84408" lon="0.79501">
        <ele>106.1</ele>
        <time>2026-05-01T13:59:47.000Z</time>
      </trkpt>
      <trkpt lat="44.84409" lon="0.79503">
        <ele>106</ele>
        <time>2026-05-01T13:59:48.000Z</time>
      </trkpt>
      <trkpt lat="44.8441" lon="0.79504">
        <ele>105.5</ele>
        <time>2026-05-01T13:59:49.000Z</time>
      </trkpt>
      <trkpt lat="44.84411" lon="0.79506">
        <ele>105.7</ele>
        <time>2026-05-01T13:59:50.000Z</time>
      </trkpt>
      <trkpt lat="44.84412" lon="0.79507">
        <ele>105.7</ele>
        <time>2026-05-01T13:59:51.000Z</time>
      </trkpt>
      <trkpt lat="44.84414" lon="0.79507">
        <ele>105.8</ele>
        <time>2026-05-01T13:59:52.000Z</time>
      </trkpt>
      <trkpt lat="44.84415" lon="0.79507">
        <ele>105.8</ele>
        <time>2026-05-01T13:59:53.000Z</time>
      </trkpt>
      <trkpt lat="44.84416" lon="0.79505">
        <ele>106.2</ele>
        <time>2026-05-01T13:59:54.000Z</time>
      </trkpt>
      <trkpt lat="44.84416" lon="0.79503">
        <ele>106.7</ele>
        <time>2026-05-01T13:59:55.000Z</time>
      </trkpt>
      <trkpt lat="44.84416" lon="0.79499">
        <ele>107.3</ele>
        <time>2026-05-01T13:59:56.000Z</time>
      </trkpt>
      <trkpt lat="44.84416" lon="0.79496">
        <ele>107.9</ele>
        <time>2026-05-01T13:59:57.000Z</time>
      </trkpt>
      <trkpt lat="44.84415" lon="0.79493">
        <ele>108.2</ele>
        <time>2026-05-01T13:59:58.000Z</time>
      </trkpt>
      <trkpt lat="44.84414" lon="0.79491">
        <ele>108.7</ele>
        <time>2026-05-01T13:59:59.000Z</time>
      </trkpt>
      <trkpt lat="44.84413" lon="0.79488">
        <ele>109</ele>
        <time>2026-05-01T14:00:00.000Z</time>
      </trkpt>
      <trkpt lat="44.84412" lon="0.79485">
        <ele>109.2</ele>
        <time>2026-05-01T14:00:01.000Z</time>
      </trkpt>
      <trkpt lat="44.84411" lon="0.79482">
        <ele>109.9</ele>
        <time>2026-05-01T14:00:02.000Z</time>
      </trkpt>
      <trkpt lat="44.8441" lon="0.79478">
        <ele>110.4</ele>
        <time>2026-05-01T14:00:03.000Z</time>
      </trkpt>
      <trkpt lat="44.84409" lon="0.79474">
        <ele>111.9</ele>
        <time>2026-05-01T14:00:04.000Z</time>
      </trkpt>
      <trkpt lat="44.84407" lon="0.79472">
        <ele>113</ele>
        <time>2026-05-01T14:00:05.000Z</time>
      </trkpt>
      <trkpt lat="44.84406" lon="0.7947">
        <ele>113.8</ele>
        <time>2026-05-01T14:00:06.000Z</time>
      </trkpt>
      <trkpt lat="44.84405" lon="0.79468">
        <ele>114.5</ele>
        <time>2026-05-01T14:00:07.000Z</time>
      </trkpt>
      <trkpt lat="44.84404" lon="0.79466">
        <ele>114.8</ele>
        <time>2026-05-01T14:00:08.000Z</time>
      </trkpt>
      <trkpt lat="44.84404" lon="0.79464">
        <ele>114.8</ele>
        <time>2026-05-01T14:00:09.000Z</time>
      </trkpt>
      <trkpt lat="44.84404" lon="0.79463">
        <ele>115</ele>
        <time>2026-05-01T14:00:10.000Z</time>
      </trkpt>
      <trkpt lat="44.84404" lon="0.79463">
        <ele>114.7</ele>
        <time>2026-05-01T14:00:11.000Z</time>
      </trkpt>
      <trkpt lat="44.84404" lon="0.79463">
        <ele>114.7</ele>
        <time>2026-05-01T14:00:12.000Z</time>
      </trkpt>
      <trkpt lat="44.84404" lon="0.79463">
        <ele>114.5</ele>
        <time>2026-05-01T14:00:13.000Z</time>
      </trkpt>
      <trkpt lat="44.84404" lon="0.79463">
        <ele>114.6</ele>
        <time>2026-05-01T14:00:14.000Z</time>
      </trkpt>
      <trkpt lat="44.84404" lon="0.79461">
        <ele>114.6</ele>
        <time>2026-05-01T14:00:15.000Z</time>
      </trkpt>
      <trkpt lat="44.84404" lon="0.7946">
        <ele>114.6</ele>
        <time>2026-05-01T14:00:16.000Z</time>
      </trkpt>
      <trkpt lat="44.84403" lon="0.7946">
        <ele>114.7</ele>
        <time>2026-05-01T14:00:17.000Z</time>
      </trkpt>
      <trkpt lat="44.84403" lon="0.79461">
        <ele>114.6</ele>
        <time>2026-05-01T14:00:18.000Z</time>
      </trkpt>
      <trkpt lat="44.84403" lon="0.79462">
        <ele>114.5</ele>
        <time>2026-05-01T14:00:19.000Z</time>
      </trkpt>
      <trkpt lat="44.84403" lon="0.79462">
        <ele>114.5</ele>
        <time>2026-05-01T14:00:20.000Z</time>
      </trkpt>
      <trkpt lat="44.84403" lon="0.79462">
        <ele>114.5</ele>
        <time>2026-05-01T14:00:21.000Z</time>
      </trkpt>
      <trkpt lat="44.84403" lon="0.79463">
        <ele>114.5</ele>
        <time>2026-05-01T14:00:22.000Z</time>
      </trkpt>
      <trkpt lat="44.84403" lon="0.79463">
        <ele>114.3</ele>
        <time>2026-05-01T14:00:23.000Z</time>
      </trkpt>
      <trkpt lat="44.84403" lon="0.79464">
        <ele>114.1</ele>
        <time>2026-05-01T14:00:24.000Z</time>
      </trkpt>
      <trkpt lat="44.84404" lon="0.79466">
        <ele>114</ele>
        <time>2026-05-01T14:00:25.000Z</time>
      </trkpt>
      <trkpt lat="44.84404" lon="0.79467">
        <ele>113.7</ele>
        <time>2026-05-01T14:00:26.000Z</time>
      </trkpt>
      <trkpt lat="44.84405" lon="0.79468">
        <ele>113.2</ele>
        <time>2026-05-01T14:00:27.000Z</time>
      </trkpt>
      <trkpt lat="44.84405" lon="0.79469">
        <ele>113.1</ele>
        <time>2026-05-01T14:00:28.000Z</time>
      </trkpt>
      <trkpt lat="44.84406" lon="0.7947">
        <ele>113.1</ele>
        <time>2026-05-01T14:00:29.000Z</time>
      </trkpt>
      <trkpt lat="44.8441" lon="0.7947">
        <ele>112.5</ele>
        <time>2026-05-01T14:00:30.000Z</time>
      </trkpt>
      <trkpt lat="44.84411" lon="0.79471">
        <ele>112.1</ele>
        <time>2026-05-01T14:00:31.000Z</time>
      </trkpt>
      <trkpt lat="44.84408" lon="0.79478">
        <ele>112.2</ele>
        <time>2026-05-01T14:00:32.000Z</time>
      </trkpt>
      <trkpt lat="44.84409" lon="0.79479">
        <ele>112</ele>
        <time>2026-05-01T14:00:33.000Z</time>
      </trkpt>
      <trkpt lat="44.8441" lon="0.79481">
        <ele>111.6</ele>
        <time>2026-05-01T14:00:34.000Z</time>
      </trkpt>
      <trkpt lat="44.8441" lon="0.79483">
        <ele>111.4</ele>
        <time>2026-05-01T14:00:35.000Z</time>
      </trkpt>
      <trkpt lat="44.84411" lon="0.79484">
        <ele>111.3</ele>
        <time>2026-05-01T14:00:36.000Z</time>
      </trkpt>
      <trkpt lat="44.84411" lon="0.79485">
        <ele>111.1</ele>
        <time>2026-05-01T14:00:37.000Z</time>
      </trkpt>
      <trkpt lat="44.84412" lon="0.79486">
        <ele>110.8</ele>
        <time>2026-05-01T14:00:38.000Z</time>
      </trkpt>
      <trkpt lat="44.84412" lon="0.79487">
        <ele>110.5</ele>
        <time>2026-05-01T14:00:39.000Z</time>
      </trkpt>
      <trkpt lat="44.84412" lon="0.79488">
        <ele>110.5</ele>
        <time>2026-05-01T14:00:40.000Z</time>
      </trkpt>
      <trkpt lat="44.84413" lon="0.7949">
        <ele>110.3</ele>
        <time>2026-05-01T14:00:41.000Z</time>
      </trkpt>
      <trkpt lat="44.84413" lon="0.79491">
        <ele>110</ele>
        <time>2026-05-01T14:00:42.000Z</time>
      </trkpt>
      <trkpt lat="44.84414" lon="0.79493">
        <ele>109.8</ele>
        <time>2026-05-01T14:00:43.000Z</time>
      </trkpt>
      <trkpt lat="44.84414" lon="0.79494">
        <ele>109.7</ele>
        <time>2026-05-01T14:00:44.000Z</time>
      </trkpt>
      <trkpt lat="44.84415" lon="0.79496">
        <ele>109.6</ele>
        <time>2026-05-01T14:00:45.000Z</time>
      </trkpt>
      <trkpt lat="44.84415" lon="0.79497">
        <ele>109.4</ele>
        <time>2026-05-01T14:00:46.000Z</time>
      </trkpt>
      <trkpt lat="44.84415" lon="0.79498">
        <ele>109.1</ele>
        <time>2026-05-01T14:00:47.000Z</time>
      </trkpt>
      <trkpt lat="44.84415" lon="0.79499">
        <ele>108.9</ele>
        <time>2026-05-01T14:00:48.000Z</time>
      </trkpt>
      <trkpt lat="44.84415" lon="0.79501">
        <ele>108.7</ele>
        <time>2026-05-01T14:00:49.000Z</time>
      </trkpt>
      <trkpt lat="44.84415" lon="0.79502">
        <ele>108.3</ele>
        <time>2026-05-01T14:00:50.000Z</time>
      </trkpt>
      <trkpt lat="44.84415" lon="0.79504">
        <ele>108.1</ele>
        <time>2026-05-01T14:00:51.000Z</time>
      </trkpt>
      <trkpt lat="44.84415" lon="0.79506">
        <ele>107.9</ele>
        <time>2026-05-01T14:00:52.000Z</time>
      </trkpt>
      <trkpt lat="44.84415" lon="0.79508">
        <ele>108</ele>
        <time>2026-05-01T14:00:53.000Z</time>
      </trkpt>
      <trkpt lat="44.84415" lon="0.79511">
        <ele>107.7</ele>
        <time>2026-05-01T14:00:54.000Z</time>
      </trkpt>
      <trkpt lat="44.84415" lon="0.79513">
        <ele>107.7</ele>
        <time>2026-05-01T14:00:55.000Z</time>
      </trkpt>
      <trkpt lat="44.84415" lon="0.79515">
        <ele>107.8</ele>
        <time>2026-05-01T14:00:56.000Z</time>
      </trkpt>
      <trkpt lat="44.84416" lon="0.79517">
        <ele>107.8</ele>
        <time>2026-05-01T14:00:57.000Z</time>
      </trkpt>
      <trkpt lat="44.84416" lon="0.79519">
        <ele>107.6</ele>
        <time>2026-05-01T14:00:58.000Z</time>
      </trkpt>
      <trkpt lat="44.84417" lon="0.79521">
        <ele>107.7</ele>
        <time>2026-05-01T14:00:59.000Z</time>
      </trkpt>
      <trkpt lat="44.84418" lon="0.79522">
        <ele>107.7</ele>
        <time>2026-05-01T14:01:00.000Z</time>
      </trkpt>
      <trkpt lat="44.84419" lon="0.79524">
        <ele>108</ele>
        <time>2026-05-01T14:01:01.000Z</time>
      </trkpt>
      <trkpt lat="44.8442" lon="0.79526">
        <ele>107.8</ele>
        <time>2026-05-01T14:01:02.000Z</time>
      </trkpt>
      <trkpt lat="44.84421" lon="0.79528">
        <ele>107.8</ele>
        <time>2026-05-01T14:01:03.000Z</time>
      </trkpt>
      <trkpt lat="44.84422" lon="0.7953">
        <ele>107.7</ele>
        <time>2026-05-01T14:01:04.000Z</time>
      </trkpt>
      <trkpt lat="44.84423" lon="0.79532">
        <ele>107.6</ele>
        <time>2026-05-01T14:01:05.000Z</time>
      </trkpt>
      <trkpt lat="44.84423" lon="0.79534">
        <ele>107.6</ele>
        <time>2026-05-01T14:01:06.000Z</time>
      </trkpt>
      <trkpt lat="44.84424" lon="0.79535">
        <ele>107.5</ele>
        <time>2026-05-01T14:01:07.000Z</time>
      </trkpt>
      <trkpt lat="44.84425" lon="0.79537">
        <ele>107.6</ele>
        <time>2026-05-01T14:01:08.000Z</time>
      </trkpt>
      <trkpt lat="44.84426" lon="0.79539">
        <ele>107.5</ele>
        <time>2026-05-01T14:01:09.000Z</time>
      </trkpt>
      <trkpt lat="44.84427" lon="0.79541">
        <ele>107.5</ele>
        <time>2026-05-01T14:01:10.000Z</time>
      </trkpt>
      <trkpt lat="44.84429" lon="0.79543">
        <ele>107.6</ele>
        <time>2026-05-01T14:01:11.000Z</time>
      </trkpt>
      <trkpt lat="44.8443" lon="0.79546">
        <ele>107.5</ele>
        <time>2026-05-01T14:01:12.000Z</time>
      </trkpt>
      <trkpt lat="44.84431" lon="0.79548">
        <ele>107.5</ele>
        <time>2026-05-01T14:01:13.000Z</time>
      </trkpt>
      <trkpt lat="44.84432" lon="0.7955">
        <ele>107.4</ele>
        <time>2026-05-01T14:01:14.000Z</time>
      </trkpt>
      <trkpt lat="44.84433" lon="0.79551">
        <ele>107.4</ele>
        <time>2026-05-01T14:01:15.000Z</time>
      </trkpt>
      <trkpt lat="44.84434" lon="0.79553">
        <ele>107.4</ele>
        <time>2026-05-01T14:01:16.000Z</time>
      </trkpt>
      <trkpt lat="44.84435" lon="0.79555">
        <ele>107.5</ele>
        <time>2026-05-01T14:01:17.000Z</time>
      </trkpt>
      <trkpt lat="44.84436" lon="0.79557">
        <ele>107.5</ele>
        <time>2026-05-01T14:01:18.000Z</time>
      </trkpt>
      <trkpt lat="44.84437" lon="0.79559">
        <ele>107.4</ele>
        <time>2026-05-01T14:01:19.000Z</time>
      </trkpt>
      <trkpt lat="44.84438" lon="0.79561">
        <ele>107.3</ele>
        <time>2026-05-01T14:01:20.000Z</time>
      </trkpt>
      <trkpt lat="44.84439" lon="0.79563">
        <ele>107.5</ele>
        <time>2026-05-01T14:01:21.000Z</time>
      </trkpt>
      <trkpt lat="44.84439" lon="0.79565">
        <ele>107.2</ele>
        <time>2026-05-01T14:01:22.000Z</time>
      </trkpt>
      <trkpt lat="44.84441" lon="0.79567">
        <ele>107.4</ele>
        <time>2026-05-01T14:01:23.000Z</time>
      </trkpt>
      <trkpt lat="44.84441" lon="0.79569">
        <ele>107.4</ele>
        <time>2026-05-01T14:01:24.000Z</time>
      </trkpt>
      <trkpt lat="44.84442" lon="0.7957">
        <ele>107.2</ele>
        <time>2026-05-01T14:01:25.000Z</time>
      </trkpt>
      <trkpt lat="44.84443" lon="0.79572">
        <ele>107.6</ele>
        <time>2026-05-01T14:01:26.000Z</time>
      </trkpt>
      <trkpt lat="44.84444" lon="0.79574">
        <ele>107.4</ele>
        <time>2026-05-01T14:01:27.000Z</time>
      </trkpt>
      <trkpt lat="44.84445" lon="0.79576">
        <ele>107.3</ele>
        <time>2026-05-01T14:01:28.000Z</time>
      </trkpt>
      <trkpt lat="44.84446" lon="0.79578">
        <ele>107.3</ele>
        <time>2026-05-01T14:01:29.000Z</time>
      </trkpt>
      <trkpt lat="44.84447" lon="0.79579">
        <ele>107.3</ele>
        <time>2026-05-01T14:01:30.000Z</time>
      </trkpt>
      <trkpt lat="44.84448" lon="0.79581">
        <ele>107.3</ele>
        <time>2026-05-01T14:01:31.000Z</time>
      </trkpt>
      <trkpt lat="44.84449" lon="0.79583">
        <ele>107.2</ele>
        <time>2026-05-01T14:01:32.000Z</time>
      </trkpt>
      <trkpt lat="44.8445" lon="0.79585">
        <ele>107.3</ele>
        <time>2026-05-01T14:01:33.000Z</time>
      </trkpt>
      <trkpt lat="44.84451" lon="0.79587">
        <ele>107.3</ele>
        <time>2026-05-01T14:01:34.000Z</time>
      </trkpt>
      <trkpt lat="44.84452" lon="0.79589">
        <ele>107.2</ele>
        <time>2026-05-01T14:01:35.000Z</time>
      </trkpt>
      <trkpt lat="44.84452" lon="0.79591">
        <ele>106.9</ele>
        <time>2026-05-01T14:01:36.000Z</time>
      </trkpt>
      <trkpt lat="44.84453" lon="0.79593">
        <ele>106.8</ele>
        <time>2026-05-01T14:01:37.000Z</time>
      </trkpt>
      <trkpt lat="44.84454" lon="0.79595">
        <ele>106.8</ele>
        <time>2026-05-01T14:01:38.000Z</time>
      </trkpt>
      <trkpt lat="44.84455" lon="0.79597">
        <ele>106.7</ele>
        <time>2026-05-01T14:01:39.000Z</time>
      </trkpt>
      <trkpt lat="44.84456" lon="0.79598">
        <ele>106.7</ele>
        <time>2026-05-01T14:01:40.000Z</time>
      </trkpt>
      <trkpt lat="44.84457" lon="0.796">
        <ele>106.6</ele>
        <time>2026-05-01T14:01:41.000Z</time>
      </trkpt>
      <trkpt lat="44.84458" lon="0.79602">
        <ele>106.5</ele>
        <time>2026-05-01T14:01:42.000Z</time>
      </trkpt>
      <trkpt lat="44.84459" lon="0.79605">
        <ele>106.7</ele>
        <time>2026-05-01T14:01:43.000Z</time>
      </trkpt>
      <trkpt lat="44.8446" lon="0.79607">
        <ele>106.9</ele>
        <time>2026-05-01T14:01:44.000Z</time>
      </trkpt>
      <trkpt lat="44.84461" lon="0.79609">
        <ele>107</ele>
        <time>2026-05-01T14:01:45.000Z</time>
      </trkpt>
      <trkpt lat="44.84462" lon="0.79611">
        <ele>106.9</ele>
        <time>2026-05-01T14:01:46.000Z</time>
      </trkpt>
      <trkpt lat="44.84463" lon="0.79612">
        <ele>107</ele>
        <time>2026-05-01T14:01:47.000Z</time>
      </trkpt>
      <trkpt lat="44.84463" lon="0.79614">
        <ele>107</ele>
        <time>2026-05-01T14:01:48.000Z</time>
      </trkpt>
      <trkpt lat="44.84464" lon="0.79616">
        <ele>106.9</ele>
        <time>2026-05-01T14:01:49.000Z</time>
      </trkpt>
      <trkpt lat="44.84465" lon="0.79618">
        <ele>106.8</ele>
        <time>2026-05-01T14:01:50.000Z</time>
      </trkpt>
      <trkpt lat="44.84466" lon="0.7962">
        <ele>107</ele>
        <time>2026-05-01T14:01:51.000Z</time>
      </trkpt>
      <trkpt lat="44.84466" lon="0.79622">
        <ele>106.9</ele>
        <time>2026-05-01T14:01:52.000Z</time>
      </trkpt>
      <trkpt lat="44.84467" lon="0.79624">
        <ele>106.8</ele>
        <time>2026-05-01T14:01:53.000Z</time>
      </trkpt>
      <trkpt lat="44.84468" lon="0.79626">
        <ele>106.8</ele>
        <time>2026-05-01T14:01:54.000Z</time>
      </trkpt>
      <trkpt lat="44.84469" lon="0.79628">
        <ele>106.7</ele>
        <time>2026-05-01T14:01:55.000Z</time>
      </trkpt>
      <trkpt lat="44.84469" lon="0.7963">
        <ele>107</ele>
        <time>2026-05-01T14:01:56.000Z</time>
      </trkpt>
      <trkpt lat="44.8447" lon="0.79631">
        <ele>106.9</ele>
        <time>2026-05-01T14:01:57.000Z</time>
      </trkpt>
      <trkpt lat="44.84471" lon="0.79633">
        <ele>107</ele>
        <time>2026-05-01T14:01:58.000Z</time>
      </trkpt>
      <trkpt lat="44.84472" lon="0.79635">
        <ele>106.9</ele>
        <time>2026-05-01T14:01:59.000Z</time>
      </trkpt>
      <trkpt lat="44.84473" lon="0.79637">
        <ele>107</ele>
        <time>2026-05-01T14:02:00.000Z</time>
      </trkpt>
      <trkpt lat="44.84473" lon="0.79639">
        <ele>106.9</ele>
        <time>2026-05-01T14:02:01.000Z</time>
      </trkpt>
      <trkpt lat="44.84474" lon="0.79642">
        <ele>106.9</ele>
        <time>2026-05-01T14:02:02.000Z</time>
      </trkpt>
      <trkpt lat="44.84475" lon="0.79644">
        <ele>107.1</ele>
        <time>2026-05-01T14:02:03.000Z</time>
      </trkpt>
      <trkpt lat="44.84476" lon="0.79646">
        <ele>107.2</ele>
        <time>2026-05-01T14:02:04.000Z</time>
      </trkpt>
      <trkpt lat="44.84476" lon="0.79648">
        <ele>107.1</ele>
        <time>2026-05-01T14:02:05.000Z</time>
      </trkpt>
      <trkpt lat="44.84477" lon="0.7965">
        <ele>107</ele>
        <time>2026-05-01T14:02:06.000Z</time>
      </trkpt>
      <trkpt lat="44.84478" lon="0.79652">
        <ele>106.9</ele>
        <time>2026-05-01T14:02:07.000Z</time>
      </trkpt>
      <trkpt lat="44.84479" lon="0.79654">
        <ele>106.8</ele>
        <time>2026-05-01T14:02:08.000Z</time>
      </trkpt>
      <trkpt lat="44.8448" lon="0.79656">
        <ele>107</ele>
        <time>2026-05-01T14:02:09.000Z</time>
      </trkpt>
      <trkpt lat="44.84481" lon="0.79657">
        <ele>107</ele>
        <time>2026-05-01T14:02:10.000Z</time>
      </trkpt>
      <trkpt lat="44.84482" lon="0.79659">
        <ele>107.2</ele>
        <time>2026-05-01T14:02:11.000Z</time>
      </trkpt>
      <trkpt lat="44.84482" lon="0.79661">
        <ele>107.3</ele>
        <time>2026-05-01T14:02:12.000Z</time>
      </trkpt>
      <trkpt lat="44.84483" lon="0.79663">
        <ele>107.4</ele>
        <time>2026-05-01T14:02:13.000Z</time>
      </trkpt>
      <trkpt lat="44.84483" lon="0.79666">
        <ele>107.5</ele>
        <time>2026-05-01T14:02:14.000Z</time>
      </trkpt>
      <trkpt lat="44.84483" lon="0.79668">
        <ele>107.7</ele>
        <time>2026-05-01T14:02:15.000Z</time>
      </trkpt>
      <trkpt lat="44.84483" lon="0.7967">
        <ele>107.6</ele>
        <time>2026-05-01T14:02:16.000Z</time>
      </trkpt>
      <trkpt lat="44.84484" lon="0.79672">
        <ele>107.6</ele>
        <time>2026-05-01T14:02:17.000Z</time>
      </trkpt>
      <trkpt lat="44.84484" lon="0.79675">
        <ele>107.8</ele>
        <time>2026-05-01T14:02:18.000Z</time>
      </trkpt>
      <trkpt lat="44.84485" lon="0.79677">
        <ele>107.9</ele>
        <time>2026-05-01T14:02:19.000Z</time>
      </trkpt>
      <trkpt lat="44.84485" lon="0.7968">
        <ele>108.1</ele>
        <time>2026-05-01T14:02:20.000Z</time>
      </trkpt>
      <trkpt lat="44.84486" lon="0.79682">
        <ele>108.1</ele>
        <time>2026-05-01T14:02:21.000Z</time>
      </trkpt>
      <trkpt lat="44.84486" lon="0.79685">
        <ele>108.2</ele>
        <time>2026-05-01T14:02:22.000Z</time>
      </trkpt>
      <trkpt lat="44.84486" lon="0.79688">
        <ele>108.3</ele>
        <time>2026-05-01T14:02:23.000Z</time>
      </trkpt>
      <trkpt lat="44.84487" lon="0.7969">
        <ele>108.6</ele>
        <time>2026-05-01T14:02:24.000Z</time>
      </trkpt>
      <trkpt lat="44.84487" lon="0.79693">
        <ele>108.9</ele>
        <time>2026-05-01T14:02:25.000Z</time>
      </trkpt>
      <trkpt lat="44.84488" lon="0.79696">
        <ele>109.2</ele>
        <time>2026-05-01T14:02:26.000Z</time>
      </trkpt>
      <trkpt lat="44.84489" lon="0.79698">
        <ele>109.2</ele>
        <time>2026-05-01T14:02:27.000Z</time>
      </trkpt>
      <trkpt lat="44.8449" lon="0.79701">
        <ele>109.6</ele>
        <time>2026-05-01T14:02:28.000Z</time>
      </trkpt>
      <trkpt lat="44.8449" lon="0.79702">
        <ele>109.6</ele>
        <time>2026-05-01T14:02:29.000Z</time>
      </trkpt>
      <trkpt lat="44.84489" lon="0.79705">
        <ele>109.9</ele>
        <time>2026-05-01T14:02:30.000Z</time>
      </trkpt>
      <trkpt lat="44.84489" lon="0.79707">
        <ele>109.5</ele>
        <time>2026-05-01T14:02:31.000Z</time>
      </trkpt>
      <trkpt lat="44.84489" lon="0.79709">
        <ele>109.9</ele>
        <time>2026-05-01T14:02:32.000Z</time>
      </trkpt>
      <trkpt lat="44.84489" lon="0.79711">
        <ele>110.1</ele>
        <time>2026-05-01T14:02:33.000Z</time>
      </trkpt>
      <trkpt lat="44.84488" lon="0.79712">
        <ele>110.3</ele>
        <time>2026-05-01T14:02:34.000Z</time>
      </trkpt>
      <trkpt lat="44.84488" lon="0.79714">
        <ele>110.3</ele>
        <time>2026-05-01T14:02:35.000Z</time>
      </trkpt>
      <trkpt lat="44.84488" lon="0.79715">
        <ele>110.3</ele>
        <time>2026-05-01T14:02:36.000Z</time>
      </trkpt>
      <trkpt lat="44.84488" lon="0.79717">
        <ele>110.7</ele>
        <time>2026-05-01T14:02:37.000Z</time>
      </trkpt>
      <trkpt lat="44.84488" lon="0.79719">
        <ele>110.9</ele>
        <time>2026-05-01T14:02:38.000Z</time>
      </trkpt>
      <trkpt lat="44.84487" lon="0.79721">
        <ele>111.1</ele>
        <time>2026-05-01T14:02:39.000Z</time>
      </trkpt>
      <trkpt lat="44.84487" lon="0.79723">
        <ele>111</ele>
        <time>2026-05-01T14:02:40.000Z</time>
      </trkpt>
      <trkpt lat="44.84487" lon="0.79725">
        <ele>111</ele>
        <time>2026-05-01T14:02:41.000Z</time>
      </trkpt>
      <trkpt lat="44.84487" lon="0.79727">
        <ele>111.2</ele>
        <time>2026-05-01T14:02:42.000Z</time>
      </trkpt>
      <trkpt lat="44.84487" lon="0.79729">
        <ele>111.3</ele>
        <time>2026-05-01T14:02:43.000Z</time>
      </trkpt>
      <trkpt lat="44.84486" lon="0.79731">
        <ele>111.9</ele>
        <time>2026-05-01T14:02:44.000Z</time>
      </trkpt>
      <trkpt lat="44.84486" lon="0.79733">
        <ele>112.2</ele>
        <time>2026-05-01T14:02:45.000Z</time>
      </trkpt>
      <trkpt lat="44.84487" lon="0.79734">
        <ele>112.3</ele>
        <time>2026-05-01T14:02:46.000Z</time>
      </trkpt>
      <trkpt lat="44.84488" lon="0.79735">
        <ele>112.8</ele>
        <time>2026-05-01T14:02:47.000Z</time>
      </trkpt>
      <trkpt lat="44.84489" lon="0.79735">
        <ele>113.1</ele>
        <time>2026-05-01T14:02:48.000Z</time>
      </trkpt>
      <trkpt lat="44.84491" lon="0.79734">
        <ele>113</ele>
        <time>2026-05-01T14:02:49.000Z</time>
      </trkpt>
      <trkpt lat="44.84491" lon="0.79732">
        <ele>113.4</ele>
        <time>2026-05-01T14:02:50.000Z</time>
      </trkpt>
      <trkpt lat="44.84492" lon="0.7973">
        <ele>113.4</ele>
        <time>2026-05-01T14:02:51.000Z</time>
      </trkpt>
      <trkpt lat="44.84493" lon="0.79729">
        <ele>113.2</ele>
        <time>2026-05-01T14:02:52.000Z</time>
      </trkpt>
      <trkpt lat="44.84493" lon="0.79726">
        <ele>113.7</ele>
        <time>2026-05-01T14:02:53.000Z</time>
      </trkpt>
      <trkpt lat="44.84493" lon="0.79724">
        <ele>113.2</ele>
        <time>2026-05-01T14:02:54.000Z</time>
      </trkpt>
      <trkpt lat="44.84494" lon="0.79723">
        <ele>112.9</ele>
        <time>2026-05-01T14:02:55.000Z</time>
      </trkpt>
      <trkpt lat="44.84494" lon="0.79721">
        <ele>112.5</ele>
        <time>2026-05-01T14:02:56.000Z</time>
      </trkpt>
      <trkpt lat="44.84495" lon="0.79718">
        <ele>112.5</ele>
        <time>2026-05-01T14:02:57.000Z</time>
      </trkpt>
      <trkpt lat="44.84495" lon="0.79716">
        <ele>112.7</ele>
        <time>2026-05-01T14:02:58.000Z</time>
      </trkpt>
      <trkpt lat="44.84495" lon="0.79714">
        <ele>112.6</ele>
        <time>2026-05-01T14:02:59.000Z</time>
      </trkpt>
      <trkpt lat="44.84496" lon="0.79712">
        <ele>112.8</ele>
        <time>2026-05-01T14:03:00.000Z</time>
      </trkpt>
      <trkpt lat="44.84496" lon="0.7971">
        <ele>113.3</ele>
        <time>2026-05-01T14:03:01.000Z</time>
      </trkpt>
      <trkpt lat="44.84496" lon="0.79707">
        <ele>113.6</ele>
        <time>2026-05-01T14:03:02.000Z</time>
      </trkpt>
      <trkpt lat="44.84496" lon="0.79705">
        <ele>115.7</ele>
        <time>2026-05-01T14:03:03.000Z</time>
      </trkpt>
      <trkpt lat="44.84496" lon="0.79703">
        <ele>116</ele>
        <time>2026-05-01T14:03:04.000Z</time>
      </trkpt>
      <trkpt lat="44.84496" lon="0.79701">
        <ele>115.5</ele>
        <time>2026-05-01T14:03:05.000Z</time>
      </trkpt>
      <trkpt lat="44.84496" lon="0.79699">
        <ele>116</ele>
        <time>2026-05-01T14:03:06.000Z</time>
      </trkpt>
      <trkpt lat="44.84496" lon="0.79697">
        <ele>116</ele>
        <time>2026-05-01T14:03:07.000Z</time>
      </trkpt>
      <trkpt lat="44.84496" lon="0.79694">
        <ele>115.8</ele>
        <time>2026-05-01T14:03:08.000Z</time>
      </trkpt>
      <trkpt lat="44.84497" lon="0.79692">
        <ele>116.4</ele>
        <time>2026-05-01T14:03:09.000Z</time>
      </trkpt>
      <trkpt lat="44.84497" lon="0.79689">
        <ele>116.4</ele>
        <time>2026-05-01T14:03:10.000Z</time>
      </trkpt>
      <trkpt lat="44.84497" lon="0.79687">
        <ele>116.8</ele>
        <time>2026-05-01T14:03:11.000Z</time>
      </trkpt>
      <trkpt lat="44.84497" lon="0.79685">
        <ele>116.7</ele>
        <time>2026-05-01T14:03:12.000Z</time>
      </trkpt>
      <trkpt lat="44.84497" lon="0.79682">
        <ele>115.6</ele>
        <time>2026-05-01T14:03:13.000Z</time>
      </trkpt>
      <trkpt lat="44.84497" lon="0.7968">
        <ele>117</ele>
        <time>2026-05-01T14:03:14.000Z</time>
      </trkpt>
      <trkpt lat="44.84497" lon="0.79677">
        <ele>117</ele>
        <time>2026-05-01T14:03:15.000Z</time>
      </trkpt>
      <trkpt lat="44.84497" lon="0.79675">
        <ele>118</ele>
        <time>2026-05-01T14:03:16.000Z</time>
      </trkpt>
      <trkpt lat="44.84498" lon="0.79673">
        <ele>118.1</ele>
        <time>2026-05-01T14:03:17.000Z</time>
      </trkpt>
      <trkpt lat="44.84498" lon="0.79671">
        <ele>117.5</ele>
        <time>2026-05-01T14:03:18.000Z</time>
      </trkpt>
      <trkpt lat="44.84498" lon="0.79669">
        <ele>117.5</ele>
        <time>2026-05-01T14:03:19.000Z</time>
      </trkpt>
      <trkpt lat="44.84498" lon="0.79666">
        <ele>116.9</ele>
        <time>2026-05-01T14:03:20.000Z</time>
      </trkpt>
      <trkpt lat="44.84499" lon="0.79664">
        <ele>118</ele>
        <time>2026-05-01T14:03:21.000Z</time>
      </trkpt>
      <trkpt lat="44.84499" lon="0.79661">
        <ele>118</ele>
        <time>2026-05-01T14:03:22.000Z</time>
      </trkpt>
      <trkpt lat="44.84498" lon="0.79658">
        <ele>117.3</ele>
        <time>2026-05-01T14:03:23.000Z</time>
      </trkpt>
      <trkpt lat="44.84498" lon="0.79654">
        <ele>118.1</ele>
        <time>2026-05-01T14:03:24.000Z</time>
      </trkpt>
      <trkpt lat="44.84498" lon="0.7965">
        <ele>118.6</ele>
        <time>2026-05-01T14:03:25.000Z</time>
      </trkpt>
      <trkpt lat="44.84499" lon="0.79646">
        <ele>119.1</ele>
        <time>2026-05-01T14:03:26.000Z</time>
      </trkpt>
      <trkpt lat="44.84498" lon="0.79641">
        <ele>119</ele>
        <time>2026-05-01T14:03:27.000Z</time>
      </trkpt>
      <trkpt lat="44.84497" lon="0.79636">
        <ele>117.9</ele>
        <time>2026-05-01T14:03:28.000Z</time>
      </trkpt>
      <trkpt lat="44.84497" lon="0.79632">
        <ele>118.1</ele>
        <time>2026-05-01T14:03:29.000Z</time>
      </trkpt>
      <trkpt lat="44.84496" lon="0.79628">
        <ele>118.4</ele>
        <time>2026-05-01T14:03:30.000Z</time>
      </trkpt>
      <trkpt lat="44.84495" lon="0.79624">
        <ele>116.8</ele>
        <time>2026-05-01T14:03:31.000Z</time>
      </trkpt>
      <trkpt lat="44.84495" lon="0.79618">
        <ele>116.6</ele>
        <time>2026-05-01T14:03:32.000Z</time>
      </trkpt>
      <trkpt lat="44.84494" lon="0.79612">
        <ele>116.4</ele>
        <time>2026-05-01T14:03:33.000Z</time>
      </trkpt>
      <trkpt lat="44.84494" lon="0.79607">
        <ele>117</ele>
        <time>2026-05-01T14:03:34.000Z</time>
      </trkpt>
      <trkpt lat="44.84493" lon="0.79601">
        <ele>116.4</ele>
        <time>2026-05-01T14:03:35.000Z</time>
      </trkpt>
      <trkpt lat="44.84492" lon="0.79596">
        <ele>116.9</ele>
        <time>2026-05-01T14:03:36.000Z</time>
      </trkpt>
      <trkpt lat="44.8449" lon="0.7959">
        <ele>116.6</ele>
        <time>2026-05-01T14:03:37.000Z</time>
      </trkpt>
      <trkpt lat="44.84489" lon="0.79584">
        <ele>117.4</ele>
        <time>2026-05-01T14:03:38.000Z</time>
      </trkpt>
      <trkpt lat="44.84488" lon="0.79579">
        <ele>117.5</ele>
        <time>2026-05-01T14:03:39.000Z</time>
      </trkpt>
      <trkpt lat="44.84486" lon="0.79573">
        <ele>117.3</ele>
        <time>2026-05-01T14:03:40.000Z</time>
      </trkpt>
      <trkpt lat="44.84484" lon="0.79568">
        <ele>116.9</ele>
        <time>2026-05-01T14:03:41.000Z</time>
      </trkpt>
      <trkpt lat="44.84483" lon="0.79562">
        <ele>118.1</ele>
        <time>2026-05-01T14:03:42.000Z</time>
      </trkpt>
      <trkpt lat="44.84482" lon="0.79556">
        <ele>118.7</ele>
        <time>2026-05-01T14:03:43.000Z</time>
      </trkpt>
      <trkpt lat="44.84481" lon="0.79551">
        <ele>119.2</ele>
        <time>2026-05-01T14:03:44.000Z</time>
      </trkpt>
      <trkpt lat="44.8448" lon="0.79545">
        <ele>119.5</ele>
        <time>2026-05-01T14:03:45.000Z</time>
      </trkpt>
      <trkpt lat="44.8448" lon="0.7954">
        <ele>120.9</ele>
        <time>2026-05-01T14:03:46.000Z</time>
      </trkpt>
      <trkpt lat="44.84478" lon="0.79534">
        <ele>122.8</ele>
        <time>2026-05-01T14:03:47.000Z</time>
      </trkpt>
      <trkpt lat="44.84477" lon="0.79529">
        <ele>124.9</ele>
        <time>2026-05-01T14:03:48.000Z</time>
      </trkpt>
      <trkpt lat="44.84475" lon="0.79524">
        <ele>126.7</ele>
        <time>2026-05-01T14:03:49.000Z</time>
      </trkpt>
      <trkpt lat="44.84474" lon="0.79521">
        <ele>127.2</ele>
        <time>2026-05-01T14:03:50.000Z</time>
      </trkpt>
      <trkpt lat="44.84472" lon="0.79518">
        <ele>129</ele>
        <time>2026-05-01T14:03:51.000Z</time>
      </trkpt>
      <trkpt lat="44.8447" lon="0.79515">
        <ele>129.2</ele>
        <time>2026-05-01T14:03:52.000Z</time>
      </trkpt>
      <trkpt lat="44.84468" lon="0.79512">
        <ele>129.5</ele>
        <time>2026-05-01T14:03:53.000Z</time>
      </trkpt>
      <trkpt lat="44.84467" lon="0.79509">
        <ele>129.5</ele>
        <time>2026-05-01T14:03:54.000Z</time>
      </trkpt>
      <trkpt lat="44.84465" lon="0.79505">
        <ele>130</ele>
        <time>2026-05-01T14:03:55.000Z</time>
      </trkpt>
      <trkpt lat="44.84464" lon="0.79502">
        <ele>130.7</ele>
        <time>2026-05-01T14:03:56.000Z</time>
      </trkpt>
      <trkpt lat="44.84463" lon="0.79498">
        <ele>131.6</ele>
        <time>2026-05-01T14:03:57.000Z</time>
      </trkpt>
      <trkpt lat="44.84462" lon="0.79493">
        <ele>131.5</ele>
        <time>2026-05-01T14:03:58.000Z</time>
      </trkpt>
      <trkpt lat="44.84461" lon="0.79487">
        <ele>132</ele>
        <time>2026-05-01T14:03:59.000Z</time>
      </trkpt>
      <trkpt lat="44.8446" lon="0.79481">
        <ele>132.5</ele>
        <time>2026-05-01T14:04:00.000Z</time>
      </trkpt>
      <trkpt lat="44.8446" lon="0.79475">
        <ele>132.5</ele>
        <time>2026-05-01T14:04:01.000Z</time>
      </trkpt>
      <trkpt lat="44.84459" lon="0.7947">
        <ele>133.3</ele>
        <time>2026-05-01T14:04:02.000Z</time>
      </trkpt>
      <trkpt lat="44.84459" lon="0.79464">
        <ele>133.3</ele>
        <time>2026-05-01T14:04:03.000Z</time>
      </trkpt>
      <trkpt lat="44.84459" lon="0.79459">
        <ele>133.2</ele>
        <time>2026-05-01T14:04:04.000Z</time>
      </trkpt>
      <trkpt lat="44.84459" lon="0.79453">
        <ele>132.6</ele>
        <time>2026-05-01T14:04:05.000Z</time>
      </trkpt>
      <trkpt lat="44.8446" lon="0.79449">
        <ele>132.9</ele>
        <time>2026-05-01T14:04:06.000Z</time>
      </trkpt>
      <trkpt lat="44.8446" lon="0.79445">
        <ele>133.5</ele>
        <time>2026-05-01T14:04:07.000Z</time>
      </trkpt>
      <trkpt lat="44.84461" lon="0.7944">
        <ele>133.3</ele>
        <time>2026-05-01T14:04:08.000Z</time>
      </trkpt>
      <trkpt lat="44.84461" lon="0.79437">
        <ele>134.8</ele>
        <time>2026-05-01T14:04:09.000Z</time>
      </trkpt>
      <trkpt lat="44.84467" lon="0.79434">
        <ele>134.1</ele>
        <time>2026-05-01T14:04:10.000Z</time>
      </trkpt>
      <trkpt lat="44.84473" lon="0.79443">
        <ele>134.8</ele>
        <time>2026-05-01T14:04:11.000Z</time>
      </trkpt>
      <trkpt lat="44.84473" lon="0.79436">
        <ele>136.5</ele>
        <time>2026-05-01T14:04:12.000Z</time>
      </trkpt>
      <trkpt lat="44.84474" lon="0.79434">
        <ele>136.2</ele>
        <time>2026-05-01T14:04:13.000Z</time>
      </trkpt>
      <trkpt lat="44.84474" lon="0.79435">
        <ele>135.6</ele>
        <time>2026-05-01T14:04:14.000Z</time>
      </trkpt>
      <trkpt lat="44.84474" lon="0.79438">
        <ele>134</ele>
        <time>2026-05-01T14:04:15.000Z</time>
      </trkpt>
      <trkpt lat="44.84474" lon="0.79441">
        <ele>133</ele>
        <time>2026-05-01T14:04:16.000Z</time>
      </trkpt>
      <trkpt lat="44.84473" lon="0.79444">
        <ele>132.7</ele>
        <time>2026-05-01T14:04:17.000Z</time>
      </trkpt>
      <trkpt lat="44.84473" lon="0.79446">
        <ele>132.6</ele>
        <time>2026-05-01T14:04:18.000Z</time>
      </trkpt>
      <trkpt lat="44.84472" lon="0.79448">
        <ele>131.5</ele>
        <time>2026-05-01T14:04:19.000Z</time>
      </trkpt>
      <trkpt lat="44.84473" lon="0.79451">
        <ele>132.1</ele>
        <time>2026-05-01T14:04:20.000Z</time>
      </trkpt>
      <trkpt lat="44.84474" lon="0.79453">
        <ele>132.3</ele>
        <time>2026-05-01T14:04:21.000Z</time>
      </trkpt>
      <trkpt lat="44.84474" lon="0.79455">
        <ele>132.2</ele>
        <time>2026-05-01T14:04:22.000Z</time>
      </trkpt>
      <trkpt lat="44.84475" lon="0.79458">
        <ele>132</ele>
        <time>2026-05-01T14:04:23.000Z</time>
      </trkpt>
      <trkpt lat="44.84475" lon="0.7946">
        <ele>131.4</ele>
        <time>2026-05-01T14:04:24.000Z</time>
      </trkpt>
      <trkpt lat="44.84475" lon="0.79463">
        <ele>131.1</ele>
        <time>2026-05-01T14:04:25.000Z</time>
      </trkpt>
      <trkpt lat="44.84476" lon="0.79466">
        <ele>131.1</ele>
        <time>2026-05-01T14:04:26.000Z</time>
      </trkpt>
      <trkpt lat="44.84476" lon="0.79468">
        <ele>130.7</ele>
        <time>2026-05-01T14:04:27.000Z</time>
      </trkpt>
      <trkpt lat="44.84478" lon="0.79471">
        <ele>131.5</ele>
        <time>2026-05-01T14:04:28.000Z</time>
      </trkpt>
      <trkpt lat="44.84478" lon="0.79474">
        <ele>131.5</ele>
        <time>2026-05-01T14:04:29.000Z</time>
      </trkpt>
      <trkpt lat="44.84479" lon="0.79476">
        <ele>130.3</ele>
        <time>2026-05-01T14:04:30.000Z</time>
      </trkpt>
      <trkpt lat="44.8448" lon="0.79478">
        <ele>131.8</ele>
        <time>2026-05-01T14:04:31.000Z</time>
      </trkpt>
      <trkpt lat="44.8448" lon="0.79481">
        <ele>133</ele>
        <time>2026-05-01T14:04:32.000Z</time>
      </trkpt>
      <trkpt lat="44.8448" lon="0.79484">
        <ele>131.9</ele>
        <time>2026-05-01T14:04:33.000Z</time>
      </trkpt>
      <trkpt lat="44.84481" lon="0.79486">
        <ele>131.6</ele>
        <time>2026-05-01T14:04:34.000Z</time>
      </trkpt>
      <trkpt lat="44.84481" lon="0.7949">
        <ele>134.2</ele>
        <time>2026-05-01T14:04:35.000Z</time>
      </trkpt>
      <trkpt lat="44.84481" lon="0.79492">
        <ele>135.7</ele>
        <time>2026-05-01T14:04:36.000Z</time>
      </trkpt>
      <trkpt lat="44.84482" lon="0.79495">
        <ele>138.1</ele>
        <time>2026-05-01T14:04:37.000Z</time>
      </trkpt>
      <trkpt lat="44.84483" lon="0.79497">
        <ele>138.7</ele>
        <time>2026-05-01T14:04:38.000Z</time>
      </trkpt>
      <trkpt lat="44.84484" lon="0.79499">
        <ele>138.9</ele>
        <time>2026-05-01T14:04:39.000Z</time>
      </trkpt>
      <trkpt lat="44.84485" lon="0.795">
        <ele>138.9</ele>
        <time>2026-05-01T14:04:40.000Z</time>
      </trkpt>
      <trkpt lat="44.84487" lon="0.79502">
        <ele>138.9</ele>
        <time>2026-05-01T14:04:41.000Z</time>
      </trkpt>
      <trkpt lat="44.84488" lon="0.79504">
        <ele>140</ele>
        <time>2026-05-01T14:04:42.000Z</time>
      </trkpt>
      <trkpt lat="44.84489" lon="0.79505">
        <ele>140.5</ele>
        <time>2026-05-01T14:04:43.000Z</time>
      </trkpt>
      <trkpt lat="44.84489" lon="0.79507">
        <ele>140.9</ele>
        <time>2026-05-01T14:04:44.000Z</time>
      </trkpt>
      <trkpt lat="44.8449" lon="0.79509">
        <ele>141.1</ele>
        <time>2026-05-01T14:04:45.000Z</time>
      </trkpt>
      <trkpt lat="44.84491" lon="0.7951">
        <ele>141.3</ele>
        <time>2026-05-01T14:04:46.000Z</time>
      </trkpt>
      <trkpt lat="44.84493" lon="0.79512">
        <ele>141.5</ele>
        <time>2026-05-01T14:04:47.000Z</time>
      </trkpt>
      <trkpt lat="44.84494" lon="0.79514">
        <ele>141.6</ele>
        <time>2026-05-01T14:04:48.000Z</time>
      </trkpt>
      <trkpt lat="44.84496" lon="0.79515">
        <ele>141.7</ele>
        <time>2026-05-01T14:04:49.000Z</time>
      </trkpt>
      <trkpt lat="44.84497" lon="0.79517">
        <ele>142</ele>
        <time>2026-05-01T14:04:50.000Z</time>
      </trkpt>
      <trkpt lat="44.84498" lon="0.79519">
        <ele>142.2</ele>
        <time>2026-05-01T14:04:51.000Z</time>
      </trkpt>
      <trkpt lat="44.84499" lon="0.7952">
        <ele>142.6</ele>
        <time>2026-05-01T14:04:52.000Z</time>
      </trkpt>
      <trkpt lat="44.84501" lon="0.79522">
        <ele>142.8</ele>
        <time>2026-05-01T14:04:53.000Z</time>
      </trkpt>
      <trkpt lat="44.84502" lon="0.79523">
        <ele>142.8</ele>
        <time>2026-05-01T14:04:54.000Z</time>
      </trkpt>
      <trkpt lat="44.84503" lon="0.79525">
        <ele>143</ele>
        <time>2026-05-01T14:04:55.000Z</time>
      </trkpt>
      <trkpt lat="44.84505" lon="0.79527">
        <ele>143.5</ele>
        <time>2026-05-01T14:04:56.000Z</time>
      </trkpt>
      <trkpt lat="44.84506" lon="0.79528">
        <ele>143.7</ele>
        <time>2026-05-01T14:04:57.000Z</time>
      </trkpt>
      <trkpt lat="44.84508" lon="0.79529">
        <ele>143.6</ele>
        <time>2026-05-01T14:04:58.000Z</time>
      </trkpt>
      <trkpt lat="44.84509" lon="0.79531">
        <ele>143.4</ele>
        <time>2026-05-01T14:04:59.000Z</time>
      </trkpt>
      <trkpt lat="44.8451" lon="0.79532">
        <ele>143.6</ele>
        <time>2026-05-01T14:05:00.000Z</time>
      </trkpt>
      <trkpt lat="44.84511" lon="0.79533">
        <ele>143.6</ele>
        <time>2026-05-01T14:05:01.000Z</time>
      </trkpt>
      <trkpt lat="44.84512" lon="0.79535">
        <ele>143.8</ele>
        <time>2026-05-01T14:05:02.000Z</time>
      </trkpt>
      <trkpt lat="44.84514" lon="0.79537">
        <ele>143.8</ele>
        <time>2026-05-01T14:05:03.000Z</time>
      </trkpt>
      <trkpt lat="44.84515" lon="0.79538">
        <ele>144.1</ele>
        <time>2026-05-01T14:05:04.000Z</time>
      </trkpt>
      <trkpt lat="44.84516" lon="0.7954">
        <ele>144.3</ele>
        <time>2026-05-01T14:05:05.000Z</time>
      </trkpt>
      <trkpt lat="44.84517" lon="0.79542">
        <ele>144.2</ele>
        <time>2026-05-01T14:05:06.000Z</time>
      </trkpt>
      <trkpt lat="44.84519" lon="0.79544">
        <ele>143.5</ele>
        <time>2026-05-01T14:05:07.000Z</time>
      </trkpt>
      <trkpt lat="44.8452" lon="0.79546">
        <ele>143.5</ele>
        <time>2026-05-01T14:05:08.000Z</time>
      </trkpt>
      <trkpt lat="44.84521" lon="0.79547">
        <ele>143.4</ele>
        <time>2026-05-01T14:05:09.000Z</time>
      </trkpt>
      <trkpt lat="44.84521" lon="0.79549">
        <ele>143.1</ele>
        <time>2026-05-01T14:05:10.000Z</time>
      </trkpt>
      <trkpt lat="44.84522" lon="0.79551">
        <ele>143.5</ele>
        <time>2026-05-01T14:05:11.000Z</time>
      </trkpt>
      <trkpt lat="44.84522" lon="0.79553">
        <ele>143.8</ele>
        <time>2026-05-01T14:05:12.000Z</time>
      </trkpt>
      <trkpt lat="44.84523" lon="0.79555">
        <ele>143.7</ele>
        <time>2026-05-01T14:05:13.000Z</time>
      </trkpt>
      <trkpt lat="44.84524" lon="0.79557">
        <ele>143.5</ele>
        <time>2026-05-01T14:05:14.000Z</time>
      </trkpt>
      <trkpt lat="44.84525" lon="0.79558">
        <ele>143.5</ele>
        <time>2026-05-01T14:05:15.000Z</time>
      </trkpt>
      <trkpt lat="44.84526" lon="0.7956">
        <ele>143.8</ele>
        <time>2026-05-01T14:05:16.000Z</time>
      </trkpt>
      <trkpt lat="44.84526" lon="0.79562">
        <ele>143.6</ele>
        <time>2026-05-01T14:05:17.000Z</time>
      </trkpt>
      <trkpt lat="44.84527" lon="0.79563">
        <ele>143.5</ele>
        <time>2026-05-01T14:05:18.000Z</time>
      </trkpt>
      <trkpt lat="44.84528" lon="0.79565">
        <ele>143.3</ele>
        <time>2026-05-01T14:05:19.000Z</time>
      </trkpt>
      <trkpt lat="44.84529" lon="0.79567">
        <ele>143.9</ele>
        <time>2026-05-01T14:05:20.000Z</time>
      </trkpt>
      <trkpt lat="44.84529" lon="0.79569">
        <ele>143.8</ele>
        <time>2026-05-01T14:05:21.000Z</time>
      </trkpt>
      <trkpt lat="44.8453" lon="0.79571">
        <ele>144.6</ele>
        <time>2026-05-01T14:05:22.000Z</time>
      </trkpt>
      <trkpt lat="44.8453" lon="0.79573">
        <ele>144.8</ele>
        <time>2026-05-01T14:05:23.000Z</time>
      </trkpt>
      <trkpt lat="44.84531" lon="0.79576">
        <ele>143.5</ele>
        <time>2026-05-01T14:05:24.000Z</time>
      </trkpt>
      <trkpt lat="44.84532" lon="0.79578">
        <ele>143.6</ele>
        <time>2026-05-01T14:05:25.000Z</time>
      </trkpt>
      <trkpt lat="44.84533" lon="0.79579">
        <ele>143.7</ele>
        <time>2026-05-01T14:05:26.000Z</time>
      </trkpt>
      <trkpt lat="44.84534" lon="0.79581">
        <ele>143.7</ele>
        <time>2026-05-01T14:05:27.000Z</time>
      </trkpt>
      <trkpt lat="44.84535" lon="0.79583">
        <ele>143.8</ele>
        <time>2026-05-01T14:05:28.000Z</time>
      </trkpt>
      <trkpt lat="44.84535" lon="0.79585">
        <ele>143.6</ele>
        <time>2026-05-01T14:05:29.000Z</time>
      </trkpt>
      <trkpt lat="44.84537" lon="0.79587">
        <ele>142.9</ele>
        <time>2026-05-01T14:05:30.000Z</time>
      </trkpt>
      <trkpt lat="44.84537" lon="0.79589">
        <ele>143.1</ele>
        <time>2026-05-01T14:05:31.000Z</time>
      </trkpt>
      <trkpt lat="44.84538" lon="0.79591">
        <ele>143.4</ele>
        <time>2026-05-01T14:05:32.000Z</time>
      </trkpt>
      <trkpt lat="44.84539" lon="0.79593">
        <ele>143.4</ele>
        <time>2026-05-01T14:05:33.000Z</time>
      </trkpt>
      <trkpt lat="44.8454" lon="0.79595">
        <ele>143.2</ele>
        <time>2026-05-01T14:05:34.000Z</time>
      </trkpt>
      <trkpt lat="44.84541" lon="0.79597">
        <ele>143.2</ele>
        <time>2026-05-01T14:05:35.000Z</time>
      </trkpt>
      <trkpt lat="44.84541" lon="0.79599">
        <ele>143.2</ele>
        <time>2026-05-01T14:05:36.000Z</time>
      </trkpt>
      <trkpt lat="44.84542" lon="0.79601">
        <ele>143</ele>
        <time>2026-05-01T14:05:37.000Z</time>
      </trkpt>
      <trkpt lat="44.84543" lon="0.79603">
        <ele>143.1</ele>
        <time>2026-05-01T14:05:38.000Z</time>
      </trkpt>
      <trkpt lat="44.84543" lon="0.79605">
        <ele>143</ele>
        <time>2026-05-01T14:05:39.000Z</time>
      </trkpt>
      <trkpt lat="44.84544" lon="0.79608">
        <ele>143.1</ele>
        <time>2026-05-01T14:05:40.000Z</time>
      </trkpt>
      <trkpt lat="44.84545" lon="0.7961">
        <ele>143.7</ele>
        <time>2026-05-01T14:05:41.000Z</time>
      </trkpt>
      <trkpt lat="44.84545" lon="0.79612">
        <ele>143.4</ele>
        <time>2026-05-01T14:05:42.000Z</time>
      </trkpt>
      <trkpt lat="44.84546" lon="0.79614">
        <ele>143.7</ele>
        <time>2026-05-01T14:05:43.000Z</time>
      </trkpt>
      <trkpt lat="44.84546" lon="0.79617">
        <ele>144.4</ele>
        <time>2026-05-01T14:05:44.000Z</time>
      </trkpt>
      <trkpt lat="44.84546" lon="0.79619">
        <ele>144.4</ele>
        <time>2026-05-01T14:05:45.000Z</time>
      </trkpt>
      <trkpt lat="44.84547" lon="0.79621">
        <ele>144.4</ele>
        <time>2026-05-01T14:05:46.000Z</time>
      </trkpt>
      <trkpt lat="44.84547" lon="0.79623">
        <ele>144.6</ele>
        <time>2026-05-01T14:05:47.000Z</time>
      </trkpt>
      <trkpt lat="44.84548" lon="0.79626">
        <ele>144.8</ele>
        <time>2026-05-01T14:05:48.000Z</time>
      </trkpt>
      <trkpt lat="44.84548" lon="0.79628">
        <ele>145.4</ele>
        <time>2026-05-01T14:05:49.000Z</time>
      </trkpt>
      <trkpt lat="44.84548" lon="0.79631">
        <ele>145.8</ele>
        <time>2026-05-01T14:05:50.000Z</time>
      </trkpt>
      <trkpt lat="44.84549" lon="0.79633">
        <ele>146</ele>
        <time>2026-05-01T14:05:51.000Z</time>
      </trkpt>
      <trkpt lat="44.84549" lon="0.79636">
        <ele>145.9</ele>
        <time>2026-05-01T14:05:52.000Z</time>
      </trkpt>
      <trkpt lat="44.84549" lon="0.79638">
        <ele>146.1</ele>
        <time>2026-05-01T14:05:53.000Z</time>
      </trkpt>
      <trkpt lat="44.8455" lon="0.7964">
        <ele>146.2</ele>
        <time>2026-05-01T14:05:54.000Z</time>
      </trkpt>
      <trkpt lat="44.8455" lon="0.79643">
        <ele>145.7</ele>
        <time>2026-05-01T14:05:55.000Z</time>
      </trkpt>
      <trkpt lat="44.84551" lon="0.79645">
        <ele>146.2</ele>
        <time>2026-05-01T14:05:56.000Z</time>
      </trkpt>
      <trkpt lat="44.84551" lon="0.79648">
        <ele>145.9</ele>
        <time>2026-05-01T14:05:57.000Z</time>
      </trkpt>
      <trkpt lat="44.84551" lon="0.7965">
        <ele>146.2</ele>
        <time>2026-05-01T14:05:58.000Z</time>
      </trkpt>
      <trkpt lat="44.84552" lon="0.79652">
        <ele>146</ele>
        <time>2026-05-01T14:05:59.000Z</time>
      </trkpt>
      <trkpt lat="44.84552" lon="0.79654">
        <ele>145.9</ele>
        <time>2026-05-01T14:06:00.000Z</time>
      </trkpt>
      <trkpt lat="44.84552" lon="0.79657">
        <ele>145.6</ele>
        <time>2026-05-01T14:06:01.000Z</time>
      </trkpt>
      <trkpt lat="44.84552" lon="0.79659">
        <ele>145.7</ele>
        <time>2026-05-01T14:06:02.000Z</time>
      </trkpt>
      <trkpt lat="44.84552" lon="0.79661">
        <ele>146.1</ele>
        <time>2026-05-01T14:06:03.000Z</time>
      </trkpt>
      <trkpt lat="44.84553" lon="0.79664">
        <ele>147.2</ele>
        <time>2026-05-01T14:06:04.000Z</time>
      </trkpt>
      <trkpt lat="44.84553" lon="0.79667">
        <ele>147.6</ele>
        <time>2026-05-01T14:06:05.000Z</time>
      </trkpt>
      <trkpt lat="44.84554" lon="0.7967">
        <ele>148.1</ele>
        <time>2026-05-01T14:06:06.000Z</time>
      </trkpt>
      <trkpt lat="44.84554" lon="0.79672">
        <ele>148.6</ele>
        <time>2026-05-01T14:06:07.000Z</time>
      </trkpt>
      <trkpt lat="44.84554" lon="0.79675">
        <ele>148.2</ele>
        <time>2026-05-01T14:06:08.000Z</time>
      </trkpt>
      <trkpt lat="44.84554" lon="0.79677">
        <ele>148.1</ele>
        <time>2026-05-01T14:06:09.000Z</time>
      </trkpt>
      <trkpt lat="44.84554" lon="0.7968">
        <ele>148.3</ele>
        <time>2026-05-01T14:06:10.000Z</time>
      </trkpt>
      <trkpt lat="44.84554" lon="0.79682">
        <ele>148.2</ele>
        <time>2026-05-01T14:06:11.000Z</time>
      </trkpt>
      <trkpt lat="44.84554" lon="0.79685">
        <ele>148.2</ele>
        <time>2026-05-01T14:06:12.000Z</time>
      </trkpt>
      <trkpt lat="44.84554" lon="0.79687">
        <ele>148.6</ele>
        <time>2026-05-01T14:06:13.000Z</time>
      </trkpt>
      <trkpt lat="44.84554" lon="0.7969">
        <ele>148.2</ele>
        <time>2026-05-01T14:06:14.000Z</time>
      </trkpt>
      <trkpt lat="44.84554" lon="0.79692">
        <ele>148.1</ele>
        <time>2026-05-01T14:06:15.000Z</time>
      </trkpt>
      <trkpt lat="44.84555" lon="0.79694">
        <ele>147.9</ele>
        <time>2026-05-01T14:06:16.000Z</time>
      </trkpt>
      <trkpt lat="44.84554" lon="0.79697">
        <ele>147.6</ele>
        <time>2026-05-01T14:06:17.000Z</time>
      </trkpt>
      <trkpt lat="44.84555" lon="0.79699">
        <ele>147.8</ele>
        <time>2026-05-01T14:06:18.000Z</time>
      </trkpt>
      <trkpt lat="44.84555" lon="0.79701">
        <ele>148.5</ele>
        <time>2026-05-01T14:06:19.000Z</time>
      </trkpt>
      <trkpt lat="44.84555" lon="0.79704">
        <ele>148.3</ele>
        <time>2026-05-01T14:06:20.000Z</time>
      </trkpt>
      <trkpt lat="44.84555" lon="0.79706">
        <ele>148.3</ele>
        <time>2026-05-01T14:06:21.000Z</time>
      </trkpt>
      <trkpt lat="44.84556" lon="0.79709">
        <ele>147.9</ele>
        <time>2026-05-01T14:06:22.000Z</time>
      </trkpt>
      <trkpt lat="44.84556" lon="0.79711">
        <ele>148.6</ele>
        <time>2026-05-01T14:06:23.000Z</time>
      </trkpt>
      <trkpt lat="44.84556" lon="0.79713">
        <ele>148.6</ele>
        <time>2026-05-01T14:06:24.000Z</time>
      </trkpt>
      <trkpt lat="44.84556" lon="0.79715">
        <ele>148.5</ele>
        <time>2026-05-01T14:06:25.000Z</time>
      </trkpt>
      <trkpt lat="44.84557" lon="0.79718">
        <ele>148.7</ele>
        <time>2026-05-01T14:06:26.000Z</time>
      </trkpt>
      <trkpt lat="44.84557" lon="0.7972">
        <ele>148.3</ele>
        <time>2026-05-01T14:06:27.000Z</time>
      </trkpt>
      <trkpt lat="44.84557" lon="0.79722">
        <ele>147.9</ele>
        <time>2026-05-01T14:06:28.000Z</time>
      </trkpt>
      <trkpt lat="44.84556" lon="0.79725">
        <ele>147.6</ele>
        <time>2026-05-01T14:06:29.000Z</time>
      </trkpt>
      <trkpt lat="44.84556" lon="0.79727">
        <ele>148.9</ele>
        <time>2026-05-01T14:06:30.000Z</time>
      </trkpt>
      <trkpt lat="44.84555" lon="0.7973">
        <ele>149.6</ele>
        <time>2026-05-01T14:06:31.000Z</time>
      </trkpt>
      <trkpt lat="44.84555" lon="0.79732">
        <ele>149.8</ele>
        <time>2026-05-01T14:06:32.000Z</time>
      </trkpt>
      <trkpt lat="44.84555" lon="0.79734">
        <ele>150</ele>
        <time>2026-05-01T14:06:33.000Z</time>
      </trkpt>
      <trkpt lat="44.84554" lon="0.79737">
        <ele>150.2</ele>
        <time>2026-05-01T14:06:34.000Z</time>
      </trkpt>
      <trkpt lat="44.84554" lon="0.7974">
        <ele>150.1</ele>
        <time>2026-05-01T14:06:35.000Z</time>
      </trkpt>
      <trkpt lat="44.84553" lon="0.79742">
        <ele>150.3</ele>
        <time>2026-05-01T14:06:36.000Z</time>
      </trkpt>
      <trkpt lat="44.84553" lon="0.79744">
        <ele>150.7</ele>
        <time>2026-05-01T14:06:37.000Z</time>
      </trkpt>
      <trkpt lat="44.84553" lon="0.79747">
        <ele>151.1</ele>
        <time>2026-05-01T14:06:38.000Z</time>
      </trkpt>
      <trkpt lat="44.84553" lon="0.79749">
        <ele>151.5</ele>
        <time>2026-05-01T14:06:39.000Z</time>
      </trkpt>
      <trkpt lat="44.84553" lon="0.79751">
        <ele>152.4</ele>
        <time>2026-05-01T14:06:40.000Z</time>
      </trkpt>
      <trkpt lat="44.84552" lon="0.79753">
        <ele>152.4</ele>
        <time>2026-05-01T14:06:41.000Z</time>
      </trkpt>
      <trkpt lat="44.84552" lon="0.79755">
        <ele>153.6</ele>
        <time>2026-05-01T14:06:42.000Z</time>
      </trkpt>
      <trkpt lat="44.84553" lon="0.79757">
        <ele>153</ele>
        <time>2026-05-01T14:06:43.000Z</time>
      </trkpt>
      <trkpt lat="44.84552" lon="0.79759">
        <ele>153</ele>
        <time>2026-05-01T14:06:44.000Z</time>
      </trkpt>
      <trkpt lat="44.84552" lon="0.79762">
        <ele>152.7</ele>
        <time>2026-05-01T14:06:45.000Z</time>
      </trkpt>
      <trkpt lat="44.84552" lon="0.79764">
        <ele>152.4</ele>
        <time>2026-05-01T14:06:46.000Z</time>
      </trkpt>
      <trkpt lat="44.84552" lon="0.79766">
        <ele>152.1</ele>
        <time>2026-05-01T14:06:47.000Z</time>
      </trkpt>
      <trkpt lat="44.84551" lon="0.79768">
        <ele>152.2</ele>
        <time>2026-05-01T14:06:48.000Z</time>
      </trkpt>
      <trkpt lat="44.84551" lon="0.7977">
        <ele>152</ele>
        <time>2026-05-01T14:06:49.000Z</time>
      </trkpt>
      <trkpt lat="44.8455" lon="0.79772">
        <ele>152.5</ele>
        <time>2026-05-01T14:06:50.000Z</time>
      </trkpt>
      <trkpt lat="44.8455" lon="0.79774">
        <ele>152.5</ele>
        <time>2026-05-01T14:06:51.000Z</time>
      </trkpt>
      <trkpt lat="44.84549" lon="0.79776">
        <ele>152.2</ele>
        <time>2026-05-01T14:06:52.000Z</time>
      </trkpt>
      <trkpt lat="44.84549" lon="0.79778">
        <ele>151.8</ele>
        <time>2026-05-01T14:06:53.000Z</time>
      </trkpt>
      <trkpt lat="44.84549" lon="0.7978">
        <ele>152</ele>
        <time>2026-05-01T14:06:54.000Z</time>
      </trkpt>
      <trkpt lat="44.84548" lon="0.79782">
        <ele>151.5</ele>
        <time>2026-05-01T14:06:55.000Z</time>
      </trkpt>
      <trkpt lat="44.84548" lon="0.79784">
        <ele>151.5</ele>
        <time>2026-05-01T14:06:56.000Z</time>
      </trkpt>
      <trkpt lat="44.84548" lon="0.79787">
        <ele>151.6</ele>
        <time>2026-05-01T14:06:57.000Z</time>
      </trkpt>
      <trkpt lat="44.84548" lon="0.79789">
        <ele>152.3</ele>
        <time>2026-05-01T14:06:58.000Z</time>
      </trkpt>
      <trkpt lat="44.84548" lon="0.79791">
        <ele>153.3</ele>
        <time>2026-05-01T14:06:59.000Z</time>
      </trkpt>
      <trkpt lat="44.84548" lon="0.79794">
        <ele>153.1</ele>
        <time>2026-05-01T14:07:00.000Z</time>
      </trkpt>
      <trkpt lat="44.84548" lon="0.79796">
        <ele>152</ele>
        <time>2026-05-01T14:07:01.000Z</time>
      </trkpt>
      <trkpt lat="44.84548" lon="0.79798">
        <ele>151.9</ele>
        <time>2026-05-01T14:07:02.000Z</time>
      </trkpt>
      <trkpt lat="44.84548" lon="0.79801">
        <ele>152</ele>
        <time>2026-05-01T14:07:03.000Z</time>
      </trkpt>
      <trkpt lat="44.84548" lon="0.79803">
        <ele>153.2</ele>
        <time>2026-05-01T14:07:04.000Z</time>
      </trkpt>
      <trkpt lat="44.84548" lon="0.79806">
        <ele>153.6</ele>
        <time>2026-05-01T14:07:05.000Z</time>
      </trkpt>
      <trkpt lat="44.84548" lon="0.79808">
        <ele>154.2</ele>
        <time>2026-05-01T14:07:06.000Z</time>
      </trkpt>
      <trkpt lat="44.84547" lon="0.7981">
        <ele>154.4</ele>
        <time>2026-05-01T14:07:07.000Z</time>
      </trkpt>
      <trkpt lat="44.84547" lon="0.79813">
        <ele>155.4</ele>
        <time>2026-05-01T14:07:08.000Z</time>
      </trkpt>
      <trkpt lat="44.84547" lon="0.79815">
        <ele>154.9</ele>
        <time>2026-05-01T14:07:09.000Z</time>
      </trkpt>
      <trkpt lat="44.84548" lon="0.79817">
        <ele>154.9</ele>
        <time>2026-05-01T14:07:10.000Z</time>
      </trkpt>
      <trkpt lat="44.84548" lon="0.79819">
        <ele>155.6</ele>
        <time>2026-05-01T14:07:11.000Z</time>
      </trkpt>
      <trkpt lat="44.84548" lon="0.79821">
        <ele>155.5</ele>
        <time>2026-05-01T14:07:12.000Z</time>
      </trkpt>
      <trkpt lat="44.84549" lon="0.79823">
        <ele>155.4</ele>
        <time>2026-05-01T14:07:13.000Z</time>
      </trkpt>
      <trkpt lat="44.8455" lon="0.79826">
        <ele>155.2</ele>
        <time>2026-05-01T14:07:14.000Z</time>
      </trkpt>
      <trkpt lat="44.84551" lon="0.79828">
        <ele>155.6</ele>
        <time>2026-05-01T14:07:15.000Z</time>
      </trkpt>
      <trkpt lat="44.84551" lon="0.7983">
        <ele>154.8</ele>
        <time>2026-05-01T14:07:16.000Z</time>
      </trkpt>
      <trkpt lat="44.84552" lon="0.79833">
        <ele>154.1</ele>
        <time>2026-05-01T14:07:17.000Z</time>
      </trkpt>
      <trkpt lat="44.84553" lon="0.79835">
        <ele>153.4</ele>
        <time>2026-05-01T14:07:18.000Z</time>
      </trkpt>
      <trkpt lat="44.84553" lon="0.79837">
        <ele>152.9</ele>
        <time>2026-05-01T14:07:19.000Z</time>
      </trkpt>
      <trkpt lat="44.84553" lon="0.7984">
        <ele>152.8</ele>
        <time>2026-05-01T14:07:20.000Z</time>
      </trkpt>
      <trkpt lat="44.84554" lon="0.79843">
        <ele>152.2</ele>
        <time>2026-05-01T14:07:21.000Z</time>
      </trkpt>
      <trkpt lat="44.84554" lon="0.79845">
        <ele>152.3</ele>
        <time>2026-05-01T14:07:22.000Z</time>
      </trkpt>
      <trkpt lat="44.84554" lon="0.79848">
        <ele>152.5</ele>
        <time>2026-05-01T14:07:23.000Z</time>
      </trkpt>
      <trkpt lat="44.84553" lon="0.7985">
        <ele>152.5</ele>
        <time>2026-05-01T14:07:24.000Z</time>
      </trkpt>
      <trkpt lat="44.84553" lon="0.79853">
        <ele>152.6</ele>
        <time>2026-05-01T14:07:25.000Z</time>
      </trkpt>
      <trkpt lat="44.84553" lon="0.79856">
        <ele>153.1</ele>
        <time>2026-05-01T14:07:26.000Z</time>
      </trkpt>
      <trkpt lat="44.84553" lon="0.79859">
        <ele>153.5</ele>
        <time>2026-05-01T14:07:27.000Z</time>
      </trkpt>
      <trkpt lat="44.84553" lon="0.79862">
        <ele>153.2</ele>
        <time>2026-05-01T14:07:28.000Z</time>
      </trkpt>
      <trkpt lat="44.84552" lon="0.79864">
        <ele>154.3</ele>
        <time>2026-05-01T14:07:29.000Z</time>
      </trkpt>
      <trkpt lat="44.84553" lon="0.79866">
        <ele>155.5</ele>
        <time>2026-05-01T14:07:30.000Z</time>
      </trkpt>
      <trkpt lat="44.84553" lon="0.79868">
        <ele>154.5</ele>
        <time>2026-05-01T14:07:31.000Z</time>
      </trkpt>
      <trkpt lat="44.84553" lon="0.7987">
        <ele>155.1</ele>
        <time>2026-05-01T14:07:32.000Z</time>
      </trkpt>
      <trkpt lat="44.84552" lon="0.79872">
        <ele>155.1</ele>
        <time>2026-05-01T14:07:33.000Z</time>
      </trkpt>
      <trkpt lat="44.84552" lon="0.79874">
        <ele>155.3</ele>
        <time>2026-05-01T14:07:34.000Z</time>
      </trkpt>
      <trkpt lat="44.84551" lon="0.79876">
        <ele>155.3</ele>
        <time>2026-05-01T14:07:35.000Z</time>
      </trkpt>
      <trkpt lat="44.8455" lon="0.79879">
        <ele>155.1</ele>
        <time>2026-05-01T14:07:36.000Z</time>
      </trkpt>
      <trkpt lat="44.84549" lon="0.7988">
        <ele>156.1</ele>
        <time>2026-05-01T14:07:37.000Z</time>
      </trkpt>
      <trkpt lat="44.84549" lon="0.79882">
        <ele>155.8</ele>
        <time>2026-05-01T14:07:38.000Z</time>
      </trkpt>
      <trkpt lat="44.84547" lon="0.79884">
        <ele>155.6</ele>
        <time>2026-05-01T14:07:39.000Z</time>
      </trkpt>
      <trkpt lat="44.84546" lon="0.79885">
        <ele>157.5</ele>
        <time>2026-05-01T14:07:40.000Z</time>
      </trkpt>
      <trkpt lat="44.84545" lon="0.79887">
        <ele>157.6</ele>
        <time>2026-05-01T14:07:41.000Z</time>
      </trkpt>
      <trkpt lat="44.84544" lon="0.79889">
        <ele>157.4</ele>
        <time>2026-05-01T14:07:42.000Z</time>
      </trkpt>
      <trkpt lat="44.84543" lon="0.7989">
        <ele>156.8</ele>
        <time>2026-05-01T14:07:43.000Z</time>
      </trkpt>
      <trkpt lat="44.84542" lon="0.79892">
        <ele>156.2</ele>
        <time>2026-05-01T14:07:44.000Z</time>
      </trkpt>
      <trkpt lat="44.84541" lon="0.79893">
        <ele>154.6</ele>
        <time>2026-05-01T14:07:45.000Z</time>
      </trkpt>
      <trkpt lat="44.84539" lon="0.79895">
        <ele>153.8</ele>
        <time>2026-05-01T14:07:46.000Z</time>
      </trkpt>
      <trkpt lat="44.84538" lon="0.79896">
        <ele>153.1</ele>
        <time>2026-05-01T14:07:47.000Z</time>
      </trkpt>
      <trkpt lat="44.84537" lon="0.79897">
        <ele>153.6</ele>
        <time>2026-05-01T14:07:48.000Z</time>
      </trkpt>
      <trkpt lat="44.84535" lon="0.79899">
        <ele>155.3</ele>
        <time>2026-05-01T14:07:49.000Z</time>
      </trkpt>
      <trkpt lat="44.84534" lon="0.79901">
        <ele>155.4</ele>
        <time>2026-05-01T14:07:50.000Z</time>
      </trkpt>
      <trkpt lat="44.84533" lon="0.79902">
        <ele>156.5</ele>
        <time>2026-05-01T14:07:51.000Z</time>
      </trkpt>
      <trkpt lat="44.84532" lon="0.79903">
        <ele>156.3</ele>
        <time>2026-05-01T14:07:52.000Z</time>
      </trkpt>
      <trkpt lat="44.84531" lon="0.79905">
        <ele>156.9</ele>
        <time>2026-05-01T14:07:53.000Z</time>
      </trkpt>
      <trkpt lat="44.8453" lon="0.79907">
        <ele>156.7</ele>
        <time>2026-05-01T14:07:54.000Z</time>
      </trkpt>
      <trkpt lat="44.84529" lon="0.79909">
        <ele>157</ele>
        <time>2026-05-01T14:07:55.000Z</time>
      </trkpt>
      <trkpt lat="44.84529" lon="0.79911">
        <ele>157.4</ele>
        <time>2026-05-01T14:07:56.000Z</time>
      </trkpt>
      <trkpt lat="44.84528" lon="0.79914">
        <ele>158.4</ele>
        <time>2026-05-01T14:07:57.000Z</time>
      </trkpt>
      <trkpt lat="44.84527" lon="0.79916">
        <ele>160.6</ele>
        <time>2026-05-01T14:07:58.000Z</time>
      </trkpt>
      <trkpt lat="44.84526" lon="0.79919">
        <ele>162.1</ele>
        <time>2026-05-01T14:07:59.000Z</time>
      </trkpt>
      <trkpt lat="44.84525" lon="0.79921">
        <ele>161.7</ele>
        <time>2026-05-01T14:08:00.000Z</time>
      </trkpt>
      <trkpt lat="44.84524" lon="0.79923">
        <ele>161.4</ele>
        <time>2026-05-01T14:08:01.000Z</time>
      </trkpt>
      <trkpt lat="44.84524" lon="0.79925">
        <ele>161.5</ele>
        <time>2026-05-01T14:08:02.000Z</time>
      </trkpt>
      <trkpt lat="44.84523" lon="0.79927">
        <ele>161</ele>
        <time>2026-05-01T14:08:03.000Z</time>
      </trkpt>
      <trkpt lat="44.84523" lon="0.7993">
        <ele>160.9</ele>
        <time>2026-05-01T14:08:04.000Z</time>
      </trkpt>
      <trkpt lat="44.84522" lon="0.79933">
        <ele>161.3</ele>
        <time>2026-05-01T14:08:05.000Z</time>
      </trkpt>
      <trkpt lat="44.84521" lon="0.79936">
        <ele>162</ele>
        <time>2026-05-01T14:08:06.000Z</time>
      </trkpt>
      <trkpt lat="44.84521" lon="0.79939">
        <ele>163</ele>
        <time>2026-05-01T14:08:07.000Z</time>
      </trkpt>
      <trkpt lat="44.8452" lon="0.79942">
        <ele>163.2</ele>
        <time>2026-05-01T14:08:08.000Z</time>
      </trkpt>
      <trkpt lat="44.8452" lon="0.79944">
        <ele>164.3</ele>
        <time>2026-05-01T14:08:09.000Z</time>
      </trkpt>
      <trkpt lat="44.84519" lon="0.79947">
        <ele>164.6</ele>
        <time>2026-05-01T14:08:10.000Z</time>
      </trkpt>
      <trkpt lat="44.8452" lon="0.79949">
        <ele>164.9</ele>
        <time>2026-05-01T14:08:11.000Z</time>
      </trkpt>
      <trkpt lat="44.8452" lon="0.79952">
        <ele>165.4</ele>
        <time>2026-05-01T14:08:12.000Z</time>
      </trkpt>
      <trkpt lat="44.84519" lon="0.79954">
        <ele>165.3</ele>
        <time>2026-05-01T14:08:13.000Z</time>
      </trkpt>
      <trkpt lat="44.84519" lon="0.79957">
        <ele>165.9</ele>
        <time>2026-05-01T14:08:14.000Z</time>
      </trkpt>
      <trkpt lat="44.84519" lon="0.79959">
        <ele>166.2</ele>
        <time>2026-05-01T14:08:15.000Z</time>
      </trkpt>
      <trkpt lat="44.84519" lon="0.79961">
        <ele>165.9</ele>
        <time>2026-05-01T14:08:16.000Z</time>
      </trkpt>
      <trkpt lat="44.84519" lon="0.79964">
        <ele>166.1</ele>
        <time>2026-05-01T14:08:17.000Z</time>
      </trkpt>
      <trkpt lat="44.84519" lon="0.79966">
        <ele>166.1</ele>
        <time>2026-05-01T14:08:18.000Z</time>
      </trkpt>
      <trkpt lat="44.84518" lon="0.79968">
        <ele>166</ele>
        <time>2026-05-01T14:08:19.000Z</time>
      </trkpt>
      <trkpt lat="44.84518" lon="0.79971">
        <ele>166.1</ele>
        <time>2026-05-01T14:08:20.000Z</time>
      </trkpt>
      <trkpt lat="44.84518" lon="0.79973">
        <ele>166.6</ele>
        <time>2026-05-01T14:08:21.000Z</time>
      </trkpt>
      <trkpt lat="44.84518" lon="0.79975">
        <ele>167.1</ele>
        <time>2026-05-01T14:08:22.000Z</time>
      </trkpt>
      <trkpt lat="44.84518" lon="0.79977">
        <ele>166.6</ele>
        <time>2026-05-01T14:08:23.000Z</time>
      </trkpt>
      <trkpt lat="44.84517" lon="0.7998">
        <ele>166.7</ele>
        <time>2026-05-01T14:08:24.000Z</time>
      </trkpt>
      <trkpt lat="44.84517" lon="0.79982">
        <ele>166.5</ele>
        <time>2026-05-01T14:08:25.000Z</time>
      </trkpt>
      <trkpt lat="44.84516" lon="0.79984">
        <ele>165.9</ele>
        <time>2026-05-01T14:08:26.000Z</time>
      </trkpt>
      <trkpt lat="44.84516" lon="0.79986">
        <ele>165.8</ele>
        <time>2026-05-01T14:08:27.000Z</time>
      </trkpt>
      <trkpt lat="44.84516" lon="0.79988">
        <ele>166</ele>
        <time>2026-05-01T14:08:28.000Z</time>
      </trkpt>
      <trkpt lat="44.84516" lon="0.7999">
        <ele>166</ele>
        <time>2026-05-01T14:08:29.000Z</time>
      </trkpt>
      <trkpt lat="44.84515" lon="0.79992">
        <ele>166.1</ele>
        <time>2026-05-01T14:08:30.000Z</time>
      </trkpt>
      <trkpt lat="44.84515" lon="0.79994">
        <ele>166</ele>
        <time>2026-05-01T14:08:31.000Z</time>
      </trkpt>
      <trkpt lat="44.84515" lon="0.79996">
        <ele>165.9</ele>
        <time>2026-05-01T14:08:32.000Z</time>
      </trkpt>
      <trkpt lat="44.84515" lon="0.79998">
        <ele>165.7</ele>
        <time>2026-05-01T14:08:33.000Z</time>
      </trkpt>
      <trkpt lat="44.84515" lon="0.8">
        <ele>165.6</ele>
        <time>2026-05-01T14:08:34.000Z</time>
      </trkpt>
      <trkpt lat="44.84515" lon="0.80002">
        <ele>165.1</ele>
        <time>2026-05-01T14:08:35.000Z</time>
      </trkpt>
      <trkpt lat="44.84515" lon="0.80005">
        <ele>166</ele>
        <time>2026-05-01T14:08:36.000Z</time>
      </trkpt>
      <trkpt lat="44.84515" lon="0.80007">
        <ele>165.1</ele>
        <time>2026-05-01T14:08:37.000Z</time>
      </trkpt>
      <trkpt lat="44.84516" lon="0.80009">
        <ele>165.3</ele>
        <time>2026-05-01T14:08:38.000Z</time>
      </trkpt>
      <trkpt lat="44.84516" lon="0.80011">
        <ele>164.5</ele>
        <time>2026-05-01T14:08:39.000Z</time>
      </trkpt>
      <trkpt lat="44.84516" lon="0.80013">
        <ele>164.1</ele>
        <time>2026-05-01T14:08:40.000Z</time>
      </trkpt>
      <trkpt lat="44.84516" lon="0.80016">
        <ele>164.4</ele>
        <time>2026-05-01T14:08:41.000Z</time>
      </trkpt>
      <trkpt lat="44.84516" lon="0.80018">
        <ele>164.1</ele>
        <time>2026-05-01T14:08:42.000Z</time>
      </trkpt>
      <trkpt lat="44.84516" lon="0.8002">
        <ele>164</ele>
        <time>2026-05-01T14:08:43.000Z</time>
      </trkpt>
      <trkpt lat="44.84516" lon="0.80022">
        <ele>164.3</ele>
        <time>2026-05-01T14:08:44.000Z</time>
      </trkpt>
      <trkpt lat="44.84516" lon="0.80024">
        <ele>164.3</ele>
        <time>2026-05-01T14:08:45.000Z</time>
      </trkpt>
      <trkpt lat="44.84516" lon="0.80026">
        <ele>165.2</ele>
        <time>2026-05-01T14:08:46.000Z</time>
      </trkpt>
      <trkpt lat="44.84516" lon="0.80029">
        <ele>165.3</ele>
        <time>2026-05-01T14:08:47.000Z</time>
      </trkpt>
      <trkpt lat="44.84516" lon="0.80031">
        <ele>165</ele>
        <time>2026-05-01T14:08:48.000Z</time>
      </trkpt>
      <trkpt lat="44.84516" lon="0.80033">
        <ele>165.7</ele>
        <time>2026-05-01T14:08:49.000Z</time>
      </trkpt>
      <trkpt lat="44.84516" lon="0.80035">
        <ele>166.9</ele>
        <time>2026-05-01T14:08:50.000Z</time>
      </trkpt>
      <trkpt lat="44.84516" lon="0.80038">
        <ele>166.5</ele>
        <time>2026-05-01T14:08:51.000Z</time>
      </trkpt>
      <trkpt lat="44.84516" lon="0.8004">
        <ele>167.1</ele>
        <time>2026-05-01T14:08:52.000Z</time>
      </trkpt>
      <trkpt lat="44.84516" lon="0.80043">
        <ele>167.3</ele>
        <time>2026-05-01T14:08:53.000Z</time>
      </trkpt>
      <trkpt lat="44.84516" lon="0.80045">
        <ele>167.4</ele>
        <time>2026-05-01T14:08:54.000Z</time>
      </trkpt>
      <trkpt lat="44.84516" lon="0.80047">
        <ele>167.8</ele>
        <time>2026-05-01T14:08:55.000Z</time>
      </trkpt>
      <trkpt lat="44.84516" lon="0.80049">
        <ele>167.8</ele>
        <time>2026-05-01T14:08:56.000Z</time>
      </trkpt>
      <trkpt lat="44.84516" lon="0.80052">
        <ele>166.9</ele>
        <time>2026-05-01T14:08:57.000Z</time>
      </trkpt>
      <trkpt lat="44.84516" lon="0.80054">
        <ele>165.4</ele>
        <time>2026-05-01T14:08:58.000Z</time>
      </trkpt>
      <trkpt lat="44.84516" lon="0.80056">
        <ele>164.9</ele>
        <time>2026-05-01T14:08:59.000Z</time>
      </trkpt>
      <trkpt lat="44.84517" lon="0.80058">
        <ele>164.7</ele>
        <time>2026-05-01T14:09:00.000Z</time>
      </trkpt>
      <trkpt lat="44.84516" lon="0.8006">
        <ele>165.1</ele>
        <time>2026-05-01T14:09:01.000Z</time>
      </trkpt>
      <trkpt lat="44.84516" lon="0.80062">
        <ele>164.3</ele>
        <time>2026-05-01T14:09:02.000Z</time>
      </trkpt>
      <trkpt lat="44.84517" lon="0.80064">
        <ele>164.1</ele>
        <time>2026-05-01T14:09:03.000Z</time>
      </trkpt>
      <trkpt lat="44.84517" lon="0.80066">
        <ele>164.1</ele>
        <time>2026-05-01T14:09:04.000Z</time>
      </trkpt>
      <trkpt lat="44.84518" lon="0.80067">
        <ele>164</ele>
        <time>2026-05-01T14:09:05.000Z</time>
      </trkpt>
      <trkpt lat="44.84518" lon="0.80069">
        <ele>163.5</ele>
        <time>2026-05-01T14:09:06.000Z</time>
      </trkpt>
      <trkpt lat="44.84518" lon="0.80071">
        <ele>163.5</ele>
        <time>2026-05-01T14:09:07.000Z</time>
      </trkpt>
      <trkpt lat="44.84518" lon="0.80073">
        <ele>162.6</ele>
        <time>2026-05-01T14:09:08.000Z</time>
      </trkpt>
      <trkpt lat="44.84519" lon="0.80075">
        <ele>162</ele>
        <time>2026-05-01T14:09:09.000Z</time>
      </trkpt>
      <trkpt lat="44.84519" lon="0.80077">
        <ele>160.8</ele>
        <time>2026-05-01T14:09:10.000Z</time>
      </trkpt>
      <trkpt lat="44.8452" lon="0.80078">
        <ele>159.9</ele>
        <time>2026-05-01T14:09:11.000Z</time>
      </trkpt>
      <trkpt lat="44.8452" lon="0.8008">
        <ele>159.1</ele>
        <time>2026-05-01T14:09:12.000Z</time>
      </trkpt>
      <trkpt lat="44.84521" lon="0.80082">
        <ele>158.3</ele>
        <time>2026-05-01T14:09:13.000Z</time>
      </trkpt>
      <trkpt lat="44.84521" lon="0.80084">
        <ele>157.9</ele>
        <time>2026-05-01T14:09:14.000Z</time>
      </trkpt>
      <trkpt lat="44.84522" lon="0.80085">
        <ele>157.9</ele>
        <time>2026-05-01T14:09:15.000Z</time>
      </trkpt>
      <trkpt lat="44.84523" lon="0.80087">
        <ele>157.9</ele>
        <time>2026-05-01T14:09:16.000Z</time>
      </trkpt>
      <trkpt lat="44.84523" lon="0.80089">
        <ele>157.1</ele>
        <time>2026-05-01T14:09:17.000Z</time>
      </trkpt>
      <trkpt lat="44.84524" lon="0.8009">
        <ele>156.7</ele>
        <time>2026-05-01T14:09:18.000Z</time>
      </trkpt>
      <trkpt lat="44.84524" lon="0.80092">
        <ele>157</ele>
        <time>2026-05-01T14:09:19.000Z</time>
      </trkpt>
      <trkpt lat="44.84524" lon="0.80094">
        <ele>156.3</ele>
        <time>2026-05-01T14:09:20.000Z</time>
      </trkpt>
      <trkpt lat="44.84525" lon="0.80097">
        <ele>154.9</ele>
        <time>2026-05-01T14:09:21.000Z</time>
      </trkpt>
      <trkpt lat="44.84525" lon="0.80099">
        <ele>154.1</ele>
        <time>2026-05-01T14:09:22.000Z</time>
      </trkpt>
      <trkpt lat="44.84526" lon="0.80101">
        <ele>154.3</ele>
        <time>2026-05-01T14:09:23.000Z</time>
      </trkpt>
      <trkpt lat="44.84526" lon="0.80103">
        <ele>154.6</ele>
        <time>2026-05-01T14:09:24.000Z</time>
      </trkpt>
      <trkpt lat="44.84526" lon="0.80105">
        <ele>154.4</ele>
        <time>2026-05-01T14:09:25.000Z</time>
      </trkpt>
      <trkpt lat="44.84526" lon="0.80108">
        <ele>154.1</ele>
        <time>2026-05-01T14:09:26.000Z</time>
      </trkpt>
      <trkpt lat="44.84527" lon="0.8011">
        <ele>154.3</ele>
        <time>2026-05-01T14:09:27.000Z</time>
      </trkpt>
      <trkpt lat="44.84527" lon="0.80112">
        <ele>153.5</ele>
        <time>2026-05-01T14:09:28.000Z</time>
      </trkpt>
      <trkpt lat="44.84528" lon="0.80114">
        <ele>153.9</ele>
        <time>2026-05-01T14:09:29.000Z</time>
      </trkpt>
      <trkpt lat="44.84529" lon="0.80116">
        <ele>155</ele>
        <time>2026-05-01T14:09:30.000Z</time>
      </trkpt>
      <trkpt lat="44.84529" lon="0.80119">
        <ele>155.9</ele>
        <time>2026-05-01T14:09:31.000Z</time>
      </trkpt>
      <trkpt lat="44.8453" lon="0.80121">
        <ele>156.1</ele>
        <time>2026-05-01T14:09:32.000Z</time>
      </trkpt>
      <trkpt lat="44.84531" lon="0.80123">
        <ele>155.8</ele>
        <time>2026-05-01T14:09:33.000Z</time>
      </trkpt>
      <trkpt lat="44.84532" lon="0.80125">
        <ele>156.3</ele>
        <time>2026-05-01T14:09:34.000Z</time>
      </trkpt>
      <trkpt lat="44.84532" lon="0.80127">
        <ele>156.3</ele>
        <time>2026-05-01T14:09:35.000Z</time>
      </trkpt>
      <trkpt lat="44.84533" lon="0.80129">
        <ele>158.2</ele>
        <time>2026-05-01T14:09:36.000Z</time>
      </trkpt>
      <trkpt lat="44.84534" lon="0.80131">
        <ele>158.5</ele>
        <time>2026-05-01T14:09:37.000Z</time>
      </trkpt>
      <trkpt lat="44.84535" lon="0.80134">
        <ele>160</ele>
        <time>2026-05-01T14:09:38.000Z</time>
      </trkpt>
      <trkpt lat="44.84535" lon="0.80136">
        <ele>159.9</ele>
        <time>2026-05-01T14:09:39.000Z</time>
      </trkpt>
      <trkpt lat="44.84536" lon="0.80138">
        <ele>159.8</ele>
        <time>2026-05-01T14:09:40.000Z</time>
      </trkpt>
      <trkpt lat="44.84537" lon="0.8014">
        <ele>158.9</ele>
        <time>2026-05-01T14:09:41.000Z</time>
      </trkpt>
      <trkpt lat="44.84537" lon="0.80142">
        <ele>158.6</ele>
        <time>2026-05-01T14:09:42.000Z</time>
      </trkpt>
      <trkpt lat="44.84538" lon="0.80144">
        <ele>159.1</ele>
        <time>2026-05-01T14:09:43.000Z</time>
      </trkpt>
      <trkpt lat="44.84539" lon="0.80145">
        <ele>159.1</ele>
        <time>2026-05-01T14:09:44.000Z</time>
      </trkpt>
      <trkpt lat="44.8454" lon="0.80147">
        <ele>158.9</ele>
        <time>2026-05-01T14:09:45.000Z</time>
      </trkpt>
      <trkpt lat="44.84542" lon="0.80148">
        <ele>158</ele>
        <time>2026-05-01T14:09:46.000Z</time>
      </trkpt>
      <trkpt lat="44.84542" lon="0.8015">
        <ele>157.7</ele>
        <time>2026-05-01T14:09:47.000Z</time>
      </trkpt>
      <trkpt lat="44.84543" lon="0.80152">
        <ele>157.7</ele>
        <time>2026-05-01T14:09:48.000Z</time>
      </trkpt>
      <trkpt lat="44.84544" lon="0.80155">
        <ele>158.1</ele>
        <time>2026-05-01T14:09:49.000Z</time>
      </trkpt>
      <trkpt lat="44.84545" lon="0.80158">
        <ele>158.9</ele>
        <time>2026-05-01T14:09:50.000Z</time>
      </trkpt>
      <trkpt lat="44.84546" lon="0.8016">
        <ele>159.4</ele>
        <time>2026-05-01T14:09:51.000Z</time>
      </trkpt>
      <trkpt lat="44.84547" lon="0.80162">
        <ele>158.6</ele>
        <time>2026-05-01T14:09:52.000Z</time>
      </trkpt>
      <trkpt lat="44.84548" lon="0.80165">
        <ele>159.4</ele>
        <time>2026-05-01T14:09:53.000Z</time>
      </trkpt>
      <trkpt lat="44.84549" lon="0.80167">
        <ele>158.5</ele>
        <time>2026-05-01T14:09:54.000Z</time>
      </trkpt>
      <trkpt lat="44.8455" lon="0.80168">
        <ele>157.7</ele>
        <time>2026-05-01T14:09:55.000Z</time>
      </trkpt>
      <trkpt lat="44.84552" lon="0.8017">
        <ele>157.7</ele>
        <time>2026-05-01T14:09:56.000Z</time>
      </trkpt>
      <trkpt lat="44.84553" lon="0.80171">
        <ele>157.3</ele>
        <time>2026-05-01T14:09:57.000Z</time>
      </trkpt>
      <trkpt lat="44.84554" lon="0.80173">
        <ele>156.9</ele>
        <time>2026-05-01T14:09:58.000Z</time>
      </trkpt>
      <trkpt lat="44.84555" lon="0.80174">
        <ele>156.2</ele>
        <time>2026-05-01T14:09:59.000Z</time>
      </trkpt>
      <trkpt lat="44.84556" lon="0.80175">
        <ele>156.2</ele>
        <time>2026-05-01T14:10:00.000Z</time>
      </trkpt>
      <trkpt lat="44.84557" lon="0.80176">
        <ele>155.6</ele>
        <time>2026-05-01T14:10:01.000Z</time>
      </trkpt>
      <trkpt lat="44.84558" lon="0.80178">
        <ele>158.2</ele>
        <time>2026-05-01T14:10:02.000Z</time>
      </trkpt>
      <trkpt lat="44.84559" lon="0.8018">
        <ele>158.5</ele>
        <time>2026-05-01T14:10:03.000Z</time>
      </trkpt>
      <trkpt lat="44.8456" lon="0.80182">
        <ele>158.2</ele>
        <time>2026-05-01T14:10:04.000Z</time>
      </trkpt>
      <trkpt lat="44.84561" lon="0.80184">
        <ele>157.6</ele>
        <time>2026-05-01T14:10:05.000Z</time>
      </trkpt>
      <trkpt lat="44.84563" lon="0.80185">
        <ele>158.5</ele>
        <time>2026-05-01T14:10:06.000Z</time>
      </trkpt>
      <trkpt lat="44.84563" lon="0.80187">
        <ele>159.2</ele>
        <time>2026-05-01T14:10:07.000Z</time>
      </trkpt>
      <trkpt lat="44.84564" lon="0.80188">
        <ele>158.7</ele>
        <time>2026-05-01T14:10:08.000Z</time>
      </trkpt>
      <trkpt lat="44.84565" lon="0.80189">
        <ele>158.7</ele>
        <time>2026-05-01T14:10:09.000Z</time>
      </trkpt>
      <trkpt lat="44.84566" lon="0.80191">
        <ele>159.4</ele>
        <time>2026-05-01T14:10:10.000Z</time>
      </trkpt>
      <trkpt lat="44.84567" lon="0.80192">
        <ele>159.1</ele>
        <time>2026-05-01T14:10:11.000Z</time>
      </trkpt>
      <trkpt lat="44.84568" lon="0.80193">
        <ele>159</ele>
        <time>2026-05-01T14:10:12.000Z</time>
      </trkpt>
      <trkpt lat="44.84569" lon="0.80195">
        <ele>159.1</ele>
        <time>2026-05-01T14:10:13.000Z</time>
      </trkpt>
      <trkpt lat="44.8457" lon="0.80196">
        <ele>158.8</ele>
        <time>2026-05-01T14:10:14.000Z</time>
      </trkpt>
      <trkpt lat="44.84572" lon="0.80197">
        <ele>158.5</ele>
        <time>2026-05-01T14:10:15.000Z</time>
      </trkpt>
      <trkpt lat="44.84573" lon="0.80199">
        <ele>159.6</ele>
        <time>2026-05-01T14:10:16.000Z</time>
      </trkpt>
      <trkpt lat="44.84574" lon="0.802">
        <ele>159.5</ele>
        <time>2026-05-01T14:10:17.000Z</time>
      </trkpt>
      <trkpt lat="44.84575" lon="0.80202">
        <ele>160.3</ele>
        <time>2026-05-01T14:10:18.000Z</time>
      </trkpt>
      <trkpt lat="44.84576" lon="0.80204">
        <ele>160.4</ele>
        <time>2026-05-01T14:10:19.000Z</time>
      </trkpt>
      <trkpt lat="44.84577" lon="0.80205">
        <ele>160.5</ele>
        <time>2026-05-01T14:10:20.000Z</time>
      </trkpt>
      <trkpt lat="44.84578" lon="0.80207">
        <ele>160.4</ele>
        <time>2026-05-01T14:10:21.000Z</time>
      </trkpt>
      <trkpt lat="44.84579" lon="0.80209">
        <ele>160.7</ele>
        <time>2026-05-01T14:10:22.000Z</time>
      </trkpt>
      <trkpt lat="44.8458" lon="0.80211">
        <ele>160.6</ele>
        <time>2026-05-01T14:10:23.000Z</time>
      </trkpt>
      <trkpt lat="44.84581" lon="0.80214">
        <ele>161.2</ele>
        <time>2026-05-01T14:10:24.000Z</time>
      </trkpt>
      <trkpt lat="44.84583" lon="0.80215">
        <ele>160.7</ele>
        <time>2026-05-01T14:10:25.000Z</time>
      </trkpt>
      <trkpt lat="44.84584" lon="0.80216">
        <ele>161.4</ele>
        <time>2026-05-01T14:10:26.000Z</time>
      </trkpt>
      <trkpt lat="44.84585" lon="0.80218">
        <ele>160.9</ele>
        <time>2026-05-01T14:10:27.000Z</time>
      </trkpt>
      <trkpt lat="44.84586" lon="0.80219">
        <ele>160.2</ele>
        <time>2026-05-01T14:10:28.000Z</time>
      </trkpt>
      <trkpt lat="44.84587" lon="0.80221">
        <ele>160.3</ele>
        <time>2026-05-01T14:10:29.000Z</time>
      </trkpt>
      <trkpt lat="44.84589" lon="0.80223">
        <ele>160.4</ele>
        <time>2026-05-01T14:10:30.000Z</time>
      </trkpt>
      <trkpt lat="44.8459" lon="0.80225">
        <ele>160.4</ele>
        <time>2026-05-01T14:10:31.000Z</time>
      </trkpt>
      <trkpt lat="44.84591" lon="0.80226">
        <ele>160.2</ele>
        <time>2026-05-01T14:10:32.000Z</time>
      </trkpt>
      <trkpt lat="44.84592" lon="0.80228">
        <ele>160.2</ele>
        <time>2026-05-01T14:10:33.000Z</time>
      </trkpt>
      <trkpt lat="44.84593" lon="0.8023">
        <ele>159.6</ele>
        <time>2026-05-01T14:10:34.000Z</time>
      </trkpt>
      <trkpt lat="44.84594" lon="0.80232">
        <ele>159.4</ele>
        <time>2026-05-01T14:10:35.000Z</time>
      </trkpt>
      <trkpt lat="44.84595" lon="0.80234">
        <ele>159.1</ele>
        <time>2026-05-01T14:10:36.000Z</time>
      </trkpt>
      <trkpt lat="44.84595" lon="0.80236">
        <ele>159.3</ele>
        <time>2026-05-01T14:10:37.000Z</time>
      </trkpt>
      <trkpt lat="44.84595" lon="0.80238">
        <ele>158.8</ele>
        <time>2026-05-01T14:10:38.000Z</time>
      </trkpt>
      <trkpt lat="44.84595" lon="0.8024">
        <ele>159</ele>
        <time>2026-05-01T14:10:39.000Z</time>
      </trkpt>
      <trkpt lat="44.84595" lon="0.80242">
        <ele>159</ele>
        <time>2026-05-01T14:10:40.000Z</time>
      </trkpt>
      <trkpt lat="44.84596" lon="0.80244">
        <ele>158.2</ele>
        <time>2026-05-01T14:10:41.000Z</time>
      </trkpt>
      <trkpt lat="44.84597" lon="0.80246">
        <ele>156.9</ele>
        <time>2026-05-01T14:10:42.000Z</time>
      </trkpt>
      <trkpt lat="44.84599" lon="0.80247">
        <ele>155.7</ele>
        <time>2026-05-01T14:10:43.000Z</time>
      </trkpt>
      <trkpt lat="44.846" lon="0.80249">
        <ele>154.9</ele>
        <time>2026-05-01T14:10:44.000Z</time>
      </trkpt>
      <trkpt lat="44.84601" lon="0.80251">
        <ele>155</ele>
        <time>2026-05-01T14:10:45.000Z</time>
      </trkpt>
      <trkpt lat="44.84601" lon="0.80254">
        <ele>155.7</ele>
        <time>2026-05-01T14:10:46.000Z</time>
      </trkpt>
      <trkpt lat="44.84602" lon="0.80255">
        <ele>152.3</ele>
        <time>2026-05-01T14:10:47.000Z</time>
      </trkpt>
      <trkpt lat="44.84603" lon="0.80257">
        <ele>153.1</ele>
        <time>2026-05-01T14:10:48.000Z</time>
      </trkpt>
      <trkpt lat="44.84604" lon="0.80259">
        <ele>153.2</ele>
        <time>2026-05-01T14:10:49.000Z</time>
      </trkpt>
      <trkpt lat="44.84605" lon="0.80261">
        <ele>153.4</ele>
        <time>2026-05-01T14:10:50.000Z</time>
      </trkpt>
      <trkpt lat="44.84606" lon="0.80263">
        <ele>152.9</ele>
        <time>2026-05-01T14:10:51.000Z</time>
      </trkpt>
      <trkpt lat="44.84608" lon="0.80265">
        <ele>153.2</ele>
        <time>2026-05-01T14:10:52.000Z</time>
      </trkpt>
      <trkpt lat="44.8461" lon="0.80266">
        <ele>153.5</ele>
        <time>2026-05-01T14:10:53.000Z</time>
      </trkpt>
      <trkpt lat="44.84611" lon="0.80267">
        <ele>154.4</ele>
        <time>2026-05-01T14:10:54.000Z</time>
      </trkpt>
      <trkpt lat="44.84613" lon="0.80268">
        <ele>154.4</ele>
        <time>2026-05-01T14:10:55.000Z</time>
      </trkpt>
      <trkpt lat="44.84615" lon="0.80269">
        <ele>154.7</ele>
        <time>2026-05-01T14:10:56.000Z</time>
      </trkpt>
      <trkpt lat="44.84617" lon="0.8027">
        <ele>155</ele>
        <time>2026-05-01T14:10:57.000Z</time>
      </trkpt>
      <trkpt lat="44.84618" lon="0.80271">
        <ele>155.5</ele>
        <time>2026-05-01T14:10:58.000Z</time>
      </trkpt>
      <trkpt lat="44.8462" lon="0.80272">
        <ele>156.1</ele>
        <time>2026-05-01T14:10:59.000Z</time>
      </trkpt>
      <trkpt lat="44.84622" lon="0.80272">
        <ele>155.9</ele>
        <time>2026-05-01T14:11:00.000Z</time>
      </trkpt>
      <trkpt lat="44.84623" lon="0.80273">
        <ele>155.7</ele>
        <time>2026-05-01T14:11:01.000Z</time>
      </trkpt>
      <trkpt lat="44.84625" lon="0.80274">
        <ele>156.1</ele>
        <time>2026-05-01T14:11:02.000Z</time>
      </trkpt>
      <trkpt lat="44.84627" lon="0.80275">
        <ele>157.1</ele>
        <time>2026-05-01T14:11:03.000Z</time>
      </trkpt>
      <trkpt lat="44.84629" lon="0.80276">
        <ele>157.2</ele>
        <time>2026-05-01T14:11:04.000Z</time>
      </trkpt>
      <trkpt lat="44.84631" lon="0.80277">
        <ele>156.7</ele>
        <time>2026-05-01T14:11:05.000Z</time>
      </trkpt>
      <trkpt lat="44.84633" lon="0.80278">
        <ele>157</ele>
        <time>2026-05-01T14:11:06.000Z</time>
      </trkpt>
      <trkpt lat="44.84635" lon="0.80278">
        <ele>157.8</ele>
        <time>2026-05-01T14:11:07.000Z</time>
      </trkpt>
      <trkpt lat="44.84637" lon="0.80279">
        <ele>158.1</ele>
        <time>2026-05-01T14:11:08.000Z</time>
      </trkpt>
      <trkpt lat="44.84639" lon="0.8028">
        <ele>158.8</ele>
        <time>2026-05-01T14:11:09.000Z</time>
      </trkpt>
      <trkpt lat="44.84641" lon="0.80282">
        <ele>158.8</ele>
        <time>2026-05-01T14:11:10.000Z</time>
      </trkpt>
      <trkpt lat="44.84642" lon="0.80283">
        <ele>159.5</ele>
        <time>2026-05-01T14:11:11.000Z</time>
      </trkpt>
      <trkpt lat="44.84644" lon="0.80283">
        <ele>159.6</ele>
        <time>2026-05-01T14:11:12.000Z</time>
      </trkpt>
      <trkpt lat="44.84646" lon="0.80285">
        <ele>160.8</ele>
        <time>2026-05-01T14:11:13.000Z</time>
      </trkpt>
      <trkpt lat="44.84648" lon="0.80286">
        <ele>161.6</ele>
        <time>2026-05-01T14:11:14.000Z</time>
      </trkpt>
      <trkpt lat="44.8465" lon="0.80288">
        <ele>161.9</ele>
        <time>2026-05-01T14:11:15.000Z</time>
      </trkpt>
      <trkpt lat="44.84652" lon="0.80289">
        <ele>162.1</ele>
        <time>2026-05-01T14:11:16.000Z</time>
      </trkpt>
      <trkpt lat="44.84654" lon="0.8029">
        <ele>162.6</ele>
        <time>2026-05-01T14:11:17.000Z</time>
      </trkpt>
      <trkpt lat="44.84655" lon="0.80292">
        <ele>162.8</ele>
        <time>2026-05-01T14:11:18.000Z</time>
      </trkpt>
      <trkpt lat="44.84657" lon="0.80293">
        <ele>163.3</ele>
        <time>2026-05-01T14:11:19.000Z</time>
      </trkpt>
      <trkpt lat="44.84658" lon="0.80294">
        <ele>163.6</ele>
        <time>2026-05-01T14:11:20.000Z</time>
      </trkpt>
      <trkpt lat="44.8466" lon="0.80296">
        <ele>164.5</ele>
        <time>2026-05-01T14:11:21.000Z</time>
      </trkpt>
      <trkpt lat="44.84661" lon="0.80298">
        <ele>164.4</ele>
        <time>2026-05-01T14:11:22.000Z</time>
      </trkpt>
      <trkpt lat="44.84662" lon="0.803">
        <ele>164.5</ele>
        <time>2026-05-01T14:11:23.000Z</time>
      </trkpt>
      <trkpt lat="44.84664" lon="0.80301">
        <ele>165.4</ele>
        <time>2026-05-01T14:11:24.000Z</time>
      </trkpt>
      <trkpt lat="44.84665" lon="0.80303">
        <ele>166.4</ele>
        <time>2026-05-01T14:11:25.000Z</time>
      </trkpt>
      <trkpt lat="44.84667" lon="0.80305">
        <ele>166.7</ele>
        <time>2026-05-01T14:11:26.000Z</time>
      </trkpt>
      <trkpt lat="44.84669" lon="0.80306">
        <ele>167.7</ele>
        <time>2026-05-01T14:11:27.000Z</time>
      </trkpt>
      <trkpt lat="44.8467" lon="0.80307">
        <ele>168.1</ele>
        <time>2026-05-01T14:11:28.000Z</time>
      </trkpt>
      <trkpt lat="44.84671" lon="0.80309">
        <ele>168.6</ele>
        <time>2026-05-01T14:11:29.000Z</time>
      </trkpt>
      <trkpt lat="44.84672" lon="0.80311">
        <ele>169.1</ele>
        <time>2026-05-01T14:11:30.000Z</time>
      </trkpt>
      <trkpt lat="44.84673" lon="0.80313">
        <ele>168.9</ele>
        <time>2026-05-01T14:11:31.000Z</time>
      </trkpt>
      <trkpt lat="44.84674" lon="0.80315">
        <ele>168.2</ele>
        <time>2026-05-01T14:11:32.000Z</time>
      </trkpt>
      <trkpt lat="44.84675" lon="0.80316">
        <ele>167.9</ele>
        <time>2026-05-01T14:11:33.000Z</time>
      </trkpt>
      <trkpt lat="44.84676" lon="0.80318">
        <ele>168.5</ele>
        <time>2026-05-01T14:11:34.000Z</time>
      </trkpt>
      <trkpt lat="44.84676" lon="0.80321">
        <ele>169.8</ele>
        <time>2026-05-01T14:11:35.000Z</time>
      </trkpt>
      <trkpt lat="44.84677" lon="0.80323">
        <ele>169.5</ele>
        <time>2026-05-01T14:11:36.000Z</time>
      </trkpt>
      <trkpt lat="44.84677" lon="0.80325">
        <ele>169.5</ele>
        <time>2026-05-01T14:11:37.000Z</time>
      </trkpt>
      <trkpt lat="44.84677" lon="0.80326">
        <ele>169.4</ele>
        <time>2026-05-01T14:11:38.000Z</time>
      </trkpt>
      <trkpt lat="44.84678" lon="0.80328">
        <ele>169.6</ele>
        <time>2026-05-01T14:11:39.000Z</time>
      </trkpt>
      <trkpt lat="44.84678" lon="0.8033">
        <ele>169.4</ele>
        <time>2026-05-01T14:11:40.000Z</time>
      </trkpt>
      <trkpt lat="44.84679" lon="0.80332">
        <ele>169.7</ele>
        <time>2026-05-01T14:11:41.000Z</time>
      </trkpt>
      <trkpt lat="44.84679" lon="0.80335">
        <ele>170.1</ele>
        <time>2026-05-01T14:11:42.000Z</time>
      </trkpt>
      <trkpt lat="44.8468" lon="0.80338">
        <ele>170.5</ele>
        <time>2026-05-01T14:11:43.000Z</time>
      </trkpt>
      <trkpt lat="44.8468" lon="0.8034">
        <ele>170.7</ele>
        <time>2026-05-01T14:11:44.000Z</time>
      </trkpt>
      <trkpt lat="44.84681" lon="0.80343">
        <ele>171.1</ele>
        <time>2026-05-01T14:11:45.000Z</time>
      </trkpt>
      <trkpt lat="44.84682" lon="0.80345">
        <ele>172</ele>
        <time>2026-05-01T14:11:46.000Z</time>
      </trkpt>
      <trkpt lat="44.84682" lon="0.80348">
        <ele>172.2</ele>
        <time>2026-05-01T14:11:47.000Z</time>
      </trkpt>
      <trkpt lat="44.84682" lon="0.8035">
        <ele>172.4</ele>
        <time>2026-05-01T14:11:48.000Z</time>
      </trkpt>
      <trkpt lat="44.84682" lon="0.80353">
        <ele>172.8</ele>
        <time>2026-05-01T14:11:49.000Z</time>
      </trkpt>
      <trkpt lat="44.84682" lon="0.80355">
        <ele>172.8</ele>
        <time>2026-05-01T14:11:50.000Z</time>
      </trkpt>
      <trkpt lat="44.84682" lon="0.80358">
        <ele>172.2</ele>
        <time>2026-05-01T14:11:51.000Z</time>
      </trkpt>
      <trkpt lat="44.84683" lon="0.8036">
        <ele>172.9</ele>
        <time>2026-05-01T14:11:52.000Z</time>
      </trkpt>
      <trkpt lat="44.84683" lon="0.80363">
        <ele>173.6</ele>
        <time>2026-05-01T14:11:53.000Z</time>
      </trkpt>
      <trkpt lat="44.84684" lon="0.80365">
        <ele>173.7</ele>
        <time>2026-05-01T14:11:54.000Z</time>
      </trkpt>
      <trkpt lat="44.84685" lon="0.80367">
        <ele>173.2</ele>
        <time>2026-05-01T14:11:55.000Z</time>
      </trkpt>
      <trkpt lat="44.84686" lon="0.80369">
        <ele>172.6</ele>
        <time>2026-05-01T14:11:56.000Z</time>
      </trkpt>
      <trkpt lat="44.84685" lon="0.80371">
        <ele>173.7</ele>
        <time>2026-05-01T14:11:57.000Z</time>
      </trkpt>
      <trkpt lat="44.84685" lon="0.80373">
        <ele>173.9</ele>
        <time>2026-05-01T14:11:58.000Z</time>
      </trkpt>
      <trkpt lat="44.84685" lon="0.80375">
        <ele>174.2</ele>
        <time>2026-05-01T14:11:59.000Z</time>
      </trkpt>
      <trkpt lat="44.84685" lon="0.80378">
        <ele>174.2</ele>
        <time>2026-05-01T14:12:00.000Z</time>
      </trkpt>
      <trkpt lat="44.84685" lon="0.8038">
        <ele>174.4</ele>
        <time>2026-05-01T14:12:01.000Z</time>
      </trkpt>
      <trkpt lat="44.84685" lon="0.80382">
        <ele>174.2</ele>
        <time>2026-05-01T14:12:02.000Z</time>
      </trkpt>
      <trkpt lat="44.84685" lon="0.80385">
        <ele>174.1</ele>
        <time>2026-05-01T14:12:03.000Z</time>
      </trkpt>
      <trkpt lat="44.84685" lon="0.80388">
        <ele>172.8</ele>
        <time>2026-05-01T14:12:04.000Z</time>
      </trkpt>
      <trkpt lat="44.84684" lon="0.80391">
        <ele>173.8</ele>
        <time>2026-05-01T14:12:05.000Z</time>
      </trkpt>
      <trkpt lat="44.84685" lon="0.80394">
        <ele>173.9</ele>
        <time>2026-05-01T14:12:06.000Z</time>
      </trkpt>
      <trkpt lat="44.84685" lon="0.80397">
        <ele>174.3</ele>
        <time>2026-05-01T14:12:07.000Z</time>
      </trkpt>
      <trkpt lat="44.84685" lon="0.80399">
        <ele>174.6</ele>
        <time>2026-05-01T14:12:08.000Z</time>
      </trkpt>
      <trkpt lat="44.84685" lon="0.80402">
        <ele>174.6</ele>
        <time>2026-05-01T14:12:09.000Z</time>
      </trkpt>
      <trkpt lat="44.84685" lon="0.80405">
        <ele>173.7</ele>
        <time>2026-05-01T14:12:10.000Z</time>
      </trkpt>
      <trkpt lat="44.84685" lon="0.80407">
        <ele>173.3</ele>
        <time>2026-05-01T14:12:11.000Z</time>
      </trkpt>
      <trkpt lat="44.84685" lon="0.8041">
        <ele>173</ele>
        <time>2026-05-01T14:12:12.000Z</time>
      </trkpt>
      <trkpt lat="44.84685" lon="0.80413">
        <ele>172.1</ele>
        <time>2026-05-01T14:12:13.000Z</time>
      </trkpt>
      <trkpt lat="44.84685" lon="0.80415">
        <ele>172.5</ele>
        <time>2026-05-01T14:12:14.000Z</time>
      </trkpt>
      <trkpt lat="44.84685" lon="0.80418">
        <ele>173</ele>
        <time>2026-05-01T14:12:15.000Z</time>
      </trkpt>
      <trkpt lat="44.84686" lon="0.8042">
        <ele>173.6</ele>
        <time>2026-05-01T14:12:16.000Z</time>
      </trkpt>
      <trkpt lat="44.84686" lon="0.80423">
        <ele>173.6</ele>
        <time>2026-05-01T14:12:17.000Z</time>
      </trkpt>
      <trkpt lat="44.84686" lon="0.80425">
        <ele>173.9</ele>
        <time>2026-05-01T14:12:18.000Z</time>
      </trkpt>
      <trkpt lat="44.84686" lon="0.80428">
        <ele>174.2</ele>
        <time>2026-05-01T14:12:19.000Z</time>
      </trkpt>
      <trkpt lat="44.84686" lon="0.8043">
        <ele>174.2</ele>
        <time>2026-05-01T14:12:20.000Z</time>
      </trkpt>
      <trkpt lat="44.84685" lon="0.80433">
        <ele>174.7</ele>
        <time>2026-05-01T14:12:21.000Z</time>
      </trkpt>
      <trkpt lat="44.84685" lon="0.80435">
        <ele>175.2</ele>
        <time>2026-05-01T14:12:22.000Z</time>
      </trkpt>
      <trkpt lat="44.84685" lon="0.80438">
        <ele>175.2</ele>
        <time>2026-05-01T14:12:23.000Z</time>
      </trkpt>
      <trkpt lat="44.84685" lon="0.8044">
        <ele>175.5</ele>
        <time>2026-05-01T14:12:24.000Z</time>
      </trkpt>
      <trkpt lat="44.84685" lon="0.80443">
        <ele>175.5</ele>
        <time>2026-05-01T14:12:25.000Z</time>
      </trkpt>
      <trkpt lat="44.84686" lon="0.80445">
        <ele>175.7</ele>
        <time>2026-05-01T14:12:26.000Z</time>
      </trkpt>
      <trkpt lat="44.84686" lon="0.80448">
        <ele>175.9</ele>
        <time>2026-05-01T14:12:27.000Z</time>
      </trkpt>
      <trkpt lat="44.84686" lon="0.80451">
        <ele>176.3</ele>
        <time>2026-05-01T14:12:28.000Z</time>
      </trkpt>
      <trkpt lat="44.84686" lon="0.80454">
        <ele>176.9</ele>
        <time>2026-05-01T14:12:29.000Z</time>
      </trkpt>
      <trkpt lat="44.84686" lon="0.80457">
        <ele>177.2</ele>
        <time>2026-05-01T14:12:30.000Z</time>
      </trkpt>
      <trkpt lat="44.84686" lon="0.80459">
        <ele>177.2</ele>
        <time>2026-05-01T14:12:31.000Z</time>
      </trkpt>
      <trkpt lat="44.84686" lon="0.80461">
        <ele>177.2</ele>
        <time>2026-05-01T14:12:32.000Z</time>
      </trkpt>
      <trkpt lat="44.84686" lon="0.80464">
        <ele>177.1</ele>
        <time>2026-05-01T14:12:33.000Z</time>
      </trkpt>
      <trkpt lat="44.84686" lon="0.80466">
        <ele>177.2</ele>
        <time>2026-05-01T14:12:34.000Z</time>
      </trkpt>
      <trkpt lat="44.84686" lon="0.80469">
        <ele>177.7</ele>
        <time>2026-05-01T14:12:35.000Z</time>
      </trkpt>
      <trkpt lat="44.84686" lon="0.80471">
        <ele>177.7</ele>
        <time>2026-05-01T14:12:36.000Z</time>
      </trkpt>
      <trkpt lat="44.84686" lon="0.80474">
        <ele>178.4</ele>
        <time>2026-05-01T14:12:37.000Z</time>
      </trkpt>
      <trkpt lat="44.84685" lon="0.80476">
        <ele>178.5</ele>
        <time>2026-05-01T14:12:38.000Z</time>
      </trkpt>
      <trkpt lat="44.84685" lon="0.80479">
        <ele>179</ele>
        <time>2026-05-01T14:12:39.000Z</time>
      </trkpt>
      <trkpt lat="44.84685" lon="0.80482">
        <ele>178.9</ele>
        <time>2026-05-01T14:12:40.000Z</time>
      </trkpt>
      <trkpt lat="44.84686" lon="0.80484">
        <ele>179.1</ele>
        <time>2026-05-01T14:12:41.000Z</time>
      </trkpt>
      <trkpt lat="44.84686" lon="0.80487">
        <ele>178.5</ele>
        <time>2026-05-01T14:12:42.000Z</time>
      </trkpt>
      <trkpt lat="44.84686" lon="0.80489">
        <ele>178.6</ele>
        <time>2026-05-01T14:12:43.000Z</time>
      </trkpt>
      <trkpt lat="44.84686" lon="0.80491">
        <ele>178.4</ele>
        <time>2026-05-01T14:12:44.000Z</time>
      </trkpt>
      <trkpt lat="44.84686" lon="0.80493">
        <ele>178.7</ele>
        <time>2026-05-01T14:12:45.000Z</time>
      </trkpt>
      <trkpt lat="44.84687" lon="0.80496">
        <ele>178.5</ele>
        <time>2026-05-01T14:12:46.000Z</time>
      </trkpt>
      <trkpt lat="44.84687" lon="0.80498">
        <ele>178.8</ele>
        <time>2026-05-01T14:12:47.000Z</time>
      </trkpt>
      <trkpt lat="44.84687" lon="0.80501">
        <ele>178.9</ele>
        <time>2026-05-01T14:12:48.000Z</time>
      </trkpt>
      <trkpt lat="44.84687" lon="0.80503">
        <ele>178.4</ele>
        <time>2026-05-01T14:12:49.000Z</time>
      </trkpt>
      <trkpt lat="44.84687" lon="0.80505">
        <ele>178.2</ele>
        <time>2026-05-01T14:12:50.000Z</time>
      </trkpt>
      <trkpt lat="44.84687" lon="0.80508">
        <ele>178.3</ele>
        <time>2026-05-01T14:12:51.000Z</time>
      </trkpt>
      <trkpt lat="44.84687" lon="0.80511">
        <ele>178.3</ele>
        <time>2026-05-01T14:12:52.000Z</time>
      </trkpt>
      <trkpt lat="44.84687" lon="0.80514">
        <ele>178.7</ele>
        <time>2026-05-01T14:12:53.000Z</time>
      </trkpt>
      <trkpt lat="44.84687" lon="0.80516">
        <ele>178.7</ele>
        <time>2026-05-01T14:12:54.000Z</time>
      </trkpt>
      <trkpt lat="44.84687" lon="0.80519">
        <ele>179</ele>
        <time>2026-05-01T14:12:55.000Z</time>
      </trkpt>
      <trkpt lat="44.84687" lon="0.80522">
        <ele>179</ele>
        <time>2026-05-01T14:12:56.000Z</time>
      </trkpt>
      <trkpt lat="44.84686" lon="0.80524">
        <ele>179.1</ele>
        <time>2026-05-01T14:12:57.000Z</time>
      </trkpt>
      <trkpt lat="44.84686" lon="0.80526">
        <ele>179.7</ele>
        <time>2026-05-01T14:12:58.000Z</time>
      </trkpt>
      <trkpt lat="44.84686" lon="0.80528">
        <ele>180.2</ele>
        <time>2026-05-01T14:12:59.000Z</time>
      </trkpt>
      <trkpt lat="44.84685" lon="0.8053">
        <ele>180.9</ele>
        <time>2026-05-01T14:13:00.000Z</time>
      </trkpt>
      <trkpt lat="44.84685" lon="0.80532">
        <ele>181.3</ele>
        <time>2026-05-01T14:13:01.000Z</time>
      </trkpt>
      <trkpt lat="44.84685" lon="0.80534">
        <ele>181.7</ele>
        <time>2026-05-01T14:13:02.000Z</time>
      </trkpt>
      <trkpt lat="44.84684" lon="0.80536">
        <ele>181.8</ele>
        <time>2026-05-01T14:13:03.000Z</time>
      </trkpt>
      <trkpt lat="44.84683" lon="0.80538">
        <ele>181.7</ele>
        <time>2026-05-01T14:13:04.000Z</time>
      </trkpt>
      <trkpt lat="44.84682" lon="0.8054">
        <ele>181.9</ele>
        <time>2026-05-01T14:13:05.000Z</time>
      </trkpt>
      <trkpt lat="44.84681" lon="0.80541">
        <ele>181.7</ele>
        <time>2026-05-01T14:13:06.000Z</time>
      </trkpt>
      <trkpt lat="44.84679" lon="0.80542">
        <ele>181.8</ele>
        <time>2026-05-01T14:13:07.000Z</time>
      </trkpt>
      <trkpt lat="44.84678" lon="0.80543">
        <ele>181.1</ele>
        <time>2026-05-01T14:13:08.000Z</time>
      </trkpt>
      <trkpt lat="44.84677" lon="0.80543">
        <ele>181</ele>
        <time>2026-05-01T14:13:09.000Z</time>
      </trkpt>
      <trkpt lat="44.84676" lon="0.80544">
        <ele>180.9</ele>
        <time>2026-05-01T14:13:10.000Z</time>
      </trkpt>
      <trkpt lat="44.84675" lon="0.80544">
        <ele>181</ele>
        <time>2026-05-01T14:13:11.000Z</time>
      </trkpt>
      <trkpt lat="44.84674" lon="0.80544">
        <ele>181.3</ele>
        <time>2026-05-01T14:13:12.000Z</time>
      </trkpt>
      <trkpt lat="44.84673" lon="0.80543">
        <ele>181.4</ele>
        <time>2026-05-01T14:13:13.000Z</time>
      </trkpt>
      <trkpt lat="44.84672" lon="0.80543">
        <ele>180.9</ele>
        <time>2026-05-01T14:13:14.000Z</time>
      </trkpt>
      <trkpt lat="44.84671" lon="0.80544">
        <ele>180.9</ele>
        <time>2026-05-01T14:13:15.000Z</time>
      </trkpt>
      <trkpt lat="44.8467" lon="0.80545">
        <ele>180.1</ele>
        <time>2026-05-01T14:13:16.000Z</time>
      </trkpt>
      <trkpt lat="44.84668" lon="0.80545">
        <ele>179.7</ele>
        <time>2026-05-01T14:13:17.000Z</time>
      </trkpt>
      <trkpt lat="44.84667" lon="0.80546">
        <ele>179.6</ele>
        <time>2026-05-01T14:13:18.000Z</time>
      </trkpt>
      <trkpt lat="44.84666" lon="0.80546">
        <ele>178.8</ele>
        <time>2026-05-01T14:13:19.000Z</time>
      </trkpt>
      <trkpt lat="44.84664" lon="0.80547">
        <ele>178.3</ele>
        <time>2026-05-01T14:13:20.000Z</time>
      </trkpt>
      <trkpt lat="44.84663" lon="0.80548">
        <ele>178.2</ele>
        <time>2026-05-01T14:13:21.000Z</time>
      </trkpt>
      <trkpt lat="44.84662" lon="0.80549">
        <ele>178.5</ele>
        <time>2026-05-01T14:13:22.000Z</time>
      </trkpt>
      <trkpt lat="44.8466" lon="0.8055">
        <ele>178.9</ele>
        <time>2026-05-01T14:13:23.000Z</time>
      </trkpt>
      <trkpt lat="44.84659" lon="0.80551">
        <ele>179.2</ele>
        <time>2026-05-01T14:13:24.000Z</time>
      </trkpt>
      <trkpt lat="44.84657" lon="0.80551">
        <ele>179.2</ele>
        <time>2026-05-01T14:13:25.000Z</time>
      </trkpt>
      <trkpt lat="44.84656" lon="0.80552">
        <ele>179.8</ele>
        <time>2026-05-01T14:13:26.000Z</time>
      </trkpt>
      <trkpt lat="44.84654" lon="0.80552">
        <ele>180.5</ele>
        <time>2026-05-01T14:13:27.000Z</time>
      </trkpt>
      <trkpt lat="44.84653" lon="0.80553">
        <ele>180.8</ele>
        <time>2026-05-01T14:13:28.000Z</time>
      </trkpt>
      <trkpt lat="44.84651" lon="0.80553">
        <ele>181.8</ele>
        <time>2026-05-01T14:13:29.000Z</time>
      </trkpt>
      <trkpt lat="44.8465" lon="0.80554">
        <ele>181.3</ele>
        <time>2026-05-01T14:13:30.000Z</time>
      </trkpt>
      <trkpt lat="44.84648" lon="0.80555">
        <ele>180.7</ele>
        <time>2026-05-01T14:13:31.000Z</time>
      </trkpt>
      <trkpt lat="44.84647" lon="0.80555">
        <ele>180.5</ele>
        <time>2026-05-01T14:13:32.000Z</time>
      </trkpt>
      <trkpt lat="44.84646" lon="0.80555">
        <ele>180.7</ele>
        <time>2026-05-01T14:13:33.000Z</time>
      </trkpt>
      <trkpt lat="44.84644" lon="0.80556">
        <ele>180.5</ele>
        <time>2026-05-01T14:13:34.000Z</time>
      </trkpt>
      <trkpt lat="44.84643" lon="0.80556">
        <ele>180.6</ele>
        <time>2026-05-01T14:13:35.000Z</time>
      </trkpt>
      <trkpt lat="44.84641" lon="0.80556">
        <ele>180.9</ele>
        <time>2026-05-01T14:13:36.000Z</time>
      </trkpt>
      <trkpt lat="44.8464" lon="0.80556">
        <ele>180.6</ele>
        <time>2026-05-01T14:13:37.000Z</time>
      </trkpt>
      <trkpt lat="44.84638" lon="0.80557">
        <ele>180.7</ele>
        <time>2026-05-01T14:13:38.000Z</time>
      </trkpt>
      <trkpt lat="44.84636" lon="0.80557">
        <ele>181</ele>
        <time>2026-05-01T14:13:39.000Z</time>
      </trkpt>
      <trkpt lat="44.84635" lon="0.80557">
        <ele>181.4</ele>
        <time>2026-05-01T14:13:40.000Z</time>
      </trkpt>
      <trkpt lat="44.84633" lon="0.80557">
        <ele>181.7</ele>
        <time>2026-05-01T14:13:41.000Z</time>
      </trkpt>
      <trkpt lat="44.84632" lon="0.80557">
        <ele>181.4</ele>
        <time>2026-05-01T14:13:42.000Z</time>
      </trkpt>
      <trkpt lat="44.8463" lon="0.80557">
        <ele>181.9</ele>
        <time>2026-05-01T14:13:43.000Z</time>
      </trkpt>
      <trkpt lat="44.84629" lon="0.80557">
        <ele>182</ele>
        <time>2026-05-01T14:13:44.000Z</time>
      </trkpt>
      <trkpt lat="44.84627" lon="0.80558">
        <ele>182.5</ele>
        <time>2026-05-01T14:13:45.000Z</time>
      </trkpt>
      <trkpt lat="44.84626" lon="0.80558">
        <ele>182.8</ele>
        <time>2026-05-01T14:13:46.000Z</time>
      </trkpt>
      <trkpt lat="44.84625" lon="0.80558">
        <ele>183.1</ele>
        <time>2026-05-01T14:13:47.000Z</time>
      </trkpt>
      <trkpt lat="44.84623" lon="0.80558">
        <ele>183.2</ele>
        <time>2026-05-01T14:13:48.000Z</time>
      </trkpt>
      <trkpt lat="44.84621" lon="0.80559">
        <ele>183.7</ele>
        <time>2026-05-01T14:13:49.000Z</time>
      </trkpt>
      <trkpt lat="44.8462" lon="0.80559">
        <ele>183.6</ele>
        <time>2026-05-01T14:13:50.000Z</time>
      </trkpt>
      <trkpt lat="44.84619" lon="0.80558">
        <ele>184.1</ele>
        <time>2026-05-01T14:13:51.000Z</time>
      </trkpt>
      <trkpt lat="44.84617" lon="0.80557">
        <ele>183.9</ele>
        <time>2026-05-01T14:13:52.000Z</time>
      </trkpt>
      <trkpt lat="44.84615" lon="0.80557">
        <ele>183.6</ele>
        <time>2026-05-01T14:13:53.000Z</time>
      </trkpt>
      <trkpt lat="44.84613" lon="0.80557">
        <ele>183.8</ele>
        <time>2026-05-01T14:13:54.000Z</time>
      </trkpt>
      <trkpt lat="44.84611" lon="0.80556">
        <ele>183.9</ele>
        <time>2026-05-01T14:13:55.000Z</time>
      </trkpt>
      <trkpt lat="44.84609" lon="0.80557">
        <ele>183.1</ele>
        <time>2026-05-01T14:13:56.000Z</time>
      </trkpt>
      <trkpt lat="44.84608" lon="0.80557">
        <ele>183.8</ele>
        <time>2026-05-01T14:13:57.000Z</time>
      </trkpt>
      <trkpt lat="44.84606" lon="0.80557">
        <ele>183.9</ele>
        <time>2026-05-01T14:13:58.000Z</time>
      </trkpt>
      <trkpt lat="44.84604" lon="0.80558">
        <ele>184</ele>
        <time>2026-05-01T14:13:59.000Z</time>
      </trkpt>
      <trkpt lat="44.84603" lon="0.80558">
        <ele>184.1</ele>
        <time>2026-05-01T14:14:00.000Z</time>
      </trkpt>
      <trkpt lat="44.84601" lon="0.80559">
        <ele>184.2</ele>
        <time>2026-05-01T14:14:01.000Z</time>
      </trkpt>
      <trkpt lat="44.846" lon="0.80559">
        <ele>184.1</ele>
        <time>2026-05-01T14:14:02.000Z</time>
      </trkpt>
      <trkpt lat="44.84601" lon="0.80559">
        <ele>183.9</ele>
        <time>2026-05-01T14:14:03.000Z</time>
      </trkpt>
      <trkpt lat="44.84599" lon="0.8056">
        <ele>183.8</ele>
        <time>2026-05-01T14:14:04.000Z</time>
      </trkpt>
      <trkpt lat="44.84597" lon="0.80561">
        <ele>183.8</ele>
        <time>2026-05-01T14:14:05.000Z</time>
      </trkpt>
      <trkpt lat="44.84595" lon="0.80563">
        <ele>184.2</ele>
        <time>2026-05-01T14:14:06.000Z</time>
      </trkpt>
      <trkpt lat="44.84594" lon="0.80564">
        <ele>182.3</ele>
        <time>2026-05-01T14:14:07.000Z</time>
      </trkpt>
      <trkpt lat="44.84592" lon="0.80565">
        <ele>180.6</ele>
        <time>2026-05-01T14:14:08.000Z</time>
      </trkpt>
      <trkpt lat="44.8459" lon="0.80563">
        <ele>178.8</ele>
        <time>2026-05-01T14:14:09.000Z</time>
      </trkpt>
      <trkpt lat="44.84588" lon="0.80561">
        <ele>179.1</ele>
        <time>2026-05-01T14:14:10.000Z</time>
      </trkpt>
      <trkpt lat="44.84588" lon="0.8056">
        <ele>180.2</ele>
        <time>2026-05-01T14:14:11.000Z</time>
      </trkpt>
      <trkpt lat="44.8459" lon="0.80559">
        <ele>181.3</ele>
        <time>2026-05-01T14:14:12.000Z</time>
      </trkpt>
      <trkpt lat="44.8459" lon="0.80559">
        <ele>181.3</ele>
        <time>2026-05-01T14:14:13.000Z</time>
      </trkpt>
      <trkpt lat="44.8459" lon="0.80558">
        <ele>183.4</ele>
        <time>2026-05-01T14:14:14.000Z</time>
      </trkpt>
      <trkpt lat="44.84589" lon="0.80559">
        <ele>182.5</ele>
        <time>2026-05-01T14:14:15.000Z</time>
      </trkpt>
      <trkpt lat="44.84589" lon="0.80561">
        <ele>184.4</ele>
        <time>2026-05-01T14:14:16.000Z</time>
      </trkpt>
      <trkpt lat="44.84588" lon="0.80561">
        <ele>184.4</ele>
        <time>2026-05-01T14:14:17.000Z</time>
      </trkpt>
      <trkpt lat="44.84589" lon="0.80561">
        <ele>184.5</ele>
        <time>2026-05-01T14:14:18.000Z</time>
      </trkpt>
      <trkpt lat="44.8459" lon="0.80561">
        <ele>184.4</ele>
        <time>2026-05-01T14:14:19.000Z</time>
      </trkpt>
      <trkpt lat="44.8459" lon="0.80561">
        <ele>184.4</ele>
        <time>2026-05-01T14:14:20.000Z</time>
      </trkpt>
      <trkpt lat="44.8459" lon="0.80561">
        <ele>184.4</ele>
        <time>2026-05-01T14:14:21.000Z</time>
      </trkpt>
      <trkpt lat="44.84591" lon="0.80561">
        <ele>184.6</ele>
        <time>2026-05-01T14:14:22.000Z</time>
      </trkpt>
      <trkpt lat="44.84592" lon="0.80562">
        <ele>183.9</ele>
        <time>2026-05-01T14:14:23.000Z</time>
      </trkpt>
      <trkpt lat="44.84593" lon="0.80562">
        <ele>183.9</ele>
        <time>2026-05-01T14:14:24.000Z</time>
      </trkpt>
      <trkpt lat="44.84593" lon="0.80562">
        <ele>183.7</ele>
        <time>2026-05-01T14:14:25.000Z</time>
      </trkpt>
      <trkpt lat="44.84592" lon="0.80563">
        <ele>183.4</ele>
        <time>2026-05-01T14:14:26.000Z</time>
      </trkpt>
      <trkpt lat="44.84591" lon="0.80564">
        <ele>183.4</ele>
        <time>2026-05-01T14:14:27.000Z</time>
      </trkpt>
      <trkpt lat="44.84591" lon="0.80565">
        <ele>184.4</ele>
        <time>2026-05-01T14:14:28.000Z</time>
      </trkpt>
      <trkpt lat="44.8459" lon="0.80565">
        <ele>184.5</ele>
        <time>2026-05-01T14:14:29.000Z</time>
      </trkpt>
      <trkpt lat="44.84589" lon="0.80566">
        <ele>184.4</ele>
        <time>2026-05-01T14:14:30.000Z</time>
      </trkpt>
      <trkpt lat="44.84589" lon="0.80566">
        <ele>184.4</ele>
        <time>2026-05-01T14:14:31.000Z</time>
      </trkpt>
      <trkpt lat="44.84588" lon="0.80567">
        <ele>184.5</ele>
        <time>2026-05-01T14:14:32.000Z</time>
      </trkpt>
      <trkpt lat="44.84587" lon="0.80568">
        <ele>184.2</ele>
        <time>2026-05-01T14:14:33.000Z</time>
      </trkpt>
      <trkpt lat="44.84586" lon="0.80568">
        <ele>184.5</ele>
        <time>2026-05-01T14:14:34.000Z</time>
      </trkpt>
      <trkpt lat="44.84585" lon="0.80569">
        <ele>184.9</ele>
        <time>2026-05-01T14:14:35.000Z</time>
      </trkpt>
      <trkpt lat="44.84583" lon="0.8057">
        <ele>185.3</ele>
        <time>2026-05-01T14:14:36.000Z</time>
      </trkpt>
      <trkpt lat="44.84582" lon="0.80571">
        <ele>185.1</ele>
        <time>2026-05-01T14:14:37.000Z</time>
      </trkpt>
      <trkpt lat="44.84581" lon="0.80572">
        <ele>185.3</ele>
        <time>2026-05-01T14:14:38.000Z</time>
      </trkpt>
      <trkpt lat="44.8458" lon="0.80573">
        <ele>185.1</ele>
        <time>2026-05-01T14:14:39.000Z</time>
      </trkpt>
      <trkpt lat="44.84579" lon="0.80573">
        <ele>184.8</ele>
        <time>2026-05-01T14:14:40.000Z</time>
      </trkpt>
      <trkpt lat="44.84578" lon="0.80574">
        <ele>185</ele>
        <time>2026-05-01T14:14:41.000Z</time>
      </trkpt>
      <trkpt lat="44.84576" lon="0.80575">
        <ele>184.7</ele>
        <time>2026-05-01T14:14:42.000Z</time>
      </trkpt>
      <trkpt lat="44.84575" lon="0.80576">
        <ele>184.5</ele>
        <time>2026-05-01T14:14:43.000Z</time>
      </trkpt>
      <trkpt lat="44.84574" lon="0.80578">
        <ele>185.1</ele>
        <time>2026-05-01T14:14:44.000Z</time>
      </trkpt>
      <trkpt lat="44.84572" lon="0.80579">
        <ele>184.8</ele>
        <time>2026-05-01T14:14:45.000Z</time>
      </trkpt>
      <trkpt lat="44.84571" lon="0.8058">
        <ele>184.2</ele>
        <time>2026-05-01T14:14:46.000Z</time>
      </trkpt>
      <trkpt lat="44.8457" lon="0.8058">
        <ele>183.8</ele>
        <time>2026-05-01T14:14:47.000Z</time>
      </trkpt>
      <trkpt lat="44.84569" lon="0.80582">
        <ele>183.9</ele>
        <time>2026-05-01T14:14:48.000Z</time>
      </trkpt>
      <trkpt lat="44.84567" lon="0.80582">
        <ele>183.6</ele>
        <time>2026-05-01T14:14:49.000Z</time>
      </trkpt>
      <trkpt lat="44.84566" lon="0.80584">
        <ele>183.3</ele>
        <time>2026-05-01T14:14:50.000Z</time>
      </trkpt>
      <trkpt lat="44.84564" lon="0.80585">
        <ele>185.4</ele>
        <time>2026-05-01T14:14:51.000Z</time>
      </trkpt>
      <trkpt lat="44.84563" lon="0.80587">
        <ele>185.3</ele>
        <time>2026-05-01T14:14:52.000Z</time>
      </trkpt>
      <trkpt lat="44.84562" lon="0.80588">
        <ele>185.3</ele>
        <time>2026-05-01T14:14:53.000Z</time>
      </trkpt>
      <trkpt lat="44.84561" lon="0.80589">
        <ele>184.8</ele>
        <time>2026-05-01T14:14:54.000Z</time>
      </trkpt>
      <trkpt lat="44.8456" lon="0.8059">
        <ele>184.3</ele>
        <time>2026-05-01T14:14:55.000Z</time>
      </trkpt>
      <trkpt lat="44.84558" lon="0.80591">
        <ele>184.3</ele>
        <time>2026-05-01T14:14:56.000Z</time>
      </trkpt>
      <trkpt lat="44.84557" lon="0.80592">
        <ele>184.1</ele>
        <time>2026-05-01T14:14:57.000Z</time>
      </trkpt>
      <trkpt lat="44.84556" lon="0.80593">
        <ele>184.5</ele>
        <time>2026-05-01T14:14:58.000Z</time>
      </trkpt>
      <trkpt lat="44.84555" lon="0.80594">
        <ele>184.2</ele>
        <time>2026-05-01T14:14:59.000Z</time>
      </trkpt>
      <trkpt lat="44.84553" lon="0.80595">
        <ele>183.8</ele>
        <time>2026-05-01T14:15:00.000Z</time>
      </trkpt>
      <trkpt lat="44.84552" lon="0.80596">
        <ele>183.5</ele>
        <time>2026-05-01T14:15:01.000Z</time>
      </trkpt>
      <trkpt lat="44.84551" lon="0.80597">
        <ele>183.2</ele>
        <time>2026-05-01T14:15:02.000Z</time>
      </trkpt>
      <trkpt lat="44.84549" lon="0.80597">
        <ele>182.7</ele>
        <time>2026-05-01T14:15:03.000Z</time>
      </trkpt>
      <trkpt lat="44.84547" lon="0.80599">
        <ele>185.1</ele>
        <time>2026-05-01T14:15:04.000Z</time>
      </trkpt>
      <trkpt lat="44.84545" lon="0.806">
        <ele>185</ele>
        <time>2026-05-01T14:15:05.000Z</time>
      </trkpt>
      <trkpt lat="44.84544" lon="0.80601">
        <ele>184.7</ele>
        <time>2026-05-01T14:15:06.000Z</time>
      </trkpt>
      <trkpt lat="44.84542" lon="0.80602">
        <ele>184.3</ele>
        <time>2026-05-01T14:15:07.000Z</time>
      </trkpt>
      <trkpt lat="44.84541" lon="0.80604">
        <ele>183.6</ele>
        <time>2026-05-01T14:15:08.000Z</time>
      </trkpt>
      <trkpt lat="44.8454" lon="0.80605">
        <ele>185.3</ele>
        <time>2026-05-01T14:15:09.000Z</time>
      </trkpt>
      <trkpt lat="44.84539" lon="0.80607">
        <ele>185.1</ele>
        <time>2026-05-01T14:15:10.000Z</time>
      </trkpt>
      <trkpt lat="44.84537" lon="0.80608">
        <ele>185</ele>
        <time>2026-05-01T14:15:11.000Z</time>
      </trkpt>
      <trkpt lat="44.84536" lon="0.80609">
        <ele>184.9</ele>
        <time>2026-05-01T14:15:12.000Z</time>
      </trkpt>
      <trkpt lat="44.84535" lon="0.8061">
        <ele>186.8</ele>
        <time>2026-05-01T14:15:13.000Z</time>
      </trkpt>
      <trkpt lat="44.84534" lon="0.80612">
        <ele>186.8</ele>
        <time>2026-05-01T14:15:14.000Z</time>
      </trkpt>
      <trkpt lat="44.84532" lon="0.80613">
        <ele>186.8</ele>
        <time>2026-05-01T14:15:15.000Z</time>
      </trkpt>
      <trkpt lat="44.84531" lon="0.80614">
        <ele>186.9</ele>
        <time>2026-05-01T14:15:16.000Z</time>
      </trkpt>
      <trkpt lat="44.8453" lon="0.80615">
        <ele>186.9</ele>
        <time>2026-05-01T14:15:17.000Z</time>
      </trkpt>
      <trkpt lat="44.84528" lon="0.80616">
        <ele>186.4</ele>
        <time>2026-05-01T14:15:18.000Z</time>
      </trkpt>
      <trkpt lat="44.84527" lon="0.80617">
        <ele>186.6</ele>
        <time>2026-05-01T14:15:19.000Z</time>
      </trkpt>
      <trkpt lat="44.84526" lon="0.80618">
        <ele>186.6</ele>
        <time>2026-05-01T14:15:20.000Z</time>
      </trkpt>
      <trkpt lat="44.84525" lon="0.80619">
        <ele>186.8</ele>
        <time>2026-05-01T14:15:21.000Z</time>
      </trkpt>
      <trkpt lat="44.84524" lon="0.8062">
        <ele>186.7</ele>
        <time>2026-05-01T14:15:22.000Z</time>
      </trkpt>
      <trkpt lat="44.84522" lon="0.80621">
        <ele>186.9</ele>
        <time>2026-05-01T14:15:23.000Z</time>
      </trkpt>
      <trkpt lat="44.84521" lon="0.80622">
        <ele>187.9</ele>
        <time>2026-05-01T14:15:24.000Z</time>
      </trkpt>
      <trkpt lat="44.84519" lon="0.80623">
        <ele>185.8</ele>
        <time>2026-05-01T14:15:25.000Z</time>
      </trkpt>
      <trkpt lat="44.84517" lon="0.80623">
        <ele>185.3</ele>
        <time>2026-05-01T14:15:26.000Z</time>
      </trkpt>
      <trkpt lat="44.84516" lon="0.80624">
        <ele>185.7</ele>
        <time>2026-05-01T14:15:27.000Z</time>
      </trkpt>
      <trkpt lat="44.84514" lon="0.80625">
        <ele>186</ele>
        <time>2026-05-01T14:15:28.000Z</time>
      </trkpt>
      <trkpt lat="44.84513" lon="0.80626">
        <ele>185.6</ele>
        <time>2026-05-01T14:15:29.000Z</time>
      </trkpt>
      <trkpt lat="44.84512" lon="0.80627">
        <ele>188.7</ele>
        <time>2026-05-01T14:15:30.000Z</time>
      </trkpt>
      <trkpt lat="44.8451" lon="0.80628">
        <ele>188.5</ele>
        <time>2026-05-01T14:15:31.000Z</time>
      </trkpt>
      <trkpt lat="44.84509" lon="0.80629">
        <ele>189.8</ele>
        <time>2026-05-01T14:15:32.000Z</time>
      </trkpt>
      <trkpt lat="44.84508" lon="0.8063">
        <ele>189.6</ele>
        <time>2026-05-01T14:15:33.000Z</time>
      </trkpt>
      <trkpt lat="44.84506" lon="0.80632">
        <ele>192.1</ele>
        <time>2026-05-01T14:15:34.000Z</time>
      </trkpt>
      <trkpt lat="44.84505" lon="0.80633">
        <ele>192.5</ele>
        <time>2026-05-01T14:15:35.000Z</time>
      </trkpt>
      <trkpt lat="44.84503" lon="0.80634">
        <ele>192.3</ele>
        <time>2026-05-01T14:15:36.000Z</time>
      </trkpt>
      <trkpt lat="44.84502" lon="0.80635">
        <ele>192.1</ele>
        <time>2026-05-01T14:15:37.000Z</time>
      </trkpt>
      <trkpt lat="44.845" lon="0.80635">
        <ele>192.7</ele>
        <time>2026-05-01T14:15:38.000Z</time>
      </trkpt>
      <trkpt lat="44.84498" lon="0.80637">
        <ele>192.5</ele>
        <time>2026-05-01T14:15:39.000Z</time>
      </trkpt>
      <trkpt lat="44.84497" lon="0.80638">
        <ele>191.5</ele>
        <time>2026-05-01T14:15:40.000Z</time>
      </trkpt>
      <trkpt lat="44.84495" lon="0.80639">
        <ele>191</ele>
        <time>2026-05-01T14:15:41.000Z</time>
      </trkpt>
      <trkpt lat="44.84494" lon="0.8064">
        <ele>189.5</ele>
        <time>2026-05-01T14:15:42.000Z</time>
      </trkpt>
      <trkpt lat="44.84492" lon="0.80641">
        <ele>189.3</ele>
        <time>2026-05-01T14:15:43.000Z</time>
      </trkpt>
      <trkpt lat="44.84491" lon="0.80642">
        <ele>189.1</ele>
        <time>2026-05-01T14:15:44.000Z</time>
      </trkpt>
      <trkpt lat="44.84489" lon="0.80643">
        <ele>188.9</ele>
        <time>2026-05-01T14:15:45.000Z</time>
      </trkpt>
      <trkpt lat="44.84488" lon="0.80644">
        <ele>188.8</ele>
        <time>2026-05-01T14:15:46.000Z</time>
      </trkpt>
      <trkpt lat="44.84487" lon="0.80645">
        <ele>188.7</ele>
        <time>2026-05-01T14:15:47.000Z</time>
      </trkpt>
      <trkpt lat="44.84485" lon="0.80646">
        <ele>188.3</ele>
        <time>2026-05-01T14:15:48.000Z</time>
      </trkpt>
      <trkpt lat="44.84483" lon="0.80647">
        <ele>187.6</ele>
        <time>2026-05-01T14:15:49.000Z</time>
      </trkpt>
      <trkpt lat="44.84482" lon="0.80647">
        <ele>186.4</ele>
        <time>2026-05-01T14:15:50.000Z</time>
      </trkpt>
      <trkpt lat="44.8448" lon="0.80648">
        <ele>189.4</ele>
        <time>2026-05-01T14:15:51.000Z</time>
      </trkpt>
      <trkpt lat="44.84479" lon="0.80649">
        <ele>188.6</ele>
        <time>2026-05-01T14:15:52.000Z</time>
      </trkpt>
      <trkpt lat="44.84477" lon="0.8065">
        <ele>188.2</ele>
        <time>2026-05-01T14:15:53.000Z</time>
      </trkpt>
      <trkpt lat="44.84476" lon="0.8065">
        <ele>187.7</ele>
        <time>2026-05-01T14:15:54.000Z</time>
      </trkpt>
      <trkpt lat="44.84475" lon="0.80651">
        <ele>187.4</ele>
        <time>2026-05-01T14:15:55.000Z</time>
      </trkpt>
      <trkpt lat="44.84473" lon="0.80653">
        <ele>188.3</ele>
        <time>2026-05-01T14:15:56.000Z</time>
      </trkpt>
      <trkpt lat="44.84472" lon="0.80654">
        <ele>188.5</ele>
        <time>2026-05-01T14:15:57.000Z</time>
      </trkpt>
      <trkpt lat="44.8447" lon="0.80655">
        <ele>188.1</ele>
        <time>2026-05-01T14:15:58.000Z</time>
      </trkpt>
      <trkpt lat="44.84469" lon="0.80656">
        <ele>187.4</ele>
        <time>2026-05-01T14:15:59.000Z</time>
      </trkpt>
      <trkpt lat="44.84468" lon="0.80657">
        <ele>187</ele>
        <time>2026-05-01T14:16:00.000Z</time>
      </trkpt>
      <trkpt lat="44.84466" lon="0.80658">
        <ele>187.8</ele>
        <time>2026-05-01T14:16:01.000Z</time>
      </trkpt>
      <trkpt lat="44.84465" lon="0.80659">
        <ele>187.4</ele>
        <time>2026-05-01T14:16:02.000Z</time>
      </trkpt>
      <trkpt lat="44.84463" lon="0.8066">
        <ele>188.4</ele>
        <time>2026-05-01T14:16:03.000Z</time>
      </trkpt>
      <trkpt lat="44.84461" lon="0.80661">
        <ele>189.5</ele>
        <time>2026-05-01T14:16:04.000Z</time>
      </trkpt>
      <trkpt lat="44.8446" lon="0.80662">
        <ele>189.4</ele>
        <time>2026-05-01T14:16:05.000Z</time>
      </trkpt>
      <trkpt lat="44.84459" lon="0.80663">
        <ele>190</ele>
        <time>2026-05-01T14:16:06.000Z</time>
      </trkpt>
      <trkpt lat="44.84457" lon="0.80665">
        <ele>189.7</ele>
        <time>2026-05-01T14:16:07.000Z</time>
      </trkpt>
      <trkpt lat="44.84456" lon="0.80666">
        <ele>188.2</ele>
        <time>2026-05-01T14:16:08.000Z</time>
      </trkpt>
      <trkpt lat="44.84455" lon="0.80667">
        <ele>187.5</ele>
        <time>2026-05-01T14:16:09.000Z</time>
      </trkpt>
      <trkpt lat="44.84453" lon="0.80668">
        <ele>187.2</ele>
        <time>2026-05-01T14:16:10.000Z</time>
      </trkpt>
      <trkpt lat="44.84452" lon="0.80669">
        <ele>186.2</ele>
        <time>2026-05-01T14:16:11.000Z</time>
      </trkpt>
      <trkpt lat="44.84451" lon="0.8067">
        <ele>185.6</ele>
        <time>2026-05-01T14:16:12.000Z</time>
      </trkpt>
      <trkpt lat="44.84449" lon="0.80669">
        <ele>184.5</ele>
        <time>2026-05-01T14:16:13.000Z</time>
      </trkpt>
      <trkpt lat="44.84448" lon="0.80669">
        <ele>184.1</ele>
        <time>2026-05-01T14:16:14.000Z</time>
      </trkpt>
      <trkpt lat="44.84447" lon="0.80669">
        <ele>183.5</ele>
        <time>2026-05-01T14:16:15.000Z</time>
      </trkpt>
      <trkpt lat="44.84445" lon="0.8067">
        <ele>183</ele>
        <time>2026-05-01T14:16:16.000Z</time>
      </trkpt>
      <trkpt lat="44.84444" lon="0.80671">
        <ele>183.1</ele>
        <time>2026-05-01T14:16:17.000Z</time>
      </trkpt>
      <trkpt lat="44.84443" lon="0.80673">
        <ele>183.4</ele>
        <time>2026-05-01T14:16:18.000Z</time>
      </trkpt>
      <trkpt lat="44.84441" lon="0.80674">
        <ele>182.9</ele>
        <time>2026-05-01T14:16:19.000Z</time>
      </trkpt>
      <trkpt lat="44.8444" lon="0.80675">
        <ele>183.2</ele>
        <time>2026-05-01T14:16:20.000Z</time>
      </trkpt>
      <trkpt lat="44.84439" lon="0.80677">
        <ele>183.4</ele>
        <time>2026-05-01T14:16:21.000Z</time>
      </trkpt>
      <trkpt lat="44.84438" lon="0.80678">
        <ele>183.6</ele>
        <time>2026-05-01T14:16:22.000Z</time>
      </trkpt>
      <trkpt lat="44.84437" lon="0.8068">
        <ele>183.7</ele>
        <time>2026-05-01T14:16:23.000Z</time>
      </trkpt>
      <trkpt lat="44.84436" lon="0.80682">
        <ele>184.1</ele>
        <time>2026-05-01T14:16:24.000Z</time>
      </trkpt>
      <trkpt lat="44.84435" lon="0.80683">
        <ele>184.4</ele>
        <time>2026-05-01T14:16:25.000Z</time>
      </trkpt>
      <trkpt lat="44.84434" lon="0.80684">
        <ele>184.2</ele>
        <time>2026-05-01T14:16:26.000Z</time>
      </trkpt>
      <trkpt lat="44.84433" lon="0.80685">
        <ele>183.2</ele>
        <time>2026-05-01T14:16:27.000Z</time>
      </trkpt>
      <trkpt lat="44.84432" lon="0.80686">
        <ele>181</ele>
        <time>2026-05-01T14:16:28.000Z</time>
      </trkpt>
      <trkpt lat="44.8443" lon="0.80687">
        <ele>181.2</ele>
        <time>2026-05-01T14:16:29.000Z</time>
      </trkpt>
      <trkpt lat="44.84429" lon="0.80688">
        <ele>181.3</ele>
        <time>2026-05-01T14:16:30.000Z</time>
      </trkpt>
      <trkpt lat="44.84427" lon="0.80689">
        <ele>181.4</ele>
        <time>2026-05-01T14:16:31.000Z</time>
      </trkpt>
      <trkpt lat="44.84426" lon="0.80691">
        <ele>181.4</ele>
        <time>2026-05-01T14:16:32.000Z</time>
      </trkpt>
      <trkpt lat="44.84425" lon="0.80692">
        <ele>182.1</ele>
        <time>2026-05-01T14:16:33.000Z</time>
      </trkpt>
      <trkpt lat="44.84424" lon="0.80694">
        <ele>182.2</ele>
        <time>2026-05-01T14:16:34.000Z</time>
      </trkpt>
      <trkpt lat="44.84422" lon="0.80695">
        <ele>182.3</ele>
        <time>2026-05-01T14:16:35.000Z</time>
      </trkpt>
      <trkpt lat="44.84421" lon="0.80697">
        <ele>182</ele>
        <time>2026-05-01T14:16:36.000Z</time>
      </trkpt>
      <trkpt lat="44.8442" lon="0.80698">
        <ele>181.7</ele>
        <time>2026-05-01T14:16:37.000Z</time>
      </trkpt>
      <trkpt lat="44.84419" lon="0.80699">
        <ele>181.6</ele>
        <time>2026-05-01T14:16:38.000Z</time>
      </trkpt>
      <trkpt lat="44.84417" lon="0.80701">
        <ele>181.7</ele>
        <time>2026-05-01T14:16:39.000Z</time>
      </trkpt>
      <trkpt lat="44.84416" lon="0.80702">
        <ele>181.3</ele>
        <time>2026-05-01T14:16:40.000Z</time>
      </trkpt>
      <trkpt lat="44.84415" lon="0.80703">
        <ele>181</ele>
        <time>2026-05-01T14:16:41.000Z</time>
      </trkpt>
      <trkpt lat="44.84413" lon="0.80704">
        <ele>180.4</ele>
        <time>2026-05-01T14:16:42.000Z</time>
      </trkpt>
      <trkpt lat="44.84412" lon="0.80706">
        <ele>180</ele>
        <time>2026-05-01T14:16:43.000Z</time>
      </trkpt>
      <trkpt lat="44.84411" lon="0.80707">
        <ele>179.7</ele>
        <time>2026-05-01T14:16:44.000Z</time>
      </trkpt>
      <trkpt lat="44.8441" lon="0.80708">
        <ele>179.4</ele>
        <time>2026-05-01T14:16:45.000Z</time>
      </trkpt>
      <trkpt lat="44.84409" lon="0.8071">
        <ele>179.5</ele>
        <time>2026-05-01T14:16:46.000Z</time>
      </trkpt>
      <trkpt lat="44.84408" lon="0.80711">
        <ele>179.3</ele>
        <time>2026-05-01T14:16:47.000Z</time>
      </trkpt>
      <trkpt lat="44.84407" lon="0.80714">
        <ele>179.7</ele>
        <time>2026-05-01T14:16:48.000Z</time>
      </trkpt>
      <trkpt lat="44.84406" lon="0.80715">
        <ele>179.6</ele>
        <time>2026-05-01T14:16:49.000Z</time>
      </trkpt>
      <trkpt lat="44.84406" lon="0.80717">
        <ele>180.1</ele>
        <time>2026-05-01T14:16:50.000Z</time>
      </trkpt>
      <trkpt lat="44.84405" lon="0.80719">
        <ele>180.5</ele>
        <time>2026-05-01T14:16:51.000Z</time>
      </trkpt>
      <trkpt lat="44.84405" lon="0.80721">
        <ele>180.4</ele>
        <time>2026-05-01T14:16:52.000Z</time>
      </trkpt>
      <trkpt lat="44.84404" lon="0.80722">
        <ele>181.6</ele>
        <time>2026-05-01T14:16:53.000Z</time>
      </trkpt>
      <trkpt lat="44.84404" lon="0.80724">
        <ele>181.1</ele>
        <time>2026-05-01T14:16:54.000Z</time>
      </trkpt>
      <trkpt lat="44.84403" lon="0.80726">
        <ele>181.1</ele>
        <time>2026-05-01T14:16:55.000Z</time>
      </trkpt>
      <trkpt lat="44.84403" lon="0.80728">
        <ele>180.7</ele>
        <time>2026-05-01T14:16:56.000Z</time>
      </trkpt>
      <trkpt lat="44.84402" lon="0.8073">
        <ele>180.7</ele>
        <time>2026-05-01T14:16:57.000Z</time>
      </trkpt>
      <trkpt lat="44.84402" lon="0.80732">
        <ele>180.2</ele>
        <time>2026-05-01T14:16:58.000Z</time>
      </trkpt>
      <trkpt lat="44.84401" lon="0.80734">
        <ele>180.9</ele>
        <time>2026-05-01T14:16:59.000Z</time>
      </trkpt>
      <trkpt lat="44.844" lon="0.80736">
        <ele>180.8</ele>
        <time>2026-05-01T14:17:00.000Z</time>
      </trkpt>
      <trkpt lat="44.84399" lon="0.80738">
        <ele>180.4</ele>
        <time>2026-05-01T14:17:01.000Z</time>
      </trkpt>
      <trkpt lat="44.84399" lon="0.8074">
        <ele>180.1</ele>
        <time>2026-05-01T14:17:02.000Z</time>
      </trkpt>
      <trkpt lat="44.84399" lon="0.80742">
        <ele>179.8</ele>
        <time>2026-05-01T14:17:03.000Z</time>
      </trkpt>
      <trkpt lat="44.84398" lon="0.80743">
        <ele>179.7</ele>
        <time>2026-05-01T14:17:04.000Z</time>
      </trkpt>
      <trkpt lat="44.84398" lon="0.80745">
        <ele>179.1</ele>
        <time>2026-05-01T14:17:05.000Z</time>
      </trkpt>
      <trkpt lat="44.84397" lon="0.80747">
        <ele>180.5</ele>
        <time>2026-05-01T14:17:06.000Z</time>
      </trkpt>
      <trkpt lat="44.84397" lon="0.80749">
        <ele>180.7</ele>
        <time>2026-05-01T14:17:07.000Z</time>
      </trkpt>
      <trkpt lat="44.84397" lon="0.80751">
        <ele>181.1</ele>
        <time>2026-05-01T14:17:08.000Z</time>
      </trkpt>
      <trkpt lat="44.84397" lon="0.80753">
        <ele>180.4</ele>
        <time>2026-05-01T14:17:09.000Z</time>
      </trkpt>
      <trkpt lat="44.84398" lon="0.80756">
        <ele>182.2</ele>
        <time>2026-05-01T14:17:10.000Z</time>
      </trkpt>
      <trkpt lat="44.84398" lon="0.80759">
        <ele>182</ele>
        <time>2026-05-01T14:17:11.000Z</time>
      </trkpt>
      <trkpt lat="44.84398" lon="0.80762">
        <ele>182.3</ele>
        <time>2026-05-01T14:17:12.000Z</time>
      </trkpt>
      <trkpt lat="44.84398" lon="0.80766">
        <ele>182.3</ele>
        <time>2026-05-01T14:17:13.000Z</time>
      </trkpt>
      <trkpt lat="44.84398" lon="0.80769">
        <ele>182.1</ele>
        <time>2026-05-01T14:17:14.000Z</time>
      </trkpt>
      <trkpt lat="44.84398" lon="0.80772">
        <ele>181.5</ele>
        <time>2026-05-01T14:17:15.000Z</time>
      </trkpt>
      <trkpt lat="44.84398" lon="0.80774">
        <ele>181.2</ele>
        <time>2026-05-01T14:17:16.000Z</time>
      </trkpt>
      <trkpt lat="44.84398" lon="0.80776">
        <ele>182.7</ele>
        <time>2026-05-01T14:17:17.000Z</time>
      </trkpt>
      <trkpt lat="44.84398" lon="0.80778">
        <ele>182.9</ele>
        <time>2026-05-01T14:17:18.000Z</time>
      </trkpt>
      <trkpt lat="44.84398" lon="0.8078">
        <ele>182.4</ele>
        <time>2026-05-01T14:17:19.000Z</time>
      </trkpt>
      <trkpt lat="44.84398" lon="0.80782">
        <ele>182.5</ele>
        <time>2026-05-01T14:17:20.000Z</time>
      </trkpt>
      <trkpt lat="44.84398" lon="0.80784">
        <ele>182.3</ele>
        <time>2026-05-01T14:17:21.000Z</time>
      </trkpt>
      <trkpt lat="44.84399" lon="0.80786">
        <ele>183.4</ele>
        <time>2026-05-01T14:17:22.000Z</time>
      </trkpt>
      <trkpt lat="44.84399" lon="0.80788">
        <ele>183.6</ele>
        <time>2026-05-01T14:17:23.000Z</time>
      </trkpt>
      <trkpt lat="44.84399" lon="0.80791">
        <ele>185.9</ele>
        <time>2026-05-01T14:17:24.000Z</time>
      </trkpt>
      <trkpt lat="44.844" lon="0.80794">
        <ele>186.7</ele>
        <time>2026-05-01T14:17:25.000Z</time>
      </trkpt>
      <trkpt lat="44.84401" lon="0.80797">
        <ele>186.7</ele>
        <time>2026-05-01T14:17:26.000Z</time>
      </trkpt>
      <trkpt lat="44.84402" lon="0.80799">
        <ele>186.6</ele>
        <time>2026-05-01T14:17:27.000Z</time>
      </trkpt>
      <trkpt lat="44.84403" lon="0.808">
        <ele>187.7</ele>
        <time>2026-05-01T14:17:28.000Z</time>
      </trkpt>
      <trkpt lat="44.84403" lon="0.80802">
        <ele>189.7</ele>
        <time>2026-05-01T14:17:29.000Z</time>
      </trkpt>
      <trkpt lat="44.84404" lon="0.80804">
        <ele>190.2</ele>
        <time>2026-05-01T14:17:30.000Z</time>
      </trkpt>
      <trkpt lat="44.84405" lon="0.80805">
        <ele>190.4</ele>
        <time>2026-05-01T14:17:31.000Z</time>
      </trkpt>
      <trkpt lat="44.84406" lon="0.80807">
        <ele>190.5</ele>
        <time>2026-05-01T14:17:32.000Z</time>
      </trkpt>
      <trkpt lat="44.84406" lon="0.80809">
        <ele>190.3</ele>
        <time>2026-05-01T14:17:33.000Z</time>
      </trkpt>
      <trkpt lat="44.84407" lon="0.8081">
        <ele>190</ele>
        <time>2026-05-01T14:17:34.000Z</time>
      </trkpt>
      <trkpt lat="44.84409" lon="0.80811">
        <ele>188.2</ele>
        <time>2026-05-01T14:17:35.000Z</time>
      </trkpt>
      <trkpt lat="44.8441" lon="0.80812">
        <ele>187.9</ele>
        <time>2026-05-01T14:17:36.000Z</time>
      </trkpt>
      <trkpt lat="44.8441" lon="0.80814">
        <ele>187.4</ele>
        <time>2026-05-01T14:17:37.000Z</time>
      </trkpt>
      <trkpt lat="44.84411" lon="0.80816">
        <ele>187.7</ele>
        <time>2026-05-01T14:17:38.000Z</time>
      </trkpt>
      <trkpt lat="44.84412" lon="0.80818">
        <ele>187.8</ele>
        <time>2026-05-01T14:17:39.000Z</time>
      </trkpt>
      <trkpt lat="44.84413" lon="0.8082">
        <ele>187.8</ele>
        <time>2026-05-01T14:17:40.000Z</time>
      </trkpt>
      <trkpt lat="44.84414" lon="0.80822">
        <ele>186.9</ele>
        <time>2026-05-01T14:17:41.000Z</time>
      </trkpt>
      <trkpt lat="44.84415" lon="0.80823">
        <ele>187.7</ele>
        <time>2026-05-01T14:17:42.000Z</time>
      </trkpt>
      <trkpt lat="44.84416" lon="0.80825">
        <ele>186.9</ele>
        <time>2026-05-01T14:17:43.000Z</time>
      </trkpt>
      <trkpt lat="44.84416" lon="0.80827">
        <ele>186</ele>
        <time>2026-05-01T14:17:44.000Z</time>
      </trkpt>
      <trkpt lat="44.84417" lon="0.8083">
        <ele>184.6</ele>
        <time>2026-05-01T14:17:45.000Z</time>
      </trkpt>
      <trkpt lat="44.84418" lon="0.80831">
        <ele>184.4</ele>
        <time>2026-05-01T14:17:46.000Z</time>
      </trkpt>
      <trkpt lat="44.84419" lon="0.80833">
        <ele>184.6</ele>
        <time>2026-05-01T14:17:47.000Z</time>
      </trkpt>
      <trkpt lat="44.8442" lon="0.80834">
        <ele>184.4</ele>
        <time>2026-05-01T14:17:48.000Z</time>
      </trkpt>
      <trkpt lat="44.84421" lon="0.80836">
        <ele>184.1</ele>
        <time>2026-05-01T14:17:49.000Z</time>
      </trkpt>
      <trkpt lat="44.84422" lon="0.80838">
        <ele>183.5</ele>
        <time>2026-05-01T14:17:50.000Z</time>
      </trkpt>
      <trkpt lat="44.84423" lon="0.80839">
        <ele>183.3</ele>
        <time>2026-05-01T14:17:51.000Z</time>
      </trkpt>
      <trkpt lat="44.84424" lon="0.80841">
        <ele>183.2</ele>
        <time>2026-05-01T14:17:52.000Z</time>
      </trkpt>
      <trkpt lat="44.84424" lon="0.80843">
        <ele>184</ele>
        <time>2026-05-01T14:17:53.000Z</time>
      </trkpt>
      <trkpt lat="44.84425" lon="0.80846">
        <ele>184</ele>
        <time>2026-05-01T14:17:54.000Z</time>
      </trkpt>
      <trkpt lat="44.84427" lon="0.80848">
        <ele>185.2</ele>
        <time>2026-05-01T14:17:55.000Z</time>
      </trkpt>
      <trkpt lat="44.84427" lon="0.80851">
        <ele>185.6</ele>
        <time>2026-05-01T14:17:56.000Z</time>
      </trkpt>
      <trkpt lat="44.84428" lon="0.80854">
        <ele>186.5</ele>
        <time>2026-05-01T14:17:57.000Z</time>
      </trkpt>
      <trkpt lat="44.84427" lon="0.80856">
        <ele>186.2</ele>
        <time>2026-05-01T14:17:58.000Z</time>
      </trkpt>
      <trkpt lat="44.84427" lon="0.80858">
        <ele>185.2</ele>
        <time>2026-05-01T14:17:59.000Z</time>
      </trkpt>
      <trkpt lat="44.84427" lon="0.80861">
        <ele>184.9</ele>
        <time>2026-05-01T14:18:00.000Z</time>
      </trkpt>
      <trkpt lat="44.84427" lon="0.80863">
        <ele>184</ele>
        <time>2026-05-01T14:18:01.000Z</time>
      </trkpt>
      <trkpt lat="44.84427" lon="0.80865">
        <ele>183.9</ele>
        <time>2026-05-01T14:18:02.000Z</time>
      </trkpt>
      <trkpt lat="44.84426" lon="0.80868">
        <ele>184.1</ele>
        <time>2026-05-01T14:18:03.000Z</time>
      </trkpt>
      <trkpt lat="44.84426" lon="0.8087">
        <ele>184.7</ele>
        <time>2026-05-01T14:18:04.000Z</time>
      </trkpt>
      <trkpt lat="44.84427" lon="0.80872">
        <ele>185.7</ele>
        <time>2026-05-01T14:18:05.000Z</time>
      </trkpt>
      <trkpt lat="44.84428" lon="0.80875">
        <ele>184.9</ele>
        <time>2026-05-01T14:18:06.000Z</time>
      </trkpt>
      <trkpt lat="44.84428" lon="0.80877">
        <ele>183.9</ele>
        <time>2026-05-01T14:18:07.000Z</time>
      </trkpt>
      <trkpt lat="44.84429" lon="0.8088">
        <ele>184.1</ele>
        <time>2026-05-01T14:18:08.000Z</time>
      </trkpt>
      <trkpt lat="44.84429" lon="0.80882">
        <ele>183.6</ele>
        <time>2026-05-01T14:18:09.000Z</time>
      </trkpt>
      <trkpt lat="44.8443" lon="0.80885">
        <ele>183.7</ele>
        <time>2026-05-01T14:18:10.000Z</time>
      </trkpt>
      <trkpt lat="44.8443" lon="0.80887">
        <ele>183.6</ele>
        <time>2026-05-01T14:18:11.000Z</time>
      </trkpt>
      <trkpt lat="44.84431" lon="0.80889">
        <ele>184.1</ele>
        <time>2026-05-01T14:18:12.000Z</time>
      </trkpt>
      <trkpt lat="44.84431" lon="0.80892">
        <ele>184.2</ele>
        <time>2026-05-01T14:18:13.000Z</time>
      </trkpt>
      <trkpt lat="44.84431" lon="0.80895">
        <ele>184.2</ele>
        <time>2026-05-01T14:18:14.000Z</time>
      </trkpt>
      <trkpt lat="44.84432" lon="0.80897">
        <ele>183.5</ele>
        <time>2026-05-01T14:18:15.000Z</time>
      </trkpt>
      <trkpt lat="44.84432" lon="0.809">
        <ele>184.9</ele>
        <time>2026-05-01T14:18:16.000Z</time>
      </trkpt>
      <trkpt lat="44.84432" lon="0.80902">
        <ele>184.1</ele>
        <time>2026-05-01T14:18:17.000Z</time>
      </trkpt>
      <trkpt lat="44.84433" lon="0.80904">
        <ele>183.5</ele>
        <time>2026-05-01T14:18:18.000Z</time>
      </trkpt>
      <trkpt lat="44.84433" lon="0.80906">
        <ele>183</ele>
        <time>2026-05-01T14:18:19.000Z</time>
      </trkpt>
      <trkpt lat="44.84433" lon="0.80908">
        <ele>183.6</ele>
        <time>2026-05-01T14:18:20.000Z</time>
      </trkpt>
      <trkpt lat="44.84434" lon="0.8091">
        <ele>183.4</ele>
        <time>2026-05-01T14:18:21.000Z</time>
      </trkpt>
      <trkpt lat="44.84434" lon="0.80912">
        <ele>183.3</ele>
        <time>2026-05-01T14:18:22.000Z</time>
      </trkpt>
      <trkpt lat="44.84435" lon="0.80914">
        <ele>184.7</ele>
        <time>2026-05-01T14:18:23.000Z</time>
      </trkpt>
      <trkpt lat="44.84435" lon="0.80916">
        <ele>185.2</ele>
        <time>2026-05-01T14:18:24.000Z</time>
      </trkpt>
      <trkpt lat="44.84435" lon="0.80919">
        <ele>185</ele>
        <time>2026-05-01T14:18:25.000Z</time>
      </trkpt>
      <trkpt lat="44.84435" lon="0.8092">
        <ele>184.6</ele>
        <time>2026-05-01T14:18:26.000Z</time>
      </trkpt>
      <trkpt lat="44.84435" lon="0.80922">
        <ele>184.2</ele>
        <time>2026-05-01T14:18:27.000Z</time>
      </trkpt>
      <trkpt lat="44.84435" lon="0.80923">
        <ele>184.1</ele>
        <time>2026-05-01T14:18:28.000Z</time>
      </trkpt>
      <trkpt lat="44.84435" lon="0.80924">
        <ele>183.7</ele>
        <time>2026-05-01T14:18:29.000Z</time>
      </trkpt>
      <trkpt lat="44.84434" lon="0.80925">
        <ele>183.7</ele>
        <time>2026-05-01T14:18:30.000Z</time>
      </trkpt>
      <trkpt lat="44.84433" lon="0.80926">
        <ele>183.5</ele>
        <time>2026-05-01T14:18:31.000Z</time>
      </trkpt>
      <trkpt lat="44.84432" lon="0.80928">
        <ele>183.4</ele>
        <time>2026-05-01T14:18:32.000Z</time>
      </trkpt>
      <trkpt lat="44.8443" lon="0.80929">
        <ele>183.4</ele>
        <time>2026-05-01T14:18:33.000Z</time>
      </trkpt>
      <trkpt lat="44.84429" lon="0.8093">
        <ele>183.2</ele>
        <time>2026-05-01T14:18:34.000Z</time>
      </trkpt>
      <trkpt lat="44.84428" lon="0.80932">
        <ele>183.1</ele>
        <time>2026-05-01T14:18:35.000Z</time>
      </trkpt>
      <trkpt lat="44.84427" lon="0.80933">
        <ele>183</ele>
        <time>2026-05-01T14:18:36.000Z</time>
      </trkpt>
      <trkpt lat="44.84426" lon="0.80935">
        <ele>182.8</ele>
        <time>2026-05-01T14:18:37.000Z</time>
      </trkpt>
      <trkpt lat="44.84425" lon="0.80937">
        <ele>182.5</ele>
        <time>2026-05-01T14:18:38.000Z</time>
      </trkpt>
      <trkpt lat="44.84424" lon="0.80938">
        <ele>182.5</ele>
        <time>2026-05-01T14:18:39.000Z</time>
      </trkpt>
      <trkpt lat="44.84423" lon="0.8094">
        <ele>182.5</ele>
        <time>2026-05-01T14:18:40.000Z</time>
      </trkpt>
      <trkpt lat="44.84422" lon="0.80942">
        <ele>182.2</ele>
        <time>2026-05-01T14:18:41.000Z</time>
      </trkpt>
      <trkpt lat="44.84421" lon="0.80944">
        <ele>182.2</ele>
        <time>2026-05-01T14:18:42.000Z</time>
      </trkpt>
      <trkpt lat="44.8442" lon="0.80946">
        <ele>182.4</ele>
        <time>2026-05-01T14:18:43.000Z</time>
      </trkpt>
      <trkpt lat="44.84419" lon="0.80947">
        <ele>182.3</ele>
        <time>2026-05-01T14:18:44.000Z</time>
      </trkpt>
      <trkpt lat="44.84418" lon="0.80949">
        <ele>182.2</ele>
        <time>2026-05-01T14:18:45.000Z</time>
      </trkpt>
      <trkpt lat="44.84416" lon="0.80951">
        <ele>182.3</ele>
        <time>2026-05-01T14:18:46.000Z</time>
      </trkpt>
      <trkpt lat="44.84415" lon="0.80952">
        <ele>182.3</ele>
        <time>2026-05-01T14:18:47.000Z</time>
      </trkpt>
      <trkpt lat="44.84414" lon="0.80954">
        <ele>182.3</ele>
        <time>2026-05-01T14:18:48.000Z</time>
      </trkpt>
      <trkpt lat="44.84413" lon="0.80956">
        <ele>182.2</ele>
        <time>2026-05-01T14:18:49.000Z</time>
      </trkpt>
      <trkpt lat="44.84412" lon="0.80957">
        <ele>182.2</ele>
        <time>2026-05-01T14:18:50.000Z</time>
      </trkpt>
      <trkpt lat="44.84411" lon="0.80959">
        <ele>182.2</ele>
        <time>2026-05-01T14:18:51.000Z</time>
      </trkpt>
      <trkpt lat="44.8441" lon="0.80961">
        <ele>182</ele>
        <time>2026-05-01T14:18:52.000Z</time>
      </trkpt>
      <trkpt lat="44.84409" lon="0.80962">
        <ele>182</ele>
        <time>2026-05-01T14:18:53.000Z</time>
      </trkpt>
      <trkpt lat="44.84408" lon="0.80964">
        <ele>182.1</ele>
        <time>2026-05-01T14:18:54.000Z</time>
      </trkpt>
      <trkpt lat="44.84407" lon="0.80966">
        <ele>181.8</ele>
        <time>2026-05-01T14:18:55.000Z</time>
      </trkpt>
      <trkpt lat="44.84406" lon="0.80967">
        <ele>181.7</ele>
        <time>2026-05-01T14:18:56.000Z</time>
      </trkpt>
      <trkpt lat="44.84404" lon="0.80969">
        <ele>181.7</ele>
        <time>2026-05-01T14:18:57.000Z</time>
      </trkpt>
      <trkpt lat="44.84402" lon="0.80969">
        <ele>182.1</ele>
        <time>2026-05-01T14:18:58.000Z</time>
      </trkpt>
      <trkpt lat="44.84402" lon="0.80972">
        <ele>180.8</ele>
        <time>2026-05-01T14:18:59.000Z</time>
      </trkpt>
      <trkpt lat="44.84401" lon="0.80974">
        <ele>180.8</ele>
        <time>2026-05-01T14:19:00.000Z</time>
      </trkpt>
      <trkpt lat="44.844" lon="0.80975">
        <ele>181.2</ele>
        <time>2026-05-01T14:19:01.000Z</time>
      </trkpt>
      <trkpt lat="44.844" lon="0.80977">
        <ele>181.4</ele>
        <time>2026-05-01T14:19:02.000Z</time>
      </trkpt>
      <trkpt lat="44.84399" lon="0.80979">
        <ele>181.5</ele>
        <time>2026-05-01T14:19:03.000Z</time>
      </trkpt>
      <trkpt lat="44.84397" lon="0.8098">
        <ele>181.4</ele>
        <time>2026-05-01T14:19:04.000Z</time>
      </trkpt>
      <trkpt lat="44.84396" lon="0.80982">
        <ele>181.3</ele>
        <time>2026-05-01T14:19:05.000Z</time>
      </trkpt>
      <trkpt lat="44.84395" lon="0.80983">
        <ele>180.9</ele>
        <time>2026-05-01T14:19:06.000Z</time>
      </trkpt>
      <trkpt lat="44.84393" lon="0.80985">
        <ele>181</ele>
        <time>2026-05-01T14:19:07.000Z</time>
      </trkpt>
      <trkpt lat="44.84392" lon="0.80987">
        <ele>181.4</ele>
        <time>2026-05-01T14:19:08.000Z</time>
      </trkpt>
      <trkpt lat="44.84391" lon="0.80988">
        <ele>181.4</ele>
        <time>2026-05-01T14:19:09.000Z</time>
      </trkpt>
      <trkpt lat="44.8439" lon="0.80989">
        <ele>181.9</ele>
        <time>2026-05-01T14:19:10.000Z</time>
      </trkpt>
      <trkpt lat="44.84389" lon="0.80991">
        <ele>181.5</ele>
        <time>2026-05-01T14:19:11.000Z</time>
      </trkpt>
      <trkpt lat="44.84388" lon="0.80992">
        <ele>181.4</ele>
        <time>2026-05-01T14:19:12.000Z</time>
      </trkpt>
      <trkpt lat="44.84386" lon="0.80994">
        <ele>181.1</ele>
        <time>2026-05-01T14:19:13.000Z</time>
      </trkpt>
      <trkpt lat="44.84385" lon="0.80995">
        <ele>181.1</ele>
        <time>2026-05-01T14:19:14.000Z</time>
      </trkpt>
      <trkpt lat="44.84384" lon="0.80996">
        <ele>181.5</ele>
        <time>2026-05-01T14:19:15.000Z</time>
      </trkpt>
      <trkpt lat="44.84382" lon="0.80997">
        <ele>181</ele>
        <time>2026-05-01T14:19:16.000Z</time>
      </trkpt>
      <trkpt lat="44.84381" lon="0.80998">
        <ele>180.9</ele>
        <time>2026-05-01T14:19:17.000Z</time>
      </trkpt>
      <trkpt lat="44.84379" lon="0.80999">
        <ele>181.3</ele>
        <time>2026-05-01T14:19:18.000Z</time>
      </trkpt>
      <trkpt lat="44.84378" lon="0.81">
        <ele>181.2</ele>
        <time>2026-05-01T14:19:19.000Z</time>
      </trkpt>
      <trkpt lat="44.84377" lon="0.81002">
        <ele>181.2</ele>
        <time>2026-05-01T14:19:20.000Z</time>
      </trkpt>
      <trkpt lat="44.84375" lon="0.81005">
        <ele>181</ele>
        <time>2026-05-01T14:19:21.000Z</time>
      </trkpt>
      <trkpt lat="44.84373" lon="0.81007">
        <ele>181.4</ele>
        <time>2026-05-01T14:19:22.000Z</time>
      </trkpt>
      <trkpt lat="44.84372" lon="0.81009">
        <ele>181.5</ele>
        <time>2026-05-01T14:19:23.000Z</time>
      </trkpt>
      <trkpt lat="44.8437" lon="0.8101">
        <ele>181.7</ele>
        <time>2026-05-01T14:19:24.000Z</time>
      </trkpt>
      <trkpt lat="44.84369" lon="0.81012">
        <ele>181.8</ele>
        <time>2026-05-01T14:19:25.000Z</time>
      </trkpt>
      <trkpt lat="44.84368" lon="0.81014">
        <ele>182</ele>
        <time>2026-05-01T14:19:26.000Z</time>
      </trkpt>
      <trkpt lat="44.84366" lon="0.81015">
        <ele>182.3</ele>
        <time>2026-05-01T14:19:27.000Z</time>
      </trkpt>
      <trkpt lat="44.84365" lon="0.81018">
        <ele>182.3</ele>
        <time>2026-05-01T14:19:28.000Z</time>
      </trkpt>
      <trkpt lat="44.84364" lon="0.81019">
        <ele>182.4</ele>
        <time>2026-05-01T14:19:29.000Z</time>
      </trkpt>
      <trkpt lat="44.84363" lon="0.81021">
        <ele>182.4</ele>
        <time>2026-05-01T14:19:30.000Z</time>
      </trkpt>
      <trkpt lat="44.84361" lon="0.81022">
        <ele>182.3</ele>
        <time>2026-05-01T14:19:31.000Z</time>
      </trkpt>
      <trkpt lat="44.8436" lon="0.81024">
        <ele>182.3</ele>
        <time>2026-05-01T14:19:32.000Z</time>
      </trkpt>
      <trkpt lat="44.84359" lon="0.81025">
        <ele>182.4</ele>
        <time>2026-05-01T14:19:33.000Z</time>
      </trkpt>
      <trkpt lat="44.84358" lon="0.81027">
        <ele>182.8</ele>
        <time>2026-05-01T14:19:34.000Z</time>
      </trkpt>
      <trkpt lat="44.84357" lon="0.81028">
        <ele>183.1</ele>
        <time>2026-05-01T14:19:35.000Z</time>
      </trkpt>
      <trkpt lat="44.84356" lon="0.81029">
        <ele>184</ele>
        <time>2026-05-01T14:19:36.000Z</time>
      </trkpt>
      <trkpt lat="44.84355" lon="0.8103">
        <ele>184</ele>
        <time>2026-05-01T14:19:37.000Z</time>
      </trkpt>
      <trkpt lat="44.84354" lon="0.81031">
        <ele>184.7</ele>
        <time>2026-05-01T14:19:38.000Z</time>
      </trkpt>
      <trkpt lat="44.84353" lon="0.81032">
        <ele>184.3</ele>
        <time>2026-05-01T14:19:39.000Z</time>
      </trkpt>
      <trkpt lat="44.84353" lon="0.81033">
        <ele>184.5</ele>
        <time>2026-05-01T14:19:40.000Z</time>
      </trkpt>
      <trkpt lat="44.84352" lon="0.81034">
        <ele>184.6</ele>
        <time>2026-05-01T14:19:41.000Z</time>
      </trkpt>
      <trkpt lat="44.84351" lon="0.81035">
        <ele>184.5</ele>
        <time>2026-05-01T14:19:42.000Z</time>
      </trkpt>
      <trkpt lat="44.8435" lon="0.81037">
        <ele>184.7</ele>
        <time>2026-05-01T14:19:43.000Z</time>
      </trkpt>
      <trkpt lat="44.84349" lon="0.81038">
        <ele>184.5</ele>
        <time>2026-05-01T14:19:44.000Z</time>
      </trkpt>
      <trkpt lat="44.84348" lon="0.81039">
        <ele>184.4</ele>
        <time>2026-05-01T14:19:45.000Z</time>
      </trkpt>
      <trkpt lat="44.84347" lon="0.8104">
        <ele>184.4</ele>
        <time>2026-05-01T14:19:46.000Z</time>
      </trkpt>
      <trkpt lat="44.84345" lon="0.81042">
        <ele>184.6</ele>
        <time>2026-05-01T14:19:47.000Z</time>
      </trkpt>
      <trkpt lat="44.84344" lon="0.81043">
        <ele>184.4</ele>
        <time>2026-05-01T14:19:48.000Z</time>
      </trkpt>
      <trkpt lat="44.84343" lon="0.81044">
        <ele>184.6</ele>
        <time>2026-05-01T14:19:49.000Z</time>
      </trkpt>
      <trkpt lat="44.84342" lon="0.81046">
        <ele>184.8</ele>
        <time>2026-05-01T14:19:50.000Z</time>
      </trkpt>
      <trkpt lat="44.84341" lon="0.81047">
        <ele>185</ele>
        <time>2026-05-01T14:19:51.000Z</time>
      </trkpt>
      <trkpt lat="44.84339" lon="0.81048">
        <ele>185.2</ele>
        <time>2026-05-01T14:19:52.000Z</time>
      </trkpt>
      <trkpt lat="44.84338" lon="0.8105">
        <ele>185.2</ele>
        <time>2026-05-01T14:19:53.000Z</time>
      </trkpt>
      <trkpt lat="44.84337" lon="0.81051">
        <ele>185.3</ele>
        <time>2026-05-01T14:19:54.000Z</time>
      </trkpt>
      <trkpt lat="44.84336" lon="0.81052">
        <ele>185.5</ele>
        <time>2026-05-01T14:19:55.000Z</time>
      </trkpt>
      <trkpt lat="44.84335" lon="0.81053">
        <ele>185.6</ele>
        <time>2026-05-01T14:19:56.000Z</time>
      </trkpt>
      <trkpt lat="44.84334" lon="0.81055">
        <ele>185.8</ele>
        <time>2026-05-01T14:19:57.000Z</time>
      </trkpt>
      <trkpt lat="44.84333" lon="0.81057">
        <ele>186</ele>
        <time>2026-05-01T14:19:58.000Z</time>
      </trkpt>
      <trkpt lat="44.84332" lon="0.81058">
        <ele>186.3</ele>
        <time>2026-05-01T14:19:59.000Z</time>
      </trkpt>
      <trkpt lat="44.84331" lon="0.8106">
        <ele>186.3</ele>
        <time>2026-05-01T14:20:00.000Z</time>
      </trkpt>
      <trkpt lat="44.8433" lon="0.81061">
        <ele>185.9</ele>
        <time>2026-05-01T14:20:01.000Z</time>
      </trkpt>
      <trkpt lat="44.84327" lon="0.8106">
        <ele>186.2</ele>
        <time>2026-05-01T14:20:02.000Z</time>
      </trkpt>
      <trkpt lat="44.84328" lon="0.81062">
        <ele>185.7</ele>
        <time>2026-05-01T14:20:03.000Z</time>
      </trkpt>
      <trkpt lat="44.84327" lon="0.81063">
        <ele>185.6</ele>
        <time>2026-05-01T14:20:04.000Z</time>
      </trkpt>
      <trkpt lat="44.84326" lon="0.81065">
        <ele>185.7</ele>
        <time>2026-05-01T14:20:05.000Z</time>
      </trkpt>
      <trkpt lat="44.84325" lon="0.81066">
        <ele>185.4</ele>
        <time>2026-05-01T14:20:06.000Z</time>
      </trkpt>
      <trkpt lat="44.84324" lon="0.81067">
        <ele>184.9</ele>
        <time>2026-05-01T14:20:07.000Z</time>
      </trkpt>
      <trkpt lat="44.84322" lon="0.81069">
        <ele>184.5</ele>
        <time>2026-05-01T14:20:08.000Z</time>
      </trkpt>
      <trkpt lat="44.84321" lon="0.81071">
        <ele>184.4</ele>
        <time>2026-05-01T14:20:09.000Z</time>
      </trkpt>
      <trkpt lat="44.84319" lon="0.81076">
        <ele>183.1</ele>
        <time>2026-05-01T14:20:10.000Z</time>
      </trkpt>
      <trkpt lat="44.84318" lon="0.81078">
        <ele>182.5</ele>
        <time>2026-05-01T14:20:11.000Z</time>
      </trkpt>
      <trkpt lat="44.84318" lon="0.81078">
        <ele>182.7</ele>
        <time>2026-05-01T14:20:12.000Z</time>
      </trkpt>
      <trkpt lat="44.84317" lon="0.81079">
        <ele>183</ele>
        <time>2026-05-01T14:20:13.000Z</time>
      </trkpt>
      <trkpt lat="44.84316" lon="0.81079">
        <ele>183.5</ele>
        <time>2026-05-01T14:20:14.000Z</time>
      </trkpt>
      <trkpt lat="44.84315" lon="0.8108">
        <ele>183.9</ele>
        <time>2026-05-01T14:20:15.000Z</time>
      </trkpt>
      <trkpt lat="44.84314" lon="0.81081">
        <ele>184.3</ele>
        <time>2026-05-01T14:20:16.000Z</time>
      </trkpt>
      <trkpt lat="44.84313" lon="0.81082">
        <ele>184</ele>
        <time>2026-05-01T14:20:17.000Z</time>
      </trkpt>
      <trkpt lat="44.84312" lon="0.81084">
        <ele>184.6</ele>
        <time>2026-05-01T14:20:18.000Z</time>
      </trkpt>
      <trkpt lat="44.84311" lon="0.81085">
        <ele>184.5</ele>
        <time>2026-05-01T14:20:19.000Z</time>
      </trkpt>
      <trkpt lat="44.8431" lon="0.81087">
        <ele>185</ele>
        <time>2026-05-01T14:20:20.000Z</time>
      </trkpt>
      <trkpt lat="44.84309" lon="0.81088">
        <ele>185.1</ele>
        <time>2026-05-01T14:20:21.000Z</time>
      </trkpt>
      <trkpt lat="44.84308" lon="0.81089">
        <ele>185.2</ele>
        <time>2026-05-01T14:20:22.000Z</time>
      </trkpt>
      <trkpt lat="44.84307" lon="0.81091">
        <ele>185.4</ele>
        <time>2026-05-01T14:20:23.000Z</time>
      </trkpt>
      <trkpt lat="44.84306" lon="0.81092">
        <ele>185.7</ele>
        <time>2026-05-01T14:20:24.000Z</time>
      </trkpt>
      <trkpt lat="44.84304" lon="0.81093">
        <ele>185.7</ele>
        <time>2026-05-01T14:20:25.000Z</time>
      </trkpt>
      <trkpt lat="44.84303" lon="0.81094">
        <ele>186.2</ele>
        <time>2026-05-01T14:20:26.000Z</time>
      </trkpt>
      <trkpt lat="44.84302" lon="0.81096">
        <ele>186.5</ele>
        <time>2026-05-01T14:20:27.000Z</time>
      </trkpt>
      <trkpt lat="44.84301" lon="0.81097">
        <ele>186.6</ele>
        <time>2026-05-01T14:20:28.000Z</time>
      </trkpt>
      <trkpt lat="44.843" lon="0.81098">
        <ele>187</ele>
        <time>2026-05-01T14:20:29.000Z</time>
      </trkpt>
      <trkpt lat="44.84299" lon="0.811">
        <ele>187.4</ele>
        <time>2026-05-01T14:20:30.000Z</time>
      </trkpt>
      <trkpt lat="44.84298" lon="0.81101">
        <ele>187.8</ele>
        <time>2026-05-01T14:20:31.000Z</time>
      </trkpt>
      <trkpt lat="44.84297" lon="0.81102">
        <ele>188.1</ele>
        <time>2026-05-01T14:20:32.000Z</time>
      </trkpt>
      <trkpt lat="44.84296" lon="0.81103">
        <ele>188.3</ele>
        <time>2026-05-01T14:20:33.000Z</time>
      </trkpt>
      <trkpt lat="44.84296" lon="0.81104">
        <ele>188.4</ele>
        <time>2026-05-01T14:20:34.000Z</time>
      </trkpt>
      <trkpt lat="44.84296" lon="0.81104">
        <ele>188.4</ele>
        <time>2026-05-01T14:20:35.000Z</time>
      </trkpt>
      <trkpt lat="44.84296" lon="0.81104">
        <ele>188.4</ele>
        <time>2026-05-01T14:20:36.000Z</time>
      </trkpt>
      <trkpt lat="44.84296" lon="0.81104">
        <ele>188.6</ele>
        <time>2026-05-01T14:20:37.000Z</time>
      </trkpt>
      <trkpt lat="44.84296" lon="0.81104">
        <ele>189</ele>
        <time>2026-05-01T14:20:38.000Z</time>
      </trkpt>
      <trkpt lat="44.84296" lon="0.81104">
        <ele>189</ele>
        <time>2026-05-01T14:20:39.000Z</time>
      </trkpt>
      <trkpt lat="44.84296" lon="0.81104">
        <ele>189</ele>
        <time>2026-05-01T14:20:40.000Z</time>
      </trkpt>
      <trkpt lat="44.84296" lon="0.81104">
        <ele>189</ele>
        <time>2026-05-01T14:20:41.000Z</time>
      </trkpt>
      <trkpt lat="44.84295" lon="0.81104">
        <ele>189</ele>
        <time>2026-05-01T14:20:42.000Z</time>
      </trkpt>
      <trkpt lat="44.84295" lon="0.81106">
        <ele>189</ele>
        <time>2026-05-01T14:20:43.000Z</time>
      </trkpt>
      <trkpt lat="44.84294" lon="0.81107">
        <ele>189</ele>
        <time>2026-05-01T14:20:44.000Z</time>
      </trkpt>
      <trkpt lat="44.84293" lon="0.81109">
        <ele>188.9</ele>
        <time>2026-05-01T14:20:45.000Z</time>
      </trkpt>
      <trkpt lat="44.84292" lon="0.81111">
        <ele>188.9</ele>
        <time>2026-05-01T14:20:46.000Z</time>
      </trkpt>
      <trkpt lat="44.84291" lon="0.81112">
        <ele>188.8</ele>
        <time>2026-05-01T14:20:47.000Z</time>
      </trkpt>
      <trkpt lat="44.8429" lon="0.81114">
        <ele>188.8</ele>
        <time>2026-05-01T14:20:48.000Z</time>
      </trkpt>
      <trkpt lat="44.8429" lon="0.81116">
        <ele>189</ele>
        <time>2026-05-01T14:20:49.000Z</time>
      </trkpt>
      <trkpt lat="44.84289" lon="0.81118">
        <ele>189</ele>
        <time>2026-05-01T14:20:50.000Z</time>
      </trkpt>
      <trkpt lat="44.84288" lon="0.8112">
        <ele>189</ele>
        <time>2026-05-01T14:20:51.000Z</time>
      </trkpt>
      <trkpt lat="44.84288" lon="0.81121">
        <ele>189.1</ele>
        <time>2026-05-01T14:20:52.000Z</time>
      </trkpt>
      <trkpt lat="44.84287" lon="0.81123">
        <ele>189.3</ele>
        <time>2026-05-01T14:20:53.000Z</time>
      </trkpt>
      <trkpt lat="44.84286" lon="0.81125">
        <ele>189.3</ele>
        <time>2026-05-01T14:20:54.000Z</time>
      </trkpt>
      <trkpt lat="44.84285" lon="0.81126">
        <ele>189.4</ele>
        <time>2026-05-01T14:20:55.000Z</time>
      </trkpt>
      <trkpt lat="44.84284" lon="0.81128">
        <ele>189.5</ele>
        <time>2026-05-01T14:20:56.000Z</time>
      </trkpt>
      <trkpt lat="44.84283" lon="0.8113">
        <ele>189.7</ele>
        <time>2026-05-01T14:20:57.000Z</time>
      </trkpt>
      <trkpt lat="44.84282" lon="0.81131">
        <ele>189.7</ele>
        <time>2026-05-01T14:20:58.000Z</time>
      </trkpt>
      <trkpt lat="44.84281" lon="0.81133">
        <ele>189.9</ele>
        <time>2026-05-01T14:20:59.000Z</time>
      </trkpt>
      <trkpt lat="44.8428" lon="0.81134">
        <ele>189.9</ele>
        <time>2026-05-01T14:21:00.000Z</time>
      </trkpt>
      <trkpt lat="44.84279" lon="0.81136">
        <ele>189.8</ele>
        <time>2026-05-01T14:21:01.000Z</time>
      </trkpt>
      <trkpt lat="44.84278" lon="0.81137">
        <ele>189.8</ele>
        <time>2026-05-01T14:21:02.000Z</time>
      </trkpt>
      <trkpt lat="44.84276" lon="0.81139">
        <ele>190</ele>
        <time>2026-05-01T14:21:03.000Z</time>
      </trkpt>
      <trkpt lat="44.84275" lon="0.8114">
        <ele>190</ele>
        <time>2026-05-01T14:21:04.000Z</time>
      </trkpt>
      <trkpt lat="44.84274" lon="0.81141">
        <ele>190</ele>
        <time>2026-05-01T14:21:05.000Z</time>
      </trkpt>
      <trkpt lat="44.84273" lon="0.81143">
        <ele>190.1</ele>
        <time>2026-05-01T14:21:06.000Z</time>
      </trkpt>
      <trkpt lat="44.84272" lon="0.81144">
        <ele>190.1</ele>
        <time>2026-05-01T14:21:07.000Z</time>
      </trkpt>
      <trkpt lat="44.84271" lon="0.81146">
        <ele>190.1</ele>
        <time>2026-05-01T14:21:08.000Z</time>
      </trkpt>
      <trkpt lat="44.84269" lon="0.81147">
        <ele>190.2</ele>
        <time>2026-05-01T14:21:09.000Z</time>
      </trkpt>
      <trkpt lat="44.84268" lon="0.81148">
        <ele>190.4</ele>
        <time>2026-05-01T14:21:10.000Z</time>
      </trkpt>
      <trkpt lat="44.84267" lon="0.8115">
        <ele>190.2</ele>
        <time>2026-05-01T14:21:11.000Z</time>
      </trkpt>
      <trkpt lat="44.84266" lon="0.81151">
        <ele>190.3</ele>
        <time>2026-05-01T14:21:12.000Z</time>
      </trkpt>
      <trkpt lat="44.84265" lon="0.81152">
        <ele>190.6</ele>
        <time>2026-05-01T14:21:13.000Z</time>
      </trkpt>
      <trkpt lat="44.84264" lon="0.81154">
        <ele>190.8</ele>
        <time>2026-05-01T14:21:14.000Z</time>
      </trkpt>
      <trkpt lat="44.84262" lon="0.81155">
        <ele>190.8</ele>
        <time>2026-05-01T14:21:15.000Z</time>
      </trkpt>
      <trkpt lat="44.84261" lon="0.81156">
        <ele>190.9</ele>
        <time>2026-05-01T14:21:16.000Z</time>
      </trkpt>
      <trkpt lat="44.8426" lon="0.81158">
        <ele>191.1</ele>
        <time>2026-05-01T14:21:17.000Z</time>
      </trkpt>
      <trkpt lat="44.84259" lon="0.81159">
        <ele>191.5</ele>
        <time>2026-05-01T14:21:18.000Z</time>
      </trkpt>
      <trkpt lat="44.84258" lon="0.81161">
        <ele>191.7</ele>
        <time>2026-05-01T14:21:19.000Z</time>
      </trkpt>
      <trkpt lat="44.84257" lon="0.81162">
        <ele>191.8</ele>
        <time>2026-05-01T14:21:20.000Z</time>
      </trkpt>
      <trkpt lat="44.84256" lon="0.81163">
        <ele>191.9</ele>
        <time>2026-05-01T14:21:21.000Z</time>
      </trkpt>
      <trkpt lat="44.84254" lon="0.81165">
        <ele>192.2</ele>
        <time>2026-05-01T14:21:22.000Z</time>
      </trkpt>
      <trkpt lat="44.84253" lon="0.81166">
        <ele>192.4</ele>
        <time>2026-05-01T14:21:23.000Z</time>
      </trkpt>
      <trkpt lat="44.84252" lon="0.81167">
        <ele>192.5</ele>
        <time>2026-05-01T14:21:24.000Z</time>
      </trkpt>
      <trkpt lat="44.8425" lon="0.81168">
        <ele>192.7</ele>
        <time>2026-05-01T14:21:25.000Z</time>
      </trkpt>
      <trkpt lat="44.84249" lon="0.81169">
        <ele>192.4</ele>
        <time>2026-05-01T14:21:26.000Z</time>
      </trkpt>
      <trkpt lat="44.84248" lon="0.81171">
        <ele>192.5</ele>
        <time>2026-05-01T14:21:27.000Z</time>
      </trkpt>
      <trkpt lat="44.84247" lon="0.81172">
        <ele>192.8</ele>
        <time>2026-05-01T14:21:28.000Z</time>
      </trkpt>
      <trkpt lat="44.84245" lon="0.81173">
        <ele>192.7</ele>
        <time>2026-05-01T14:21:29.000Z</time>
      </trkpt>
      <trkpt lat="44.84244" lon="0.81174">
        <ele>192.6</ele>
        <time>2026-05-01T14:21:30.000Z</time>
      </trkpt>
      <trkpt lat="44.84242" lon="0.81176">
        <ele>192.7</ele>
        <time>2026-05-01T14:21:31.000Z</time>
      </trkpt>
      <trkpt lat="44.84241" lon="0.81177">
        <ele>193.1</ele>
        <time>2026-05-01T14:21:32.000Z</time>
      </trkpt>
      <trkpt lat="44.8424" lon="0.81179">
        <ele>193.3</ele>
        <time>2026-05-01T14:21:33.000Z</time>
      </trkpt>
      <trkpt lat="44.84239" lon="0.8118">
        <ele>193.6</ele>
        <time>2026-05-01T14:21:34.000Z</time>
      </trkpt>
      <trkpt lat="44.84237" lon="0.81181">
        <ele>193.7</ele>
        <time>2026-05-01T14:21:35.000Z</time>
      </trkpt>
      <trkpt lat="44.84236" lon="0.81182">
        <ele>193.7</ele>
        <time>2026-05-01T14:21:36.000Z</time>
      </trkpt>
      <trkpt lat="44.84234" lon="0.81184">
        <ele>193.8</ele>
        <time>2026-05-01T14:21:37.000Z</time>
      </trkpt>
      <trkpt lat="44.84233" lon="0.81186">
        <ele>193.7</ele>
        <time>2026-05-01T14:21:38.000Z</time>
      </trkpt>
      <trkpt lat="44.84232" lon="0.81187">
        <ele>193.9</ele>
        <time>2026-05-01T14:21:39.000Z</time>
      </trkpt>
      <trkpt lat="44.8423" lon="0.81188">
        <ele>193.8</ele>
        <time>2026-05-01T14:21:40.000Z</time>
      </trkpt>
      <trkpt lat="44.84229" lon="0.8119">
        <ele>194.1</ele>
        <time>2026-05-01T14:21:41.000Z</time>
      </trkpt>
      <trkpt lat="44.84228" lon="0.81191">
        <ele>194.3</ele>
        <time>2026-05-01T14:21:42.000Z</time>
      </trkpt>
      <trkpt lat="44.84227" lon="0.81192">
        <ele>194.3</ele>
        <time>2026-05-01T14:21:43.000Z</time>
      </trkpt>
      <trkpt lat="44.84225" lon="0.81193">
        <ele>194.6</ele>
        <time>2026-05-01T14:21:44.000Z</time>
      </trkpt>
      <trkpt lat="44.84224" lon="0.81194">
        <ele>194.5</ele>
        <time>2026-05-01T14:21:45.000Z</time>
      </trkpt>
      <trkpt lat="44.84223" lon="0.81194">
        <ele>194.5</ele>
        <time>2026-05-01T14:21:46.000Z</time>
      </trkpt>
      <trkpt lat="44.84221" lon="0.81195">
        <ele>194.7</ele>
        <time>2026-05-01T14:21:47.000Z</time>
      </trkpt>
      <trkpt lat="44.8422" lon="0.81196">
        <ele>194.8</ele>
        <time>2026-05-01T14:21:48.000Z</time>
      </trkpt>
      <trkpt lat="44.84219" lon="0.81196">
        <ele>195.2</ele>
        <time>2026-05-01T14:21:49.000Z</time>
      </trkpt>
      <trkpt lat="44.84217" lon="0.81197">
        <ele>195.4</ele>
        <time>2026-05-01T14:21:50.000Z</time>
      </trkpt>
      <trkpt lat="44.84216" lon="0.81198">
        <ele>195.2</ele>
        <time>2026-05-01T14:21:51.000Z</time>
      </trkpt>
      <trkpt lat="44.84214" lon="0.81199">
        <ele>195.2</ele>
        <time>2026-05-01T14:21:52.000Z</time>
      </trkpt>
      <trkpt lat="44.84213" lon="0.812">
        <ele>195.1</ele>
        <time>2026-05-01T14:21:53.000Z</time>
      </trkpt>
      <trkpt lat="44.84212" lon="0.81201">
        <ele>194.9</ele>
        <time>2026-05-01T14:21:54.000Z</time>
      </trkpt>
      <trkpt lat="44.8421" lon="0.81202">
        <ele>195.2</ele>
        <time>2026-05-01T14:21:55.000Z</time>
      </trkpt>
      <trkpt lat="44.84209" lon="0.81203">
        <ele>195.7</ele>
        <time>2026-05-01T14:21:56.000Z</time>
      </trkpt>
      <trkpt lat="44.84208" lon="0.81204">
        <ele>195.5</ele>
        <time>2026-05-01T14:21:57.000Z</time>
      </trkpt>
      <trkpt lat="44.84207" lon="0.81205">
        <ele>195.4</ele>
        <time>2026-05-01T14:21:58.000Z</time>
      </trkpt>
      <trkpt lat="44.84206" lon="0.81206">
        <ele>195.5</ele>
        <time>2026-05-01T14:21:59.000Z</time>
      </trkpt>
      <trkpt lat="44.84204" lon="0.81207">
        <ele>195.5</ele>
        <time>2026-05-01T14:22:00.000Z</time>
      </trkpt>
      <trkpt lat="44.84203" lon="0.81208">
        <ele>194.7</ele>
        <time>2026-05-01T14:22:01.000Z</time>
      </trkpt>
      <trkpt lat="44.84202" lon="0.81209">
        <ele>194.8</ele>
        <time>2026-05-01T14:22:02.000Z</time>
      </trkpt>
      <trkpt lat="44.842" lon="0.8121">
        <ele>195</ele>
        <time>2026-05-01T14:22:03.000Z</time>
      </trkpt>
      <trkpt lat="44.842" lon="0.81211">
        <ele>196</ele>
        <time>2026-05-01T14:22:04.000Z</time>
      </trkpt>
      <trkpt lat="44.84198" lon="0.81212">
        <ele>196.1</ele>
        <time>2026-05-01T14:22:05.000Z</time>
      </trkpt>
      <trkpt lat="44.84197" lon="0.81214">
        <ele>195.9</ele>
        <time>2026-05-01T14:22:06.000Z</time>
      </trkpt>
      <trkpt lat="44.84196" lon="0.81215">
        <ele>195.7</ele>
        <time>2026-05-01T14:22:07.000Z</time>
      </trkpt>
      <trkpt lat="44.84194" lon="0.81216">
        <ele>195.7</ele>
        <time>2026-05-01T14:22:08.000Z</time>
      </trkpt>
      <trkpt lat="44.84193" lon="0.81218">
        <ele>195.7</ele>
        <time>2026-05-01T14:22:09.000Z</time>
      </trkpt>
      <trkpt lat="44.84192" lon="0.81219">
        <ele>196.4</ele>
        <time>2026-05-01T14:22:10.000Z</time>
      </trkpt>
      <trkpt lat="44.84191" lon="0.8122">
        <ele>196.2</ele>
        <time>2026-05-01T14:22:11.000Z</time>
      </trkpt>
      <trkpt lat="44.84189" lon="0.81221">
        <ele>196.3</ele>
        <time>2026-05-01T14:22:12.000Z</time>
      </trkpt>
      <trkpt lat="44.84188" lon="0.81223">
        <ele>195.9</ele>
        <time>2026-05-01T14:22:13.000Z</time>
      </trkpt>
      <trkpt lat="44.84187" lon="0.81224">
        <ele>195.7</ele>
        <time>2026-05-01T14:22:14.000Z</time>
      </trkpt>
      <trkpt lat="44.84186" lon="0.81225">
        <ele>195.6</ele>
        <time>2026-05-01T14:22:15.000Z</time>
      </trkpt>
      <trkpt lat="44.84185" lon="0.81226">
        <ele>195.3</ele>
        <time>2026-05-01T14:22:16.000Z</time>
      </trkpt>
      <trkpt lat="44.84184" lon="0.81227">
        <ele>195.3</ele>
        <time>2026-05-01T14:22:17.000Z</time>
      </trkpt>
      <trkpt lat="44.84182" lon="0.81228">
        <ele>195.1</ele>
        <time>2026-05-01T14:22:18.000Z</time>
      </trkpt>
      <trkpt lat="44.84181" lon="0.8123">
        <ele>194.5</ele>
        <time>2026-05-01T14:22:19.000Z</time>
      </trkpt>
      <trkpt lat="44.8418" lon="0.81231">
        <ele>194.7</ele>
        <time>2026-05-01T14:22:20.000Z</time>
      </trkpt>
      <trkpt lat="44.84178" lon="0.81232">
        <ele>194.8</ele>
        <time>2026-05-01T14:22:21.000Z</time>
      </trkpt>
      <trkpt lat="44.84177" lon="0.81233">
        <ele>194.8</ele>
        <time>2026-05-01T14:22:22.000Z</time>
      </trkpt>
      <trkpt lat="44.84176" lon="0.81234">
        <ele>194.5</ele>
        <time>2026-05-01T14:22:23.000Z</time>
      </trkpt>
      <trkpt lat="44.84175" lon="0.81235">
        <ele>194.5</ele>
        <time>2026-05-01T14:22:24.000Z</time>
      </trkpt>
      <trkpt lat="44.84174" lon="0.81236">
        <ele>196</ele>
        <time>2026-05-01T14:22:25.000Z</time>
      </trkpt>
      <trkpt lat="44.84172" lon="0.81237">
        <ele>196.7</ele>
        <time>2026-05-01T14:22:26.000Z</time>
      </trkpt>
      <trkpt lat="44.84171" lon="0.81238">
        <ele>196.7</ele>
        <time>2026-05-01T14:22:27.000Z</time>
      </trkpt>
      <trkpt lat="44.8417" lon="0.8124">
        <ele>196.5</ele>
        <time>2026-05-01T14:22:28.000Z</time>
      </trkpt>
      <trkpt lat="44.84169" lon="0.81241">
        <ele>196</ele>
        <time>2026-05-01T14:22:29.000Z</time>
      </trkpt>
      <trkpt lat="44.84168" lon="0.81242">
        <ele>196.1</ele>
        <time>2026-05-01T14:22:30.000Z</time>
      </trkpt>
      <trkpt lat="44.84166" lon="0.81243">
        <ele>195.9</ele>
        <time>2026-05-01T14:22:31.000Z</time>
      </trkpt>
      <trkpt lat="44.84165" lon="0.81243">
        <ele>196</ele>
        <time>2026-05-01T14:22:32.000Z</time>
      </trkpt>
      <trkpt lat="44.84164" lon="0.81244">
        <ele>196</ele>
        <time>2026-05-01T14:22:33.000Z</time>
      </trkpt>
      <trkpt lat="44.84162" lon="0.81244">
        <ele>195.6</ele>
        <time>2026-05-01T14:22:34.000Z</time>
      </trkpt>
      <trkpt lat="44.84161" lon="0.81245">
        <ele>195.4</ele>
        <time>2026-05-01T14:22:35.000Z</time>
      </trkpt>
      <trkpt lat="44.8416" lon="0.81245">
        <ele>195.3</ele>
        <time>2026-05-01T14:22:36.000Z</time>
      </trkpt>
      <trkpt lat="44.84158" lon="0.81245">
        <ele>195</ele>
        <time>2026-05-01T14:22:37.000Z</time>
      </trkpt>
      <trkpt lat="44.84156" lon="0.81245">
        <ele>196.3</ele>
        <time>2026-05-01T14:22:38.000Z</time>
      </trkpt>
      <trkpt lat="44.84155" lon="0.81245">
        <ele>197.1</ele>
        <time>2026-05-01T14:22:39.000Z</time>
      </trkpt>
      <trkpt lat="44.84153" lon="0.81245">
        <ele>197.8</ele>
        <time>2026-05-01T14:22:40.000Z</time>
      </trkpt>
      <trkpt lat="44.84151" lon="0.81244">
        <ele>198.3</ele>
        <time>2026-05-01T14:22:41.000Z</time>
      </trkpt>
      <trkpt lat="44.8415" lon="0.81243">
        <ele>198.4</ele>
        <time>2026-05-01T14:22:42.000Z</time>
      </trkpt>
      <trkpt lat="44.84149" lon="0.81242">
        <ele>198.2</ele>
        <time>2026-05-01T14:22:43.000Z</time>
      </trkpt>
      <trkpt lat="44.84148" lon="0.81241">
        <ele>197.6</ele>
        <time>2026-05-01T14:22:44.000Z</time>
      </trkpt>
      <trkpt lat="44.84147" lon="0.81239">
        <ele>197</ele>
        <time>2026-05-01T14:22:45.000Z</time>
      </trkpt>
      <trkpt lat="44.84146" lon="0.81238">
        <ele>196.9</ele>
        <time>2026-05-01T14:22:46.000Z</time>
      </trkpt>
      <trkpt lat="44.84145" lon="0.81237">
        <ele>197</ele>
        <time>2026-05-01T14:22:47.000Z</time>
      </trkpt>
      <trkpt lat="44.84144" lon="0.81236">
        <ele>196.8</ele>
        <time>2026-05-01T14:22:48.000Z</time>
      </trkpt>
      <trkpt lat="44.84143" lon="0.81234">
        <ele>196.5</ele>
        <time>2026-05-01T14:22:49.000Z</time>
      </trkpt>
      <trkpt lat="44.84142" lon="0.81234">
        <ele>196.5</ele>
        <time>2026-05-01T14:22:50.000Z</time>
      </trkpt>
      <trkpt lat="44.84141" lon="0.81232">
        <ele>196.3</ele>
        <time>2026-05-01T14:22:51.000Z</time>
      </trkpt>
      <trkpt lat="44.84139" lon="0.81231">
        <ele>197.2</ele>
        <time>2026-05-01T14:22:52.000Z</time>
      </trkpt>
      <trkpt lat="44.84137" lon="0.81229">
        <ele>198</ele>
        <time>2026-05-01T14:22:53.000Z</time>
      </trkpt>
      <trkpt lat="44.84136" lon="0.81227">
        <ele>198.7</ele>
        <time>2026-05-01T14:22:54.000Z</time>
      </trkpt>
      <trkpt lat="44.84135" lon="0.81226">
        <ele>198.4</ele>
        <time>2026-05-01T14:22:55.000Z</time>
      </trkpt>
      <trkpt lat="44.84134" lon="0.81224">
        <ele>198.2</ele>
        <time>2026-05-01T14:22:56.000Z</time>
      </trkpt>
      <trkpt lat="44.84133" lon="0.81223">
        <ele>199.5</ele>
        <time>2026-05-01T14:22:57.000Z</time>
      </trkpt>
      <trkpt lat="44.84132" lon="0.81221">
        <ele>200</ele>
        <time>2026-05-01T14:22:58.000Z</time>
      </trkpt>
      <trkpt lat="44.84131" lon="0.81219">
        <ele>199.9</ele>
        <time>2026-05-01T14:22:59.000Z</time>
      </trkpt>
      <trkpt lat="44.84129" lon="0.81218">
        <ele>199.3</ele>
        <time>2026-05-01T14:23:00.000Z</time>
      </trkpt>
      <trkpt lat="44.84128" lon="0.81217">
        <ele>198.9</ele>
        <time>2026-05-01T14:23:01.000Z</time>
      </trkpt>
      <trkpt lat="44.84127" lon="0.81215">
        <ele>198.5</ele>
        <time>2026-05-01T14:23:02.000Z</time>
      </trkpt>
      <trkpt lat="44.84126" lon="0.81214">
        <ele>198.5</ele>
        <time>2026-05-01T14:23:03.000Z</time>
      </trkpt>
      <trkpt lat="44.84125" lon="0.81213">
        <ele>197.4</ele>
        <time>2026-05-01T14:23:04.000Z</time>
      </trkpt>
      <trkpt lat="44.84123" lon="0.81212">
        <ele>197.4</ele>
        <time>2026-05-01T14:23:05.000Z</time>
      </trkpt>
      <trkpt lat="44.84122" lon="0.81211">
        <ele>198.5</ele>
        <time>2026-05-01T14:23:06.000Z</time>
      </trkpt>
      <trkpt lat="44.84121" lon="0.81209">
        <ele>198.4</ele>
        <time>2026-05-01T14:23:07.000Z</time>
      </trkpt>
      <trkpt lat="44.8412" lon="0.81208">
        <ele>198.1</ele>
        <time>2026-05-01T14:23:08.000Z</time>
      </trkpt>
      <trkpt lat="44.84119" lon="0.81207">
        <ele>197.5</ele>
        <time>2026-05-01T14:23:09.000Z</time>
      </trkpt>
      <trkpt lat="44.84118" lon="0.81206">
        <ele>197.3</ele>
        <time>2026-05-01T14:23:10.000Z</time>
      </trkpt>
      <trkpt lat="44.84117" lon="0.81205">
        <ele>196.9</ele>
        <time>2026-05-01T14:23:11.000Z</time>
      </trkpt>
      <trkpt lat="44.84115" lon="0.81204">
        <ele>196.3</ele>
        <time>2026-05-01T14:23:12.000Z</time>
      </trkpt>
      <trkpt lat="44.84114" lon="0.81204">
        <ele>195.4</ele>
        <time>2026-05-01T14:23:13.000Z</time>
      </trkpt>
      <trkpt lat="44.84112" lon="0.81203">
        <ele>194.9</ele>
        <time>2026-05-01T14:23:14.000Z</time>
      </trkpt>
      <trkpt lat="44.84111" lon="0.81202">
        <ele>194.7</ele>
        <time>2026-05-01T14:23:15.000Z</time>
      </trkpt>
      <trkpt lat="44.84109" lon="0.81202">
        <ele>194.3</ele>
        <time>2026-05-01T14:23:16.000Z</time>
      </trkpt>
      <trkpt lat="44.84107" lon="0.81201">
        <ele>193.4</ele>
        <time>2026-05-01T14:23:17.000Z</time>
      </trkpt>
      <trkpt lat="44.84106" lon="0.81201">
        <ele>193</ele>
        <time>2026-05-01T14:23:18.000Z</time>
      </trkpt>
      <trkpt lat="44.84104" lon="0.812">
        <ele>192.3</ele>
        <time>2026-05-01T14:23:19.000Z</time>
      </trkpt>
      <trkpt lat="44.84103" lon="0.81199">
        <ele>192</ele>
        <time>2026-05-01T14:23:20.000Z</time>
      </trkpt>
      <trkpt lat="44.84101" lon="0.81198">
        <ele>192.3</ele>
        <time>2026-05-01T14:23:21.000Z</time>
      </trkpt>
      <trkpt lat="44.84099" lon="0.81197">
        <ele>192.1</ele>
        <time>2026-05-01T14:23:22.000Z</time>
      </trkpt>
      <trkpt lat="44.84098" lon="0.81197">
        <ele>191.9</ele>
        <time>2026-05-01T14:23:23.000Z</time>
      </trkpt>
      <trkpt lat="44.84096" lon="0.81196">
        <ele>192.2</ele>
        <time>2026-05-01T14:23:24.000Z</time>
      </trkpt>
      <trkpt lat="44.84094" lon="0.81196">
        <ele>192.5</ele>
        <time>2026-05-01T14:23:25.000Z</time>
      </trkpt>
      <trkpt lat="44.84092" lon="0.81196">
        <ele>192</ele>
        <time>2026-05-01T14:23:26.000Z</time>
      </trkpt>
      <trkpt lat="44.8409" lon="0.81196">
        <ele>191.9</ele>
        <time>2026-05-01T14:23:27.000Z</time>
      </trkpt>
      <trkpt lat="44.84089" lon="0.81196">
        <ele>191.6</ele>
        <time>2026-05-01T14:23:28.000Z</time>
      </trkpt>
      <trkpt lat="44.84087" lon="0.81197">
        <ele>191.4</ele>
        <time>2026-05-01T14:23:29.000Z</time>
      </trkpt>
      <trkpt lat="44.84086" lon="0.81197">
        <ele>191.4</ele>
        <time>2026-05-01T14:23:30.000Z</time>
      </trkpt>
      <trkpt lat="44.84084" lon="0.81198">
        <ele>191.2</ele>
        <time>2026-05-01T14:23:31.000Z</time>
      </trkpt>
      <trkpt lat="44.84083" lon="0.81199">
        <ele>190.7</ele>
        <time>2026-05-01T14:23:32.000Z</time>
      </trkpt>
      <trkpt lat="44.84082" lon="0.812">
        <ele>190.4</ele>
        <time>2026-05-01T14:23:33.000Z</time>
      </trkpt>
      <trkpt lat="44.8408" lon="0.81202">
        <ele>190.1</ele>
        <time>2026-05-01T14:23:34.000Z</time>
      </trkpt>
      <trkpt lat="44.84079" lon="0.81203">
        <ele>190.1</ele>
        <time>2026-05-01T14:23:35.000Z</time>
      </trkpt>
      <trkpt lat="44.84078" lon="0.81204">
        <ele>189.8</ele>
        <time>2026-05-01T14:23:36.000Z</time>
      </trkpt>
      <trkpt lat="44.84076" lon="0.81205">
        <ele>189.7</ele>
        <time>2026-05-01T14:23:37.000Z</time>
      </trkpt>
      <trkpt lat="44.84075" lon="0.81206">
        <ele>189.6</ele>
        <time>2026-05-01T14:23:38.000Z</time>
      </trkpt>
      <trkpt lat="44.84074" lon="0.81207">
        <ele>189.5</ele>
        <time>2026-05-01T14:23:39.000Z</time>
      </trkpt>
      <trkpt lat="44.84072" lon="0.81208">
        <ele>189.1</ele>
        <time>2026-05-01T14:23:40.000Z</time>
      </trkpt>
      <trkpt lat="44.84071" lon="0.81209">
        <ele>188.9</ele>
        <time>2026-05-01T14:23:41.000Z</time>
      </trkpt>
      <trkpt lat="44.8407" lon="0.8121">
        <ele>188.9</ele>
        <time>2026-05-01T14:23:42.000Z</time>
      </trkpt>
      <trkpt lat="44.84069" lon="0.81211">
        <ele>189</ele>
        <time>2026-05-01T14:23:43.000Z</time>
      </trkpt>
      <trkpt lat="44.84067" lon="0.81212">
        <ele>189</ele>
        <time>2026-05-01T14:23:44.000Z</time>
      </trkpt>
      <trkpt lat="44.84066" lon="0.81213">
        <ele>189</ele>
        <time>2026-05-01T14:23:45.000Z</time>
      </trkpt>
      <trkpt lat="44.84065" lon="0.81214">
        <ele>189.2</ele>
        <time>2026-05-01T14:23:46.000Z</time>
      </trkpt>
      <trkpt lat="44.84064" lon="0.81216">
        <ele>189.2</ele>
        <time>2026-05-01T14:23:47.000Z</time>
      </trkpt>
      <trkpt lat="44.84062" lon="0.81217">
        <ele>189.1</ele>
        <time>2026-05-01T14:23:48.000Z</time>
      </trkpt>
      <trkpt lat="44.84061" lon="0.81218">
        <ele>189.3</ele>
        <time>2026-05-01T14:23:49.000Z</time>
      </trkpt>
      <trkpt lat="44.8406" lon="0.81219">
        <ele>189.3</ele>
        <time>2026-05-01T14:23:50.000Z</time>
      </trkpt>
      <trkpt lat="44.84059" lon="0.8122">
        <ele>189.1</ele>
        <time>2026-05-01T14:23:51.000Z</time>
      </trkpt>
      <trkpt lat="44.84057" lon="0.81222">
        <ele>189.3</ele>
        <time>2026-05-01T14:23:52.000Z</time>
      </trkpt>
      <trkpt lat="44.84056" lon="0.81223">
        <ele>189.3</ele>
        <time>2026-05-01T14:23:53.000Z</time>
      </trkpt>
      <trkpt lat="44.84055" lon="0.81225">
        <ele>189.6</ele>
        <time>2026-05-01T14:23:54.000Z</time>
      </trkpt>
      <trkpt lat="44.84054" lon="0.81226">
        <ele>189.5</ele>
        <time>2026-05-01T14:23:55.000Z</time>
      </trkpt>
      <trkpt lat="44.84052" lon="0.81227">
        <ele>190.1</ele>
        <time>2026-05-01T14:23:56.000Z</time>
      </trkpt>
      <trkpt lat="44.8405" lon="0.81227">
        <ele>191</ele>
        <time>2026-05-01T14:23:57.000Z</time>
      </trkpt>
      <trkpt lat="44.84049" lon="0.81227">
        <ele>191</ele>
        <time>2026-05-01T14:23:58.000Z</time>
      </trkpt>
      <trkpt lat="44.84049" lon="0.81227">
        <ele>190</ele>
        <time>2026-05-01T14:23:59.000Z</time>
      </trkpt>
      <trkpt lat="44.84049" lon="0.81227">
        <ele>190</ele>
        <time>2026-05-01T14:24:00.000Z</time>
      </trkpt>
      <trkpt lat="44.84049" lon="0.81227">
        <ele>190</ele>
        <time>2026-05-01T14:24:01.000Z</time>
      </trkpt>
      <trkpt lat="44.84049" lon="0.81227">
        <ele>190</ele>
        <time>2026-05-01T14:24:02.000Z</time>
      </trkpt>
      <trkpt lat="44.84049" lon="0.81227">
        <ele>190</ele>
        <time>2026-05-01T14:24:03.000Z</time>
      </trkpt>
      <trkpt lat="44.84049" lon="0.81227">
        <ele>190</ele>
        <time>2026-05-01T14:24:04.000Z</time>
      </trkpt>
      <trkpt lat="44.84049" lon="0.81227">
        <ele>190</ele>
        <time>2026-05-01T14:24:05.000Z</time>
      </trkpt>
      <trkpt lat="44.84049" lon="0.81227">
        <ele>190</ele>
        <time>2026-05-01T14:24:06.000Z</time>
      </trkpt>
      <trkpt lat="44.84049" lon="0.81227">
        <ele>190</ele>
        <time>2026-05-01T14:24:07.000Z</time>
      </trkpt>
      <trkpt lat="44.84049" lon="0.81227">
        <ele>190</ele>
        <time>2026-05-01T14:24:08.000Z</time>
      </trkpt>
      <trkpt lat="44.84049" lon="0.81227">
        <ele>190</ele>
        <time>2026-05-01T14:24:09.000Z</time>
      </trkpt>
      <trkpt lat="44.8405" lon="0.81227">
        <ele>189.5</ele>
        <time>2026-05-01T14:24:10.000Z</time>
      </trkpt>
      <trkpt lat="44.8405" lon="0.81227">
        <ele>189.4</ele>
        <time>2026-05-01T14:24:11.000Z</time>
      </trkpt>
      <trkpt lat="44.8405" lon="0.81228">
        <ele>189.6</ele>
        <time>2026-05-01T14:24:12.000Z</time>
      </trkpt>
      <trkpt lat="44.8405" lon="0.81228">
        <ele>189.6</ele>
        <time>2026-05-01T14:24:13.000Z</time>
      </trkpt>
      <trkpt lat="44.8405" lon="0.81228">
        <ele>189.6</ele>
        <time>2026-05-01T14:24:14.000Z</time>
      </trkpt>
      <trkpt lat="44.8405" lon="0.81228">
        <ele>189.6</ele>
        <time>2026-05-01T14:24:15.000Z</time>
      </trkpt>
      <trkpt lat="44.8405" lon="0.81227">
        <ele>189.6</ele>
        <time>2026-05-01T14:24:16.000Z</time>
      </trkpt>
      <trkpt lat="44.8405" lon="0.81227">
        <ele>189.6</ele>
        <time>2026-05-01T14:24:17.000Z</time>
      </trkpt>
      <trkpt lat="44.8405" lon="0.81227">
        <ele>189.6</ele>
        <time>2026-05-01T14:24:18.000Z</time>
      </trkpt>
      <trkpt lat="44.8405" lon="0.81227">
        <ele>189.6</ele>
        <time>2026-05-01T14:24:19.000Z</time>
      </trkpt>
      <trkpt lat="44.8405" lon="0.81227">
        <ele>189.6</ele>
        <time>2026-05-01T14:24:20.000Z</time>
      </trkpt>
      <trkpt lat="44.8405" lon="0.81227">
        <ele>189.6</ele>
        <time>2026-05-01T14:24:21.000Z</time>
      </trkpt>
      <trkpt lat="44.84051" lon="0.81227">
        <ele>189.3</ele>
        <time>2026-05-01T14:24:22.000Z</time>
      </trkpt>
      <trkpt lat="44.84051" lon="0.81226">
        <ele>189.5</ele>
        <time>2026-05-01T14:24:23.000Z</time>
      </trkpt>
      <trkpt lat="44.84051" lon="0.81226">
        <ele>189.5</ele>
        <time>2026-05-01T14:24:24.000Z</time>
      </trkpt>
      <trkpt lat="44.84051" lon="0.81226">
        <ele>189.5</ele>
        <time>2026-05-01T14:24:25.000Z</time>
      </trkpt>
      <trkpt lat="44.84051" lon="0.81226">
        <ele>189.5</ele>
        <time>2026-05-01T14:24:26.000Z</time>
      </trkpt>
      <trkpt lat="44.84051" lon="0.81226">
        <ele>189.5</ele>
        <time>2026-05-01T14:24:27.000Z</time>
      </trkpt>
      <trkpt lat="44.84051" lon="0.81226">
        <ele>189.5</ele>
        <time>2026-05-01T14:24:28.000Z</time>
      </trkpt>
      <trkpt lat="44.84052" lon="0.81226">
        <ele>189.5</ele>
        <time>2026-05-01T14:24:29.000Z</time>
      </trkpt>
      <trkpt lat="44.84052" lon="0.81226">
        <ele>190.1</ele>
        <time>2026-05-01T14:24:30.000Z</time>
      </trkpt>
      <trkpt lat="44.84052" lon="0.81225">
        <ele>189.8</ele>
        <time>2026-05-01T14:24:31.000Z</time>
      </trkpt>
      <trkpt lat="44.84052" lon="0.81225">
        <ele>189.8</ele>
        <time>2026-05-01T14:24:32.000Z</time>
      </trkpt>
      <trkpt lat="44.84052" lon="0.81225">
        <ele>189.5</ele>
        <time>2026-05-01T14:24:33.000Z</time>
      </trkpt>
      <trkpt lat="44.84052" lon="0.81225">
        <ele>189.5</ele>
        <time>2026-05-01T14:24:34.000Z</time>
      </trkpt>
      <trkpt lat="44.84052" lon="0.81225">
        <ele>189.5</ele>
        <time>2026-05-01T14:24:35.000Z</time>
      </trkpt>
      <trkpt lat="44.84052" lon="0.81223">
        <ele>189.7</ele>
        <time>2026-05-01T14:24:36.000Z</time>
      </trkpt>
      <trkpt lat="44.84051" lon="0.81221">
        <ele>190.9</ele>
        <time>2026-05-01T14:24:37.000Z</time>
      </trkpt>
      <trkpt lat="44.84051" lon="0.81221">
        <ele>190.6</ele>
        <time>2026-05-01T14:24:38.000Z</time>
      </trkpt>
      <trkpt lat="44.84052" lon="0.81222">
        <ele>190.6</ele>
        <time>2026-05-01T14:24:39.000Z</time>
      </trkpt>
      <trkpt lat="44.84052" lon="0.81222">
        <ele>190.6</ele>
        <time>2026-05-01T14:24:40.000Z</time>
      </trkpt>
      <trkpt lat="44.84052" lon="0.81222">
        <ele>190.6</ele>
        <time>2026-05-01T14:24:41.000Z</time>
      </trkpt>
      <trkpt lat="44.84052" lon="0.81222">
        <ele>190.6</ele>
        <time>2026-05-01T14:24:42.000Z</time>
      </trkpt>
      <trkpt lat="44.84052" lon="0.81222">
        <ele>190.6</ele>
        <time>2026-05-01T14:24:43.000Z</time>
      </trkpt>
      <trkpt lat="44.84052" lon="0.81222">
        <ele>190.6</ele>
        <time>2026-05-01T14:24:44.000Z</time>
      </trkpt>
      <trkpt lat="44.84052" lon="0.81222">
        <ele>190.6</ele>
        <time>2026-05-01T14:24:45.000Z</time>
      </trkpt>
      <trkpt lat="44.84052" lon="0.81222">
        <ele>190.6</ele>
        <time>2026-05-01T14:24:46.000Z</time>
      </trkpt>
      <trkpt lat="44.84052" lon="0.81222">
        <ele>190.6</ele>
        <time>2026-05-01T14:24:47.000Z</time>
      </trkpt>
      <trkpt lat="44.84052" lon="0.81222">
        <ele>190.7</ele>
        <time>2026-05-01T14:24:48.000Z</time>
      </trkpt>
      <trkpt lat="44.84052" lon="0.81222">
        <ele>190.7</ele>
        <time>2026-05-01T14:24:49.000Z</time>
      </trkpt>
      <trkpt lat="44.84052" lon="0.81222">
        <ele>190.7</ele>
        <time>2026-05-01T14:24:50.000Z</time>
      </trkpt>
      <trkpt lat="44.84053" lon="0.81222">
        <ele>190.7</ele>
        <time>2026-05-01T14:24:51.000Z</time>
      </trkpt>
      <trkpt lat="44.84053" lon="0.81222">
        <ele>190.7</ele>
        <time>2026-05-01T14:24:52.000Z</time>
      </trkpt>
      <trkpt lat="44.84053" lon="0.81222">
        <ele>190.7</ele>
        <time>2026-05-01T14:24:53.000Z</time>
      </trkpt>
      <trkpt lat="44.84053" lon="0.81222">
        <ele>190.7</ele>
        <time>2026-05-01T14:24:54.000Z</time>
      </trkpt>
      <trkpt lat="44.84053" lon="0.81222">
        <ele>190.7</ele>
        <time>2026-05-01T14:24:55.000Z</time>
      </trkpt>
      <trkpt lat="44.84053" lon="0.81222">
        <ele>190.5</ele>
        <time>2026-05-01T14:24:56.000Z</time>
      </trkpt>
      <trkpt lat="44.84053" lon="0.81222">
        <ele>190.4</ele>
        <time>2026-05-01T14:24:57.000Z</time>
      </trkpt>
      <trkpt lat="44.84053" lon="0.81222">
        <ele>190.3</ele>
        <time>2026-05-01T14:24:58.000Z</time>
      </trkpt>
      <trkpt lat="44.84053" lon="0.81222">
        <ele>190.4</ele>
        <time>2026-05-01T14:24:59.000Z</time>
      </trkpt>
      <trkpt lat="44.84053" lon="0.81222">
        <ele>190.4</ele>
        <time>2026-05-01T14:25:00.000Z</time>
      </trkpt>
      <trkpt lat="44.84053" lon="0.81222">
        <ele>190.4</ele>
        <time>2026-05-01T14:25:01.000Z</time>
      </trkpt>
      <trkpt lat="44.84054" lon="0.81222">
        <ele>190.4</ele>
        <time>2026-05-01T14:25:02.000Z</time>
      </trkpt>
      <trkpt lat="44.84054" lon="0.81222">
        <ele>190.6</ele>
        <time>2026-05-01T14:25:03.000Z</time>
      </trkpt>
      <trkpt lat="44.84053" lon="0.81222">
        <ele>190.7</ele>
        <time>2026-05-01T14:25:04.000Z</time>
      </trkpt>
      <trkpt lat="44.84053" lon="0.81222">
        <ele>190.7</ele>
        <time>2026-05-01T14:25:05.000Z</time>
      </trkpt>
      <trkpt lat="44.84053" lon="0.81222">
        <ele>190.7</ele>
        <time>2026-05-01T14:25:06.000Z</time>
      </trkpt>
      <trkpt lat="44.84053" lon="0.81223">
        <ele>190.8</ele>
        <time>2026-05-01T14:25:07.000Z</time>
      </trkpt>
      <trkpt lat="44.84053" lon="0.81224">
        <ele>190.6</ele>
        <time>2026-05-01T14:25:08.000Z</time>
      </trkpt>
      <trkpt lat="44.84053" lon="0.81225">
        <ele>190.6</ele>
        <time>2026-05-01T14:25:09.000Z</time>
      </trkpt>
      <trkpt lat="44.84052" lon="0.81227">
        <ele>190.8</ele>
        <time>2026-05-01T14:25:10.000Z</time>
      </trkpt>
      <trkpt lat="44.84052" lon="0.81229">
        <ele>190.6</ele>
        <time>2026-05-01T14:25:11.000Z</time>
      </trkpt>
      <trkpt lat="44.84051" lon="0.81231">
        <ele>190.7</ele>
        <time>2026-05-01T14:25:12.000Z</time>
      </trkpt>
      <trkpt lat="44.8405" lon="0.81233">
        <ele>190.6</ele>
        <time>2026-05-01T14:25:13.000Z</time>
      </trkpt>
      <trkpt lat="44.8405" lon="0.81235">
        <ele>190.6</ele>
        <time>2026-05-01T14:25:14.000Z</time>
      </trkpt>
      <trkpt lat="44.84049" lon="0.81237">
        <ele>190.8</ele>
        <time>2026-05-01T14:25:15.000Z</time>
      </trkpt>
      <trkpt lat="44.84048" lon="0.81239">
        <ele>190.9</ele>
        <time>2026-05-01T14:25:16.000Z</time>
      </trkpt>
      <trkpt lat="44.84047" lon="0.81241">
        <ele>190.7</ele>
        <time>2026-05-01T14:25:17.000Z</time>
      </trkpt>
      <trkpt lat="44.84046" lon="0.81243">
        <ele>190.4</ele>
        <time>2026-05-01T14:25:18.000Z</time>
      </trkpt>
      <trkpt lat="44.84045" lon="0.81245">
        <ele>190</ele>
        <time>2026-05-01T14:25:19.000Z</time>
      </trkpt>
      <trkpt lat="44.84044" lon="0.81247">
        <ele>190.3</ele>
        <time>2026-05-01T14:25:20.000Z</time>
      </trkpt>
      <trkpt lat="44.84044" lon="0.81249">
        <ele>190.7</ele>
        <time>2026-05-01T14:25:21.000Z</time>
      </trkpt>
      <trkpt lat="44.84043" lon="0.81251">
        <ele>190.9</ele>
        <time>2026-05-01T14:25:22.000Z</time>
      </trkpt>
      <trkpt lat="44.84043" lon="0.81254">
        <ele>191.1</ele>
        <time>2026-05-01T14:25:23.000Z</time>
      </trkpt>
      <trkpt lat="44.84043" lon="0.81256">
        <ele>191.7</ele>
        <time>2026-05-01T14:25:24.000Z</time>
      </trkpt>
      <trkpt lat="44.84041" lon="0.81259">
        <ele>192.4</ele>
        <time>2026-05-01T14:25:25.000Z</time>
      </trkpt>
      <trkpt lat="44.8404" lon="0.81262">
        <ele>193.4</ele>
        <time>2026-05-01T14:25:26.000Z</time>
      </trkpt>
      <trkpt lat="44.84039" lon="0.81265">
        <ele>194.6</ele>
        <time>2026-05-01T14:25:27.000Z</time>
      </trkpt>
      <trkpt lat="44.84038" lon="0.81268">
        <ele>195.2</ele>
        <time>2026-05-01T14:25:28.000Z</time>
      </trkpt>
      <trkpt lat="44.84038" lon="0.81271">
        <ele>196.1</ele>
        <time>2026-05-01T14:25:29.000Z</time>
      </trkpt>
      <trkpt lat="44.84037" lon="0.81275">
        <ele>196.7</ele>
        <time>2026-05-01T14:25:30.000Z</time>
      </trkpt>
      <trkpt lat="44.84036" lon="0.81279">
        <ele>197.2</ele>
        <time>2026-05-01T14:25:31.000Z</time>
      </trkpt>
      <trkpt lat="44.84035" lon="0.81283">
        <ele>197.7</ele>
        <time>2026-05-01T14:25:32.000Z</time>
      </trkpt>
      <trkpt lat="44.84034" lon="0.81287">
        <ele>198.1</ele>
        <time>2026-05-01T14:25:33.000Z</time>
      </trkpt>
      <trkpt lat="44.84032" lon="0.81291">
        <ele>197.2</ele>
        <time>2026-05-01T14:25:34.000Z</time>
      </trkpt>
      <trkpt lat="44.84029" lon="0.81295">
        <ele>197.5</ele>
        <time>2026-05-01T14:25:35.000Z</time>
      </trkpt>
      <trkpt lat="44.84028" lon="0.81298">
        <ele>197</ele>
        <time>2026-05-01T14:25:36.000Z</time>
      </trkpt>
      <trkpt lat="44.84026" lon="0.81301">
        <ele>196</ele>
        <time>2026-05-01T14:25:37.000Z</time>
      </trkpt>
      <trkpt lat="44.84023" lon="0.81305">
        <ele>196.4</ele>
        <time>2026-05-01T14:25:38.000Z</time>
      </trkpt>
      <trkpt lat="44.8402" lon="0.8131">
        <ele>195.8</ele>
        <time>2026-05-01T14:25:39.000Z</time>
      </trkpt>
      <trkpt lat="44.84018" lon="0.81315">
        <ele>196.5</ele>
        <time>2026-05-01T14:25:40.000Z</time>
      </trkpt>
      <trkpt lat="44.84016" lon="0.81319">
        <ele>196.3</ele>
        <time>2026-05-01T14:25:41.000Z</time>
      </trkpt>
      <trkpt lat="44.84013" lon="0.81323">
        <ele>195.8</ele>
        <time>2026-05-01T14:25:42.000Z</time>
      </trkpt>
      <trkpt lat="44.84011" lon="0.81328">
        <ele>195.3</ele>
        <time>2026-05-01T14:25:43.000Z</time>
      </trkpt>
      <trkpt lat="44.84009" lon="0.81332">
        <ele>195.3</ele>
        <time>2026-05-01T14:25:44.000Z</time>
      </trkpt>
      <trkpt lat="44.84007" lon="0.81336">
        <ele>195.9</ele>
        <time>2026-05-01T14:25:45.000Z</time>
      </trkpt>
      <trkpt lat="44.84004" lon="0.8134">
        <ele>196</ele>
        <time>2026-05-01T14:25:46.000Z</time>
      </trkpt>
      <trkpt lat="44.84001" lon="0.81344">
        <ele>197.7</ele>
        <time>2026-05-01T14:25:47.000Z</time>
      </trkpt>
      <trkpt lat="44.83998" lon="0.81348">
        <ele>198.3</ele>
        <time>2026-05-01T14:25:48.000Z</time>
      </trkpt>
      <trkpt lat="44.83995" lon="0.81351">
        <ele>197.9</ele>
        <time>2026-05-01T14:25:49.000Z</time>
      </trkpt>
      <trkpt lat="44.83993" lon="0.81354">
        <ele>197.6</ele>
        <time>2026-05-01T14:25:50.000Z</time>
      </trkpt>
      <trkpt lat="44.83991" lon="0.81358">
        <ele>198</ele>
        <time>2026-05-01T14:25:51.000Z</time>
      </trkpt>
      <trkpt lat="44.83988" lon="0.81362">
        <ele>198.4</ele>
        <time>2026-05-01T14:25:52.000Z</time>
      </trkpt>
      <trkpt lat="44.83985" lon="0.81365">
        <ele>198.3</ele>
        <time>2026-05-01T14:25:53.000Z</time>
      </trkpt>
      <trkpt lat="44.83983" lon="0.81368">
        <ele>198.5</ele>
        <time>2026-05-01T14:25:54.000Z</time>
      </trkpt>
      <trkpt lat="44.83981" lon="0.81372">
        <ele>198.1</ele>
        <time>2026-05-01T14:25:55.000Z</time>
      </trkpt>
      <trkpt lat="44.83978" lon="0.81376">
        <ele>198.3</ele>
        <time>2026-05-01T14:25:56.000Z</time>
      </trkpt>
      <trkpt lat="44.83976" lon="0.8138">
        <ele>199.1</ele>
        <time>2026-05-01T14:25:57.000Z</time>
      </trkpt>
      <trkpt lat="44.83974" lon="0.81383">
        <ele>197.8</ele>
        <time>2026-05-01T14:25:58.000Z</time>
      </trkpt>
      <trkpt lat="44.83973" lon="0.81387">
        <ele>197.7</ele>
        <time>2026-05-01T14:25:59.000Z</time>
      </trkpt>
      <trkpt lat="44.83971" lon="0.81391">
        <ele>198.5</ele>
        <time>2026-05-01T14:26:00.000Z</time>
      </trkpt>
      <trkpt lat="44.83968" lon="0.81394">
        <ele>197.9</ele>
        <time>2026-05-01T14:26:01.000Z</time>
      </trkpt>
      <trkpt lat="44.83965" lon="0.81396">
        <ele>197.7</ele>
        <time>2026-05-01T14:26:02.000Z</time>
      </trkpt>
      <trkpt lat="44.83962" lon="0.814">
        <ele>197.6</ele>
        <time>2026-05-01T14:26:03.000Z</time>
      </trkpt>
      <trkpt lat="44.8396" lon="0.81403">
        <ele>198.9</ele>
        <time>2026-05-01T14:26:04.000Z</time>
      </trkpt>
      <trkpt lat="44.83958" lon="0.81407">
        <ele>200.2</ele>
        <time>2026-05-01T14:26:05.000Z</time>
      </trkpt>
      <trkpt lat="44.83955" lon="0.8141">
        <ele>200.8</ele>
        <time>2026-05-01T14:26:06.000Z</time>
      </trkpt>
      <trkpt lat="44.83952" lon="0.81414">
        <ele>201.4</ele>
        <time>2026-05-01T14:26:07.000Z</time>
      </trkpt>
      <trkpt lat="44.83949" lon="0.81417">
        <ele>200.6</ele>
        <time>2026-05-01T14:26:08.000Z</time>
      </trkpt>
      <trkpt lat="44.83946" lon="0.81419">
        <ele>201.5</ele>
        <time>2026-05-01T14:26:09.000Z</time>
      </trkpt>
      <trkpt lat="44.83944" lon="0.81422">
        <ele>201.6</ele>
        <time>2026-05-01T14:26:10.000Z</time>
      </trkpt>
      <trkpt lat="44.83941" lon="0.81425">
        <ele>202.1</ele>
        <time>2026-05-01T14:26:11.000Z</time>
      </trkpt>
      <trkpt lat="44.83938" lon="0.81428">
        <ele>201.9</ele>
        <time>2026-05-01T14:26:12.000Z</time>
      </trkpt>
      <trkpt lat="44.83936" lon="0.81431">
        <ele>201.7</ele>
        <time>2026-05-01T14:26:13.000Z</time>
      </trkpt>
      <trkpt lat="44.83933" lon="0.81434">
        <ele>201.6</ele>
        <time>2026-05-01T14:26:14.000Z</time>
      </trkpt>
      <trkpt lat="44.83931" lon="0.81437">
        <ele>202.7</ele>
        <time>2026-05-01T14:26:15.000Z</time>
      </trkpt>
      <trkpt lat="44.83928" lon="0.8144">
        <ele>203.6</ele>
        <time>2026-05-01T14:26:16.000Z</time>
      </trkpt>
      <trkpt lat="44.83926" lon="0.81443">
        <ele>203.6</ele>
        <time>2026-05-01T14:26:17.000Z</time>
      </trkpt>
      <trkpt lat="44.83923" lon="0.81446">
        <ele>202.6</ele>
        <time>2026-05-01T14:26:18.000Z</time>
      </trkpt>
      <trkpt lat="44.83921" lon="0.81449">
        <ele>202.1</ele>
        <time>2026-05-01T14:26:19.000Z</time>
      </trkpt>
      <trkpt lat="44.83919" lon="0.81453">
        <ele>201.2</ele>
        <time>2026-05-01T14:26:20.000Z</time>
      </trkpt>
      <trkpt lat="44.83916" lon="0.81457">
        <ele>201.1</ele>
        <time>2026-05-01T14:26:21.000Z</time>
      </trkpt>
      <trkpt lat="44.83914" lon="0.81461">
        <ele>201.4</ele>
        <time>2026-05-01T14:26:22.000Z</time>
      </trkpt>
      <trkpt lat="44.83912" lon="0.81465">
        <ele>201.1</ele>
        <time>2026-05-01T14:26:23.000Z</time>
      </trkpt>
      <trkpt lat="44.83909" lon="0.81469">
        <ele>201.6</ele>
        <time>2026-05-01T14:26:24.000Z</time>
      </trkpt>
      <trkpt lat="44.83907" lon="0.81472">
        <ele>201.7</ele>
        <time>2026-05-01T14:26:25.000Z</time>
      </trkpt>
      <trkpt lat="44.83904" lon="0.81475">
        <ele>201.6</ele>
        <time>2026-05-01T14:26:26.000Z</time>
      </trkpt>
      <trkpt lat="44.83902" lon="0.81478">
        <ele>202.2</ele>
        <time>2026-05-01T14:26:27.000Z</time>
      </trkpt>
      <trkpt lat="44.839" lon="0.81481">
        <ele>202.8</ele>
        <time>2026-05-01T14:26:28.000Z</time>
      </trkpt>
      <trkpt lat="44.83898" lon="0.81483">
        <ele>201.5</ele>
        <time>2026-05-01T14:26:29.000Z</time>
      </trkpt>
      <trkpt lat="44.83896" lon="0.81486">
        <ele>202.7</ele>
        <time>2026-05-01T14:26:30.000Z</time>
      </trkpt>
      <trkpt lat="44.83894" lon="0.8149">
        <ele>202.6</ele>
        <time>2026-05-01T14:26:31.000Z</time>
      </trkpt>
      <trkpt lat="44.83894" lon="0.81493">
        <ele>204</ele>
        <time>2026-05-01T14:26:32.000Z</time>
      </trkpt>
      <trkpt lat="44.83894" lon="0.81496">
        <ele>204.9</ele>
        <time>2026-05-01T14:26:33.000Z</time>
      </trkpt>
      <trkpt lat="44.83894" lon="0.81498">
        <ele>205.5</ele>
        <time>2026-05-01T14:26:34.000Z</time>
      </trkpt>
      <trkpt lat="44.83894" lon="0.815">
        <ele>205</ele>
        <time>2026-05-01T14:26:35.000Z</time>
      </trkpt>
      <trkpt lat="44.83893" lon="0.81501">
        <ele>205.1</ele>
        <time>2026-05-01T14:26:36.000Z</time>
      </trkpt>
      <trkpt lat="44.83893" lon="0.81503">
        <ele>205.3</ele>
        <time>2026-05-01T14:26:37.000Z</time>
      </trkpt>
      <trkpt lat="44.83892" lon="0.81505">
        <ele>205</ele>
        <time>2026-05-01T14:26:38.000Z</time>
      </trkpt>
      <trkpt lat="44.83892" lon="0.81506">
        <ele>205.3</ele>
        <time>2026-05-01T14:26:39.000Z</time>
      </trkpt>
      <trkpt lat="44.83891" lon="0.81508">
        <ele>205.4</ele>
        <time>2026-05-01T14:26:40.000Z</time>
      </trkpt>
      <trkpt lat="44.83892" lon="0.8151">
        <ele>205.4</ele>
        <time>2026-05-01T14:26:41.000Z</time>
      </trkpt>
      <trkpt lat="44.83892" lon="0.81511">
        <ele>205.6</ele>
        <time>2026-05-01T14:26:42.000Z</time>
      </trkpt>
      <trkpt lat="44.83892" lon="0.81514">
        <ele>205.5</ele>
        <time>2026-05-01T14:26:43.000Z</time>
      </trkpt>
      <trkpt lat="44.83891" lon="0.81516">
        <ele>205.4</ele>
        <time>2026-05-01T14:26:44.000Z</time>
      </trkpt>
      <trkpt lat="44.83891" lon="0.81518">
        <ele>204.8</ele>
        <time>2026-05-01T14:26:45.000Z</time>
      </trkpt>
      <trkpt lat="44.83891" lon="0.8152">
        <ele>203.4</ele>
        <time>2026-05-01T14:26:46.000Z</time>
      </trkpt>
      <trkpt lat="44.83892" lon="0.81522">
        <ele>204.2</ele>
        <time>2026-05-01T14:26:47.000Z</time>
      </trkpt>
      <trkpt lat="44.83891" lon="0.81525">
        <ele>202.9</ele>
        <time>2026-05-01T14:26:48.000Z</time>
      </trkpt>
      <trkpt lat="44.83891" lon="0.81527">
        <ele>203.7</ele>
        <time>2026-05-01T14:26:49.000Z</time>
      </trkpt>
      <trkpt lat="44.8389" lon="0.8153">
        <ele>206</ele>
        <time>2026-05-01T14:26:50.000Z</time>
      </trkpt>
      <trkpt lat="44.8389" lon="0.81534">
        <ele>205.2</ele>
        <time>2026-05-01T14:26:51.000Z</time>
      </trkpt>
      <trkpt lat="44.83889" lon="0.81537">
        <ele>205.3</ele>
        <time>2026-05-01T14:26:52.000Z</time>
      </trkpt>
      <trkpt lat="44.83889" lon="0.81539">
        <ele>204.6</ele>
        <time>2026-05-01T14:26:53.000Z</time>
      </trkpt>
      <trkpt lat="44.83889" lon="0.81542">
        <ele>204.3</ele>
        <time>2026-05-01T14:26:54.000Z</time>
      </trkpt>
      <trkpt lat="44.83889" lon="0.81545">
        <ele>204.5</ele>
        <time>2026-05-01T14:26:55.000Z</time>
      </trkpt>
      <trkpt lat="44.83888" lon="0.81547">
        <ele>205.1</ele>
        <time>2026-05-01T14:26:56.000Z</time>
      </trkpt>
      <trkpt lat="44.83888" lon="0.8155">
        <ele>206.3</ele>
        <time>2026-05-01T14:26:57.000Z</time>
      </trkpt>
      <trkpt lat="44.83887" lon="0.81553">
        <ele>206.6</ele>
        <time>2026-05-01T14:26:58.000Z</time>
      </trkpt>
      <trkpt lat="44.83887" lon="0.81556">
        <ele>206.8</ele>
        <time>2026-05-01T14:26:59.000Z</time>
      </trkpt>
      <trkpt lat="44.83887" lon="0.81558">
        <ele>206.6</ele>
        <time>2026-05-01T14:27:00.000Z</time>
      </trkpt>
      <trkpt lat="44.83887" lon="0.8156">
        <ele>206.2</ele>
        <time>2026-05-01T14:27:01.000Z</time>
      </trkpt>
      <trkpt lat="44.83886" lon="0.81562">
        <ele>206</ele>
        <time>2026-05-01T14:27:02.000Z</time>
      </trkpt>
      <trkpt lat="44.83886" lon="0.81564">
        <ele>205.4</ele>
        <time>2026-05-01T14:27:03.000Z</time>
      </trkpt>
      <trkpt lat="44.83886" lon="0.81566">
        <ele>205.7</ele>
        <time>2026-05-01T14:27:04.000Z</time>
      </trkpt>
      <trkpt lat="44.83885" lon="0.81569">
        <ele>205.7</ele>
        <time>2026-05-01T14:27:05.000Z</time>
      </trkpt>
      <trkpt lat="44.83885" lon="0.81572">
        <ele>206.3</ele>
        <time>2026-05-01T14:27:06.000Z</time>
      </trkpt>
      <trkpt lat="44.83885" lon="0.81574">
        <ele>206.5</ele>
        <time>2026-05-01T14:27:07.000Z</time>
      </trkpt>
      <trkpt lat="44.83884" lon="0.81577">
        <ele>206.8</ele>
        <time>2026-05-01T14:27:08.000Z</time>
      </trkpt>
      <trkpt lat="44.83884" lon="0.81579">
        <ele>206.7</ele>
        <time>2026-05-01T14:27:09.000Z</time>
      </trkpt>
      <trkpt lat="44.83884" lon="0.81582">
        <ele>206</ele>
        <time>2026-05-01T14:27:10.000Z</time>
      </trkpt>
      <trkpt lat="44.83884" lon="0.81584">
        <ele>205.9</ele>
        <time>2026-05-01T14:27:11.000Z</time>
      </trkpt>
      <trkpt lat="44.83883" lon="0.81586">
        <ele>206.4</ele>
        <time>2026-05-01T14:27:12.000Z</time>
      </trkpt>
      <trkpt lat="44.83883" lon="0.81588">
        <ele>206.1</ele>
        <time>2026-05-01T14:27:13.000Z</time>
      </trkpt>
      <trkpt lat="44.83882" lon="0.8159">
        <ele>205.9</ele>
        <time>2026-05-01T14:27:14.000Z</time>
      </trkpt>
      <trkpt lat="44.83882" lon="0.81592">
        <ele>206.5</ele>
        <time>2026-05-01T14:27:15.000Z</time>
      </trkpt>
      <trkpt lat="44.83882" lon="0.81595">
        <ele>205.4</ele>
        <time>2026-05-01T14:27:16.000Z</time>
      </trkpt>
      <trkpt lat="44.83881" lon="0.81597">
        <ele>204.7</ele>
        <time>2026-05-01T14:27:17.000Z</time>
      </trkpt>
      <trkpt lat="44.83881" lon="0.81599">
        <ele>204.8</ele>
        <time>2026-05-01T14:27:18.000Z</time>
      </trkpt>
      <trkpt lat="44.83881" lon="0.81603">
        <ele>204.9</ele>
        <time>2026-05-01T14:27:19.000Z</time>
      </trkpt>
      <trkpt lat="44.83882" lon="0.81606">
        <ele>204.9</ele>
        <time>2026-05-01T14:27:20.000Z</time>
      </trkpt>
      <trkpt lat="44.83882" lon="0.81609">
        <ele>205.2</ele>
        <time>2026-05-01T14:27:21.000Z</time>
      </trkpt>
      <trkpt lat="44.83882" lon="0.81611">
        <ele>205.6</ele>
        <time>2026-05-01T14:27:22.000Z</time>
      </trkpt>
      <trkpt lat="44.83882" lon="0.81614">
        <ele>205.4</ele>
        <time>2026-05-01T14:27:23.000Z</time>
      </trkpt>
      <trkpt lat="44.83882" lon="0.81617">
        <ele>205.5</ele>
        <time>2026-05-01T14:27:24.000Z</time>
      </trkpt>
      <trkpt lat="44.83884" lon="0.81619">
        <ele>205.5</ele>
        <time>2026-05-01T14:27:25.000Z</time>
      </trkpt>
      <trkpt lat="44.83882" lon="0.81618">
        <ele>205.3</ele>
        <time>2026-05-01T14:27:26.000Z</time>
      </trkpt>
      <trkpt lat="44.83883" lon="0.81619">
        <ele>205.1</ele>
        <time>2026-05-01T14:27:27.000Z</time>
      </trkpt>
      <trkpt lat="44.83883" lon="0.81623">
        <ele>205.1</ele>
        <time>2026-05-01T14:27:28.000Z</time>
      </trkpt>
      <trkpt lat="44.83883" lon="0.81624">
        <ele>205.1</ele>
        <time>2026-05-01T14:27:29.000Z</time>
      </trkpt>
      <trkpt lat="44.83882" lon="0.81629">
        <ele>204.6</ele>
        <time>2026-05-01T14:27:30.000Z</time>
      </trkpt>
      <trkpt lat="44.83881" lon="0.81632">
        <ele>205.1</ele>
        <time>2026-05-01T14:27:31.000Z</time>
      </trkpt>
      <trkpt lat="44.83881" lon="0.81635">
        <ele>206.3</ele>
        <time>2026-05-01T14:27:32.000Z</time>
      </trkpt>
      <trkpt lat="44.8388" lon="0.81638">
        <ele>205.9</ele>
        <time>2026-05-01T14:27:33.000Z</time>
      </trkpt>
      <trkpt lat="44.8388" lon="0.8164">
        <ele>205.9</ele>
        <time>2026-05-01T14:27:34.000Z</time>
      </trkpt>
      <trkpt lat="44.83879" lon="0.81643">
        <ele>205.3</ele>
        <time>2026-05-01T14:27:35.000Z</time>
      </trkpt>
      <trkpt lat="44.83879" lon="0.81646">
        <ele>205.4</ele>
        <time>2026-05-01T14:27:36.000Z</time>
      </trkpt>
      <trkpt lat="44.8388" lon="0.81649">
        <ele>205.4</ele>
        <time>2026-05-01T14:27:37.000Z</time>
      </trkpt>
      <trkpt lat="44.8388" lon="0.81651">
        <ele>205.6</ele>
        <time>2026-05-01T14:27:38.000Z</time>
      </trkpt>
      <trkpt lat="44.83881" lon="0.81653">
        <ele>204.9</ele>
        <time>2026-05-01T14:27:39.000Z</time>
      </trkpt>
      <trkpt lat="44.83881" lon="0.81655">
        <ele>206.9</ele>
        <time>2026-05-01T14:27:40.000Z</time>
      </trkpt>
      <trkpt lat="44.83881" lon="0.81658">
        <ele>206.7</ele>
        <time>2026-05-01T14:27:41.000Z</time>
      </trkpt>
      <trkpt lat="44.83882" lon="0.81661">
        <ele>207.5</ele>
        <time>2026-05-01T14:27:42.000Z</time>
      </trkpt>
      <trkpt lat="44.83882" lon="0.81663">
        <ele>207.4</ele>
        <time>2026-05-01T14:27:43.000Z</time>
      </trkpt>
      <trkpt lat="44.83882" lon="0.81666">
        <ele>207.3</ele>
        <time>2026-05-01T14:27:44.000Z</time>
      </trkpt>
      <trkpt lat="44.83882" lon="0.81669">
        <ele>207.1</ele>
        <time>2026-05-01T14:27:45.000Z</time>
      </trkpt>
      <trkpt lat="44.83881" lon="0.81672">
        <ele>207.2</ele>
        <time>2026-05-01T14:27:46.000Z</time>
      </trkpt>
      <trkpt lat="44.83881" lon="0.81675">
        <ele>207.3</ele>
        <time>2026-05-01T14:27:47.000Z</time>
      </trkpt>
      <trkpt lat="44.83881" lon="0.81677">
        <ele>208.3</ele>
        <time>2026-05-01T14:27:48.000Z</time>
      </trkpt>
      <trkpt lat="44.83881" lon="0.81679">
        <ele>208.8</ele>
        <time>2026-05-01T14:27:49.000Z</time>
      </trkpt>
      <trkpt lat="44.8388" lon="0.81681">
        <ele>208.7</ele>
        <time>2026-05-01T14:27:50.000Z</time>
      </trkpt>
      <trkpt lat="44.8388" lon="0.81684">
        <ele>208.4</ele>
        <time>2026-05-01T14:27:51.000Z</time>
      </trkpt>
      <trkpt lat="44.8388" lon="0.81686">
        <ele>208.6</ele>
        <time>2026-05-01T14:27:52.000Z</time>
      </trkpt>
      <trkpt lat="44.8388" lon="0.81689">
        <ele>209.4</ele>
        <time>2026-05-01T14:27:53.000Z</time>
      </trkpt>
      <trkpt lat="44.83881" lon="0.81691">
        <ele>209.7</ele>
        <time>2026-05-01T14:27:54.000Z</time>
      </trkpt>
      <trkpt lat="44.8388" lon="0.81694">
        <ele>210.4</ele>
        <time>2026-05-01T14:27:55.000Z</time>
      </trkpt>
      <trkpt lat="44.83879" lon="0.81695">
        <ele>211</ele>
        <time>2026-05-01T14:27:56.000Z</time>
      </trkpt>
      <trkpt lat="44.83879" lon="0.81697">
        <ele>212.2</ele>
        <time>2026-05-01T14:27:57.000Z</time>
      </trkpt>
      <trkpt lat="44.83878" lon="0.81699">
        <ele>212.8</ele>
        <time>2026-05-01T14:27:58.000Z</time>
      </trkpt>
      <trkpt lat="44.83879" lon="0.817">
        <ele>211</ele>
        <time>2026-05-01T14:27:59.000Z</time>
      </trkpt>
      <trkpt lat="44.83878" lon="0.81702">
        <ele>209.4</ele>
        <time>2026-05-01T14:28:00.000Z</time>
      </trkpt>
      <trkpt lat="44.83878" lon="0.81704">
        <ele>208.9</ele>
        <time>2026-05-01T14:28:01.000Z</time>
      </trkpt>
      <trkpt lat="44.83877" lon="0.81706">
        <ele>208.6</ele>
        <time>2026-05-01T14:28:02.000Z</time>
      </trkpt>
      <trkpt lat="44.83876" lon="0.81707">
        <ele>209</ele>
        <time>2026-05-01T14:28:03.000Z</time>
      </trkpt>
      <trkpt lat="44.83875" lon="0.81708">
        <ele>209.2</ele>
        <time>2026-05-01T14:28:04.000Z</time>
      </trkpt>
      <trkpt lat="44.83874" lon="0.8171">
        <ele>208.7</ele>
        <time>2026-05-01T14:28:05.000Z</time>
      </trkpt>
      <trkpt lat="44.83873" lon="0.81711">
        <ele>208.9</ele>
        <time>2026-05-01T14:28:06.000Z</time>
      </trkpt>
      <trkpt lat="44.83872" lon="0.81712">
        <ele>209</ele>
        <time>2026-05-01T14:28:07.000Z</time>
      </trkpt>
      <trkpt lat="44.83873" lon="0.8171">
        <ele>206.4</ele>
        <time>2026-05-01T14:28:08.000Z</time>
      </trkpt>
      <trkpt lat="44.83872" lon="0.8171">
        <ele>207.2</ele>
        <time>2026-05-01T14:28:09.000Z</time>
      </trkpt>
      <trkpt lat="44.83872" lon="0.8171">
        <ele>207.3</ele>
        <time>2026-05-01T14:28:10.000Z</time>
      </trkpt>
      <trkpt lat="44.83871" lon="0.81711">
        <ele>207.5</ele>
        <time>2026-05-01T14:28:11.000Z</time>
      </trkpt>
      <trkpt lat="44.83871" lon="0.81711">
        <ele>206.6</ele>
        <time>2026-05-01T14:28:12.000Z</time>
      </trkpt>
      <trkpt lat="44.83871" lon="0.81711">
        <ele>207</ele>
        <time>2026-05-01T14:28:13.000Z</time>
      </trkpt>
      <trkpt lat="44.83871" lon="0.81711">
        <ele>206.9</ele>
        <time>2026-05-01T14:28:14.000Z</time>
      </trkpt>
      <trkpt lat="44.83871" lon="0.8171">
        <ele>206.9</ele>
        <time>2026-05-01T14:28:15.000Z</time>
      </trkpt>
      <trkpt lat="44.83871" lon="0.8171">
        <ele>206.9</ele>
        <time>2026-05-01T14:28:16.000Z</time>
      </trkpt>
      <trkpt lat="44.83871" lon="0.8171">
        <ele>206.9</ele>
        <time>2026-05-01T14:28:17.000Z</time>
      </trkpt>
      <trkpt lat="44.83871" lon="0.8171">
        <ele>206.9</ele>
        <time>2026-05-01T14:28:18.000Z</time>
      </trkpt>
      <trkpt lat="44.83871" lon="0.8171">
        <ele>206.9</ele>
        <time>2026-05-01T14:28:19.000Z</time>
      </trkpt>
      <trkpt lat="44.83871" lon="0.8171">
        <ele>206.9</ele>
        <time>2026-05-01T14:28:20.000Z</time>
      </trkpt>
      <trkpt lat="44.83871" lon="0.8171">
        <ele>206.9</ele>
        <time>2026-05-01T14:28:21.000Z</time>
      </trkpt>
      <trkpt lat="44.83871" lon="0.8171">
        <ele>206.9</ele>
        <time>2026-05-01T14:28:22.000Z</time>
      </trkpt>
      <trkpt lat="44.83871" lon="0.8171">
        <ele>206.9</ele>
        <time>2026-05-01T14:28:23.000Z</time>
      </trkpt>
      <trkpt lat="44.83871" lon="0.8171">
        <ele>206.9</ele>
        <time>2026-05-01T14:28:24.000Z</time>
      </trkpt>
      <trkpt lat="44.83871" lon="0.8171">
        <ele>206.9</ele>
        <time>2026-05-01T14:28:25.000Z</time>
      </trkpt>
      <trkpt lat="44.83871" lon="0.8171">
        <ele>206.9</ele>
        <time>2026-05-01T14:28:26.000Z</time>
      </trkpt>
      <trkpt lat="44.83872" lon="0.81711">
        <ele>207.6</ele>
        <time>2026-05-01T14:28:27.000Z</time>
      </trkpt>
      <trkpt lat="44.83872" lon="0.81712">
        <ele>208.4</ele>
        <time>2026-05-01T14:28:28.000Z</time>
      </trkpt>
      <trkpt lat="44.83873" lon="0.81713">
        <ele>208.5</ele>
        <time>2026-05-01T14:28:29.000Z</time>
      </trkpt>
      <trkpt lat="44.83873" lon="0.81713">
        <ele>208.5</ele>
        <time>2026-05-01T14:28:30.000Z</time>
      </trkpt>
      <trkpt lat="44.83873" lon="0.81713">
        <ele>208.5</ele>
        <time>2026-05-01T14:28:31.000Z</time>
      </trkpt>
      <trkpt lat="44.83873" lon="0.81714">
        <ele>208.5</ele>
        <time>2026-05-01T14:28:32.000Z</time>
      </trkpt>
      <trkpt lat="44.83873" lon="0.81714">
        <ele>208.5</ele>
        <time>2026-05-01T14:28:33.000Z</time>
      </trkpt>
      <trkpt lat="44.83873" lon="0.81714">
        <ele>208.5</ele>
        <time>2026-05-01T14:28:34.000Z</time>
      </trkpt>
      <trkpt lat="44.83873" lon="0.81714">
        <ele>208.5</ele>
        <time>2026-05-01T14:28:35.000Z</time>
      </trkpt>
      <trkpt lat="44.83873" lon="0.81714">
        <ele>208</ele>
        <time>2026-05-01T14:28:36.000Z</time>
      </trkpt>
      <trkpt lat="44.83873" lon="0.81714">
        <ele>208</ele>
        <time>2026-05-01T14:28:37.000Z</time>
      </trkpt>
      <trkpt lat="44.83873" lon="0.81715">
        <ele>207.9</ele>
        <time>2026-05-01T14:28:38.000Z</time>
      </trkpt>
      <trkpt lat="44.83873" lon="0.81717">
        <ele>208.3</ele>
        <time>2026-05-01T14:28:39.000Z</time>
      </trkpt>
      <trkpt lat="44.83873" lon="0.81718">
        <ele>207.9</ele>
        <time>2026-05-01T14:28:40.000Z</time>
      </trkpt>
      <trkpt lat="44.83872" lon="0.8172">
        <ele>207.5</ele>
        <time>2026-05-01T14:28:41.000Z</time>
      </trkpt>
      <trkpt lat="44.83872" lon="0.81722">
        <ele>207.4</ele>
        <time>2026-05-01T14:28:42.000Z</time>
      </trkpt>
      <trkpt lat="44.83871" lon="0.81725">
        <ele>208.2</ele>
        <time>2026-05-01T14:28:43.000Z</time>
      </trkpt>
      <trkpt lat="44.83871" lon="0.81726">
        <ele>209.4</ele>
        <time>2026-05-01T14:28:44.000Z</time>
      </trkpt>
      <trkpt lat="44.83871" lon="0.81727">
        <ele>210.2</ele>
        <time>2026-05-01T14:28:45.000Z</time>
      </trkpt>
      <trkpt lat="44.8387" lon="0.81729">
        <ele>210.4</ele>
        <time>2026-05-01T14:28:46.000Z</time>
      </trkpt>
      <trkpt lat="44.8387" lon="0.81731">
        <ele>209.9</ele>
        <time>2026-05-01T14:28:47.000Z</time>
      </trkpt>
      <trkpt lat="44.8387" lon="0.81732">
        <ele>209.8</ele>
        <time>2026-05-01T14:28:48.000Z</time>
      </trkpt>
      <trkpt lat="44.83869" lon="0.81735">
        <ele>210.3</ele>
        <time>2026-05-01T14:28:49.000Z</time>
      </trkpt>
      <trkpt lat="44.83868" lon="0.81737">
        <ele>210.7</ele>
        <time>2026-05-01T14:28:50.000Z</time>
      </trkpt>
      <trkpt lat="44.83868" lon="0.81739">
        <ele>211.2</ele>
        <time>2026-05-01T14:28:51.000Z</time>
      </trkpt>
      <trkpt lat="44.83866" lon="0.81741">
        <ele>212.2</ele>
        <time>2026-05-01T14:28:52.000Z</time>
      </trkpt>
      <trkpt lat="44.83865" lon="0.81743">
        <ele>212</ele>
        <time>2026-05-01T14:28:53.000Z</time>
      </trkpt>
      <trkpt lat="44.83864" lon="0.81745">
        <ele>212</ele>
        <time>2026-05-01T14:28:54.000Z</time>
      </trkpt>
      <trkpt lat="44.83863" lon="0.81747">
        <ele>212.1</ele>
        <time>2026-05-01T14:28:55.000Z</time>
      </trkpt>
      <trkpt lat="44.83862" lon="0.81749">
        <ele>211.5</ele>
        <time>2026-05-01T14:28:56.000Z</time>
      </trkpt>
      <trkpt lat="44.83861" lon="0.8175">
        <ele>210.9</ele>
        <time>2026-05-01T14:28:57.000Z</time>
      </trkpt>
      <trkpt lat="44.83859" lon="0.81751">
        <ele>211.1</ele>
        <time>2026-05-01T14:28:58.000Z</time>
      </trkpt>
      <trkpt lat="44.83858" lon="0.81752">
        <ele>212.4</ele>
        <time>2026-05-01T14:28:59.000Z</time>
      </trkpt>
      <trkpt lat="44.83857" lon="0.81753">
        <ele>212.6</ele>
        <time>2026-05-01T14:29:00.000Z</time>
      </trkpt>
      <trkpt lat="44.83856" lon="0.81755">
        <ele>212.7</ele>
        <time>2026-05-01T14:29:01.000Z</time>
      </trkpt>
      <trkpt lat="44.83855" lon="0.81757">
        <ele>211.6</ele>
        <time>2026-05-01T14:29:02.000Z</time>
      </trkpt>
      <trkpt lat="44.83854" lon="0.81759">
        <ele>212.2</ele>
        <time>2026-05-01T14:29:03.000Z</time>
      </trkpt>
      <trkpt lat="44.83854" lon="0.81761">
        <ele>211.1</ele>
        <time>2026-05-01T14:29:04.000Z</time>
      </trkpt>
      <trkpt lat="44.83853" lon="0.81763">
        <ele>210.8</ele>
        <time>2026-05-01T14:29:05.000Z</time>
      </trkpt>
      <trkpt lat="44.83852" lon="0.81765">
        <ele>211</ele>
        <time>2026-05-01T14:29:06.000Z</time>
      </trkpt>
      <trkpt lat="44.83852" lon="0.81766">
        <ele>211.3</ele>
        <time>2026-05-01T14:29:07.000Z</time>
      </trkpt>
      <trkpt lat="44.83851" lon="0.81768">
        <ele>209.8</ele>
        <time>2026-05-01T14:29:08.000Z</time>
      </trkpt>
      <trkpt lat="44.8385" lon="0.81769">
        <ele>209.4</ele>
        <time>2026-05-01T14:29:09.000Z</time>
      </trkpt>
      <trkpt lat="44.8385" lon="0.81771">
        <ele>210</ele>
        <time>2026-05-01T14:29:10.000Z</time>
      </trkpt>
      <trkpt lat="44.8385" lon="0.81772">
        <ele>210.1</ele>
        <time>2026-05-01T14:29:11.000Z</time>
      </trkpt>
      <trkpt lat="44.83849" lon="0.81774">
        <ele>209.7</ele>
        <time>2026-05-01T14:29:12.000Z</time>
      </trkpt>
      <trkpt lat="44.83849" lon="0.81775">
        <ele>209.7</ele>
        <time>2026-05-01T14:29:13.000Z</time>
      </trkpt>
      <trkpt lat="44.83848" lon="0.81777">
        <ele>209.3</ele>
        <time>2026-05-01T14:29:14.000Z</time>
      </trkpt>
      <trkpt lat="44.83847" lon="0.81778">
        <ele>208.3</ele>
        <time>2026-05-01T14:29:15.000Z</time>
      </trkpt>
      <trkpt lat="44.83846" lon="0.81779">
        <ele>208.2</ele>
        <time>2026-05-01T14:29:16.000Z</time>
      </trkpt>
      <trkpt lat="44.83845" lon="0.8178">
        <ele>207.9</ele>
        <time>2026-05-01T14:29:17.000Z</time>
      </trkpt>
      <trkpt lat="44.83845" lon="0.81781">
        <ele>208.4</ele>
        <time>2026-05-01T14:29:18.000Z</time>
      </trkpt>
      <trkpt lat="44.83844" lon="0.81783">
        <ele>209</ele>
        <time>2026-05-01T14:29:19.000Z</time>
      </trkpt>
      <trkpt lat="44.83843" lon="0.81784">
        <ele>208</ele>
        <time>2026-05-01T14:29:20.000Z</time>
      </trkpt>
      <trkpt lat="44.83843" lon="0.81786">
        <ele>208.2</ele>
        <time>2026-05-01T14:29:21.000Z</time>
      </trkpt>
      <trkpt lat="44.83842" lon="0.81788">
        <ele>208.5</ele>
        <time>2026-05-01T14:29:22.000Z</time>
      </trkpt>
      <trkpt lat="44.83842" lon="0.8179">
        <ele>206.8</ele>
        <time>2026-05-01T14:29:23.000Z</time>
      </trkpt>
      <trkpt lat="44.83842" lon="0.81792">
        <ele>206.7</ele>
        <time>2026-05-01T14:29:24.000Z</time>
      </trkpt>
      <trkpt lat="44.83841" lon="0.81794">
        <ele>206.3</ele>
        <time>2026-05-01T14:29:25.000Z</time>
      </trkpt>
      <trkpt lat="44.8384" lon="0.81796">
        <ele>205.8</ele>
        <time>2026-05-01T14:29:26.000Z</time>
      </trkpt>
      <trkpt lat="44.8384" lon="0.81797">
        <ele>204.5</ele>
        <time>2026-05-01T14:29:27.000Z</time>
      </trkpt>
      <trkpt lat="44.83839" lon="0.818">
        <ele>204</ele>
        <time>2026-05-01T14:29:28.000Z</time>
      </trkpt>
      <trkpt lat="44.83839" lon="0.81801">
        <ele>203.6</ele>
        <time>2026-05-01T14:29:29.000Z</time>
      </trkpt>
      <trkpt lat="44.83838" lon="0.81803">
        <ele>203.6</ele>
        <time>2026-05-01T14:29:30.000Z</time>
      </trkpt>
      <trkpt lat="44.83838" lon="0.81804">
        <ele>203.5</ele>
        <time>2026-05-01T14:29:31.000Z</time>
      </trkpt>
      <trkpt lat="44.83837" lon="0.81806">
        <ele>204</ele>
        <time>2026-05-01T14:29:32.000Z</time>
      </trkpt>
      <trkpt lat="44.83836" lon="0.81808">
        <ele>204.3</ele>
        <time>2026-05-01T14:29:33.000Z</time>
      </trkpt>
      <trkpt lat="44.83836" lon="0.81811">
        <ele>203.1</ele>
        <time>2026-05-01T14:29:34.000Z</time>
      </trkpt>
      <trkpt lat="44.83833" lon="0.81817">
        <ele>205.3</ele>
        <time>2026-05-01T14:29:35.000Z</time>
      </trkpt>
      <trkpt lat="44.83832" lon="0.81819">
        <ele>205</ele>
        <time>2026-05-01T14:29:36.000Z</time>
      </trkpt>
      <trkpt lat="44.83832" lon="0.81818">
        <ele>205.2</ele>
        <time>2026-05-01T14:29:37.000Z</time>
      </trkpt>
      <trkpt lat="44.8383" lon="0.8182">
        <ele>205.3</ele>
        <time>2026-05-01T14:29:38.000Z</time>
      </trkpt>
      <trkpt lat="44.8383" lon="0.81822">
        <ele>204.5</ele>
        <time>2026-05-01T14:29:39.000Z</time>
      </trkpt>
      <trkpt lat="44.8383" lon="0.81824">
        <ele>204</ele>
        <time>2026-05-01T14:29:40.000Z</time>
      </trkpt>
      <trkpt lat="44.8383" lon="0.81825">
        <ele>202.7</ele>
        <time>2026-05-01T14:29:41.000Z</time>
      </trkpt>
      <trkpt lat="44.83828" lon="0.81827">
        <ele>202.5</ele>
        <time>2026-05-01T14:29:42.000Z</time>
      </trkpt>
      <trkpt lat="44.83828" lon="0.81829">
        <ele>202.4</ele>
        <time>2026-05-01T14:29:43.000Z</time>
      </trkpt>
      <trkpt lat="44.83827" lon="0.81831">
        <ele>202.2</ele>
        <time>2026-05-01T14:29:44.000Z</time>
      </trkpt>
      <trkpt lat="44.83827" lon="0.81832">
        <ele>201.7</ele>
        <time>2026-05-01T14:29:45.000Z</time>
      </trkpt>
      <trkpt lat="44.83827" lon="0.81833">
        <ele>201.9</ele>
        <time>2026-05-01T14:29:46.000Z</time>
      </trkpt>
      <trkpt lat="44.83828" lon="0.81835">
        <ele>201.4</ele>
        <time>2026-05-01T14:29:47.000Z</time>
      </trkpt>
      <trkpt lat="44.83827" lon="0.81837">
        <ele>202.4</ele>
        <time>2026-05-01T14:29:48.000Z</time>
      </trkpt>
      <trkpt lat="44.83826" lon="0.81839">
        <ele>202.6</ele>
        <time>2026-05-01T14:29:49.000Z</time>
      </trkpt>
      <trkpt lat="44.83826" lon="0.81841">
        <ele>202.6</ele>
        <time>2026-05-01T14:29:50.000Z</time>
      </trkpt>
      <trkpt lat="44.83825" lon="0.81843">
        <ele>202.5</ele>
        <time>2026-05-01T14:29:51.000Z</time>
      </trkpt>
      <trkpt lat="44.83824" lon="0.81844">
        <ele>201.4</ele>
        <time>2026-05-01T14:29:52.000Z</time>
      </trkpt>
      <trkpt lat="44.83823" lon="0.81846">
        <ele>200.9</ele>
        <time>2026-05-01T14:29:53.000Z</time>
      </trkpt>
      <trkpt lat="44.83823" lon="0.81847">
        <ele>200.7</ele>
        <time>2026-05-01T14:29:54.000Z</time>
      </trkpt>
      <trkpt lat="44.83822" lon="0.81849">
        <ele>200.6</ele>
        <time>2026-05-01T14:29:55.000Z</time>
      </trkpt>
      <trkpt lat="44.83821" lon="0.8185">
        <ele>200.9</ele>
        <time>2026-05-01T14:29:56.000Z</time>
      </trkpt>
      <trkpt lat="44.83821" lon="0.81852">
        <ele>201</ele>
        <time>2026-05-01T14:29:57.000Z</time>
      </trkpt>
      <trkpt lat="44.8382" lon="0.81854">
        <ele>201.1</ele>
        <time>2026-05-01T14:29:58.000Z</time>
      </trkpt>
      <trkpt lat="44.8382" lon="0.81855">
        <ele>201.3</ele>
        <time>2026-05-01T14:29:59.000Z</time>
      </trkpt>
      <trkpt lat="44.83819" lon="0.81856">
        <ele>199.7</ele>
        <time>2026-05-01T14:30:00.000Z</time>
      </trkpt>
      <trkpt lat="44.83819" lon="0.81858">
        <ele>199.8</ele>
        <time>2026-05-01T14:30:01.000Z</time>
      </trkpt>
      <trkpt lat="44.8382" lon="0.81859">
        <ele>199.3</ele>
        <time>2026-05-01T14:30:02.000Z</time>
      </trkpt>
      <trkpt lat="44.83821" lon="0.81861">
        <ele>199.5</ele>
        <time>2026-05-01T14:30:03.000Z</time>
      </trkpt>
      <trkpt lat="44.83821" lon="0.81864">
        <ele>198.9</ele>
        <time>2026-05-01T14:30:04.000Z</time>
      </trkpt>
      <trkpt lat="44.83821" lon="0.81866">
        <ele>199.3</ele>
        <time>2026-05-01T14:30:05.000Z</time>
      </trkpt>
      <trkpt lat="44.83821" lon="0.81868">
        <ele>199.2</ele>
        <time>2026-05-01T14:30:06.000Z</time>
      </trkpt>
      <trkpt lat="44.8382" lon="0.8187">
        <ele>198.7</ele>
        <time>2026-05-01T14:30:07.000Z</time>
      </trkpt>
      <trkpt lat="44.83819" lon="0.81871">
        <ele>197.9</ele>
        <time>2026-05-01T14:30:08.000Z</time>
      </trkpt>
      <trkpt lat="44.83818" lon="0.81873">
        <ele>199.8</ele>
        <time>2026-05-01T14:30:09.000Z</time>
      </trkpt>
      <trkpt lat="44.83817" lon="0.81874">
        <ele>198.7</ele>
        <time>2026-05-01T14:30:10.000Z</time>
      </trkpt>
      <trkpt lat="44.83816" lon="0.81875">
        <ele>198.4</ele>
        <time>2026-05-01T14:30:11.000Z</time>
      </trkpt>
      <trkpt lat="44.83816" lon="0.81877">
        <ele>197.3</ele>
        <time>2026-05-01T14:30:12.000Z</time>
      </trkpt>
      <trkpt lat="44.83815" lon="0.81879">
        <ele>196.7</ele>
        <time>2026-05-01T14:30:13.000Z</time>
      </trkpt>
      <trkpt lat="44.83815" lon="0.8188">
        <ele>196.2</ele>
        <time>2026-05-01T14:30:14.000Z</time>
      </trkpt>
      <trkpt lat="44.83814" lon="0.81883">
        <ele>195.4</ele>
        <time>2026-05-01T14:30:15.000Z</time>
      </trkpt>
      <trkpt lat="44.83813" lon="0.81884">
        <ele>194.1</ele>
        <time>2026-05-01T14:30:16.000Z</time>
      </trkpt>
      <trkpt lat="44.83813" lon="0.81886">
        <ele>194.3</ele>
        <time>2026-05-01T14:30:17.000Z</time>
      </trkpt>
      <trkpt lat="44.83812" lon="0.81889">
        <ele>194.4</ele>
        <time>2026-05-01T14:30:18.000Z</time>
      </trkpt>
      <trkpt lat="44.83812" lon="0.81891">
        <ele>194.2</ele>
        <time>2026-05-01T14:30:19.000Z</time>
      </trkpt>
      <trkpt lat="44.83811" lon="0.81892">
        <ele>193.4</ele>
        <time>2026-05-01T14:30:20.000Z</time>
      </trkpt>
      <trkpt lat="44.8381" lon="0.81894">
        <ele>193</ele>
        <time>2026-05-01T14:30:21.000Z</time>
      </trkpt>
      <trkpt lat="44.83809" lon="0.81895">
        <ele>192.8</ele>
        <time>2026-05-01T14:30:22.000Z</time>
      </trkpt>
      <trkpt lat="44.83808" lon="0.81897">
        <ele>192.9</ele>
        <time>2026-05-01T14:30:23.000Z</time>
      </trkpt>
      <trkpt lat="44.83806" lon="0.81898">
        <ele>192.6</ele>
        <time>2026-05-01T14:30:24.000Z</time>
      </trkpt>
      <trkpt lat="44.83805" lon="0.81899">
        <ele>191.9</ele>
        <time>2026-05-01T14:30:25.000Z</time>
      </trkpt>
      <trkpt lat="44.83804" lon="0.81901">
        <ele>191.8</ele>
        <time>2026-05-01T14:30:26.000Z</time>
      </trkpt>
      <trkpt lat="44.83804" lon="0.81902">
        <ele>191.6</ele>
        <time>2026-05-01T14:30:27.000Z</time>
      </trkpt>
      <trkpt lat="44.83803" lon="0.81904">
        <ele>191.4</ele>
        <time>2026-05-01T14:30:28.000Z</time>
      </trkpt>
      <trkpt lat="44.83803" lon="0.81906">
        <ele>191.3</ele>
        <time>2026-05-01T14:30:29.000Z</time>
      </trkpt>
      <trkpt lat="44.83803" lon="0.81909">
        <ele>191.6</ele>
        <time>2026-05-01T14:30:30.000Z</time>
      </trkpt>
      <trkpt lat="44.83803" lon="0.8191">
        <ele>191.4</ele>
        <time>2026-05-01T14:30:31.000Z</time>
      </trkpt>
      <trkpt lat="44.83803" lon="0.81912">
        <ele>191</ele>
        <time>2026-05-01T14:30:32.000Z</time>
      </trkpt>
      <trkpt lat="44.83802" lon="0.81914">
        <ele>190.4</ele>
        <time>2026-05-01T14:30:33.000Z</time>
      </trkpt>
      <trkpt lat="44.83802" lon="0.81915">
        <ele>190.2</ele>
        <time>2026-05-01T14:30:34.000Z</time>
      </trkpt>
      <trkpt lat="44.83801" lon="0.81918">
        <ele>190.5</ele>
        <time>2026-05-01T14:30:35.000Z</time>
      </trkpt>
      <trkpt lat="44.838" lon="0.8192">
        <ele>190.1</ele>
        <time>2026-05-01T14:30:36.000Z</time>
      </trkpt>
      <trkpt lat="44.83799" lon="0.81921">
        <ele>189.9</ele>
        <time>2026-05-01T14:30:37.000Z</time>
      </trkpt>
      <trkpt lat="44.83798" lon="0.81922">
        <ele>190.3</ele>
        <time>2026-05-01T14:30:38.000Z</time>
      </trkpt>
      <trkpt lat="44.83798" lon="0.81923">
        <ele>191.4</ele>
        <time>2026-05-01T14:30:39.000Z</time>
      </trkpt>
      <trkpt lat="44.83797" lon="0.81924">
        <ele>192.5</ele>
        <time>2026-05-01T14:30:40.000Z</time>
      </trkpt>
      <trkpt lat="44.83797" lon="0.81926">
        <ele>192</ele>
        <time>2026-05-01T14:30:41.000Z</time>
      </trkpt>
      <trkpt lat="44.83797" lon="0.81927">
        <ele>191.8</ele>
        <time>2026-05-01T14:30:42.000Z</time>
      </trkpt>
      <trkpt lat="44.83796" lon="0.81929">
        <ele>190.9</ele>
        <time>2026-05-01T14:30:43.000Z</time>
      </trkpt>
      <trkpt lat="44.83796" lon="0.81931">
        <ele>190.9</ele>
        <time>2026-05-01T14:30:44.000Z</time>
      </trkpt>
      <trkpt lat="44.83796" lon="0.81932">
        <ele>190.9</ele>
        <time>2026-05-01T14:30:45.000Z</time>
      </trkpt>
      <trkpt lat="44.83795" lon="0.81934">
        <ele>190.5</ele>
        <time>2026-05-01T14:30:46.000Z</time>
      </trkpt>
      <trkpt lat="44.83795" lon="0.81935">
        <ele>190.3</ele>
        <time>2026-05-01T14:30:47.000Z</time>
      </trkpt>
      <trkpt lat="44.83794" lon="0.81937">
        <ele>189.4</ele>
        <time>2026-05-01T14:30:48.000Z</time>
      </trkpt>
      <trkpt lat="44.83794" lon="0.81938">
        <ele>189.4</ele>
        <time>2026-05-01T14:30:49.000Z</time>
      </trkpt>
      <trkpt lat="44.83793" lon="0.8194">
        <ele>188.4</ele>
        <time>2026-05-01T14:30:50.000Z</time>
      </trkpt>
      <trkpt lat="44.83792" lon="0.81941">
        <ele>187.9</ele>
        <time>2026-05-01T14:30:51.000Z</time>
      </trkpt>
      <trkpt lat="44.83791" lon="0.81942">
        <ele>187.1</ele>
        <time>2026-05-01T14:30:52.000Z</time>
      </trkpt>
      <trkpt lat="44.83791" lon="0.81944">
        <ele>186.5</ele>
        <time>2026-05-01T14:30:53.000Z</time>
      </trkpt>
      <trkpt lat="44.8379" lon="0.81945">
        <ele>185.3</ele>
        <time>2026-05-01T14:30:54.000Z</time>
      </trkpt>
      <trkpt lat="44.8379" lon="0.81947">
        <ele>185</ele>
        <time>2026-05-01T14:30:55.000Z</time>
      </trkpt>
      <trkpt lat="44.83789" lon="0.81949">
        <ele>184.5</ele>
        <time>2026-05-01T14:30:56.000Z</time>
      </trkpt>
      <trkpt lat="44.83789" lon="0.81951">
        <ele>184.9</ele>
        <time>2026-05-01T14:30:57.000Z</time>
      </trkpt>
      <trkpt lat="44.83789" lon="0.81952">
        <ele>184.5</ele>
        <time>2026-05-01T14:30:58.000Z</time>
      </trkpt>
      <trkpt lat="44.83789" lon="0.81954">
        <ele>184.3</ele>
        <time>2026-05-01T14:30:59.000Z</time>
      </trkpt>
      <trkpt lat="44.83788" lon="0.81956">
        <ele>184.3</ele>
        <time>2026-05-01T14:31:00.000Z</time>
      </trkpt>
      <trkpt lat="44.83788" lon="0.81958">
        <ele>183.6</ele>
        <time>2026-05-01T14:31:01.000Z</time>
      </trkpt>
      <trkpt lat="44.83787" lon="0.81959">
        <ele>183.2</ele>
        <time>2026-05-01T14:31:02.000Z</time>
      </trkpt>
      <trkpt lat="44.83786" lon="0.81961">
        <ele>183.4</ele>
        <time>2026-05-01T14:31:03.000Z</time>
      </trkpt>
      <trkpt lat="44.83786" lon="0.81963">
        <ele>183</ele>
        <time>2026-05-01T14:31:04.000Z</time>
      </trkpt>
      <trkpt lat="44.83785" lon="0.81964">
        <ele>182.3</ele>
        <time>2026-05-01T14:31:05.000Z</time>
      </trkpt>
      <trkpt lat="44.83785" lon="0.81966">
        <ele>182.2</ele>
        <time>2026-05-01T14:31:06.000Z</time>
      </trkpt>
      <trkpt lat="44.83784" lon="0.81969">
        <ele>182.4</ele>
        <time>2026-05-01T14:31:07.000Z</time>
      </trkpt>
      <trkpt lat="44.83783" lon="0.81971">
        <ele>182.7</ele>
        <time>2026-05-01T14:31:08.000Z</time>
      </trkpt>
      <trkpt lat="44.83782" lon="0.81972">
        <ele>182.1</ele>
        <time>2026-05-01T14:31:09.000Z</time>
      </trkpt>
      <trkpt lat="44.83782" lon="0.81973">
        <ele>181.2</ele>
        <time>2026-05-01T14:31:10.000Z</time>
      </trkpt>
      <trkpt lat="44.83781" lon="0.81975">
        <ele>180.1</ele>
        <time>2026-05-01T14:31:11.000Z</time>
      </trkpt>
      <trkpt lat="44.8378" lon="0.81976">
        <ele>179.9</ele>
        <time>2026-05-01T14:31:12.000Z</time>
      </trkpt>
      <trkpt lat="44.8378" lon="0.81978">
        <ele>179.6</ele>
        <time>2026-05-01T14:31:13.000Z</time>
      </trkpt>
      <trkpt lat="44.8378" lon="0.81979">
        <ele>179.4</ele>
        <time>2026-05-01T14:31:14.000Z</time>
      </trkpt>
      <trkpt lat="44.83779" lon="0.81981">
        <ele>179.1</ele>
        <time>2026-05-01T14:31:15.000Z</time>
      </trkpt>
      <trkpt lat="44.83779" lon="0.81983">
        <ele>180</ele>
        <time>2026-05-01T14:31:16.000Z</time>
      </trkpt>
      <trkpt lat="44.83779" lon="0.81984">
        <ele>179.6</ele>
        <time>2026-05-01T14:31:17.000Z</time>
      </trkpt>
      <trkpt lat="44.83778" lon="0.81986">
        <ele>179.3</ele>
        <time>2026-05-01T14:31:18.000Z</time>
      </trkpt>
      <trkpt lat="44.83778" lon="0.81987">
        <ele>179.4</ele>
        <time>2026-05-01T14:31:19.000Z</time>
      </trkpt>
      <trkpt lat="44.83777" lon="0.81989">
        <ele>179.4</ele>
        <time>2026-05-01T14:31:20.000Z</time>
      </trkpt>
      <trkpt lat="44.83777" lon="0.8199">
        <ele>179</ele>
        <time>2026-05-01T14:31:21.000Z</time>
      </trkpt>
      <trkpt lat="44.83776" lon="0.81992">
        <ele>179</ele>
        <time>2026-05-01T14:31:22.000Z</time>
      </trkpt>
      <trkpt lat="44.83775" lon="0.81994">
        <ele>178.5</ele>
        <time>2026-05-01T14:31:23.000Z</time>
      </trkpt>
      <trkpt lat="44.83774" lon="0.81995">
        <ele>178.2</ele>
        <time>2026-05-01T14:31:24.000Z</time>
      </trkpt>
      <trkpt lat="44.83773" lon="0.81996">
        <ele>177.4</ele>
        <time>2026-05-01T14:31:25.000Z</time>
      </trkpt>
      <trkpt lat="44.83772" lon="0.81998">
        <ele>177.2</ele>
        <time>2026-05-01T14:31:26.000Z</time>
      </trkpt>
      <trkpt lat="44.83771" lon="0.81999">
        <ele>177.3</ele>
        <time>2026-05-01T14:31:27.000Z</time>
      </trkpt>
      <trkpt lat="44.8377" lon="0.82001">
        <ele>177.3</ele>
        <time>2026-05-01T14:31:28.000Z</time>
      </trkpt>
      <trkpt lat="44.83769" lon="0.82003">
        <ele>176.8</ele>
        <time>2026-05-01T14:31:29.000Z</time>
      </trkpt>
      <trkpt lat="44.83768" lon="0.82004">
        <ele>176.9</ele>
        <time>2026-05-01T14:31:30.000Z</time>
      </trkpt>
      <trkpt lat="44.83767" lon="0.82005">
        <ele>176.5</ele>
        <time>2026-05-01T14:31:31.000Z</time>
      </trkpt>
      <trkpt lat="44.83766" lon="0.82007">
        <ele>175.7</ele>
        <time>2026-05-01T14:31:32.000Z</time>
      </trkpt>
      <trkpt lat="44.83765" lon="0.82008">
        <ele>176</ele>
        <time>2026-05-01T14:31:33.000Z</time>
      </trkpt>
      <trkpt lat="44.83764" lon="0.82009">
        <ele>175.8</ele>
        <time>2026-05-01T14:31:34.000Z</time>
      </trkpt>
      <trkpt lat="44.83763" lon="0.8201">
        <ele>175.6</ele>
        <time>2026-05-01T14:31:35.000Z</time>
      </trkpt>
      <trkpt lat="44.83762" lon="0.82011">
        <ele>175.4</ele>
        <time>2026-05-01T14:31:36.000Z</time>
      </trkpt>
      <trkpt lat="44.83762" lon="0.82013">
        <ele>175.5</ele>
        <time>2026-05-01T14:31:37.000Z</time>
      </trkpt>
      <trkpt lat="44.8376" lon="0.82014">
        <ele>175.4</ele>
        <time>2026-05-01T14:31:38.000Z</time>
      </trkpt>
      <trkpt lat="44.83759" lon="0.82016">
        <ele>175.8</ele>
        <time>2026-05-01T14:31:39.000Z</time>
      </trkpt>
      <trkpt lat="44.83758" lon="0.82018">
        <ele>176.6</ele>
        <time>2026-05-01T14:31:40.000Z</time>
      </trkpt>
      <trkpt lat="44.83757" lon="0.82021">
        <ele>176.4</ele>
        <time>2026-05-01T14:31:41.000Z</time>
      </trkpt>
      <trkpt lat="44.83757" lon="0.82023">
        <ele>175.8</ele>
        <time>2026-05-01T14:31:42.000Z</time>
      </trkpt>
      <trkpt lat="44.83756" lon="0.82024">
        <ele>175.1</ele>
        <time>2026-05-01T14:31:43.000Z</time>
      </trkpt>
      <trkpt lat="44.83755" lon="0.82025">
        <ele>174.9</ele>
        <time>2026-05-01T14:31:44.000Z</time>
      </trkpt>
      <trkpt lat="44.83754" lon="0.82027">
        <ele>174.9</ele>
        <time>2026-05-01T14:31:45.000Z</time>
      </trkpt>
      <trkpt lat="44.83753" lon="0.82028">
        <ele>175.1</ele>
        <time>2026-05-01T14:31:46.000Z</time>
      </trkpt>
      <trkpt lat="44.83752" lon="0.82029">
        <ele>175.1</ele>
        <time>2026-05-01T14:31:47.000Z</time>
      </trkpt>
      <trkpt lat="44.83751" lon="0.82031">
        <ele>174.8</ele>
        <time>2026-05-01T14:31:48.000Z</time>
      </trkpt>
      <trkpt lat="44.8375" lon="0.82032">
        <ele>174.8</ele>
        <time>2026-05-01T14:31:49.000Z</time>
      </trkpt>
      <trkpt lat="44.8375" lon="0.82034">
        <ele>174.8</ele>
        <time>2026-05-01T14:31:50.000Z</time>
      </trkpt>
      <trkpt lat="44.83749" lon="0.82035">
        <ele>174.9</ele>
        <time>2026-05-01T14:31:51.000Z</time>
      </trkpt>
      <trkpt lat="44.83749" lon="0.82038">
        <ele>177.5</ele>
        <time>2026-05-01T14:31:52.000Z</time>
      </trkpt>
      <trkpt lat="44.83748" lon="0.8204">
        <ele>177.6</ele>
        <time>2026-05-01T14:31:53.000Z</time>
      </trkpt>
      <trkpt lat="44.83747" lon="0.82041">
        <ele>177.2</ele>
        <time>2026-05-01T14:31:54.000Z</time>
      </trkpt>
      <trkpt lat="44.83746" lon="0.82042">
        <ele>176.4</ele>
        <time>2026-05-01T14:31:55.000Z</time>
      </trkpt>
      <trkpt lat="44.83745" lon="0.82044">
        <ele>176.3</ele>
        <time>2026-05-01T14:31:56.000Z</time>
      </trkpt>
      <trkpt lat="44.83744" lon="0.82046">
        <ele>176.3</ele>
        <time>2026-05-01T14:31:57.000Z</time>
      </trkpt>
      <trkpt lat="44.83743" lon="0.82047">
        <ele>175.1</ele>
        <time>2026-05-01T14:31:58.000Z</time>
      </trkpt>
      <trkpt lat="44.83742" lon="0.82049">
        <ele>175.8</ele>
        <time>2026-05-01T14:31:59.000Z</time>
      </trkpt>
      <trkpt lat="44.83741" lon="0.8205">
        <ele>175.9</ele>
        <time>2026-05-01T14:32:00.000Z</time>
      </trkpt>
      <trkpt lat="44.8374" lon="0.82051">
        <ele>175.6</ele>
        <time>2026-05-01T14:32:01.000Z</time>
      </trkpt>
      <trkpt lat="44.83739" lon="0.82053">
        <ele>175.3</ele>
        <time>2026-05-01T14:32:02.000Z</time>
      </trkpt>
      <trkpt lat="44.83738" lon="0.82054">
        <ele>174.7</ele>
        <time>2026-05-01T14:32:03.000Z</time>
      </trkpt>
      <trkpt lat="44.83737" lon="0.82055">
        <ele>174.1</ele>
        <time>2026-05-01T14:32:04.000Z</time>
      </trkpt>
      <trkpt lat="44.83736" lon="0.82056">
        <ele>174.2</ele>
        <time>2026-05-01T14:32:05.000Z</time>
      </trkpt>
      <trkpt lat="44.83735" lon="0.82057">
        <ele>174.2</ele>
        <time>2026-05-01T14:32:06.000Z</time>
      </trkpt>
      <trkpt lat="44.83734" lon="0.82058">
        <ele>173.2</ele>
        <time>2026-05-01T14:32:07.000Z</time>
      </trkpt>
      <trkpt lat="44.83734" lon="0.8206">
        <ele>173.9</ele>
        <time>2026-05-01T14:32:08.000Z</time>
      </trkpt>
      <trkpt lat="44.83733" lon="0.82061">
        <ele>173.3</ele>
        <time>2026-05-01T14:32:09.000Z</time>
      </trkpt>
      <trkpt lat="44.83732" lon="0.82062">
        <ele>173.2</ele>
        <time>2026-05-01T14:32:10.000Z</time>
      </trkpt>
      <trkpt lat="44.83731" lon="0.82063">
        <ele>173.3</ele>
        <time>2026-05-01T14:32:11.000Z</time>
      </trkpt>
      <trkpt lat="44.8373" lon="0.82064">
        <ele>173</ele>
        <time>2026-05-01T14:32:12.000Z</time>
      </trkpt>
      <trkpt lat="44.83729" lon="0.82066">
        <ele>174.2</ele>
        <time>2026-05-01T14:32:13.000Z</time>
      </trkpt>
      <trkpt lat="44.83728" lon="0.82067">
        <ele>174.1</ele>
        <time>2026-05-01T14:32:14.000Z</time>
      </trkpt>
      <trkpt lat="44.83727" lon="0.82067">
        <ele>174</ele>
        <time>2026-05-01T14:32:15.000Z</time>
      </trkpt>
      <trkpt lat="44.83726" lon="0.82069">
        <ele>175.1</ele>
        <time>2026-05-01T14:32:16.000Z</time>
      </trkpt>
      <trkpt lat="44.83724" lon="0.8207">
        <ele>174.6</ele>
        <time>2026-05-01T14:32:17.000Z</time>
      </trkpt>
      <trkpt lat="44.83723" lon="0.82071">
        <ele>174.7</ele>
        <time>2026-05-01T14:32:18.000Z</time>
      </trkpt>
      <trkpt lat="44.83722" lon="0.82072">
        <ele>174.2</ele>
        <time>2026-05-01T14:32:19.000Z</time>
      </trkpt>
      <trkpt lat="44.83722" lon="0.82074">
        <ele>174.6</ele>
        <time>2026-05-01T14:32:20.000Z</time>
      </trkpt>
      <trkpt lat="44.83721" lon="0.82075">
        <ele>174.6</ele>
        <time>2026-05-01T14:32:21.000Z</time>
      </trkpt>
      <trkpt lat="44.8372" lon="0.82076">
        <ele>174.1</ele>
        <time>2026-05-01T14:32:22.000Z</time>
      </trkpt>
      <trkpt lat="44.83719" lon="0.82078">
        <ele>173.6</ele>
        <time>2026-05-01T14:32:23.000Z</time>
      </trkpt>
      <trkpt lat="44.83718" lon="0.82079">
        <ele>173.5</ele>
        <time>2026-05-01T14:32:24.000Z</time>
      </trkpt>
      <trkpt lat="44.83717" lon="0.8208">
        <ele>173.1</ele>
        <time>2026-05-01T14:32:25.000Z</time>
      </trkpt>
      <trkpt lat="44.83715" lon="0.82081">
        <ele>172.8</ele>
        <time>2026-05-01T14:32:26.000Z</time>
      </trkpt>
      <trkpt lat="44.83714" lon="0.82081">
        <ele>172.6</ele>
        <time>2026-05-01T14:32:27.000Z</time>
      </trkpt>
      <trkpt lat="44.83713" lon="0.82082">
        <ele>172.5</ele>
        <time>2026-05-01T14:32:28.000Z</time>
      </trkpt>
      <trkpt lat="44.83711" lon="0.82082">
        <ele>170.5</ele>
        <time>2026-05-01T14:32:29.000Z</time>
      </trkpt>
      <trkpt lat="44.8371" lon="0.82082">
        <ele>169.3</ele>
        <time>2026-05-01T14:32:30.000Z</time>
      </trkpt>
      <trkpt lat="44.83708" lon="0.82082">
        <ele>169.1</ele>
        <time>2026-05-01T14:32:31.000Z</time>
      </trkpt>
      <trkpt lat="44.83707" lon="0.82082">
        <ele>169</ele>
        <time>2026-05-01T14:32:32.000Z</time>
      </trkpt>
      <trkpt lat="44.83705" lon="0.82081">
        <ele>169.3</ele>
        <time>2026-05-01T14:32:33.000Z</time>
      </trkpt>
      <trkpt lat="44.83704" lon="0.82082">
        <ele>168.8</ele>
        <time>2026-05-01T14:32:34.000Z</time>
      </trkpt>
      <trkpt lat="44.83702" lon="0.82083">
        <ele>168.2</ele>
        <time>2026-05-01T14:32:35.000Z</time>
      </trkpt>
      <trkpt lat="44.83701" lon="0.82084">
        <ele>167.8</ele>
        <time>2026-05-01T14:32:36.000Z</time>
      </trkpt>
      <trkpt lat="44.837" lon="0.82085">
        <ele>167.5</ele>
        <time>2026-05-01T14:32:37.000Z</time>
      </trkpt>
      <trkpt lat="44.83699" lon="0.82085">
        <ele>167.3</ele>
        <time>2026-05-01T14:32:38.000Z</time>
      </trkpt>
      <trkpt lat="44.83697" lon="0.82086">
        <ele>167.2</ele>
        <time>2026-05-01T14:32:39.000Z</time>
      </trkpt>
      <trkpt lat="44.83696" lon="0.82086">
        <ele>166.9</ele>
        <time>2026-05-01T14:32:40.000Z</time>
      </trkpt>
      <trkpt lat="44.83694" lon="0.82087">
        <ele>167.4</ele>
        <time>2026-05-01T14:32:41.000Z</time>
      </trkpt>
      <trkpt lat="44.83693" lon="0.82084">
        <ele>168.9</ele>
        <time>2026-05-01T14:32:42.000Z</time>
      </trkpt>
      <trkpt lat="44.83691" lon="0.82083">
        <ele>169.7</ele>
        <time>2026-05-01T14:32:43.000Z</time>
      </trkpt>
      <trkpt lat="44.8369" lon="0.82083">
        <ele>169.9</ele>
        <time>2026-05-01T14:32:44.000Z</time>
      </trkpt>
      <trkpt lat="44.83689" lon="0.82084">
        <ele>170.5</ele>
        <time>2026-05-01T14:32:45.000Z</time>
      </trkpt>
      <trkpt lat="44.83687" lon="0.82085">
        <ele>170.3</ele>
        <time>2026-05-01T14:32:46.000Z</time>
      </trkpt>
      <trkpt lat="44.83686" lon="0.82085">
        <ele>170.7</ele>
        <time>2026-05-01T14:32:47.000Z</time>
      </trkpt>
      <trkpt lat="44.83684" lon="0.82085">
        <ele>170.2</ele>
        <time>2026-05-01T14:32:48.000Z</time>
      </trkpt>
      <trkpt lat="44.83683" lon="0.82083">
        <ele>170.2</ele>
        <time>2026-05-01T14:32:49.000Z</time>
      </trkpt>
      <trkpt lat="44.83683" lon="0.82082">
        <ele>170.1</ele>
        <time>2026-05-01T14:32:50.000Z</time>
      </trkpt>
      <trkpt lat="44.83682" lon="0.82084">
        <ele>170.1</ele>
        <time>2026-05-01T14:32:51.000Z</time>
      </trkpt>
      <trkpt lat="44.83681" lon="0.82085">
        <ele>169.9</ele>
        <time>2026-05-01T14:32:52.000Z</time>
      </trkpt>
      <trkpt lat="44.83679" lon="0.82086">
        <ele>169.5</ele>
        <time>2026-05-01T14:32:53.000Z</time>
      </trkpt>
      <trkpt lat="44.83678" lon="0.82088">
        <ele>170.4</ele>
        <time>2026-05-01T14:32:54.000Z</time>
      </trkpt>
      <trkpt lat="44.83676" lon="0.8209">
        <ele>170.2</ele>
        <time>2026-05-01T14:32:55.000Z</time>
      </trkpt>
      <trkpt lat="44.83675" lon="0.82092">
        <ele>170.5</ele>
        <time>2026-05-01T14:32:56.000Z</time>
      </trkpt>
      <trkpt lat="44.83674" lon="0.82094">
        <ele>170.4</ele>
        <time>2026-05-01T14:32:57.000Z</time>
      </trkpt>
      <trkpt lat="44.83673" lon="0.82095">
        <ele>170.3</ele>
        <time>2026-05-01T14:32:58.000Z</time>
      </trkpt>
      <trkpt lat="44.83671" lon="0.82096">
        <ele>170.7</ele>
        <time>2026-05-01T14:32:59.000Z</time>
      </trkpt>
      <trkpt lat="44.83671" lon="0.82098">
        <ele>170.2</ele>
        <time>2026-05-01T14:33:00.000Z</time>
      </trkpt>
      <trkpt lat="44.8367" lon="0.82099">
        <ele>169.6</ele>
        <time>2026-05-01T14:33:01.000Z</time>
      </trkpt>
      <trkpt lat="44.83669" lon="0.82101">
        <ele>168.4</ele>
        <time>2026-05-01T14:33:02.000Z</time>
      </trkpt>
      <trkpt lat="44.83668" lon="0.82104">
        <ele>169.3</ele>
        <time>2026-05-01T14:33:03.000Z</time>
      </trkpt>
      <trkpt lat="44.83668" lon="0.82106">
        <ele>171.4</ele>
        <time>2026-05-01T14:33:04.000Z</time>
      </trkpt>
      <trkpt lat="44.83667" lon="0.82108">
        <ele>172.2</ele>
        <time>2026-05-01T14:33:05.000Z</time>
      </trkpt>
      <trkpt lat="44.83665" lon="0.82109">
        <ele>172.3</ele>
        <time>2026-05-01T14:33:06.000Z</time>
      </trkpt>
      <trkpt lat="44.83664" lon="0.82111">
        <ele>172.5</ele>
        <time>2026-05-01T14:33:07.000Z</time>
      </trkpt>
      <trkpt lat="44.83663" lon="0.82112">
        <ele>172.3</ele>
        <time>2026-05-01T14:33:08.000Z</time>
      </trkpt>
      <trkpt lat="44.83662" lon="0.82114">
        <ele>172</ele>
        <time>2026-05-01T14:33:09.000Z</time>
      </trkpt>
      <trkpt lat="44.83661" lon="0.82115">
        <ele>172.2</ele>
        <time>2026-05-01T14:33:10.000Z</time>
      </trkpt>
      <trkpt lat="44.8366" lon="0.82116">
        <ele>172</ele>
        <time>2026-05-01T14:33:11.000Z</time>
      </trkpt>
      <trkpt lat="44.83659" lon="0.82118">
        <ele>172.2</ele>
        <time>2026-05-01T14:33:12.000Z</time>
      </trkpt>
      <trkpt lat="44.83659" lon="0.8212">
        <ele>171.5</ele>
        <time>2026-05-01T14:33:13.000Z</time>
      </trkpt>
      <trkpt lat="44.83657" lon="0.82122">
        <ele>170.5</ele>
        <time>2026-05-01T14:33:14.000Z</time>
      </trkpt>
      <trkpt lat="44.83656" lon="0.82123">
        <ele>170.5</ele>
        <time>2026-05-01T14:33:15.000Z</time>
      </trkpt>
      <trkpt lat="44.83655" lon="0.82125">
        <ele>170.4</ele>
        <time>2026-05-01T14:33:16.000Z</time>
      </trkpt>
      <trkpt lat="44.83657" lon="0.82129">
        <ele>170.5</ele>
        <time>2026-05-01T14:33:17.000Z</time>
      </trkpt>
      <trkpt lat="44.83652" lon="0.8213">
        <ele>169</ele>
        <time>2026-05-01T14:33:18.000Z</time>
      </trkpt>
      <trkpt lat="44.83652" lon="0.82132">
        <ele>168.8</ele>
        <time>2026-05-01T14:33:19.000Z</time>
      </trkpt>
      <trkpt lat="44.83651" lon="0.82133">
        <ele>168.3</ele>
        <time>2026-05-01T14:33:20.000Z</time>
      </trkpt>
      <trkpt lat="44.83649" lon="0.82134">
        <ele>168.3</ele>
        <time>2026-05-01T14:33:21.000Z</time>
      </trkpt>
      <trkpt lat="44.83648" lon="0.82137">
        <ele>171.1</ele>
        <time>2026-05-01T14:33:22.000Z</time>
      </trkpt>
      <trkpt lat="44.83647" lon="0.82138">
        <ele>170.4</ele>
        <time>2026-05-01T14:33:23.000Z</time>
      </trkpt>
      <trkpt lat="44.83645" lon="0.82138">
        <ele>170.2</ele>
        <time>2026-05-01T14:33:24.000Z</time>
      </trkpt>
      <trkpt lat="44.83645" lon="0.82139">
        <ele>169.9</ele>
        <time>2026-05-01T14:33:25.000Z</time>
      </trkpt>
      <trkpt lat="44.83644" lon="0.82139">
        <ele>170.8</ele>
        <time>2026-05-01T14:33:26.000Z</time>
      </trkpt>
      <trkpt lat="44.83643" lon="0.8214">
        <ele>171.1</ele>
        <time>2026-05-01T14:33:27.000Z</time>
      </trkpt>
      <trkpt lat="44.83642" lon="0.82141">
        <ele>171</ele>
        <time>2026-05-01T14:33:28.000Z</time>
      </trkpt>
      <trkpt lat="44.8364" lon="0.82143">
        <ele>171.5</ele>
        <time>2026-05-01T14:33:29.000Z</time>
      </trkpt>
      <trkpt lat="44.83639" lon="0.82144">
        <ele>171.4</ele>
        <time>2026-05-01T14:33:30.000Z</time>
      </trkpt>
      <trkpt lat="44.83637" lon="0.82146">
        <ele>171.2</ele>
        <time>2026-05-01T14:33:31.000Z</time>
      </trkpt>
      <trkpt lat="44.83636" lon="0.82148">
        <ele>171</ele>
        <time>2026-05-01T14:33:32.000Z</time>
      </trkpt>
      <trkpt lat="44.83635" lon="0.82149">
        <ele>170.5</ele>
        <time>2026-05-01T14:33:33.000Z</time>
      </trkpt>
      <trkpt lat="44.83633" lon="0.8215">
        <ele>170.8</ele>
        <time>2026-05-01T14:33:34.000Z</time>
      </trkpt>
      <trkpt lat="44.83632" lon="0.82151">
        <ele>170.7</ele>
        <time>2026-05-01T14:33:35.000Z</time>
      </trkpt>
      <trkpt lat="44.83631" lon="0.82152">
        <ele>170.1</ele>
        <time>2026-05-01T14:33:36.000Z</time>
      </trkpt>
      <trkpt lat="44.8363" lon="0.82154">
        <ele>169.4</ele>
        <time>2026-05-01T14:33:37.000Z</time>
      </trkpt>
      <trkpt lat="44.83629" lon="0.82155">
        <ele>168.8</ele>
        <time>2026-05-01T14:33:38.000Z</time>
      </trkpt>
      <trkpt lat="44.83627" lon="0.82157">
        <ele>168.7</ele>
        <time>2026-05-01T14:33:39.000Z</time>
      </trkpt>
      <trkpt lat="44.83626" lon="0.82159">
        <ele>169.2</ele>
        <time>2026-05-01T14:33:40.000Z</time>
      </trkpt>
      <trkpt lat="44.83624" lon="0.82161">
        <ele>168.7</ele>
        <time>2026-05-01T14:33:41.000Z</time>
      </trkpt>
      <trkpt lat="44.83624" lon="0.82163">
        <ele>168.1</ele>
        <time>2026-05-01T14:33:42.000Z</time>
      </trkpt>
      <trkpt lat="44.83623" lon="0.82165">
        <ele>167.4</ele>
        <time>2026-05-01T14:33:43.000Z</time>
      </trkpt>
      <trkpt lat="44.83622" lon="0.82167">
        <ele>167</ele>
        <time>2026-05-01T14:33:44.000Z</time>
      </trkpt>
      <trkpt lat="44.8362" lon="0.82168">
        <ele>166.9</ele>
        <time>2026-05-01T14:33:45.000Z</time>
      </trkpt>
      <trkpt lat="44.83619" lon="0.82171">
        <ele>166.3</ele>
        <time>2026-05-01T14:33:46.000Z</time>
      </trkpt>
      <trkpt lat="44.83618" lon="0.82174">
        <ele>166.4</ele>
        <time>2026-05-01T14:33:47.000Z</time>
      </trkpt>
      <trkpt lat="44.83617" lon="0.82176">
        <ele>166.5</ele>
        <time>2026-05-01T14:33:48.000Z</time>
      </trkpt>
      <trkpt lat="44.83617" lon="0.82179">
        <ele>165.9</ele>
        <time>2026-05-01T14:33:49.000Z</time>
      </trkpt>
      <trkpt lat="44.83616" lon="0.82181">
        <ele>166</ele>
        <time>2026-05-01T14:33:50.000Z</time>
      </trkpt>
      <trkpt lat="44.83616" lon="0.82185">
        <ele>166.3</ele>
        <time>2026-05-01T14:33:51.000Z</time>
      </trkpt>
      <trkpt lat="44.83614" lon="0.82184">
        <ele>165.8</ele>
        <time>2026-05-01T14:33:52.000Z</time>
      </trkpt>
      <trkpt lat="44.83614" lon="0.82186">
        <ele>165.4</ele>
        <time>2026-05-01T14:33:53.000Z</time>
      </trkpt>
      <trkpt lat="44.83614" lon="0.82186">
        <ele>165.2</ele>
        <time>2026-05-01T14:33:54.000Z</time>
      </trkpt>
      <trkpt lat="44.83614" lon="0.82186">
        <ele>165.1</ele>
        <time>2026-05-01T14:33:55.000Z</time>
      </trkpt>
      <trkpt lat="44.83613" lon="0.82188">
        <ele>164.5</ele>
        <time>2026-05-01T14:33:56.000Z</time>
      </trkpt>
      <trkpt lat="44.83612" lon="0.82191">
        <ele>165.7</ele>
        <time>2026-05-01T14:33:57.000Z</time>
      </trkpt>
      <trkpt lat="44.83612" lon="0.82192">
        <ele>165.3</ele>
        <time>2026-05-01T14:33:58.000Z</time>
      </trkpt>
      <trkpt lat="44.83613" lon="0.82196">
        <ele>165.2</ele>
        <time>2026-05-01T14:33:59.000Z</time>
      </trkpt>
      <trkpt lat="44.83613" lon="0.82198">
        <ele>163</ele>
        <time>2026-05-01T14:34:00.000Z</time>
      </trkpt>
      <trkpt lat="44.83613" lon="0.82199">
        <ele>164.2</ele>
        <time>2026-05-01T14:34:01.000Z</time>
      </trkpt>
      <trkpt lat="44.83613" lon="0.82201">
        <ele>164.5</ele>
        <time>2026-05-01T14:34:02.000Z</time>
      </trkpt>
      <trkpt lat="44.83613" lon="0.82203">
        <ele>164.3</ele>
        <time>2026-05-01T14:34:03.000Z</time>
      </trkpt>
      <trkpt lat="44.83613" lon="0.82204">
        <ele>164.5</ele>
        <time>2026-05-01T14:34:04.000Z</time>
      </trkpt>
      <trkpt lat="44.83611" lon="0.82206">
        <ele>164.4</ele>
        <time>2026-05-01T14:34:05.000Z</time>
      </trkpt>
      <trkpt lat="44.8361" lon="0.82208">
        <ele>164.5</ele>
        <time>2026-05-01T14:34:06.000Z</time>
      </trkpt>
      <trkpt lat="44.83609" lon="0.8221">
        <ele>163.8</ele>
        <time>2026-05-01T14:34:07.000Z</time>
      </trkpt>
      <trkpt lat="44.83608" lon="0.82213">
        <ele>163.9</ele>
        <time>2026-05-01T14:34:08.000Z</time>
      </trkpt>
      <trkpt lat="44.83606" lon="0.82215">
        <ele>163.6</ele>
        <time>2026-05-01T14:34:09.000Z</time>
      </trkpt>
      <trkpt lat="44.83605" lon="0.82218">
        <ele>164.1</ele>
        <time>2026-05-01T14:34:10.000Z</time>
      </trkpt>
      <trkpt lat="44.83605" lon="0.8222">
        <ele>166</ele>
        <time>2026-05-01T14:34:11.000Z</time>
      </trkpt>
      <trkpt lat="44.83605" lon="0.82222">
        <ele>167.3</ele>
        <time>2026-05-01T14:34:12.000Z</time>
      </trkpt>
      <trkpt lat="44.83604" lon="0.82225">
        <ele>167.3</ele>
        <time>2026-05-01T14:34:13.000Z</time>
      </trkpt>
      <trkpt lat="44.83604" lon="0.82228">
        <ele>168.5</ele>
        <time>2026-05-01T14:34:14.000Z</time>
      </trkpt>
      <trkpt lat="44.83603" lon="0.82229">
        <ele>167.5</ele>
        <time>2026-05-01T14:34:15.000Z</time>
      </trkpt>
      <trkpt lat="44.83602" lon="0.82231">
        <ele>166.4</ele>
        <time>2026-05-01T14:34:16.000Z</time>
      </trkpt>
      <trkpt lat="44.83599" lon="0.82232">
        <ele>165.5</ele>
        <time>2026-05-01T14:34:17.000Z</time>
      </trkpt>
      <trkpt lat="44.83598" lon="0.82234">
        <ele>165.8</ele>
        <time>2026-05-01T14:34:18.000Z</time>
      </trkpt>
      <trkpt lat="44.83596" lon="0.82234">
        <ele>165.4</ele>
        <time>2026-05-01T14:34:19.000Z</time>
      </trkpt>
      <trkpt lat="44.83594" lon="0.82235">
        <ele>165.4</ele>
        <time>2026-05-01T14:34:20.000Z</time>
      </trkpt>
      <trkpt lat="44.83592" lon="0.82237">
        <ele>164</ele>
        <time>2026-05-01T14:34:21.000Z</time>
      </trkpt>
      <trkpt lat="44.83591" lon="0.82239">
        <ele>163.6</ele>
        <time>2026-05-01T14:34:22.000Z</time>
      </trkpt>
      <trkpt lat="44.8359" lon="0.8224">
        <ele>162.8</ele>
        <time>2026-05-01T14:34:23.000Z</time>
      </trkpt>
      <trkpt lat="44.83589" lon="0.82242">
        <ele>162.3</ele>
        <time>2026-05-01T14:34:24.000Z</time>
      </trkpt>
      <trkpt lat="44.83588" lon="0.82244">
        <ele>161.1</ele>
        <time>2026-05-01T14:34:25.000Z</time>
      </trkpt>
      <trkpt lat="44.83588" lon="0.82246">
        <ele>161.1</ele>
        <time>2026-05-01T14:34:26.000Z</time>
      </trkpt>
      <trkpt lat="44.83587" lon="0.82249">
        <ele>161.1</ele>
        <time>2026-05-01T14:34:27.000Z</time>
      </trkpt>
      <trkpt lat="44.83587" lon="0.82251">
        <ele>162.8</ele>
        <time>2026-05-01T14:34:28.000Z</time>
      </trkpt>
      <trkpt lat="44.83587" lon="0.82253">
        <ele>162</ele>
        <time>2026-05-01T14:34:29.000Z</time>
      </trkpt>
      <trkpt lat="44.83587" lon="0.82254">
        <ele>161.4</ele>
        <time>2026-05-01T14:34:30.000Z</time>
      </trkpt>
      <trkpt lat="44.83587" lon="0.82257">
        <ele>161.2</ele>
        <time>2026-05-01T14:34:31.000Z</time>
      </trkpt>
      <trkpt lat="44.83587" lon="0.82259">
        <ele>161.4</ele>
        <time>2026-05-01T14:34:32.000Z</time>
      </trkpt>
      <trkpt lat="44.83587" lon="0.82262">
        <ele>161.1</ele>
        <time>2026-05-01T14:34:33.000Z</time>
      </trkpt>
      <trkpt lat="44.83586" lon="0.82264">
        <ele>161.1</ele>
        <time>2026-05-01T14:34:34.000Z</time>
      </trkpt>
      <trkpt lat="44.83587" lon="0.82266">
        <ele>161.1</ele>
        <time>2026-05-01T14:34:35.000Z</time>
      </trkpt>
      <trkpt lat="44.83587" lon="0.82268">
        <ele>159.7</ele>
        <time>2026-05-01T14:34:36.000Z</time>
      </trkpt>
      <trkpt lat="44.83587" lon="0.8227">
        <ele>159.6</ele>
        <time>2026-05-01T14:34:37.000Z</time>
      </trkpt>
      <trkpt lat="44.83588" lon="0.82272">
        <ele>159.7</ele>
        <time>2026-05-01T14:34:38.000Z</time>
      </trkpt>
      <trkpt lat="44.83588" lon="0.82273">
        <ele>160.2</ele>
        <time>2026-05-01T14:34:39.000Z</time>
      </trkpt>
      <trkpt lat="44.83589" lon="0.82275">
        <ele>161.1</ele>
        <time>2026-05-01T14:34:40.000Z</time>
      </trkpt>
      <trkpt lat="44.8359" lon="0.82277">
        <ele>163.1</ele>
        <time>2026-05-01T14:34:41.000Z</time>
      </trkpt>
      <trkpt lat="44.8359" lon="0.82274">
        <ele>159.1</ele>
        <time>2026-05-01T14:34:42.000Z</time>
      </trkpt>
      <trkpt lat="44.8359" lon="0.82273">
        <ele>159.1</ele>
        <time>2026-05-01T14:34:43.000Z</time>
      </trkpt>
      <trkpt lat="44.8359" lon="0.82273">
        <ele>159.1</ele>
        <time>2026-05-01T14:34:44.000Z</time>
      </trkpt>
      <trkpt lat="44.8359" lon="0.82273">
        <ele>159.1</ele>
        <time>2026-05-01T14:34:45.000Z</time>
      </trkpt>
      <trkpt lat="44.8359" lon="0.82273">
        <ele>159.1</ele>
        <time>2026-05-01T14:34:46.000Z</time>
      </trkpt>
      <trkpt lat="44.8359" lon="0.82273">
        <ele>159.1</ele>
        <time>2026-05-01T14:34:47.000Z</time>
      </trkpt>
      <trkpt lat="44.8359" lon="0.82273">
        <ele>159.1</ele>
        <time>2026-05-01T14:34:48.000Z</time>
      </trkpt>
      <trkpt lat="44.8359" lon="0.82273">
        <ele>159.1</ele>
        <time>2026-05-01T14:34:49.000Z</time>
      </trkpt>
      <trkpt lat="44.8359" lon="0.82273">
        <ele>159.1</ele>
        <time>2026-05-01T14:34:50.000Z</time>
      </trkpt>
      <trkpt lat="44.8359" lon="0.82273">
        <ele>159.1</ele>
        <time>2026-05-01T14:34:51.000Z</time>
      </trkpt>
      <trkpt lat="44.8359" lon="0.82273">
        <ele>159</ele>
        <time>2026-05-01T14:34:52.000Z</time>
      </trkpt>
      <trkpt lat="44.8359" lon="0.82273">
        <ele>159</ele>
        <time>2026-05-01T14:34:53.000Z</time>
      </trkpt>
      <trkpt lat="44.8359" lon="0.82274">
        <ele>160.8</ele>
        <time>2026-05-01T14:34:54.000Z</time>
      </trkpt>
      <trkpt lat="44.83591" lon="0.82276">
        <ele>161.2</ele>
        <time>2026-05-01T14:34:55.000Z</time>
      </trkpt>
      <trkpt lat="44.83591" lon="0.82277">
        <ele>161.2</ele>
        <time>2026-05-01T14:34:56.000Z</time>
      </trkpt>
      <trkpt lat="44.83591" lon="0.82277">
        <ele>161.1</ele>
        <time>2026-05-01T14:34:57.000Z</time>
      </trkpt>
      <trkpt lat="44.83591" lon="0.82277">
        <ele>160.9</ele>
        <time>2026-05-01T14:34:58.000Z</time>
      </trkpt>
      <trkpt lat="44.83591" lon="0.82278">
        <ele>160.5</ele>
        <time>2026-05-01T14:34:59.000Z</time>
      </trkpt>
      <trkpt lat="44.83591" lon="0.82279">
        <ele>160</ele>
        <time>2026-05-01T14:35:00.000Z</time>
      </trkpt>
      <trkpt lat="44.83591" lon="0.82281">
        <ele>159.2</ele>
        <time>2026-05-01T14:35:01.000Z</time>
      </trkpt>
      <trkpt lat="44.83591" lon="0.8228">
        <ele>159.4</ele>
        <time>2026-05-01T14:35:02.000Z</time>
      </trkpt>
      <trkpt lat="44.83591" lon="0.8228">
        <ele>159.5</ele>
        <time>2026-05-01T14:35:03.000Z</time>
      </trkpt>
      <trkpt lat="44.83591" lon="0.82279">
        <ele>159.5</ele>
        <time>2026-05-01T14:35:04.000Z</time>
      </trkpt>
      <trkpt lat="44.83591" lon="0.82279">
        <ele>159.4</ele>
        <time>2026-05-01T14:35:05.000Z</time>
      </trkpt>
      <trkpt lat="44.83591" lon="0.82279">
        <ele>159.5</ele>
        <time>2026-05-01T14:35:06.000Z</time>
      </trkpt>
      <trkpt lat="44.83592" lon="0.82279">
        <ele>159.6</ele>
        <time>2026-05-01T14:35:07.000Z</time>
      </trkpt>
      <trkpt lat="44.83592" lon="0.8228">
        <ele>159.5</ele>
        <time>2026-05-01T14:35:08.000Z</time>
      </trkpt>
      <trkpt lat="44.83593" lon="0.82281">
        <ele>159.8</ele>
        <time>2026-05-01T14:35:09.000Z</time>
      </trkpt>
      <trkpt lat="44.83593" lon="0.82283">
        <ele>161.2</ele>
        <time>2026-05-01T14:35:10.000Z</time>
      </trkpt>
      <trkpt lat="44.83594" lon="0.82284">
        <ele>161</ele>
        <time>2026-05-01T14:35:11.000Z</time>
      </trkpt>
      <trkpt lat="44.83596" lon="0.82285">
        <ele>160.4</ele>
        <time>2026-05-01T14:35:12.000Z</time>
      </trkpt>
      <trkpt lat="44.83598" lon="0.82287">
        <ele>160.2</ele>
        <time>2026-05-01T14:35:13.000Z</time>
      </trkpt>
      <trkpt lat="44.83599" lon="0.82289">
        <ele>159.9</ele>
        <time>2026-05-01T14:35:14.000Z</time>
      </trkpt>
      <trkpt lat="44.836" lon="0.82291">
        <ele>159.3</ele>
        <time>2026-05-01T14:35:15.000Z</time>
      </trkpt>
      <trkpt lat="44.83602" lon="0.82292">
        <ele>159.1</ele>
        <time>2026-05-01T14:35:16.000Z</time>
      </trkpt>
      <trkpt lat="44.83604" lon="0.82293">
        <ele>159.2</ele>
        <time>2026-05-01T14:35:17.000Z</time>
      </trkpt>
      <trkpt lat="44.83605" lon="0.82294">
        <ele>158.9</ele>
        <time>2026-05-01T14:35:18.000Z</time>
      </trkpt>
      <trkpt lat="44.83606" lon="0.82295">
        <ele>158</ele>
        <time>2026-05-01T14:35:19.000Z</time>
      </trkpt>
      <trkpt lat="44.83607" lon="0.82296">
        <ele>156.8</ele>
        <time>2026-05-01T14:35:20.000Z</time>
      </trkpt>
      <trkpt lat="44.83609" lon="0.82296">
        <ele>157.3</ele>
        <time>2026-05-01T14:35:21.000Z</time>
      </trkpt>
      <trkpt lat="44.83609" lon="0.82298">
        <ele>156.5</ele>
        <time>2026-05-01T14:35:22.000Z</time>
      </trkpt>
      <trkpt lat="44.8361" lon="0.823">
        <ele>156</ele>
        <time>2026-05-01T14:35:23.000Z</time>
      </trkpt>
      <trkpt lat="44.83612" lon="0.82302">
        <ele>156</ele>
        <time>2026-05-01T14:35:24.000Z</time>
      </trkpt>
      <trkpt lat="44.83614" lon="0.82305">
        <ele>155.2</ele>
        <time>2026-05-01T14:35:25.000Z</time>
      </trkpt>
      <trkpt lat="44.83616" lon="0.82307">
        <ele>154.2</ele>
        <time>2026-05-01T14:35:26.000Z</time>
      </trkpt>
      <trkpt lat="44.83617" lon="0.8231">
        <ele>153.4</ele>
        <time>2026-05-01T14:35:27.000Z</time>
      </trkpt>
      <trkpt lat="44.83619" lon="0.82313">
        <ele>152.3</ele>
        <time>2026-05-01T14:35:28.000Z</time>
      </trkpt>
      <trkpt lat="44.83622" lon="0.82315">
        <ele>152</ele>
        <time>2026-05-01T14:35:29.000Z</time>
      </trkpt>
      <trkpt lat="44.83624" lon="0.82316">
        <ele>151.8</ele>
        <time>2026-05-01T14:35:30.000Z</time>
      </trkpt>
      <trkpt lat="44.83626" lon="0.82318">
        <ele>151.5</ele>
        <time>2026-05-01T14:35:31.000Z</time>
      </trkpt>
      <trkpt lat="44.83629" lon="0.8232">
        <ele>150.9</ele>
        <time>2026-05-01T14:35:32.000Z</time>
      </trkpt>
      <trkpt lat="44.83631" lon="0.82321">
        <ele>150.2</ele>
        <time>2026-05-01T14:35:33.000Z</time>
      </trkpt>
      <trkpt lat="44.83633" lon="0.82323">
        <ele>150.7</ele>
        <time>2026-05-01T14:35:34.000Z</time>
      </trkpt>
      <trkpt lat="44.83636" lon="0.82325">
        <ele>151</ele>
        <time>2026-05-01T14:35:35.000Z</time>
      </trkpt>
      <trkpt lat="44.83638" lon="0.82329">
        <ele>151.3</ele>
        <time>2026-05-01T14:35:36.000Z</time>
      </trkpt>
      <trkpt lat="44.83639" lon="0.82332">
        <ele>150.3</ele>
        <time>2026-05-01T14:35:37.000Z</time>
      </trkpt>
      <trkpt lat="44.83641" lon="0.82336">
        <ele>150.8</ele>
        <time>2026-05-01T14:35:38.000Z</time>
      </trkpt>
      <trkpt lat="44.83643" lon="0.82338">
        <ele>151.1</ele>
        <time>2026-05-01T14:35:39.000Z</time>
      </trkpt>
      <trkpt lat="44.83644" lon="0.82342">
        <ele>150.8</ele>
        <time>2026-05-01T14:35:40.000Z</time>
      </trkpt>
      <trkpt lat="44.83644" lon="0.82346">
        <ele>150.4</ele>
        <time>2026-05-01T14:35:41.000Z</time>
      </trkpt>
      <trkpt lat="44.83645" lon="0.82349">
        <ele>149.4</ele>
        <time>2026-05-01T14:35:42.000Z</time>
      </trkpt>
      <trkpt lat="44.83646" lon="0.82354">
        <ele>150.7</ele>
        <time>2026-05-01T14:35:43.000Z</time>
      </trkpt>
      <trkpt lat="44.83648" lon="0.82357">
        <ele>150.3</ele>
        <time>2026-05-01T14:35:44.000Z</time>
      </trkpt>
      <trkpt lat="44.83649" lon="0.8236">
        <ele>149.7</ele>
        <time>2026-05-01T14:35:45.000Z</time>
      </trkpt>
      <trkpt lat="44.83651" lon="0.82364">
        <ele>149.4</ele>
        <time>2026-05-01T14:35:46.000Z</time>
      </trkpt>
      <trkpt lat="44.83653" lon="0.82367">
        <ele>150.2</ele>
        <time>2026-05-01T14:35:47.000Z</time>
      </trkpt>
      <trkpt lat="44.83655" lon="0.8237">
        <ele>150.2</ele>
        <time>2026-05-01T14:35:48.000Z</time>
      </trkpt>
      <trkpt lat="44.83657" lon="0.82374">
        <ele>149.8</ele>
        <time>2026-05-01T14:35:49.000Z</time>
      </trkpt>
      <trkpt lat="44.83659" lon="0.82377">
        <ele>150</ele>
        <time>2026-05-01T14:35:50.000Z</time>
      </trkpt>
      <trkpt lat="44.83661" lon="0.8238">
        <ele>149.6</ele>
        <time>2026-05-01T14:35:51.000Z</time>
      </trkpt>
      <trkpt lat="44.83663" lon="0.82383">
        <ele>148.9</ele>
        <time>2026-05-01T14:35:52.000Z</time>
      </trkpt>
      <trkpt lat="44.83665" lon="0.82385">
        <ele>149</ele>
        <time>2026-05-01T14:35:53.000Z</time>
      </trkpt>
      <trkpt lat="44.83667" lon="0.82388">
        <ele>148.1</ele>
        <time>2026-05-01T14:35:54.000Z</time>
      </trkpt>
      <trkpt lat="44.83669" lon="0.8239">
        <ele>148.2</ele>
        <time>2026-05-01T14:35:55.000Z</time>
      </trkpt>
      <trkpt lat="44.8367" lon="0.82393">
        <ele>147.5</ele>
        <time>2026-05-01T14:35:56.000Z</time>
      </trkpt>
      <trkpt lat="44.83671" lon="0.82395">
        <ele>147.7</ele>
        <time>2026-05-01T14:35:57.000Z</time>
      </trkpt>
      <trkpt lat="44.83672" lon="0.82397">
        <ele>147.5</ele>
        <time>2026-05-01T14:35:58.000Z</time>
      </trkpt>
      <trkpt lat="44.83673" lon="0.82399">
        <ele>147.3</ele>
        <time>2026-05-01T14:35:59.000Z</time>
      </trkpt>
      <trkpt lat="44.83674" lon="0.82401">
        <ele>149.4</ele>
        <time>2026-05-01T14:36:00.000Z</time>
      </trkpt>
      <trkpt lat="44.83674" lon="0.82403">
        <ele>148.8</ele>
        <time>2026-05-01T14:36:01.000Z</time>
      </trkpt>
      <trkpt lat="44.83675" lon="0.82404">
        <ele>148.9</ele>
        <time>2026-05-01T14:36:02.000Z</time>
      </trkpt>
      <trkpt lat="44.83676" lon="0.82406">
        <ele>148</ele>
        <time>2026-05-01T14:36:03.000Z</time>
      </trkpt>
      <trkpt lat="44.83676" lon="0.82407">
        <ele>147.4</ele>
        <time>2026-05-01T14:36:04.000Z</time>
      </trkpt>
      <trkpt lat="44.83676" lon="0.82409">
        <ele>146.6</ele>
        <time>2026-05-01T14:36:05.000Z</time>
      </trkpt>
      <trkpt lat="44.83677" lon="0.8241">
        <ele>146.6</ele>
        <time>2026-05-01T14:36:06.000Z</time>
      </trkpt>
      <trkpt lat="44.83677" lon="0.82412">
        <ele>146.5</ele>
        <time>2026-05-01T14:36:07.000Z</time>
      </trkpt>
      <trkpt lat="44.83678" lon="0.82415">
        <ele>147.8</ele>
        <time>2026-05-01T14:36:08.000Z</time>
      </trkpt>
      <trkpt lat="44.83679" lon="0.82417">
        <ele>147.9</ele>
        <time>2026-05-01T14:36:09.000Z</time>
      </trkpt>
      <trkpt lat="44.8368" lon="0.82419">
        <ele>147.8</ele>
        <time>2026-05-01T14:36:10.000Z</time>
      </trkpt>
      <trkpt lat="44.83681" lon="0.82421">
        <ele>147.8</ele>
        <time>2026-05-01T14:36:11.000Z</time>
      </trkpt>
      <trkpt lat="44.83682" lon="0.82423">
        <ele>147.5</ele>
        <time>2026-05-01T14:36:12.000Z</time>
      </trkpt>
      <trkpt lat="44.83683" lon="0.82424">
        <ele>148.6</ele>
        <time>2026-05-01T14:36:13.000Z</time>
      </trkpt>
      <trkpt lat="44.83685" lon="0.82425">
        <ele>147.7</ele>
        <time>2026-05-01T14:36:14.000Z</time>
      </trkpt>
      <trkpt lat="44.83686" lon="0.82426">
        <ele>148.9</ele>
        <time>2026-05-01T14:36:15.000Z</time>
      </trkpt>
      <trkpt lat="44.83687" lon="0.82428">
        <ele>149.5</ele>
        <time>2026-05-01T14:36:16.000Z</time>
      </trkpt>
      <trkpt lat="44.83689" lon="0.82428">
        <ele>149.2</ele>
        <time>2026-05-01T14:36:17.000Z</time>
      </trkpt>
      <trkpt lat="44.8369" lon="0.82429">
        <ele>149</ele>
        <time>2026-05-01T14:36:18.000Z</time>
      </trkpt>
      <trkpt lat="44.83691" lon="0.8243">
        <ele>148.8</ele>
        <time>2026-05-01T14:36:19.000Z</time>
      </trkpt>
      <trkpt lat="44.83692" lon="0.82431">
        <ele>149.3</ele>
        <time>2026-05-01T14:36:20.000Z</time>
      </trkpt>
      <trkpt lat="44.83693" lon="0.82431">
        <ele>149.2</ele>
        <time>2026-05-01T14:36:21.000Z</time>
      </trkpt>
      <trkpt lat="44.83693" lon="0.8243">
        <ele>146</ele>
        <time>2026-05-01T14:36:22.000Z</time>
      </trkpt>
      <trkpt lat="44.83693" lon="0.82428">
        <ele>146.1</ele>
        <time>2026-05-01T14:36:23.000Z</time>
      </trkpt>
      <trkpt lat="44.83693" lon="0.82428">
        <ele>146.1</ele>
        <time>2026-05-01T14:36:24.000Z</time>
      </trkpt>
      <trkpt lat="44.83693" lon="0.82428">
        <ele>146.1</ele>
        <time>2026-05-01T14:36:25.000Z</time>
      </trkpt>
      <trkpt lat="44.83693" lon="0.82428">
        <ele>146.1</ele>
        <time>2026-05-01T14:36:26.000Z</time>
      </trkpt>
      <trkpt lat="44.83693" lon="0.82428">
        <ele>146.1</ele>
        <time>2026-05-01T14:36:27.000Z</time>
      </trkpt>
      <trkpt lat="44.83693" lon="0.82428">
        <ele>146.1</ele>
        <time>2026-05-01T14:36:28.000Z</time>
      </trkpt>
      <trkpt lat="44.83693" lon="0.82428">
        <ele>146.1</ele>
        <time>2026-05-01T14:36:29.000Z</time>
      </trkpt>
      <trkpt lat="44.83693" lon="0.82428">
        <ele>146.1</ele>
        <time>2026-05-01T14:36:30.000Z</time>
      </trkpt>
      <trkpt lat="44.83693" lon="0.82428">
        <ele>146.2</ele>
        <time>2026-05-01T14:36:31.000Z</time>
      </trkpt>
      <trkpt lat="44.83693" lon="0.82428">
        <ele>146.2</ele>
        <time>2026-05-01T14:36:32.000Z</time>
      </trkpt>
      <trkpt lat="44.83693" lon="0.82428">
        <ele>146.2</ele>
        <time>2026-05-01T14:36:33.000Z</time>
      </trkpt>
      <trkpt lat="44.83693" lon="0.82428">
        <ele>146.2</ele>
        <time>2026-05-01T14:36:34.000Z</time>
      </trkpt>
      <trkpt lat="44.83693" lon="0.82428">
        <ele>146.2</ele>
        <time>2026-05-01T14:36:35.000Z</time>
      </trkpt>
      <trkpt lat="44.83693" lon="0.82428">
        <ele>146.2</ele>
        <time>2026-05-01T14:36:36.000Z</time>
      </trkpt>
      <trkpt lat="44.83693" lon="0.82428">
        <ele>146.2</ele>
        <time>2026-05-01T14:36:37.000Z</time>
      </trkpt>
      <trkpt lat="44.83693" lon="0.82428">
        <ele>146.2</ele>
        <time>2026-05-01T14:36:38.000Z</time>
      </trkpt>
      <trkpt lat="44.83693" lon="0.82428">
        <ele>146.2</ele>
        <time>2026-05-01T14:36:39.000Z</time>
      </trkpt>
      <trkpt lat="44.83693" lon="0.82428">
        <ele>146.2</ele>
        <time>2026-05-01T14:36:40.000Z</time>
      </trkpt>
      <trkpt lat="44.83693" lon="0.82428">
        <ele>146.2</ele>
        <time>2026-05-01T14:36:41.000Z</time>
      </trkpt>
      <trkpt lat="44.83693" lon="0.82428">
        <ele>146.6</ele>
        <time>2026-05-01T14:36:42.000Z</time>
      </trkpt>
      <trkpt lat="44.83693" lon="0.82428">
        <ele>146.6</ele>
        <time>2026-05-01T14:36:43.000Z</time>
      </trkpt>
      <trkpt lat="44.83693" lon="0.82428">
        <ele>146.6</ele>
        <time>2026-05-01T14:36:44.000Z</time>
      </trkpt>
      <trkpt lat="44.83693" lon="0.82428">
        <ele>146.6</ele>
        <time>2026-05-01T14:36:45.000Z</time>
      </trkpt>
      <trkpt lat="44.83693" lon="0.82429">
        <ele>147.6</ele>
        <time>2026-05-01T14:36:46.000Z</time>
      </trkpt>
      <trkpt lat="44.83694" lon="0.82428">
        <ele>147.6</ele>
        <time>2026-05-01T14:36:47.000Z</time>
      </trkpt>
      <trkpt lat="44.83694" lon="0.82428">
        <ele>147.6</ele>
        <time>2026-05-01T14:36:48.000Z</time>
      </trkpt>
      <trkpt lat="44.83694" lon="0.82428">
        <ele>147.6</ele>
        <time>2026-05-01T14:36:49.000Z</time>
      </trkpt>
      <trkpt lat="44.83694" lon="0.82428">
        <ele>147.6</ele>
        <time>2026-05-01T14:36:50.000Z</time>
      </trkpt>
      <trkpt lat="44.83694" lon="0.82428">
        <ele>147.6</ele>
        <time>2026-05-01T14:36:51.000Z</time>
      </trkpt>
      <trkpt lat="44.83694" lon="0.82428">
        <ele>147.6</ele>
        <time>2026-05-01T14:36:52.000Z</time>
      </trkpt>
      <trkpt lat="44.83694" lon="0.82428">
        <ele>147.6</ele>
        <time>2026-05-01T14:36:53.000Z</time>
      </trkpt>
      <trkpt lat="44.83694" lon="0.82428">
        <ele>147.6</ele>
        <time>2026-05-01T14:36:54.000Z</time>
      </trkpt>
      <trkpt lat="44.83694" lon="0.82428">
        <ele>147.6</ele>
        <time>2026-05-01T14:36:55.000Z</time>
      </trkpt>
      <trkpt lat="44.83694" lon="0.82428">
        <ele>147.6</ele>
        <time>2026-05-01T14:36:56.000Z</time>
      </trkpt>
      <trkpt lat="44.83693" lon="0.82429">
        <ele>147.9</ele>
        <time>2026-05-01T14:36:57.000Z</time>
      </trkpt>
      <trkpt lat="44.83692" lon="0.8243">
        <ele>149</ele>
        <time>2026-05-01T14:36:58.000Z</time>
      </trkpt>
      <trkpt lat="44.83691" lon="0.82431">
        <ele>148.7</ele>
        <time>2026-05-01T14:36:59.000Z</time>
      </trkpt>
      <trkpt lat="44.8369" lon="0.82431">
        <ele>148.4</ele>
        <time>2026-05-01T14:37:00.000Z</time>
      </trkpt>
      <trkpt lat="44.83689" lon="0.82432">
        <ele>148.3</ele>
        <time>2026-05-01T14:37:01.000Z</time>
      </trkpt>
      <trkpt lat="44.83687" lon="0.82433">
        <ele>148.1</ele>
        <time>2026-05-01T14:37:02.000Z</time>
      </trkpt>
      <trkpt lat="44.83685" lon="0.82433">
        <ele>148.2</ele>
        <time>2026-05-01T14:37:03.000Z</time>
      </trkpt>
      <trkpt lat="44.83684" lon="0.82438">
        <ele>146.8</ele>
        <time>2026-05-01T14:37:04.000Z</time>
      </trkpt>
      <trkpt lat="44.83682" lon="0.82437">
        <ele>147</ele>
        <time>2026-05-01T14:37:05.000Z</time>
      </trkpt>
      <trkpt lat="44.83681" lon="0.82436">
        <ele>147</ele>
        <time>2026-05-01T14:37:06.000Z</time>
      </trkpt>
      <trkpt lat="44.83679" lon="0.82435">
        <ele>146.6</ele>
        <time>2026-05-01T14:37:07.000Z</time>
      </trkpt>
      <trkpt lat="44.83677" lon="0.82435">
        <ele>146.8</ele>
        <time>2026-05-01T14:37:08.000Z</time>
      </trkpt>
      <trkpt lat="44.83676" lon="0.82434">
        <ele>146.6</ele>
        <time>2026-05-01T14:37:09.000Z</time>
      </trkpt>
      <trkpt lat="44.83674" lon="0.82434">
        <ele>146.2</ele>
        <time>2026-05-01T14:37:10.000Z</time>
      </trkpt>
      <trkpt lat="44.83673" lon="0.82433">
        <ele>146.2</ele>
        <time>2026-05-01T14:37:11.000Z</time>
      </trkpt>
      <trkpt lat="44.83672" lon="0.82433">
        <ele>146</ele>
        <time>2026-05-01T14:37:12.000Z</time>
      </trkpt>
      <trkpt lat="44.83671" lon="0.82432">
        <ele>146.1</ele>
        <time>2026-05-01T14:37:13.000Z</time>
      </trkpt>
      <trkpt lat="44.83669" lon="0.82432">
        <ele>146.3</ele>
        <time>2026-05-01T14:37:14.000Z</time>
      </trkpt>
      <trkpt lat="44.83668" lon="0.82432">
        <ele>147.1</ele>
        <time>2026-05-01T14:37:15.000Z</time>
      </trkpt>
      <trkpt lat="44.83666" lon="0.82432">
        <ele>147</ele>
        <time>2026-05-01T14:37:16.000Z</time>
      </trkpt>
      <trkpt lat="44.83665" lon="0.82432">
        <ele>147</ele>
        <time>2026-05-01T14:37:17.000Z</time>
      </trkpt>
      <trkpt lat="44.83664" lon="0.82432">
        <ele>147</ele>
        <time>2026-05-01T14:37:18.000Z</time>
      </trkpt>
      <trkpt lat="44.83663" lon="0.82431">
        <ele>146.7</ele>
        <time>2026-05-01T14:37:19.000Z</time>
      </trkpt>
      <trkpt lat="44.83662" lon="0.82431">
        <ele>146.2</ele>
        <time>2026-05-01T14:37:20.000Z</time>
      </trkpt>
      <trkpt lat="44.8366" lon="0.82431">
        <ele>145.8</ele>
        <time>2026-05-01T14:37:21.000Z</time>
      </trkpt>
      <trkpt lat="44.83659" lon="0.82431">
        <ele>145.5</ele>
        <time>2026-05-01T14:37:22.000Z</time>
      </trkpt>
      <trkpt lat="44.83657" lon="0.82431">
        <ele>145.3</ele>
        <time>2026-05-01T14:37:23.000Z</time>
      </trkpt>
      <trkpt lat="44.83656" lon="0.82431">
        <ele>145.4</ele>
        <time>2026-05-01T14:37:24.000Z</time>
      </trkpt>
      <trkpt lat="44.83655" lon="0.82431">
        <ele>145.5</ele>
        <time>2026-05-01T14:37:25.000Z</time>
      </trkpt>
      <trkpt lat="44.83653" lon="0.82431">
        <ele>145.7</ele>
        <time>2026-05-01T14:37:26.000Z</time>
      </trkpt>
      <trkpt lat="44.83652" lon="0.82431">
        <ele>145.4</ele>
        <time>2026-05-01T14:37:27.000Z</time>
      </trkpt>
      <trkpt lat="44.83651" lon="0.82431">
        <ele>144.9</ele>
        <time>2026-05-01T14:37:28.000Z</time>
      </trkpt>
      <trkpt lat="44.8365" lon="0.8243">
        <ele>144.4</ele>
        <time>2026-05-01T14:37:29.000Z</time>
      </trkpt>
      <trkpt lat="44.83648" lon="0.8243">
        <ele>143.9</ele>
        <time>2026-05-01T14:37:30.000Z</time>
      </trkpt>
      <trkpt lat="44.83647" lon="0.8243">
        <ele>143.3</ele>
        <time>2026-05-01T14:37:31.000Z</time>
      </trkpt>
      <trkpt lat="44.83646" lon="0.82429">
        <ele>143.1</ele>
        <time>2026-05-01T14:37:32.000Z</time>
      </trkpt>
      <trkpt lat="44.83644" lon="0.82429">
        <ele>143.1</ele>
        <time>2026-05-01T14:37:33.000Z</time>
      </trkpt>
      <trkpt lat="44.83643" lon="0.82428">
        <ele>143.5</ele>
        <time>2026-05-01T14:37:34.000Z</time>
      </trkpt>
      <trkpt lat="44.83641" lon="0.82427">
        <ele>142.6</ele>
        <time>2026-05-01T14:37:35.000Z</time>
      </trkpt>
      <trkpt lat="44.8364" lon="0.82426">
        <ele>141.8</ele>
        <time>2026-05-01T14:37:36.000Z</time>
      </trkpt>
      <trkpt lat="44.83638" lon="0.82425">
        <ele>141</ele>
        <time>2026-05-01T14:37:37.000Z</time>
      </trkpt>
      <trkpt lat="44.83637" lon="0.82424">
        <ele>140</ele>
        <time>2026-05-01T14:37:38.000Z</time>
      </trkpt>
      <trkpt lat="44.83637" lon="0.82423">
        <ele>140.4</ele>
        <time>2026-05-01T14:37:39.000Z</time>
      </trkpt>
      <trkpt lat="44.83635" lon="0.82422">
        <ele>139.1</ele>
        <time>2026-05-01T14:37:40.000Z</time>
      </trkpt>
      <trkpt lat="44.83634" lon="0.82421">
        <ele>137.7</ele>
        <time>2026-05-01T14:37:41.000Z</time>
      </trkpt>
      <trkpt lat="44.83633" lon="0.82419">
        <ele>137.9</ele>
        <time>2026-05-01T14:37:42.000Z</time>
      </trkpt>
      <trkpt lat="44.83631" lon="0.82418">
        <ele>137.3</ele>
        <time>2026-05-01T14:37:43.000Z</time>
      </trkpt>
      <trkpt lat="44.8363" lon="0.82416">
        <ele>137.3</ele>
        <time>2026-05-01T14:37:44.000Z</time>
      </trkpt>
      <trkpt lat="44.83629" lon="0.82415">
        <ele>136.6</ele>
        <time>2026-05-01T14:37:45.000Z</time>
      </trkpt>
      <trkpt lat="44.83628" lon="0.82414">
        <ele>136.2</ele>
        <time>2026-05-01T14:37:46.000Z</time>
      </trkpt>
      <trkpt lat="44.83626" lon="0.82413">
        <ele>136.2</ele>
        <time>2026-05-01T14:37:47.000Z</time>
      </trkpt>
      <trkpt lat="44.83625" lon="0.82411">
        <ele>135.7</ele>
        <time>2026-05-01T14:37:48.000Z</time>
      </trkpt>
      <trkpt lat="44.83624" lon="0.8241">
        <ele>135.4</ele>
        <time>2026-05-01T14:37:49.000Z</time>
      </trkpt>
      <trkpt lat="44.83623" lon="0.82408">
        <ele>134.5</ele>
        <time>2026-05-01T14:37:50.000Z</time>
      </trkpt>
      <trkpt lat="44.83622" lon="0.82407">
        <ele>134.1</ele>
        <time>2026-05-01T14:37:51.000Z</time>
      </trkpt>
      <trkpt lat="44.83621" lon="0.82405">
        <ele>133.2</ele>
        <time>2026-05-01T14:37:52.000Z</time>
      </trkpt>
      <trkpt lat="44.83619" lon="0.82404">
        <ele>133.1</ele>
        <time>2026-05-01T14:37:53.000Z</time>
      </trkpt>
      <trkpt lat="44.83618" lon="0.82403">
        <ele>133.2</ele>
        <time>2026-05-01T14:37:54.000Z</time>
      </trkpt>
      <trkpt lat="44.83616" lon="0.82402">
        <ele>132.9</ele>
        <time>2026-05-01T14:37:55.000Z</time>
      </trkpt>
      <trkpt lat="44.83615" lon="0.82401">
        <ele>132.9</ele>
        <time>2026-05-01T14:37:56.000Z</time>
      </trkpt>
      <trkpt lat="44.83613" lon="0.824">
        <ele>133.4</ele>
        <time>2026-05-01T14:37:57.000Z</time>
      </trkpt>
      <trkpt lat="44.83612" lon="0.82399">
        <ele>133.3</ele>
        <time>2026-05-01T14:37:58.000Z</time>
      </trkpt>
      <trkpt lat="44.83611" lon="0.82397">
        <ele>133.6</ele>
        <time>2026-05-01T14:37:59.000Z</time>
      </trkpt>
      <trkpt lat="44.83609" lon="0.82396">
        <ele>134</ele>
        <time>2026-05-01T14:38:00.000Z</time>
      </trkpt>
      <trkpt lat="44.83607" lon="0.82394">
        <ele>134.7</ele>
        <time>2026-05-01T14:38:01.000Z</time>
      </trkpt>
      <trkpt lat="44.83605" lon="0.82393">
        <ele>134.6</ele>
        <time>2026-05-01T14:38:02.000Z</time>
      </trkpt>
      <trkpt lat="44.83602" lon="0.82394">
        <ele>137.3</ele>
        <time>2026-05-01T14:38:03.000Z</time>
      </trkpt>
      <trkpt lat="44.83599" lon="0.82395">
        <ele>139.2</ele>
        <time>2026-05-01T14:38:04.000Z</time>
      </trkpt>
      <trkpt lat="44.83597" lon="0.82394">
        <ele>139.9</ele>
        <time>2026-05-01T14:38:05.000Z</time>
      </trkpt>
      <trkpt lat="44.83596" lon="0.82393">
        <ele>139.4</ele>
        <time>2026-05-01T14:38:06.000Z</time>
      </trkpt>
      <trkpt lat="44.83595" lon="0.82392">
        <ele>140.5</ele>
        <time>2026-05-01T14:38:07.000Z</time>
      </trkpt>
      <trkpt lat="44.83593" lon="0.82391">
        <ele>140.7</ele>
        <time>2026-05-01T14:38:08.000Z</time>
      </trkpt>
      <trkpt lat="44.83592" lon="0.82389">
        <ele>140.7</ele>
        <time>2026-05-01T14:38:09.000Z</time>
      </trkpt>
      <trkpt lat="44.83591" lon="0.82387">
        <ele>140.6</ele>
        <time>2026-05-01T14:38:10.000Z</time>
      </trkpt>
      <trkpt lat="44.83591" lon="0.82387">
        <ele>140.4</ele>
        <time>2026-05-01T14:38:11.000Z</time>
      </trkpt>
      <trkpt lat="44.83591" lon="0.82386">
        <ele>140.3</ele>
        <time>2026-05-01T14:38:12.000Z</time>
      </trkpt>
      <trkpt lat="44.83591" lon="0.82386">
        <ele>140.3</ele>
        <time>2026-05-01T14:38:13.000Z</time>
      </trkpt>
      <trkpt lat="44.83591" lon="0.82386">
        <ele>140.3</ele>
        <time>2026-05-01T14:38:14.000Z</time>
      </trkpt>
      <trkpt lat="44.83591" lon="0.82386">
        <ele>140.3</ele>
        <time>2026-05-01T14:38:15.000Z</time>
      </trkpt>
      <trkpt lat="44.83591" lon="0.82386">
        <ele>140.3</ele>
        <time>2026-05-01T14:38:16.000Z</time>
      </trkpt>
      <trkpt lat="44.83591" lon="0.82386">
        <ele>140.3</ele>
        <time>2026-05-01T14:38:17.000Z</time>
      </trkpt>
      <trkpt lat="44.83591" lon="0.82386">
        <ele>140.3</ele>
        <time>2026-05-01T14:38:18.000Z</time>
      </trkpt>
      <trkpt lat="44.83591" lon="0.82386">
        <ele>140</ele>
        <time>2026-05-01T14:38:19.000Z</time>
      </trkpt>
      <trkpt lat="44.8359" lon="0.82385">
        <ele>140</ele>
        <time>2026-05-01T14:38:20.000Z</time>
      </trkpt>
      <trkpt lat="44.83589" lon="0.82384">
        <ele>139.5</ele>
        <time>2026-05-01T14:38:21.000Z</time>
      </trkpt>
      <trkpt lat="44.83588" lon="0.82383">
        <ele>139.6</ele>
        <time>2026-05-01T14:38:22.000Z</time>
      </trkpt>
      <trkpt lat="44.83586" lon="0.82382">
        <ele>139.7</ele>
        <time>2026-05-01T14:38:23.000Z</time>
      </trkpt>
      <trkpt lat="44.83584" lon="0.82381">
        <ele>140.2</ele>
        <time>2026-05-01T14:38:24.000Z</time>
      </trkpt>
      <trkpt lat="44.83583" lon="0.8238">
        <ele>139.4</ele>
        <time>2026-05-01T14:38:25.000Z</time>
      </trkpt>
      <trkpt lat="44.83582" lon="0.82379">
        <ele>139.7</ele>
        <time>2026-05-01T14:38:26.000Z</time>
      </trkpt>
      <trkpt lat="44.83581" lon="0.82377">
        <ele>140.5</ele>
        <time>2026-05-01T14:38:27.000Z</time>
      </trkpt>
      <trkpt lat="44.83579" lon="0.82376">
        <ele>141.1</ele>
        <time>2026-05-01T14:38:28.000Z</time>
      </trkpt>
      <trkpt lat="44.83578" lon="0.82374">
        <ele>140.8</ele>
        <time>2026-05-01T14:38:29.000Z</time>
      </trkpt>
      <trkpt lat="44.83577" lon="0.82373">
        <ele>140.5</ele>
        <time>2026-05-01T14:38:30.000Z</time>
      </trkpt>
      <trkpt lat="44.83576" lon="0.82372">
        <ele>140.4</ele>
        <time>2026-05-01T14:38:31.000Z</time>
      </trkpt>
      <trkpt lat="44.83575" lon="0.82371">
        <ele>139.4</ele>
        <time>2026-05-01T14:38:32.000Z</time>
      </trkpt>
      <trkpt lat="44.83574" lon="0.82369">
        <ele>138.7</ele>
        <time>2026-05-01T14:38:33.000Z</time>
      </trkpt>
      <trkpt lat="44.83573" lon="0.82368">
        <ele>138.9</ele>
        <time>2026-05-01T14:38:34.000Z</time>
      </trkpt>
      <trkpt lat="44.83571" lon="0.82367">
        <ele>138.7</ele>
        <time>2026-05-01T14:38:35.000Z</time>
      </trkpt>
      <trkpt lat="44.83571" lon="0.82366">
        <ele>138</ele>
        <time>2026-05-01T14:38:36.000Z</time>
      </trkpt>
      <trkpt lat="44.8357" lon="0.82365">
        <ele>137.8</ele>
        <time>2026-05-01T14:38:37.000Z</time>
      </trkpt>
      <trkpt lat="44.83568" lon="0.82364">
        <ele>136.7</ele>
        <time>2026-05-01T14:38:38.000Z</time>
      </trkpt>
      <trkpt lat="44.83567" lon="0.82363">
        <ele>136</ele>
        <time>2026-05-01T14:38:39.000Z</time>
      </trkpt>
      <trkpt lat="44.83566" lon="0.82362">
        <ele>136.2</ele>
        <time>2026-05-01T14:38:40.000Z</time>
      </trkpt>
      <trkpt lat="44.83564" lon="0.82362">
        <ele>136.2</ele>
        <time>2026-05-01T14:38:41.000Z</time>
      </trkpt>
      <trkpt lat="44.83562" lon="0.82361">
        <ele>136</ele>
        <time>2026-05-01T14:38:42.000Z</time>
      </trkpt>
      <trkpt lat="44.83561" lon="0.8236">
        <ele>136.2</ele>
        <time>2026-05-01T14:38:43.000Z</time>
      </trkpt>
      <trkpt lat="44.83559" lon="0.82359">
        <ele>136.1</ele>
        <time>2026-05-01T14:38:44.000Z</time>
      </trkpt>
      <trkpt lat="44.83558" lon="0.82358">
        <ele>135.4</ele>
        <time>2026-05-01T14:38:45.000Z</time>
      </trkpt>
      <trkpt lat="44.83557" lon="0.82358">
        <ele>135</ele>
        <time>2026-05-01T14:38:46.000Z</time>
      </trkpt>
      <trkpt lat="44.83556" lon="0.82357">
        <ele>134.7</ele>
        <time>2026-05-01T14:38:47.000Z</time>
      </trkpt>
      <trkpt lat="44.83555" lon="0.82356">
        <ele>134.2</ele>
        <time>2026-05-01T14:38:48.000Z</time>
      </trkpt>
      <trkpt lat="44.83553" lon="0.82355">
        <ele>133.9</ele>
        <time>2026-05-01T14:38:49.000Z</time>
      </trkpt>
      <trkpt lat="44.83551" lon="0.82355">
        <ele>133.5</ele>
        <time>2026-05-01T14:38:50.000Z</time>
      </trkpt>
      <trkpt lat="44.8355" lon="0.82355">
        <ele>132.8</ele>
        <time>2026-05-01T14:38:51.000Z</time>
      </trkpt>
      <trkpt lat="44.83548" lon="0.82355">
        <ele>133.2</ele>
        <time>2026-05-01T14:38:52.000Z</time>
      </trkpt>
      <trkpt lat="44.83546" lon="0.82354">
        <ele>133.1</ele>
        <time>2026-05-01T14:38:53.000Z</time>
      </trkpt>
      <trkpt lat="44.83545" lon="0.82354">
        <ele>132.9</ele>
        <time>2026-05-01T14:38:54.000Z</time>
      </trkpt>
      <trkpt lat="44.83544" lon="0.82353">
        <ele>133</ele>
        <time>2026-05-01T14:38:55.000Z</time>
      </trkpt>
      <trkpt lat="44.83542" lon="0.82352">
        <ele>132.9</ele>
        <time>2026-05-01T14:38:56.000Z</time>
      </trkpt>
      <trkpt lat="44.83541" lon="0.8235">
        <ele>132</ele>
        <time>2026-05-01T14:38:57.000Z</time>
      </trkpt>
      <trkpt lat="44.8354" lon="0.82349">
        <ele>132</ele>
        <time>2026-05-01T14:38:58.000Z</time>
      </trkpt>
      <trkpt lat="44.83539" lon="0.82349">
        <ele>130.8</ele>
        <time>2026-05-01T14:38:59.000Z</time>
      </trkpt>
      <trkpt lat="44.83538" lon="0.8235">
        <ele>129.6</ele>
        <time>2026-05-01T14:39:00.000Z</time>
      </trkpt>
      <trkpt lat="44.83536" lon="0.8235">
        <ele>130.2</ele>
        <time>2026-05-01T14:39:01.000Z</time>
      </trkpt>
      <trkpt lat="44.83536" lon="0.82351">
        <ele>129.9</ele>
        <time>2026-05-01T14:39:02.000Z</time>
      </trkpt>
      <trkpt lat="44.83535" lon="0.82353">
        <ele>130</ele>
        <time>2026-05-01T14:39:03.000Z</time>
      </trkpt>
      <trkpt lat="44.83535" lon="0.82355">
        <ele>130.2</ele>
        <time>2026-05-01T14:39:04.000Z</time>
      </trkpt>
      <trkpt lat="44.83535" lon="0.82356">
        <ele>130</ele>
        <time>2026-05-01T14:39:05.000Z</time>
      </trkpt>
      <trkpt lat="44.83536" lon="0.82358">
        <ele>129.6</ele>
        <time>2026-05-01T14:39:06.000Z</time>
      </trkpt>
      <trkpt lat="44.83537" lon="0.82359">
        <ele>129.2</ele>
        <time>2026-05-01T14:39:07.000Z</time>
      </trkpt>
      <trkpt lat="44.83538" lon="0.8236">
        <ele>128.8</ele>
        <time>2026-05-01T14:39:08.000Z</time>
      </trkpt>
      <trkpt lat="44.83538" lon="0.82361">
        <ele>128.4</ele>
        <time>2026-05-01T14:39:09.000Z</time>
      </trkpt>
      <trkpt lat="44.83539" lon="0.82363">
        <ele>128.4</ele>
        <time>2026-05-01T14:39:10.000Z</time>
      </trkpt>
      <trkpt lat="44.8354" lon="0.82364">
        <ele>128</ele>
        <time>2026-05-01T14:39:11.000Z</time>
      </trkpt>
      <trkpt lat="44.83542" lon="0.82365">
        <ele>128.2</ele>
        <time>2026-05-01T14:39:12.000Z</time>
      </trkpt>
      <trkpt lat="44.83542" lon="0.82366">
        <ele>128.1</ele>
        <time>2026-05-01T14:39:13.000Z</time>
      </trkpt>
      <trkpt lat="44.83543" lon="0.82367">
        <ele>127.5</ele>
        <time>2026-05-01T14:39:14.000Z</time>
      </trkpt>
      <trkpt lat="44.83544" lon="0.82368">
        <ele>127</ele>
        <time>2026-05-01T14:39:15.000Z</time>
      </trkpt>
      <trkpt lat="44.83544" lon="0.82369">
        <ele>126.7</ele>
        <time>2026-05-01T14:39:16.000Z</time>
      </trkpt>
      <trkpt lat="44.83545" lon="0.82371">
        <ele>126.1</ele>
        <time>2026-05-01T14:39:17.000Z</time>
      </trkpt>
      <trkpt lat="44.83545" lon="0.82372">
        <ele>125.4</ele>
        <time>2026-05-01T14:39:18.000Z</time>
      </trkpt>
      <trkpt lat="44.83545" lon="0.82373">
        <ele>125.2</ele>
        <time>2026-05-01T14:39:19.000Z</time>
      </trkpt>
      <trkpt lat="44.83546" lon="0.82375">
        <ele>125</ele>
        <time>2026-05-01T14:39:20.000Z</time>
      </trkpt>
      <trkpt lat="44.83547" lon="0.82377">
        <ele>125.5</ele>
        <time>2026-05-01T14:39:21.000Z</time>
      </trkpt>
      <trkpt lat="44.83547" lon="0.82378">
        <ele>125.7</ele>
        <time>2026-05-01T14:39:22.000Z</time>
      </trkpt>
      <trkpt lat="44.83548" lon="0.82379">
        <ele>125.3</ele>
        <time>2026-05-01T14:39:23.000Z</time>
      </trkpt>
      <trkpt lat="44.83549" lon="0.8238">
        <ele>125.3</ele>
        <time>2026-05-01T14:39:24.000Z</time>
      </trkpt>
      <trkpt lat="44.83549" lon="0.82381">
        <ele>125.1</ele>
        <time>2026-05-01T14:39:25.000Z</time>
      </trkpt>
      <trkpt lat="44.8355" lon="0.82383">
        <ele>124.7</ele>
        <time>2026-05-01T14:39:26.000Z</time>
      </trkpt>
      <trkpt lat="44.83549" lon="0.82384">
        <ele>125.2</ele>
        <time>2026-05-01T14:39:27.000Z</time>
      </trkpt>
      <trkpt lat="44.83548" lon="0.82385">
        <ele>124.9</ele>
        <time>2026-05-01T14:39:28.000Z</time>
      </trkpt>
      <trkpt lat="44.83547" lon="0.82386">
        <ele>125</ele>
        <time>2026-05-01T14:39:29.000Z</time>
      </trkpt>
      <trkpt lat="44.83547" lon="0.82387">
        <ele>124.7</ele>
        <time>2026-05-01T14:39:30.000Z</time>
      </trkpt>
      <trkpt lat="44.83546" lon="0.82388">
        <ele>124.5</ele>
        <time>2026-05-01T14:39:31.000Z</time>
      </trkpt>
      <trkpt lat="44.83545" lon="0.82388">
        <ele>123.6</ele>
        <time>2026-05-01T14:39:32.000Z</time>
      </trkpt>
      <trkpt lat="44.83544" lon="0.82389">
        <ele>123.8</ele>
        <time>2026-05-01T14:39:33.000Z</time>
      </trkpt>
      <trkpt lat="44.83543" lon="0.8239">
        <ele>123</ele>
        <time>2026-05-01T14:39:34.000Z</time>
      </trkpt>
      <trkpt lat="44.83543" lon="0.82391">
        <ele>123.3</ele>
        <time>2026-05-01T14:39:35.000Z</time>
      </trkpt>
      <trkpt lat="44.83542" lon="0.82392">
        <ele>123.4</ele>
        <time>2026-05-01T14:39:36.000Z</time>
      </trkpt>
      <trkpt lat="44.83541" lon="0.82393">
        <ele>123</ele>
        <time>2026-05-01T14:39:37.000Z</time>
      </trkpt>
      <trkpt lat="44.83541" lon="0.82393">
        <ele>122.8</ele>
        <time>2026-05-01T14:39:38.000Z</time>
      </trkpt>
      <trkpt lat="44.8354" lon="0.82395">
        <ele>122.4</ele>
        <time>2026-05-01T14:39:39.000Z</time>
      </trkpt>
      <trkpt lat="44.8354" lon="0.82396">
        <ele>122.3</ele>
        <time>2026-05-01T14:39:40.000Z</time>
      </trkpt>
      <trkpt lat="44.83541" lon="0.82397">
        <ele>122.9</ele>
        <time>2026-05-01T14:39:41.000Z</time>
      </trkpt>
      <trkpt lat="44.83542" lon="0.82398">
        <ele>123.2</ele>
        <time>2026-05-01T14:39:42.000Z</time>
      </trkpt>
      <trkpt lat="44.83543" lon="0.82399">
        <ele>123.5</ele>
        <time>2026-05-01T14:39:43.000Z</time>
      </trkpt>
      <trkpt lat="44.83544" lon="0.824">
        <ele>123.9</ele>
        <time>2026-05-01T14:39:44.000Z</time>
      </trkpt>
      <trkpt lat="44.83545" lon="0.82401">
        <ele>124.1</ele>
        <time>2026-05-01T14:39:45.000Z</time>
      </trkpt>
      <trkpt lat="44.83546" lon="0.82402">
        <ele>124</ele>
        <time>2026-05-01T14:39:46.000Z</time>
      </trkpt>
      <trkpt lat="44.83546" lon="0.82402">
        <ele>124.1</ele>
        <time>2026-05-01T14:39:47.000Z</time>
      </trkpt>
      <trkpt lat="44.83546" lon="0.82403">
        <ele>125</ele>
        <time>2026-05-01T14:39:48.000Z</time>
      </trkpt>
      <trkpt lat="44.83546" lon="0.82405">
        <ele>126</ele>
        <time>2026-05-01T14:39:49.000Z</time>
      </trkpt>
      <trkpt lat="44.83546" lon="0.82404">
        <ele>125.5</ele>
        <time>2026-05-01T14:39:50.000Z</time>
      </trkpt>
      <trkpt lat="44.83547" lon="0.82406">
        <ele>125.5</ele>
        <time>2026-05-01T14:39:51.000Z</time>
      </trkpt>
      <trkpt lat="44.83547" lon="0.82407">
        <ele>125.2</ele>
        <time>2026-05-01T14:39:52.000Z</time>
      </trkpt>
      <trkpt lat="44.83548" lon="0.82408">
        <ele>124.8</ele>
        <time>2026-05-01T14:39:53.000Z</time>
      </trkpt>
      <trkpt lat="44.83549" lon="0.82409">
        <ele>124.6</ele>
        <time>2026-05-01T14:39:54.000Z</time>
      </trkpt>
      <trkpt lat="44.8355" lon="0.8241">
        <ele>123.8</ele>
        <time>2026-05-01T14:39:55.000Z</time>
      </trkpt>
      <trkpt lat="44.8355" lon="0.82412">
        <ele>123.2</ele>
        <time>2026-05-01T14:39:56.000Z</time>
      </trkpt>
      <trkpt lat="44.8355" lon="0.82413">
        <ele>122.6</ele>
        <time>2026-05-01T14:39:57.000Z</time>
      </trkpt>
      <trkpt lat="44.83551" lon="0.82415">
        <ele>122</ele>
        <time>2026-05-01T14:39:58.000Z</time>
      </trkpt>
      <trkpt lat="44.83551" lon="0.82416">
        <ele>121.3</ele>
        <time>2026-05-01T14:39:59.000Z</time>
      </trkpt>
      <trkpt lat="44.8355" lon="0.82418">
        <ele>121.7</ele>
        <time>2026-05-01T14:40:00.000Z</time>
      </trkpt>
      <trkpt lat="44.8355" lon="0.82419">
        <ele>121.9</ele>
        <time>2026-05-01T14:40:01.000Z</time>
      </trkpt>
      <trkpt lat="44.83549" lon="0.82421">
        <ele>121.6</ele>
        <time>2026-05-01T14:40:02.000Z</time>
      </trkpt>
      <trkpt lat="44.83548" lon="0.82423">
        <ele>121.1</ele>
        <time>2026-05-01T14:40:03.000Z</time>
      </trkpt>
      <trkpt lat="44.83548" lon="0.82424">
        <ele>120.4</ele>
        <time>2026-05-01T14:40:04.000Z</time>
      </trkpt>
      <trkpt lat="44.83547" lon="0.82426">
        <ele>119.9</ele>
        <time>2026-05-01T14:40:05.000Z</time>
      </trkpt>
      <trkpt lat="44.83547" lon="0.82427">
        <ele>119.5</ele>
        <time>2026-05-01T14:40:06.000Z</time>
      </trkpt>
      <trkpt lat="44.83546" lon="0.82429">
        <ele>119.1</ele>
        <time>2026-05-01T14:40:07.000Z</time>
      </trkpt>
      <trkpt lat="44.83545" lon="0.82431">
        <ele>119.2</ele>
        <time>2026-05-01T14:40:08.000Z</time>
      </trkpt>
      <trkpt lat="44.83544" lon="0.82433">
        <ele>119.1</ele>
        <time>2026-05-01T14:40:09.000Z</time>
      </trkpt>
      <trkpt lat="44.83543" lon="0.82435">
        <ele>119</ele>
        <time>2026-05-01T14:40:10.000Z</time>
      </trkpt>
      <trkpt lat="44.83543" lon="0.82437">
        <ele>119</ele>
        <time>2026-05-01T14:40:11.000Z</time>
      </trkpt>
      <trkpt lat="44.83542" lon="0.82438">
        <ele>118.7</ele>
        <time>2026-05-01T14:40:12.000Z</time>
      </trkpt>
      <trkpt lat="44.8354" lon="0.82444">
        <ele>120.5</ele>
        <time>2026-05-01T14:40:13.000Z</time>
      </trkpt>
      <trkpt lat="44.83539" lon="0.82446">
        <ele>120.5</ele>
        <time>2026-05-01T14:40:14.000Z</time>
      </trkpt>
      <trkpt lat="44.83538" lon="0.82448">
        <ele>120.6</ele>
        <time>2026-05-01T14:40:15.000Z</time>
      </trkpt>
      <trkpt lat="44.83537" lon="0.8245">
        <ele>120.5</ele>
        <time>2026-05-01T14:40:16.000Z</time>
      </trkpt>
      <trkpt lat="44.83536" lon="0.82452">
        <ele>120.2</ele>
        <time>2026-05-01T14:40:17.000Z</time>
      </trkpt>
      <trkpt lat="44.83535" lon="0.82454">
        <ele>120.4</ele>
        <time>2026-05-01T14:40:18.000Z</time>
      </trkpt>
      <trkpt lat="44.83534" lon="0.82456">
        <ele>120.4</ele>
        <time>2026-05-01T14:40:19.000Z</time>
      </trkpt>
      <trkpt lat="44.83533" lon="0.82457">
        <ele>120.5</ele>
        <time>2026-05-01T14:40:20.000Z</time>
      </trkpt>
      <trkpt lat="44.83532" lon="0.82459">
        <ele>120.9</ele>
        <time>2026-05-01T14:40:21.000Z</time>
      </trkpt>
      <trkpt lat="44.83531" lon="0.82461">
        <ele>121.1</ele>
        <time>2026-05-01T14:40:22.000Z</time>
      </trkpt>
      <trkpt lat="44.8353" lon="0.82463">
        <ele>121.4</ele>
        <time>2026-05-01T14:40:23.000Z</time>
      </trkpt>
      <trkpt lat="44.83529" lon="0.82464">
        <ele>121.5</ele>
        <time>2026-05-01T14:40:24.000Z</time>
      </trkpt>
      <trkpt lat="44.83528" lon="0.82466">
        <ele>121.7</ele>
        <time>2026-05-01T14:40:25.000Z</time>
      </trkpt>
      <trkpt lat="44.83527" lon="0.82468">
        <ele>121.8</ele>
        <time>2026-05-01T14:40:26.000Z</time>
      </trkpt>
      <trkpt lat="44.83526" lon="0.8247">
        <ele>121.8</ele>
        <time>2026-05-01T14:40:27.000Z</time>
      </trkpt>
      <trkpt lat="44.83525" lon="0.82472">
        <ele>122</ele>
        <time>2026-05-01T14:40:28.000Z</time>
      </trkpt>
      <trkpt lat="44.83523" lon="0.82473">
        <ele>122.1</ele>
        <time>2026-05-01T14:40:29.000Z</time>
      </trkpt>
      <trkpt lat="44.83522" lon="0.82475">
        <ele>122.1</ele>
        <time>2026-05-01T14:40:30.000Z</time>
      </trkpt>
      <trkpt lat="44.83521" lon="0.82476">
        <ele>122.2</ele>
        <time>2026-05-01T14:40:31.000Z</time>
      </trkpt>
      <trkpt lat="44.83519" lon="0.82478">
        <ele>122.4</ele>
        <time>2026-05-01T14:40:32.000Z</time>
      </trkpt>
      <trkpt lat="44.83518" lon="0.8248">
        <ele>122.4</ele>
        <time>2026-05-01T14:40:33.000Z</time>
      </trkpt>
      <trkpt lat="44.83517" lon="0.82482">
        <ele>122.6</ele>
        <time>2026-05-01T14:40:34.000Z</time>
      </trkpt>
      <trkpt lat="44.83516" lon="0.82484">
        <ele>122.6</ele>
        <time>2026-05-01T14:40:35.000Z</time>
      </trkpt>
      <trkpt lat="44.83515" lon="0.82487">
        <ele>122.8</ele>
        <time>2026-05-01T14:40:36.000Z</time>
      </trkpt>
      <trkpt lat="44.83514" lon="0.82489">
        <ele>122.9</ele>
        <time>2026-05-01T14:40:37.000Z</time>
      </trkpt>
      <trkpt lat="44.83513" lon="0.82491">
        <ele>123.1</ele>
        <time>2026-05-01T14:40:38.000Z</time>
      </trkpt>
      <trkpt lat="44.83512" lon="0.82493">
        <ele>123.6</ele>
        <time>2026-05-01T14:40:39.000Z</time>
      </trkpt>
      <trkpt lat="44.83511" lon="0.82495">
        <ele>124</ele>
        <time>2026-05-01T14:40:40.000Z</time>
      </trkpt>
      <trkpt lat="44.83511" lon="0.82497">
        <ele>123.6</ele>
        <time>2026-05-01T14:40:41.000Z</time>
      </trkpt>
      <trkpt lat="44.8351" lon="0.82499">
        <ele>123.8</ele>
        <time>2026-05-01T14:40:42.000Z</time>
      </trkpt>
      <trkpt lat="44.83509" lon="0.82501">
        <ele>123.7</ele>
        <time>2026-05-01T14:40:43.000Z</time>
      </trkpt>
      <trkpt lat="44.8351" lon="0.82503">
        <ele>124</ele>
        <time>2026-05-01T14:40:44.000Z</time>
      </trkpt>
      <trkpt lat="44.83508" lon="0.82505">
        <ele>124.3</ele>
        <time>2026-05-01T14:40:45.000Z</time>
      </trkpt>
      <trkpt lat="44.83508" lon="0.82507">
        <ele>124.4</ele>
        <time>2026-05-01T14:40:46.000Z</time>
      </trkpt>
      <trkpt lat="44.83506" lon="0.82509">
        <ele>124.7</ele>
        <time>2026-05-01T14:40:47.000Z</time>
      </trkpt>
      <trkpt lat="44.83505" lon="0.82511">
        <ele>124.8</ele>
        <time>2026-05-01T14:40:48.000Z</time>
      </trkpt>
      <trkpt lat="44.83504" lon="0.82513">
        <ele>124.8</ele>
        <time>2026-05-01T14:40:49.000Z</time>
      </trkpt>
      <trkpt lat="44.83504" lon="0.82515">
        <ele>125</ele>
        <time>2026-05-01T14:40:50.000Z</time>
      </trkpt>
      <trkpt lat="44.83502" lon="0.82517">
        <ele>125.1</ele>
        <time>2026-05-01T14:40:51.000Z</time>
      </trkpt>
      <trkpt lat="44.83501" lon="0.82519">
        <ele>125.2</ele>
        <time>2026-05-01T14:40:52.000Z</time>
      </trkpt>
      <trkpt lat="44.835" lon="0.82521">
        <ele>125.2</ele>
        <time>2026-05-01T14:40:53.000Z</time>
      </trkpt>
      <trkpt lat="44.83498" lon="0.82524">
        <ele>125.2</ele>
        <time>2026-05-01T14:40:54.000Z</time>
      </trkpt>
      <trkpt lat="44.83497" lon="0.82527">
        <ele>125.5</ele>
        <time>2026-05-01T14:40:55.000Z</time>
      </trkpt>
      <trkpt lat="44.83495" lon="0.8253">
        <ele>125.8</ele>
        <time>2026-05-01T14:40:56.000Z</time>
      </trkpt>
      <trkpt lat="44.83493" lon="0.82532">
        <ele>126</ele>
        <time>2026-05-01T14:40:57.000Z</time>
      </trkpt>
      <trkpt lat="44.8349" lon="0.82536">
        <ele>125.8</ele>
        <time>2026-05-01T14:40:58.000Z</time>
      </trkpt>
      <trkpt lat="44.83488" lon="0.82538">
        <ele>126.8</ele>
        <time>2026-05-01T14:40:59.000Z</time>
      </trkpt>
      <trkpt lat="44.83487" lon="0.82541">
        <ele>126.9</ele>
        <time>2026-05-01T14:41:00.000Z</time>
      </trkpt>
      <trkpt lat="44.83485" lon="0.82545">
        <ele>127.3</ele>
        <time>2026-05-01T14:41:01.000Z</time>
      </trkpt>
      <trkpt lat="44.83483" lon="0.82549">
        <ele>127.3</ele>
        <time>2026-05-01T14:41:02.000Z</time>
      </trkpt>
      <trkpt lat="44.83482" lon="0.82553">
        <ele>127.4</ele>
        <time>2026-05-01T14:41:03.000Z</time>
      </trkpt>
      <trkpt lat="44.8348" lon="0.82557">
        <ele>128</ele>
        <time>2026-05-01T14:41:04.000Z</time>
      </trkpt>
      <trkpt lat="44.83479" lon="0.82561">
        <ele>128.3</ele>
        <time>2026-05-01T14:41:05.000Z</time>
      </trkpt>
      <trkpt lat="44.83477" lon="0.82565">
        <ele>129</ele>
        <time>2026-05-01T14:41:06.000Z</time>
      </trkpt>
      <trkpt lat="44.83476" lon="0.82568">
        <ele>129.2</ele>
        <time>2026-05-01T14:41:07.000Z</time>
      </trkpt>
      <trkpt lat="44.83475" lon="0.82572">
        <ele>129.9</ele>
        <time>2026-05-01T14:41:08.000Z</time>
      </trkpt>
      <trkpt lat="44.83473" lon="0.82575">
        <ele>130.6</ele>
        <time>2026-05-01T14:41:09.000Z</time>
      </trkpt>
      <trkpt lat="44.83471" lon="0.82578">
        <ele>130.9</ele>
        <time>2026-05-01T14:41:10.000Z</time>
      </trkpt>
      <trkpt lat="44.83468" lon="0.8258">
        <ele>131.8</ele>
        <time>2026-05-01T14:41:11.000Z</time>
      </trkpt>
      <trkpt lat="44.83466" lon="0.82583">
        <ele>132.2</ele>
        <time>2026-05-01T14:41:12.000Z</time>
      </trkpt>
      <trkpt lat="44.83463" lon="0.82586">
        <ele>132.7</ele>
        <time>2026-05-01T14:41:13.000Z</time>
      </trkpt>
      <trkpt lat="44.8346" lon="0.82589">
        <ele>132.6</ele>
        <time>2026-05-01T14:41:14.000Z</time>
      </trkpt>
      <trkpt lat="44.83457" lon="0.82591">
        <ele>133.2</ele>
        <time>2026-05-01T14:41:15.000Z</time>
      </trkpt>
      <trkpt lat="44.83454" lon="0.82594">
        <ele>133.2</ele>
        <time>2026-05-01T14:41:16.000Z</time>
      </trkpt>
      <trkpt lat="44.83451" lon="0.82595">
        <ele>132.9</ele>
        <time>2026-05-01T14:41:17.000Z</time>
      </trkpt>
      <trkpt lat="44.83448" lon="0.82597">
        <ele>133.4</ele>
        <time>2026-05-01T14:41:18.000Z</time>
      </trkpt>
      <trkpt lat="44.83445" lon="0.826">
        <ele>133.7</ele>
        <time>2026-05-01T14:41:19.000Z</time>
      </trkpt>
      <trkpt lat="44.83441" lon="0.82602">
        <ele>133.4</ele>
        <time>2026-05-01T14:41:20.000Z</time>
      </trkpt>
      <trkpt lat="44.83437" lon="0.82605">
        <ele>133.2</ele>
        <time>2026-05-01T14:41:21.000Z</time>
      </trkpt>
      <trkpt lat="44.83432" lon="0.82607">
        <ele>131.7</ele>
        <time>2026-05-01T14:41:22.000Z</time>
      </trkpt>
      <trkpt lat="44.83427" lon="0.8261">
        <ele>130.8</ele>
        <time>2026-05-01T14:41:23.000Z</time>
      </trkpt>
      <trkpt lat="44.83422" lon="0.82612">
        <ele>130.4</ele>
        <time>2026-05-01T14:41:24.000Z</time>
      </trkpt>
      <trkpt lat="44.83417" lon="0.82614">
        <ele>130.4</ele>
        <time>2026-05-01T14:41:25.000Z</time>
      </trkpt>
      <trkpt lat="44.83413" lon="0.82616">
        <ele>130.1</ele>
        <time>2026-05-01T14:41:26.000Z</time>
      </trkpt>
      <trkpt lat="44.83407" lon="0.82618">
        <ele>129.2</ele>
        <time>2026-05-01T14:41:27.000Z</time>
      </trkpt>
      <trkpt lat="44.83402" lon="0.8262">
        <ele>129.6</ele>
        <time>2026-05-01T14:41:28.000Z</time>
      </trkpt>
      <trkpt lat="44.83396" lon="0.82622">
        <ele>130.6</ele>
        <time>2026-05-01T14:41:29.000Z</time>
      </trkpt>
      <trkpt lat="44.83391" lon="0.82625">
        <ele>130.5</ele>
        <time>2026-05-01T14:41:30.000Z</time>
      </trkpt>
      <trkpt lat="44.83386" lon="0.8263">
        <ele>133.4</ele>
        <time>2026-05-01T14:41:31.000Z</time>
      </trkpt>
      <trkpt lat="44.83381" lon="0.82633">
        <ele>134.4</ele>
        <time>2026-05-01T14:41:32.000Z</time>
      </trkpt>
      <trkpt lat="44.83376" lon="0.82637">
        <ele>134.7</ele>
        <time>2026-05-01T14:41:33.000Z</time>
      </trkpt>
      <trkpt lat="44.83372" lon="0.82639">
        <ele>135.2</ele>
        <time>2026-05-01T14:41:34.000Z</time>
      </trkpt>
      <trkpt lat="44.83368" lon="0.82641">
        <ele>135.5</ele>
        <time>2026-05-01T14:41:35.000Z</time>
      </trkpt>
      <trkpt lat="44.83364" lon="0.82643">
        <ele>136.3</ele>
        <time>2026-05-01T14:41:36.000Z</time>
      </trkpt>
      <trkpt lat="44.8336" lon="0.82645">
        <ele>136.9</ele>
        <time>2026-05-01T14:41:37.000Z</time>
      </trkpt>
      <trkpt lat="44.83359" lon="0.82649">
        <ele>141</ele>
        <time>2026-05-01T14:41:38.000Z</time>
      </trkpt>
      <trkpt lat="44.83357" lon="0.82652">
        <ele>141.8</ele>
        <time>2026-05-01T14:41:39.000Z</time>
      </trkpt>
      <trkpt lat="44.83355" lon="0.82654">
        <ele>142.9</ele>
        <time>2026-05-01T14:41:40.000Z</time>
      </trkpt>
      <trkpt lat="44.83352" lon="0.82657">
        <ele>143.9</ele>
        <time>2026-05-01T14:41:41.000Z</time>
      </trkpt>
      <trkpt lat="44.83348" lon="0.8266">
        <ele>144.8</ele>
        <time>2026-05-01T14:41:42.000Z</time>
      </trkpt>
      <trkpt lat="44.83345" lon="0.82663">
        <ele>145.2</ele>
        <time>2026-05-01T14:41:43.000Z</time>
      </trkpt>
      <trkpt lat="44.83341" lon="0.82664">
        <ele>146</ele>
        <time>2026-05-01T14:41:44.000Z</time>
      </trkpt>
      <trkpt lat="44.83338" lon="0.82665">
        <ele>146.1</ele>
        <time>2026-05-01T14:41:45.000Z</time>
      </trkpt>
      <trkpt lat="44.83335" lon="0.82666">
        <ele>146.6</ele>
        <time>2026-05-01T14:41:46.000Z</time>
      </trkpt>
      <trkpt lat="44.83332" lon="0.82667">
        <ele>146.8</ele>
        <time>2026-05-01T14:41:47.000Z</time>
      </trkpt>
      <trkpt lat="44.8333" lon="0.82668">
        <ele>147.3</ele>
        <time>2026-05-01T14:41:48.000Z</time>
      </trkpt>
      <trkpt lat="44.83327" lon="0.82669">
        <ele>148.2</ele>
        <time>2026-05-01T14:41:49.000Z</time>
      </trkpt>
      <trkpt lat="44.83325" lon="0.8267">
        <ele>149</ele>
        <time>2026-05-01T14:41:50.000Z</time>
      </trkpt>
      <trkpt lat="44.83323" lon="0.82671">
        <ele>148.8</ele>
        <time>2026-05-01T14:41:51.000Z</time>
      </trkpt>
      <trkpt lat="44.83321" lon="0.82671">
        <ele>146.7</ele>
        <time>2026-05-01T14:41:52.000Z</time>
      </trkpt>
      <trkpt lat="44.8332" lon="0.8267">
        <ele>146</ele>
        <time>2026-05-01T14:41:53.000Z</time>
      </trkpt>
      <trkpt lat="44.83318" lon="0.82671">
        <ele>146</ele>
        <time>2026-05-01T14:41:54.000Z</time>
      </trkpt>
      <trkpt lat="44.83317" lon="0.82672">
        <ele>145.6</ele>
        <time>2026-05-01T14:41:55.000Z</time>
      </trkpt>
      <trkpt lat="44.83315" lon="0.82673">
        <ele>145.5</ele>
        <time>2026-05-01T14:41:56.000Z</time>
      </trkpt>
      <trkpt lat="44.83313" lon="0.82674">
        <ele>146.2</ele>
        <time>2026-05-01T14:41:57.000Z</time>
      </trkpt>
      <trkpt lat="44.83312" lon="0.82674">
        <ele>146.2</ele>
        <time>2026-05-01T14:41:58.000Z</time>
      </trkpt>
      <trkpt lat="44.83311" lon="0.82675">
        <ele>147.2</ele>
        <time>2026-05-01T14:41:59.000Z</time>
      </trkpt>
      <trkpt lat="44.83309" lon="0.82676">
        <ele>148.2</ele>
        <time>2026-05-01T14:42:00.000Z</time>
      </trkpt>
      <trkpt lat="44.83308" lon="0.82677">
        <ele>149.6</ele>
        <time>2026-05-01T14:42:01.000Z</time>
      </trkpt>
      <trkpt lat="44.83306" lon="0.82678">
        <ele>149.5</ele>
        <time>2026-05-01T14:42:02.000Z</time>
      </trkpt>
      <trkpt lat="44.83305" lon="0.82679">
        <ele>148.6</ele>
        <time>2026-05-01T14:42:03.000Z</time>
      </trkpt>
      <trkpt lat="44.83303" lon="0.8268">
        <ele>149.4</ele>
        <time>2026-05-01T14:42:04.000Z</time>
      </trkpt>
      <trkpt lat="44.83302" lon="0.8268">
        <ele>149.2</ele>
        <time>2026-05-01T14:42:05.000Z</time>
      </trkpt>
      <trkpt lat="44.833" lon="0.82681">
        <ele>147.8</ele>
        <time>2026-05-01T14:42:06.000Z</time>
      </trkpt>
      <trkpt lat="44.83299" lon="0.82683">
        <ele>146.8</ele>
        <time>2026-05-01T14:42:07.000Z</time>
      </trkpt>
      <trkpt lat="44.83297" lon="0.82684">
        <ele>146.3</ele>
        <time>2026-05-01T14:42:08.000Z</time>
      </trkpt>
      <trkpt lat="44.83296" lon="0.82685">
        <ele>145.9</ele>
        <time>2026-05-01T14:42:09.000Z</time>
      </trkpt>
      <trkpt lat="44.83294" lon="0.82687">
        <ele>146.1</ele>
        <time>2026-05-01T14:42:10.000Z</time>
      </trkpt>
      <trkpt lat="44.83293" lon="0.82688">
        <ele>146</ele>
        <time>2026-05-01T14:42:11.000Z</time>
      </trkpt>
      <trkpt lat="44.83291" lon="0.82689">
        <ele>147.7</ele>
        <time>2026-05-01T14:42:12.000Z</time>
      </trkpt>
      <trkpt lat="44.83289" lon="0.8269">
        <ele>148.5</ele>
        <time>2026-05-01T14:42:13.000Z</time>
      </trkpt>
      <trkpt lat="44.83287" lon="0.82691">
        <ele>149</ele>
        <time>2026-05-01T14:42:14.000Z</time>
      </trkpt>
      <trkpt lat="44.83286" lon="0.82692">
        <ele>149.6</ele>
        <time>2026-05-01T14:42:15.000Z</time>
      </trkpt>
      <trkpt lat="44.83284" lon="0.82693">
        <ele>149.3</ele>
        <time>2026-05-01T14:42:16.000Z</time>
      </trkpt>
      <trkpt lat="44.83282" lon="0.82694">
        <ele>149.2</ele>
        <time>2026-05-01T14:42:17.000Z</time>
      </trkpt>
      <trkpt lat="44.83281" lon="0.82699">
        <ele>151.4</ele>
        <time>2026-05-01T14:42:18.000Z</time>
      </trkpt>
      <trkpt lat="44.83281" lon="0.82701">
        <ele>150.9</ele>
        <time>2026-05-01T14:42:19.000Z</time>
      </trkpt>
      <trkpt lat="44.83281" lon="0.82703">
        <ele>150.4</ele>
        <time>2026-05-01T14:42:20.000Z</time>
      </trkpt>
      <trkpt lat="44.8328" lon="0.82704">
        <ele>150.6</ele>
        <time>2026-05-01T14:42:21.000Z</time>
      </trkpt>
      <trkpt lat="44.83279" lon="0.82707">
        <ele>149.5</ele>
        <time>2026-05-01T14:42:22.000Z</time>
      </trkpt>
      <trkpt lat="44.83278" lon="0.82709">
        <ele>149.2</ele>
        <time>2026-05-01T14:42:23.000Z</time>
      </trkpt>
      <trkpt lat="44.83277" lon="0.8271">
        <ele>147.5</ele>
        <time>2026-05-01T14:42:24.000Z</time>
      </trkpt>
      <trkpt lat="44.83275" lon="0.82712">
        <ele>148.3</ele>
        <time>2026-05-01T14:42:25.000Z</time>
      </trkpt>
      <trkpt lat="44.83274" lon="0.82713">
        <ele>148.5</ele>
        <time>2026-05-01T14:42:26.000Z</time>
      </trkpt>
      <trkpt lat="44.83272" lon="0.82714">
        <ele>147.6</ele>
        <time>2026-05-01T14:42:27.000Z</time>
      </trkpt>
      <trkpt lat="44.83271" lon="0.82714">
        <ele>147.2</ele>
        <time>2026-05-01T14:42:28.000Z</time>
      </trkpt>
      <trkpt lat="44.83269" lon="0.82715">
        <ele>147.1</ele>
        <time>2026-05-01T14:42:29.000Z</time>
      </trkpt>
      <trkpt lat="44.83268" lon="0.82716">
        <ele>146.5</ele>
        <time>2026-05-01T14:42:30.000Z</time>
      </trkpt>
      <trkpt lat="44.83267" lon="0.82716">
        <ele>147.8</ele>
        <time>2026-05-01T14:42:31.000Z</time>
      </trkpt>
      <trkpt lat="44.83267" lon="0.82717">
        <ele>148.9</ele>
        <time>2026-05-01T14:42:32.000Z</time>
      </trkpt>
      <trkpt lat="44.83266" lon="0.82719">
        <ele>149.7</ele>
        <time>2026-05-01T14:42:33.000Z</time>
      </trkpt>
      <trkpt lat="44.83264" lon="0.82721">
        <ele>150.3</ele>
        <time>2026-05-01T14:42:34.000Z</time>
      </trkpt>
      <trkpt lat="44.83263" lon="0.82722">
        <ele>150.7</ele>
        <time>2026-05-01T14:42:35.000Z</time>
      </trkpt>
      <trkpt lat="44.83262" lon="0.82723">
        <ele>150.8</ele>
        <time>2026-05-01T14:42:36.000Z</time>
      </trkpt>
      <trkpt lat="44.8326" lon="0.82724">
        <ele>150.5</ele>
        <time>2026-05-01T14:42:37.000Z</time>
      </trkpt>
      <trkpt lat="44.83259" lon="0.82725">
        <ele>151.5</ele>
        <time>2026-05-01T14:42:38.000Z</time>
      </trkpt>
      <trkpt lat="44.83258" lon="0.82727">
        <ele>151.7</ele>
        <time>2026-05-01T14:42:39.000Z</time>
      </trkpt>
      <trkpt lat="44.83257" lon="0.8273">
        <ele>151.7</ele>
        <time>2026-05-01T14:42:40.000Z</time>
      </trkpt>
      <trkpt lat="44.83256" lon="0.82732">
        <ele>151.9</ele>
        <time>2026-05-01T14:42:41.000Z</time>
      </trkpt>
      <trkpt lat="44.83255" lon="0.82734">
        <ele>152.6</ele>
        <time>2026-05-01T14:42:42.000Z</time>
      </trkpt>
      <trkpt lat="44.83254" lon="0.82736">
        <ele>152.5</ele>
        <time>2026-05-01T14:42:43.000Z</time>
      </trkpt>
      <trkpt lat="44.83252" lon="0.82738">
        <ele>153.2</ele>
        <time>2026-05-01T14:42:44.000Z</time>
      </trkpt>
      <trkpt lat="44.83251" lon="0.82739">
        <ele>153.4</ele>
        <time>2026-05-01T14:42:45.000Z</time>
      </trkpt>
      <trkpt lat="44.8325" lon="0.82741">
        <ele>154.1</ele>
        <time>2026-05-01T14:42:46.000Z</time>
      </trkpt>
      <trkpt lat="44.83249" lon="0.82743">
        <ele>154.2</ele>
        <time>2026-05-01T14:42:47.000Z</time>
      </trkpt>
      <trkpt lat="44.83248" lon="0.82744">
        <ele>153.7</ele>
        <time>2026-05-01T14:42:48.000Z</time>
      </trkpt>
      <trkpt lat="44.83247" lon="0.82745">
        <ele>153.5</ele>
        <time>2026-05-01T14:42:49.000Z</time>
      </trkpt>
      <trkpt lat="44.83245" lon="0.82747">
        <ele>153.3</ele>
        <time>2026-05-01T14:42:50.000Z</time>
      </trkpt>
      <trkpt lat="44.83244" lon="0.82748">
        <ele>153.5</ele>
        <time>2026-05-01T14:42:51.000Z</time>
      </trkpt>
      <trkpt lat="44.83243" lon="0.8275">
        <ele>153.4</ele>
        <time>2026-05-01T14:42:52.000Z</time>
      </trkpt>
      <trkpt lat="44.83242" lon="0.82752">
        <ele>154.4</ele>
        <time>2026-05-01T14:42:53.000Z</time>
      </trkpt>
      <trkpt lat="44.83241" lon="0.82754">
        <ele>153.9</ele>
        <time>2026-05-01T14:42:54.000Z</time>
      </trkpt>
      <trkpt lat="44.8324" lon="0.82757">
        <ele>154.2</ele>
        <time>2026-05-01T14:42:55.000Z</time>
      </trkpt>
      <trkpt lat="44.8324" lon="0.82759">
        <ele>154.5</ele>
        <time>2026-05-01T14:42:56.000Z</time>
      </trkpt>
      <trkpt lat="44.83239" lon="0.82762">
        <ele>154.8</ele>
        <time>2026-05-01T14:42:57.000Z</time>
      </trkpt>
      <trkpt lat="44.83238" lon="0.82764">
        <ele>154.4</ele>
        <time>2026-05-01T14:42:58.000Z</time>
      </trkpt>
      <trkpt lat="44.83237" lon="0.82766">
        <ele>155.8</ele>
        <time>2026-05-01T14:42:59.000Z</time>
      </trkpt>
      <trkpt lat="44.83236" lon="0.82769">
        <ele>156.3</ele>
        <time>2026-05-01T14:43:00.000Z</time>
      </trkpt>
      <trkpt lat="44.83235" lon="0.8277">
        <ele>156.5</ele>
        <time>2026-05-01T14:43:01.000Z</time>
      </trkpt>
      <trkpt lat="44.83234" lon="0.82772">
        <ele>156.7</ele>
        <time>2026-05-01T14:43:02.000Z</time>
      </trkpt>
      <trkpt lat="44.83233" lon="0.82774">
        <ele>156.1</ele>
        <time>2026-05-01T14:43:03.000Z</time>
      </trkpt>
      <trkpt lat="44.83232" lon="0.82776">
        <ele>157</ele>
        <time>2026-05-01T14:43:04.000Z</time>
      </trkpt>
      <trkpt lat="44.83232" lon="0.82778">
        <ele>158.1</ele>
        <time>2026-05-01T14:43:05.000Z</time>
      </trkpt>
      <trkpt lat="44.83231" lon="0.82779">
        <ele>158.5</ele>
        <time>2026-05-01T14:43:06.000Z</time>
      </trkpt>
      <trkpt lat="44.8323" lon="0.82781">
        <ele>159.4</ele>
        <time>2026-05-01T14:43:07.000Z</time>
      </trkpt>
      <trkpt lat="44.83229" lon="0.82783">
        <ele>159.8</ele>
        <time>2026-05-01T14:43:08.000Z</time>
      </trkpt>
      <trkpt lat="44.83229" lon="0.82784">
        <ele>159.6</ele>
        <time>2026-05-01T14:43:09.000Z</time>
      </trkpt>
      <trkpt lat="44.83228" lon="0.82785">
        <ele>159.8</ele>
        <time>2026-05-01T14:43:10.000Z</time>
      </trkpt>
      <trkpt lat="44.83227" lon="0.82786">
        <ele>160.5</ele>
        <time>2026-05-01T14:43:11.000Z</time>
      </trkpt>
      <trkpt lat="44.83226" lon="0.82788">
        <ele>161.3</ele>
        <time>2026-05-01T14:43:12.000Z</time>
      </trkpt>
      <trkpt lat="44.83225" lon="0.82789">
        <ele>161.6</ele>
        <time>2026-05-01T14:43:13.000Z</time>
      </trkpt>
      <trkpt lat="44.83225" lon="0.82791">
        <ele>162.3</ele>
        <time>2026-05-01T14:43:14.000Z</time>
      </trkpt>
      <trkpt lat="44.83224" lon="0.82792">
        <ele>162</ele>
        <time>2026-05-01T14:43:15.000Z</time>
      </trkpt>
      <trkpt lat="44.83223" lon="0.82794">
        <ele>161.1</ele>
        <time>2026-05-01T14:43:16.000Z</time>
      </trkpt>
      <trkpt lat="44.83222" lon="0.82795">
        <ele>161</ele>
        <time>2026-05-01T14:43:17.000Z</time>
      </trkpt>
      <trkpt lat="44.83221" lon="0.82797">
        <ele>161.1</ele>
        <time>2026-05-01T14:43:18.000Z</time>
      </trkpt>
      <trkpt lat="44.8322" lon="0.82798">
        <ele>161.9</ele>
        <time>2026-05-01T14:43:19.000Z</time>
      </trkpt>
      <trkpt lat="44.83219" lon="0.828">
        <ele>162.1</ele>
        <time>2026-05-01T14:43:20.000Z</time>
      </trkpt>
      <trkpt lat="44.83218" lon="0.82801">
        <ele>162.4</ele>
        <time>2026-05-01T14:43:21.000Z</time>
      </trkpt>
      <trkpt lat="44.83217" lon="0.82802">
        <ele>162</ele>
        <time>2026-05-01T14:43:22.000Z</time>
      </trkpt>
      <trkpt lat="44.83216" lon="0.82804">
        <ele>162</ele>
        <time>2026-05-01T14:43:23.000Z</time>
      </trkpt>
      <trkpt lat="44.83215" lon="0.82805">
        <ele>160.7</ele>
        <time>2026-05-01T14:43:24.000Z</time>
      </trkpt>
      <trkpt lat="44.83214" lon="0.82807">
        <ele>159.9</ele>
        <time>2026-05-01T14:43:25.000Z</time>
      </trkpt>
      <trkpt lat="44.83213" lon="0.82809">
        <ele>158.7</ele>
        <time>2026-05-01T14:43:26.000Z</time>
      </trkpt>
      <trkpt lat="44.83212" lon="0.82811">
        <ele>158.7</ele>
        <time>2026-05-01T14:43:27.000Z</time>
      </trkpt>
      <trkpt lat="44.83211" lon="0.82812">
        <ele>158.4</ele>
        <time>2026-05-01T14:43:28.000Z</time>
      </trkpt>
      <trkpt lat="44.8321" lon="0.82814">
        <ele>158.3</ele>
        <time>2026-05-01T14:43:29.000Z</time>
      </trkpt>
      <trkpt lat="44.83209" lon="0.82815">
        <ele>158.3</ele>
        <time>2026-05-01T14:43:30.000Z</time>
      </trkpt>
      <trkpt lat="44.83208" lon="0.82817">
        <ele>158.8</ele>
        <time>2026-05-01T14:43:31.000Z</time>
      </trkpt>
      <trkpt lat="44.83207" lon="0.82819">
        <ele>158.4</ele>
        <time>2026-05-01T14:43:32.000Z</time>
      </trkpt>
      <trkpt lat="44.83206" lon="0.8282">
        <ele>158.3</ele>
        <time>2026-05-01T14:43:33.000Z</time>
      </trkpt>
      <trkpt lat="44.83205" lon="0.82822">
        <ele>158.2</ele>
        <time>2026-05-01T14:43:34.000Z</time>
      </trkpt>
      <trkpt lat="44.83204" lon="0.82824">
        <ele>157.9</ele>
        <time>2026-05-01T14:43:35.000Z</time>
      </trkpt>
      <trkpt lat="44.83203" lon="0.82826">
        <ele>157.7</ele>
        <time>2026-05-01T14:43:36.000Z</time>
      </trkpt>
      <trkpt lat="44.83202" lon="0.82828">
        <ele>158.2</ele>
        <time>2026-05-01T14:43:37.000Z</time>
      </trkpt>
      <trkpt lat="44.83201" lon="0.8283">
        <ele>158.3</ele>
        <time>2026-05-01T14:43:38.000Z</time>
      </trkpt>
      <trkpt lat="44.832" lon="0.82832">
        <ele>157.8</ele>
        <time>2026-05-01T14:43:39.000Z</time>
      </trkpt>
      <trkpt lat="44.83199" lon="0.82833">
        <ele>158.6</ele>
        <time>2026-05-01T14:43:40.000Z</time>
      </trkpt>
      <trkpt lat="44.83197" lon="0.82835">
        <ele>159.1</ele>
        <time>2026-05-01T14:43:41.000Z</time>
      </trkpt>
      <trkpt lat="44.83196" lon="0.82837">
        <ele>159.3</ele>
        <time>2026-05-01T14:43:42.000Z</time>
      </trkpt>
      <trkpt lat="44.83194" lon="0.82838">
        <ele>159.4</ele>
        <time>2026-05-01T14:43:43.000Z</time>
      </trkpt>
      <trkpt lat="44.83193" lon="0.8284">
        <ele>159.5</ele>
        <time>2026-05-01T14:43:44.000Z</time>
      </trkpt>
      <trkpt lat="44.83192" lon="0.82841">
        <ele>159.5</ele>
        <time>2026-05-01T14:43:45.000Z</time>
      </trkpt>
      <trkpt lat="44.83191" lon="0.82842">
        <ele>159</ele>
        <time>2026-05-01T14:43:46.000Z</time>
      </trkpt>
      <trkpt lat="44.8319" lon="0.82844">
        <ele>159.8</ele>
        <time>2026-05-01T14:43:47.000Z</time>
      </trkpt>
      <trkpt lat="44.83189" lon="0.82845">
        <ele>158.7</ele>
        <time>2026-05-01T14:43:48.000Z</time>
      </trkpt>
      <trkpt lat="44.83187" lon="0.82847">
        <ele>158.7</ele>
        <time>2026-05-01T14:43:49.000Z</time>
      </trkpt>
      <trkpt lat="44.83186" lon="0.82848">
        <ele>157.8</ele>
        <time>2026-05-01T14:43:50.000Z</time>
      </trkpt>
      <trkpt lat="44.83185" lon="0.82849">
        <ele>158.8</ele>
        <time>2026-05-01T14:43:51.000Z</time>
      </trkpt>
      <trkpt lat="44.83184" lon="0.82851">
        <ele>158.3</ele>
        <time>2026-05-01T14:43:52.000Z</time>
      </trkpt>
      <trkpt lat="44.83183" lon="0.82853">
        <ele>158</ele>
        <time>2026-05-01T14:43:53.000Z</time>
      </trkpt>
      <trkpt lat="44.83182" lon="0.82855">
        <ele>157.9</ele>
        <time>2026-05-01T14:43:54.000Z</time>
      </trkpt>
      <trkpt lat="44.8318" lon="0.82856">
        <ele>158.2</ele>
        <time>2026-05-01T14:43:55.000Z</time>
      </trkpt>
      <trkpt lat="44.83178" lon="0.82857">
        <ele>158.4</ele>
        <time>2026-05-01T14:43:56.000Z</time>
      </trkpt>
      <trkpt lat="44.83177" lon="0.82859">
        <ele>158.6</ele>
        <time>2026-05-01T14:43:57.000Z</time>
      </trkpt>
      <trkpt lat="44.83175" lon="0.8286">
        <ele>159</ele>
        <time>2026-05-01T14:43:58.000Z</time>
      </trkpt>
      <trkpt lat="44.83174" lon="0.82862">
        <ele>159.3</ele>
        <time>2026-05-01T14:43:59.000Z</time>
      </trkpt>
      <trkpt lat="44.83172" lon="0.82863">
        <ele>159.3</ele>
        <time>2026-05-01T14:44:00.000Z</time>
      </trkpt>
      <trkpt lat="44.83171" lon="0.82864">
        <ele>160.2</ele>
        <time>2026-05-01T14:44:01.000Z</time>
      </trkpt>
      <trkpt lat="44.83169" lon="0.82866">
        <ele>159.1</ele>
        <time>2026-05-01T14:44:02.000Z</time>
      </trkpt>
      <trkpt lat="44.83167" lon="0.82867">
        <ele>159.2</ele>
        <time>2026-05-01T14:44:03.000Z</time>
      </trkpt>
      <trkpt lat="44.83165" lon="0.82868">
        <ele>159.4</ele>
        <time>2026-05-01T14:44:04.000Z</time>
      </trkpt>
      <trkpt lat="44.83163" lon="0.82869">
        <ele>159</ele>
        <time>2026-05-01T14:44:05.000Z</time>
      </trkpt>
      <trkpt lat="44.83162" lon="0.82871">
        <ele>159.2</ele>
        <time>2026-05-01T14:44:06.000Z</time>
      </trkpt>
      <trkpt lat="44.8316" lon="0.82872">
        <ele>158</ele>
        <time>2026-05-01T14:44:07.000Z</time>
      </trkpt>
      <trkpt lat="44.83159" lon="0.82874">
        <ele>158.1</ele>
        <time>2026-05-01T14:44:08.000Z</time>
      </trkpt>
      <trkpt lat="44.83157" lon="0.82875">
        <ele>158.4</ele>
        <time>2026-05-01T14:44:09.000Z</time>
      </trkpt>
      <trkpt lat="44.83156" lon="0.82876">
        <ele>158.6</ele>
        <time>2026-05-01T14:44:10.000Z</time>
      </trkpt>
      <trkpt lat="44.83154" lon="0.82877">
        <ele>158.7</ele>
        <time>2026-05-01T14:44:11.000Z</time>
      </trkpt>
      <trkpt lat="44.83153" lon="0.82878">
        <ele>159.3</ele>
        <time>2026-05-01T14:44:12.000Z</time>
      </trkpt>
      <trkpt lat="44.83151" lon="0.82879">
        <ele>159.6</ele>
        <time>2026-05-01T14:44:13.000Z</time>
      </trkpt>
      <trkpt lat="44.83149" lon="0.82881">
        <ele>160.8</ele>
        <time>2026-05-01T14:44:14.000Z</time>
      </trkpt>
      <trkpt lat="44.83148" lon="0.82882">
        <ele>162.2</ele>
        <time>2026-05-01T14:44:15.000Z</time>
      </trkpt>
      <trkpt lat="44.83146" lon="0.82883">
        <ele>162.2</ele>
        <time>2026-05-01T14:44:16.000Z</time>
      </trkpt>
      <trkpt lat="44.83144" lon="0.82885">
        <ele>163</ele>
        <time>2026-05-01T14:44:17.000Z</time>
      </trkpt>
      <trkpt lat="44.83143" lon="0.82886">
        <ele>162.9</ele>
        <time>2026-05-01T14:44:18.000Z</time>
      </trkpt>
      <trkpt lat="44.83142" lon="0.82888">
        <ele>163</ele>
        <time>2026-05-01T14:44:19.000Z</time>
      </trkpt>
      <trkpt lat="44.8314" lon="0.8289">
        <ele>163.2</ele>
        <time>2026-05-01T14:44:20.000Z</time>
      </trkpt>
      <trkpt lat="44.83139" lon="0.82891">
        <ele>163.6</ele>
        <time>2026-05-01T14:44:21.000Z</time>
      </trkpt>
      <trkpt lat="44.83137" lon="0.82893">
        <ele>164.1</ele>
        <time>2026-05-01T14:44:22.000Z</time>
      </trkpt>
      <trkpt lat="44.83136" lon="0.82895">
        <ele>164.5</ele>
        <time>2026-05-01T14:44:23.000Z</time>
      </trkpt>
      <trkpt lat="44.83134" lon="0.82896">
        <ele>165.5</ele>
        <time>2026-05-01T14:44:24.000Z</time>
      </trkpt>
      <trkpt lat="44.83132" lon="0.82898">
        <ele>165.8</ele>
        <time>2026-05-01T14:44:25.000Z</time>
      </trkpt>
      <trkpt lat="44.8313" lon="0.82899">
        <ele>166.7</ele>
        <time>2026-05-01T14:44:26.000Z</time>
      </trkpt>
      <trkpt lat="44.83128" lon="0.829">
        <ele>167.4</ele>
        <time>2026-05-01T14:44:27.000Z</time>
      </trkpt>
      <trkpt lat="44.83127" lon="0.82902">
        <ele>167.2</ele>
        <time>2026-05-01T14:44:28.000Z</time>
      </trkpt>
      <trkpt lat="44.83126" lon="0.82902">
        <ele>167.1</ele>
        <time>2026-05-01T14:44:29.000Z</time>
      </trkpt>
      <trkpt lat="44.83125" lon="0.82902">
        <ele>165.5</ele>
        <time>2026-05-01T14:44:30.000Z</time>
      </trkpt>
      <trkpt lat="44.83123" lon="0.82903">
        <ele>165.8</ele>
        <time>2026-05-01T14:44:31.000Z</time>
      </trkpt>
      <trkpt lat="44.83122" lon="0.82904">
        <ele>165.5</ele>
        <time>2026-05-01T14:44:32.000Z</time>
      </trkpt>
      <trkpt lat="44.83121" lon="0.82905">
        <ele>165.5</ele>
        <time>2026-05-01T14:44:33.000Z</time>
      </trkpt>
      <trkpt lat="44.83119" lon="0.82906">
        <ele>163.9</ele>
        <time>2026-05-01T14:44:34.000Z</time>
      </trkpt>
      <trkpt lat="44.83118" lon="0.82907">
        <ele>163.7</ele>
        <time>2026-05-01T14:44:35.000Z</time>
      </trkpt>
      <trkpt lat="44.83116" lon="0.82907">
        <ele>163.4</ele>
        <time>2026-05-01T14:44:36.000Z</time>
      </trkpt>
      <trkpt lat="44.83115" lon="0.82907">
        <ele>163.4</ele>
        <time>2026-05-01T14:44:37.000Z</time>
      </trkpt>
      <trkpt lat="44.83114" lon="0.82908">
        <ele>162.7</ele>
        <time>2026-05-01T14:44:38.000Z</time>
      </trkpt>
      <trkpt lat="44.83113" lon="0.82909">
        <ele>164.6</ele>
        <time>2026-05-01T14:44:39.000Z</time>
      </trkpt>
      <trkpt lat="44.83112" lon="0.8291">
        <ele>164.9</ele>
        <time>2026-05-01T14:44:40.000Z</time>
      </trkpt>
      <trkpt lat="44.83111" lon="0.8291">
        <ele>165.1</ele>
        <time>2026-05-01T14:44:41.000Z</time>
      </trkpt>
      <trkpt lat="44.83111" lon="0.82911">
        <ele>165.3</ele>
        <time>2026-05-01T14:44:42.000Z</time>
      </trkpt>
      <trkpt lat="44.8311" lon="0.82912">
        <ele>165.9</ele>
        <time>2026-05-01T14:44:43.000Z</time>
      </trkpt>
      <trkpt lat="44.83109" lon="0.82913">
        <ele>165.8</ele>
        <time>2026-05-01T14:44:44.000Z</time>
      </trkpt>
      <trkpt lat="44.83109" lon="0.82914">
        <ele>165.7</ele>
        <time>2026-05-01T14:44:45.000Z</time>
      </trkpt>
      <trkpt lat="44.83108" lon="0.82915">
        <ele>165.5</ele>
        <time>2026-05-01T14:44:46.000Z</time>
      </trkpt>
      <trkpt lat="44.83107" lon="0.82915">
        <ele>165.8</ele>
        <time>2026-05-01T14:44:47.000Z</time>
      </trkpt>
      <trkpt lat="44.83106" lon="0.82916">
        <ele>165.2</ele>
        <time>2026-05-01T14:44:48.000Z</time>
      </trkpt>
      <trkpt lat="44.83105" lon="0.82916">
        <ele>167.8</ele>
        <time>2026-05-01T14:44:49.000Z</time>
      </trkpt>
      <trkpt lat="44.83103" lon="0.82917">
        <ele>169.4</ele>
        <time>2026-05-01T14:44:50.000Z</time>
      </trkpt>
      <trkpt lat="44.83102" lon="0.82918">
        <ele>170</ele>
        <time>2026-05-01T14:44:51.000Z</time>
      </trkpt>
      <trkpt lat="44.831" lon="0.8292">
        <ele>170.2</ele>
        <time>2026-05-01T14:44:52.000Z</time>
      </trkpt>
      <trkpt lat="44.83098" lon="0.82921">
        <ele>169.9</ele>
        <time>2026-05-01T14:44:53.000Z</time>
      </trkpt>
      <trkpt lat="44.83097" lon="0.82922">
        <ele>170.4</ele>
        <time>2026-05-01T14:44:54.000Z</time>
      </trkpt>
      <trkpt lat="44.83095" lon="0.82924">
        <ele>170.8</ele>
        <time>2026-05-01T14:44:55.000Z</time>
      </trkpt>
      <trkpt lat="44.83094" lon="0.82925">
        <ele>168.9</ele>
        <time>2026-05-01T14:44:56.000Z</time>
      </trkpt>
      <trkpt lat="44.83092" lon="0.82925">
        <ele>168.6</ele>
        <time>2026-05-01T14:44:57.000Z</time>
      </trkpt>
      <trkpt lat="44.83091" lon="0.82926">
        <ele>169.1</ele>
        <time>2026-05-01T14:44:58.000Z</time>
      </trkpt>
      <trkpt lat="44.8309" lon="0.82928">
        <ele>168.8</ele>
        <time>2026-05-01T14:44:59.000Z</time>
      </trkpt>
      <trkpt lat="44.83088" lon="0.82929">
        <ele>168.7</ele>
        <time>2026-05-01T14:45:00.000Z</time>
      </trkpt>
      <trkpt lat="44.83087" lon="0.8293">
        <ele>170.2</ele>
        <time>2026-05-01T14:45:01.000Z</time>
      </trkpt>
      <trkpt lat="44.83085" lon="0.82931">
        <ele>169.4</ele>
        <time>2026-05-01T14:45:02.000Z</time>
      </trkpt>
      <trkpt lat="44.83083" lon="0.82932">
        <ele>169.6</ele>
        <time>2026-05-01T14:45:03.000Z</time>
      </trkpt>
      <trkpt lat="44.83082" lon="0.82933">
        <ele>169.6</ele>
        <time>2026-05-01T14:45:04.000Z</time>
      </trkpt>
      <trkpt lat="44.83081" lon="0.82934">
        <ele>169.3</ele>
        <time>2026-05-01T14:45:05.000Z</time>
      </trkpt>
      <trkpt lat="44.83079" lon="0.82935">
        <ele>169.9</ele>
        <time>2026-05-01T14:45:06.000Z</time>
      </trkpt>
      <trkpt lat="44.83077" lon="0.82936">
        <ele>170.7</ele>
        <time>2026-05-01T14:45:07.000Z</time>
      </trkpt>
      <trkpt lat="44.83076" lon="0.82938">
        <ele>170.8</ele>
        <time>2026-05-01T14:45:08.000Z</time>
      </trkpt>
      <trkpt lat="44.83075" lon="0.82938">
        <ele>170.7</ele>
        <time>2026-05-01T14:45:09.000Z</time>
      </trkpt>
      <trkpt lat="44.83074" lon="0.82939">
        <ele>169.9</ele>
        <time>2026-05-01T14:45:10.000Z</time>
      </trkpt>
      <trkpt lat="44.83072" lon="0.8294">
        <ele>169.9</ele>
        <time>2026-05-01T14:45:11.000Z</time>
      </trkpt>
      <trkpt lat="44.83071" lon="0.82941">
        <ele>169.3</ele>
        <time>2026-05-01T14:45:12.000Z</time>
      </trkpt>
      <trkpt lat="44.8307" lon="0.82942">
        <ele>169.8</ele>
        <time>2026-05-01T14:45:13.000Z</time>
      </trkpt>
      <trkpt lat="44.83068" lon="0.82943">
        <ele>168.6</ele>
        <time>2026-05-01T14:45:14.000Z</time>
      </trkpt>
      <trkpt lat="44.83066" lon="0.82944">
        <ele>168.3</ele>
        <time>2026-05-01T14:45:15.000Z</time>
      </trkpt>
      <trkpt lat="44.83064" lon="0.82944">
        <ele>167.6</ele>
        <time>2026-05-01T14:45:16.000Z</time>
      </trkpt>
      <trkpt lat="44.83062" lon="0.82945">
        <ele>167</ele>
        <time>2026-05-01T14:45:17.000Z</time>
      </trkpt>
      <trkpt lat="44.8306" lon="0.82945">
        <ele>166.9</ele>
        <time>2026-05-01T14:45:18.000Z</time>
      </trkpt>
      <trkpt lat="44.83058" lon="0.82946">
        <ele>168.4</ele>
        <time>2026-05-01T14:45:19.000Z</time>
      </trkpt>
      <trkpt lat="44.83057" lon="0.82947">
        <ele>168.4</ele>
        <time>2026-05-01T14:45:20.000Z</time>
      </trkpt>
      <trkpt lat="44.83056" lon="0.82948">
        <ele>168.2</ele>
        <time>2026-05-01T14:45:21.000Z</time>
      </trkpt>
      <trkpt lat="44.83054" lon="0.82949">
        <ele>168.2</ele>
        <time>2026-05-01T14:45:22.000Z</time>
      </trkpt>
      <trkpt lat="44.83053" lon="0.8295">
        <ele>168</ele>
        <time>2026-05-01T14:45:23.000Z</time>
      </trkpt>
      <trkpt lat="44.83051" lon="0.82951">
        <ele>167.8</ele>
        <time>2026-05-01T14:45:24.000Z</time>
      </trkpt>
      <trkpt lat="44.83049" lon="0.82951">
        <ele>167</ele>
        <time>2026-05-01T14:45:25.000Z</time>
      </trkpt>
      <trkpt lat="44.83047" lon="0.82952">
        <ele>167.4</ele>
        <time>2026-05-01T14:45:26.000Z</time>
      </trkpt>
      <trkpt lat="44.83046" lon="0.82953">
        <ele>168.2</ele>
        <time>2026-05-01T14:45:27.000Z</time>
      </trkpt>
      <trkpt lat="44.83044" lon="0.82954">
        <ele>169.7</ele>
        <time>2026-05-01T14:45:28.000Z</time>
      </trkpt>
      <trkpt lat="44.83043" lon="0.82955">
        <ele>170</ele>
        <time>2026-05-01T14:45:29.000Z</time>
      </trkpt>
      <trkpt lat="44.83041" lon="0.82956">
        <ele>170.3</ele>
        <time>2026-05-01T14:45:30.000Z</time>
      </trkpt>
      <trkpt lat="44.8304" lon="0.82957">
        <ele>170.3</ele>
        <time>2026-05-01T14:45:31.000Z</time>
      </trkpt>
      <trkpt lat="44.83039" lon="0.82958">
        <ele>170.3</ele>
        <time>2026-05-01T14:45:32.000Z</time>
      </trkpt>
      <trkpt lat="44.83038" lon="0.8296">
        <ele>171.8</ele>
        <time>2026-05-01T14:45:33.000Z</time>
      </trkpt>
      <trkpt lat="44.83036" lon="0.82961">
        <ele>171.7</ele>
        <time>2026-05-01T14:45:34.000Z</time>
      </trkpt>
      <trkpt lat="44.83035" lon="0.82963">
        <ele>172.5</ele>
        <time>2026-05-01T14:45:35.000Z</time>
      </trkpt>
      <trkpt lat="44.83033" lon="0.82964">
        <ele>173</ele>
        <time>2026-05-01T14:45:36.000Z</time>
      </trkpt>
      <trkpt lat="44.83032" lon="0.82964">
        <ele>170</ele>
        <time>2026-05-01T14:45:37.000Z</time>
      </trkpt>
      <trkpt lat="44.83032" lon="0.82968">
        <ele>168.6</ele>
        <time>2026-05-01T14:45:38.000Z</time>
      </trkpt>
      <trkpt lat="44.83035" lon="0.82967">
        <ele>172.9</ele>
        <time>2026-05-01T14:45:39.000Z</time>
      </trkpt>
      <trkpt lat="44.83034" lon="0.8297">
        <ele>168.6</ele>
        <time>2026-05-01T14:45:40.000Z</time>
      </trkpt>
      <trkpt lat="44.83034" lon="0.82972">
        <ele>169</ele>
        <time>2026-05-01T14:45:41.000Z</time>
      </trkpt>
      <trkpt lat="44.83033" lon="0.82973">
        <ele>169.5</ele>
        <time>2026-05-01T14:45:42.000Z</time>
      </trkpt>
      <trkpt lat="44.83034" lon="0.82973">
        <ele>171.7</ele>
        <time>2026-05-01T14:45:43.000Z</time>
      </trkpt>
      <trkpt lat="44.83034" lon="0.82972">
        <ele>171.4</ele>
        <time>2026-05-01T14:45:44.000Z</time>
      </trkpt>
      <trkpt lat="44.83034" lon="0.82971">
        <ele>171.6</ele>
        <time>2026-05-01T14:45:45.000Z</time>
      </trkpt>
      <trkpt lat="44.83034" lon="0.82971">
        <ele>171.5</ele>
        <time>2026-05-01T14:45:46.000Z</time>
      </trkpt>
      <trkpt lat="44.83032" lon="0.82969">
        <ele>171.7</ele>
        <time>2026-05-01T14:45:47.000Z</time>
      </trkpt>
      <trkpt lat="44.83031" lon="0.82969">
        <ele>171.7</ele>
        <time>2026-05-01T14:45:48.000Z</time>
      </trkpt>
      <trkpt lat="44.83031" lon="0.82969">
        <ele>171.4</ele>
        <time>2026-05-01T14:45:49.000Z</time>
      </trkpt>
      <trkpt lat="44.83029" lon="0.82967">
        <ele>171.3</ele>
        <time>2026-05-01T14:45:50.000Z</time>
      </trkpt>
      <trkpt lat="44.83028" lon="0.82966">
        <ele>171.3</ele>
        <time>2026-05-01T14:45:51.000Z</time>
      </trkpt>
      <trkpt lat="44.83028" lon="0.82966">
        <ele>171.3</ele>
        <time>2026-05-01T14:45:52.000Z</time>
      </trkpt>
      <trkpt lat="44.83028" lon="0.82964">
        <ele>171</ele>
        <time>2026-05-01T14:45:53.000Z</time>
      </trkpt>
      <trkpt lat="44.83028" lon="0.82963">
        <ele>171.7</ele>
        <time>2026-05-01T14:45:54.000Z</time>
      </trkpt>
      <trkpt lat="44.83029" lon="0.82966">
        <ele>171.5</ele>
        <time>2026-05-01T14:45:55.000Z</time>
      </trkpt>
      <trkpt lat="44.8303" lon="0.82967">
        <ele>171.5</ele>
        <time>2026-05-01T14:45:56.000Z</time>
      </trkpt>
      <trkpt lat="44.83031" lon="0.8297">
        <ele>172.3</ele>
        <time>2026-05-01T14:45:57.000Z</time>
      </trkpt>
      <trkpt lat="44.83031" lon="0.8297">
        <ele>172.9</ele>
        <time>2026-05-01T14:45:58.000Z</time>
      </trkpt>
      <trkpt lat="44.8303" lon="0.82972">
        <ele>173</ele>
        <time>2026-05-01T14:45:59.000Z</time>
      </trkpt>
      <trkpt lat="44.8303" lon="0.82972">
        <ele>173.4</ele>
        <time>2026-05-01T14:46:00.000Z</time>
      </trkpt>
      <trkpt lat="44.83029" lon="0.82973">
        <ele>173.4</ele>
        <time>2026-05-01T14:46:01.000Z</time>
      </trkpt>
      <trkpt lat="44.83029" lon="0.82972">
        <ele>172.8</ele>
        <time>2026-05-01T14:46:02.000Z</time>
      </trkpt>
      <trkpt lat="44.83029" lon="0.82974">
        <ele>175.8</ele>
        <time>2026-05-01T14:46:03.000Z</time>
      </trkpt>
      <trkpt lat="44.83029" lon="0.82974">
        <ele>175.1</ele>
        <time>2026-05-01T14:46:04.000Z</time>
      </trkpt>
      <trkpt lat="44.8303" lon="0.82975">
        <ele>176.2</ele>
        <time>2026-05-01T14:46:05.000Z</time>
      </trkpt>
      <trkpt lat="44.83031" lon="0.82977">
        <ele>177</ele>
        <time>2026-05-01T14:46:06.000Z</time>
      </trkpt>
      <trkpt lat="44.83032" lon="0.82977">
        <ele>175.4</ele>
        <time>2026-05-01T14:46:07.000Z</time>
      </trkpt>
      <trkpt lat="44.83033" lon="0.82977">
        <ele>174.3</ele>
        <time>2026-05-01T14:46:08.000Z</time>
      </trkpt>
      <trkpt lat="44.83034" lon="0.82976">
        <ele>174.6</ele>
        <time>2026-05-01T14:46:09.000Z</time>
      </trkpt>
      <trkpt lat="44.83035" lon="0.82976">
        <ele>173.9</ele>
        <time>2026-05-01T14:46:10.000Z</time>
      </trkpt>
      <trkpt lat="44.83036" lon="0.82977">
        <ele>173.7</ele>
        <time>2026-05-01T14:46:11.000Z</time>
      </trkpt>
      <trkpt lat="44.83038" lon="0.82977">
        <ele>173</ele>
        <time>2026-05-01T14:46:12.000Z</time>
      </trkpt>
      <trkpt lat="44.83039" lon="0.82978">
        <ele>172.8</ele>
        <time>2026-05-01T14:46:13.000Z</time>
      </trkpt>
      <trkpt lat="44.8304" lon="0.82978">
        <ele>171.8</ele>
        <time>2026-05-01T14:46:14.000Z</time>
      </trkpt>
      <trkpt lat="44.83042" lon="0.82977">
        <ele>171.3</ele>
        <time>2026-05-01T14:46:15.000Z</time>
      </trkpt>
      <trkpt lat="44.83042" lon="0.82977">
        <ele>171.4</ele>
        <time>2026-05-01T14:46:16.000Z</time>
      </trkpt>
      <trkpt lat="44.83043" lon="0.82977">
        <ele>171.4</ele>
        <time>2026-05-01T14:46:17.000Z</time>
      </trkpt>
      <trkpt lat="44.83043" lon="0.82977">
        <ele>171.3</ele>
        <time>2026-05-01T14:46:18.000Z</time>
      </trkpt>
      <trkpt lat="44.83045" lon="0.82977">
        <ele>171.3</ele>
        <time>2026-05-01T14:46:19.000Z</time>
      </trkpt>
      <trkpt lat="44.83046" lon="0.82977">
        <ele>169.7</ele>
        <time>2026-05-01T14:46:20.000Z</time>
      </trkpt>
      <trkpt lat="44.83046" lon="0.82977">
        <ele>168.3</ele>
        <time>2026-05-01T14:46:21.000Z</time>
      </trkpt>
      <trkpt lat="44.83046" lon="0.82977">
        <ele>167.9</ele>
        <time>2026-05-01T14:46:22.000Z</time>
      </trkpt>
      <trkpt lat="44.83047" lon="0.82977">
        <ele>166.8</ele>
        <time>2026-05-01T14:46:23.000Z</time>
      </trkpt>
      <trkpt lat="44.83048" lon="0.82978">
        <ele>165.9</ele>
        <time>2026-05-01T14:46:24.000Z</time>
      </trkpt>
      <trkpt lat="44.83049" lon="0.8298">
        <ele>165.5</ele>
        <time>2026-05-01T14:46:25.000Z</time>
      </trkpt>
      <trkpt lat="44.83051" lon="0.82982">
        <ele>164.6</ele>
        <time>2026-05-01T14:46:26.000Z</time>
      </trkpt>
      <trkpt lat="44.83053" lon="0.82985">
        <ele>165.4</ele>
        <time>2026-05-01T14:46:27.000Z</time>
      </trkpt>
      <trkpt lat="44.83054" lon="0.82987">
        <ele>166.2</ele>
        <time>2026-05-01T14:46:28.000Z</time>
      </trkpt>
      <trkpt lat="44.83055" lon="0.82988">
        <ele>166.2</ele>
        <time>2026-05-01T14:46:29.000Z</time>
      </trkpt>
      <trkpt lat="44.83056" lon="0.8299">
        <ele>166.5</ele>
        <time>2026-05-01T14:46:30.000Z</time>
      </trkpt>
      <trkpt lat="44.83057" lon="0.8299">
        <ele>166.2</ele>
        <time>2026-05-01T14:46:31.000Z</time>
      </trkpt>
      <trkpt lat="44.83058" lon="0.82992">
        <ele>165.8</ele>
        <time>2026-05-01T14:46:32.000Z</time>
      </trkpt>
      <trkpt lat="44.83059" lon="0.82993">
        <ele>165.3</ele>
        <time>2026-05-01T14:46:33.000Z</time>
      </trkpt>
      <trkpt lat="44.8306" lon="0.82993">
        <ele>165</ele>
        <time>2026-05-01T14:46:34.000Z</time>
      </trkpt>
      <trkpt lat="44.83061" lon="0.82994">
        <ele>165.1</ele>
        <time>2026-05-01T14:46:35.000Z</time>
      </trkpt>
      <trkpt lat="44.83062" lon="0.82996">
        <ele>165.4</ele>
        <time>2026-05-01T14:46:36.000Z</time>
      </trkpt>
      <trkpt lat="44.83061" lon="0.82996">
        <ele>165.3</ele>
        <time>2026-05-01T14:46:37.000Z</time>
      </trkpt>
      <trkpt lat="44.83061" lon="0.82996">
        <ele>165.3</ele>
        <time>2026-05-01T14:46:38.000Z</time>
      </trkpt>
      <trkpt lat="44.83061" lon="0.82996">
        <ele>165.3</ele>
        <time>2026-05-01T14:46:39.000Z</time>
      </trkpt>
      <trkpt lat="44.83061" lon="0.82996">
        <ele>165.3</ele>
        <time>2026-05-01T14:46:40.000Z</time>
      </trkpt>
      <trkpt lat="44.83061" lon="0.82996">
        <ele>165.3</ele>
        <time>2026-05-01T14:46:41.000Z</time>
      </trkpt>
      <trkpt lat="44.83061" lon="0.82996">
        <ele>165.3</ele>
        <time>2026-05-01T14:46:42.000Z</time>
      </trkpt>
      <trkpt lat="44.83061" lon="0.82996">
        <ele>165.3</ele>
        <time>2026-05-01T14:46:43.000Z</time>
      </trkpt>
      <trkpt lat="44.83061" lon="0.82996">
        <ele>165.3</ele>
        <time>2026-05-01T14:46:44.000Z</time>
      </trkpt>
      <trkpt lat="44.83061" lon="0.82996">
        <ele>165.3</ele>
        <time>2026-05-01T14:46:45.000Z</time>
      </trkpt>
      <trkpt lat="44.83061" lon="0.82996">
        <ele>165.3</ele>
        <time>2026-05-01T14:46:46.000Z</time>
      </trkpt>
      <trkpt lat="44.83061" lon="0.82996">
        <ele>165.2</ele>
        <time>2026-05-01T14:46:47.000Z</time>
      </trkpt>
      <trkpt lat="44.83061" lon="0.82996">
        <ele>165.2</ele>
        <time>2026-05-01T14:46:48.000Z</time>
      </trkpt>
      <trkpt lat="44.83061" lon="0.82996">
        <ele>165.2</ele>
        <time>2026-05-01T14:46:49.000Z</time>
      </trkpt>
      <trkpt lat="44.83061" lon="0.82996">
        <ele>165.2</ele>
        <time>2026-05-01T14:46:50.000Z</time>
      </trkpt>
      <trkpt lat="44.83061" lon="0.82996">
        <ele>165.2</ele>
        <time>2026-05-01T14:46:51.000Z</time>
      </trkpt>
      <trkpt lat="44.83061" lon="0.82996">
        <ele>165.2</ele>
        <time>2026-05-01T14:46:52.000Z</time>
      </trkpt>
      <trkpt lat="44.83061" lon="0.82996">
        <ele>165.2</ele>
        <time>2026-05-01T14:46:53.000Z</time>
      </trkpt>
      <trkpt lat="44.83061" lon="0.82996">
        <ele>165.2</ele>
        <time>2026-05-01T14:46:54.000Z</time>
      </trkpt>
      <trkpt lat="44.83061" lon="0.82996">
        <ele>165.2</ele>
        <time>2026-05-01T14:46:55.000Z</time>
      </trkpt>
      <trkpt lat="44.83061" lon="0.82996">
        <ele>165.2</ele>
        <time>2026-05-01T14:46:56.000Z</time>
      </trkpt>
      <trkpt lat="44.83061" lon="0.82996">
        <ele>165.2</ele>
        <time>2026-05-01T14:46:57.000Z</time>
      </trkpt>
      <trkpt lat="44.83061" lon="0.82996">
        <ele>165.2</ele>
        <time>2026-05-01T14:46:58.000Z</time>
      </trkpt>
      <trkpt lat="44.83061" lon="0.82996">
        <ele>165.2</ele>
        <time>2026-05-01T14:46:59.000Z</time>
      </trkpt>
      <trkpt lat="44.83061" lon="0.82996">
        <ele>165.2</ele>
        <time>2026-05-01T14:47:00.000Z</time>
      </trkpt>
      <trkpt lat="44.83061" lon="0.82996">
        <ele>165.3</ele>
        <time>2026-05-01T14:47:01.000Z</time>
      </trkpt>
      <trkpt lat="44.83061" lon="0.82996">
        <ele>165.3</ele>
        <time>2026-05-01T14:47:02.000Z</time>
      </trkpt>
      <trkpt lat="44.83061" lon="0.82996">
        <ele>165.3</ele>
        <time>2026-05-01T14:47:03.000Z</time>
      </trkpt>
      <trkpt lat="44.83061" lon="0.82996">
        <ele>165.3</ele>
        <time>2026-05-01T14:47:04.000Z</time>
      </trkpt>
      <trkpt lat="44.83061" lon="0.82996">
        <ele>165.3</ele>
        <time>2026-05-01T14:47:05.000Z</time>
      </trkpt>
      <trkpt lat="44.83061" lon="0.82996">
        <ele>165.3</ele>
        <time>2026-05-01T14:47:06.000Z</time>
      </trkpt>
      <trkpt lat="44.83061" lon="0.82996">
        <ele>165.3</ele>
        <time>2026-05-01T14:47:07.000Z</time>
      </trkpt>
      <trkpt lat="44.83061" lon="0.82996">
        <ele>165.3</ele>
        <time>2026-05-01T14:47:08.000Z</time>
      </trkpt>
      <trkpt lat="44.83061" lon="0.82996">
        <ele>165.3</ele>
        <time>2026-05-01T14:47:09.000Z</time>
      </trkpt>
      <trkpt lat="44.83061" lon="0.82996">
        <ele>165.3</ele>
        <time>2026-05-01T14:47:10.000Z</time>
      </trkpt>
      <trkpt lat="44.83061" lon="0.82996">
        <ele>165.3</ele>
        <time>2026-05-01T14:47:11.000Z</time>
      </trkpt>
      <trkpt lat="44.83061" lon="0.82996">
        <ele>165.3</ele>
        <time>2026-05-01T14:47:12.000Z</time>
      </trkpt>
      <trkpt lat="44.83061" lon="0.82996">
        <ele>165.3</ele>
        <time>2026-05-01T14:47:13.000Z</time>
      </trkpt>
      <trkpt lat="44.83061" lon="0.82996">
        <ele>165.3</ele>
        <time>2026-05-01T14:47:14.000Z</time>
      </trkpt>
      <trkpt lat="44.83061" lon="0.82996">
        <ele>165.3</ele>
        <time>2026-05-01T14:47:15.000Z</time>
      </trkpt>
      <trkpt lat="44.83061" lon="0.82996">
        <ele>165.3</ele>
        <time>2026-05-01T14:47:16.000Z</time>
      </trkpt>
      <trkpt lat="44.83061" lon="0.82997">
        <ele>165.7</ele>
        <time>2026-05-01T14:47:17.000Z</time>
      </trkpt>
      <trkpt lat="44.83062" lon="0.82997">
        <ele>166.3</ele>
        <time>2026-05-01T14:47:18.000Z</time>
      </trkpt>
      <trkpt lat="44.83062" lon="0.82997">
        <ele>165.8</ele>
        <time>2026-05-01T14:47:19.000Z</time>
      </trkpt>
      <trkpt lat="44.83062" lon="0.82997">
        <ele>165.7</ele>
        <time>2026-05-01T14:47:20.000Z</time>
      </trkpt>
      <trkpt lat="44.83062" lon="0.82996">
        <ele>165.7</ele>
        <time>2026-05-01T14:47:21.000Z</time>
      </trkpt>
      <trkpt lat="44.83064" lon="0.82994">
        <ele>165.4</ele>
        <time>2026-05-01T14:47:22.000Z</time>
      </trkpt>
      <trkpt lat="44.83064" lon="0.82994">
        <ele>166.3</ele>
        <time>2026-05-01T14:47:23.000Z</time>
      </trkpt>
      <trkpt lat="44.83063" lon="0.82994">
        <ele>166.8</ele>
        <time>2026-05-01T14:47:24.000Z</time>
      </trkpt>
      <trkpt lat="44.83063" lon="0.82996">
        <ele>166.2</ele>
        <time>2026-05-01T14:47:25.000Z</time>
      </trkpt>
      <trkpt lat="44.83062" lon="0.82997">
        <ele>166.3</ele>
        <time>2026-05-01T14:47:26.000Z</time>
      </trkpt>
      <trkpt lat="44.8306" lon="0.82995">
        <ele>165.8</ele>
        <time>2026-05-01T14:47:27.000Z</time>
      </trkpt>
      <trkpt lat="44.83059" lon="0.82995">
        <ele>165.2</ele>
        <time>2026-05-01T14:47:28.000Z</time>
      </trkpt>
      <trkpt lat="44.83059" lon="0.82995">
        <ele>165.2</ele>
        <time>2026-05-01T14:47:29.000Z</time>
      </trkpt>
      <trkpt lat="44.83059" lon="0.82995">
        <ele>165.2</ele>
        <time>2026-05-01T14:47:30.000Z</time>
      </trkpt>
      <trkpt lat="44.83059" lon="0.82995">
        <ele>165</ele>
        <time>2026-05-01T14:47:31.000Z</time>
      </trkpt>
      <trkpt lat="44.83056" lon="0.82991">
        <ele>166</ele>
        <time>2026-05-01T14:47:32.000Z</time>
      </trkpt>
      <trkpt lat="44.83055" lon="0.82989">
        <ele>165.7</ele>
        <time>2026-05-01T14:47:33.000Z</time>
      </trkpt>
      <trkpt lat="44.83053" lon="0.82987">
        <ele>165.9</ele>
        <time>2026-05-01T14:47:34.000Z</time>
      </trkpt>
      <trkpt lat="44.83052" lon="0.82986">
        <ele>166.8</ele>
        <time>2026-05-01T14:47:35.000Z</time>
      </trkpt>
      <trkpt lat="44.83052" lon="0.82985">
        <ele>167.1</ele>
        <time>2026-05-01T14:47:36.000Z</time>
      </trkpt>
      <trkpt lat="44.83052" lon="0.82983">
        <ele>167.6</ele>
        <time>2026-05-01T14:47:37.000Z</time>
      </trkpt>
      <trkpt lat="44.83051" lon="0.82983">
        <ele>167.6</ele>
        <time>2026-05-01T14:47:38.000Z</time>
      </trkpt>
      <trkpt lat="44.8305" lon="0.82982">
        <ele>167.7</ele>
        <time>2026-05-01T14:47:39.000Z</time>
      </trkpt>
      <trkpt lat="44.83049" lon="0.82981">
        <ele>167.8</ele>
        <time>2026-05-01T14:47:40.000Z</time>
      </trkpt>
      <trkpt lat="44.83048" lon="0.8298">
        <ele>168</ele>
        <time>2026-05-01T14:47:41.000Z</time>
      </trkpt>
      <trkpt lat="44.83047" lon="0.82979">
        <ele>167.8</ele>
        <time>2026-05-01T14:47:42.000Z</time>
      </trkpt>
      <trkpt lat="44.83046" lon="0.82978">
        <ele>168.2</ele>
        <time>2026-05-01T14:47:43.000Z</time>
      </trkpt>
      <trkpt lat="44.83045" lon="0.82977">
        <ele>167.5</ele>
        <time>2026-05-01T14:47:44.000Z</time>
      </trkpt>
      <trkpt lat="44.83043" lon="0.82976">
        <ele>168.1</ele>
        <time>2026-05-01T14:47:45.000Z</time>
      </trkpt>
      <trkpt lat="44.83042" lon="0.82974">
        <ele>168.1</ele>
        <time>2026-05-01T14:47:46.000Z</time>
      </trkpt>
      <trkpt lat="44.83041" lon="0.82974">
        <ele>168.5</ele>
        <time>2026-05-01T14:47:47.000Z</time>
      </trkpt>
      <trkpt lat="44.8304" lon="0.82973">
        <ele>167.8</ele>
        <time>2026-05-01T14:47:48.000Z</time>
      </trkpt>
      <trkpt lat="44.83039" lon="0.82972">
        <ele>168.1</ele>
        <time>2026-05-01T14:47:49.000Z</time>
      </trkpt>
      <trkpt lat="44.83038" lon="0.82971">
        <ele>168.5</ele>
        <time>2026-05-01T14:47:50.000Z</time>
      </trkpt>
      <trkpt lat="44.83036" lon="0.8297">
        <ele>168.9</ele>
        <time>2026-05-01T14:47:51.000Z</time>
      </trkpt>
      <trkpt lat="44.83035" lon="0.82969">
        <ele>168.6</ele>
        <time>2026-05-01T14:47:52.000Z</time>
      </trkpt>
      <trkpt lat="44.83034" lon="0.82968">
        <ele>169</ele>
        <time>2026-05-01T14:47:53.000Z</time>
      </trkpt>
      <trkpt lat="44.83033" lon="0.82967">
        <ele>170.3</ele>
        <time>2026-05-01T14:47:54.000Z</time>
      </trkpt>
      <trkpt lat="44.83032" lon="0.82966">
        <ele>170.9</ele>
        <time>2026-05-01T14:47:55.000Z</time>
      </trkpt>
      <trkpt lat="44.83031" lon="0.82965">
        <ele>170.6</ele>
        <time>2026-05-01T14:47:56.000Z</time>
      </trkpt>
      <trkpt lat="44.8303" lon="0.82964">
        <ele>171.3</ele>
        <time>2026-05-01T14:47:57.000Z</time>
      </trkpt>
      <trkpt lat="44.8303" lon="0.82963">
        <ele>172.1</ele>
        <time>2026-05-01T14:47:58.000Z</time>
      </trkpt>
      <trkpt lat="44.83029" lon="0.82962">
        <ele>172.5</ele>
        <time>2026-05-01T14:47:59.000Z</time>
      </trkpt>
      <trkpt lat="44.83028" lon="0.82962">
        <ele>173.3</ele>
        <time>2026-05-01T14:48:00.000Z</time>
      </trkpt>
      <trkpt lat="44.83027" lon="0.8296">
        <ele>173.8</ele>
        <time>2026-05-01T14:48:01.000Z</time>
      </trkpt>
      <trkpt lat="44.83027" lon="0.82959">
        <ele>174.5</ele>
        <time>2026-05-01T14:48:02.000Z</time>
      </trkpt>
      <trkpt lat="44.83026" lon="0.82958">
        <ele>174.6</ele>
        <time>2026-05-01T14:48:03.000Z</time>
      </trkpt>
      <trkpt lat="44.83025" lon="0.82958">
        <ele>174.7</ele>
        <time>2026-05-01T14:48:04.000Z</time>
      </trkpt>
      <trkpt lat="44.83024" lon="0.82956">
        <ele>174.2</ele>
        <time>2026-05-01T14:48:05.000Z</time>
      </trkpt>
      <trkpt lat="44.83023" lon="0.82955">
        <ele>174.3</ele>
        <time>2026-05-01T14:48:06.000Z</time>
      </trkpt>
      <trkpt lat="44.83023" lon="0.82954">
        <ele>174</ele>
        <time>2026-05-01T14:48:07.000Z</time>
      </trkpt>
      <trkpt lat="44.83022" lon="0.82953">
        <ele>173.3</ele>
        <time>2026-05-01T14:48:08.000Z</time>
      </trkpt>
      <trkpt lat="44.8302" lon="0.82953">
        <ele>173</ele>
        <time>2026-05-01T14:48:09.000Z</time>
      </trkpt>
      <trkpt lat="44.83019" lon="0.82954">
        <ele>173.6</ele>
        <time>2026-05-01T14:48:10.000Z</time>
      </trkpt>
      <trkpt lat="44.83018" lon="0.82955">
        <ele>173.9</ele>
        <time>2026-05-01T14:48:11.000Z</time>
      </trkpt>
      <trkpt lat="44.83017" lon="0.82955">
        <ele>173.9</ele>
        <time>2026-05-01T14:48:12.000Z</time>
      </trkpt>
      <trkpt lat="44.83016" lon="0.82956">
        <ele>173.9</ele>
        <time>2026-05-01T14:48:13.000Z</time>
      </trkpt>
      <trkpt lat="44.83014" lon="0.82957">
        <ele>174.1</ele>
        <time>2026-05-01T14:48:14.000Z</time>
      </trkpt>
      <trkpt lat="44.83013" lon="0.82957">
        <ele>173.9</ele>
        <time>2026-05-01T14:48:15.000Z</time>
      </trkpt>
      <trkpt lat="44.83012" lon="0.82958">
        <ele>174.4</ele>
        <time>2026-05-01T14:48:16.000Z</time>
      </trkpt>
      <trkpt lat="44.83011" lon="0.8296">
        <ele>173.9</ele>
        <time>2026-05-01T14:48:17.000Z</time>
      </trkpt>
      <trkpt lat="44.83011" lon="0.82961">
        <ele>174.1</ele>
        <time>2026-05-01T14:48:18.000Z</time>
      </trkpt>
      <trkpt lat="44.8301" lon="0.82963">
        <ele>174.1</ele>
        <time>2026-05-01T14:48:19.000Z</time>
      </trkpt>
      <trkpt lat="44.8301" lon="0.82964">
        <ele>175.4</ele>
        <time>2026-05-01T14:48:20.000Z</time>
      </trkpt>
      <trkpt lat="44.83011" lon="0.82966">
        <ele>174.8</ele>
        <time>2026-05-01T14:48:21.000Z</time>
      </trkpt>
      <trkpt lat="44.83011" lon="0.82967">
        <ele>174</ele>
        <time>2026-05-01T14:48:22.000Z</time>
      </trkpt>
      <trkpt lat="44.83011" lon="0.82968">
        <ele>173.8</ele>
        <time>2026-05-01T14:48:23.000Z</time>
      </trkpt>
      <trkpt lat="44.83011" lon="0.82969">
        <ele>173.6</ele>
        <time>2026-05-01T14:48:24.000Z</time>
      </trkpt>
      <trkpt lat="44.83011" lon="0.8297">
        <ele>173.1</ele>
        <time>2026-05-01T14:48:25.000Z</time>
      </trkpt>
      <trkpt lat="44.83011" lon="0.82972">
        <ele>173.7</ele>
        <time>2026-05-01T14:48:26.000Z</time>
      </trkpt>
      <trkpt lat="44.83011" lon="0.82974">
        <ele>174.2</ele>
        <time>2026-05-01T14:48:27.000Z</time>
      </trkpt>
      <trkpt lat="44.8301" lon="0.82975">
        <ele>174.8</ele>
        <time>2026-05-01T14:48:28.000Z</time>
      </trkpt>
      <trkpt lat="44.83009" lon="0.82975">
        <ele>176.7</ele>
        <time>2026-05-01T14:48:29.000Z</time>
      </trkpt>
      <trkpt lat="44.83008" lon="0.82976">
        <ele>177.2</ele>
        <time>2026-05-01T14:48:30.000Z</time>
      </trkpt>
      <trkpt lat="44.83007" lon="0.82976">
        <ele>177.7</ele>
        <time>2026-05-01T14:48:31.000Z</time>
      </trkpt>
      <trkpt lat="44.83006" lon="0.82976">
        <ele>177.6</ele>
        <time>2026-05-01T14:48:32.000Z</time>
      </trkpt>
      <trkpt lat="44.83005" lon="0.82977">
        <ele>177.8</ele>
        <time>2026-05-01T14:48:33.000Z</time>
      </trkpt>
      <trkpt lat="44.83004" lon="0.82977">
        <ele>177.8</ele>
        <time>2026-05-01T14:48:34.000Z</time>
      </trkpt>
      <trkpt lat="44.83002" lon="0.82977">
        <ele>178.8</ele>
        <time>2026-05-01T14:48:35.000Z</time>
      </trkpt>
      <trkpt lat="44.83" lon="0.82978">
        <ele>179.4</ele>
        <time>2026-05-01T14:48:36.000Z</time>
      </trkpt>
      <trkpt lat="44.82999" lon="0.82978">
        <ele>179.7</ele>
        <time>2026-05-01T14:48:37.000Z</time>
      </trkpt>
      <trkpt lat="44.82997" lon="0.82979">
        <ele>179.9</ele>
        <time>2026-05-01T14:48:38.000Z</time>
      </trkpt>
      <trkpt lat="44.82996" lon="0.8298">
        <ele>180.1</ele>
        <time>2026-05-01T14:48:39.000Z</time>
      </trkpt>
      <trkpt lat="44.82995" lon="0.82981">
        <ele>179.8</ele>
        <time>2026-05-01T14:48:40.000Z</time>
      </trkpt>
      <trkpt lat="44.82993" lon="0.82981">
        <ele>180.1</ele>
        <time>2026-05-01T14:48:41.000Z</time>
      </trkpt>
      <trkpt lat="44.82992" lon="0.82981">
        <ele>180.4</ele>
        <time>2026-05-01T14:48:42.000Z</time>
      </trkpt>
      <trkpt lat="44.8299" lon="0.82982">
        <ele>180</ele>
        <time>2026-05-01T14:48:43.000Z</time>
      </trkpt>
      <trkpt lat="44.82989" lon="0.82983">
        <ele>179.1</ele>
        <time>2026-05-01T14:48:44.000Z</time>
      </trkpt>
      <trkpt lat="44.82987" lon="0.82983">
        <ele>178.2</ele>
        <time>2026-05-01T14:48:45.000Z</time>
      </trkpt>
      <trkpt lat="44.82986" lon="0.82984">
        <ele>178.5</ele>
        <time>2026-05-01T14:48:46.000Z</time>
      </trkpt>
      <trkpt lat="44.82983" lon="0.82985">
        <ele>178.3</ele>
        <time>2026-05-01T14:48:47.000Z</time>
      </trkpt>
      <trkpt lat="44.8298" lon="0.82986">
        <ele>178.8</ele>
        <time>2026-05-01T14:48:48.000Z</time>
      </trkpt>
      <trkpt lat="44.82977" lon="0.82987">
        <ele>178.6</ele>
        <time>2026-05-01T14:48:49.000Z</time>
      </trkpt>
      <trkpt lat="44.82974" lon="0.82989">
        <ele>178.7</ele>
        <time>2026-05-01T14:48:50.000Z</time>
      </trkpt>
      <trkpt lat="44.82971" lon="0.8299">
        <ele>178</ele>
        <time>2026-05-01T14:48:51.000Z</time>
      </trkpt>
      <trkpt lat="44.82969" lon="0.82992">
        <ele>177.8</ele>
        <time>2026-05-01T14:48:52.000Z</time>
      </trkpt>
      <trkpt lat="44.82966" lon="0.82994">
        <ele>177.3</ele>
        <time>2026-05-01T14:48:53.000Z</time>
      </trkpt>
      <trkpt lat="44.82963" lon="0.82996">
        <ele>177.5</ele>
        <time>2026-05-01T14:48:54.000Z</time>
      </trkpt>
      <trkpt lat="44.8296" lon="0.82998">
        <ele>177.7</ele>
        <time>2026-05-01T14:48:55.000Z</time>
      </trkpt>
      <trkpt lat="44.82958" lon="0.83001">
        <ele>178.6</ele>
        <time>2026-05-01T14:48:56.000Z</time>
      </trkpt>
      <trkpt lat="44.82955" lon="0.83002">
        <ele>178.6</ele>
        <time>2026-05-01T14:48:57.000Z</time>
      </trkpt>
      <trkpt lat="44.82954" lon="0.83004">
        <ele>178.6</ele>
        <time>2026-05-01T14:48:58.000Z</time>
      </trkpt>
      <trkpt lat="44.82951" lon="0.83007">
        <ele>179</ele>
        <time>2026-05-01T14:48:59.000Z</time>
      </trkpt>
      <trkpt lat="44.82948" lon="0.8301">
        <ele>180</ele>
        <time>2026-05-01T14:49:00.000Z</time>
      </trkpt>
      <trkpt lat="44.82945" lon="0.83013">
        <ele>180.7</ele>
        <time>2026-05-01T14:49:01.000Z</time>
      </trkpt>
      <trkpt lat="44.82942" lon="0.83016">
        <ele>182.2</ele>
        <time>2026-05-01T14:49:02.000Z</time>
      </trkpt>
      <trkpt lat="44.82939" lon="0.83019">
        <ele>183.2</ele>
        <time>2026-05-01T14:49:03.000Z</time>
      </trkpt>
      <trkpt lat="44.82936" lon="0.83022">
        <ele>183.9</ele>
        <time>2026-05-01T14:49:04.000Z</time>
      </trkpt>
      <trkpt lat="44.82933" lon="0.83024">
        <ele>183.9</ele>
        <time>2026-05-01T14:49:05.000Z</time>
      </trkpt>
      <trkpt lat="44.82931" lon="0.83027">
        <ele>184.1</ele>
        <time>2026-05-01T14:49:06.000Z</time>
      </trkpt>
      <trkpt lat="44.82929" lon="0.8303">
        <ele>184</ele>
        <time>2026-05-01T14:49:07.000Z</time>
      </trkpt>
      <trkpt lat="44.82927" lon="0.83032">
        <ele>184.4</ele>
        <time>2026-05-01T14:49:08.000Z</time>
      </trkpt>
      <trkpt lat="44.82926" lon="0.83035">
        <ele>184.3</ele>
        <time>2026-05-01T14:49:09.000Z</time>
      </trkpt>
      <trkpt lat="44.82924" lon="0.83037">
        <ele>184.7</ele>
        <time>2026-05-01T14:49:10.000Z</time>
      </trkpt>
      <trkpt lat="44.82923" lon="0.83037">
        <ele>184</ele>
        <time>2026-05-01T14:49:11.000Z</time>
      </trkpt>
      <trkpt lat="44.82922" lon="0.83038">
        <ele>184.2</ele>
        <time>2026-05-01T14:49:12.000Z</time>
      </trkpt>
      <trkpt lat="44.8292" lon="0.83039">
        <ele>184.8</ele>
        <time>2026-05-01T14:49:13.000Z</time>
      </trkpt>
      <trkpt lat="44.82918" lon="0.8304">
        <ele>185.5</ele>
        <time>2026-05-01T14:49:14.000Z</time>
      </trkpt>
      <trkpt lat="44.82917" lon="0.83041">
        <ele>185.1</ele>
        <time>2026-05-01T14:49:15.000Z</time>
      </trkpt>
      <trkpt lat="44.82916" lon="0.83042">
        <ele>185.3</ele>
        <time>2026-05-01T14:49:16.000Z</time>
      </trkpt>
      <trkpt lat="44.82915" lon="0.83043">
        <ele>185.2</ele>
        <time>2026-05-01T14:49:17.000Z</time>
      </trkpt>
      <trkpt lat="44.82913" lon="0.83045">
        <ele>185.1</ele>
        <time>2026-05-01T14:49:18.000Z</time>
      </trkpt>
      <trkpt lat="44.82912" lon="0.83046">
        <ele>185.3</ele>
        <time>2026-05-01T14:49:19.000Z</time>
      </trkpt>
      <trkpt lat="44.8291" lon="0.83048">
        <ele>185.2</ele>
        <time>2026-05-01T14:49:20.000Z</time>
      </trkpt>
      <trkpt lat="44.82909" lon="0.83049">
        <ele>185.6</ele>
        <time>2026-05-01T14:49:21.000Z</time>
      </trkpt>
      <trkpt lat="44.82907" lon="0.83051">
        <ele>185.8</ele>
        <time>2026-05-01T14:49:22.000Z</time>
      </trkpt>
      <trkpt lat="44.82905" lon="0.83053">
        <ele>185.7</ele>
        <time>2026-05-01T14:49:23.000Z</time>
      </trkpt>
      <trkpt lat="44.82904" lon="0.83055">
        <ele>185.3</ele>
        <time>2026-05-01T14:49:24.000Z</time>
      </trkpt>
      <trkpt lat="44.82903" lon="0.83057">
        <ele>185.5</ele>
        <time>2026-05-01T14:49:25.000Z</time>
      </trkpt>
      <trkpt lat="44.82902" lon="0.83059">
        <ele>185.6</ele>
        <time>2026-05-01T14:49:26.000Z</time>
      </trkpt>
      <trkpt lat="44.82901" lon="0.8306">
        <ele>185.5</ele>
        <time>2026-05-01T14:49:27.000Z</time>
      </trkpt>
      <trkpt lat="44.82899" lon="0.83062">
        <ele>185.3</ele>
        <time>2026-05-01T14:49:28.000Z</time>
      </trkpt>
      <trkpt lat="44.82898" lon="0.83064">
        <ele>185.6</ele>
        <time>2026-05-01T14:49:29.000Z</time>
      </trkpt>
      <trkpt lat="44.82897" lon="0.83065">
        <ele>185.4</ele>
        <time>2026-05-01T14:49:30.000Z</time>
      </trkpt>
      <trkpt lat="44.82896" lon="0.83067">
        <ele>185.8</ele>
        <time>2026-05-01T14:49:31.000Z</time>
      </trkpt>
      <trkpt lat="44.82895" lon="0.83068">
        <ele>185.8</ele>
        <time>2026-05-01T14:49:32.000Z</time>
      </trkpt>
      <trkpt lat="44.82893" lon="0.8307">
        <ele>186.1</ele>
        <time>2026-05-01T14:49:33.000Z</time>
      </trkpt>
      <trkpt lat="44.82892" lon="0.83071">
        <ele>186.1</ele>
        <time>2026-05-01T14:49:34.000Z</time>
      </trkpt>
      <trkpt lat="44.8289" lon="0.83073">
        <ele>186.4</ele>
        <time>2026-05-01T14:49:35.000Z</time>
      </trkpt>
      <trkpt lat="44.82889" lon="0.83075">
        <ele>186.5</ele>
        <time>2026-05-01T14:49:36.000Z</time>
      </trkpt>
      <trkpt lat="44.82888" lon="0.83077">
        <ele>186.2</ele>
        <time>2026-05-01T14:49:37.000Z</time>
      </trkpt>
      <trkpt lat="44.82887" lon="0.83079">
        <ele>185.8</ele>
        <time>2026-05-01T14:49:38.000Z</time>
      </trkpt>
      <trkpt lat="44.82886" lon="0.83081">
        <ele>185.6</ele>
        <time>2026-05-01T14:49:39.000Z</time>
      </trkpt>
      <trkpt lat="44.82885" lon="0.83084">
        <ele>185.7</ele>
        <time>2026-05-01T14:49:40.000Z</time>
      </trkpt>
      <trkpt lat="44.82884" lon="0.83086">
        <ele>185.5</ele>
        <time>2026-05-01T14:49:41.000Z</time>
      </trkpt>
      <trkpt lat="44.82883" lon="0.83088">
        <ele>185.5</ele>
        <time>2026-05-01T14:49:42.000Z</time>
      </trkpt>
      <trkpt lat="44.82882" lon="0.8309">
        <ele>185.7</ele>
        <time>2026-05-01T14:49:43.000Z</time>
      </trkpt>
      <trkpt lat="44.82881" lon="0.83092">
        <ele>185.9</ele>
        <time>2026-05-01T14:49:44.000Z</time>
      </trkpt>
      <trkpt lat="44.8288" lon="0.83094">
        <ele>185.9</ele>
        <time>2026-05-01T14:49:45.000Z</time>
      </trkpt>
      <trkpt lat="44.82879" lon="0.83097">
        <ele>185.8</ele>
        <time>2026-05-01T14:49:46.000Z</time>
      </trkpt>
      <trkpt lat="44.82878" lon="0.83099">
        <ele>185.5</ele>
        <time>2026-05-01T14:49:47.000Z</time>
      </trkpt>
      <trkpt lat="44.82877" lon="0.83102">
        <ele>185.5</ele>
        <time>2026-05-01T14:49:48.000Z</time>
      </trkpt>
      <trkpt lat="44.82877" lon="0.83104">
        <ele>185.3</ele>
        <time>2026-05-01T14:49:49.000Z</time>
      </trkpt>
      <trkpt lat="44.82877" lon="0.83107">
        <ele>185.3</ele>
        <time>2026-05-01T14:49:50.000Z</time>
      </trkpt>
      <trkpt lat="44.82876" lon="0.83109">
        <ele>185.2</ele>
        <time>2026-05-01T14:49:51.000Z</time>
      </trkpt>
      <trkpt lat="44.82875" lon="0.83112">
        <ele>185.1</ele>
        <time>2026-05-01T14:49:52.000Z</time>
      </trkpt>
      <trkpt lat="44.82875" lon="0.83114">
        <ele>185</ele>
        <time>2026-05-01T14:49:53.000Z</time>
      </trkpt>
      <trkpt lat="44.82874" lon="0.83117">
        <ele>185</ele>
        <time>2026-05-01T14:49:54.000Z</time>
      </trkpt>
      <trkpt lat="44.82873" lon="0.83119">
        <ele>184.9</ele>
        <time>2026-05-01T14:49:55.000Z</time>
      </trkpt>
      <trkpt lat="44.82872" lon="0.83121">
        <ele>185</ele>
        <time>2026-05-01T14:49:56.000Z</time>
      </trkpt>
      <trkpt lat="44.82871" lon="0.83123">
        <ele>185</ele>
        <time>2026-05-01T14:49:57.000Z</time>
      </trkpt>
      <trkpt lat="44.8287" lon="0.83126">
        <ele>184.9</ele>
        <time>2026-05-01T14:49:58.000Z</time>
      </trkpt>
      <trkpt lat="44.82869" lon="0.83128">
        <ele>184.8</ele>
        <time>2026-05-01T14:49:59.000Z</time>
      </trkpt>
      <trkpt lat="44.82868" lon="0.8313">
        <ele>184.8</ele>
        <time>2026-05-01T14:50:00.000Z</time>
      </trkpt>
      <trkpt lat="44.82867" lon="0.83132">
        <ele>184.5</ele>
        <time>2026-05-01T14:50:01.000Z</time>
      </trkpt>
      <trkpt lat="44.82866" lon="0.83133">
        <ele>184.5</ele>
        <time>2026-05-01T14:50:02.000Z</time>
      </trkpt>
      <trkpt lat="44.82865" lon="0.83135">
        <ele>184.9</ele>
        <time>2026-05-01T14:50:03.000Z</time>
      </trkpt>
      <trkpt lat="44.82865" lon="0.83137">
        <ele>185</ele>
        <time>2026-05-01T14:50:04.000Z</time>
      </trkpt>
      <trkpt lat="44.82864" lon="0.83139">
        <ele>185</ele>
        <time>2026-05-01T14:50:05.000Z</time>
      </trkpt>
      <trkpt lat="44.82863" lon="0.83141">
        <ele>185.1</ele>
        <time>2026-05-01T14:50:06.000Z</time>
      </trkpt>
      <trkpt lat="44.82862" lon="0.83143">
        <ele>185.1</ele>
        <time>2026-05-01T14:50:07.000Z</time>
      </trkpt>
      <trkpt lat="44.82861" lon="0.83145">
        <ele>185.1</ele>
        <time>2026-05-01T14:50:08.000Z</time>
      </trkpt>
      <trkpt lat="44.8286" lon="0.83147">
        <ele>185</ele>
        <time>2026-05-01T14:50:09.000Z</time>
      </trkpt>
      <trkpt lat="44.8286" lon="0.83149">
        <ele>185.2</ele>
        <time>2026-05-01T14:50:10.000Z</time>
      </trkpt>
      <trkpt lat="44.82859" lon="0.83151">
        <ele>185.2</ele>
        <time>2026-05-01T14:50:11.000Z</time>
      </trkpt>
      <trkpt lat="44.82859" lon="0.83153">
        <ele>185.3</ele>
        <time>2026-05-01T14:50:12.000Z</time>
      </trkpt>
      <trkpt lat="44.82858" lon="0.83155">
        <ele>185.3</ele>
        <time>2026-05-01T14:50:13.000Z</time>
      </trkpt>
      <trkpt lat="44.82857" lon="0.83157">
        <ele>185.5</ele>
        <time>2026-05-01T14:50:14.000Z</time>
      </trkpt>
      <trkpt lat="44.82857" lon="0.83159">
        <ele>185.7</ele>
        <time>2026-05-01T14:50:15.000Z</time>
      </trkpt>
      <trkpt lat="44.82856" lon="0.83161">
        <ele>185.8</ele>
        <time>2026-05-01T14:50:16.000Z</time>
      </trkpt>
      <trkpt lat="44.82856" lon="0.83163">
        <ele>185.8</ele>
        <time>2026-05-01T14:50:17.000Z</time>
      </trkpt>
      <trkpt lat="44.82855" lon="0.83165">
        <ele>185.8</ele>
        <time>2026-05-01T14:50:18.000Z</time>
      </trkpt>
      <trkpt lat="44.82855" lon="0.83168">
        <ele>185.8</ele>
        <time>2026-05-01T14:50:19.000Z</time>
      </trkpt>
      <trkpt lat="44.82855" lon="0.8317">
        <ele>185.9</ele>
        <time>2026-05-01T14:50:20.000Z</time>
      </trkpt>
      <trkpt lat="44.82854" lon="0.83172">
        <ele>186</ele>
        <time>2026-05-01T14:50:21.000Z</time>
      </trkpt>
      <trkpt lat="44.82853" lon="0.83173">
        <ele>186</ele>
        <time>2026-05-01T14:50:22.000Z</time>
      </trkpt>
      <trkpt lat="44.82853" lon="0.83175">
        <ele>185.9</ele>
        <time>2026-05-01T14:50:23.000Z</time>
      </trkpt>
      <trkpt lat="44.82852" lon="0.83177">
        <ele>186.1</ele>
        <time>2026-05-01T14:50:24.000Z</time>
      </trkpt>
      <trkpt lat="44.82852" lon="0.83179">
        <ele>186.5</ele>
        <time>2026-05-01T14:50:25.000Z</time>
      </trkpt>
      <trkpt lat="44.82851" lon="0.83181">
        <ele>186.6</ele>
        <time>2026-05-01T14:50:26.000Z</time>
      </trkpt>
      <trkpt lat="44.82851" lon="0.83183">
        <ele>186.7</ele>
        <time>2026-05-01T14:50:27.000Z</time>
      </trkpt>
      <trkpt lat="44.8285" lon="0.83186">
        <ele>187.1</ele>
        <time>2026-05-01T14:50:28.000Z</time>
      </trkpt>
      <trkpt lat="44.82849" lon="0.83188">
        <ele>187.4</ele>
        <time>2026-05-01T14:50:29.000Z</time>
      </trkpt>
      <trkpt lat="44.82848" lon="0.83189">
        <ele>187.5</ele>
        <time>2026-05-01T14:50:30.000Z</time>
      </trkpt>
      <trkpt lat="44.82848" lon="0.83191">
        <ele>187.6</ele>
        <time>2026-05-01T14:50:31.000Z</time>
      </trkpt>
      <trkpt lat="44.82847" lon="0.83194">
        <ele>187.7</ele>
        <time>2026-05-01T14:50:32.000Z</time>
      </trkpt>
      <trkpt lat="44.82847" lon="0.83196">
        <ele>187.8</ele>
        <time>2026-05-01T14:50:33.000Z</time>
      </trkpt>
      <trkpt lat="44.82846" lon="0.83198">
        <ele>188.2</ele>
        <time>2026-05-01T14:50:34.000Z</time>
      </trkpt>
      <trkpt lat="44.82846" lon="0.832">
        <ele>188.4</ele>
        <time>2026-05-01T14:50:35.000Z</time>
      </trkpt>
      <trkpt lat="44.82845" lon="0.83202">
        <ele>188.4</ele>
        <time>2026-05-01T14:50:36.000Z</time>
      </trkpt>
      <trkpt lat="44.82845" lon="0.83204">
        <ele>188.3</ele>
        <time>2026-05-01T14:50:37.000Z</time>
      </trkpt>
      <trkpt lat="44.82844" lon="0.83207">
        <ele>188.3</ele>
        <time>2026-05-01T14:50:38.000Z</time>
      </trkpt>
      <trkpt lat="44.82844" lon="0.83209">
        <ele>188.2</ele>
        <time>2026-05-01T14:50:39.000Z</time>
      </trkpt>
      <trkpt lat="44.82843" lon="0.83211">
        <ele>188.3</ele>
        <time>2026-05-01T14:50:40.000Z</time>
      </trkpt>
      <trkpt lat="44.82843" lon="0.83213">
        <ele>188.4</ele>
        <time>2026-05-01T14:50:41.000Z</time>
      </trkpt>
      <trkpt lat="44.82842" lon="0.83215">
        <ele>188.5</ele>
        <time>2026-05-01T14:50:42.000Z</time>
      </trkpt>
      <trkpt lat="44.82841" lon="0.83217">
        <ele>188.6</ele>
        <time>2026-05-01T14:50:43.000Z</time>
      </trkpt>
      <trkpt lat="44.82841" lon="0.83219">
        <ele>188.7</ele>
        <time>2026-05-01T14:50:44.000Z</time>
      </trkpt>
      <trkpt lat="44.8284" lon="0.83221">
        <ele>188.7</ele>
        <time>2026-05-01T14:50:45.000Z</time>
      </trkpt>
      <trkpt lat="44.8284" lon="0.83223">
        <ele>188.6</ele>
        <time>2026-05-01T14:50:46.000Z</time>
      </trkpt>
      <trkpt lat="44.82839" lon="0.83226">
        <ele>188.9</ele>
        <time>2026-05-01T14:50:47.000Z</time>
      </trkpt>
      <trkpt lat="44.82838" lon="0.83227">
        <ele>189</ele>
        <time>2026-05-01T14:50:48.000Z</time>
      </trkpt>
      <trkpt lat="44.82838" lon="0.83229">
        <ele>189.1</ele>
        <time>2026-05-01T14:50:49.000Z</time>
      </trkpt>
      <trkpt lat="44.82837" lon="0.83231">
        <ele>189.2</ele>
        <time>2026-05-01T14:50:50.000Z</time>
      </trkpt>
      <trkpt lat="44.82836" lon="0.83234">
        <ele>189.4</ele>
        <time>2026-05-01T14:50:51.000Z</time>
      </trkpt>
      <trkpt lat="44.82836" lon="0.83236">
        <ele>189.6</ele>
        <time>2026-05-01T14:50:52.000Z</time>
      </trkpt>
      <trkpt lat="44.82835" lon="0.83238">
        <ele>189.7</ele>
        <time>2026-05-01T14:50:53.000Z</time>
      </trkpt>
      <trkpt lat="44.82834" lon="0.8324">
        <ele>189.8</ele>
        <time>2026-05-01T14:50:54.000Z</time>
      </trkpt>
      <trkpt lat="44.82834" lon="0.83242">
        <ele>189.9</ele>
        <time>2026-05-01T14:50:55.000Z</time>
      </trkpt>
      <trkpt lat="44.82833" lon="0.83244">
        <ele>190.2</ele>
        <time>2026-05-01T14:50:56.000Z</time>
      </trkpt>
      <trkpt lat="44.82832" lon="0.83246">
        <ele>190.3</ele>
        <time>2026-05-01T14:50:57.000Z</time>
      </trkpt>
      <trkpt lat="44.82832" lon="0.83248">
        <ele>190.4</ele>
        <time>2026-05-01T14:50:58.000Z</time>
      </trkpt>
      <trkpt lat="44.82831" lon="0.8325">
        <ele>190.5</ele>
        <time>2026-05-01T14:50:59.000Z</time>
      </trkpt>
      <trkpt lat="44.8283" lon="0.83252">
        <ele>190.7</ele>
        <time>2026-05-01T14:51:00.000Z</time>
      </trkpt>
      <trkpt lat="44.82829" lon="0.83254">
        <ele>190.7</ele>
        <time>2026-05-01T14:51:01.000Z</time>
      </trkpt>
      <trkpt lat="44.82829" lon="0.83256">
        <ele>190.6</ele>
        <time>2026-05-01T14:51:02.000Z</time>
      </trkpt>
      <trkpt lat="44.82828" lon="0.83258">
        <ele>190.5</ele>
        <time>2026-05-01T14:51:03.000Z</time>
      </trkpt>
      <trkpt lat="44.82827" lon="0.8326">
        <ele>190.6</ele>
        <time>2026-05-01T14:51:04.000Z</time>
      </trkpt>
      <trkpt lat="44.82826" lon="0.83262">
        <ele>190.9</ele>
        <time>2026-05-01T14:51:05.000Z</time>
      </trkpt>
      <trkpt lat="44.82825" lon="0.83264">
        <ele>190.8</ele>
        <time>2026-05-01T14:51:06.000Z</time>
      </trkpt>
      <trkpt lat="44.82825" lon="0.83266">
        <ele>190.9</ele>
        <time>2026-05-01T14:51:07.000Z</time>
      </trkpt>
      <trkpt lat="44.82824" lon="0.83268">
        <ele>190.8</ele>
        <time>2026-05-01T14:51:08.000Z</time>
      </trkpt>
      <trkpt lat="44.82824" lon="0.83271">
        <ele>191</ele>
        <time>2026-05-01T14:51:09.000Z</time>
      </trkpt>
      <trkpt lat="44.82823" lon="0.83273">
        <ele>190.9</ele>
        <time>2026-05-01T14:51:10.000Z</time>
      </trkpt>
      <trkpt lat="44.82823" lon="0.83275">
        <ele>190.8</ele>
        <time>2026-05-01T14:51:11.000Z</time>
      </trkpt>
      <trkpt lat="44.82823" lon="0.83277">
        <ele>191.2</ele>
        <time>2026-05-01T14:51:12.000Z</time>
      </trkpt>
      <trkpt lat="44.82822" lon="0.83279">
        <ele>191.3</ele>
        <time>2026-05-01T14:51:13.000Z</time>
      </trkpt>
      <trkpt lat="44.82822" lon="0.83282">
        <ele>191.3</ele>
        <time>2026-05-01T14:51:14.000Z</time>
      </trkpt>
      <trkpt lat="44.82822" lon="0.83284">
        <ele>191.4</ele>
        <time>2026-05-01T14:51:15.000Z</time>
      </trkpt>
      <trkpt lat="44.82821" lon="0.83286">
        <ele>191.3</ele>
        <time>2026-05-01T14:51:16.000Z</time>
      </trkpt>
      <trkpt lat="44.82821" lon="0.83288">
        <ele>191.6</ele>
        <time>2026-05-01T14:51:17.000Z</time>
      </trkpt>
      <trkpt lat="44.8282" lon="0.8329">
        <ele>191.9</ele>
        <time>2026-05-01T14:51:18.000Z</time>
      </trkpt>
      <trkpt lat="44.8282" lon="0.83292">
        <ele>191.9</ele>
        <time>2026-05-01T14:51:19.000Z</time>
      </trkpt>
      <trkpt lat="44.82819" lon="0.83294">
        <ele>192.1</ele>
        <time>2026-05-01T14:51:20.000Z</time>
      </trkpt>
      <trkpt lat="44.82818" lon="0.83296">
        <ele>192.3</ele>
        <time>2026-05-01T14:51:21.000Z</time>
      </trkpt>
      <trkpt lat="44.82818" lon="0.83298">
        <ele>192.5</ele>
        <time>2026-05-01T14:51:22.000Z</time>
      </trkpt>
      <trkpt lat="44.82818" lon="0.833">
        <ele>192.5</ele>
        <time>2026-05-01T14:51:23.000Z</time>
      </trkpt>
      <trkpt lat="44.82817" lon="0.83303">
        <ele>192.5</ele>
        <time>2026-05-01T14:51:24.000Z</time>
      </trkpt>
      <trkpt lat="44.82817" lon="0.83305">
        <ele>192.5</ele>
        <time>2026-05-01T14:51:25.000Z</time>
      </trkpt>
      <trkpt lat="44.82816" lon="0.83307">
        <ele>192.6</ele>
        <time>2026-05-01T14:51:26.000Z</time>
      </trkpt>
      <trkpt lat="44.82816" lon="0.83309">
        <ele>192.6</ele>
        <time>2026-05-01T14:51:27.000Z</time>
      </trkpt>
      <trkpt lat="44.82815" lon="0.83311">
        <ele>192.9</ele>
        <time>2026-05-01T14:51:28.000Z</time>
      </trkpt>
      <trkpt lat="44.82815" lon="0.83313">
        <ele>192.7</ele>
        <time>2026-05-01T14:51:29.000Z</time>
      </trkpt>
      <trkpt lat="44.82814" lon="0.83315">
        <ele>193.1</ele>
        <time>2026-05-01T14:51:30.000Z</time>
      </trkpt>
      <trkpt lat="44.82814" lon="0.83317">
        <ele>193</ele>
        <time>2026-05-01T14:51:31.000Z</time>
      </trkpt>
      <trkpt lat="44.82813" lon="0.83319">
        <ele>193.3</ele>
        <time>2026-05-01T14:51:32.000Z</time>
      </trkpt>
      <trkpt lat="44.82812" lon="0.83321">
        <ele>193.5</ele>
        <time>2026-05-01T14:51:33.000Z</time>
      </trkpt>
      <trkpt lat="44.82812" lon="0.83323">
        <ele>193.6</ele>
        <time>2026-05-01T14:51:34.000Z</time>
      </trkpt>
      <trkpt lat="44.82811" lon="0.83325">
        <ele>193.6</ele>
        <time>2026-05-01T14:51:35.000Z</time>
      </trkpt>
      <trkpt lat="44.82811" lon="0.83328">
        <ele>193.9</ele>
        <time>2026-05-01T14:51:36.000Z</time>
      </trkpt>
      <trkpt lat="44.8281" lon="0.8333">
        <ele>194.1</ele>
        <time>2026-05-01T14:51:37.000Z</time>
      </trkpt>
      <trkpt lat="44.82809" lon="0.83332">
        <ele>194.2</ele>
        <time>2026-05-01T14:51:38.000Z</time>
      </trkpt>
      <trkpt lat="44.82809" lon="0.83334">
        <ele>194.1</ele>
        <time>2026-05-01T14:51:39.000Z</time>
      </trkpt>
      <trkpt lat="44.82808" lon="0.83336">
        <ele>194.1</ele>
        <time>2026-05-01T14:51:40.000Z</time>
      </trkpt>
      <trkpt lat="44.82808" lon="0.83338">
        <ele>194.4</ele>
        <time>2026-05-01T14:51:41.000Z</time>
      </trkpt>
      <trkpt lat="44.82807" lon="0.8334">
        <ele>194.6</ele>
        <time>2026-05-01T14:51:42.000Z</time>
      </trkpt>
      <trkpt lat="44.82807" lon="0.83342">
        <ele>194.5</ele>
        <time>2026-05-01T14:51:43.000Z</time>
      </trkpt>
      <trkpt lat="44.82806" lon="0.83344">
        <ele>194.7</ele>
        <time>2026-05-01T14:51:44.000Z</time>
      </trkpt>
      <trkpt lat="44.82805" lon="0.83346">
        <ele>194.7</ele>
        <time>2026-05-01T14:51:45.000Z</time>
      </trkpt>
      <trkpt lat="44.82805" lon="0.83349">
        <ele>194.8</ele>
        <time>2026-05-01T14:51:46.000Z</time>
      </trkpt>
      <trkpt lat="44.82804" lon="0.83351">
        <ele>194.8</ele>
        <time>2026-05-01T14:51:47.000Z</time>
      </trkpt>
      <trkpt lat="44.82803" lon="0.83353">
        <ele>194.8</ele>
        <time>2026-05-01T14:51:48.000Z</time>
      </trkpt>
      <trkpt lat="44.82803" lon="0.83355">
        <ele>194.9</ele>
        <time>2026-05-01T14:51:49.000Z</time>
      </trkpt>
      <trkpt lat="44.82802" lon="0.83357">
        <ele>195.1</ele>
        <time>2026-05-01T14:51:50.000Z</time>
      </trkpt>
      <trkpt lat="44.82801" lon="0.83359">
        <ele>195</ele>
        <time>2026-05-01T14:51:51.000Z</time>
      </trkpt>
      <trkpt lat="44.82801" lon="0.83361">
        <ele>195</ele>
        <time>2026-05-01T14:51:52.000Z</time>
      </trkpt>
      <trkpt lat="44.828" lon="0.83363">
        <ele>195</ele>
        <time>2026-05-01T14:51:53.000Z</time>
      </trkpt>
      <trkpt lat="44.82799" lon="0.83365">
        <ele>195</ele>
        <time>2026-05-01T14:51:54.000Z</time>
      </trkpt>
      <trkpt lat="44.82798" lon="0.83367">
        <ele>195</ele>
        <time>2026-05-01T14:51:55.000Z</time>
      </trkpt>
      <trkpt lat="44.82797" lon="0.83369">
        <ele>195.2</ele>
        <time>2026-05-01T14:51:56.000Z</time>
      </trkpt>
      <trkpt lat="44.82796" lon="0.83371">
        <ele>195.2</ele>
        <time>2026-05-01T14:51:57.000Z</time>
      </trkpt>
      <trkpt lat="44.82795" lon="0.83373">
        <ele>195.3</ele>
        <time>2026-05-01T14:51:58.000Z</time>
      </trkpt>
      <trkpt lat="44.82794" lon="0.83374">
        <ele>195.5</ele>
        <time>2026-05-01T14:51:59.000Z</time>
      </trkpt>
      <trkpt lat="44.82793" lon="0.83376">
        <ele>195.7</ele>
        <time>2026-05-01T14:52:00.000Z</time>
      </trkpt>
      <trkpt lat="44.82792" lon="0.83378">
        <ele>195.7</ele>
        <time>2026-05-01T14:52:01.000Z</time>
      </trkpt>
      <trkpt lat="44.82792" lon="0.83379">
        <ele>195.8</ele>
        <time>2026-05-01T14:52:02.000Z</time>
      </trkpt>
      <trkpt lat="44.82791" lon="0.83381">
        <ele>195.9</ele>
        <time>2026-05-01T14:52:03.000Z</time>
      </trkpt>
      <trkpt lat="44.8279" lon="0.83383">
        <ele>195.7</ele>
        <time>2026-05-01T14:52:04.000Z</time>
      </trkpt>
      <trkpt lat="44.82789" lon="0.83384">
        <ele>195.9</ele>
        <time>2026-05-01T14:52:05.000Z</time>
      </trkpt>
      <trkpt lat="44.82788" lon="0.83386">
        <ele>196</ele>
        <time>2026-05-01T14:52:06.000Z</time>
      </trkpt>
      <trkpt lat="44.82787" lon="0.83387">
        <ele>196</ele>
        <time>2026-05-01T14:52:07.000Z</time>
      </trkpt>
      <trkpt lat="44.82786" lon="0.83389">
        <ele>196.1</ele>
        <time>2026-05-01T14:52:08.000Z</time>
      </trkpt>
      <trkpt lat="44.82785" lon="0.83391">
        <ele>196</ele>
        <time>2026-05-01T14:52:09.000Z</time>
      </trkpt>
      <trkpt lat="44.82784" lon="0.83392">
        <ele>196</ele>
        <time>2026-05-01T14:52:10.000Z</time>
      </trkpt>
      <trkpt lat="44.82783" lon="0.83394">
        <ele>196.1</ele>
        <time>2026-05-01T14:52:11.000Z</time>
      </trkpt>
      <trkpt lat="44.82782" lon="0.83395">
        <ele>196.3</ele>
        <time>2026-05-01T14:52:12.000Z</time>
      </trkpt>
      <trkpt lat="44.82781" lon="0.83397">
        <ele>196.4</ele>
        <time>2026-05-01T14:52:13.000Z</time>
      </trkpt>
      <trkpt lat="44.8278" lon="0.83399">
        <ele>196.4</ele>
        <time>2026-05-01T14:52:14.000Z</time>
      </trkpt>
      <trkpt lat="44.82779" lon="0.834">
        <ele>196.4</ele>
        <time>2026-05-01T14:52:15.000Z</time>
      </trkpt>
      <trkpt lat="44.82779" lon="0.834">
        <ele>196.5</ele>
        <time>2026-05-01T14:52:16.000Z</time>
      </trkpt>
      <trkpt lat="44.82779" lon="0.834">
        <ele>196.6</ele>
        <time>2026-05-01T14:52:17.000Z</time>
      </trkpt>
      <trkpt lat="44.82778" lon="0.834">
        <ele>196.7</ele>
        <time>2026-05-01T14:52:18.000Z</time>
      </trkpt>
      <trkpt lat="44.82777" lon="0.83401">
        <ele>196.5</ele>
        <time>2026-05-01T14:52:19.000Z</time>
      </trkpt>
      <trkpt lat="44.82776" lon="0.83403">
        <ele>196.6</ele>
        <time>2026-05-01T14:52:20.000Z</time>
      </trkpt>
      <trkpt lat="44.82775" lon="0.83404">
        <ele>196.7</ele>
        <time>2026-05-01T14:52:21.000Z</time>
      </trkpt>
      <trkpt lat="44.82774" lon="0.83406">
        <ele>196.7</ele>
        <time>2026-05-01T14:52:22.000Z</time>
      </trkpt>
      <trkpt lat="44.82773" lon="0.83407">
        <ele>196.8</ele>
        <time>2026-05-01T14:52:23.000Z</time>
      </trkpt>
      <trkpt lat="44.82771" lon="0.83409">
        <ele>196.8</ele>
        <time>2026-05-01T14:52:24.000Z</time>
      </trkpt>
      <trkpt lat="44.8277" lon="0.83411">
        <ele>196.9</ele>
        <time>2026-05-01T14:52:25.000Z</time>
      </trkpt>
      <trkpt lat="44.82769" lon="0.83412">
        <ele>197.1</ele>
        <time>2026-05-01T14:52:26.000Z</time>
      </trkpt>
      <trkpt lat="44.82768" lon="0.83414">
        <ele>197.2</ele>
        <time>2026-05-01T14:52:27.000Z</time>
      </trkpt>
      <trkpt lat="44.82766" lon="0.83416">
        <ele>197.2</ele>
        <time>2026-05-01T14:52:28.000Z</time>
      </trkpt>
      <trkpt lat="44.82765" lon="0.83417">
        <ele>197.5</ele>
        <time>2026-05-01T14:52:29.000Z</time>
      </trkpt>
      <trkpt lat="44.82763" lon="0.83419">
        <ele>197.6</ele>
        <time>2026-05-01T14:52:30.000Z</time>
      </trkpt>
      <trkpt lat="44.82762" lon="0.83421">
        <ele>197.7</ele>
        <time>2026-05-01T14:52:31.000Z</time>
      </trkpt>
      <trkpt lat="44.8276" lon="0.83423">
        <ele>197.9</ele>
        <time>2026-05-01T14:52:32.000Z</time>
      </trkpt>
      <trkpt lat="44.82759" lon="0.83425">
        <ele>198.1</ele>
        <time>2026-05-01T14:52:33.000Z</time>
      </trkpt>
      <trkpt lat="44.82758" lon="0.83426">
        <ele>198.5</ele>
        <time>2026-05-01T14:52:34.000Z</time>
      </trkpt>
      <trkpt lat="44.82756" lon="0.83428">
        <ele>198.7</ele>
        <time>2026-05-01T14:52:35.000Z</time>
      </trkpt>
      <trkpt lat="44.82755" lon="0.8343">
        <ele>198.7</ele>
        <time>2026-05-01T14:52:36.000Z</time>
      </trkpt>
      <trkpt lat="44.82754" lon="0.83431">
        <ele>198.4</ele>
        <time>2026-05-01T14:52:37.000Z</time>
      </trkpt>
      <trkpt lat="44.82752" lon="0.83432">
        <ele>198.4</ele>
        <time>2026-05-01T14:52:38.000Z</time>
      </trkpt>
      <trkpt lat="44.82751" lon="0.83434">
        <ele>198.4</ele>
        <time>2026-05-01T14:52:39.000Z</time>
      </trkpt>
      <trkpt lat="44.8275" lon="0.83435">
        <ele>198.2</ele>
        <time>2026-05-01T14:52:40.000Z</time>
      </trkpt>
      <trkpt lat="44.82749" lon="0.83436">
        <ele>198.1</ele>
        <time>2026-05-01T14:52:41.000Z</time>
      </trkpt>
      <trkpt lat="44.82748" lon="0.83438">
        <ele>198.1</ele>
        <time>2026-05-01T14:52:42.000Z</time>
      </trkpt>
      <trkpt lat="44.82747" lon="0.83439">
        <ele>197.9</ele>
        <time>2026-05-01T14:52:43.000Z</time>
      </trkpt>
      <trkpt lat="44.82746" lon="0.83441">
        <ele>197.9</ele>
        <time>2026-05-01T14:52:44.000Z</time>
      </trkpt>
      <trkpt lat="44.82745" lon="0.83442">
        <ele>197.7</ele>
        <time>2026-05-01T14:52:45.000Z</time>
      </trkpt>
      <trkpt lat="44.82744" lon="0.83444">
        <ele>197.8</ele>
        <time>2026-05-01T14:52:46.000Z</time>
      </trkpt>
      <trkpt lat="44.82743" lon="0.83445">
        <ele>197.8</ele>
        <time>2026-05-01T14:52:47.000Z</time>
      </trkpt>
      <trkpt lat="44.82741" lon="0.83447">
        <ele>197.8</ele>
        <time>2026-05-01T14:52:48.000Z</time>
      </trkpt>
      <trkpt lat="44.8274" lon="0.83448">
        <ele>197.6</ele>
        <time>2026-05-01T14:52:49.000Z</time>
      </trkpt>
      <trkpt lat="44.82739" lon="0.8345">
        <ele>197.5</ele>
        <time>2026-05-01T14:52:50.000Z</time>
      </trkpt>
      <trkpt lat="44.82738" lon="0.83452">
        <ele>197.3</ele>
        <time>2026-05-01T14:52:51.000Z</time>
      </trkpt>
      <trkpt lat="44.82737" lon="0.83453">
        <ele>197.4</ele>
        <time>2026-05-01T14:52:52.000Z</time>
      </trkpt>
      <trkpt lat="44.82737" lon="0.83457">
        <ele>197.4</ele>
        <time>2026-05-01T14:52:53.000Z</time>
      </trkpt>
      <trkpt lat="44.82734" lon="0.83457">
        <ele>197.8</ele>
        <time>2026-05-01T14:52:54.000Z</time>
      </trkpt>
      <trkpt lat="44.82733" lon="0.83458">
        <ele>197.7</ele>
        <time>2026-05-01T14:52:55.000Z</time>
      </trkpt>
      <trkpt lat="44.82732" lon="0.83459">
        <ele>197.6</ele>
        <time>2026-05-01T14:52:56.000Z</time>
      </trkpt>
      <trkpt lat="44.82731" lon="0.83461">
        <ele>197.6</ele>
        <time>2026-05-01T14:52:57.000Z</time>
      </trkpt>
      <trkpt lat="44.8273" lon="0.83463">
        <ele>197.5</ele>
        <time>2026-05-01T14:52:58.000Z</time>
      </trkpt>
      <trkpt lat="44.82729" lon="0.83465">
        <ele>197.2</ele>
        <time>2026-05-01T14:52:59.000Z</time>
      </trkpt>
      <trkpt lat="44.82728" lon="0.83466">
        <ele>196.9</ele>
        <time>2026-05-01T14:53:00.000Z</time>
      </trkpt>
      <trkpt lat="44.82727" lon="0.83468">
        <ele>196.7</ele>
        <time>2026-05-01T14:53:01.000Z</time>
      </trkpt>
      <trkpt lat="44.82726" lon="0.8347">
        <ele>196.6</ele>
        <time>2026-05-01T14:53:02.000Z</time>
      </trkpt>
      <trkpt lat="44.82725" lon="0.83471">
        <ele>196.5</ele>
        <time>2026-05-01T14:53:03.000Z</time>
      </trkpt>
      <trkpt lat="44.82723" lon="0.83473">
        <ele>196.4</ele>
        <time>2026-05-01T14:53:04.000Z</time>
      </trkpt>
      <trkpt lat="44.82722" lon="0.83474">
        <ele>196.4</ele>
        <time>2026-05-01T14:53:05.000Z</time>
      </trkpt>
      <trkpt lat="44.82721" lon="0.83476">
        <ele>196.3</ele>
        <time>2026-05-01T14:53:06.000Z</time>
      </trkpt>
      <trkpt lat="44.8272" lon="0.83477">
        <ele>196.4</ele>
        <time>2026-05-01T14:53:07.000Z</time>
      </trkpt>
      <trkpt lat="44.82719" lon="0.83479">
        <ele>196.1</ele>
        <time>2026-05-01T14:53:08.000Z</time>
      </trkpt>
      <trkpt lat="44.82718" lon="0.83481">
        <ele>196</ele>
        <time>2026-05-01T14:53:09.000Z</time>
      </trkpt>
      <trkpt lat="44.82717" lon="0.83482">
        <ele>195.9</ele>
        <time>2026-05-01T14:53:10.000Z</time>
      </trkpt>
      <trkpt lat="44.82716" lon="0.83484">
        <ele>195.7</ele>
        <time>2026-05-01T14:53:11.000Z</time>
      </trkpt>
      <trkpt lat="44.82715" lon="0.83485">
        <ele>195.5</ele>
        <time>2026-05-01T14:53:12.000Z</time>
      </trkpt>
      <trkpt lat="44.82713" lon="0.83486">
        <ele>195.5</ele>
        <time>2026-05-01T14:53:13.000Z</time>
      </trkpt>
      <trkpt lat="44.82712" lon="0.83488">
        <ele>195.3</ele>
        <time>2026-05-01T14:53:14.000Z</time>
      </trkpt>
      <trkpt lat="44.82711" lon="0.8349">
        <ele>195.2</ele>
        <time>2026-05-01T14:53:15.000Z</time>
      </trkpt>
      <trkpt lat="44.8271" lon="0.83491">
        <ele>195.1</ele>
        <time>2026-05-01T14:53:16.000Z</time>
      </trkpt>
      <trkpt lat="44.82709" lon="0.83493">
        <ele>194.8</ele>
        <time>2026-05-01T14:53:17.000Z</time>
      </trkpt>
      <trkpt lat="44.82707" lon="0.83495">
        <ele>194.6</ele>
        <time>2026-05-01T14:53:18.000Z</time>
      </trkpt>
      <trkpt lat="44.82706" lon="0.83496">
        <ele>194.4</ele>
        <time>2026-05-01T14:53:19.000Z</time>
      </trkpt>
      <trkpt lat="44.82705" lon="0.83498">
        <ele>194.4</ele>
        <time>2026-05-01T14:53:20.000Z</time>
      </trkpt>
      <trkpt lat="44.82704" lon="0.835">
        <ele>194.2</ele>
        <time>2026-05-01T14:53:21.000Z</time>
      </trkpt>
      <trkpt lat="44.82703" lon="0.83501">
        <ele>194</ele>
        <time>2026-05-01T14:53:22.000Z</time>
      </trkpt>
      <trkpt lat="44.82703" lon="0.83501">
        <ele>194.1</ele>
        <time>2026-05-01T14:53:23.000Z</time>
      </trkpt>
      <trkpt lat="44.82702" lon="0.83502">
        <ele>194.1</ele>
        <time>2026-05-01T14:53:24.000Z</time>
      </trkpt>
      <trkpt lat="44.82701" lon="0.83504">
        <ele>194.1</ele>
        <time>2026-05-01T14:53:25.000Z</time>
      </trkpt>
      <trkpt lat="44.827" lon="0.83506">
        <ele>194.3</ele>
        <time>2026-05-01T14:53:26.000Z</time>
      </trkpt>
      <trkpt lat="44.82699" lon="0.83508">
        <ele>194.2</ele>
        <time>2026-05-01T14:53:27.000Z</time>
      </trkpt>
      <trkpt lat="44.82698" lon="0.8351">
        <ele>194.2</ele>
        <time>2026-05-01T14:53:28.000Z</time>
      </trkpt>
      <trkpt lat="44.82697" lon="0.83512">
        <ele>194.1</ele>
        <time>2026-05-01T14:53:29.000Z</time>
      </trkpt>
      <trkpt lat="44.82697" lon="0.83513">
        <ele>194</ele>
        <time>2026-05-01T14:53:30.000Z</time>
      </trkpt>
      <trkpt lat="44.82696" lon="0.83515">
        <ele>194.1</ele>
        <time>2026-05-01T14:53:31.000Z</time>
      </trkpt>
      <trkpt lat="44.82696" lon="0.83517">
        <ele>193.9</ele>
        <time>2026-05-01T14:53:32.000Z</time>
      </trkpt>
      <trkpt lat="44.82695" lon="0.8352">
        <ele>193.7</ele>
        <time>2026-05-01T14:53:33.000Z</time>
      </trkpt>
      <trkpt lat="44.82695" lon="0.83522">
        <ele>193.6</ele>
        <time>2026-05-01T14:53:34.000Z</time>
      </trkpt>
      <trkpt lat="44.82695" lon="0.83524">
        <ele>193.4</ele>
        <time>2026-05-01T14:53:35.000Z</time>
      </trkpt>
      <trkpt lat="44.82695" lon="0.83526">
        <ele>193.4</ele>
        <time>2026-05-01T14:53:36.000Z</time>
      </trkpt>
      <trkpt lat="44.82695" lon="0.83528">
        <ele>193.4</ele>
        <time>2026-05-01T14:53:37.000Z</time>
      </trkpt>
      <trkpt lat="44.82696" lon="0.8353">
        <ele>193.2</ele>
        <time>2026-05-01T14:53:38.000Z</time>
      </trkpt>
      <trkpt lat="44.82697" lon="0.83532">
        <ele>193</ele>
        <time>2026-05-01T14:53:39.000Z</time>
      </trkpt>
      <trkpt lat="44.82698" lon="0.83533">
        <ele>192.8</ele>
        <time>2026-05-01T14:53:40.000Z</time>
      </trkpt>
      <trkpt lat="44.82699" lon="0.83535">
        <ele>192.9</ele>
        <time>2026-05-01T14:53:41.000Z</time>
      </trkpt>
      <trkpt lat="44.827" lon="0.83537">
        <ele>193.1</ele>
        <time>2026-05-01T14:53:42.000Z</time>
      </trkpt>
      <trkpt lat="44.82701" lon="0.83539">
        <ele>193.1</ele>
        <time>2026-05-01T14:53:43.000Z</time>
      </trkpt>
      <trkpt lat="44.82702" lon="0.8354">
        <ele>192.9</ele>
        <time>2026-05-01T14:53:44.000Z</time>
      </trkpt>
      <trkpt lat="44.82702" lon="0.83542">
        <ele>193</ele>
        <time>2026-05-01T14:53:45.000Z</time>
      </trkpt>
      <trkpt lat="44.82704" lon="0.83543">
        <ele>192.8</ele>
        <time>2026-05-01T14:53:46.000Z</time>
      </trkpt>
      <trkpt lat="44.82705" lon="0.83545">
        <ele>192.7</ele>
        <time>2026-05-01T14:53:47.000Z</time>
      </trkpt>
      <trkpt lat="44.82706" lon="0.83546">
        <ele>192.7</ele>
        <time>2026-05-01T14:53:48.000Z</time>
      </trkpt>
      <trkpt lat="44.82707" lon="0.83547">
        <ele>192.5</ele>
        <time>2026-05-01T14:53:49.000Z</time>
      </trkpt>
      <trkpt lat="44.82709" lon="0.83548">
        <ele>192.6</ele>
        <time>2026-05-01T14:53:50.000Z</time>
      </trkpt>
      <trkpt lat="44.8271" lon="0.8355">
        <ele>192.6</ele>
        <time>2026-05-01T14:53:51.000Z</time>
      </trkpt>
      <trkpt lat="44.82711" lon="0.83551">
        <ele>192.6</ele>
        <time>2026-05-01T14:53:52.000Z</time>
      </trkpt>
      <trkpt lat="44.82712" lon="0.83553">
        <ele>192.5</ele>
        <time>2026-05-01T14:53:53.000Z</time>
      </trkpt>
      <trkpt lat="44.82713" lon="0.83554">
        <ele>192.6</ele>
        <time>2026-05-01T14:53:54.000Z</time>
      </trkpt>
      <trkpt lat="44.82714" lon="0.83556">
        <ele>192.7</ele>
        <time>2026-05-01T14:53:55.000Z</time>
      </trkpt>
      <trkpt lat="44.82715" lon="0.83558">
        <ele>192.6</ele>
        <time>2026-05-01T14:53:56.000Z</time>
      </trkpt>
      <trkpt lat="44.82716" lon="0.83559">
        <ele>192.4</ele>
        <time>2026-05-01T14:53:57.000Z</time>
      </trkpt>
      <trkpt lat="44.82717" lon="0.83561">
        <ele>192.3</ele>
        <time>2026-05-01T14:53:58.000Z</time>
      </trkpt>
      <trkpt lat="44.82718" lon="0.83562">
        <ele>192.1</ele>
        <time>2026-05-01T14:53:59.000Z</time>
      </trkpt>
      <trkpt lat="44.82719" lon="0.83563">
        <ele>191.9</ele>
        <time>2026-05-01T14:54:00.000Z</time>
      </trkpt>
      <trkpt lat="44.82721" lon="0.83564">
        <ele>191.9</ele>
        <time>2026-05-01T14:54:01.000Z</time>
      </trkpt>
      <trkpt lat="44.82722" lon="0.83565">
        <ele>191.7</ele>
        <time>2026-05-01T14:54:02.000Z</time>
      </trkpt>
      <trkpt lat="44.82723" lon="0.83566">
        <ele>191.6</ele>
        <time>2026-05-01T14:54:03.000Z</time>
      </trkpt>
      <trkpt lat="44.82724" lon="0.83567">
        <ele>191.1</ele>
        <time>2026-05-01T14:54:04.000Z</time>
      </trkpt>
      <trkpt lat="44.82726" lon="0.83568">
        <ele>191.3</ele>
        <time>2026-05-01T14:54:05.000Z</time>
      </trkpt>
      <trkpt lat="44.82727" lon="0.8357">
        <ele>191.3</ele>
        <time>2026-05-01T14:54:06.000Z</time>
      </trkpt>
      <trkpt lat="44.82729" lon="0.83571">
        <ele>191.3</ele>
        <time>2026-05-01T14:54:07.000Z</time>
      </trkpt>
      <trkpt lat="44.8273" lon="0.83572">
        <ele>191</ele>
        <time>2026-05-01T14:54:08.000Z</time>
      </trkpt>
      <trkpt lat="44.82731" lon="0.83574">
        <ele>190.9</ele>
        <time>2026-05-01T14:54:09.000Z</time>
      </trkpt>
      <trkpt lat="44.82733" lon="0.83575">
        <ele>190.6</ele>
        <time>2026-05-01T14:54:10.000Z</time>
      </trkpt>
      <trkpt lat="44.82734" lon="0.83576">
        <ele>190.5</ele>
        <time>2026-05-01T14:54:11.000Z</time>
      </trkpt>
      <trkpt lat="44.82735" lon="0.83577">
        <ele>190.3</ele>
        <time>2026-05-01T14:54:12.000Z</time>
      </trkpt>
      <trkpt lat="44.82737" lon="0.83578">
        <ele>190.1</ele>
        <time>2026-05-01T14:54:13.000Z</time>
      </trkpt>
      <trkpt lat="44.82738" lon="0.8358">
        <ele>189.9</ele>
        <time>2026-05-01T14:54:14.000Z</time>
      </trkpt>
      <trkpt lat="44.82739" lon="0.83581">
        <ele>190</ele>
        <time>2026-05-01T14:54:15.000Z</time>
      </trkpt>
      <trkpt lat="44.82741" lon="0.83583">
        <ele>189.9</ele>
        <time>2026-05-01T14:54:16.000Z</time>
      </trkpt>
      <trkpt lat="44.82742" lon="0.83584">
        <ele>189.8</ele>
        <time>2026-05-01T14:54:17.000Z</time>
      </trkpt>
      <trkpt lat="44.82743" lon="0.83585">
        <ele>189.8</ele>
        <time>2026-05-01T14:54:18.000Z</time>
      </trkpt>
      <trkpt lat="44.82744" lon="0.83587">
        <ele>189.6</ele>
        <time>2026-05-01T14:54:19.000Z</time>
      </trkpt>
      <trkpt lat="44.82745" lon="0.83589">
        <ele>189.4</ele>
        <time>2026-05-01T14:54:20.000Z</time>
      </trkpt>
      <trkpt lat="44.82746" lon="0.83591">
        <ele>189.2</ele>
        <time>2026-05-01T14:54:21.000Z</time>
      </trkpt>
      <trkpt lat="44.82746" lon="0.83593">
        <ele>188.7</ele>
        <time>2026-05-01T14:54:22.000Z</time>
      </trkpt>
      <trkpt lat="44.82747" lon="0.83595">
        <ele>188.7</ele>
        <time>2026-05-01T14:54:23.000Z</time>
      </trkpt>
      <trkpt lat="44.82748" lon="0.83597">
        <ele>188.3</ele>
        <time>2026-05-01T14:54:24.000Z</time>
      </trkpt>
      <trkpt lat="44.82748" lon="0.83599">
        <ele>188.5</ele>
        <time>2026-05-01T14:54:25.000Z</time>
      </trkpt>
      <trkpt lat="44.82748" lon="0.83601">
        <ele>188.2</ele>
        <time>2026-05-01T14:54:26.000Z</time>
      </trkpt>
      <trkpt lat="44.82749" lon="0.83603">
        <ele>187.9</ele>
        <time>2026-05-01T14:54:27.000Z</time>
      </trkpt>
      <trkpt lat="44.82749" lon="0.83605">
        <ele>187.5</ele>
        <time>2026-05-01T14:54:28.000Z</time>
      </trkpt>
      <trkpt lat="44.82749" lon="0.83607">
        <ele>187.5</ele>
        <time>2026-05-01T14:54:29.000Z</time>
      </trkpt>
      <trkpt lat="44.82748" lon="0.83609">
        <ele>187.5</ele>
        <time>2026-05-01T14:54:30.000Z</time>
      </trkpt>
      <trkpt lat="44.82748" lon="0.83611">
        <ele>187.2</ele>
        <time>2026-05-01T14:54:31.000Z</time>
      </trkpt>
      <trkpt lat="44.82747" lon="0.83613">
        <ele>186.9</ele>
        <time>2026-05-01T14:54:32.000Z</time>
      </trkpt>
      <trkpt lat="44.82746" lon="0.83615">
        <ele>186.8</ele>
        <time>2026-05-01T14:54:33.000Z</time>
      </trkpt>
      <trkpt lat="44.82745" lon="0.83616">
        <ele>186.9</ele>
        <time>2026-05-01T14:54:34.000Z</time>
      </trkpt>
      <trkpt lat="44.82743" lon="0.83617">
        <ele>186.9</ele>
        <time>2026-05-01T14:54:35.000Z</time>
      </trkpt>
      <trkpt lat="44.82742" lon="0.83618">
        <ele>187.1</ele>
        <time>2026-05-01T14:54:36.000Z</time>
      </trkpt>
      <trkpt lat="44.8274" lon="0.83618">
        <ele>187.3</ele>
        <time>2026-05-01T14:54:37.000Z</time>
      </trkpt>
      <trkpt lat="44.82739" lon="0.83619">
        <ele>187.8</ele>
        <time>2026-05-01T14:54:38.000Z</time>
      </trkpt>
      <trkpt lat="44.82737" lon="0.8362">
        <ele>188.1</ele>
        <time>2026-05-01T14:54:39.000Z</time>
      </trkpt>
      <trkpt lat="44.82736" lon="0.83619">
        <ele>188.2</ele>
        <time>2026-05-01T14:54:40.000Z</time>
      </trkpt>
      <trkpt lat="44.82734" lon="0.8362">
        <ele>188.2</ele>
        <time>2026-05-01T14:54:41.000Z</time>
      </trkpt>
      <trkpt lat="44.82732" lon="0.8362">
        <ele>188.4</ele>
        <time>2026-05-01T14:54:42.000Z</time>
      </trkpt>
      <trkpt lat="44.8273" lon="0.83621">
        <ele>188.6</ele>
        <time>2026-05-01T14:54:43.000Z</time>
      </trkpt>
      <trkpt lat="44.82729" lon="0.83621">
        <ele>188.7</ele>
        <time>2026-05-01T14:54:44.000Z</time>
      </trkpt>
      <trkpt lat="44.82727" lon="0.83622">
        <ele>188.6</ele>
        <time>2026-05-01T14:54:45.000Z</time>
      </trkpt>
      <trkpt lat="44.82726" lon="0.83623">
        <ele>187.8</ele>
        <time>2026-05-01T14:54:46.000Z</time>
      </trkpt>
      <trkpt lat="44.82725" lon="0.83624">
        <ele>187.8</ele>
        <time>2026-05-01T14:54:47.000Z</time>
      </trkpt>
      <trkpt lat="44.82723" lon="0.83624">
        <ele>187.9</ele>
        <time>2026-05-01T14:54:48.000Z</time>
      </trkpt>
      <trkpt lat="44.82722" lon="0.83625">
        <ele>188</ele>
        <time>2026-05-01T14:54:49.000Z</time>
      </trkpt>
      <trkpt lat="44.8272" lon="0.83625">
        <ele>188</ele>
        <time>2026-05-01T14:54:50.000Z</time>
      </trkpt>
      <trkpt lat="44.82719" lon="0.83626">
        <ele>189.1</ele>
        <time>2026-05-01T14:54:51.000Z</time>
      </trkpt>
      <trkpt lat="44.82717" lon="0.83626">
        <ele>188</ele>
        <time>2026-05-01T14:54:52.000Z</time>
      </trkpt>
      <trkpt lat="44.82716" lon="0.83627">
        <ele>187.9</ele>
        <time>2026-05-01T14:54:53.000Z</time>
      </trkpt>
      <trkpt lat="44.82714" lon="0.83628">
        <ele>188.4</ele>
        <time>2026-05-01T14:54:54.000Z</time>
      </trkpt>
      <trkpt lat="44.82713" lon="0.8363">
        <ele>188.4</ele>
        <time>2026-05-01T14:54:55.000Z</time>
      </trkpt>
      <trkpt lat="44.82712" lon="0.83631">
        <ele>188.5</ele>
        <time>2026-05-01T14:54:56.000Z</time>
      </trkpt>
      <trkpt lat="44.8271" lon="0.83632">
        <ele>188.1</ele>
        <time>2026-05-01T14:54:57.000Z</time>
      </trkpt>
      <trkpt lat="44.82709" lon="0.83633">
        <ele>188.6</ele>
        <time>2026-05-01T14:54:58.000Z</time>
      </trkpt>
      <trkpt lat="44.82707" lon="0.83634">
        <ele>188.2</ele>
        <time>2026-05-01T14:54:59.000Z</time>
      </trkpt>
      <trkpt lat="44.82706" lon="0.83634">
        <ele>187.5</ele>
        <time>2026-05-01T14:55:00.000Z</time>
      </trkpt>
      <trkpt lat="44.82705" lon="0.83635">
        <ele>187.9</ele>
        <time>2026-05-01T14:55:01.000Z</time>
      </trkpt>
      <trkpt lat="44.82703" lon="0.83637">
        <ele>188.2</ele>
        <time>2026-05-01T14:55:02.000Z</time>
      </trkpt>
      <trkpt lat="44.82702" lon="0.83639">
        <ele>188.6</ele>
        <time>2026-05-01T14:55:03.000Z</time>
      </trkpt>
      <trkpt lat="44.82701" lon="0.8364">
        <ele>188.4</ele>
        <time>2026-05-01T14:55:04.000Z</time>
      </trkpt>
      <trkpt lat="44.82699" lon="0.83641">
        <ele>188.2</ele>
        <time>2026-05-01T14:55:05.000Z</time>
      </trkpt>
      <trkpt lat="44.82698" lon="0.83643">
        <ele>189.5</ele>
        <time>2026-05-01T14:55:06.000Z</time>
      </trkpt>
      <trkpt lat="44.82696" lon="0.83644">
        <ele>189.8</ele>
        <time>2026-05-01T14:55:07.000Z</time>
      </trkpt>
      <trkpt lat="44.82695" lon="0.83645">
        <ele>190</ele>
        <time>2026-05-01T14:55:08.000Z</time>
      </trkpt>
      <trkpt lat="44.82693" lon="0.83646">
        <ele>189.9</ele>
        <time>2026-05-01T14:55:09.000Z</time>
      </trkpt>
      <trkpt lat="44.82692" lon="0.83647">
        <ele>189.5</ele>
        <time>2026-05-01T14:55:10.000Z</time>
      </trkpt>
      <trkpt lat="44.8269" lon="0.83648">
        <ele>189.1</ele>
        <time>2026-05-01T14:55:11.000Z</time>
      </trkpt>
      <trkpt lat="44.82689" lon="0.83649">
        <ele>189.9</ele>
        <time>2026-05-01T14:55:12.000Z</time>
      </trkpt>
      <trkpt lat="44.82687" lon="0.8365">
        <ele>190</ele>
        <time>2026-05-01T14:55:13.000Z</time>
      </trkpt>
      <trkpt lat="44.82686" lon="0.83651">
        <ele>190.1</ele>
        <time>2026-05-01T14:55:14.000Z</time>
      </trkpt>
      <trkpt lat="44.82684" lon="0.83652">
        <ele>190.7</ele>
        <time>2026-05-01T14:55:15.000Z</time>
      </trkpt>
      <trkpt lat="44.82683" lon="0.83653">
        <ele>190.2</ele>
        <time>2026-05-01T14:55:16.000Z</time>
      </trkpt>
      <trkpt lat="44.82681" lon="0.83655">
        <ele>189.9</ele>
        <time>2026-05-01T14:55:17.000Z</time>
      </trkpt>
      <trkpt lat="44.8268" lon="0.83656">
        <ele>189.8</ele>
        <time>2026-05-01T14:55:18.000Z</time>
      </trkpt>
      <trkpt lat="44.82679" lon="0.83657">
        <ele>189.7</ele>
        <time>2026-05-01T14:55:19.000Z</time>
      </trkpt>
      <trkpt lat="44.82677" lon="0.83657">
        <ele>190</ele>
        <time>2026-05-01T14:55:20.000Z</time>
      </trkpt>
      <trkpt lat="44.82675" lon="0.83658">
        <ele>190.2</ele>
        <time>2026-05-01T14:55:21.000Z</time>
      </trkpt>
      <trkpt lat="44.82674" lon="0.83658">
        <ele>191.1</ele>
        <time>2026-05-01T14:55:22.000Z</time>
      </trkpt>
      <trkpt lat="44.82673" lon="0.83659">
        <ele>191.7</ele>
        <time>2026-05-01T14:55:23.000Z</time>
      </trkpt>
      <trkpt lat="44.82671" lon="0.8366">
        <ele>192.1</ele>
        <time>2026-05-01T14:55:24.000Z</time>
      </trkpt>
      <trkpt lat="44.8267" lon="0.83661">
        <ele>192.5</ele>
        <time>2026-05-01T14:55:25.000Z</time>
      </trkpt>
      <trkpt lat="44.82668" lon="0.83662">
        <ele>192.7</ele>
        <time>2026-05-01T14:55:26.000Z</time>
      </trkpt>
      <trkpt lat="44.82667" lon="0.83663">
        <ele>192.1</ele>
        <time>2026-05-01T14:55:27.000Z</time>
      </trkpt>
      <trkpt lat="44.82666" lon="0.83664">
        <ele>192.1</ele>
        <time>2026-05-01T14:55:28.000Z</time>
      </trkpt>
      <trkpt lat="44.82664" lon="0.83665">
        <ele>191.8</ele>
        <time>2026-05-01T14:55:29.000Z</time>
      </trkpt>
      <trkpt lat="44.82663" lon="0.83666">
        <ele>191.5</ele>
        <time>2026-05-01T14:55:30.000Z</time>
      </trkpt>
      <trkpt lat="44.82661" lon="0.83667">
        <ele>191.9</ele>
        <time>2026-05-01T14:55:31.000Z</time>
      </trkpt>
      <trkpt lat="44.8266" lon="0.83668">
        <ele>191.6</ele>
        <time>2026-05-01T14:55:32.000Z</time>
      </trkpt>
      <trkpt lat="44.82658" lon="0.83668">
        <ele>191.4</ele>
        <time>2026-05-01T14:55:33.000Z</time>
      </trkpt>
      <trkpt lat="44.82657" lon="0.8367">
        <ele>191.5</ele>
        <time>2026-05-01T14:55:34.000Z</time>
      </trkpt>
      <trkpt lat="44.82655" lon="0.8367">
        <ele>191.8</ele>
        <time>2026-05-01T14:55:35.000Z</time>
      </trkpt>
      <trkpt lat="44.82654" lon="0.83671">
        <ele>191.7</ele>
        <time>2026-05-01T14:55:36.000Z</time>
      </trkpt>
      <trkpt lat="44.82653" lon="0.83672">
        <ele>191.8</ele>
        <time>2026-05-01T14:55:37.000Z</time>
      </trkpt>
      <trkpt lat="44.82651" lon="0.83673">
        <ele>191.5</ele>
        <time>2026-05-01T14:55:38.000Z</time>
      </trkpt>
      <trkpt lat="44.8265" lon="0.83674">
        <ele>191.9</ele>
        <time>2026-05-01T14:55:39.000Z</time>
      </trkpt>
      <trkpt lat="44.82648" lon="0.83675">
        <ele>192.2</ele>
        <time>2026-05-01T14:55:40.000Z</time>
      </trkpt>
      <trkpt lat="44.82646" lon="0.83675">
        <ele>192.5</ele>
        <time>2026-05-01T14:55:41.000Z</time>
      </trkpt>
      <trkpt lat="44.82645" lon="0.83676">
        <ele>192.4</ele>
        <time>2026-05-01T14:55:42.000Z</time>
      </trkpt>
      <trkpt lat="44.82643" lon="0.83677">
        <ele>192.5</ele>
        <time>2026-05-01T14:55:43.000Z</time>
      </trkpt>
      <trkpt lat="44.82642" lon="0.83678">
        <ele>192.5</ele>
        <time>2026-05-01T14:55:44.000Z</time>
      </trkpt>
      <trkpt lat="44.82641" lon="0.83679">
        <ele>192.6</ele>
        <time>2026-05-01T14:55:45.000Z</time>
      </trkpt>
      <trkpt lat="44.8264" lon="0.8368">
        <ele>192.5</ele>
        <time>2026-05-01T14:55:46.000Z</time>
      </trkpt>
      <trkpt lat="44.82638" lon="0.83681">
        <ele>192.3</ele>
        <time>2026-05-01T14:55:47.000Z</time>
      </trkpt>
      <trkpt lat="44.82637" lon="0.83682">
        <ele>192.3</ele>
        <time>2026-05-01T14:55:48.000Z</time>
      </trkpt>
      <trkpt lat="44.82636" lon="0.83683">
        <ele>192.3</ele>
        <time>2026-05-01T14:55:49.000Z</time>
      </trkpt>
      <trkpt lat="44.82634" lon="0.83683">
        <ele>191.8</ele>
        <time>2026-05-01T14:55:50.000Z</time>
      </trkpt>
      <trkpt lat="44.82633" lon="0.83684">
        <ele>191.3</ele>
        <time>2026-05-01T14:55:51.000Z</time>
      </trkpt>
      <trkpt lat="44.82632" lon="0.83685">
        <ele>191.2</ele>
        <time>2026-05-01T14:55:52.000Z</time>
      </trkpt>
      <trkpt lat="44.8263" lon="0.83685">
        <ele>191.2</ele>
        <time>2026-05-01T14:55:53.000Z</time>
      </trkpt>
      <trkpt lat="44.82629" lon="0.83686">
        <ele>191.4</ele>
        <time>2026-05-01T14:55:54.000Z</time>
      </trkpt>
      <trkpt lat="44.82628" lon="0.83687">
        <ele>191.3</ele>
        <time>2026-05-01T14:55:55.000Z</time>
      </trkpt>
      <trkpt lat="44.82626" lon="0.83688">
        <ele>191.3</ele>
        <time>2026-05-01T14:55:56.000Z</time>
      </trkpt>
      <trkpt lat="44.82625" lon="0.83689">
        <ele>191.5</ele>
        <time>2026-05-01T14:55:57.000Z</time>
      </trkpt>
      <trkpt lat="44.82624" lon="0.8369">
        <ele>191.5</ele>
        <time>2026-05-01T14:55:58.000Z</time>
      </trkpt>
      <trkpt lat="44.82622" lon="0.83691">
        <ele>191.4</ele>
        <time>2026-05-01T14:55:59.000Z</time>
      </trkpt>
      <trkpt lat="44.82621" lon="0.83692">
        <ele>191.4</ele>
        <time>2026-05-01T14:56:00.000Z</time>
      </trkpt>
      <trkpt lat="44.82619" lon="0.83694">
        <ele>191.7</ele>
        <time>2026-05-01T14:56:01.000Z</time>
      </trkpt>
      <trkpt lat="44.82618" lon="0.83695">
        <ele>191.3</ele>
        <time>2026-05-01T14:56:02.000Z</time>
      </trkpt>
      <trkpt lat="44.82616" lon="0.83696">
        <ele>191.5</ele>
        <time>2026-05-01T14:56:03.000Z</time>
      </trkpt>
      <trkpt lat="44.82615" lon="0.83697">
        <ele>191.2</ele>
        <time>2026-05-01T14:56:04.000Z</time>
      </trkpt>
      <trkpt lat="44.82614" lon="0.83698">
        <ele>190.7</ele>
        <time>2026-05-01T14:56:05.000Z</time>
      </trkpt>
      <trkpt lat="44.82612" lon="0.83699">
        <ele>190.4</ele>
        <time>2026-05-01T14:56:06.000Z</time>
      </trkpt>
      <trkpt lat="44.82611" lon="0.837">
        <ele>190.2</ele>
        <time>2026-05-01T14:56:07.000Z</time>
      </trkpt>
      <trkpt lat="44.82609" lon="0.83701">
        <ele>190.4</ele>
        <time>2026-05-01T14:56:08.000Z</time>
      </trkpt>
      <trkpt lat="44.82608" lon="0.83701">
        <ele>190.4</ele>
        <time>2026-05-01T14:56:09.000Z</time>
      </trkpt>
      <trkpt lat="44.82606" lon="0.83702">
        <ele>190.4</ele>
        <time>2026-05-01T14:56:10.000Z</time>
      </trkpt>
      <trkpt lat="44.82605" lon="0.83704">
        <ele>190.2</ele>
        <time>2026-05-01T14:56:11.000Z</time>
      </trkpt>
      <trkpt lat="44.82604" lon="0.83704">
        <ele>190.2</ele>
        <time>2026-05-01T14:56:12.000Z</time>
      </trkpt>
      <trkpt lat="44.82602" lon="0.83705">
        <ele>190.2</ele>
        <time>2026-05-01T14:56:13.000Z</time>
      </trkpt>
      <trkpt lat="44.82601" lon="0.83706">
        <ele>190.1</ele>
        <time>2026-05-01T14:56:14.000Z</time>
      </trkpt>
      <trkpt lat="44.82599" lon="0.83707">
        <ele>190.1</ele>
        <time>2026-05-01T14:56:15.000Z</time>
      </trkpt>
      <trkpt lat="44.82598" lon="0.83708">
        <ele>189.9</ele>
        <time>2026-05-01T14:56:16.000Z</time>
      </trkpt>
      <trkpt lat="44.82596" lon="0.83709">
        <ele>190</ele>
        <time>2026-05-01T14:56:17.000Z</time>
      </trkpt>
      <trkpt lat="44.82595" lon="0.8371">
        <ele>189.8</ele>
        <time>2026-05-01T14:56:18.000Z</time>
      </trkpt>
      <trkpt lat="44.82594" lon="0.83711">
        <ele>189.8</ele>
        <time>2026-05-01T14:56:19.000Z</time>
      </trkpt>
      <trkpt lat="44.82592" lon="0.83712">
        <ele>189.6</ele>
        <time>2026-05-01T14:56:20.000Z</time>
      </trkpt>
      <trkpt lat="44.82591" lon="0.83713">
        <ele>189.7</ele>
        <time>2026-05-01T14:56:21.000Z</time>
      </trkpt>
      <trkpt lat="44.8259" lon="0.83714">
        <ele>189.7</ele>
        <time>2026-05-01T14:56:22.000Z</time>
      </trkpt>
      <trkpt lat="44.82588" lon="0.83715">
        <ele>189.8</ele>
        <time>2026-05-01T14:56:23.000Z</time>
      </trkpt>
      <trkpt lat="44.82587" lon="0.83716">
        <ele>190</ele>
        <time>2026-05-01T14:56:24.000Z</time>
      </trkpt>
      <trkpt lat="44.82586" lon="0.83717">
        <ele>189.4</ele>
        <time>2026-05-01T14:56:25.000Z</time>
      </trkpt>
      <trkpt lat="44.82584" lon="0.83718">
        <ele>189.4</ele>
        <time>2026-05-01T14:56:26.000Z</time>
      </trkpt>
      <trkpt lat="44.82583" lon="0.83719">
        <ele>189.2</ele>
        <time>2026-05-01T14:56:27.000Z</time>
      </trkpt>
      <trkpt lat="44.82582" lon="0.8372">
        <ele>189</ele>
        <time>2026-05-01T14:56:28.000Z</time>
      </trkpt>
      <trkpt lat="44.8258" lon="0.83721">
        <ele>188.9</ele>
        <time>2026-05-01T14:56:29.000Z</time>
      </trkpt>
      <trkpt lat="44.82579" lon="0.83723">
        <ele>189</ele>
        <time>2026-05-01T14:56:30.000Z</time>
      </trkpt>
      <trkpt lat="44.82578" lon="0.83724">
        <ele>188.8</ele>
        <time>2026-05-01T14:56:31.000Z</time>
      </trkpt>
      <trkpt lat="44.82577" lon="0.83726">
        <ele>188.8</ele>
        <time>2026-05-01T14:56:32.000Z</time>
      </trkpt>
      <trkpt lat="44.82575" lon="0.83727">
        <ele>188.4</ele>
        <time>2026-05-01T14:56:33.000Z</time>
      </trkpt>
      <trkpt lat="44.82574" lon="0.83728">
        <ele>188.5</ele>
        <time>2026-05-01T14:56:34.000Z</time>
      </trkpt>
      <trkpt lat="44.82572" lon="0.8373">
        <ele>189</ele>
        <time>2026-05-01T14:56:35.000Z</time>
      </trkpt>
      <trkpt lat="44.82571" lon="0.83731">
        <ele>189.5</ele>
        <time>2026-05-01T14:56:36.000Z</time>
      </trkpt>
      <trkpt lat="44.8257" lon="0.83732">
        <ele>189.3</ele>
        <time>2026-05-01T14:56:37.000Z</time>
      </trkpt>
      <trkpt lat="44.82568" lon="0.83732">
        <ele>188.7</ele>
        <time>2026-05-01T14:56:38.000Z</time>
      </trkpt>
      <trkpt lat="44.82567" lon="0.83733">
        <ele>188.7</ele>
        <time>2026-05-01T14:56:39.000Z</time>
      </trkpt>
      <trkpt lat="44.82565" lon="0.83734">
        <ele>188.6</ele>
        <time>2026-05-01T14:56:40.000Z</time>
      </trkpt>
      <trkpt lat="44.82564" lon="0.83735">
        <ele>188.6</ele>
        <time>2026-05-01T14:56:41.000Z</time>
      </trkpt>
      <trkpt lat="44.82562" lon="0.83736">
        <ele>188.4</ele>
        <time>2026-05-01T14:56:42.000Z</time>
      </trkpt>
      <trkpt lat="44.82561" lon="0.83737">
        <ele>188.3</ele>
        <time>2026-05-01T14:56:43.000Z</time>
      </trkpt>
      <trkpt lat="44.8256" lon="0.83739">
        <ele>188.3</ele>
        <time>2026-05-01T14:56:44.000Z</time>
      </trkpt>
      <trkpt lat="44.82559" lon="0.8374">
        <ele>188.1</ele>
        <time>2026-05-01T14:56:45.000Z</time>
      </trkpt>
      <trkpt lat="44.82558" lon="0.83742">
        <ele>188.2</ele>
        <time>2026-05-01T14:56:46.000Z</time>
      </trkpt>
      <trkpt lat="44.82557" lon="0.83744">
        <ele>188.2</ele>
        <time>2026-05-01T14:56:47.000Z</time>
      </trkpt>
      <trkpt lat="44.82556" lon="0.83746">
        <ele>188.3</ele>
        <time>2026-05-01T14:56:48.000Z</time>
      </trkpt>
      <trkpt lat="44.82555" lon="0.83748">
        <ele>188.2</ele>
        <time>2026-05-01T14:56:49.000Z</time>
      </trkpt>
      <trkpt lat="44.82554" lon="0.8375">
        <ele>188.2</ele>
        <time>2026-05-01T14:56:50.000Z</time>
      </trkpt>
      <trkpt lat="44.82554" lon="0.83752">
        <ele>188.3</ele>
        <time>2026-05-01T14:56:51.000Z</time>
      </trkpt>
      <trkpt lat="44.82553" lon="0.83753">
        <ele>188.2</ele>
        <time>2026-05-01T14:56:52.000Z</time>
      </trkpt>
      <trkpt lat="44.82552" lon="0.83755">
        <ele>188</ele>
        <time>2026-05-01T14:56:53.000Z</time>
      </trkpt>
      <trkpt lat="44.82551" lon="0.83757">
        <ele>188.1</ele>
        <time>2026-05-01T14:56:54.000Z</time>
      </trkpt>
      <trkpt lat="44.82549" lon="0.83759">
        <ele>188.2</ele>
        <time>2026-05-01T14:56:55.000Z</time>
      </trkpt>
      <trkpt lat="44.82548" lon="0.8376">
        <ele>188.1</ele>
        <time>2026-05-01T14:56:56.000Z</time>
      </trkpt>
      <trkpt lat="44.82547" lon="0.83762">
        <ele>188.1</ele>
        <time>2026-05-01T14:56:57.000Z</time>
      </trkpt>
      <trkpt lat="44.82547" lon="0.83764">
        <ele>188.2</ele>
        <time>2026-05-01T14:56:58.000Z</time>
      </trkpt>
      <trkpt lat="44.82546" lon="0.83765">
        <ele>188.3</ele>
        <time>2026-05-01T14:56:59.000Z</time>
      </trkpt>
      <trkpt lat="44.82545" lon="0.83767">
        <ele>188.2</ele>
        <time>2026-05-01T14:57:00.000Z</time>
      </trkpt>
      <trkpt lat="44.82544" lon="0.83769">
        <ele>188.5</ele>
        <time>2026-05-01T14:57:01.000Z</time>
      </trkpt>
      <trkpt lat="44.82543" lon="0.83771">
        <ele>188.5</ele>
        <time>2026-05-01T14:57:02.000Z</time>
      </trkpt>
      <trkpt lat="44.82542" lon="0.83773">
        <ele>188.5</ele>
        <time>2026-05-01T14:57:03.000Z</time>
      </trkpt>
      <trkpt lat="44.82542" lon="0.83775">
        <ele>188.4</ele>
        <time>2026-05-01T14:57:04.000Z</time>
      </trkpt>
      <trkpt lat="44.82541" lon="0.83776">
        <ele>188.4</ele>
        <time>2026-05-01T14:57:05.000Z</time>
      </trkpt>
      <trkpt lat="44.8254" lon="0.83778">
        <ele>188.5</ele>
        <time>2026-05-01T14:57:06.000Z</time>
      </trkpt>
      <trkpt lat="44.82539" lon="0.8378">
        <ele>188.5</ele>
        <time>2026-05-01T14:57:07.000Z</time>
      </trkpt>
      <trkpt lat="44.82538" lon="0.83782">
        <ele>188.4</ele>
        <time>2026-05-01T14:57:08.000Z</time>
      </trkpt>
      <trkpt lat="44.82537" lon="0.83784">
        <ele>188.5</ele>
        <time>2026-05-01T14:57:09.000Z</time>
      </trkpt>
      <trkpt lat="44.82536" lon="0.83785">
        <ele>188.6</ele>
        <time>2026-05-01T14:57:10.000Z</time>
      </trkpt>
      <trkpt lat="44.82535" lon="0.83787">
        <ele>188.5</ele>
        <time>2026-05-01T14:57:11.000Z</time>
      </trkpt>
      <trkpt lat="44.82534" lon="0.83789">
        <ele>188.1</ele>
        <time>2026-05-01T14:57:12.000Z</time>
      </trkpt>
      <trkpt lat="44.82533" lon="0.83791">
        <ele>188</ele>
        <time>2026-05-01T14:57:13.000Z</time>
      </trkpt>
      <trkpt lat="44.82532" lon="0.83793">
        <ele>188.1</ele>
        <time>2026-05-01T14:57:14.000Z</time>
      </trkpt>
      <trkpt lat="44.82531" lon="0.83794">
        <ele>188.2</ele>
        <time>2026-05-01T14:57:15.000Z</time>
      </trkpt>
      <trkpt lat="44.8253" lon="0.83796">
        <ele>188.4</ele>
        <time>2026-05-01T14:57:16.000Z</time>
      </trkpt>
      <trkpt lat="44.82529" lon="0.83798">
        <ele>188.5</ele>
        <time>2026-05-01T14:57:17.000Z</time>
      </trkpt>
      <trkpt lat="44.82528" lon="0.838">
        <ele>188.5</ele>
        <time>2026-05-01T14:57:18.000Z</time>
      </trkpt>
      <trkpt lat="44.82527" lon="0.83802">
        <ele>188.4</ele>
        <time>2026-05-01T14:57:19.000Z</time>
      </trkpt>
      <trkpt lat="44.82526" lon="0.83803">
        <ele>188.3</ele>
        <time>2026-05-01T14:57:20.000Z</time>
      </trkpt>
      <trkpt lat="44.82525" lon="0.83805">
        <ele>188.4</ele>
        <time>2026-05-01T14:57:21.000Z</time>
      </trkpt>
      <trkpt lat="44.82524" lon="0.83807">
        <ele>188.3</ele>
        <time>2026-05-01T14:57:22.000Z</time>
      </trkpt>
      <trkpt lat="44.82523" lon="0.83809">
        <ele>188.2</ele>
        <time>2026-05-01T14:57:23.000Z</time>
      </trkpt>
      <trkpt lat="44.82522" lon="0.8381">
        <ele>188.2</ele>
        <time>2026-05-01T14:57:24.000Z</time>
      </trkpt>
      <trkpt lat="44.82521" lon="0.83812">
        <ele>188.1</ele>
        <time>2026-05-01T14:57:25.000Z</time>
      </trkpt>
      <trkpt lat="44.8252" lon="0.83814">
        <ele>188.1</ele>
        <time>2026-05-01T14:57:26.000Z</time>
      </trkpt>
      <trkpt lat="44.82519" lon="0.83816">
        <ele>188.3</ele>
        <time>2026-05-01T14:57:27.000Z</time>
      </trkpt>
      <trkpt lat="44.82518" lon="0.83818">
        <ele>188.3</ele>
        <time>2026-05-01T14:57:28.000Z</time>
      </trkpt>
      <trkpt lat="44.82517" lon="0.8382">
        <ele>188.3</ele>
        <time>2026-05-01T14:57:29.000Z</time>
      </trkpt>
      <trkpt lat="44.82516" lon="0.83821">
        <ele>188.1</ele>
        <time>2026-05-01T14:57:30.000Z</time>
      </trkpt>
      <trkpt lat="44.82515" lon="0.83823">
        <ele>188.3</ele>
        <time>2026-05-01T14:57:31.000Z</time>
      </trkpt>
      <trkpt lat="44.82514" lon="0.83824">
        <ele>188.4</ele>
        <time>2026-05-01T14:57:32.000Z</time>
      </trkpt>
      <trkpt lat="44.82513" lon="0.83826">
        <ele>188.5</ele>
        <time>2026-05-01T14:57:33.000Z</time>
      </trkpt>
      <trkpt lat="44.82512" lon="0.83828">
        <ele>188.6</ele>
        <time>2026-05-01T14:57:34.000Z</time>
      </trkpt>
      <trkpt lat="44.82511" lon="0.83829">
        <ele>188.6</ele>
        <time>2026-05-01T14:57:35.000Z</time>
      </trkpt>
      <trkpt lat="44.8251" lon="0.83831">
        <ele>188.7</ele>
        <time>2026-05-01T14:57:36.000Z</time>
      </trkpt>
      <trkpt lat="44.82509" lon="0.83833">
        <ele>188.8</ele>
        <time>2026-05-01T14:57:37.000Z</time>
      </trkpt>
      <trkpt lat="44.82508" lon="0.83835">
        <ele>188.7</ele>
        <time>2026-05-01T14:57:38.000Z</time>
      </trkpt>
      <trkpt lat="44.82507" lon="0.83837">
        <ele>188.9</ele>
        <time>2026-05-01T14:57:39.000Z</time>
      </trkpt>
      <trkpt lat="44.82506" lon="0.83839">
        <ele>189</ele>
        <time>2026-05-01T14:57:40.000Z</time>
      </trkpt>
      <trkpt lat="44.82505" lon="0.83841">
        <ele>189</ele>
        <time>2026-05-01T14:57:41.000Z</time>
      </trkpt>
      <trkpt lat="44.82504" lon="0.83843">
        <ele>189.1</ele>
        <time>2026-05-01T14:57:42.000Z</time>
      </trkpt>
      <trkpt lat="44.82503" lon="0.83845">
        <ele>189.1</ele>
        <time>2026-05-01T14:57:43.000Z</time>
      </trkpt>
      <trkpt lat="44.82503" lon="0.83847">
        <ele>189.3</ele>
        <time>2026-05-01T14:57:44.000Z</time>
      </trkpt>
      <trkpt lat="44.82502" lon="0.83849">
        <ele>189.5</ele>
        <time>2026-05-01T14:57:45.000Z</time>
      </trkpt>
      <trkpt lat="44.825" lon="0.83852">
        <ele>189.8</ele>
        <time>2026-05-01T14:57:46.000Z</time>
      </trkpt>
      <trkpt lat="44.825" lon="0.83854">
        <ele>189.9</ele>
        <time>2026-05-01T14:57:47.000Z</time>
      </trkpt>
      <trkpt lat="44.82499" lon="0.83856">
        <ele>189.9</ele>
        <time>2026-05-01T14:57:48.000Z</time>
      </trkpt>
      <trkpt lat="44.82498" lon="0.83858">
        <ele>190.1</ele>
        <time>2026-05-01T14:57:49.000Z</time>
      </trkpt>
      <trkpt lat="44.82498" lon="0.83862">
        <ele>190.6</ele>
        <time>2026-05-01T14:57:50.000Z</time>
      </trkpt>
      <trkpt lat="44.82496" lon="0.83863">
        <ele>190.4</ele>
        <time>2026-05-01T14:57:51.000Z</time>
      </trkpt>
      <trkpt lat="44.82495" lon="0.83863">
        <ele>190.3</ele>
        <time>2026-05-01T14:57:52.000Z</time>
      </trkpt>
      <trkpt lat="44.82495" lon="0.83865">
        <ele>189.9</ele>
        <time>2026-05-01T14:57:53.000Z</time>
      </trkpt>
      <trkpt lat="44.82494" lon="0.83866">
        <ele>190.2</ele>
        <time>2026-05-01T14:57:54.000Z</time>
      </trkpt>
      <trkpt lat="44.82493" lon="0.83868">
        <ele>189.9</ele>
        <time>2026-05-01T14:57:55.000Z</time>
      </trkpt>
      <trkpt lat="44.82492" lon="0.8387">
        <ele>190.2</ele>
        <time>2026-05-01T14:57:56.000Z</time>
      </trkpt>
      <trkpt lat="44.82491" lon="0.83871">
        <ele>190.8</ele>
        <time>2026-05-01T14:57:57.000Z</time>
      </trkpt>
      <trkpt lat="44.8249" lon="0.83872">
        <ele>190.6</ele>
        <time>2026-05-01T14:57:58.000Z</time>
      </trkpt>
      <trkpt lat="44.82489" lon="0.83874">
        <ele>190.5</ele>
        <time>2026-05-01T14:57:59.000Z</time>
      </trkpt>
      <trkpt lat="44.82488" lon="0.83875">
        <ele>190.2</ele>
        <time>2026-05-01T14:58:00.000Z</time>
      </trkpt>
      <trkpt lat="44.82488" lon="0.83877">
        <ele>190.4</ele>
        <time>2026-05-01T14:58:01.000Z</time>
      </trkpt>
      <trkpt lat="44.82487" lon="0.83879">
        <ele>190.5</ele>
        <time>2026-05-01T14:58:02.000Z</time>
      </trkpt>
      <trkpt lat="44.82486" lon="0.83881">
        <ele>190.3</ele>
        <time>2026-05-01T14:58:03.000Z</time>
      </trkpt>
      <trkpt lat="44.82485" lon="0.83883">
        <ele>190.2</ele>
        <time>2026-05-01T14:58:04.000Z</time>
      </trkpt>
      <trkpt lat="44.82484" lon="0.83885">
        <ele>191.1</ele>
        <time>2026-05-01T14:58:05.000Z</time>
      </trkpt>
      <trkpt lat="44.82484" lon="0.83887">
        <ele>190.7</ele>
        <time>2026-05-01T14:58:06.000Z</time>
      </trkpt>
      <trkpt lat="44.82483" lon="0.83889">
        <ele>191.2</ele>
        <time>2026-05-01T14:58:07.000Z</time>
      </trkpt>
      <trkpt lat="44.82482" lon="0.83891">
        <ele>191.6</ele>
        <time>2026-05-01T14:58:08.000Z</time>
      </trkpt>
      <trkpt lat="44.82481" lon="0.83893">
        <ele>191.9</ele>
        <time>2026-05-01T14:58:09.000Z</time>
      </trkpt>
      <trkpt lat="44.8248" lon="0.83895">
        <ele>192.1</ele>
        <time>2026-05-01T14:58:10.000Z</time>
      </trkpt>
      <trkpt lat="44.82478" lon="0.83897">
        <ele>192.9</ele>
        <time>2026-05-01T14:58:11.000Z</time>
      </trkpt>
      <trkpt lat="44.82477" lon="0.839">
        <ele>193</ele>
        <time>2026-05-01T14:58:12.000Z</time>
      </trkpt>
      <trkpt lat="44.82475" lon="0.83901">
        <ele>192.8</ele>
        <time>2026-05-01T14:58:13.000Z</time>
      </trkpt>
      <trkpt lat="44.82474" lon="0.83903">
        <ele>192.7</ele>
        <time>2026-05-01T14:58:14.000Z</time>
      </trkpt>
      <trkpt lat="44.82472" lon="0.83905">
        <ele>193</ele>
        <time>2026-05-01T14:58:15.000Z</time>
      </trkpt>
      <trkpt lat="44.82471" lon="0.83907">
        <ele>193.4</ele>
        <time>2026-05-01T14:58:16.000Z</time>
      </trkpt>
      <trkpt lat="44.8247" lon="0.83909">
        <ele>193.4</ele>
        <time>2026-05-01T14:58:17.000Z</time>
      </trkpt>
      <trkpt lat="44.82469" lon="0.83911">
        <ele>193.3</ele>
        <time>2026-05-01T14:58:18.000Z</time>
      </trkpt>
      <trkpt lat="44.82467" lon="0.83912">
        <ele>193</ele>
        <time>2026-05-01T14:58:19.000Z</time>
      </trkpt>
      <trkpt lat="44.82465" lon="0.83914">
        <ele>192.7</ele>
        <time>2026-05-01T14:58:20.000Z</time>
      </trkpt>
      <trkpt lat="44.82465" lon="0.83916">
        <ele>192.4</ele>
        <time>2026-05-01T14:58:21.000Z</time>
      </trkpt>
      <trkpt lat="44.82463" lon="0.83917">
        <ele>192</ele>
        <time>2026-05-01T14:58:22.000Z</time>
      </trkpt>
      <trkpt lat="44.82462" lon="0.83919">
        <ele>192.3</ele>
        <time>2026-05-01T14:58:23.000Z</time>
      </trkpt>
      <trkpt lat="44.82461" lon="0.8392">
        <ele>192.5</ele>
        <time>2026-05-01T14:58:24.000Z</time>
      </trkpt>
      <trkpt lat="44.8246" lon="0.83922">
        <ele>192.4</ele>
        <time>2026-05-01T14:58:25.000Z</time>
      </trkpt>
      <trkpt lat="44.8246" lon="0.83924">
        <ele>192.8</ele>
        <time>2026-05-01T14:58:26.000Z</time>
      </trkpt>
      <trkpt lat="44.82459" lon="0.83925">
        <ele>192.8</ele>
        <time>2026-05-01T14:58:27.000Z</time>
      </trkpt>
      <trkpt lat="44.82457" lon="0.83927">
        <ele>192.9</ele>
        <time>2026-05-01T14:58:28.000Z</time>
      </trkpt>
      <trkpt lat="44.82456" lon="0.83928">
        <ele>193.2</ele>
        <time>2026-05-01T14:58:29.000Z</time>
      </trkpt>
      <trkpt lat="44.82455" lon="0.8393">
        <ele>193.5</ele>
        <time>2026-05-01T14:58:30.000Z</time>
      </trkpt>
      <trkpt lat="44.82454" lon="0.83932">
        <ele>194.2</ele>
        <time>2026-05-01T14:58:31.000Z</time>
      </trkpt>
      <trkpt lat="44.82453" lon="0.83933">
        <ele>194</ele>
        <time>2026-05-01T14:58:32.000Z</time>
      </trkpt>
      <trkpt lat="44.82452" lon="0.83935">
        <ele>194</ele>
        <time>2026-05-01T14:58:33.000Z</time>
      </trkpt>
      <trkpt lat="44.82451" lon="0.83936">
        <ele>194.1</ele>
        <time>2026-05-01T14:58:34.000Z</time>
      </trkpt>
      <trkpt lat="44.8245" lon="0.83938">
        <ele>194.3</ele>
        <time>2026-05-01T14:58:35.000Z</time>
      </trkpt>
      <trkpt lat="44.82449" lon="0.8394">
        <ele>195</ele>
        <time>2026-05-01T14:58:36.000Z</time>
      </trkpt>
      <trkpt lat="44.82448" lon="0.83941">
        <ele>195.6</ele>
        <time>2026-05-01T14:58:37.000Z</time>
      </trkpt>
      <trkpt lat="44.82447" lon="0.83943">
        <ele>196.1</ele>
        <time>2026-05-01T14:58:38.000Z</time>
      </trkpt>
      <trkpt lat="44.82446" lon="0.83945">
        <ele>196.5</ele>
        <time>2026-05-01T14:58:39.000Z</time>
      </trkpt>
      <trkpt lat="44.82445" lon="0.83947">
        <ele>197</ele>
        <time>2026-05-01T14:58:40.000Z</time>
      </trkpt>
      <trkpt lat="44.82444" lon="0.8395">
        <ele>196.9</ele>
        <time>2026-05-01T14:58:41.000Z</time>
      </trkpt>
      <trkpt lat="44.82442" lon="0.83952">
        <ele>197</ele>
        <time>2026-05-01T14:58:42.000Z</time>
      </trkpt>
      <trkpt lat="44.82441" lon="0.83953">
        <ele>196.5</ele>
        <time>2026-05-01T14:58:43.000Z</time>
      </trkpt>
      <trkpt lat="44.82439" lon="0.83955">
        <ele>196.7</ele>
        <time>2026-05-01T14:58:44.000Z</time>
      </trkpt>
      <trkpt lat="44.82438" lon="0.83957">
        <ele>197.4</ele>
        <time>2026-05-01T14:58:45.000Z</time>
      </trkpt>
      <trkpt lat="44.82437" lon="0.83959">
        <ele>198.3</ele>
        <time>2026-05-01T14:58:46.000Z</time>
      </trkpt>
      <trkpt lat="44.82436" lon="0.83962">
        <ele>198.4</ele>
        <time>2026-05-01T14:58:47.000Z</time>
      </trkpt>
      <trkpt lat="44.82435" lon="0.83965">
        <ele>198.4</ele>
        <time>2026-05-01T14:58:48.000Z</time>
      </trkpt>
      <trkpt lat="44.82433" lon="0.83968">
        <ele>198.2</ele>
        <time>2026-05-01T14:58:49.000Z</time>
      </trkpt>
      <trkpt lat="44.82432" lon="0.83971">
        <ele>198.9</ele>
        <time>2026-05-01T14:58:50.000Z</time>
      </trkpt>
      <trkpt lat="44.82431" lon="0.83974">
        <ele>198.8</ele>
        <time>2026-05-01T14:58:51.000Z</time>
      </trkpt>
      <trkpt lat="44.82429" lon="0.83977">
        <ele>198.7</ele>
        <time>2026-05-01T14:58:52.000Z</time>
      </trkpt>
      <trkpt lat="44.82428" lon="0.83981">
        <ele>198.6</ele>
        <time>2026-05-01T14:58:53.000Z</time>
      </trkpt>
      <trkpt lat="44.82426" lon="0.83984">
        <ele>199</ele>
        <time>2026-05-01T14:58:54.000Z</time>
      </trkpt>
      <trkpt lat="44.82425" lon="0.83987">
        <ele>198.9</ele>
        <time>2026-05-01T14:58:55.000Z</time>
      </trkpt>
      <trkpt lat="44.82424" lon="0.8399">
        <ele>198.8</ele>
        <time>2026-05-01T14:58:56.000Z</time>
      </trkpt>
      <trkpt lat="44.82423" lon="0.83994">
        <ele>199.1</ele>
        <time>2026-05-01T14:58:57.000Z</time>
      </trkpt>
      <trkpt lat="44.82422" lon="0.83997">
        <ele>199.2</ele>
        <time>2026-05-01T14:58:58.000Z</time>
      </trkpt>
      <trkpt lat="44.82421" lon="0.84">
        <ele>199.5</ele>
        <time>2026-05-01T14:58:59.000Z</time>
      </trkpt>
      <trkpt lat="44.82421" lon="0.84003">
        <ele>199.2</ele>
        <time>2026-05-01T14:59:00.000Z</time>
      </trkpt>
      <trkpt lat="44.8242" lon="0.84007">
        <ele>200.2</ele>
        <time>2026-05-01T14:59:01.000Z</time>
      </trkpt>
      <trkpt lat="44.8242" lon="0.84011">
        <ele>200.5</ele>
        <time>2026-05-01T14:59:02.000Z</time>
      </trkpt>
      <trkpt lat="44.8242" lon="0.84014">
        <ele>201.1</ele>
        <time>2026-05-01T14:59:03.000Z</time>
      </trkpt>
      <trkpt lat="44.82419" lon="0.84018">
        <ele>201.7</ele>
        <time>2026-05-01T14:59:04.000Z</time>
      </trkpt>
      <trkpt lat="44.82419" lon="0.84021">
        <ele>202.2</ele>
        <time>2026-05-01T14:59:05.000Z</time>
      </trkpt>
      <trkpt lat="44.82417" lon="0.84025">
        <ele>201.7</ele>
        <time>2026-05-01T14:59:06.000Z</time>
      </trkpt>
      <trkpt lat="44.82416" lon="0.84029">
        <ele>201.9</ele>
        <time>2026-05-01T14:59:07.000Z</time>
      </trkpt>
      <trkpt lat="44.82416" lon="0.84033">
        <ele>202.4</ele>
        <time>2026-05-01T14:59:08.000Z</time>
      </trkpt>
      <trkpt lat="44.82415" lon="0.84037">
        <ele>201.2</ele>
        <time>2026-05-01T14:59:09.000Z</time>
      </trkpt>
      <trkpt lat="44.82414" lon="0.84041">
        <ele>199.5</ele>
        <time>2026-05-01T14:59:10.000Z</time>
      </trkpt>
      <trkpt lat="44.82412" lon="0.84044">
        <ele>200.4</ele>
        <time>2026-05-01T14:59:11.000Z</time>
      </trkpt>
      <trkpt lat="44.82411" lon="0.84048">
        <ele>200.5</ele>
        <time>2026-05-01T14:59:12.000Z</time>
      </trkpt>
      <trkpt lat="44.82411" lon="0.84051">
        <ele>200.6</ele>
        <time>2026-05-01T14:59:13.000Z</time>
      </trkpt>
      <trkpt lat="44.8241" lon="0.84053">
        <ele>200.9</ele>
        <time>2026-05-01T14:59:14.000Z</time>
      </trkpt>
      <trkpt lat="44.82409" lon="0.84055">
        <ele>201.9</ele>
        <time>2026-05-01T14:59:15.000Z</time>
      </trkpt>
      <trkpt lat="44.82408" lon="0.84056">
        <ele>202.1</ele>
        <time>2026-05-01T14:59:16.000Z</time>
      </trkpt>
      <trkpt lat="44.82407" lon="0.84058">
        <ele>203.4</ele>
        <time>2026-05-01T14:59:17.000Z</time>
      </trkpt>
      <trkpt lat="44.82406" lon="0.84059">
        <ele>204.2</ele>
        <time>2026-05-01T14:59:18.000Z</time>
      </trkpt>
      <trkpt lat="44.82405" lon="0.84061">
        <ele>204.1</ele>
        <time>2026-05-01T14:59:19.000Z</time>
      </trkpt>
      <trkpt lat="44.82404" lon="0.84063">
        <ele>204.2</ele>
        <time>2026-05-01T14:59:20.000Z</time>
      </trkpt>
      <trkpt lat="44.82403" lon="0.84064">
        <ele>203.5</ele>
        <time>2026-05-01T14:59:21.000Z</time>
      </trkpt>
      <trkpt lat="44.82402" lon="0.84064">
        <ele>202.6</ele>
        <time>2026-05-01T14:59:22.000Z</time>
      </trkpt>
      <trkpt lat="44.82401" lon="0.84066">
        <ele>202.2</ele>
        <time>2026-05-01T14:59:23.000Z</time>
      </trkpt>
      <trkpt lat="44.824" lon="0.84067">
        <ele>201</ele>
        <time>2026-05-01T14:59:24.000Z</time>
      </trkpt>
      <trkpt lat="44.82399" lon="0.84069">
        <ele>201.1</ele>
        <time>2026-05-01T14:59:25.000Z</time>
      </trkpt>
      <trkpt lat="44.82399" lon="0.84071">
        <ele>201.1</ele>
        <time>2026-05-01T14:59:26.000Z</time>
      </trkpt>
      <trkpt lat="44.82398" lon="0.84073">
        <ele>200.8</ele>
        <time>2026-05-01T14:59:27.000Z</time>
      </trkpt>
      <trkpt lat="44.82397" lon="0.84074">
        <ele>200.6</ele>
        <time>2026-05-01T14:59:28.000Z</time>
      </trkpt>
      <trkpt lat="44.82396" lon="0.84076">
        <ele>200.5</ele>
        <time>2026-05-01T14:59:29.000Z</time>
      </trkpt>
      <trkpt lat="44.82395" lon="0.84077">
        <ele>200.4</ele>
        <time>2026-05-01T14:59:30.000Z</time>
      </trkpt>
      <trkpt lat="44.82395" lon="0.84079">
        <ele>200.2</ele>
        <time>2026-05-01T14:59:31.000Z</time>
      </trkpt>
      <trkpt lat="44.82394" lon="0.84081">
        <ele>200.1</ele>
        <time>2026-05-01T14:59:32.000Z</time>
      </trkpt>
      <trkpt lat="44.82394" lon="0.84083">
        <ele>199.7</ele>
        <time>2026-05-01T14:59:33.000Z</time>
      </trkpt>
      <trkpt lat="44.82393" lon="0.84085">
        <ele>199.7</ele>
        <time>2026-05-01T14:59:34.000Z</time>
      </trkpt>
      <trkpt lat="44.82392" lon="0.84087">
        <ele>199.6</ele>
        <time>2026-05-01T14:59:35.000Z</time>
      </trkpt>
      <trkpt lat="44.82392" lon="0.84089">
        <ele>199.4</ele>
        <time>2026-05-01T14:59:36.000Z</time>
      </trkpt>
      <trkpt lat="44.82391" lon="0.84091">
        <ele>199.2</ele>
        <time>2026-05-01T14:59:37.000Z</time>
      </trkpt>
      <trkpt lat="44.82391" lon="0.84093">
        <ele>199.4</ele>
        <time>2026-05-01T14:59:38.000Z</time>
      </trkpt>
      <trkpt lat="44.8239" lon="0.84095">
        <ele>199.3</ele>
        <time>2026-05-01T14:59:39.000Z</time>
      </trkpt>
      <trkpt lat="44.8239" lon="0.84097">
        <ele>199.3</ele>
        <time>2026-05-01T14:59:40.000Z</time>
      </trkpt>
      <trkpt lat="44.82389" lon="0.841">
        <ele>199.8</ele>
        <time>2026-05-01T14:59:41.000Z</time>
      </trkpt>
      <trkpt lat="44.82389" lon="0.84103">
        <ele>199.4</ele>
        <time>2026-05-01T14:59:42.000Z</time>
      </trkpt>
      <trkpt lat="44.82388" lon="0.84105">
        <ele>199.5</ele>
        <time>2026-05-01T14:59:43.000Z</time>
      </trkpt>
      <trkpt lat="44.82388" lon="0.84107">
        <ele>199.1</ele>
        <time>2026-05-01T14:59:44.000Z</time>
      </trkpt>
      <trkpt lat="44.82387" lon="0.84109">
        <ele>198.8</ele>
        <time>2026-05-01T14:59:45.000Z</time>
      </trkpt>
      <trkpt lat="44.82387" lon="0.84111">
        <ele>198.8</ele>
        <time>2026-05-01T14:59:46.000Z</time>
      </trkpt>
      <trkpt lat="44.82386" lon="0.84113">
        <ele>198.7</ele>
        <time>2026-05-01T14:59:47.000Z</time>
      </trkpt>
      <trkpt lat="44.82386" lon="0.84115">
        <ele>198.8</ele>
        <time>2026-05-01T14:59:48.000Z</time>
      </trkpt>
      <trkpt lat="44.82385" lon="0.84117">
        <ele>198.9</ele>
        <time>2026-05-01T14:59:49.000Z</time>
      </trkpt>
      <trkpt lat="44.82385" lon="0.84119">
        <ele>199</ele>
        <time>2026-05-01T14:59:50.000Z</time>
      </trkpt>
      <trkpt lat="44.82384" lon="0.84121">
        <ele>198.8</ele>
        <time>2026-05-01T14:59:51.000Z</time>
      </trkpt>
      <trkpt lat="44.82384" lon="0.84123">
        <ele>198.9</ele>
        <time>2026-05-01T14:59:52.000Z</time>
      </trkpt>
      <trkpt lat="44.82383" lon="0.84125">
        <ele>199</ele>
        <time>2026-05-01T14:59:53.000Z</time>
      </trkpt>
      <trkpt lat="44.82382" lon="0.84127">
        <ele>198.7</ele>
        <time>2026-05-01T14:59:54.000Z</time>
      </trkpt>
      <trkpt lat="44.82382" lon="0.84129">
        <ele>198.7</ele>
        <time>2026-05-01T14:59:55.000Z</time>
      </trkpt>
      <trkpt lat="44.82381" lon="0.84131">
        <ele>198.6</ele>
        <time>2026-05-01T14:59:56.000Z</time>
      </trkpt>
      <trkpt lat="44.8238" lon="0.84133">
        <ele>198.2</ele>
        <time>2026-05-01T14:59:57.000Z</time>
      </trkpt>
      <trkpt lat="44.82379" lon="0.84135">
        <ele>198.4</ele>
        <time>2026-05-01T14:59:58.000Z</time>
      </trkpt>
      <trkpt lat="44.82379" lon="0.84137">
        <ele>198.5</ele>
        <time>2026-05-01T14:59:59.000Z</time>
      </trkpt>
      <trkpt lat="44.82378" lon="0.84139">
        <ele>198.1</ele>
        <time>2026-05-01T15:00:00.000Z</time>
      </trkpt>
      <trkpt lat="44.82377" lon="0.84141">
        <ele>198.1</ele>
        <time>2026-05-01T15:00:01.000Z</time>
      </trkpt>
      <trkpt lat="44.82376" lon="0.84143">
        <ele>198.2</ele>
        <time>2026-05-01T15:00:02.000Z</time>
      </trkpt>
      <trkpt lat="44.82376" lon="0.84146">
        <ele>198</ele>
        <time>2026-05-01T15:00:03.000Z</time>
      </trkpt>
      <trkpt lat="44.82375" lon="0.84149">
        <ele>198</ele>
        <time>2026-05-01T15:00:04.000Z</time>
      </trkpt>
      <trkpt lat="44.82375" lon="0.84151">
        <ele>197.7</ele>
        <time>2026-05-01T15:00:05.000Z</time>
      </trkpt>
      <trkpt lat="44.82374" lon="0.84154">
        <ele>197.2</ele>
        <time>2026-05-01T15:00:06.000Z</time>
      </trkpt>
      <trkpt lat="44.82372" lon="0.84157">
        <ele>196.6</ele>
        <time>2026-05-01T15:00:07.000Z</time>
      </trkpt>
      <trkpt lat="44.82372" lon="0.8416">
        <ele>196.4</ele>
        <time>2026-05-01T15:00:08.000Z</time>
      </trkpt>
      <trkpt lat="44.8237" lon="0.84162">
        <ele>196.4</ele>
        <time>2026-05-01T15:00:09.000Z</time>
      </trkpt>
      <trkpt lat="44.82369" lon="0.84165">
        <ele>196.8</ele>
        <time>2026-05-01T15:00:10.000Z</time>
      </trkpt>
      <trkpt lat="44.82367" lon="0.84167">
        <ele>196.9</ele>
        <time>2026-05-01T15:00:11.000Z</time>
      </trkpt>
      <trkpt lat="44.82366" lon="0.84169">
        <ele>196.7</ele>
        <time>2026-05-01T15:00:12.000Z</time>
      </trkpt>
      <trkpt lat="44.82365" lon="0.84171">
        <ele>196.8</ele>
        <time>2026-05-01T15:00:13.000Z</time>
      </trkpt>
      <trkpt lat="44.82363" lon="0.84173">
        <ele>196.7</ele>
        <time>2026-05-01T15:00:14.000Z</time>
      </trkpt>
      <trkpt lat="44.82361" lon="0.84175">
        <ele>196.2</ele>
        <time>2026-05-01T15:00:15.000Z</time>
      </trkpt>
      <trkpt lat="44.8236" lon="0.84176">
        <ele>195.7</ele>
        <time>2026-05-01T15:00:16.000Z</time>
      </trkpt>
      <trkpt lat="44.82358" lon="0.84178">
        <ele>195.4</ele>
        <time>2026-05-01T15:00:17.000Z</time>
      </trkpt>
      <trkpt lat="44.82356" lon="0.8418">
        <ele>194.5</ele>
        <time>2026-05-01T15:00:18.000Z</time>
      </trkpt>
      <trkpt lat="44.82354" lon="0.84181">
        <ele>194</ele>
        <time>2026-05-01T15:00:19.000Z</time>
      </trkpt>
      <trkpt lat="44.82353" lon="0.84182">
        <ele>193.8</ele>
        <time>2026-05-01T15:00:20.000Z</time>
      </trkpt>
      <trkpt lat="44.82352" lon="0.84184">
        <ele>194.2</ele>
        <time>2026-05-01T15:00:21.000Z</time>
      </trkpt>
      <trkpt lat="44.8235" lon="0.84186">
        <ele>194</ele>
        <time>2026-05-01T15:00:22.000Z</time>
      </trkpt>
      <trkpt lat="44.82348" lon="0.84187">
        <ele>193.9</ele>
        <time>2026-05-01T15:00:23.000Z</time>
      </trkpt>
      <trkpt lat="44.82347" lon="0.84189">
        <ele>194.1</ele>
        <time>2026-05-01T15:00:24.000Z</time>
      </trkpt>
      <trkpt lat="44.82346" lon="0.84191">
        <ele>194.2</ele>
        <time>2026-05-01T15:00:25.000Z</time>
      </trkpt>
      <trkpt lat="44.82344" lon="0.84192">
        <ele>193.8</ele>
        <time>2026-05-01T15:00:26.000Z</time>
      </trkpt>
      <trkpt lat="44.82343" lon="0.84194">
        <ele>193.7</ele>
        <time>2026-05-01T15:00:27.000Z</time>
      </trkpt>
      <trkpt lat="44.82341" lon="0.84195">
        <ele>194</ele>
        <time>2026-05-01T15:00:28.000Z</time>
      </trkpt>
      <trkpt lat="44.8234" lon="0.84197">
        <ele>194.4</ele>
        <time>2026-05-01T15:00:29.000Z</time>
      </trkpt>
      <trkpt lat="44.82338" lon="0.84198">
        <ele>194.2</ele>
        <time>2026-05-01T15:00:30.000Z</time>
      </trkpt>
      <trkpt lat="44.82337" lon="0.84199">
        <ele>194.4</ele>
        <time>2026-05-01T15:00:31.000Z</time>
      </trkpt>
      <trkpt lat="44.82336" lon="0.84201">
        <ele>194.7</ele>
        <time>2026-05-01T15:00:32.000Z</time>
      </trkpt>
      <trkpt lat="44.82334" lon="0.84202">
        <ele>194.3</ele>
        <time>2026-05-01T15:00:33.000Z</time>
      </trkpt>
      <trkpt lat="44.82333" lon="0.84203">
        <ele>193.9</ele>
        <time>2026-05-01T15:00:34.000Z</time>
      </trkpt>
      <trkpt lat="44.82331" lon="0.84205">
        <ele>193.4</ele>
        <time>2026-05-01T15:00:35.000Z</time>
      </trkpt>
      <trkpt lat="44.8233" lon="0.84206">
        <ele>193.5</ele>
        <time>2026-05-01T15:00:36.000Z</time>
      </trkpt>
      <trkpt lat="44.82328" lon="0.84208">
        <ele>193.4</ele>
        <time>2026-05-01T15:00:37.000Z</time>
      </trkpt>
      <trkpt lat="44.82327" lon="0.84209">
        <ele>193.2</ele>
        <time>2026-05-01T15:00:38.000Z</time>
      </trkpt>
      <trkpt lat="44.82326" lon="0.84211">
        <ele>192.8</ele>
        <time>2026-05-01T15:00:39.000Z</time>
      </trkpt>
      <trkpt lat="44.82324" lon="0.84212">
        <ele>193.2</ele>
        <time>2026-05-01T15:00:40.000Z</time>
      </trkpt>
      <trkpt lat="44.82323" lon="0.84214">
        <ele>193.3</ele>
        <time>2026-05-01T15:00:41.000Z</time>
      </trkpt>
      <trkpt lat="44.82321" lon="0.84216">
        <ele>193.5</ele>
        <time>2026-05-01T15:00:42.000Z</time>
      </trkpt>
      <trkpt lat="44.8232" lon="0.84217">
        <ele>194</ele>
        <time>2026-05-01T15:00:43.000Z</time>
      </trkpt>
      <trkpt lat="44.82318" lon="0.84219">
        <ele>194.1</ele>
        <time>2026-05-01T15:00:44.000Z</time>
      </trkpt>
      <trkpt lat="44.82317" lon="0.84221">
        <ele>193.6</ele>
        <time>2026-05-01T15:00:45.000Z</time>
      </trkpt>
      <trkpt lat="44.82316" lon="0.84222">
        <ele>192.8</ele>
        <time>2026-05-01T15:00:46.000Z</time>
      </trkpt>
      <trkpt lat="44.82314" lon="0.84224">
        <ele>192.4</ele>
        <time>2026-05-01T15:00:47.000Z</time>
      </trkpt>
      <trkpt lat="44.82313" lon="0.84226">
        <ele>193.4</ele>
        <time>2026-05-01T15:00:48.000Z</time>
      </trkpt>
      <trkpt lat="44.82312" lon="0.84228">
        <ele>193.7</ele>
        <time>2026-05-01T15:00:49.000Z</time>
      </trkpt>
      <trkpt lat="44.82312" lon="0.84229">
        <ele>193.7</ele>
        <time>2026-05-01T15:00:50.000Z</time>
      </trkpt>
      <trkpt lat="44.82311" lon="0.8423">
        <ele>193.9</ele>
        <time>2026-05-01T15:00:51.000Z</time>
      </trkpt>
      <trkpt lat="44.82309" lon="0.84232">
        <ele>194.3</ele>
        <time>2026-05-01T15:00:52.000Z</time>
      </trkpt>
      <trkpt lat="44.82308" lon="0.84233">
        <ele>195.1</ele>
        <time>2026-05-01T15:00:53.000Z</time>
      </trkpt>
      <trkpt lat="44.82307" lon="0.84234">
        <ele>195.2</ele>
        <time>2026-05-01T15:00:54.000Z</time>
      </trkpt>
      <trkpt lat="44.82306" lon="0.84235">
        <ele>195.6</ele>
        <time>2026-05-01T15:00:55.000Z</time>
      </trkpt>
      <trkpt lat="44.82304" lon="0.84236">
        <ele>196.3</ele>
        <time>2026-05-01T15:00:56.000Z</time>
      </trkpt>
      <trkpt lat="44.82303" lon="0.84238">
        <ele>195.7</ele>
        <time>2026-05-01T15:00:57.000Z</time>
      </trkpt>
      <trkpt lat="44.823" lon="0.8424">
        <ele>195.9</ele>
        <time>2026-05-01T15:00:58.000Z</time>
      </trkpt>
      <trkpt lat="44.82299" lon="0.84242">
        <ele>195.9</ele>
        <time>2026-05-01T15:00:59.000Z</time>
      </trkpt>
      <trkpt lat="44.82298" lon="0.84243">
        <ele>195.1</ele>
        <time>2026-05-01T15:01:00.000Z</time>
      </trkpt>
      <trkpt lat="44.82296" lon="0.84243">
        <ele>195.2</ele>
        <time>2026-05-01T15:01:01.000Z</time>
      </trkpt>
      <trkpt lat="44.82295" lon="0.84244">
        <ele>194.8</ele>
        <time>2026-05-01T15:01:02.000Z</time>
      </trkpt>
      <trkpt lat="44.82294" lon="0.84245">
        <ele>194.6</ele>
        <time>2026-05-01T15:01:03.000Z</time>
      </trkpt>
      <trkpt lat="44.82293" lon="0.84246">
        <ele>194.5</ele>
        <time>2026-05-01T15:01:04.000Z</time>
      </trkpt>
      <trkpt lat="44.82292" lon="0.84247">
        <ele>195.3</ele>
        <time>2026-05-01T15:01:05.000Z</time>
      </trkpt>
      <trkpt lat="44.82291" lon="0.84249">
        <ele>195.7</ele>
        <time>2026-05-01T15:01:06.000Z</time>
      </trkpt>
      <trkpt lat="44.8229" lon="0.8425">
        <ele>196.3</ele>
        <time>2026-05-01T15:01:07.000Z</time>
      </trkpt>
      <trkpt lat="44.82289" lon="0.84251">
        <ele>197.1</ele>
        <time>2026-05-01T15:01:08.000Z</time>
      </trkpt>
      <trkpt lat="44.82288" lon="0.84251">
        <ele>197.6</ele>
        <time>2026-05-01T15:01:09.000Z</time>
      </trkpt>
      <trkpt lat="44.82287" lon="0.84252">
        <ele>198.2</ele>
        <time>2026-05-01T15:01:10.000Z</time>
      </trkpt>
      <trkpt lat="44.82285" lon="0.84254">
        <ele>198.8</ele>
        <time>2026-05-01T15:01:11.000Z</time>
      </trkpt>
      <trkpt lat="44.82284" lon="0.84255">
        <ele>198</ele>
        <time>2026-05-01T15:01:12.000Z</time>
      </trkpt>
      <trkpt lat="44.82282" lon="0.84257">
        <ele>198.8</ele>
        <time>2026-05-01T15:01:13.000Z</time>
      </trkpt>
      <trkpt lat="44.82281" lon="0.84259">
        <ele>198.9</ele>
        <time>2026-05-01T15:01:14.000Z</time>
      </trkpt>
      <trkpt lat="44.82279" lon="0.8426">
        <ele>199.1</ele>
        <time>2026-05-01T15:01:15.000Z</time>
      </trkpt>
      <trkpt lat="44.82278" lon="0.84261">
        <ele>199.4</ele>
        <time>2026-05-01T15:01:16.000Z</time>
      </trkpt>
      <trkpt lat="44.82277" lon="0.84263">
        <ele>199.1</ele>
        <time>2026-05-01T15:01:17.000Z</time>
      </trkpt>
      <trkpt lat="44.82276" lon="0.84264">
        <ele>200.2</ele>
        <time>2026-05-01T15:01:18.000Z</time>
      </trkpt>
      <trkpt lat="44.82274" lon="0.84265">
        <ele>201.1</ele>
        <time>2026-05-01T15:01:19.000Z</time>
      </trkpt>
      <trkpt lat="44.82273" lon="0.84267">
        <ele>201.3</ele>
        <time>2026-05-01T15:01:20.000Z</time>
      </trkpt>
      <trkpt lat="44.82272" lon="0.84268">
        <ele>201.6</ele>
        <time>2026-05-01T15:01:21.000Z</time>
      </trkpt>
      <trkpt lat="44.8227" lon="0.8427">
        <ele>201.1</ele>
        <time>2026-05-01T15:01:22.000Z</time>
      </trkpt>
      <trkpt lat="44.82269" lon="0.84271">
        <ele>201.2</ele>
        <time>2026-05-01T15:01:23.000Z</time>
      </trkpt>
      <trkpt lat="44.82267" lon="0.84272">
        <ele>201.1</ele>
        <time>2026-05-01T15:01:24.000Z</time>
      </trkpt>
      <trkpt lat="44.82266" lon="0.84273">
        <ele>201.5</ele>
        <time>2026-05-01T15:01:25.000Z</time>
      </trkpt>
      <trkpt lat="44.82264" lon="0.84274">
        <ele>202</ele>
        <time>2026-05-01T15:01:26.000Z</time>
      </trkpt>
      <trkpt lat="44.82263" lon="0.84275">
        <ele>202.3</ele>
        <time>2026-05-01T15:01:27.000Z</time>
      </trkpt>
      <trkpt lat="44.82262" lon="0.84276">
        <ele>202.9</ele>
        <time>2026-05-01T15:01:28.000Z</time>
      </trkpt>
      <trkpt lat="44.8226" lon="0.84277">
        <ele>203.2</ele>
        <time>2026-05-01T15:01:29.000Z</time>
      </trkpt>
      <trkpt lat="44.82259" lon="0.84278">
        <ele>203.3</ele>
        <time>2026-05-01T15:01:30.000Z</time>
      </trkpt>
      <trkpt lat="44.82258" lon="0.84279">
        <ele>202.5</ele>
        <time>2026-05-01T15:01:31.000Z</time>
      </trkpt>
      <trkpt lat="44.82256" lon="0.84281">
        <ele>202.2</ele>
        <time>2026-05-01T15:01:32.000Z</time>
      </trkpt>
      <trkpt lat="44.82255" lon="0.84282">
        <ele>202.5</ele>
        <time>2026-05-01T15:01:33.000Z</time>
      </trkpt>
      <trkpt lat="44.82254" lon="0.84284">
        <ele>202.6</ele>
        <time>2026-05-01T15:01:34.000Z</time>
      </trkpt>
      <trkpt lat="44.82253" lon="0.84286">
        <ele>202.9</ele>
        <time>2026-05-01T15:01:35.000Z</time>
      </trkpt>
      <trkpt lat="44.82252" lon="0.84287">
        <ele>202.9</ele>
        <time>2026-05-01T15:01:36.000Z</time>
      </trkpt>
      <trkpt lat="44.82251" lon="0.84289">
        <ele>203.1</ele>
        <time>2026-05-01T15:01:37.000Z</time>
      </trkpt>
      <trkpt lat="44.82249" lon="0.8429">
        <ele>203.1</ele>
        <time>2026-05-01T15:01:38.000Z</time>
      </trkpt>
      <trkpt lat="44.82248" lon="0.84291">
        <ele>203.9</ele>
        <time>2026-05-01T15:01:39.000Z</time>
      </trkpt>
      <trkpt lat="44.82247" lon="0.84291">
        <ele>204</ele>
        <time>2026-05-01T15:01:40.000Z</time>
      </trkpt>
      <trkpt lat="44.82246" lon="0.84293">
        <ele>203.7</ele>
        <time>2026-05-01T15:01:41.000Z</time>
      </trkpt>
      <trkpt lat="44.82244" lon="0.84294">
        <ele>203.8</ele>
        <time>2026-05-01T15:01:42.000Z</time>
      </trkpt>
      <trkpt lat="44.82243" lon="0.84295">
        <ele>204.1</ele>
        <time>2026-05-01T15:01:43.000Z</time>
      </trkpt>
      <trkpt lat="44.82242" lon="0.84297">
        <ele>204.5</ele>
        <time>2026-05-01T15:01:44.000Z</time>
      </trkpt>
      <trkpt lat="44.82241" lon="0.84299">
        <ele>204.1</ele>
        <time>2026-05-01T15:01:45.000Z</time>
      </trkpt>
      <trkpt lat="44.82239" lon="0.84301">
        <ele>204.7</ele>
        <time>2026-05-01T15:01:46.000Z</time>
      </trkpt>
      <trkpt lat="44.82238" lon="0.84303">
        <ele>204.6</ele>
        <time>2026-05-01T15:01:47.000Z</time>
      </trkpt>
      <trkpt lat="44.82237" lon="0.84304">
        <ele>204.7</ele>
        <time>2026-05-01T15:01:48.000Z</time>
      </trkpt>
      <trkpt lat="44.82236" lon="0.84306">
        <ele>204.6</ele>
        <time>2026-05-01T15:01:49.000Z</time>
      </trkpt>
      <trkpt lat="44.82235" lon="0.84308">
        <ele>204.1</ele>
        <time>2026-05-01T15:01:50.000Z</time>
      </trkpt>
      <trkpt lat="44.82233" lon="0.84309">
        <ele>204.5</ele>
        <time>2026-05-01T15:01:51.000Z</time>
      </trkpt>
      <trkpt lat="44.82232" lon="0.8431">
        <ele>204.6</ele>
        <time>2026-05-01T15:01:52.000Z</time>
      </trkpt>
      <trkpt lat="44.82231" lon="0.84312">
        <ele>204.4</ele>
        <time>2026-05-01T15:01:53.000Z</time>
      </trkpt>
      <trkpt lat="44.8223" lon="0.84313">
        <ele>204.1</ele>
        <time>2026-05-01T15:01:54.000Z</time>
      </trkpt>
      <trkpt lat="44.82229" lon="0.84315">
        <ele>203.9</ele>
        <time>2026-05-01T15:01:55.000Z</time>
      </trkpt>
      <trkpt lat="44.82228" lon="0.84317">
        <ele>203.7</ele>
        <time>2026-05-01T15:01:56.000Z</time>
      </trkpt>
      <trkpt lat="44.82226" lon="0.84319">
        <ele>204.1</ele>
        <time>2026-05-01T15:01:57.000Z</time>
      </trkpt>
      <trkpt lat="44.82224" lon="0.84321">
        <ele>204.9</ele>
        <time>2026-05-01T15:01:58.000Z</time>
      </trkpt>
      <trkpt lat="44.82222" lon="0.84322">
        <ele>205.6</ele>
        <time>2026-05-01T15:01:59.000Z</time>
      </trkpt>
      <trkpt lat="44.82221" lon="0.84324">
        <ele>206.2</ele>
        <time>2026-05-01T15:02:00.000Z</time>
      </trkpt>
      <trkpt lat="44.82219" lon="0.84325">
        <ele>207</ele>
        <time>2026-05-01T15:02:01.000Z</time>
      </trkpt>
      <trkpt lat="44.82218" lon="0.84327">
        <ele>207.3</ele>
        <time>2026-05-01T15:02:02.000Z</time>
      </trkpt>
      <trkpt lat="44.82217" lon="0.84327">
        <ele>208.8</ele>
        <time>2026-05-01T15:02:03.000Z</time>
      </trkpt>
      <trkpt lat="44.82216" lon="0.84329">
        <ele>209.6</ele>
        <time>2026-05-01T15:02:04.000Z</time>
      </trkpt>
      <trkpt lat="44.82215" lon="0.8433">
        <ele>208.9</ele>
        <time>2026-05-01T15:02:05.000Z</time>
      </trkpt>
      <trkpt lat="44.82214" lon="0.84331">
        <ele>208.8</ele>
        <time>2026-05-01T15:02:06.000Z</time>
      </trkpt>
      <trkpt lat="44.82213" lon="0.84333">
        <ele>209</ele>
        <time>2026-05-01T15:02:07.000Z</time>
      </trkpt>
      <trkpt lat="44.82212" lon="0.84334">
        <ele>209</ele>
        <time>2026-05-01T15:02:08.000Z</time>
      </trkpt>
      <trkpt lat="44.82211" lon="0.84335">
        <ele>209</ele>
        <time>2026-05-01T15:02:09.000Z</time>
      </trkpt>
      <trkpt lat="44.8221" lon="0.84336">
        <ele>209</ele>
        <time>2026-05-01T15:02:10.000Z</time>
      </trkpt>
      <trkpt lat="44.82209" lon="0.84338">
        <ele>208.8</ele>
        <time>2026-05-01T15:02:11.000Z</time>
      </trkpt>
      <trkpt lat="44.82208" lon="0.84339">
        <ele>208.9</ele>
        <time>2026-05-01T15:02:12.000Z</time>
      </trkpt>
      <trkpt lat="44.82207" lon="0.8434">
        <ele>208.4</ele>
        <time>2026-05-01T15:02:13.000Z</time>
      </trkpt>
      <trkpt lat="44.82206" lon="0.84341">
        <ele>208</ele>
        <time>2026-05-01T15:02:14.000Z</time>
      </trkpt>
      <trkpt lat="44.82205" lon="0.84343">
        <ele>208.3</ele>
        <time>2026-05-01T15:02:15.000Z</time>
      </trkpt>
      <trkpt lat="44.82203" lon="0.84344">
        <ele>208.5</ele>
        <time>2026-05-01T15:02:16.000Z</time>
      </trkpt>
      <trkpt lat="44.82202" lon="0.84345">
        <ele>208.4</ele>
        <time>2026-05-01T15:02:17.000Z</time>
      </trkpt>
      <trkpt lat="44.82201" lon="0.84347">
        <ele>208.4</ele>
        <time>2026-05-01T15:02:18.000Z</time>
      </trkpt>
      <trkpt lat="44.82201" lon="0.84348">
        <ele>208.3</ele>
        <time>2026-05-01T15:02:19.000Z</time>
      </trkpt>
      <trkpt lat="44.822" lon="0.84349">
        <ele>208.3</ele>
        <time>2026-05-01T15:02:20.000Z</time>
      </trkpt>
      <trkpt lat="44.82198" lon="0.84351">
        <ele>208.6</ele>
        <time>2026-05-01T15:02:21.000Z</time>
      </trkpt>
      <trkpt lat="44.82197" lon="0.84352">
        <ele>208.6</ele>
        <time>2026-05-01T15:02:22.000Z</time>
      </trkpt>
      <trkpt lat="44.82196" lon="0.84354">
        <ele>208.5</ele>
        <time>2026-05-01T15:02:23.000Z</time>
      </trkpt>
      <trkpt lat="44.82195" lon="0.84355">
        <ele>208.4</ele>
        <time>2026-05-01T15:02:24.000Z</time>
      </trkpt>
      <trkpt lat="44.82194" lon="0.84356">
        <ele>208.5</ele>
        <time>2026-05-01T15:02:25.000Z</time>
      </trkpt>
      <trkpt lat="44.82193" lon="0.84358">
        <ele>208.3</ele>
        <time>2026-05-01T15:02:26.000Z</time>
      </trkpt>
      <trkpt lat="44.82192" lon="0.84359">
        <ele>208.2</ele>
        <time>2026-05-01T15:02:27.000Z</time>
      </trkpt>
      <trkpt lat="44.82191" lon="0.8436">
        <ele>208</ele>
        <time>2026-05-01T15:02:28.000Z</time>
      </trkpt>
      <trkpt lat="44.82189" lon="0.84362">
        <ele>208</ele>
        <time>2026-05-01T15:02:29.000Z</time>
      </trkpt>
      <trkpt lat="44.82188" lon="0.84363">
        <ele>208.4</ele>
        <time>2026-05-01T15:02:30.000Z</time>
      </trkpt>
      <trkpt lat="44.82187" lon="0.84365">
        <ele>208.5</ele>
        <time>2026-05-01T15:02:31.000Z</time>
      </trkpt>
      <trkpt lat="44.82186" lon="0.84366">
        <ele>208.5</ele>
        <time>2026-05-01T15:02:32.000Z</time>
      </trkpt>
      <trkpt lat="44.82185" lon="0.84368">
        <ele>207.9</ele>
        <time>2026-05-01T15:02:33.000Z</time>
      </trkpt>
      <trkpt lat="44.82184" lon="0.8437">
        <ele>208.4</ele>
        <time>2026-05-01T15:02:34.000Z</time>
      </trkpt>
      <trkpt lat="44.82183" lon="0.84371">
        <ele>208.6</ele>
        <time>2026-05-01T15:02:35.000Z</time>
      </trkpt>
      <trkpt lat="44.82181" lon="0.84372">
        <ele>208.8</ele>
        <time>2026-05-01T15:02:36.000Z</time>
      </trkpt>
      <trkpt lat="44.8218" lon="0.84374">
        <ele>208.6</ele>
        <time>2026-05-01T15:02:37.000Z</time>
      </trkpt>
      <trkpt lat="44.82179" lon="0.84375">
        <ele>208.9</ele>
        <time>2026-05-01T15:02:38.000Z</time>
      </trkpt>
      <trkpt lat="44.82178" lon="0.84377">
        <ele>209.3</ele>
        <time>2026-05-01T15:02:39.000Z</time>
      </trkpt>
      <trkpt lat="44.82177" lon="0.84379">
        <ele>208.9</ele>
        <time>2026-05-01T15:02:40.000Z</time>
      </trkpt>
      <trkpt lat="44.82176" lon="0.84381">
        <ele>208.9</ele>
        <time>2026-05-01T15:02:41.000Z</time>
      </trkpt>
      <trkpt lat="44.82175" lon="0.84382">
        <ele>209.1</ele>
        <time>2026-05-01T15:02:42.000Z</time>
      </trkpt>
      <trkpt lat="44.82174" lon="0.84384">
        <ele>209.3</ele>
        <time>2026-05-01T15:02:43.000Z</time>
      </trkpt>
      <trkpt lat="44.82173" lon="0.84385">
        <ele>210</ele>
        <time>2026-05-01T15:02:44.000Z</time>
      </trkpt>
      <trkpt lat="44.82172" lon="0.84386">
        <ele>210.1</ele>
        <time>2026-05-01T15:02:45.000Z</time>
      </trkpt>
      <trkpt lat="44.82171" lon="0.84388">
        <ele>209.9</ele>
        <time>2026-05-01T15:02:46.000Z</time>
      </trkpt>
      <trkpt lat="44.8217" lon="0.84389">
        <ele>210.3</ele>
        <time>2026-05-01T15:02:47.000Z</time>
      </trkpt>
      <trkpt lat="44.82169" lon="0.84391">
        <ele>210.4</ele>
        <time>2026-05-01T15:02:48.000Z</time>
      </trkpt>
      <trkpt lat="44.82167" lon="0.84393">
        <ele>210.4</ele>
        <time>2026-05-01T15:02:49.000Z</time>
      </trkpt>
      <trkpt lat="44.82166" lon="0.84394">
        <ele>210</ele>
        <time>2026-05-01T15:02:50.000Z</time>
      </trkpt>
      <trkpt lat="44.82165" lon="0.84396">
        <ele>210</ele>
        <time>2026-05-01T15:02:51.000Z</time>
      </trkpt>
      <trkpt lat="44.82164" lon="0.84397">
        <ele>210.2</ele>
        <time>2026-05-01T15:02:52.000Z</time>
      </trkpt>
      <trkpt lat="44.82162" lon="0.84399">
        <ele>210.1</ele>
        <time>2026-05-01T15:02:53.000Z</time>
      </trkpt>
      <trkpt lat="44.82161" lon="0.844">
        <ele>209.8</ele>
        <time>2026-05-01T15:02:54.000Z</time>
      </trkpt>
      <trkpt lat="44.8216" lon="0.84401">
        <ele>209.8</ele>
        <time>2026-05-01T15:02:55.000Z</time>
      </trkpt>
      <trkpt lat="44.82159" lon="0.84402">
        <ele>209.6</ele>
        <time>2026-05-01T15:02:56.000Z</time>
      </trkpt>
      <trkpt lat="44.82158" lon="0.84404">
        <ele>209.7</ele>
        <time>2026-05-01T15:02:57.000Z</time>
      </trkpt>
      <trkpt lat="44.82156" lon="0.84405">
        <ele>209.8</ele>
        <time>2026-05-01T15:02:58.000Z</time>
      </trkpt>
      <trkpt lat="44.82155" lon="0.84406">
        <ele>209.7</ele>
        <time>2026-05-01T15:02:59.000Z</time>
      </trkpt>
      <trkpt lat="44.82154" lon="0.84407">
        <ele>209.9</ele>
        <time>2026-05-01T15:03:00.000Z</time>
      </trkpt>
      <trkpt lat="44.82152" lon="0.84409">
        <ele>209.8</ele>
        <time>2026-05-01T15:03:01.000Z</time>
      </trkpt>
      <trkpt lat="44.82151" lon="0.8441">
        <ele>209.9</ele>
        <time>2026-05-01T15:03:02.000Z</time>
      </trkpt>
      <trkpt lat="44.82149" lon="0.84411">
        <ele>210.1</ele>
        <time>2026-05-01T15:03:03.000Z</time>
      </trkpt>
      <trkpt lat="44.82148" lon="0.84412">
        <ele>209.9</ele>
        <time>2026-05-01T15:03:04.000Z</time>
      </trkpt>
      <trkpt lat="44.82147" lon="0.84413">
        <ele>209.9</ele>
        <time>2026-05-01T15:03:05.000Z</time>
      </trkpt>
      <trkpt lat="44.82145" lon="0.84414">
        <ele>210</ele>
        <time>2026-05-01T15:03:06.000Z</time>
      </trkpt>
      <trkpt lat="44.82144" lon="0.84415">
        <ele>210</ele>
        <time>2026-05-01T15:03:07.000Z</time>
      </trkpt>
      <trkpt lat="44.82143" lon="0.84417">
        <ele>210</ele>
        <time>2026-05-01T15:03:08.000Z</time>
      </trkpt>
      <trkpt lat="44.82141" lon="0.84418">
        <ele>209.8</ele>
        <time>2026-05-01T15:03:09.000Z</time>
      </trkpt>
      <trkpt lat="44.8214" lon="0.84419">
        <ele>209.7</ele>
        <time>2026-05-01T15:03:10.000Z</time>
      </trkpt>
      <trkpt lat="44.82139" lon="0.8442">
        <ele>209.5</ele>
        <time>2026-05-01T15:03:11.000Z</time>
      </trkpt>
      <trkpt lat="44.82137" lon="0.84421">
        <ele>209.1</ele>
        <time>2026-05-01T15:03:12.000Z</time>
      </trkpt>
      <trkpt lat="44.82136" lon="0.84422">
        <ele>208.9</ele>
        <time>2026-05-01T15:03:13.000Z</time>
      </trkpt>
      <trkpt lat="44.82135" lon="0.84424">
        <ele>208.8</ele>
        <time>2026-05-01T15:03:14.000Z</time>
      </trkpt>
      <trkpt lat="44.82134" lon="0.84425">
        <ele>208.7</ele>
        <time>2026-05-01T15:03:15.000Z</time>
      </trkpt>
      <trkpt lat="44.82132" lon="0.84426">
        <ele>208.3</ele>
        <time>2026-05-01T15:03:16.000Z</time>
      </trkpt>
      <trkpt lat="44.82131" lon="0.84428">
        <ele>208.1</ele>
        <time>2026-05-01T15:03:17.000Z</time>
      </trkpt>
      <trkpt lat="44.8213" lon="0.84429">
        <ele>207.5</ele>
        <time>2026-05-01T15:03:18.000Z</time>
      </trkpt>
      <trkpt lat="44.82129" lon="0.8443">
        <ele>206.8</ele>
        <time>2026-05-01T15:03:19.000Z</time>
      </trkpt>
      <trkpt lat="44.82128" lon="0.84431">
        <ele>206.3</ele>
        <time>2026-05-01T15:03:20.000Z</time>
      </trkpt>
      <trkpt lat="44.82126" lon="0.84432">
        <ele>206.3</ele>
        <time>2026-05-01T15:03:21.000Z</time>
      </trkpt>
      <trkpt lat="44.82125" lon="0.84434">
        <ele>206.6</ele>
        <time>2026-05-01T15:03:22.000Z</time>
      </trkpt>
      <trkpt lat="44.82123" lon="0.84435">
        <ele>206</ele>
        <time>2026-05-01T15:03:23.000Z</time>
      </trkpt>
      <trkpt lat="44.82122" lon="0.84438">
        <ele>205.3</ele>
        <time>2026-05-01T15:03:24.000Z</time>
      </trkpt>
      <trkpt lat="44.82121" lon="0.8444">
        <ele>205.1</ele>
        <time>2026-05-01T15:03:25.000Z</time>
      </trkpt>
      <trkpt lat="44.8212" lon="0.84441">
        <ele>204.9</ele>
        <time>2026-05-01T15:03:26.000Z</time>
      </trkpt>
      <trkpt lat="44.8212" lon="0.84442">
        <ele>205.9</ele>
        <time>2026-05-01T15:03:27.000Z</time>
      </trkpt>
      <trkpt lat="44.8212" lon="0.84442">
        <ele>206.5</ele>
        <time>2026-05-01T15:03:28.000Z</time>
      </trkpt>
      <trkpt lat="44.8212" lon="0.8444">
        <ele>206.2</ele>
        <time>2026-05-01T15:03:29.000Z</time>
      </trkpt>
      <trkpt lat="44.8212" lon="0.84438">
        <ele>205.9</ele>
        <time>2026-05-01T15:03:30.000Z</time>
      </trkpt>
      <trkpt lat="44.8212" lon="0.84437">
        <ele>206</ele>
        <time>2026-05-01T15:03:31.000Z</time>
      </trkpt>
      <trkpt lat="44.82121" lon="0.84437">
        <ele>206</ele>
        <time>2026-05-01T15:03:32.000Z</time>
      </trkpt>
      <trkpt lat="44.82121" lon="0.84437">
        <ele>206</ele>
        <time>2026-05-01T15:03:33.000Z</time>
      </trkpt>
      <trkpt lat="44.82121" lon="0.84437">
        <ele>206</ele>
        <time>2026-05-01T15:03:34.000Z</time>
      </trkpt>
      <trkpt lat="44.82121" lon="0.84437">
        <ele>206.1</ele>
        <time>2026-05-01T15:03:35.000Z</time>
      </trkpt>
      <trkpt lat="44.82121" lon="0.84436">
        <ele>206.1</ele>
        <time>2026-05-01T15:03:36.000Z</time>
      </trkpt>
      <trkpt lat="44.8212" lon="0.84436">
        <ele>206.1</ele>
        <time>2026-05-01T15:03:37.000Z</time>
      </trkpt>
      <trkpt lat="44.8212" lon="0.84436">
        <ele>206.1</ele>
        <time>2026-05-01T15:03:38.000Z</time>
      </trkpt>
      <trkpt lat="44.8212" lon="0.84436">
        <ele>206.1</ele>
        <time>2026-05-01T15:03:39.000Z</time>
      </trkpt>
      <trkpt lat="44.8212" lon="0.84436">
        <ele>206.1</ele>
        <time>2026-05-01T15:03:40.000Z</time>
      </trkpt>
      <trkpt lat="44.8212" lon="0.84436">
        <ele>206.1</ele>
        <time>2026-05-01T15:03:41.000Z</time>
      </trkpt>
      <trkpt lat="44.8212" lon="0.84436">
        <ele>206.1</ele>
        <time>2026-05-01T15:03:42.000Z</time>
      </trkpt>
      <trkpt lat="44.8212" lon="0.84436">
        <ele>206.1</ele>
        <time>2026-05-01T15:03:43.000Z</time>
      </trkpt>
      <trkpt lat="44.8212" lon="0.84436">
        <ele>206.1</ele>
        <time>2026-05-01T15:03:44.000Z</time>
      </trkpt>
      <trkpt lat="44.8212" lon="0.84436">
        <ele>206.1</ele>
        <time>2026-05-01T15:03:45.000Z</time>
      </trkpt>
      <trkpt lat="44.8212" lon="0.84436">
        <ele>206.1</ele>
        <time>2026-05-01T15:03:46.000Z</time>
      </trkpt>
      <trkpt lat="44.8212" lon="0.84436">
        <ele>206.1</ele>
        <time>2026-05-01T15:03:47.000Z</time>
      </trkpt>
      <trkpt lat="44.8212" lon="0.84436">
        <ele>206.1</ele>
        <time>2026-05-01T15:03:48.000Z</time>
      </trkpt>
      <trkpt lat="44.8212" lon="0.84436">
        <ele>206.1</ele>
        <time>2026-05-01T15:03:49.000Z</time>
      </trkpt>
      <trkpt lat="44.8212" lon="0.84436">
        <ele>206.1</ele>
        <time>2026-05-01T15:03:50.000Z</time>
      </trkpt>
      <trkpt lat="44.8212" lon="0.84436">
        <ele>206</ele>
        <time>2026-05-01T15:03:51.000Z</time>
      </trkpt>
      <trkpt lat="44.8212" lon="0.84436">
        <ele>206</ele>
        <time>2026-05-01T15:03:52.000Z</time>
      </trkpt>
      <trkpt lat="44.8212" lon="0.84436">
        <ele>206.1</ele>
        <time>2026-05-01T15:03:53.000Z</time>
      </trkpt>
      <trkpt lat="44.8212" lon="0.84436">
        <ele>206.1</ele>
        <time>2026-05-01T15:03:54.000Z</time>
      </trkpt>
      <trkpt lat="44.8212" lon="0.84436">
        <ele>206.1</ele>
        <time>2026-05-01T15:03:55.000Z</time>
      </trkpt>
      <trkpt lat="44.8212" lon="0.84436">
        <ele>206</ele>
        <time>2026-05-01T15:03:56.000Z</time>
      </trkpt>
      <trkpt lat="44.8212" lon="0.84436">
        <ele>206.1</ele>
        <time>2026-05-01T15:03:57.000Z</time>
      </trkpt>
      <trkpt lat="44.8212" lon="0.84436">
        <ele>206.1</ele>
        <time>2026-05-01T15:03:58.000Z</time>
      </trkpt>
      <trkpt lat="44.8212" lon="0.84436">
        <ele>206.1</ele>
        <time>2026-05-01T15:03:59.000Z</time>
      </trkpt>
      <trkpt lat="44.8212" lon="0.84436">
        <ele>206.1</ele>
        <time>2026-05-01T15:04:00.000Z</time>
      </trkpt>
      <trkpt lat="44.8212" lon="0.84436">
        <ele>206.1</ele>
        <time>2026-05-01T15:04:01.000Z</time>
      </trkpt>
      <trkpt lat="44.8212" lon="0.84436">
        <ele>206.1</ele>
        <time>2026-05-01T15:04:02.000Z</time>
      </trkpt>
      <trkpt lat="44.8212" lon="0.84436">
        <ele>206.1</ele>
        <time>2026-05-01T15:04:03.000Z</time>
      </trkpt>
      <trkpt lat="44.8212" lon="0.84436">
        <ele>206.1</ele>
        <time>2026-05-01T15:04:04.000Z</time>
      </trkpt>
      <trkpt lat="44.8212" lon="0.84436">
        <ele>206.1</ele>
        <time>2026-05-01T15:04:05.000Z</time>
      </trkpt>
      <trkpt lat="44.8212" lon="0.84436">
        <ele>206.1</ele>
        <time>2026-05-01T15:04:06.000Z</time>
      </trkpt>
      <trkpt lat="44.8212" lon="0.84436">
        <ele>206.1</ele>
        <time>2026-05-01T15:04:07.000Z</time>
      </trkpt>
      <trkpt lat="44.8212" lon="0.84436">
        <ele>206.1</ele>
        <time>2026-05-01T15:04:08.000Z</time>
      </trkpt>
      <trkpt lat="44.8212" lon="0.84436">
        <ele>206.1</ele>
        <time>2026-05-01T15:04:09.000Z</time>
      </trkpt>
      <trkpt lat="44.8212" lon="0.84436">
        <ele>206</ele>
        <time>2026-05-01T15:04:10.000Z</time>
      </trkpt>
      <trkpt lat="44.8212" lon="0.84436">
        <ele>206</ele>
        <time>2026-05-01T15:04:11.000Z</time>
      </trkpt>
      <trkpt lat="44.8212" lon="0.84436">
        <ele>206</ele>
        <time>2026-05-01T15:04:12.000Z</time>
      </trkpt>
      <trkpt lat="44.8212" lon="0.84436">
        <ele>206</ele>
        <time>2026-05-01T15:04:13.000Z</time>
      </trkpt>
      <trkpt lat="44.8212" lon="0.84436">
        <ele>206</ele>
        <time>2026-05-01T15:04:14.000Z</time>
      </trkpt>
      <trkpt lat="44.8212" lon="0.84437">
        <ele>205.8</ele>
        <time>2026-05-01T15:04:15.000Z</time>
      </trkpt>
      <trkpt lat="44.8212" lon="0.84437">
        <ele>205.8</ele>
        <time>2026-05-01T15:04:16.000Z</time>
      </trkpt>
      <trkpt lat="44.82119" lon="0.84438">
        <ele>205.7</ele>
        <time>2026-05-01T15:04:17.000Z</time>
      </trkpt>
      <trkpt lat="44.82119" lon="0.84438">
        <ele>205.5</ele>
        <time>2026-05-01T15:04:18.000Z</time>
      </trkpt>
      <trkpt lat="44.82118" lon="0.84439">
        <ele>205.3</ele>
        <time>2026-05-01T15:04:19.000Z</time>
      </trkpt>
      <trkpt lat="44.82117" lon="0.8444">
        <ele>204.8</ele>
        <time>2026-05-01T15:04:20.000Z</time>
      </trkpt>
      <trkpt lat="44.82116" lon="0.84442">
        <ele>204.7</ele>
        <time>2026-05-01T15:04:21.000Z</time>
      </trkpt>
      <trkpt lat="44.82115" lon="0.84443">
        <ele>204.2</ele>
        <time>2026-05-01T15:04:22.000Z</time>
      </trkpt>
      <trkpt lat="44.82113" lon="0.84444">
        <ele>203.9</ele>
        <time>2026-05-01T15:04:23.000Z</time>
      </trkpt>
      <trkpt lat="44.82112" lon="0.84445">
        <ele>203.8</ele>
        <time>2026-05-01T15:04:24.000Z</time>
      </trkpt>
      <trkpt lat="44.82111" lon="0.84446">
        <ele>202.9</ele>
        <time>2026-05-01T15:04:25.000Z</time>
      </trkpt>
      <trkpt lat="44.8211" lon="0.84447">
        <ele>202.8</ele>
        <time>2026-05-01T15:04:26.000Z</time>
      </trkpt>
      <trkpt lat="44.82109" lon="0.84448">
        <ele>202.3</ele>
        <time>2026-05-01T15:04:27.000Z</time>
      </trkpt>
      <trkpt lat="44.82108" lon="0.8445">
        <ele>202.7</ele>
        <time>2026-05-01T15:04:28.000Z</time>
      </trkpt>
      <trkpt lat="44.82107" lon="0.84451">
        <ele>203.1</ele>
        <time>2026-05-01T15:04:29.000Z</time>
      </trkpt>
      <trkpt lat="44.82105" lon="0.84452">
        <ele>203</ele>
        <time>2026-05-01T15:04:30.000Z</time>
      </trkpt>
      <trkpt lat="44.82104" lon="0.84453">
        <ele>202.8</ele>
        <time>2026-05-01T15:04:31.000Z</time>
      </trkpt>
      <trkpt lat="44.82102" lon="0.84454">
        <ele>202.2</ele>
        <time>2026-05-01T15:04:32.000Z</time>
      </trkpt>
      <trkpt lat="44.82101" lon="0.84455">
        <ele>202.3</ele>
        <time>2026-05-01T15:04:33.000Z</time>
      </trkpt>
      <trkpt lat="44.821" lon="0.84456">
        <ele>202.4</ele>
        <time>2026-05-01T15:04:34.000Z</time>
      </trkpt>
      <trkpt lat="44.82099" lon="0.84458">
        <ele>202.6</ele>
        <time>2026-05-01T15:04:35.000Z</time>
      </trkpt>
      <trkpt lat="44.82098" lon="0.84459">
        <ele>202</ele>
        <time>2026-05-01T15:04:36.000Z</time>
      </trkpt>
      <trkpt lat="44.82097" lon="0.8446">
        <ele>202.3</ele>
        <time>2026-05-01T15:04:37.000Z</time>
      </trkpt>
      <trkpt lat="44.82096" lon="0.84462">
        <ele>201.8</ele>
        <time>2026-05-01T15:04:38.000Z</time>
      </trkpt>
      <trkpt lat="44.82094" lon="0.84463">
        <ele>201.4</ele>
        <time>2026-05-01T15:04:39.000Z</time>
      </trkpt>
      <trkpt lat="44.82093" lon="0.84465">
        <ele>201.7</ele>
        <time>2026-05-01T15:04:40.000Z</time>
      </trkpt>
      <trkpt lat="44.82091" lon="0.84466">
        <ele>201.6</ele>
        <time>2026-05-01T15:04:41.000Z</time>
      </trkpt>
      <trkpt lat="44.8209" lon="0.84467">
        <ele>201.2</ele>
        <time>2026-05-01T15:04:42.000Z</time>
      </trkpt>
      <trkpt lat="44.82088" lon="0.84468">
        <ele>201.4</ele>
        <time>2026-05-01T15:04:43.000Z</time>
      </trkpt>
      <trkpt lat="44.82087" lon="0.8447">
        <ele>201.2</ele>
        <time>2026-05-01T15:04:44.000Z</time>
      </trkpt>
      <trkpt lat="44.82086" lon="0.84472">
        <ele>201</ele>
        <time>2026-05-01T15:04:45.000Z</time>
      </trkpt>
      <trkpt lat="44.82084" lon="0.84473">
        <ele>201.3</ele>
        <time>2026-05-01T15:04:46.000Z</time>
      </trkpt>
      <trkpt lat="44.82083" lon="0.84474">
        <ele>201.2</ele>
        <time>2026-05-01T15:04:47.000Z</time>
      </trkpt>
      <trkpt lat="44.82082" lon="0.84476">
        <ele>201.3</ele>
        <time>2026-05-01T15:04:48.000Z</time>
      </trkpt>
      <trkpt lat="44.8208" lon="0.84477">
        <ele>201.4</ele>
        <time>2026-05-01T15:04:49.000Z</time>
      </trkpt>
      <trkpt lat="44.82079" lon="0.84478">
        <ele>201.5</ele>
        <time>2026-05-01T15:04:50.000Z</time>
      </trkpt>
      <trkpt lat="44.82078" lon="0.84479">
        <ele>201.2</ele>
        <time>2026-05-01T15:04:51.000Z</time>
      </trkpt>
      <trkpt lat="44.82076" lon="0.84481">
        <ele>201.3</ele>
        <time>2026-05-01T15:04:52.000Z</time>
      </trkpt>
      <trkpt lat="44.82075" lon="0.84482">
        <ele>200.9</ele>
        <time>2026-05-01T15:04:53.000Z</time>
      </trkpt>
      <trkpt lat="44.82074" lon="0.84483">
        <ele>200.7</ele>
        <time>2026-05-01T15:04:54.000Z</time>
      </trkpt>
      <trkpt lat="44.82072" lon="0.84484">
        <ele>200.8</ele>
        <time>2026-05-01T15:04:55.000Z</time>
      </trkpt>
      <trkpt lat="44.82071" lon="0.84485">
        <ele>200.6</ele>
        <time>2026-05-01T15:04:56.000Z</time>
      </trkpt>
      <trkpt lat="44.8207" lon="0.84487">
        <ele>200.4</ele>
        <time>2026-05-01T15:04:57.000Z</time>
      </trkpt>
      <trkpt lat="44.82069" lon="0.84488">
        <ele>200.3</ele>
        <time>2026-05-01T15:04:58.000Z</time>
      </trkpt>
      <trkpt lat="44.82067" lon="0.8449">
        <ele>199.9</ele>
        <time>2026-05-01T15:04:59.000Z</time>
      </trkpt>
      <trkpt lat="44.82066" lon="0.84491">
        <ele>199.6</ele>
        <time>2026-05-01T15:05:00.000Z</time>
      </trkpt>
      <trkpt lat="44.82065" lon="0.84492">
        <ele>199.3</ele>
        <time>2026-05-01T15:05:01.000Z</time>
      </trkpt>
      <trkpt lat="44.82064" lon="0.84493">
        <ele>199.2</ele>
        <time>2026-05-01T15:05:02.000Z</time>
      </trkpt>
      <trkpt lat="44.82062" lon="0.84495">
        <ele>199.3</ele>
        <time>2026-05-01T15:05:03.000Z</time>
      </trkpt>
      <trkpt lat="44.82061" lon="0.84496">
        <ele>199.1</ele>
        <time>2026-05-01T15:05:04.000Z</time>
      </trkpt>
      <trkpt lat="44.8206" lon="0.84497">
        <ele>199.1</ele>
        <time>2026-05-01T15:05:05.000Z</time>
      </trkpt>
      <trkpt lat="44.82059" lon="0.84499">
        <ele>198.9</ele>
        <time>2026-05-01T15:05:06.000Z</time>
      </trkpt>
      <trkpt lat="44.82057" lon="0.84501">
        <ele>198.9</ele>
        <time>2026-05-01T15:05:07.000Z</time>
      </trkpt>
      <trkpt lat="44.82056" lon="0.84502">
        <ele>198.5</ele>
        <time>2026-05-01T15:05:08.000Z</time>
      </trkpt>
      <trkpt lat="44.82055" lon="0.84503">
        <ele>198.3</ele>
        <time>2026-05-01T15:05:09.000Z</time>
      </trkpt>
      <trkpt lat="44.82053" lon="0.84504">
        <ele>198</ele>
        <time>2026-05-01T15:05:10.000Z</time>
      </trkpt>
      <trkpt lat="44.82052" lon="0.84506">
        <ele>197.8</ele>
        <time>2026-05-01T15:05:11.000Z</time>
      </trkpt>
      <trkpt lat="44.82051" lon="0.84507">
        <ele>198</ele>
        <time>2026-05-01T15:05:12.000Z</time>
      </trkpt>
      <trkpt lat="44.8205" lon="0.84509">
        <ele>197.8</ele>
        <time>2026-05-01T15:05:13.000Z</time>
      </trkpt>
      <trkpt lat="44.82049" lon="0.8451">
        <ele>197.9</ele>
        <time>2026-05-01T15:05:14.000Z</time>
      </trkpt>
      <trkpt lat="44.82047" lon="0.84512">
        <ele>197.7</ele>
        <time>2026-05-01T15:05:15.000Z</time>
      </trkpt>
      <trkpt lat="44.82046" lon="0.84513">
        <ele>197.7</ele>
        <time>2026-05-01T15:05:16.000Z</time>
      </trkpt>
      <trkpt lat="44.82045" lon="0.84514">
        <ele>197.5</ele>
        <time>2026-05-01T15:05:17.000Z</time>
      </trkpt>
      <trkpt lat="44.82044" lon="0.84516">
        <ele>197.4</ele>
        <time>2026-05-01T15:05:18.000Z</time>
      </trkpt>
      <trkpt lat="44.82043" lon="0.84517">
        <ele>197.5</ele>
        <time>2026-05-01T15:05:19.000Z</time>
      </trkpt>
      <trkpt lat="44.82042" lon="0.84519">
        <ele>197.1</ele>
        <time>2026-05-01T15:05:20.000Z</time>
      </trkpt>
      <trkpt lat="44.8204" lon="0.8452">
        <ele>197.2</ele>
        <time>2026-05-01T15:05:21.000Z</time>
      </trkpt>
      <trkpt lat="44.82039" lon="0.84522">
        <ele>196.9</ele>
        <time>2026-05-01T15:05:22.000Z</time>
      </trkpt>
      <trkpt lat="44.82038" lon="0.84523">
        <ele>196.5</ele>
        <time>2026-05-01T15:05:23.000Z</time>
      </trkpt>
      <trkpt lat="44.82037" lon="0.84524">
        <ele>196.1</ele>
        <time>2026-05-01T15:05:24.000Z</time>
      </trkpt>
      <trkpt lat="44.82035" lon="0.84525">
        <ele>195.9</ele>
        <time>2026-05-01T15:05:25.000Z</time>
      </trkpt>
      <trkpt lat="44.82034" lon="0.84526">
        <ele>195.7</ele>
        <time>2026-05-01T15:05:26.000Z</time>
      </trkpt>
      <trkpt lat="44.82033" lon="0.84528">
        <ele>195.5</ele>
        <time>2026-05-01T15:05:27.000Z</time>
      </trkpt>
      <trkpt lat="44.82031" lon="0.84529">
        <ele>196</ele>
        <time>2026-05-01T15:05:28.000Z</time>
      </trkpt>
      <trkpt lat="44.8203" lon="0.84531">
        <ele>196.3</ele>
        <time>2026-05-01T15:05:29.000Z</time>
      </trkpt>
      <trkpt lat="44.82029" lon="0.84532">
        <ele>195.9</ele>
        <time>2026-05-01T15:05:30.000Z</time>
      </trkpt>
      <trkpt lat="44.82027" lon="0.84534">
        <ele>195.8</ele>
        <time>2026-05-01T15:05:31.000Z</time>
      </trkpt>
      <trkpt lat="44.82026" lon="0.84535">
        <ele>195.4</ele>
        <time>2026-05-01T15:05:32.000Z</time>
      </trkpt>
      <trkpt lat="44.82025" lon="0.84537">
        <ele>195.4</ele>
        <time>2026-05-01T15:05:33.000Z</time>
      </trkpt>
      <trkpt lat="44.82024" lon="0.84538">
        <ele>195</ele>
        <time>2026-05-01T15:05:34.000Z</time>
      </trkpt>
      <trkpt lat="44.82022" lon="0.84539">
        <ele>194.9</ele>
        <time>2026-05-01T15:05:35.000Z</time>
      </trkpt>
      <trkpt lat="44.82021" lon="0.84541">
        <ele>194.8</ele>
        <time>2026-05-01T15:05:36.000Z</time>
      </trkpt>
      <trkpt lat="44.8202" lon="0.84542">
        <ele>194.9</ele>
        <time>2026-05-01T15:05:37.000Z</time>
      </trkpt>
      <trkpt lat="44.82019" lon="0.84543">
        <ele>194.9</ele>
        <time>2026-05-01T15:05:38.000Z</time>
      </trkpt>
      <trkpt lat="44.82017" lon="0.84545">
        <ele>194.9</ele>
        <time>2026-05-01T15:05:39.000Z</time>
      </trkpt>
      <trkpt lat="44.82016" lon="0.84546">
        <ele>194.9</ele>
        <time>2026-05-01T15:05:40.000Z</time>
      </trkpt>
      <trkpt lat="44.82015" lon="0.84548">
        <ele>194.6</ele>
        <time>2026-05-01T15:05:41.000Z</time>
      </trkpt>
      <trkpt lat="44.82014" lon="0.84549">
        <ele>194.4</ele>
        <time>2026-05-01T15:05:42.000Z</time>
      </trkpt>
      <trkpt lat="44.82013" lon="0.84551">
        <ele>194.3</ele>
        <time>2026-05-01T15:05:43.000Z</time>
      </trkpt>
      <trkpt lat="44.82011" lon="0.84552">
        <ele>194</ele>
        <time>2026-05-01T15:05:44.000Z</time>
      </trkpt>
      <trkpt lat="44.8201" lon="0.84553">
        <ele>194.5</ele>
        <time>2026-05-01T15:05:45.000Z</time>
      </trkpt>
      <trkpt lat="44.82009" lon="0.84555">
        <ele>194.4</ele>
        <time>2026-05-01T15:05:46.000Z</time>
      </trkpt>
      <trkpt lat="44.82008" lon="0.84557">
        <ele>194.6</ele>
        <time>2026-05-01T15:05:47.000Z</time>
      </trkpt>
      <trkpt lat="44.82007" lon="0.84559">
        <ele>194.4</ele>
        <time>2026-05-01T15:05:48.000Z</time>
      </trkpt>
      <trkpt lat="44.82006" lon="0.8456">
        <ele>194.2</ele>
        <time>2026-05-01T15:05:49.000Z</time>
      </trkpt>
      <trkpt lat="44.82005" lon="0.84562">
        <ele>194.3</ele>
        <time>2026-05-01T15:05:50.000Z</time>
      </trkpt>
      <trkpt lat="44.82004" lon="0.84563">
        <ele>194</ele>
        <time>2026-05-01T15:05:51.000Z</time>
      </trkpt>
      <trkpt lat="44.82003" lon="0.84565">
        <ele>194</ele>
        <time>2026-05-01T15:05:52.000Z</time>
      </trkpt>
      <trkpt lat="44.82002" lon="0.84567">
        <ele>194</ele>
        <time>2026-05-01T15:05:53.000Z</time>
      </trkpt>
      <trkpt lat="44.82" lon="0.84569">
        <ele>193.9</ele>
        <time>2026-05-01T15:05:54.000Z</time>
      </trkpt>
      <trkpt lat="44.81999" lon="0.8457">
        <ele>193.4</ele>
        <time>2026-05-01T15:05:55.000Z</time>
      </trkpt>
      <trkpt lat="44.81998" lon="0.84572">
        <ele>193.5</ele>
        <time>2026-05-01T15:05:56.000Z</time>
      </trkpt>
      <trkpt lat="44.81996" lon="0.84574">
        <ele>193.6</ele>
        <time>2026-05-01T15:05:57.000Z</time>
      </trkpt>
      <trkpt lat="44.81995" lon="0.84575">
        <ele>193.5</ele>
        <time>2026-05-01T15:05:58.000Z</time>
      </trkpt>
      <trkpt lat="44.81994" lon="0.84577">
        <ele>193.5</ele>
        <time>2026-05-01T15:05:59.000Z</time>
      </trkpt>
      <trkpt lat="44.81992" lon="0.84579">
        <ele>193.5</ele>
        <time>2026-05-01T15:06:00.000Z</time>
      </trkpt>
      <trkpt lat="44.81991" lon="0.8458">
        <ele>193.6</ele>
        <time>2026-05-01T15:06:01.000Z</time>
      </trkpt>
      <trkpt lat="44.8199" lon="0.84582">
        <ele>193.7</ele>
        <time>2026-05-01T15:06:02.000Z</time>
      </trkpt>
      <trkpt lat="44.81988" lon="0.84583">
        <ele>193.2</ele>
        <time>2026-05-01T15:06:03.000Z</time>
      </trkpt>
      <trkpt lat="44.81986" lon="0.84585">
        <ele>192.6</ele>
        <time>2026-05-01T15:06:04.000Z</time>
      </trkpt>
      <trkpt lat="44.81984" lon="0.84586">
        <ele>192.3</ele>
        <time>2026-05-01T15:06:05.000Z</time>
      </trkpt>
      <trkpt lat="44.81983" lon="0.84587">
        <ele>192.1</ele>
        <time>2026-05-01T15:06:06.000Z</time>
      </trkpt>
      <trkpt lat="44.81981" lon="0.84588">
        <ele>192.1</ele>
        <time>2026-05-01T15:06:07.000Z</time>
      </trkpt>
      <trkpt lat="44.8198" lon="0.84589">
        <ele>191.7</ele>
        <time>2026-05-01T15:06:08.000Z</time>
      </trkpt>
      <trkpt lat="44.81979" lon="0.8459">
        <ele>191.6</ele>
        <time>2026-05-01T15:06:09.000Z</time>
      </trkpt>
      <trkpt lat="44.81977" lon="0.84591">
        <ele>191.5</ele>
        <time>2026-05-01T15:06:10.000Z</time>
      </trkpt>
      <trkpt lat="44.81976" lon="0.84592">
        <ele>191.9</ele>
        <time>2026-05-01T15:06:11.000Z</time>
      </trkpt>
      <trkpt lat="44.81974" lon="0.84592">
        <ele>192</ele>
        <time>2026-05-01T15:06:12.000Z</time>
      </trkpt>
      <trkpt lat="44.81972" lon="0.84593">
        <ele>192.5</ele>
        <time>2026-05-01T15:06:13.000Z</time>
      </trkpt>
      <trkpt lat="44.81971" lon="0.84594">
        <ele>192.2</ele>
        <time>2026-05-01T15:06:14.000Z</time>
      </trkpt>
      <trkpt lat="44.8197" lon="0.84595">
        <ele>192</ele>
        <time>2026-05-01T15:06:15.000Z</time>
      </trkpt>
      <trkpt lat="44.81968" lon="0.84596">
        <ele>191.9</ele>
        <time>2026-05-01T15:06:16.000Z</time>
      </trkpt>
      <trkpt lat="44.81966" lon="0.84598">
        <ele>191.7</ele>
        <time>2026-05-01T15:06:17.000Z</time>
      </trkpt>
      <trkpt lat="44.81965" lon="0.84598">
        <ele>191.9</ele>
        <time>2026-05-01T15:06:18.000Z</time>
      </trkpt>
      <trkpt lat="44.81963" lon="0.84599">
        <ele>191.9</ele>
        <time>2026-05-01T15:06:19.000Z</time>
      </trkpt>
      <trkpt lat="44.81962" lon="0.846">
        <ele>192</ele>
        <time>2026-05-01T15:06:20.000Z</time>
      </trkpt>
      <trkpt lat="44.8196" lon="0.84601">
        <ele>191.7</ele>
        <time>2026-05-01T15:06:21.000Z</time>
      </trkpt>
      <trkpt lat="44.81959" lon="0.84602">
        <ele>191.9</ele>
        <time>2026-05-01T15:06:22.000Z</time>
      </trkpt>
      <trkpt lat="44.81957" lon="0.84603">
        <ele>192.6</ele>
        <time>2026-05-01T15:06:23.000Z</time>
      </trkpt>
      <trkpt lat="44.81956" lon="0.84604">
        <ele>193</ele>
        <time>2026-05-01T15:06:24.000Z</time>
      </trkpt>
      <trkpt lat="44.81954" lon="0.84605">
        <ele>192.9</ele>
        <time>2026-05-01T15:06:25.000Z</time>
      </trkpt>
      <trkpt lat="44.81953" lon="0.84606">
        <ele>192.8</ele>
        <time>2026-05-01T15:06:26.000Z</time>
      </trkpt>
      <trkpt lat="44.81951" lon="0.84607">
        <ele>192.8</ele>
        <time>2026-05-01T15:06:27.000Z</time>
      </trkpt>
      <trkpt lat="44.8195" lon="0.84608">
        <ele>193</ele>
        <time>2026-05-01T15:06:28.000Z</time>
      </trkpt>
      <trkpt lat="44.81948" lon="0.8461">
        <ele>192.4</ele>
        <time>2026-05-01T15:06:29.000Z</time>
      </trkpt>
      <trkpt lat="44.81947" lon="0.8461">
        <ele>192.6</ele>
        <time>2026-05-01T15:06:30.000Z</time>
      </trkpt>
      <trkpt lat="44.81945" lon="0.84611">
        <ele>192.1</ele>
        <time>2026-05-01T15:06:31.000Z</time>
      </trkpt>
      <trkpt lat="44.81944" lon="0.84612">
        <ele>192.2</ele>
        <time>2026-05-01T15:06:32.000Z</time>
      </trkpt>
      <trkpt lat="44.81942" lon="0.84613">
        <ele>191.6</ele>
        <time>2026-05-01T15:06:33.000Z</time>
      </trkpt>
      <trkpt lat="44.81941" lon="0.84614">
        <ele>191.5</ele>
        <time>2026-05-01T15:06:34.000Z</time>
      </trkpt>
      <trkpt lat="44.81939" lon="0.84615">
        <ele>191.3</ele>
        <time>2026-05-01T15:06:35.000Z</time>
      </trkpt>
      <trkpt lat="44.81937" lon="0.84616">
        <ele>191.8</ele>
        <time>2026-05-01T15:06:36.000Z</time>
      </trkpt>
      <trkpt lat="44.81936" lon="0.84617">
        <ele>192</ele>
        <time>2026-05-01T15:06:37.000Z</time>
      </trkpt>
      <trkpt lat="44.81934" lon="0.84618">
        <ele>191.7</ele>
        <time>2026-05-01T15:06:38.000Z</time>
      </trkpt>
      <trkpt lat="44.81933" lon="0.84618">
        <ele>191.5</ele>
        <time>2026-05-01T15:06:39.000Z</time>
      </trkpt>
      <trkpt lat="44.81931" lon="0.84619">
        <ele>191.3</ele>
        <time>2026-05-01T15:06:40.000Z</time>
      </trkpt>
      <trkpt lat="44.8193" lon="0.8462">
        <ele>191.3</ele>
        <time>2026-05-01T15:06:41.000Z</time>
      </trkpt>
      <trkpt lat="44.81928" lon="0.8462">
        <ele>190.5</ele>
        <time>2026-05-01T15:06:42.000Z</time>
      </trkpt>
      <trkpt lat="44.81927" lon="0.84622">
        <ele>190.2</ele>
        <time>2026-05-01T15:06:43.000Z</time>
      </trkpt>
      <trkpt lat="44.81927" lon="0.84622">
        <ele>190.3</ele>
        <time>2026-05-01T15:06:44.000Z</time>
      </trkpt>
      <trkpt lat="44.81927" lon="0.84622">
        <ele>190</ele>
        <time>2026-05-01T15:06:45.000Z</time>
      </trkpt>
      <trkpt lat="44.81926" lon="0.84623">
        <ele>190.4</ele>
        <time>2026-05-01T15:06:46.000Z</time>
      </trkpt>
      <trkpt lat="44.81924" lon="0.84623">
        <ele>190.7</ele>
        <time>2026-05-01T15:06:47.000Z</time>
      </trkpt>
      <trkpt lat="44.81923" lon="0.84624">
        <ele>191</ele>
        <time>2026-05-01T15:06:48.000Z</time>
      </trkpt>
      <trkpt lat="44.81921" lon="0.84624">
        <ele>190.9</ele>
        <time>2026-05-01T15:06:49.000Z</time>
      </trkpt>
      <trkpt lat="44.8192" lon="0.84625">
        <ele>190.9</ele>
        <time>2026-05-01T15:06:50.000Z</time>
      </trkpt>
      <trkpt lat="44.81918" lon="0.84625">
        <ele>190.7</ele>
        <time>2026-05-01T15:06:51.000Z</time>
      </trkpt>
      <trkpt lat="44.81917" lon="0.84626">
        <ele>190.9</ele>
        <time>2026-05-01T15:06:52.000Z</time>
      </trkpt>
      <trkpt lat="44.81915" lon="0.84627">
        <ele>191.3</ele>
        <time>2026-05-01T15:06:53.000Z</time>
      </trkpt>
      <trkpt lat="44.81914" lon="0.84628">
        <ele>191.1</ele>
        <time>2026-05-01T15:06:54.000Z</time>
      </trkpt>
      <trkpt lat="44.81912" lon="0.84629">
        <ele>190.9</ele>
        <time>2026-05-01T15:06:55.000Z</time>
      </trkpt>
      <trkpt lat="44.8191" lon="0.8463">
        <ele>191.2</ele>
        <time>2026-05-01T15:06:56.000Z</time>
      </trkpt>
      <trkpt lat="44.81908" lon="0.84631">
        <ele>191.4</ele>
        <time>2026-05-01T15:06:57.000Z</time>
      </trkpt>
      <trkpt lat="44.81906" lon="0.84632">
        <ele>191.2</ele>
        <time>2026-05-01T15:06:58.000Z</time>
      </trkpt>
      <trkpt lat="44.81904" lon="0.84633">
        <ele>190.5</ele>
        <time>2026-05-01T15:06:59.000Z</time>
      </trkpt>
      <trkpt lat="44.81902" lon="0.84634">
        <ele>190.9</ele>
        <time>2026-05-01T15:07:00.000Z</time>
      </trkpt>
      <trkpt lat="44.819" lon="0.84635">
        <ele>191</ele>
        <time>2026-05-01T15:07:01.000Z</time>
      </trkpt>
      <trkpt lat="44.81898" lon="0.84636">
        <ele>191.6</ele>
        <time>2026-05-01T15:07:02.000Z</time>
      </trkpt>
      <trkpt lat="44.81897" lon="0.84637">
        <ele>191.4</ele>
        <time>2026-05-01T15:07:03.000Z</time>
      </trkpt>
      <trkpt lat="44.81895" lon="0.84638">
        <ele>191.4</ele>
        <time>2026-05-01T15:07:04.000Z</time>
      </trkpt>
      <trkpt lat="44.81893" lon="0.84638">
        <ele>191.8</ele>
        <time>2026-05-01T15:07:05.000Z</time>
      </trkpt>
      <trkpt lat="44.81892" lon="0.84639">
        <ele>192.1</ele>
        <time>2026-05-01T15:07:06.000Z</time>
      </trkpt>
      <trkpt lat="44.8189" lon="0.8464">
        <ele>192</ele>
        <time>2026-05-01T15:07:07.000Z</time>
      </trkpt>
      <trkpt lat="44.81889" lon="0.84641">
        <ele>191.9</ele>
        <time>2026-05-01T15:07:08.000Z</time>
      </trkpt>
      <trkpt lat="44.81887" lon="0.84642">
        <ele>192.1</ele>
        <time>2026-05-01T15:07:09.000Z</time>
      </trkpt>
      <trkpt lat="44.81885" lon="0.84642">
        <ele>192.2</ele>
        <time>2026-05-01T15:07:10.000Z</time>
      </trkpt>
      <trkpt lat="44.81884" lon="0.84643">
        <ele>192.4</ele>
        <time>2026-05-01T15:07:11.000Z</time>
      </trkpt>
      <trkpt lat="44.81883" lon="0.84644">
        <ele>192.3</ele>
        <time>2026-05-01T15:07:12.000Z</time>
      </trkpt>
      <trkpt lat="44.81881" lon="0.84645">
        <ele>192.5</ele>
        <time>2026-05-01T15:07:13.000Z</time>
      </trkpt>
      <trkpt lat="44.81879" lon="0.84645">
        <ele>192.3</ele>
        <time>2026-05-01T15:07:14.000Z</time>
      </trkpt>
      <trkpt lat="44.81878" lon="0.84646">
        <ele>192.1</ele>
        <time>2026-05-01T15:07:15.000Z</time>
      </trkpt>
      <trkpt lat="44.81876" lon="0.84647">
        <ele>191.6</ele>
        <time>2026-05-01T15:07:16.000Z</time>
      </trkpt>
      <trkpt lat="44.81875" lon="0.84648">
        <ele>191.2</ele>
        <time>2026-05-01T15:07:17.000Z</time>
      </trkpt>
      <trkpt lat="44.81873" lon="0.84649">
        <ele>190.9</ele>
        <time>2026-05-01T15:07:18.000Z</time>
      </trkpt>
      <trkpt lat="44.81872" lon="0.84649">
        <ele>190.7</ele>
        <time>2026-05-01T15:07:19.000Z</time>
      </trkpt>
      <trkpt lat="44.8187" lon="0.8465">
        <ele>190.5</ele>
        <time>2026-05-01T15:07:20.000Z</time>
      </trkpt>
      <trkpt lat="44.81869" lon="0.8465">
        <ele>190.1</ele>
        <time>2026-05-01T15:07:21.000Z</time>
      </trkpt>
      <trkpt lat="44.81868" lon="0.8465">
        <ele>190</ele>
        <time>2026-05-01T15:07:22.000Z</time>
      </trkpt>
      <trkpt lat="44.81866" lon="0.8465">
        <ele>189.9</ele>
        <time>2026-05-01T15:07:23.000Z</time>
      </trkpt>
      <trkpt lat="44.81865" lon="0.84651">
        <ele>190.4</ele>
        <time>2026-05-01T15:07:24.000Z</time>
      </trkpt>
      <trkpt lat="44.81864" lon="0.84652">
        <ele>190.3</ele>
        <time>2026-05-01T15:07:25.000Z</time>
      </trkpt>
      <trkpt lat="44.81862" lon="0.84652">
        <ele>190.4</ele>
        <time>2026-05-01T15:07:26.000Z</time>
      </trkpt>
      <trkpt lat="44.8186" lon="0.84652">
        <ele>190.4</ele>
        <time>2026-05-01T15:07:27.000Z</time>
      </trkpt>
      <trkpt lat="44.81859" lon="0.84653">
        <ele>190.3</ele>
        <time>2026-05-01T15:07:28.000Z</time>
      </trkpt>
      <trkpt lat="44.81857" lon="0.84653">
        <ele>190.4</ele>
        <time>2026-05-01T15:07:29.000Z</time>
      </trkpt>
      <trkpt lat="44.81855" lon="0.84653">
        <ele>190.3</ele>
        <time>2026-05-01T15:07:30.000Z</time>
      </trkpt>
      <trkpt lat="44.81853" lon="0.84653">
        <ele>190.6</ele>
        <time>2026-05-01T15:07:31.000Z</time>
      </trkpt>
      <trkpt lat="44.81852" lon="0.84653">
        <ele>190.9</ele>
        <time>2026-05-01T15:07:32.000Z</time>
      </trkpt>
      <trkpt lat="44.8185" lon="0.84654">
        <ele>190.9</ele>
        <time>2026-05-01T15:07:33.000Z</time>
      </trkpt>
      <trkpt lat="44.81848" lon="0.84654">
        <ele>190.9</ele>
        <time>2026-05-01T15:07:34.000Z</time>
      </trkpt>
      <trkpt lat="44.81847" lon="0.84654">
        <ele>191.1</ele>
        <time>2026-05-01T15:07:35.000Z</time>
      </trkpt>
      <trkpt lat="44.81845" lon="0.84655">
        <ele>191.2</ele>
        <time>2026-05-01T15:07:36.000Z</time>
      </trkpt>
      <trkpt lat="44.81843" lon="0.84655">
        <ele>191.1</ele>
        <time>2026-05-01T15:07:37.000Z</time>
      </trkpt>
      <trkpt lat="44.81841" lon="0.84655">
        <ele>190.8</ele>
        <time>2026-05-01T15:07:38.000Z</time>
      </trkpt>
      <trkpt lat="44.8184" lon="0.84656">
        <ele>190.8</ele>
        <time>2026-05-01T15:07:39.000Z</time>
      </trkpt>
      <trkpt lat="44.81838" lon="0.84656">
        <ele>191</ele>
        <time>2026-05-01T15:07:40.000Z</time>
      </trkpt>
      <trkpt lat="44.81836" lon="0.84656">
        <ele>191.1</ele>
        <time>2026-05-01T15:07:41.000Z</time>
      </trkpt>
      <trkpt lat="44.81835" lon="0.84656">
        <ele>191</ele>
        <time>2026-05-01T15:07:42.000Z</time>
      </trkpt>
      <trkpt lat="44.81833" lon="0.84656">
        <ele>191.2</ele>
        <time>2026-05-01T15:07:43.000Z</time>
      </trkpt>
      <trkpt lat="44.81832" lon="0.84656">
        <ele>191.3</ele>
        <time>2026-05-01T15:07:44.000Z</time>
      </trkpt>
      <trkpt lat="44.8183" lon="0.84656">
        <ele>191.4</ele>
        <time>2026-05-01T15:07:45.000Z</time>
      </trkpt>
      <trkpt lat="44.81828" lon="0.84657">
        <ele>191.3</ele>
        <time>2026-05-01T15:07:46.000Z</time>
      </trkpt>
      <trkpt lat="44.81827" lon="0.84657">
        <ele>191.2</ele>
        <time>2026-05-01T15:07:47.000Z</time>
      </trkpt>
      <trkpt lat="44.81825" lon="0.84657">
        <ele>191.2</ele>
        <time>2026-05-01T15:07:48.000Z</time>
      </trkpt>
      <trkpt lat="44.81824" lon="0.84658">
        <ele>191.2</ele>
        <time>2026-05-01T15:07:49.000Z</time>
      </trkpt>
      <trkpt lat="44.81822" lon="0.84658">
        <ele>191.2</ele>
        <time>2026-05-01T15:07:50.000Z</time>
      </trkpt>
      <trkpt lat="44.8182" lon="0.84659">
        <ele>191.3</ele>
        <time>2026-05-01T15:07:51.000Z</time>
      </trkpt>
      <trkpt lat="44.81819" lon="0.84659">
        <ele>191.4</ele>
        <time>2026-05-01T15:07:52.000Z</time>
      </trkpt>
      <trkpt lat="44.81817" lon="0.8466">
        <ele>191.5</ele>
        <time>2026-05-01T15:07:53.000Z</time>
      </trkpt>
      <trkpt lat="44.81815" lon="0.8466">
        <ele>191.6</ele>
        <time>2026-05-01T15:07:54.000Z</time>
      </trkpt>
      <trkpt lat="44.81814" lon="0.84661">
        <ele>191.6</ele>
        <time>2026-05-01T15:07:55.000Z</time>
      </trkpt>
      <trkpt lat="44.81812" lon="0.84661">
        <ele>191.8</ele>
        <time>2026-05-01T15:07:56.000Z</time>
      </trkpt>
      <trkpt lat="44.8181" lon="0.84662">
        <ele>192</ele>
        <time>2026-05-01T15:07:57.000Z</time>
      </trkpt>
      <trkpt lat="44.81809" lon="0.84662">
        <ele>192.1</ele>
        <time>2026-05-01T15:07:58.000Z</time>
      </trkpt>
      <trkpt lat="44.81807" lon="0.84663">
        <ele>192.2</ele>
        <time>2026-05-01T15:07:59.000Z</time>
      </trkpt>
      <trkpt lat="44.81806" lon="0.84663">
        <ele>192.1</ele>
        <time>2026-05-01T15:08:00.000Z</time>
      </trkpt>
      <trkpt lat="44.81804" lon="0.84664">
        <ele>192.1</ele>
        <time>2026-05-01T15:08:01.000Z</time>
      </trkpt>
      <trkpt lat="44.81803" lon="0.84665">
        <ele>192.2</ele>
        <time>2026-05-01T15:08:02.000Z</time>
      </trkpt>
      <trkpt lat="44.81801" lon="0.84666">
        <ele>192.4</ele>
        <time>2026-05-01T15:08:03.000Z</time>
      </trkpt>
      <trkpt lat="44.818" lon="0.84666">
        <ele>192.3</ele>
        <time>2026-05-01T15:08:04.000Z</time>
      </trkpt>
      <trkpt lat="44.81798" lon="0.84667">
        <ele>192.3</ele>
        <time>2026-05-01T15:08:05.000Z</time>
      </trkpt>
      <trkpt lat="44.81797" lon="0.84668">
        <ele>192.5</ele>
        <time>2026-05-01T15:08:06.000Z</time>
      </trkpt>
      <trkpt lat="44.81795" lon="0.84669">
        <ele>192.6</ele>
        <time>2026-05-01T15:08:07.000Z</time>
      </trkpt>
      <trkpt lat="44.81794" lon="0.8467">
        <ele>192.8</ele>
        <time>2026-05-01T15:08:08.000Z</time>
      </trkpt>
      <trkpt lat="44.81792" lon="0.84671">
        <ele>193</ele>
        <time>2026-05-01T15:08:09.000Z</time>
      </trkpt>
      <trkpt lat="44.8179" lon="0.84672">
        <ele>193.3</ele>
        <time>2026-05-01T15:08:10.000Z</time>
      </trkpt>
      <trkpt lat="44.81789" lon="0.84673">
        <ele>193.2</ele>
        <time>2026-05-01T15:08:11.000Z</time>
      </trkpt>
      <trkpt lat="44.81788" lon="0.84674">
        <ele>193.3</ele>
        <time>2026-05-01T15:08:12.000Z</time>
      </trkpt>
      <trkpt lat="44.81786" lon="0.84676">
        <ele>193.3</ele>
        <time>2026-05-01T15:08:13.000Z</time>
      </trkpt>
      <trkpt lat="44.81785" lon="0.84677">
        <ele>193.3</ele>
        <time>2026-05-01T15:08:14.000Z</time>
      </trkpt>
      <trkpt lat="44.81783" lon="0.84678">
        <ele>193.3</ele>
        <time>2026-05-01T15:08:15.000Z</time>
      </trkpt>
      <trkpt lat="44.81782" lon="0.84679">
        <ele>193.2</ele>
        <time>2026-05-01T15:08:16.000Z</time>
      </trkpt>
      <trkpt lat="44.8178" lon="0.84681">
        <ele>193.1</ele>
        <time>2026-05-01T15:08:17.000Z</time>
      </trkpt>
      <trkpt lat="44.81779" lon="0.84682">
        <ele>193.2</ele>
        <time>2026-05-01T15:08:18.000Z</time>
      </trkpt>
      <trkpt lat="44.81778" lon="0.84683">
        <ele>193.3</ele>
        <time>2026-05-01T15:08:19.000Z</time>
      </trkpt>
      <trkpt lat="44.81777" lon="0.84685">
        <ele>193.1</ele>
        <time>2026-05-01T15:08:20.000Z</time>
      </trkpt>
      <trkpt lat="44.81775" lon="0.84686">
        <ele>193.4</ele>
        <time>2026-05-01T15:08:21.000Z</time>
      </trkpt>
      <trkpt lat="44.81775" lon="0.84689">
        <ele>193.6</ele>
        <time>2026-05-01T15:08:22.000Z</time>
      </trkpt>
      <trkpt lat="44.81772" lon="0.84688">
        <ele>193.6</ele>
        <time>2026-05-01T15:08:23.000Z</time>
      </trkpt>
      <trkpt lat="44.81771" lon="0.8469">
        <ele>193.5</ele>
        <time>2026-05-01T15:08:24.000Z</time>
      </trkpt>
      <trkpt lat="44.8177" lon="0.84691">
        <ele>193.5</ele>
        <time>2026-05-01T15:08:25.000Z</time>
      </trkpt>
      <trkpt lat="44.81768" lon="0.84692">
        <ele>193.1</ele>
        <time>2026-05-01T15:08:26.000Z</time>
      </trkpt>
      <trkpt lat="44.81767" lon="0.84694">
        <ele>193.3</ele>
        <time>2026-05-01T15:08:27.000Z</time>
      </trkpt>
      <trkpt lat="44.81766" lon="0.84695">
        <ele>193.1</ele>
        <time>2026-05-01T15:08:28.000Z</time>
      </trkpt>
      <trkpt lat="44.81765" lon="0.84696">
        <ele>193.4</ele>
        <time>2026-05-01T15:08:29.000Z</time>
      </trkpt>
      <trkpt lat="44.81764" lon="0.84697">
        <ele>193.5</ele>
        <time>2026-05-01T15:08:30.000Z</time>
      </trkpt>
      <trkpt lat="44.81763" lon="0.84699">
        <ele>193.6</ele>
        <time>2026-05-01T15:08:31.000Z</time>
      </trkpt>
      <trkpt lat="44.81761" lon="0.847">
        <ele>193.5</ele>
        <time>2026-05-01T15:08:32.000Z</time>
      </trkpt>
      <trkpt lat="44.8176" lon="0.84702">
        <ele>193.7</ele>
        <time>2026-05-01T15:08:33.000Z</time>
      </trkpt>
      <trkpt lat="44.81759" lon="0.84703">
        <ele>193.9</ele>
        <time>2026-05-01T15:08:34.000Z</time>
      </trkpt>
      <trkpt lat="44.81758" lon="0.84705">
        <ele>194.2</ele>
        <time>2026-05-01T15:08:35.000Z</time>
      </trkpt>
      <trkpt lat="44.81757" lon="0.84706">
        <ele>193.8</ele>
        <time>2026-05-01T15:08:36.000Z</time>
      </trkpt>
      <trkpt lat="44.81755" lon="0.84707">
        <ele>193.4</ele>
        <time>2026-05-01T15:08:37.000Z</time>
      </trkpt>
      <trkpt lat="44.81754" lon="0.84708">
        <ele>193.5</ele>
        <time>2026-05-01T15:08:38.000Z</time>
      </trkpt>
      <trkpt lat="44.81753" lon="0.8471">
        <ele>193.7</ele>
        <time>2026-05-01T15:08:39.000Z</time>
      </trkpt>
      <trkpt lat="44.81752" lon="0.84711">
        <ele>193.7</ele>
        <time>2026-05-01T15:08:40.000Z</time>
      </trkpt>
      <trkpt lat="44.81751" lon="0.84713">
        <ele>194.1</ele>
        <time>2026-05-01T15:08:41.000Z</time>
      </trkpt>
      <trkpt lat="44.8175" lon="0.84714">
        <ele>193.9</ele>
        <time>2026-05-01T15:08:42.000Z</time>
      </trkpt>
      <trkpt lat="44.81748" lon="0.84715">
        <ele>193.7</ele>
        <time>2026-05-01T15:08:43.000Z</time>
      </trkpt>
      <trkpt lat="44.81747" lon="0.84715">
        <ele>193.5</ele>
        <time>2026-05-01T15:08:44.000Z</time>
      </trkpt>
      <trkpt lat="44.81746" lon="0.84716">
        <ele>193.3</ele>
        <time>2026-05-01T15:08:45.000Z</time>
      </trkpt>
      <trkpt lat="44.81744" lon="0.84717">
        <ele>193.3</ele>
        <time>2026-05-01T15:08:46.000Z</time>
      </trkpt>
      <trkpt lat="44.81743" lon="0.84719">
        <ele>193.4</ele>
        <time>2026-05-01T15:08:47.000Z</time>
      </trkpt>
      <trkpt lat="44.81742" lon="0.8472">
        <ele>193.6</ele>
        <time>2026-05-01T15:08:48.000Z</time>
      </trkpt>
      <trkpt lat="44.8174" lon="0.84721">
        <ele>193.6</ele>
        <time>2026-05-01T15:08:49.000Z</time>
      </trkpt>
      <trkpt lat="44.81739" lon="0.84722">
        <ele>193.8</ele>
        <time>2026-05-01T15:08:50.000Z</time>
      </trkpt>
      <trkpt lat="44.81738" lon="0.84723">
        <ele>193.9</ele>
        <time>2026-05-01T15:08:51.000Z</time>
      </trkpt>
      <trkpt lat="44.81736" lon="0.84724">
        <ele>194</ele>
        <time>2026-05-01T15:08:52.000Z</time>
      </trkpt>
      <trkpt lat="44.81735" lon="0.84725">
        <ele>194.2</ele>
        <time>2026-05-01T15:08:53.000Z</time>
      </trkpt>
      <trkpt lat="44.81734" lon="0.84727">
        <ele>194.2</ele>
        <time>2026-05-01T15:08:54.000Z</time>
      </trkpt>
      <trkpt lat="44.81733" lon="0.84728">
        <ele>194</ele>
        <time>2026-05-01T15:08:55.000Z</time>
      </trkpt>
      <trkpt lat="44.81733" lon="0.8473">
        <ele>194.7</ele>
        <time>2026-05-01T15:08:56.000Z</time>
      </trkpt>
      <trkpt lat="44.81733" lon="0.84733">
        <ele>194.8</ele>
        <time>2026-05-01T15:08:57.000Z</time>
      </trkpt>
      <trkpt lat="44.81733" lon="0.84735">
        <ele>195.5</ele>
        <time>2026-05-01T15:08:58.000Z</time>
      </trkpt>
      <trkpt lat="44.81732" lon="0.84737">
        <ele>195.7</ele>
        <time>2026-05-01T15:08:59.000Z</time>
      </trkpt>
      <trkpt lat="44.8173" lon="0.84738">
        <ele>195.6</ele>
        <time>2026-05-01T15:09:00.000Z</time>
      </trkpt>
      <trkpt lat="44.81729" lon="0.8474">
        <ele>195.7</ele>
        <time>2026-05-01T15:09:01.000Z</time>
      </trkpt>
      <trkpt lat="44.81728" lon="0.84741">
        <ele>196.1</ele>
        <time>2026-05-01T15:09:02.000Z</time>
      </trkpt>
      <trkpt lat="44.81726" lon="0.84742">
        <ele>196.1</ele>
        <time>2026-05-01T15:09:03.000Z</time>
      </trkpt>
      <trkpt lat="44.81725" lon="0.84744">
        <ele>196.2</ele>
        <time>2026-05-01T15:09:04.000Z</time>
      </trkpt>
      <trkpt lat="44.81724" lon="0.84745">
        <ele>195.3</ele>
        <time>2026-05-01T15:09:05.000Z</time>
      </trkpt>
      <trkpt lat="44.81722" lon="0.84746">
        <ele>195.6</ele>
        <time>2026-05-01T15:09:06.000Z</time>
      </trkpt>
      <trkpt lat="44.81721" lon="0.84747">
        <ele>194.6</ele>
        <time>2026-05-01T15:09:07.000Z</time>
      </trkpt>
      <trkpt lat="44.8172" lon="0.84748">
        <ele>194.2</ele>
        <time>2026-05-01T15:09:08.000Z</time>
      </trkpt>
      <trkpt lat="44.81718" lon="0.84749">
        <ele>193.6</ele>
        <time>2026-05-01T15:09:09.000Z</time>
      </trkpt>
      <trkpt lat="44.81717" lon="0.8475">
        <ele>193.8</ele>
        <time>2026-05-01T15:09:10.000Z</time>
      </trkpt>
      <trkpt lat="44.81716" lon="0.84752">
        <ele>193</ele>
        <time>2026-05-01T15:09:11.000Z</time>
      </trkpt>
      <trkpt lat="44.81716" lon="0.84754">
        <ele>192.9</ele>
        <time>2026-05-01T15:09:12.000Z</time>
      </trkpt>
      <trkpt lat="44.81715" lon="0.84756">
        <ele>194</ele>
        <time>2026-05-01T15:09:13.000Z</time>
      </trkpt>
      <trkpt lat="44.81714" lon="0.84758">
        <ele>193.7</ele>
        <time>2026-05-01T15:09:14.000Z</time>
      </trkpt>
      <trkpt lat="44.81713" lon="0.84759">
        <ele>194</ele>
        <time>2026-05-01T15:09:15.000Z</time>
      </trkpt>
      <trkpt lat="44.81711" lon="0.84761">
        <ele>193.7</ele>
        <time>2026-05-01T15:09:16.000Z</time>
      </trkpt>
      <trkpt lat="44.8171" lon="0.84763">
        <ele>193.5</ele>
        <time>2026-05-01T15:09:17.000Z</time>
      </trkpt>
      <trkpt lat="44.81708" lon="0.84764">
        <ele>193.6</ele>
        <time>2026-05-01T15:09:18.000Z</time>
      </trkpt>
      <trkpt lat="44.81706" lon="0.84765">
        <ele>193.4</ele>
        <time>2026-05-01T15:09:19.000Z</time>
      </trkpt>
      <trkpt lat="44.81704" lon="0.84767">
        <ele>193.5</ele>
        <time>2026-05-01T15:09:20.000Z</time>
      </trkpt>
      <trkpt lat="44.81702" lon="0.84769">
        <ele>193.3</ele>
        <time>2026-05-01T15:09:21.000Z</time>
      </trkpt>
      <trkpt lat="44.817" lon="0.84771">
        <ele>193.6</ele>
        <time>2026-05-01T15:09:22.000Z</time>
      </trkpt>
      <trkpt lat="44.81698" lon="0.84774">
        <ele>194.3</ele>
        <time>2026-05-01T15:09:23.000Z</time>
      </trkpt>
      <trkpt lat="44.81697" lon="0.84776">
        <ele>194.5</ele>
        <time>2026-05-01T15:09:24.000Z</time>
      </trkpt>
      <trkpt lat="44.81695" lon="0.84777">
        <ele>193.5</ele>
        <time>2026-05-01T15:09:25.000Z</time>
      </trkpt>
      <trkpt lat="44.81693" lon="0.84777">
        <ele>193.8</ele>
        <time>2026-05-01T15:09:26.000Z</time>
      </trkpt>
      <trkpt lat="44.81692" lon="0.84778">
        <ele>193.7</ele>
        <time>2026-05-01T15:09:27.000Z</time>
      </trkpt>
      <trkpt lat="44.8169" lon="0.84778">
        <ele>193.4</ele>
        <time>2026-05-01T15:09:28.000Z</time>
      </trkpt>
      <trkpt lat="44.81689" lon="0.84779">
        <ele>193.5</ele>
        <time>2026-05-01T15:09:29.000Z</time>
      </trkpt>
      <trkpt lat="44.81688" lon="0.8478">
        <ele>193.6</ele>
        <time>2026-05-01T15:09:30.000Z</time>
      </trkpt>
      <trkpt lat="44.81686" lon="0.84782">
        <ele>194</ele>
        <time>2026-05-01T15:09:31.000Z</time>
      </trkpt>
      <trkpt lat="44.81685" lon="0.84783">
        <ele>194.1</ele>
        <time>2026-05-01T15:09:32.000Z</time>
      </trkpt>
      <trkpt lat="44.81683" lon="0.84784">
        <ele>194</ele>
        <time>2026-05-01T15:09:33.000Z</time>
      </trkpt>
      <trkpt lat="44.81682" lon="0.84785">
        <ele>193.7</ele>
        <time>2026-05-01T15:09:34.000Z</time>
      </trkpt>
      <trkpt lat="44.8168" lon="0.84787">
        <ele>193.8</ele>
        <time>2026-05-01T15:09:35.000Z</time>
      </trkpt>
      <trkpt lat="44.81678" lon="0.84788">
        <ele>192.8</ele>
        <time>2026-05-01T15:09:36.000Z</time>
      </trkpt>
      <trkpt lat="44.81676" lon="0.84789">
        <ele>192.8</ele>
        <time>2026-05-01T15:09:37.000Z</time>
      </trkpt>
      <trkpt lat="44.81674" lon="0.8479">
        <ele>192.7</ele>
        <time>2026-05-01T15:09:38.000Z</time>
      </trkpt>
      <trkpt lat="44.81672" lon="0.8479">
        <ele>192.8</ele>
        <time>2026-05-01T15:09:39.000Z</time>
      </trkpt>
      <trkpt lat="44.81671" lon="0.84791">
        <ele>192.3</ele>
        <time>2026-05-01T15:09:40.000Z</time>
      </trkpt>
      <trkpt lat="44.8167" lon="0.84791">
        <ele>191.4</ele>
        <time>2026-05-01T15:09:41.000Z</time>
      </trkpt>
      <trkpt lat="44.81668" lon="0.84792">
        <ele>191.6</ele>
        <time>2026-05-01T15:09:42.000Z</time>
      </trkpt>
      <trkpt lat="44.81667" lon="0.84793">
        <ele>191.9</ele>
        <time>2026-05-01T15:09:43.000Z</time>
      </trkpt>
      <trkpt lat="44.81665" lon="0.84794">
        <ele>192.5</ele>
        <time>2026-05-01T15:09:44.000Z</time>
      </trkpt>
      <trkpt lat="44.81662" lon="0.84795">
        <ele>192.8</ele>
        <time>2026-05-01T15:09:45.000Z</time>
      </trkpt>
      <trkpt lat="44.8166" lon="0.84796">
        <ele>192.2</ele>
        <time>2026-05-01T15:09:46.000Z</time>
      </trkpt>
      <trkpt lat="44.81658" lon="0.84798">
        <ele>192.3</ele>
        <time>2026-05-01T15:09:47.000Z</time>
      </trkpt>
      <trkpt lat="44.81655" lon="0.848">
        <ele>193.5</ele>
        <time>2026-05-01T15:09:48.000Z</time>
      </trkpt>
      <trkpt lat="44.81653" lon="0.848">
        <ele>194.9</ele>
        <time>2026-05-01T15:09:49.000Z</time>
      </trkpt>
      <trkpt lat="44.8165" lon="0.84801">
        <ele>195.2</ele>
        <time>2026-05-01T15:09:50.000Z</time>
      </trkpt>
      <trkpt lat="44.81647" lon="0.84802">
        <ele>196</ele>
        <time>2026-05-01T15:09:51.000Z</time>
      </trkpt>
      <trkpt lat="44.81644" lon="0.84803">
        <ele>196.2</ele>
        <time>2026-05-01T15:09:52.000Z</time>
      </trkpt>
      <trkpt lat="44.81641" lon="0.84803">
        <ele>196.3</ele>
        <time>2026-05-01T15:09:53.000Z</time>
      </trkpt>
      <trkpt lat="44.81638" lon="0.84803">
        <ele>195.1</ele>
        <time>2026-05-01T15:09:54.000Z</time>
      </trkpt>
      <trkpt lat="44.81635" lon="0.84803">
        <ele>194.8</ele>
        <time>2026-05-01T15:09:55.000Z</time>
      </trkpt>
      <trkpt lat="44.81632" lon="0.84803">
        <ele>194.6</ele>
        <time>2026-05-01T15:09:56.000Z</time>
      </trkpt>
      <trkpt lat="44.8163" lon="0.84803">
        <ele>194.8</ele>
        <time>2026-05-01T15:09:57.000Z</time>
      </trkpt>
      <trkpt lat="44.81626" lon="0.84805">
        <ele>195.2</ele>
        <time>2026-05-01T15:09:58.000Z</time>
      </trkpt>
      <trkpt lat="44.81623" lon="0.84806">
        <ele>195.6</ele>
        <time>2026-05-01T15:09:59.000Z</time>
      </trkpt>
      <trkpt lat="44.81619" lon="0.84807">
        <ele>196.4</ele>
        <time>2026-05-01T15:10:00.000Z</time>
      </trkpt>
      <trkpt lat="44.81616" lon="0.84809">
        <ele>197.1</ele>
        <time>2026-05-01T15:10:01.000Z</time>
      </trkpt>
      <trkpt lat="44.81612" lon="0.8481">
        <ele>198</ele>
        <time>2026-05-01T15:10:02.000Z</time>
      </trkpt>
      <trkpt lat="44.81609" lon="0.84811">
        <ele>198.5</ele>
        <time>2026-05-01T15:10:03.000Z</time>
      </trkpt>
      <trkpt lat="44.81605" lon="0.84813">
        <ele>198.5</ele>
        <time>2026-05-01T15:10:04.000Z</time>
      </trkpt>
      <trkpt lat="44.816" lon="0.84815">
        <ele>198.4</ele>
        <time>2026-05-01T15:10:05.000Z</time>
      </trkpt>
      <trkpt lat="44.81597" lon="0.84819">
        <ele>199.1</ele>
        <time>2026-05-01T15:10:06.000Z</time>
      </trkpt>
      <trkpt lat="44.81593" lon="0.84823">
        <ele>198.5</ele>
        <time>2026-05-01T15:10:07.000Z</time>
      </trkpt>
      <trkpt lat="44.81588" lon="0.84827">
        <ele>198.1</ele>
        <time>2026-05-01T15:10:08.000Z</time>
      </trkpt>
      <trkpt lat="44.81584" lon="0.84831">
        <ele>198.8</ele>
        <time>2026-05-01T15:10:09.000Z</time>
      </trkpt>
      <trkpt lat="44.81579" lon="0.84833">
        <ele>198.9</ele>
        <time>2026-05-01T15:10:10.000Z</time>
      </trkpt>
      <trkpt lat="44.81575" lon="0.84835">
        <ele>198.8</ele>
        <time>2026-05-01T15:10:11.000Z</time>
      </trkpt>
      <trkpt lat="44.81571" lon="0.84838">
        <ele>198.6</ele>
        <time>2026-05-01T15:10:12.000Z</time>
      </trkpt>
      <trkpt lat="44.81567" lon="0.84841">
        <ele>198.5</ele>
        <time>2026-05-01T15:10:13.000Z</time>
      </trkpt>
      <trkpt lat="44.81563" lon="0.84844">
        <ele>198.5</ele>
        <time>2026-05-01T15:10:14.000Z</time>
      </trkpt>
      <trkpt lat="44.81559" lon="0.84848">
        <ele>199.2</ele>
        <time>2026-05-01T15:10:15.000Z</time>
      </trkpt>
      <trkpt lat="44.81556" lon="0.84851">
        <ele>199.7</ele>
        <time>2026-05-01T15:10:16.000Z</time>
      </trkpt>
      <trkpt lat="44.81552" lon="0.84854">
        <ele>199.4</ele>
        <time>2026-05-01T15:10:17.000Z</time>
      </trkpt>
      <trkpt lat="44.81548" lon="0.84857">
        <ele>199.5</ele>
        <time>2026-05-01T15:10:18.000Z</time>
      </trkpt>
      <trkpt lat="44.81543" lon="0.84861">
        <ele>200.3</ele>
        <time>2026-05-01T15:10:19.000Z</time>
      </trkpt>
      <trkpt lat="44.81538" lon="0.84865">
        <ele>200.7</ele>
        <time>2026-05-01T15:10:20.000Z</time>
      </trkpt>
      <trkpt lat="44.81533" lon="0.84868">
        <ele>200.4</ele>
        <time>2026-05-01T15:10:21.000Z</time>
      </trkpt>
      <trkpt lat="44.81528" lon="0.84873">
        <ele>202</ele>
        <time>2026-05-01T15:10:22.000Z</time>
      </trkpt>
      <trkpt lat="44.81523" lon="0.84877">
        <ele>202.5</ele>
        <time>2026-05-01T15:10:23.000Z</time>
      </trkpt>
      <trkpt lat="44.81519" lon="0.84881">
        <ele>202.9</ele>
        <time>2026-05-01T15:10:24.000Z</time>
      </trkpt>
      <trkpt lat="44.81515" lon="0.84885">
        <ele>202.9</ele>
        <time>2026-05-01T15:10:25.000Z</time>
      </trkpt>
      <trkpt lat="44.81511" lon="0.84888">
        <ele>203.2</ele>
        <time>2026-05-01T15:10:26.000Z</time>
      </trkpt>
      <trkpt lat="44.81506" lon="0.84892">
        <ele>203.4</ele>
        <time>2026-05-01T15:10:27.000Z</time>
      </trkpt>
      <trkpt lat="44.81502" lon="0.84896">
        <ele>203.1</ele>
        <time>2026-05-01T15:10:28.000Z</time>
      </trkpt>
      <trkpt lat="44.81498" lon="0.84898">
        <ele>203.3</ele>
        <time>2026-05-01T15:10:29.000Z</time>
      </trkpt>
      <trkpt lat="44.81494" lon="0.84899">
        <ele>203.8</ele>
        <time>2026-05-01T15:10:30.000Z</time>
      </trkpt>
      <trkpt lat="44.8149" lon="0.84901">
        <ele>204</ele>
        <time>2026-05-01T15:10:31.000Z</time>
      </trkpt>
      <trkpt lat="44.81486" lon="0.84903">
        <ele>203.2</ele>
        <time>2026-05-01T15:10:32.000Z</time>
      </trkpt>
      <trkpt lat="44.81481" lon="0.84907">
        <ele>202.6</ele>
        <time>2026-05-01T15:10:33.000Z</time>
      </trkpt>
      <trkpt lat="44.81476" lon="0.8491">
        <ele>202.6</ele>
        <time>2026-05-01T15:10:34.000Z</time>
      </trkpt>
      <trkpt lat="44.81471" lon="0.84914">
        <ele>203.1</ele>
        <time>2026-05-01T15:10:35.000Z</time>
      </trkpt>
      <trkpt lat="44.81465" lon="0.84918">
        <ele>203.4</ele>
        <time>2026-05-01T15:10:36.000Z</time>
      </trkpt>
      <trkpt lat="44.8146" lon="0.84921">
        <ele>203.8</ele>
        <time>2026-05-01T15:10:37.000Z</time>
      </trkpt>
      <trkpt lat="44.81455" lon="0.84925">
        <ele>204.6</ele>
        <time>2026-05-01T15:10:38.000Z</time>
      </trkpt>
      <trkpt lat="44.81452" lon="0.84927">
        <ele>202.8</ele>
        <time>2026-05-01T15:10:39.000Z</time>
      </trkpt>
      <trkpt lat="44.81448" lon="0.84927">
        <ele>202.5</ele>
        <time>2026-05-01T15:10:40.000Z</time>
      </trkpt>
      <trkpt lat="44.81444" lon="0.84927">
        <ele>202.4</ele>
        <time>2026-05-01T15:10:41.000Z</time>
      </trkpt>
      <trkpt lat="44.81438" lon="0.84928">
        <ele>202.2</ele>
        <time>2026-05-01T15:10:42.000Z</time>
      </trkpt>
      <trkpt lat="44.81433" lon="0.84928">
        <ele>202.6</ele>
        <time>2026-05-01T15:10:43.000Z</time>
      </trkpt>
      <trkpt lat="44.81427" lon="0.84929">
        <ele>204.3</ele>
        <time>2026-05-01T15:10:44.000Z</time>
      </trkpt>
      <trkpt lat="44.8142" lon="0.8493">
        <ele>204.8</ele>
        <time>2026-05-01T15:10:45.000Z</time>
      </trkpt>
      <trkpt lat="44.81415" lon="0.8493">
        <ele>204.9</ele>
        <time>2026-05-01T15:10:46.000Z</time>
      </trkpt>
      <trkpt lat="44.81409" lon="0.8493">
        <ele>204.5</ele>
        <time>2026-05-01T15:10:47.000Z</time>
      </trkpt>
      <trkpt lat="44.81404" lon="0.8493">
        <ele>203.5</ele>
        <time>2026-05-01T15:10:48.000Z</time>
      </trkpt>
      <trkpt lat="44.81398" lon="0.84931">
        <ele>205.6</ele>
        <time>2026-05-01T15:10:49.000Z</time>
      </trkpt>
      <trkpt lat="44.81391" lon="0.84934">
        <ele>205.6</ele>
        <time>2026-05-01T15:10:50.000Z</time>
      </trkpt>
      <trkpt lat="44.81385" lon="0.84936">
        <ele>205.9</ele>
        <time>2026-05-01T15:10:51.000Z</time>
      </trkpt>
      <trkpt lat="44.81379" lon="0.84937">
        <ele>206.6</ele>
        <time>2026-05-01T15:10:52.000Z</time>
      </trkpt>
      <trkpt lat="44.81373" lon="0.84938">
        <ele>206.5</ele>
        <time>2026-05-01T15:10:53.000Z</time>
      </trkpt>
      <trkpt lat="44.81368" lon="0.84948">
        <ele>204.6</ele>
        <time>2026-05-01T15:10:54.000Z</time>
      </trkpt>
      <trkpt lat="44.81364" lon="0.84957">
        <ele>203.8</ele>
        <time>2026-05-01T15:10:55.000Z</time>
      </trkpt>
      <trkpt lat="44.81359" lon="0.84956">
        <ele>204.4</ele>
        <time>2026-05-01T15:10:56.000Z</time>
      </trkpt>
      <trkpt lat="44.81357" lon="0.84962">
        <ele>204</ele>
        <time>2026-05-01T15:10:57.000Z</time>
      </trkpt>
      <trkpt lat="44.81354" lon="0.84969">
        <ele>203.7</ele>
        <time>2026-05-01T15:10:58.000Z</time>
      </trkpt>
      <trkpt lat="44.8135" lon="0.84971">
        <ele>204</ele>
        <time>2026-05-01T15:10:59.000Z</time>
      </trkpt>
      <trkpt lat="44.81346" lon="0.84972">
        <ele>203.8</ele>
        <time>2026-05-01T15:11:00.000Z</time>
      </trkpt>
      <trkpt lat="44.81341" lon="0.8497">
        <ele>206.3</ele>
        <time>2026-05-01T15:11:01.000Z</time>
      </trkpt>
      <trkpt lat="44.81335" lon="0.8496">
        <ele>205.7</ele>
        <time>2026-05-01T15:11:02.000Z</time>
      </trkpt>
      <trkpt lat="44.81332" lon="0.84953">
        <ele>206.2</ele>
        <time>2026-05-01T15:11:03.000Z</time>
      </trkpt>
      <trkpt lat="44.81329" lon="0.84948">
        <ele>206</ele>
        <time>2026-05-01T15:11:04.000Z</time>
      </trkpt>
      <trkpt lat="44.81325" lon="0.84946">
        <ele>209.4</ele>
        <time>2026-05-01T15:11:05.000Z</time>
      </trkpt>
      <trkpt lat="44.81321" lon="0.84945">
        <ele>209.9</ele>
        <time>2026-05-01T15:11:06.000Z</time>
      </trkpt>
      <trkpt lat="44.81318" lon="0.84943">
        <ele>210.4</ele>
        <time>2026-05-01T15:11:07.000Z</time>
      </trkpt>
      <trkpt lat="44.81315" lon="0.84943">
        <ele>211.4</ele>
        <time>2026-05-01T15:11:08.000Z</time>
      </trkpt>
      <trkpt lat="44.81314" lon="0.84944">
        <ele>209</ele>
        <time>2026-05-01T15:11:09.000Z</time>
      </trkpt>
      <trkpt lat="44.81312" lon="0.84945">
        <ele>209.6</ele>
        <time>2026-05-01T15:11:10.000Z</time>
      </trkpt>
      <trkpt lat="44.8131" lon="0.84945">
        <ele>211.3</ele>
        <time>2026-05-01T15:11:11.000Z</time>
      </trkpt>
      <trkpt lat="44.81308" lon="0.84946">
        <ele>212</ele>
        <time>2026-05-01T15:11:12.000Z</time>
      </trkpt>
      <trkpt lat="44.81305" lon="0.84946">
        <ele>212.6</ele>
        <time>2026-05-01T15:11:13.000Z</time>
      </trkpt>
      <trkpt lat="44.81303" lon="0.84946">
        <ele>213.3</ele>
        <time>2026-05-01T15:11:14.000Z</time>
      </trkpt>
      <trkpt lat="44.81301" lon="0.84947">
        <ele>212.9</ele>
        <time>2026-05-01T15:11:15.000Z</time>
      </trkpt>
      <trkpt lat="44.81299" lon="0.84949">
        <ele>213.5</ele>
        <time>2026-05-01T15:11:16.000Z</time>
      </trkpt>
      <trkpt lat="44.81297" lon="0.8495">
        <ele>213.7</ele>
        <time>2026-05-01T15:11:17.000Z</time>
      </trkpt>
      <trkpt lat="44.81294" lon="0.8495">
        <ele>213.9</ele>
        <time>2026-05-01T15:11:18.000Z</time>
      </trkpt>
      <trkpt lat="44.81292" lon="0.8495">
        <ele>214.6</ele>
        <time>2026-05-01T15:11:19.000Z</time>
      </trkpt>
      <trkpt lat="44.8129" lon="0.84949">
        <ele>215</ele>
        <time>2026-05-01T15:11:20.000Z</time>
      </trkpt>
      <trkpt lat="44.81288" lon="0.84949">
        <ele>215.7</ele>
        <time>2026-05-01T15:11:21.000Z</time>
      </trkpt>
      <trkpt lat="44.81286" lon="0.84949">
        <ele>216.3</ele>
        <time>2026-05-01T15:11:22.000Z</time>
      </trkpt>
      <trkpt lat="44.81284" lon="0.84949">
        <ele>215.4</ele>
        <time>2026-05-01T15:11:23.000Z</time>
      </trkpt>
      <trkpt lat="44.81282" lon="0.84949">
        <ele>215.5</ele>
        <time>2026-05-01T15:11:24.000Z</time>
      </trkpt>
      <trkpt lat="44.81281" lon="0.84949">
        <ele>214.5</ele>
        <time>2026-05-01T15:11:25.000Z</time>
      </trkpt>
      <trkpt lat="44.81279" lon="0.8495">
        <ele>215</ele>
        <time>2026-05-01T15:11:26.000Z</time>
      </trkpt>
      <trkpt lat="44.81277" lon="0.84949">
        <ele>215</ele>
        <time>2026-05-01T15:11:27.000Z</time>
      </trkpt>
      <trkpt lat="44.81275" lon="0.84949">
        <ele>215</ele>
        <time>2026-05-01T15:11:28.000Z</time>
      </trkpt>
      <trkpt lat="44.81273" lon="0.84948">
        <ele>215.2</ele>
        <time>2026-05-01T15:11:29.000Z</time>
      </trkpt>
      <trkpt lat="44.81272" lon="0.84947">
        <ele>213.7</ele>
        <time>2026-05-01T15:11:30.000Z</time>
      </trkpt>
      <trkpt lat="44.81271" lon="0.84947">
        <ele>213.3</ele>
        <time>2026-05-01T15:11:31.000Z</time>
      </trkpt>
      <trkpt lat="44.8127" lon="0.84947">
        <ele>212.3</ele>
        <time>2026-05-01T15:11:32.000Z</time>
      </trkpt>
      <trkpt lat="44.81269" lon="0.84947">
        <ele>212.3</ele>
        <time>2026-05-01T15:11:33.000Z</time>
      </trkpt>
      <trkpt lat="44.81267" lon="0.84947">
        <ele>212.5</ele>
        <time>2026-05-01T15:11:34.000Z</time>
      </trkpt>
      <trkpt lat="44.81265" lon="0.84946">
        <ele>212.2</ele>
        <time>2026-05-01T15:11:35.000Z</time>
      </trkpt>
      <trkpt lat="44.81263" lon="0.84946">
        <ele>212.9</ele>
        <time>2026-05-01T15:11:36.000Z</time>
      </trkpt>
      <trkpt lat="44.81261" lon="0.84945">
        <ele>213.1</ele>
        <time>2026-05-01T15:11:37.000Z</time>
      </trkpt>
      <trkpt lat="44.81259" lon="0.84945">
        <ele>213.8</ele>
        <time>2026-05-01T15:11:38.000Z</time>
      </trkpt>
      <trkpt lat="44.81257" lon="0.84944">
        <ele>213.8</ele>
        <time>2026-05-01T15:11:39.000Z</time>
      </trkpt>
      <trkpt lat="44.81255" lon="0.84944">
        <ele>214.1</ele>
        <time>2026-05-01T15:11:40.000Z</time>
      </trkpt>
      <trkpt lat="44.81253" lon="0.84944">
        <ele>214.6</ele>
        <time>2026-05-01T15:11:41.000Z</time>
      </trkpt>
      <trkpt lat="44.81251" lon="0.84944">
        <ele>214.8</ele>
        <time>2026-05-01T15:11:42.000Z</time>
      </trkpt>
      <trkpt lat="44.81249" lon="0.84942">
        <ele>214.3</ele>
        <time>2026-05-01T15:11:43.000Z</time>
      </trkpt>
      <trkpt lat="44.81247" lon="0.84941">
        <ele>214.5</ele>
        <time>2026-05-01T15:11:44.000Z</time>
      </trkpt>
      <trkpt lat="44.81246" lon="0.84941">
        <ele>215.1</ele>
        <time>2026-05-01T15:11:45.000Z</time>
      </trkpt>
      <trkpt lat="44.81244" lon="0.84941">
        <ele>215</ele>
        <time>2026-05-01T15:11:46.000Z</time>
      </trkpt>
      <trkpt lat="44.81242" lon="0.8494">
        <ele>214.9</ele>
        <time>2026-05-01T15:11:47.000Z</time>
      </trkpt>
      <trkpt lat="44.8124" lon="0.84939">
        <ele>215</ele>
        <time>2026-05-01T15:11:48.000Z</time>
      </trkpt>
      <trkpt lat="44.81238" lon="0.84939">
        <ele>215.4</ele>
        <time>2026-05-01T15:11:49.000Z</time>
      </trkpt>
      <trkpt lat="44.81236" lon="0.84938">
        <ele>215.5</ele>
        <time>2026-05-01T15:11:50.000Z</time>
      </trkpt>
      <trkpt lat="44.81235" lon="0.84938">
        <ele>216.1</ele>
        <time>2026-05-01T15:11:51.000Z</time>
      </trkpt>
      <trkpt lat="44.81234" lon="0.84937">
        <ele>215.3</ele>
        <time>2026-05-01T15:11:52.000Z</time>
      </trkpt>
      <trkpt lat="44.81232" lon="0.84936">
        <ele>215.3</ele>
        <time>2026-05-01T15:11:53.000Z</time>
      </trkpt>
      <trkpt lat="44.81231" lon="0.84935">
        <ele>215.2</ele>
        <time>2026-05-01T15:11:54.000Z</time>
      </trkpt>
      <trkpt lat="44.81229" lon="0.84934">
        <ele>214.9</ele>
        <time>2026-05-01T15:11:55.000Z</time>
      </trkpt>
      <trkpt lat="44.81228" lon="0.84934">
        <ele>214.6</ele>
        <time>2026-05-01T15:11:56.000Z</time>
      </trkpt>
      <trkpt lat="44.81226" lon="0.84933">
        <ele>214.8</ele>
        <time>2026-05-01T15:11:57.000Z</time>
      </trkpt>
      <trkpt lat="44.81225" lon="0.84932">
        <ele>214.7</ele>
        <time>2026-05-01T15:11:58.000Z</time>
      </trkpt>
      <trkpt lat="44.81223" lon="0.84932">
        <ele>214.8</ele>
        <time>2026-05-01T15:11:59.000Z</time>
      </trkpt>
      <trkpt lat="44.81222" lon="0.84931">
        <ele>214.7</ele>
        <time>2026-05-01T15:12:00.000Z</time>
      </trkpt>
      <trkpt lat="44.81221" lon="0.8493">
        <ele>215</ele>
        <time>2026-05-01T15:12:01.000Z</time>
      </trkpt>
      <trkpt lat="44.81219" lon="0.84929">
        <ele>214.6</ele>
        <time>2026-05-01T15:12:02.000Z</time>
      </trkpt>
      <trkpt lat="44.81218" lon="0.84929">
        <ele>214.5</ele>
        <time>2026-05-01T15:12:03.000Z</time>
      </trkpt>
      <trkpt lat="44.81217" lon="0.84928">
        <ele>214.3</ele>
        <time>2026-05-01T15:12:04.000Z</time>
      </trkpt>
      <trkpt lat="44.81215" lon="0.84927">
        <ele>214.4</ele>
        <time>2026-05-01T15:12:05.000Z</time>
      </trkpt>
      <trkpt lat="44.81214" lon="0.84926">
        <ele>214.3</ele>
        <time>2026-05-01T15:12:06.000Z</time>
      </trkpt>
      <trkpt lat="44.81212" lon="0.84926">
        <ele>213.9</ele>
        <time>2026-05-01T15:12:07.000Z</time>
      </trkpt>
      <trkpt lat="44.81211" lon="0.84926">
        <ele>213.3</ele>
        <time>2026-05-01T15:12:08.000Z</time>
      </trkpt>
      <trkpt lat="44.8121" lon="0.84925">
        <ele>213.5</ele>
        <time>2026-05-01T15:12:09.000Z</time>
      </trkpt>
      <trkpt lat="44.81208" lon="0.84923">
        <ele>214.1</ele>
        <time>2026-05-01T15:12:10.000Z</time>
      </trkpt>
      <trkpt lat="44.81207" lon="0.84921">
        <ele>213.4</ele>
        <time>2026-05-01T15:12:11.000Z</time>
      </trkpt>
      <trkpt lat="44.81206" lon="0.8492">
        <ele>212.9</ele>
        <time>2026-05-01T15:12:12.000Z</time>
      </trkpt>
      <trkpt lat="44.81206" lon="0.84918">
        <ele>213.5</ele>
        <time>2026-05-01T15:12:13.000Z</time>
      </trkpt>
      <trkpt lat="44.81205" lon="0.84916">
        <ele>213.5</ele>
        <time>2026-05-01T15:12:14.000Z</time>
      </trkpt>
      <trkpt lat="44.81205" lon="0.84915">
        <ele>213.9</ele>
        <time>2026-05-01T15:12:15.000Z</time>
      </trkpt>
      <trkpt lat="44.81205" lon="0.84913">
        <ele>215.7</ele>
        <time>2026-05-01T15:12:16.000Z</time>
      </trkpt>
      <trkpt lat="44.81205" lon="0.84911">
        <ele>216.3</ele>
        <time>2026-05-01T15:12:17.000Z</time>
      </trkpt>
      <trkpt lat="44.81205" lon="0.8491">
        <ele>214.4</ele>
        <time>2026-05-01T15:12:18.000Z</time>
      </trkpt>
      <trkpt lat="44.81205" lon="0.84908">
        <ele>214.3</ele>
        <time>2026-05-01T15:12:19.000Z</time>
      </trkpt>
      <trkpt lat="44.81206" lon="0.84907">
        <ele>213.4</ele>
        <time>2026-05-01T15:12:20.000Z</time>
      </trkpt>
      <trkpt lat="44.81207" lon="0.84906">
        <ele>213</ele>
        <time>2026-05-01T15:12:21.000Z</time>
      </trkpt>
      <trkpt lat="44.81208" lon="0.84905">
        <ele>212.5</ele>
        <time>2026-05-01T15:12:22.000Z</time>
      </trkpt>
      <trkpt lat="44.81209" lon="0.84904">
        <ele>212.2</ele>
        <time>2026-05-01T15:12:23.000Z</time>
      </trkpt>
      <trkpt lat="44.8121" lon="0.84902">
        <ele>211.4</ele>
        <time>2026-05-01T15:12:24.000Z</time>
      </trkpt>
      <trkpt lat="44.81211" lon="0.84902">
        <ele>211.2</ele>
        <time>2026-05-01T15:12:25.000Z</time>
      </trkpt>
      <trkpt lat="44.81212" lon="0.84901">
        <ele>210.7</ele>
        <time>2026-05-01T15:12:26.000Z</time>
      </trkpt>
      <trkpt lat="44.81213" lon="0.84899">
        <ele>210.2</ele>
        <time>2026-05-01T15:12:27.000Z</time>
      </trkpt>
      <trkpt lat="44.81214" lon="0.84898">
        <ele>209.7</ele>
        <time>2026-05-01T15:12:28.000Z</time>
      </trkpt>
      <trkpt lat="44.81216" lon="0.84897">
        <ele>209.8</ele>
        <time>2026-05-01T15:12:29.000Z</time>
      </trkpt>
      <trkpt lat="44.81216" lon="0.84895">
        <ele>210.1</ele>
        <time>2026-05-01T15:12:30.000Z</time>
      </trkpt>
      <trkpt lat="44.81217" lon="0.84893">
        <ele>209.8</ele>
        <time>2026-05-01T15:12:31.000Z</time>
      </trkpt>
      <trkpt lat="44.81218" lon="0.84891">
        <ele>209.3</ele>
        <time>2026-05-01T15:12:32.000Z</time>
      </trkpt>
      <trkpt lat="44.81219" lon="0.84889">
        <ele>209</ele>
        <time>2026-05-01T15:12:33.000Z</time>
      </trkpt>
      <trkpt lat="44.8122" lon="0.84887">
        <ele>208.6</ele>
        <time>2026-05-01T15:12:34.000Z</time>
      </trkpt>
      <trkpt lat="44.81221" lon="0.84885">
        <ele>208.3</ele>
        <time>2026-05-01T15:12:35.000Z</time>
      </trkpt>
      <trkpt lat="44.81221" lon="0.84883">
        <ele>208.1</ele>
        <time>2026-05-01T15:12:36.000Z</time>
      </trkpt>
      <trkpt lat="44.81222" lon="0.8488">
        <ele>208</ele>
        <time>2026-05-01T15:12:37.000Z</time>
      </trkpt>
      <trkpt lat="44.81222" lon="0.84878">
        <ele>207.8</ele>
        <time>2026-05-01T15:12:38.000Z</time>
      </trkpt>
      <trkpt lat="44.81223" lon="0.84876">
        <ele>207.7</ele>
        <time>2026-05-01T15:12:39.000Z</time>
      </trkpt>
      <trkpt lat="44.81224" lon="0.84874">
        <ele>207.7</ele>
        <time>2026-05-01T15:12:40.000Z</time>
      </trkpt>
      <trkpt lat="44.81225" lon="0.84871">
        <ele>207.2</ele>
        <time>2026-05-01T15:12:41.000Z</time>
      </trkpt>
      <trkpt lat="44.81226" lon="0.8487">
        <ele>207</ele>
        <time>2026-05-01T15:12:42.000Z</time>
      </trkpt>
      <trkpt lat="44.81227" lon="0.84868">
        <ele>206.7</ele>
        <time>2026-05-01T15:12:43.000Z</time>
      </trkpt>
      <trkpt lat="44.81227" lon="0.84866">
        <ele>206.6</ele>
        <time>2026-05-01T15:12:44.000Z</time>
      </trkpt>
      <trkpt lat="44.81228" lon="0.84864">
        <ele>206.3</ele>
        <time>2026-05-01T15:12:45.000Z</time>
      </trkpt>
      <trkpt lat="44.81229" lon="0.84862">
        <ele>206.1</ele>
        <time>2026-05-01T15:12:46.000Z</time>
      </trkpt>
      <trkpt lat="44.8123" lon="0.8486">
        <ele>206.2</ele>
        <time>2026-05-01T15:12:47.000Z</time>
      </trkpt>
      <trkpt lat="44.81231" lon="0.84858">
        <ele>206</ele>
        <time>2026-05-01T15:12:48.000Z</time>
      </trkpt>
      <trkpt lat="44.81231" lon="0.84856">
        <ele>206</ele>
        <time>2026-05-01T15:12:49.000Z</time>
      </trkpt>
      <trkpt lat="44.81232" lon="0.84853">
        <ele>206.1</ele>
        <time>2026-05-01T15:12:50.000Z</time>
      </trkpt>
      <trkpt lat="44.81233" lon="0.84851">
        <ele>206</ele>
        <time>2026-05-01T15:12:51.000Z</time>
      </trkpt>
      <trkpt lat="44.81234" lon="0.8485">
        <ele>205.6</ele>
        <time>2026-05-01T15:12:52.000Z</time>
      </trkpt>
      <trkpt lat="44.81235" lon="0.84848">
        <ele>205.4</ele>
        <time>2026-05-01T15:12:53.000Z</time>
      </trkpt>
      <trkpt lat="44.81235" lon="0.84846">
        <ele>205.4</ele>
        <time>2026-05-01T15:12:54.000Z</time>
      </trkpt>
      <trkpt lat="44.81236" lon="0.84844">
        <ele>204.9</ele>
        <time>2026-05-01T15:12:55.000Z</time>
      </trkpt>
      <trkpt lat="44.81236" lon="0.84842">
        <ele>204.4</ele>
        <time>2026-05-01T15:12:56.000Z</time>
      </trkpt>
      <trkpt lat="44.81236" lon="0.84839">
        <ele>204.4</ele>
        <time>2026-05-01T15:12:57.000Z</time>
      </trkpt>
      <trkpt lat="44.81236" lon="0.84837">
        <ele>203.9</ele>
        <time>2026-05-01T15:12:58.000Z</time>
      </trkpt>
      <trkpt lat="44.81236" lon="0.84836">
        <ele>203</ele>
        <time>2026-05-01T15:12:59.000Z</time>
      </trkpt>
      <trkpt lat="44.81236" lon="0.84834">
        <ele>203.3</ele>
        <time>2026-05-01T15:13:00.000Z</time>
      </trkpt>
      <trkpt lat="44.81237" lon="0.84833">
        <ele>203.2</ele>
        <time>2026-05-01T15:13:01.000Z</time>
      </trkpt>
      <trkpt lat="44.81238" lon="0.84831">
        <ele>203.4</ele>
        <time>2026-05-01T15:13:02.000Z</time>
      </trkpt>
      <trkpt lat="44.81238" lon="0.84828">
        <ele>203.1</ele>
        <time>2026-05-01T15:13:03.000Z</time>
      </trkpt>
      <trkpt lat="44.81239" lon="0.84826">
        <ele>203.2</ele>
        <time>2026-05-01T15:13:04.000Z</time>
      </trkpt>
      <trkpt lat="44.81239" lon="0.84824">
        <ele>202.9</ele>
        <time>2026-05-01T15:13:05.000Z</time>
      </trkpt>
      <trkpt lat="44.8124" lon="0.84823">
        <ele>202.5</ele>
        <time>2026-05-01T15:13:06.000Z</time>
      </trkpt>
      <trkpt lat="44.81241" lon="0.84821">
        <ele>202</ele>
        <time>2026-05-01T15:13:07.000Z</time>
      </trkpt>
      <trkpt lat="44.81242" lon="0.8482">
        <ele>201.9</ele>
        <time>2026-05-01T15:13:08.000Z</time>
      </trkpt>
      <trkpt lat="44.81244" lon="0.84818">
        <ele>201.7</ele>
        <time>2026-05-01T15:13:09.000Z</time>
      </trkpt>
      <trkpt lat="44.81244" lon="0.84816">
        <ele>202.1</ele>
        <time>2026-05-01T15:13:10.000Z</time>
      </trkpt>
      <trkpt lat="44.81245" lon="0.84814">
        <ele>203</ele>
        <time>2026-05-01T15:13:11.000Z</time>
      </trkpt>
      <trkpt lat="44.81245" lon="0.84812">
        <ele>202.9</ele>
        <time>2026-05-01T15:13:12.000Z</time>
      </trkpt>
      <trkpt lat="44.81246" lon="0.8481">
        <ele>202.9</ele>
        <time>2026-05-01T15:13:13.000Z</time>
      </trkpt>
      <trkpt lat="44.81246" lon="0.84808">
        <ele>202.6</ele>
        <time>2026-05-01T15:13:14.000Z</time>
      </trkpt>
      <trkpt lat="44.81246" lon="0.84806">
        <ele>202.2</ele>
        <time>2026-05-01T15:13:15.000Z</time>
      </trkpt>
      <trkpt lat="44.81246" lon="0.84805">
        <ele>201.9</ele>
        <time>2026-05-01T15:13:16.000Z</time>
      </trkpt>
      <trkpt lat="44.81246" lon="0.84804">
        <ele>201.5</ele>
        <time>2026-05-01T15:13:17.000Z</time>
      </trkpt>
      <trkpt lat="44.81245" lon="0.84802">
        <ele>201.9</ele>
        <time>2026-05-01T15:13:18.000Z</time>
      </trkpt>
      <trkpt lat="44.81245" lon="0.84801">
        <ele>201.7</ele>
        <time>2026-05-01T15:13:19.000Z</time>
      </trkpt>
      <trkpt lat="44.81245" lon="0.84801">
        <ele>201.3</ele>
        <time>2026-05-01T15:13:20.000Z</time>
      </trkpt>
      <trkpt lat="44.81244" lon="0.848">
        <ele>200.8</ele>
        <time>2026-05-01T15:13:21.000Z</time>
      </trkpt>
      <trkpt lat="44.81244" lon="0.84797">
        <ele>200.9</ele>
        <time>2026-05-01T15:13:22.000Z</time>
      </trkpt>
      <trkpt lat="44.81243" lon="0.84796">
        <ele>200.6</ele>
        <time>2026-05-01T15:13:23.000Z</time>
      </trkpt>
      <trkpt lat="44.81243" lon="0.84794">
        <ele>200.7</ele>
        <time>2026-05-01T15:13:24.000Z</time>
      </trkpt>
      <trkpt lat="44.81242" lon="0.84793">
        <ele>200.9</ele>
        <time>2026-05-01T15:13:25.000Z</time>
      </trkpt>
      <trkpt lat="44.81242" lon="0.84791">
        <ele>201</ele>
        <time>2026-05-01T15:13:26.000Z</time>
      </trkpt>
      <trkpt lat="44.81241" lon="0.84789">
        <ele>201.1</ele>
        <time>2026-05-01T15:13:27.000Z</time>
      </trkpt>
      <trkpt lat="44.8124" lon="0.84787">
        <ele>201.1</ele>
        <time>2026-05-01T15:13:28.000Z</time>
      </trkpt>
      <trkpt lat="44.8124" lon="0.84785">
        <ele>200.9</ele>
        <time>2026-05-01T15:13:29.000Z</time>
      </trkpt>
      <trkpt lat="44.81239" lon="0.84784">
        <ele>200.9</ele>
        <time>2026-05-01T15:13:30.000Z</time>
      </trkpt>
      <trkpt lat="44.81239" lon="0.84782">
        <ele>200.8</ele>
        <time>2026-05-01T15:13:31.000Z</time>
      </trkpt>
      <trkpt lat="44.81238" lon="0.8478">
        <ele>200.4</ele>
        <time>2026-05-01T15:13:32.000Z</time>
      </trkpt>
      <trkpt lat="44.81238" lon="0.84779">
        <ele>200.7</ele>
        <time>2026-05-01T15:13:33.000Z</time>
      </trkpt>
      <trkpt lat="44.81237" lon="0.84777">
        <ele>200.7</ele>
        <time>2026-05-01T15:13:34.000Z</time>
      </trkpt>
      <trkpt lat="44.81237" lon="0.84775">
        <ele>201.1</ele>
        <time>2026-05-01T15:13:35.000Z</time>
      </trkpt>
      <trkpt lat="44.81237" lon="0.84773">
        <ele>199.8</ele>
        <time>2026-05-01T15:13:36.000Z</time>
      </trkpt>
      <trkpt lat="44.81237" lon="0.84771">
        <ele>199.5</ele>
        <time>2026-05-01T15:13:37.000Z</time>
      </trkpt>
      <trkpt lat="44.81237" lon="0.84769">
        <ele>198.6</ele>
        <time>2026-05-01T15:13:38.000Z</time>
      </trkpt>
      <trkpt lat="44.81238" lon="0.84767">
        <ele>197.9</ele>
        <time>2026-05-01T15:13:39.000Z</time>
      </trkpt>
      <trkpt lat="44.81239" lon="0.84765">
        <ele>197.6</ele>
        <time>2026-05-01T15:13:40.000Z</time>
      </trkpt>
      <trkpt lat="44.8124" lon="0.84763">
        <ele>197.5</ele>
        <time>2026-05-01T15:13:41.000Z</time>
      </trkpt>
      <trkpt lat="44.8124" lon="0.84761">
        <ele>197.1</ele>
        <time>2026-05-01T15:13:42.000Z</time>
      </trkpt>
      <trkpt lat="44.81241" lon="0.84758">
        <ele>196.3</ele>
        <time>2026-05-01T15:13:43.000Z</time>
      </trkpt>
      <trkpt lat="44.81242" lon="0.84756">
        <ele>196</ele>
        <time>2026-05-01T15:13:44.000Z</time>
      </trkpt>
      <trkpt lat="44.81242" lon="0.84754">
        <ele>195.4</ele>
        <time>2026-05-01T15:13:45.000Z</time>
      </trkpt>
      <trkpt lat="44.81242" lon="0.84751">
        <ele>195.2</ele>
        <time>2026-05-01T15:13:46.000Z</time>
      </trkpt>
      <trkpt lat="44.81243" lon="0.84749">
        <ele>194.5</ele>
        <time>2026-05-01T15:13:47.000Z</time>
      </trkpt>
      <trkpt lat="44.81244" lon="0.84747">
        <ele>194.4</ele>
        <time>2026-05-01T15:13:48.000Z</time>
      </trkpt>
      <trkpt lat="44.81244" lon="0.84745">
        <ele>194.8</ele>
        <time>2026-05-01T15:13:49.000Z</time>
      </trkpt>
      <trkpt lat="44.81244" lon="0.84743">
        <ele>194.8</ele>
        <time>2026-05-01T15:13:50.000Z</time>
      </trkpt>
      <trkpt lat="44.81245" lon="0.84741">
        <ele>194.3</ele>
        <time>2026-05-01T15:13:51.000Z</time>
      </trkpt>
      <trkpt lat="44.81245" lon="0.84739">
        <ele>193.6</ele>
        <time>2026-05-01T15:13:52.000Z</time>
      </trkpt>
      <trkpt lat="44.81246" lon="0.84737">
        <ele>193.1</ele>
        <time>2026-05-01T15:13:53.000Z</time>
      </trkpt>
      <trkpt lat="44.81246" lon="0.84735">
        <ele>193.8</ele>
        <time>2026-05-01T15:13:54.000Z</time>
      </trkpt>
      <trkpt lat="44.81245" lon="0.84733">
        <ele>194.2</ele>
        <time>2026-05-01T15:13:55.000Z</time>
      </trkpt>
      <trkpt lat="44.81245" lon="0.8473">
        <ele>195.7</ele>
        <time>2026-05-01T15:13:56.000Z</time>
      </trkpt>
      <trkpt lat="44.81244" lon="0.84728">
        <ele>196</ele>
        <time>2026-05-01T15:13:57.000Z</time>
      </trkpt>
      <trkpt lat="44.81243" lon="0.84725">
        <ele>196.9</ele>
        <time>2026-05-01T15:13:58.000Z</time>
      </trkpt>
      <trkpt lat="44.81243" lon="0.84722">
        <ele>196.7</ele>
        <time>2026-05-01T15:13:59.000Z</time>
      </trkpt>
      <trkpt lat="44.81242" lon="0.8472">
        <ele>196.4</ele>
        <time>2026-05-01T15:14:00.000Z</time>
      </trkpt>
      <trkpt lat="44.81241" lon="0.84717">
        <ele>196.6</ele>
        <time>2026-05-01T15:14:01.000Z</time>
      </trkpt>
      <trkpt lat="44.81241" lon="0.84714">
        <ele>197</ele>
        <time>2026-05-01T15:14:02.000Z</time>
      </trkpt>
      <trkpt lat="44.8124" lon="0.84712">
        <ele>196.3</ele>
        <time>2026-05-01T15:14:03.000Z</time>
      </trkpt>
      <trkpt lat="44.8124" lon="0.84709">
        <ele>196.3</ele>
        <time>2026-05-01T15:14:04.000Z</time>
      </trkpt>
      <trkpt lat="44.81239" lon="0.84706">
        <ele>196.3</ele>
        <time>2026-05-01T15:14:05.000Z</time>
      </trkpt>
      <trkpt lat="44.81239" lon="0.84704">
        <ele>196.6</ele>
        <time>2026-05-01T15:14:06.000Z</time>
      </trkpt>
      <trkpt lat="44.81238" lon="0.84702">
        <ele>197</ele>
        <time>2026-05-01T15:14:07.000Z</time>
      </trkpt>
      <trkpt lat="44.81238" lon="0.847">
        <ele>197.6</ele>
        <time>2026-05-01T15:14:08.000Z</time>
      </trkpt>
      <trkpt lat="44.81237" lon="0.84698">
        <ele>198.1</ele>
        <time>2026-05-01T15:14:09.000Z</time>
      </trkpt>
      <trkpt lat="44.81237" lon="0.84695">
        <ele>198</ele>
        <time>2026-05-01T15:14:10.000Z</time>
      </trkpt>
      <trkpt lat="44.81238" lon="0.84693">
        <ele>198.5</ele>
        <time>2026-05-01T15:14:11.000Z</time>
      </trkpt>
      <trkpt lat="44.81237" lon="0.8469">
        <ele>198.4</ele>
        <time>2026-05-01T15:14:12.000Z</time>
      </trkpt>
      <trkpt lat="44.81237" lon="0.84688">
        <ele>198.6</ele>
        <time>2026-05-01T15:14:13.000Z</time>
      </trkpt>
      <trkpt lat="44.81237" lon="0.84686">
        <ele>199.7</ele>
        <time>2026-05-01T15:14:14.000Z</time>
      </trkpt>
      <trkpt lat="44.81236" lon="0.84683">
        <ele>199.6</ele>
        <time>2026-05-01T15:14:15.000Z</time>
      </trkpt>
      <trkpt lat="44.81236" lon="0.84681">
        <ele>199.5</ele>
        <time>2026-05-01T15:14:16.000Z</time>
      </trkpt>
      <trkpt lat="44.81236" lon="0.84678">
        <ele>200</ele>
        <time>2026-05-01T15:14:17.000Z</time>
      </trkpt>
      <trkpt lat="44.81235" lon="0.84676">
        <ele>200.5</ele>
        <time>2026-05-01T15:14:18.000Z</time>
      </trkpt>
      <trkpt lat="44.81236" lon="0.84672">
        <ele>200.5</ele>
        <time>2026-05-01T15:14:19.000Z</time>
      </trkpt>
      <trkpt lat="44.81237" lon="0.8467">
        <ele>200</ele>
        <time>2026-05-01T15:14:20.000Z</time>
      </trkpt>
      <trkpt lat="44.81238" lon="0.84668">
        <ele>200.2</ele>
        <time>2026-05-01T15:14:21.000Z</time>
      </trkpt>
      <trkpt lat="44.81239" lon="0.84666">
        <ele>200</ele>
        <time>2026-05-01T15:14:22.000Z</time>
      </trkpt>
      <trkpt lat="44.8124" lon="0.84664">
        <ele>200.4</ele>
        <time>2026-05-01T15:14:23.000Z</time>
      </trkpt>
      <trkpt lat="44.8124" lon="0.84662">
        <ele>200.9</ele>
        <time>2026-05-01T15:14:24.000Z</time>
      </trkpt>
      <trkpt lat="44.8124" lon="0.8466">
        <ele>201.4</ele>
        <time>2026-05-01T15:14:25.000Z</time>
      </trkpt>
      <trkpt lat="44.81239" lon="0.84656">
        <ele>203.1</ele>
        <time>2026-05-01T15:14:26.000Z</time>
      </trkpt>
      <trkpt lat="44.81238" lon="0.84653">
        <ele>203.7</ele>
        <time>2026-05-01T15:14:27.000Z</time>
      </trkpt>
      <trkpt lat="44.81238" lon="0.8465">
        <ele>204</ele>
        <time>2026-05-01T15:14:28.000Z</time>
      </trkpt>
      <trkpt lat="44.81238" lon="0.84646">
        <ele>203.5</ele>
        <time>2026-05-01T15:14:29.000Z</time>
      </trkpt>
      <trkpt lat="44.81239" lon="0.84643">
        <ele>204.1</ele>
        <time>2026-05-01T15:14:30.000Z</time>
      </trkpt>
      <trkpt lat="44.81239" lon="0.8464">
        <ele>203.7</ele>
        <time>2026-05-01T15:14:31.000Z</time>
      </trkpt>
      <trkpt lat="44.8124" lon="0.84638">
        <ele>204.4</ele>
        <time>2026-05-01T15:14:32.000Z</time>
      </trkpt>
      <trkpt lat="44.8124" lon="0.84636">
        <ele>204.4</ele>
        <time>2026-05-01T15:14:33.000Z</time>
      </trkpt>
      <trkpt lat="44.8124" lon="0.84634">
        <ele>204.3</ele>
        <time>2026-05-01T15:14:34.000Z</time>
      </trkpt>
      <trkpt lat="44.8124" lon="0.84633">
        <ele>203.9</ele>
        <time>2026-05-01T15:14:35.000Z</time>
      </trkpt>
      <trkpt lat="44.81241" lon="0.84631">
        <ele>204.1</ele>
        <time>2026-05-01T15:14:36.000Z</time>
      </trkpt>
      <trkpt lat="44.81241" lon="0.84628">
        <ele>204.8</ele>
        <time>2026-05-01T15:14:37.000Z</time>
      </trkpt>
      <trkpt lat="44.81241" lon="0.84626">
        <ele>204.5</ele>
        <time>2026-05-01T15:14:38.000Z</time>
      </trkpt>
      <trkpt lat="44.81241" lon="0.84624">
        <ele>205</ele>
        <time>2026-05-01T15:14:39.000Z</time>
      </trkpt>
      <trkpt lat="44.81241" lon="0.84622">
        <ele>205.3</ele>
        <time>2026-05-01T15:14:40.000Z</time>
      </trkpt>
      <trkpt lat="44.81241" lon="0.8462">
        <ele>205.1</ele>
        <time>2026-05-01T15:14:41.000Z</time>
      </trkpt>
      <trkpt lat="44.81242" lon="0.84618">
        <ele>205.7</ele>
        <time>2026-05-01T15:14:42.000Z</time>
      </trkpt>
      <trkpt lat="44.81242" lon="0.84616">
        <ele>206.1</ele>
        <time>2026-05-01T15:14:43.000Z</time>
      </trkpt>
      <trkpt lat="44.81242" lon="0.84614">
        <ele>206.3</ele>
        <time>2026-05-01T15:14:44.000Z</time>
      </trkpt>
      <trkpt lat="44.81242" lon="0.84612">
        <ele>206.3</ele>
        <time>2026-05-01T15:14:45.000Z</time>
      </trkpt>
      <trkpt lat="44.81242" lon="0.8461">
        <ele>206.4</ele>
        <time>2026-05-01T15:14:46.000Z</time>
      </trkpt>
      <trkpt lat="44.81243" lon="0.84608">
        <ele>206.4</ele>
        <time>2026-05-01T15:14:47.000Z</time>
      </trkpt>
      <trkpt lat="44.81243" lon="0.84606">
        <ele>206.7</ele>
        <time>2026-05-01T15:14:48.000Z</time>
      </trkpt>
      <trkpt lat="44.81243" lon="0.84604">
        <ele>206.7</ele>
        <time>2026-05-01T15:14:49.000Z</time>
      </trkpt>
      <trkpt lat="44.81242" lon="0.84602">
        <ele>207.3</ele>
        <time>2026-05-01T15:14:50.000Z</time>
      </trkpt>
      <trkpt lat="44.81243" lon="0.846">
        <ele>207.4</ele>
        <time>2026-05-01T15:14:51.000Z</time>
      </trkpt>
      <trkpt lat="44.81243" lon="0.84597">
        <ele>207.6</ele>
        <time>2026-05-01T15:14:52.000Z</time>
      </trkpt>
      <trkpt lat="44.81243" lon="0.84596">
        <ele>207.7</ele>
        <time>2026-05-01T15:14:53.000Z</time>
      </trkpt>
      <trkpt lat="44.81242" lon="0.84593">
        <ele>208.3</ele>
        <time>2026-05-01T15:14:54.000Z</time>
      </trkpt>
      <trkpt lat="44.81242" lon="0.84591">
        <ele>208.3</ele>
        <time>2026-05-01T15:14:55.000Z</time>
      </trkpt>
      <trkpt lat="44.81242" lon="0.84589">
        <ele>209.1</ele>
        <time>2026-05-01T15:14:56.000Z</time>
      </trkpt>
      <trkpt lat="44.81242" lon="0.84587">
        <ele>209.3</ele>
        <time>2026-05-01T15:14:57.000Z</time>
      </trkpt>
      <trkpt lat="44.81242" lon="0.84584">
        <ele>209.7</ele>
        <time>2026-05-01T15:14:58.000Z</time>
      </trkpt>
      <trkpt lat="44.81242" lon="0.84582">
        <ele>209.8</ele>
        <time>2026-05-01T15:14:59.000Z</time>
      </trkpt>
      <trkpt lat="44.81242" lon="0.8458">
        <ele>209.5</ele>
        <time>2026-05-01T15:15:00.000Z</time>
      </trkpt>
      <trkpt lat="44.81242" lon="0.84578">
        <ele>209.5</ele>
        <time>2026-05-01T15:15:01.000Z</time>
      </trkpt>
      <trkpt lat="44.81242" lon="0.84576">
        <ele>209.5</ele>
        <time>2026-05-01T15:15:02.000Z</time>
      </trkpt>
      <trkpt lat="44.81242" lon="0.84574">
        <ele>209.3</ele>
        <time>2026-05-01T15:15:03.000Z</time>
      </trkpt>
      <trkpt lat="44.81242" lon="0.84571">
        <ele>209.2</ele>
        <time>2026-05-01T15:15:04.000Z</time>
      </trkpt>
      <trkpt lat="44.81242" lon="0.84569">
        <ele>209.1</ele>
        <time>2026-05-01T15:15:05.000Z</time>
      </trkpt>
      <trkpt lat="44.81242" lon="0.84567">
        <ele>209.4</ele>
        <time>2026-05-01T15:15:06.000Z</time>
      </trkpt>
      <trkpt lat="44.81242" lon="0.84565">
        <ele>209.7</ele>
        <time>2026-05-01T15:15:07.000Z</time>
      </trkpt>
      <trkpt lat="44.81242" lon="0.84562">
        <ele>209.8</ele>
        <time>2026-05-01T15:15:08.000Z</time>
      </trkpt>
      <trkpt lat="44.81242" lon="0.8456">
        <ele>209.7</ele>
        <time>2026-05-01T15:15:09.000Z</time>
      </trkpt>
      <trkpt lat="44.81241" lon="0.84558">
        <ele>209.7</ele>
        <time>2026-05-01T15:15:10.000Z</time>
      </trkpt>
      <trkpt lat="44.81241" lon="0.84556">
        <ele>210.1</ele>
        <time>2026-05-01T15:15:11.000Z</time>
      </trkpt>
      <trkpt lat="44.81241" lon="0.84554">
        <ele>210</ele>
        <time>2026-05-01T15:15:12.000Z</time>
      </trkpt>
      <trkpt lat="44.81241" lon="0.84551">
        <ele>210.2</ele>
        <time>2026-05-01T15:15:13.000Z</time>
      </trkpt>
      <trkpt lat="44.81241" lon="0.84549">
        <ele>210</ele>
        <time>2026-05-01T15:15:14.000Z</time>
      </trkpt>
      <trkpt lat="44.81241" lon="0.84547">
        <ele>209.8</ele>
        <time>2026-05-01T15:15:15.000Z</time>
      </trkpt>
      <trkpt lat="44.81241" lon="0.84545">
        <ele>209.6</ele>
        <time>2026-05-01T15:15:16.000Z</time>
      </trkpt>
      <trkpt lat="44.81241" lon="0.84543">
        <ele>209.9</ele>
        <time>2026-05-01T15:15:17.000Z</time>
      </trkpt>
      <trkpt lat="44.81242" lon="0.84541">
        <ele>209.7</ele>
        <time>2026-05-01T15:15:18.000Z</time>
      </trkpt>
      <trkpt lat="44.81242" lon="0.84539">
        <ele>209.1</ele>
        <time>2026-05-01T15:15:19.000Z</time>
      </trkpt>
      <trkpt lat="44.81242" lon="0.84537">
        <ele>208.9</ele>
        <time>2026-05-01T15:15:20.000Z</time>
      </trkpt>
      <trkpt lat="44.81242" lon="0.84535">
        <ele>208.8</ele>
        <time>2026-05-01T15:15:21.000Z</time>
      </trkpt>
      <trkpt lat="44.81242" lon="0.84533">
        <ele>208.7</ele>
        <time>2026-05-01T15:15:22.000Z</time>
      </trkpt>
      <trkpt lat="44.81241" lon="0.8453">
        <ele>208.9</ele>
        <time>2026-05-01T15:15:23.000Z</time>
      </trkpt>
      <trkpt lat="44.81241" lon="0.84528">
        <ele>208.7</ele>
        <time>2026-05-01T15:15:24.000Z</time>
      </trkpt>
      <trkpt lat="44.8124" lon="0.84525">
        <ele>208.7</ele>
        <time>2026-05-01T15:15:25.000Z</time>
      </trkpt>
      <trkpt lat="44.8124" lon="0.84523">
        <ele>208.8</ele>
        <time>2026-05-01T15:15:26.000Z</time>
      </trkpt>
      <trkpt lat="44.8124" lon="0.8452">
        <ele>208.8</ele>
        <time>2026-05-01T15:15:27.000Z</time>
      </trkpt>
      <trkpt lat="44.81239" lon="0.84518">
        <ele>208.7</ele>
        <time>2026-05-01T15:15:28.000Z</time>
      </trkpt>
      <trkpt lat="44.81239" lon="0.84516">
        <ele>208.4</ele>
        <time>2026-05-01T15:15:29.000Z</time>
      </trkpt>
      <trkpt lat="44.81239" lon="0.84514">
        <ele>208.3</ele>
        <time>2026-05-01T15:15:30.000Z</time>
      </trkpt>
      <trkpt lat="44.81239" lon="0.84512">
        <ele>207.9</ele>
        <time>2026-05-01T15:15:31.000Z</time>
      </trkpt>
      <trkpt lat="44.81239" lon="0.8451">
        <ele>207.4</ele>
        <time>2026-05-01T15:15:32.000Z</time>
      </trkpt>
      <trkpt lat="44.81239" lon="0.84508">
        <ele>207.1</ele>
        <time>2026-05-01T15:15:33.000Z</time>
      </trkpt>
      <trkpt lat="44.81238" lon="0.84506">
        <ele>207.1</ele>
        <time>2026-05-01T15:15:34.000Z</time>
      </trkpt>
      <trkpt lat="44.81238" lon="0.84504">
        <ele>206.9</ele>
        <time>2026-05-01T15:15:35.000Z</time>
      </trkpt>
      <trkpt lat="44.81238" lon="0.84502">
        <ele>206.7</ele>
        <time>2026-05-01T15:15:36.000Z</time>
      </trkpt>
      <trkpt lat="44.81237" lon="0.845">
        <ele>206.9</ele>
        <time>2026-05-01T15:15:37.000Z</time>
      </trkpt>
      <trkpt lat="44.81237" lon="0.84498">
        <ele>206.7</ele>
        <time>2026-05-01T15:15:38.000Z</time>
      </trkpt>
      <trkpt lat="44.81237" lon="0.84496">
        <ele>206.7</ele>
        <time>2026-05-01T15:15:39.000Z</time>
      </trkpt>
      <trkpt lat="44.81236" lon="0.84494">
        <ele>206.6</ele>
        <time>2026-05-01T15:15:40.000Z</time>
      </trkpt>
      <trkpt lat="44.81236" lon="0.84492">
        <ele>206.5</ele>
        <time>2026-05-01T15:15:41.000Z</time>
      </trkpt>
      <trkpt lat="44.81235" lon="0.8449">
        <ele>206.5</ele>
        <time>2026-05-01T15:15:42.000Z</time>
      </trkpt>
      <trkpt lat="44.81235" lon="0.84488">
        <ele>206.5</ele>
        <time>2026-05-01T15:15:43.000Z</time>
      </trkpt>
      <trkpt lat="44.81234" lon="0.84486">
        <ele>206.1</ele>
        <time>2026-05-01T15:15:44.000Z</time>
      </trkpt>
      <trkpt lat="44.81234" lon="0.84484">
        <ele>205.8</ele>
        <time>2026-05-01T15:15:45.000Z</time>
      </trkpt>
      <trkpt lat="44.81234" lon="0.84481">
        <ele>205.9</ele>
        <time>2026-05-01T15:15:46.000Z</time>
      </trkpt>
      <trkpt lat="44.81234" lon="0.84478">
        <ele>204.5</ele>
        <time>2026-05-01T15:15:47.000Z</time>
      </trkpt>
      <trkpt lat="44.81234" lon="0.84475">
        <ele>205</ele>
        <time>2026-05-01T15:15:48.000Z</time>
      </trkpt>
      <trkpt lat="44.81234" lon="0.84472">
        <ele>204.1</ele>
        <time>2026-05-01T15:15:49.000Z</time>
      </trkpt>
      <trkpt lat="44.81235" lon="0.84469">
        <ele>203.3</ele>
        <time>2026-05-01T15:15:50.000Z</time>
      </trkpt>
      <trkpt lat="44.81235" lon="0.84466">
        <ele>203.1</ele>
        <time>2026-05-01T15:15:51.000Z</time>
      </trkpt>
      <trkpt lat="44.81236" lon="0.84463">
        <ele>203</ele>
        <time>2026-05-01T15:15:52.000Z</time>
      </trkpt>
      <trkpt lat="44.81236" lon="0.8446">
        <ele>203.1</ele>
        <time>2026-05-01T15:15:53.000Z</time>
      </trkpt>
      <trkpt lat="44.81236" lon="0.84457">
        <ele>203</ele>
        <time>2026-05-01T15:15:54.000Z</time>
      </trkpt>
      <trkpt lat="44.81236" lon="0.84454">
        <ele>202.9</ele>
        <time>2026-05-01T15:15:55.000Z</time>
      </trkpt>
      <trkpt lat="44.81236" lon="0.84452">
        <ele>204</ele>
        <time>2026-05-01T15:15:56.000Z</time>
      </trkpt>
      <trkpt lat="44.81236" lon="0.84449">
        <ele>204.5</ele>
        <time>2026-05-01T15:15:57.000Z</time>
      </trkpt>
      <trkpt lat="44.81235" lon="0.84446">
        <ele>203.6</ele>
        <time>2026-05-01T15:15:58.000Z</time>
      </trkpt>
      <trkpt lat="44.81236" lon="0.84443">
        <ele>203.5</ele>
        <time>2026-05-01T15:15:59.000Z</time>
      </trkpt>
      <trkpt lat="44.81236" lon="0.8444">
        <ele>204.5</ele>
        <time>2026-05-01T15:16:00.000Z</time>
      </trkpt>
      <trkpt lat="44.81236" lon="0.84437">
        <ele>205.2</ele>
        <time>2026-05-01T15:16:01.000Z</time>
      </trkpt>
      <trkpt lat="44.81237" lon="0.84434">
        <ele>205.2</ele>
        <time>2026-05-01T15:16:02.000Z</time>
      </trkpt>
      <trkpt lat="44.81237" lon="0.84432">
        <ele>204.4</ele>
        <time>2026-05-01T15:16:03.000Z</time>
      </trkpt>
      <trkpt lat="44.81237" lon="0.84429">
        <ele>205</ele>
        <time>2026-05-01T15:16:04.000Z</time>
      </trkpt>
      <trkpt lat="44.81237" lon="0.84426">
        <ele>205.1</ele>
        <time>2026-05-01T15:16:05.000Z</time>
      </trkpt>
      <trkpt lat="44.81237" lon="0.84423">
        <ele>205.7</ele>
        <time>2026-05-01T15:16:06.000Z</time>
      </trkpt>
      <trkpt lat="44.81237" lon="0.84421">
        <ele>205.4</ele>
        <time>2026-05-01T15:16:07.000Z</time>
      </trkpt>
      <trkpt lat="44.81237" lon="0.84418">
        <ele>205.4</ele>
        <time>2026-05-01T15:16:08.000Z</time>
      </trkpt>
      <trkpt lat="44.81237" lon="0.84415">
        <ele>206</ele>
        <time>2026-05-01T15:16:09.000Z</time>
      </trkpt>
      <trkpt lat="44.81237" lon="0.84413">
        <ele>206.2</ele>
        <time>2026-05-01T15:16:10.000Z</time>
      </trkpt>
      <trkpt lat="44.81237" lon="0.84411">
        <ele>206.5</ele>
        <time>2026-05-01T15:16:11.000Z</time>
      </trkpt>
      <trkpt lat="44.81237" lon="0.84408">
        <ele>207.5</ele>
        <time>2026-05-01T15:16:12.000Z</time>
      </trkpt>
      <trkpt lat="44.81237" lon="0.84406">
        <ele>207.2</ele>
        <time>2026-05-01T15:16:13.000Z</time>
      </trkpt>
      <trkpt lat="44.81237" lon="0.84404">
        <ele>206.6</ele>
        <time>2026-05-01T15:16:14.000Z</time>
      </trkpt>
      <trkpt lat="44.81237" lon="0.84403">
        <ele>206.8</ele>
        <time>2026-05-01T15:16:15.000Z</time>
      </trkpt>
      <trkpt lat="44.81237" lon="0.84401">
        <ele>206.1</ele>
        <time>2026-05-01T15:16:16.000Z</time>
      </trkpt>
      <trkpt lat="44.81237" lon="0.844">
        <ele>206.2</ele>
        <time>2026-05-01T15:16:17.000Z</time>
      </trkpt>
      <trkpt lat="44.81237" lon="0.84398">
        <ele>206</ele>
        <time>2026-05-01T15:16:18.000Z</time>
      </trkpt>
      <trkpt lat="44.81237" lon="0.84397">
        <ele>206.2</ele>
        <time>2026-05-01T15:16:19.000Z</time>
      </trkpt>
      <trkpt lat="44.81237" lon="0.84395">
        <ele>205.3</ele>
        <time>2026-05-01T15:16:20.000Z</time>
      </trkpt>
      <trkpt lat="44.81236" lon="0.84393">
        <ele>204</ele>
        <time>2026-05-01T15:16:21.000Z</time>
      </trkpt>
      <trkpt lat="44.81236" lon="0.84392">
        <ele>203.4</ele>
        <time>2026-05-01T15:16:22.000Z</time>
      </trkpt>
      <trkpt lat="44.81236" lon="0.8439">
        <ele>203</ele>
        <time>2026-05-01T15:16:23.000Z</time>
      </trkpt>
      <trkpt lat="44.81236" lon="0.84388">
        <ele>203.2</ele>
        <time>2026-05-01T15:16:24.000Z</time>
      </trkpt>
      <trkpt lat="44.81235" lon="0.84386">
        <ele>203.3</ele>
        <time>2026-05-01T15:16:25.000Z</time>
      </trkpt>
      <trkpt lat="44.81235" lon="0.84384">
        <ele>203.2</ele>
        <time>2026-05-01T15:16:26.000Z</time>
      </trkpt>
      <trkpt lat="44.81235" lon="0.84381">
        <ele>202.9</ele>
        <time>2026-05-01T15:16:27.000Z</time>
      </trkpt>
      <trkpt lat="44.81234" lon="0.84379">
        <ele>203</ele>
        <time>2026-05-01T15:16:28.000Z</time>
      </trkpt>
      <trkpt lat="44.81234" lon="0.84377">
        <ele>203.8</ele>
        <time>2026-05-01T15:16:29.000Z</time>
      </trkpt>
      <trkpt lat="44.81234" lon="0.84375">
        <ele>204</ele>
        <time>2026-05-01T15:16:30.000Z</time>
      </trkpt>
      <trkpt lat="44.81233" lon="0.84373">
        <ele>204</ele>
        <time>2026-05-01T15:16:31.000Z</time>
      </trkpt>
      <trkpt lat="44.81233" lon="0.84371">
        <ele>204.3</ele>
        <time>2026-05-01T15:16:32.000Z</time>
      </trkpt>
      <trkpt lat="44.81232" lon="0.84369">
        <ele>205</ele>
        <time>2026-05-01T15:16:33.000Z</time>
      </trkpt>
      <trkpt lat="44.81232" lon="0.84367">
        <ele>205.3</ele>
        <time>2026-05-01T15:16:34.000Z</time>
      </trkpt>
      <trkpt lat="44.81231" lon="0.84365">
        <ele>205.8</ele>
        <time>2026-05-01T15:16:35.000Z</time>
      </trkpt>
      <trkpt lat="44.8123" lon="0.84363">
        <ele>205.1</ele>
        <time>2026-05-01T15:16:36.000Z</time>
      </trkpt>
      <trkpt lat="44.8123" lon="0.84361">
        <ele>205.3</ele>
        <time>2026-05-01T15:16:37.000Z</time>
      </trkpt>
      <trkpt lat="44.8123" lon="0.84359">
        <ele>205.1</ele>
        <time>2026-05-01T15:16:38.000Z</time>
      </trkpt>
      <trkpt lat="44.81229" lon="0.84357">
        <ele>205.8</ele>
        <time>2026-05-01T15:16:39.000Z</time>
      </trkpt>
      <trkpt lat="44.81229" lon="0.84355">
        <ele>205.9</ele>
        <time>2026-05-01T15:16:40.000Z</time>
      </trkpt>
      <trkpt lat="44.81229" lon="0.84353">
        <ele>205.8</ele>
        <time>2026-05-01T15:16:41.000Z</time>
      </trkpt>
      <trkpt lat="44.81228" lon="0.84351">
        <ele>205.7</ele>
        <time>2026-05-01T15:16:42.000Z</time>
      </trkpt>
      <trkpt lat="44.81228" lon="0.84349">
        <ele>205</ele>
        <time>2026-05-01T15:16:43.000Z</time>
      </trkpt>
      <trkpt lat="44.81228" lon="0.84346">
        <ele>204.8</ele>
        <time>2026-05-01T15:16:44.000Z</time>
      </trkpt>
      <trkpt lat="44.81228" lon="0.84343">
        <ele>204.7</ele>
        <time>2026-05-01T15:16:45.000Z</time>
      </trkpt>
      <trkpt lat="44.81227" lon="0.84341">
        <ele>204.1</ele>
        <time>2026-05-01T15:16:46.000Z</time>
      </trkpt>
      <trkpt lat="44.81226" lon="0.84338">
        <ele>204.4</ele>
        <time>2026-05-01T15:16:47.000Z</time>
      </trkpt>
      <trkpt lat="44.81225" lon="0.84336">
        <ele>204</ele>
        <time>2026-05-01T15:16:48.000Z</time>
      </trkpt>
      <trkpt lat="44.81224" lon="0.84334">
        <ele>204.7</ele>
        <time>2026-05-01T15:16:49.000Z</time>
      </trkpt>
      <trkpt lat="44.81223" lon="0.84332">
        <ele>204.8</ele>
        <time>2026-05-01T15:16:50.000Z</time>
      </trkpt>
      <trkpt lat="44.81222" lon="0.84331">
        <ele>204.5</ele>
        <time>2026-05-01T15:16:51.000Z</time>
      </trkpt>
      <trkpt lat="44.81222" lon="0.84329">
        <ele>204.9</ele>
        <time>2026-05-01T15:16:52.000Z</time>
      </trkpt>
      <trkpt lat="44.81221" lon="0.84327">
        <ele>204.7</ele>
        <time>2026-05-01T15:16:53.000Z</time>
      </trkpt>
      <trkpt lat="44.8122" lon="0.84325">
        <ele>204.1</ele>
        <time>2026-05-01T15:16:54.000Z</time>
      </trkpt>
      <trkpt lat="44.8122" lon="0.84323">
        <ele>204.3</ele>
        <time>2026-05-01T15:16:55.000Z</time>
      </trkpt>
      <trkpt lat="44.81219" lon="0.84322">
        <ele>203.6</ele>
        <time>2026-05-01T15:16:56.000Z</time>
      </trkpt>
      <trkpt lat="44.81218" lon="0.8432">
        <ele>203.8</ele>
        <time>2026-05-01T15:16:57.000Z</time>
      </trkpt>
      <trkpt lat="44.81217" lon="0.84318">
        <ele>204</ele>
        <time>2026-05-01T15:16:58.000Z</time>
      </trkpt>
      <trkpt lat="44.81216" lon="0.84317">
        <ele>204.2</ele>
        <time>2026-05-01T15:16:59.000Z</time>
      </trkpt>
      <trkpt lat="44.81215" lon="0.84315">
        <ele>204.5</ele>
        <time>2026-05-01T15:17:00.000Z</time>
      </trkpt>
      <trkpt lat="44.81215" lon="0.84313">
        <ele>204.7</ele>
        <time>2026-05-01T15:17:01.000Z</time>
      </trkpt>
      <trkpt lat="44.81215" lon="0.84311">
        <ele>206.4</ele>
        <time>2026-05-01T15:17:02.000Z</time>
      </trkpt>
      <trkpt lat="44.81216" lon="0.84309">
        <ele>206.8</ele>
        <time>2026-05-01T15:17:03.000Z</time>
      </trkpt>
      <trkpt lat="44.81215" lon="0.84309">
        <ele>207</ele>
        <time>2026-05-01T15:17:04.000Z</time>
      </trkpt>
      <trkpt lat="44.81215" lon="0.84309">
        <ele>207</ele>
        <time>2026-05-01T15:17:05.000Z</time>
      </trkpt>
      <trkpt lat="44.81215" lon="0.84309">
        <ele>206.9</ele>
        <time>2026-05-01T15:17:06.000Z</time>
      </trkpt>
      <trkpt lat="44.81215" lon="0.84309">
        <ele>207</ele>
        <time>2026-05-01T15:17:07.000Z</time>
      </trkpt>
      <trkpt lat="44.81215" lon="0.84309">
        <ele>207</ele>
        <time>2026-05-01T15:17:08.000Z</time>
      </trkpt>
      <trkpt lat="44.81215" lon="0.84309">
        <ele>207</ele>
        <time>2026-05-01T15:17:09.000Z</time>
      </trkpt>
      <trkpt lat="44.81215" lon="0.84308">
        <ele>207.2</ele>
        <time>2026-05-01T15:17:10.000Z</time>
      </trkpt>
      <trkpt lat="44.81214" lon="0.84308">
        <ele>207.4</ele>
        <time>2026-05-01T15:17:11.000Z</time>
      </trkpt>
      <trkpt lat="44.81214" lon="0.84306">
        <ele>207</ele>
        <time>2026-05-01T15:17:12.000Z</time>
      </trkpt>
      <trkpt lat="44.81214" lon="0.84304">
        <ele>206.9</ele>
        <time>2026-05-01T15:17:13.000Z</time>
      </trkpt>
      <trkpt lat="44.81214" lon="0.84302">
        <ele>207</ele>
        <time>2026-05-01T15:17:14.000Z</time>
      </trkpt>
      <trkpt lat="44.81213" lon="0.84301">
        <ele>207</ele>
        <time>2026-05-01T15:17:15.000Z</time>
      </trkpt>
      <trkpt lat="44.81213" lon="0.84299">
        <ele>206.7</ele>
        <time>2026-05-01T15:17:16.000Z</time>
      </trkpt>
      <trkpt lat="44.81212" lon="0.84297">
        <ele>206.3</ele>
        <time>2026-05-01T15:17:17.000Z</time>
      </trkpt>
      <trkpt lat="44.81212" lon="0.84295">
        <ele>206.1</ele>
        <time>2026-05-01T15:17:18.000Z</time>
      </trkpt>
      <trkpt lat="44.81211" lon="0.84293">
        <ele>206.8</ele>
        <time>2026-05-01T15:17:19.000Z</time>
      </trkpt>
      <trkpt lat="44.8121" lon="0.84291">
        <ele>206.9</ele>
        <time>2026-05-01T15:17:20.000Z</time>
      </trkpt>
      <trkpt lat="44.81209" lon="0.8429">
        <ele>206.1</ele>
        <time>2026-05-01T15:17:21.000Z</time>
      </trkpt>
      <trkpt lat="44.81208" lon="0.84288">
        <ele>205.5</ele>
        <time>2026-05-01T15:17:22.000Z</time>
      </trkpt>
      <trkpt lat="44.81208" lon="0.84286">
        <ele>205.3</ele>
        <time>2026-05-01T15:17:23.000Z</time>
      </trkpt>
      <trkpt lat="44.81207" lon="0.84285">
        <ele>205.2</ele>
        <time>2026-05-01T15:17:24.000Z</time>
      </trkpt>
      <trkpt lat="44.81207" lon="0.84283">
        <ele>205.3</ele>
        <time>2026-05-01T15:17:25.000Z</time>
      </trkpt>
      <trkpt lat="44.81205" lon="0.84282">
        <ele>204.8</ele>
        <time>2026-05-01T15:17:26.000Z</time>
      </trkpt>
      <trkpt lat="44.81204" lon="0.84281">
        <ele>204.3</ele>
        <time>2026-05-01T15:17:27.000Z</time>
      </trkpt>
      <trkpt lat="44.81203" lon="0.84279">
        <ele>204.1</ele>
        <time>2026-05-01T15:17:28.000Z</time>
      </trkpt>
      <trkpt lat="44.81202" lon="0.84277">
        <ele>204.3</ele>
        <time>2026-05-01T15:17:29.000Z</time>
      </trkpt>
      <trkpt lat="44.81202" lon="0.84276">
        <ele>203.7</ele>
        <time>2026-05-01T15:17:30.000Z</time>
      </trkpt>
      <trkpt lat="44.81201" lon="0.84274">
        <ele>202.9</ele>
        <time>2026-05-01T15:17:31.000Z</time>
      </trkpt>
      <trkpt lat="44.81201" lon="0.84273">
        <ele>203</ele>
        <time>2026-05-01T15:17:32.000Z</time>
      </trkpt>
      <trkpt lat="44.812" lon="0.84271">
        <ele>202.9</ele>
        <time>2026-05-01T15:17:33.000Z</time>
      </trkpt>
      <trkpt lat="44.812" lon="0.84269">
        <ele>202.9</ele>
        <time>2026-05-01T15:17:34.000Z</time>
      </trkpt>
      <trkpt lat="44.81199" lon="0.84267">
        <ele>203</ele>
        <time>2026-05-01T15:17:35.000Z</time>
      </trkpt>
      <trkpt lat="44.81199" lon="0.84265">
        <ele>203.4</ele>
        <time>2026-05-01T15:17:36.000Z</time>
      </trkpt>
      <trkpt lat="44.81198" lon="0.84264">
        <ele>203.2</ele>
        <time>2026-05-01T15:17:37.000Z</time>
      </trkpt>
      <trkpt lat="44.81198" lon="0.84262">
        <ele>203.3</ele>
        <time>2026-05-01T15:17:38.000Z</time>
      </trkpt>
      <trkpt lat="44.81197" lon="0.8426">
        <ele>203</ele>
        <time>2026-05-01T15:17:39.000Z</time>
      </trkpt>
      <trkpt lat="44.81196" lon="0.84257">
        <ele>203.5</ele>
        <time>2026-05-01T15:17:40.000Z</time>
      </trkpt>
      <trkpt lat="44.81195" lon="0.84256">
        <ele>205.2</ele>
        <time>2026-05-01T15:17:41.000Z</time>
      </trkpt>
      <trkpt lat="44.81194" lon="0.84254">
        <ele>205.4</ele>
        <time>2026-05-01T15:17:42.000Z</time>
      </trkpt>
      <trkpt lat="44.81194" lon="0.84253">
        <ele>205.3</ele>
        <time>2026-05-01T15:17:43.000Z</time>
      </trkpt>
      <trkpt lat="44.81193" lon="0.84253">
        <ele>204.5</ele>
        <time>2026-05-01T15:17:44.000Z</time>
      </trkpt>
      <trkpt lat="44.81192" lon="0.84252">
        <ele>204.3</ele>
        <time>2026-05-01T15:17:45.000Z</time>
      </trkpt>
      <trkpt lat="44.81191" lon="0.84251">
        <ele>204.6</ele>
        <time>2026-05-01T15:17:46.000Z</time>
      </trkpt>
      <trkpt lat="44.81191" lon="0.84249">
        <ele>205.3</ele>
        <time>2026-05-01T15:17:47.000Z</time>
      </trkpt>
      <trkpt lat="44.8119" lon="0.84248">
        <ele>205</ele>
        <time>2026-05-01T15:17:48.000Z</time>
      </trkpt>
      <trkpt lat="44.8119" lon="0.84246">
        <ele>204.8</ele>
        <time>2026-05-01T15:17:49.000Z</time>
      </trkpt>
      <trkpt lat="44.81189" lon="0.84245">
        <ele>204.5</ele>
        <time>2026-05-01T15:17:50.000Z</time>
      </trkpt>
      <trkpt lat="44.81188" lon="0.84243">
        <ele>203.3</ele>
        <time>2026-05-01T15:17:51.000Z</time>
      </trkpt>
      <trkpt lat="44.81188" lon="0.8424">
        <ele>203.6</ele>
        <time>2026-05-01T15:17:52.000Z</time>
      </trkpt>
      <trkpt lat="44.81188" lon="0.84238">
        <ele>203.7</ele>
        <time>2026-05-01T15:17:53.000Z</time>
      </trkpt>
      <trkpt lat="44.81187" lon="0.84236">
        <ele>203.3</ele>
        <time>2026-05-01T15:17:54.000Z</time>
      </trkpt>
      <trkpt lat="44.81187" lon="0.84233">
        <ele>204.1</ele>
        <time>2026-05-01T15:17:55.000Z</time>
      </trkpt>
      <trkpt lat="44.81187" lon="0.84231">
        <ele>204</ele>
        <time>2026-05-01T15:17:56.000Z</time>
      </trkpt>
      <trkpt lat="44.81186" lon="0.84229">
        <ele>203.5</ele>
        <time>2026-05-01T15:17:57.000Z</time>
      </trkpt>
      <trkpt lat="44.81186" lon="0.84227">
        <ele>203.8</ele>
        <time>2026-05-01T15:17:58.000Z</time>
      </trkpt>
      <trkpt lat="44.81185" lon="0.84224">
        <ele>203.4</ele>
        <time>2026-05-01T15:17:59.000Z</time>
      </trkpt>
      <trkpt lat="44.81184" lon="0.84222">
        <ele>203.2</ele>
        <time>2026-05-01T15:18:00.000Z</time>
      </trkpt>
      <trkpt lat="44.81184" lon="0.84219">
        <ele>202.8</ele>
        <time>2026-05-01T15:18:01.000Z</time>
      </trkpt>
      <trkpt lat="44.81184" lon="0.84218">
        <ele>203.2</ele>
        <time>2026-05-01T15:18:02.000Z</time>
      </trkpt>
      <trkpt lat="44.81184" lon="0.84216">
        <ele>202.6</ele>
        <time>2026-05-01T15:18:03.000Z</time>
      </trkpt>
      <trkpt lat="44.81183" lon="0.84215">
        <ele>202.3</ele>
        <time>2026-05-01T15:18:04.000Z</time>
      </trkpt>
      <trkpt lat="44.81183" lon="0.84213">
        <ele>202</ele>
        <time>2026-05-01T15:18:05.000Z</time>
      </trkpt>
      <trkpt lat="44.81183" lon="0.84209">
        <ele>201.4</ele>
        <time>2026-05-01T15:18:06.000Z</time>
      </trkpt>
      <trkpt lat="44.81184" lon="0.84206">
        <ele>201.8</ele>
        <time>2026-05-01T15:18:07.000Z</time>
      </trkpt>
      <trkpt lat="44.81184" lon="0.84202">
        <ele>202.5</ele>
        <time>2026-05-01T15:18:08.000Z</time>
      </trkpt>
      <trkpt lat="44.81185" lon="0.842">
        <ele>202.4</ele>
        <time>2026-05-01T15:18:09.000Z</time>
      </trkpt>
      <trkpt lat="44.81185" lon="0.84198">
        <ele>201.6</ele>
        <time>2026-05-01T15:18:10.000Z</time>
      </trkpt>
      <trkpt lat="44.81185" lon="0.84194">
        <ele>201.4</ele>
        <time>2026-05-01T15:18:11.000Z</time>
      </trkpt>
      <trkpt lat="44.81184" lon="0.84191">
        <ele>200.7</ele>
        <time>2026-05-01T15:18:12.000Z</time>
      </trkpt>
      <trkpt lat="44.81183" lon="0.84189">
        <ele>203.1</ele>
        <time>2026-05-01T15:18:13.000Z</time>
      </trkpt>
      <trkpt lat="44.81183" lon="0.84186">
        <ele>203.4</ele>
        <time>2026-05-01T15:18:14.000Z</time>
      </trkpt>
      <trkpt lat="44.81182" lon="0.84184">
        <ele>204.1</ele>
        <time>2026-05-01T15:18:15.000Z</time>
      </trkpt>
      <trkpt lat="44.81182" lon="0.8418">
        <ele>205.1</ele>
        <time>2026-05-01T15:18:16.000Z</time>
      </trkpt>
      <trkpt lat="44.81181" lon="0.84178">
        <ele>205.1</ele>
        <time>2026-05-01T15:18:17.000Z</time>
      </trkpt>
      <trkpt lat="44.81181" lon="0.84175">
        <ele>204.5</ele>
        <time>2026-05-01T15:18:18.000Z</time>
      </trkpt>
      <trkpt lat="44.8118" lon="0.84172">
        <ele>204</ele>
        <time>2026-05-01T15:18:19.000Z</time>
      </trkpt>
      <trkpt lat="44.8118" lon="0.8417">
        <ele>204</ele>
        <time>2026-05-01T15:18:20.000Z</time>
      </trkpt>
      <trkpt lat="44.8118" lon="0.84168">
        <ele>203.7</ele>
        <time>2026-05-01T15:18:21.000Z</time>
      </trkpt>
      <trkpt lat="44.8118" lon="0.84166">
        <ele>203.2</ele>
        <time>2026-05-01T15:18:22.000Z</time>
      </trkpt>
      <trkpt lat="44.8118" lon="0.84163">
        <ele>203</ele>
        <time>2026-05-01T15:18:23.000Z</time>
      </trkpt>
      <trkpt lat="44.81179" lon="0.84161">
        <ele>203.3</ele>
        <time>2026-05-01T15:18:24.000Z</time>
      </trkpt>
      <trkpt lat="44.81179" lon="0.84159">
        <ele>203.1</ele>
        <time>2026-05-01T15:18:25.000Z</time>
      </trkpt>
      <trkpt lat="44.81179" lon="0.84156">
        <ele>203.9</ele>
        <time>2026-05-01T15:18:26.000Z</time>
      </trkpt>
      <trkpt lat="44.81179" lon="0.84152">
        <ele>204.2</ele>
        <time>2026-05-01T15:18:27.000Z</time>
      </trkpt>
      <trkpt lat="44.81179" lon="0.84149">
        <ele>204.4</ele>
        <time>2026-05-01T15:18:28.000Z</time>
      </trkpt>
      <trkpt lat="44.81179" lon="0.84146">
        <ele>204.3</ele>
        <time>2026-05-01T15:18:29.000Z</time>
      </trkpt>
      <trkpt lat="44.81179" lon="0.84143">
        <ele>203.2</ele>
        <time>2026-05-01T15:18:30.000Z</time>
      </trkpt>
      <trkpt lat="44.81179" lon="0.84141">
        <ele>202.5</ele>
        <time>2026-05-01T15:18:31.000Z</time>
      </trkpt>
      <trkpt lat="44.81179" lon="0.84137">
        <ele>202.7</ele>
        <time>2026-05-01T15:18:32.000Z</time>
      </trkpt>
      <trkpt lat="44.81179" lon="0.84134">
        <ele>202.9</ele>
        <time>2026-05-01T15:18:33.000Z</time>
      </trkpt>
      <trkpt lat="44.81178" lon="0.84131">
        <ele>204.2</ele>
        <time>2026-05-01T15:18:34.000Z</time>
      </trkpt>
      <trkpt lat="44.81178" lon="0.84128">
        <ele>204.4</ele>
        <time>2026-05-01T15:18:35.000Z</time>
      </trkpt>
      <trkpt lat="44.81178" lon="0.84125">
        <ele>204.3</ele>
        <time>2026-05-01T15:18:36.000Z</time>
      </trkpt>
      <trkpt lat="44.81178" lon="0.84123">
        <ele>204.1</ele>
        <time>2026-05-01T15:18:37.000Z</time>
      </trkpt>
      <trkpt lat="44.81178" lon="0.8412">
        <ele>205.4</ele>
        <time>2026-05-01T15:18:38.000Z</time>
      </trkpt>
      <trkpt lat="44.81178" lon="0.84117">
        <ele>206</ele>
        <time>2026-05-01T15:18:39.000Z</time>
      </trkpt>
      <trkpt lat="44.81179" lon="0.84114">
        <ele>206.3</ele>
        <time>2026-05-01T15:18:40.000Z</time>
      </trkpt>
      <trkpt lat="44.8118" lon="0.84111">
        <ele>206.8</ele>
        <time>2026-05-01T15:18:41.000Z</time>
      </trkpt>
      <trkpt lat="44.8118" lon="0.84109">
        <ele>206.4</ele>
        <time>2026-05-01T15:18:42.000Z</time>
      </trkpt>
      <trkpt lat="44.81181" lon="0.84107">
        <ele>205.3</ele>
        <time>2026-05-01T15:18:43.000Z</time>
      </trkpt>
      <trkpt lat="44.81181" lon="0.84104">
        <ele>205.2</ele>
        <time>2026-05-01T15:18:44.000Z</time>
      </trkpt>
      <trkpt lat="44.81182" lon="0.84102">
        <ele>206.2</ele>
        <time>2026-05-01T15:18:45.000Z</time>
      </trkpt>
      <trkpt lat="44.81184" lon="0.84101">
        <ele>206.5</ele>
        <time>2026-05-01T15:18:46.000Z</time>
      </trkpt>
      <trkpt lat="44.81186" lon="0.84103">
        <ele>206.7</ele>
        <time>2026-05-01T15:18:47.000Z</time>
      </trkpt>
      <trkpt lat="44.81187" lon="0.841">
        <ele>206.8</ele>
        <time>2026-05-01T15:18:48.000Z</time>
      </trkpt>
      <trkpt lat="44.81187" lon="0.84098">
        <ele>207.2</ele>
        <time>2026-05-01T15:18:49.000Z</time>
      </trkpt>
      <trkpt lat="44.81186" lon="0.84096">
        <ele>207.3</ele>
        <time>2026-05-01T15:18:50.000Z</time>
      </trkpt>
      <trkpt lat="44.81186" lon="0.84093">
        <ele>207.2</ele>
        <time>2026-05-01T15:18:51.000Z</time>
      </trkpt>
      <trkpt lat="44.81186" lon="0.84091">
        <ele>206.9</ele>
        <time>2026-05-01T15:18:52.000Z</time>
      </trkpt>
      <trkpt lat="44.81186" lon="0.84089">
        <ele>206.6</ele>
        <time>2026-05-01T15:18:53.000Z</time>
      </trkpt>
      <trkpt lat="44.81185" lon="0.84088">
        <ele>206.2</ele>
        <time>2026-05-01T15:18:54.000Z</time>
      </trkpt>
      <trkpt lat="44.81185" lon="0.84086">
        <ele>205.8</ele>
        <time>2026-05-01T15:18:55.000Z</time>
      </trkpt>
      <trkpt lat="44.81185" lon="0.84083">
        <ele>206.1</ele>
        <time>2026-05-01T15:18:56.000Z</time>
      </trkpt>
      <trkpt lat="44.81185" lon="0.8408">
        <ele>205.8</ele>
        <time>2026-05-01T15:18:57.000Z</time>
      </trkpt>
      <trkpt lat="44.81185" lon="0.84078">
        <ele>206.4</ele>
        <time>2026-05-01T15:18:58.000Z</time>
      </trkpt>
      <trkpt lat="44.81184" lon="0.84076">
        <ele>206.4</ele>
        <time>2026-05-01T15:18:59.000Z</time>
      </trkpt>
      <trkpt lat="44.81183" lon="0.84074">
        <ele>206.7</ele>
        <time>2026-05-01T15:19:00.000Z</time>
      </trkpt>
      <trkpt lat="44.81182" lon="0.84073">
        <ele>207.2</ele>
        <time>2026-05-01T15:19:01.000Z</time>
      </trkpt>
      <trkpt lat="44.8118" lon="0.84071">
        <ele>207.4</ele>
        <time>2026-05-01T15:19:02.000Z</time>
      </trkpt>
      <trkpt lat="44.81179" lon="0.84071">
        <ele>207.3</ele>
        <time>2026-05-01T15:19:03.000Z</time>
      </trkpt>
      <trkpt lat="44.81177" lon="0.8407">
        <ele>207.6</ele>
        <time>2026-05-01T15:19:04.000Z</time>
      </trkpt>
      <trkpt lat="44.81175" lon="0.84071">
        <ele>207.9</ele>
        <time>2026-05-01T15:19:05.000Z</time>
      </trkpt>
      <trkpt lat="44.81174" lon="0.84071">
        <ele>207.7</ele>
        <time>2026-05-01T15:19:06.000Z</time>
      </trkpt>
      <trkpt lat="44.81172" lon="0.84071">
        <ele>208</ele>
        <time>2026-05-01T15:19:07.000Z</time>
      </trkpt>
      <trkpt lat="44.8117" lon="0.8407">
        <ele>208.4</ele>
        <time>2026-05-01T15:19:08.000Z</time>
      </trkpt>
      <trkpt lat="44.81168" lon="0.8407">
        <ele>208.4</ele>
        <time>2026-05-01T15:19:09.000Z</time>
      </trkpt>
      <trkpt lat="44.81167" lon="0.8407">
        <ele>208.6</ele>
        <time>2026-05-01T15:19:10.000Z</time>
      </trkpt>
      <trkpt lat="44.81165" lon="0.8407">
        <ele>208.6</ele>
        <time>2026-05-01T15:19:11.000Z</time>
      </trkpt>
      <trkpt lat="44.81163" lon="0.8407">
        <ele>208.6</ele>
        <time>2026-05-01T15:19:12.000Z</time>
      </trkpt>
      <trkpt lat="44.81162" lon="0.8407">
        <ele>208.7</ele>
        <time>2026-05-01T15:19:13.000Z</time>
      </trkpt>
      <trkpt lat="44.8116" lon="0.8407">
        <ele>209</ele>
        <time>2026-05-01T15:19:14.000Z</time>
      </trkpt>
      <trkpt lat="44.81159" lon="0.8407">
        <ele>209.5</ele>
        <time>2026-05-01T15:19:15.000Z</time>
      </trkpt>
      <trkpt lat="44.81157" lon="0.84069">
        <ele>209.6</ele>
        <time>2026-05-01T15:19:16.000Z</time>
      </trkpt>
      <trkpt lat="44.81156" lon="0.84069">
        <ele>210</ele>
        <time>2026-05-01T15:19:17.000Z</time>
      </trkpt>
      <trkpt lat="44.81154" lon="0.84069">
        <ele>210.3</ele>
        <time>2026-05-01T15:19:18.000Z</time>
      </trkpt>
      <trkpt lat="44.81153" lon="0.84069">
        <ele>210.5</ele>
        <time>2026-05-01T15:19:19.000Z</time>
      </trkpt>
      <trkpt lat="44.81152" lon="0.84068">
        <ele>210.5</ele>
        <time>2026-05-01T15:19:20.000Z</time>
      </trkpt>
      <trkpt lat="44.81151" lon="0.84068">
        <ele>210.6</ele>
        <time>2026-05-01T15:19:21.000Z</time>
      </trkpt>
      <trkpt lat="44.81149" lon="0.84069">
        <ele>210.5</ele>
        <time>2026-05-01T15:19:22.000Z</time>
      </trkpt>
      <trkpt lat="44.81148" lon="0.84068">
        <ele>211</ele>
        <time>2026-05-01T15:19:23.000Z</time>
      </trkpt>
      <trkpt lat="44.81146" lon="0.84068">
        <ele>211.1</ele>
        <time>2026-05-01T15:19:24.000Z</time>
      </trkpt>
      <trkpt lat="44.81145" lon="0.84068">
        <ele>211.1</ele>
        <time>2026-05-01T15:19:25.000Z</time>
      </trkpt>
      <trkpt lat="44.81143" lon="0.84067">
        <ele>210.9</ele>
        <time>2026-05-01T15:19:26.000Z</time>
      </trkpt>
      <trkpt lat="44.81142" lon="0.84065">
        <ele>211.4</ele>
        <time>2026-05-01T15:19:27.000Z</time>
      </trkpt>
      <trkpt lat="44.81142" lon="0.84064">
        <ele>211.3</ele>
        <time>2026-05-01T15:19:28.000Z</time>
      </trkpt>
      <trkpt lat="44.81142" lon="0.84064">
        <ele>211.5</ele>
        <time>2026-05-01T15:19:29.000Z</time>
      </trkpt>
      <trkpt lat="44.81142" lon="0.84064">
        <ele>211.5</ele>
        <time>2026-05-01T15:19:30.000Z</time>
      </trkpt>
      <trkpt lat="44.81142" lon="0.84064">
        <ele>211.5</ele>
        <time>2026-05-01T15:19:31.000Z</time>
      </trkpt>
      <trkpt lat="44.81142" lon="0.84064">
        <ele>211.5</ele>
        <time>2026-05-01T15:19:32.000Z</time>
      </trkpt>
      <trkpt lat="44.81142" lon="0.84064">
        <ele>211.5</ele>
        <time>2026-05-01T15:19:33.000Z</time>
      </trkpt>
      <trkpt lat="44.81142" lon="0.84064">
        <ele>211.5</ele>
        <time>2026-05-01T15:19:34.000Z</time>
      </trkpt>
      <trkpt lat="44.81142" lon="0.84063">
        <ele>211.4</ele>
        <time>2026-05-01T15:19:35.000Z</time>
      </trkpt>
      <trkpt lat="44.81142" lon="0.84063">
        <ele>211.4</ele>
        <time>2026-05-01T15:19:36.000Z</time>
      </trkpt>
      <trkpt lat="44.81142" lon="0.84063">
        <ele>211.4</ele>
        <time>2026-05-01T15:19:37.000Z</time>
      </trkpt>
      <trkpt lat="44.81142" lon="0.84063">
        <ele>211.4</ele>
        <time>2026-05-01T15:19:38.000Z</time>
      </trkpt>
      <trkpt lat="44.81142" lon="0.84064">
        <ele>211.1</ele>
        <time>2026-05-01T15:19:39.000Z</time>
      </trkpt>
      <trkpt lat="44.81142" lon="0.84064">
        <ele>211</ele>
        <time>2026-05-01T15:19:40.000Z</time>
      </trkpt>
      <trkpt lat="44.81141" lon="0.84064">
        <ele>211</ele>
        <time>2026-05-01T15:19:41.000Z</time>
      </trkpt>
      <trkpt lat="44.81139" lon="0.84064">
        <ele>211.3</ele>
        <time>2026-05-01T15:19:42.000Z</time>
      </trkpt>
      <trkpt lat="44.81138" lon="0.84064">
        <ele>211.3</ele>
        <time>2026-05-01T15:19:43.000Z</time>
      </trkpt>
      <trkpt lat="44.81136" lon="0.84064">
        <ele>211</ele>
        <time>2026-05-01T15:19:44.000Z</time>
      </trkpt>
      <trkpt lat="44.81135" lon="0.84064">
        <ele>211</ele>
        <time>2026-05-01T15:19:45.000Z</time>
      </trkpt>
      <trkpt lat="44.81134" lon="0.84065">
        <ele>210.5</ele>
        <time>2026-05-01T15:19:46.000Z</time>
      </trkpt>
      <trkpt lat="44.81132" lon="0.84065">
        <ele>210.5</ele>
        <time>2026-05-01T15:19:47.000Z</time>
      </trkpt>
      <trkpt lat="44.8113" lon="0.84064">
        <ele>210.2</ele>
        <time>2026-05-01T15:19:48.000Z</time>
      </trkpt>
      <trkpt lat="44.81129" lon="0.84064">
        <ele>210.5</ele>
        <time>2026-05-01T15:19:49.000Z</time>
      </trkpt>
      <trkpt lat="44.81128" lon="0.84063">
        <ele>210.5</ele>
        <time>2026-05-01T15:19:50.000Z</time>
      </trkpt>
      <trkpt lat="44.81126" lon="0.84062">
        <ele>210.4</ele>
        <time>2026-05-01T15:19:51.000Z</time>
      </trkpt>
      <trkpt lat="44.81125" lon="0.84062">
        <ele>210.6</ele>
        <time>2026-05-01T15:19:52.000Z</time>
      </trkpt>
      <trkpt lat="44.81123" lon="0.84061">
        <ele>210.7</ele>
        <time>2026-05-01T15:19:53.000Z</time>
      </trkpt>
      <trkpt lat="44.81122" lon="0.84061">
        <ele>211</ele>
        <time>2026-05-01T15:19:54.000Z</time>
      </trkpt>
      <trkpt lat="44.8112" lon="0.84061">
        <ele>211.3</ele>
        <time>2026-05-01T15:19:55.000Z</time>
      </trkpt>
      <trkpt lat="44.81119" lon="0.84061">
        <ele>211.3</ele>
        <time>2026-05-01T15:19:56.000Z</time>
      </trkpt>
      <trkpt lat="44.81117" lon="0.84061">
        <ele>211.2</ele>
        <time>2026-05-01T15:19:57.000Z</time>
      </trkpt>
      <trkpt lat="44.81116" lon="0.84061">
        <ele>211.2</ele>
        <time>2026-05-01T15:19:58.000Z</time>
      </trkpt>
      <trkpt lat="44.81114" lon="0.8406">
        <ele>211.6</ele>
        <time>2026-05-01T15:19:59.000Z</time>
      </trkpt>
      <trkpt lat="44.81112" lon="0.8406">
        <ele>211.6</ele>
        <time>2026-05-01T15:20:00.000Z</time>
      </trkpt>
      <trkpt lat="44.81111" lon="0.8406">
        <ele>211.7</ele>
        <time>2026-05-01T15:20:01.000Z</time>
      </trkpt>
      <trkpt lat="44.81109" lon="0.84059">
        <ele>211.7</ele>
        <time>2026-05-01T15:20:02.000Z</time>
      </trkpt>
      <trkpt lat="44.81108" lon="0.84059">
        <ele>211.8</ele>
        <time>2026-05-01T15:20:03.000Z</time>
      </trkpt>
      <trkpt lat="44.81106" lon="0.84059">
        <ele>212.1</ele>
        <time>2026-05-01T15:20:04.000Z</time>
      </trkpt>
      <trkpt lat="44.81105" lon="0.84058">
        <ele>212</ele>
        <time>2026-05-01T15:20:05.000Z</time>
      </trkpt>
      <trkpt lat="44.81104" lon="0.84058">
        <ele>211.9</ele>
        <time>2026-05-01T15:20:06.000Z</time>
      </trkpt>
      <trkpt lat="44.81102" lon="0.84058">
        <ele>211.8</ele>
        <time>2026-05-01T15:20:07.000Z</time>
      </trkpt>
      <trkpt lat="44.81101" lon="0.84058">
        <ele>211.7</ele>
        <time>2026-05-01T15:20:08.000Z</time>
      </trkpt>
      <trkpt lat="44.81099" lon="0.84058">
        <ele>211.8</ele>
        <time>2026-05-01T15:20:09.000Z</time>
      </trkpt>
      <trkpt lat="44.81097" lon="0.84058">
        <ele>211.6</ele>
        <time>2026-05-01T15:20:10.000Z</time>
      </trkpt>
      <trkpt lat="44.81096" lon="0.84058">
        <ele>211.6</ele>
        <time>2026-05-01T15:20:11.000Z</time>
      </trkpt>
      <trkpt lat="44.81094" lon="0.84057">
        <ele>211.6</ele>
        <time>2026-05-01T15:20:12.000Z</time>
      </trkpt>
      <trkpt lat="44.81093" lon="0.84057">
        <ele>211.6</ele>
        <time>2026-05-01T15:20:13.000Z</time>
      </trkpt>
      <trkpt lat="44.81091" lon="0.84058">
        <ele>211.9</ele>
        <time>2026-05-01T15:20:14.000Z</time>
      </trkpt>
      <trkpt lat="44.8109" lon="0.84058">
        <ele>212.1</ele>
        <time>2026-05-01T15:20:15.000Z</time>
      </trkpt>
      <trkpt lat="44.81089" lon="0.84057">
        <ele>212</ele>
        <time>2026-05-01T15:20:16.000Z</time>
      </trkpt>
      <trkpt lat="44.81087" lon="0.84057">
        <ele>212.1</ele>
        <time>2026-05-01T15:20:17.000Z</time>
      </trkpt>
      <trkpt lat="44.81085" lon="0.84057">
        <ele>212.3</ele>
        <time>2026-05-01T15:20:18.000Z</time>
      </trkpt>
      <trkpt lat="44.81083" lon="0.84057">
        <ele>212.6</ele>
        <time>2026-05-01T15:20:19.000Z</time>
      </trkpt>
      <trkpt lat="44.81082" lon="0.84056">
        <ele>212.9</ele>
        <time>2026-05-01T15:20:20.000Z</time>
      </trkpt>
      <trkpt lat="44.8108" lon="0.84056">
        <ele>212.8</ele>
        <time>2026-05-01T15:20:21.000Z</time>
      </trkpt>
      <trkpt lat="44.81079" lon="0.84056">
        <ele>212.5</ele>
        <time>2026-05-01T15:20:22.000Z</time>
      </trkpt>
      <trkpt lat="44.81077" lon="0.84056">
        <ele>212.6</ele>
        <time>2026-05-01T15:20:23.000Z</time>
      </trkpt>
      <trkpt lat="44.81075" lon="0.84055">
        <ele>212.8</ele>
        <time>2026-05-01T15:20:24.000Z</time>
      </trkpt>
      <trkpt lat="44.81074" lon="0.84055">
        <ele>212.9</ele>
        <time>2026-05-01T15:20:25.000Z</time>
      </trkpt>
      <trkpt lat="44.81072" lon="0.84054">
        <ele>213.3</ele>
        <time>2026-05-01T15:20:26.000Z</time>
      </trkpt>
      <trkpt lat="44.81071" lon="0.84054">
        <ele>214</ele>
        <time>2026-05-01T15:20:27.000Z</time>
      </trkpt>
      <trkpt lat="44.81069" lon="0.84053">
        <ele>214.4</ele>
        <time>2026-05-01T15:20:28.000Z</time>
      </trkpt>
      <trkpt lat="44.81068" lon="0.84052">
        <ele>214.7</ele>
        <time>2026-05-01T15:20:29.000Z</time>
      </trkpt>
      <trkpt lat="44.81067" lon="0.84051">
        <ele>214.8</ele>
        <time>2026-05-01T15:20:30.000Z</time>
      </trkpt>
      <trkpt lat="44.81065" lon="0.8405">
        <ele>215</ele>
        <time>2026-05-01T15:20:31.000Z</time>
      </trkpt>
      <trkpt lat="44.81064" lon="0.84049">
        <ele>215.1</ele>
        <time>2026-05-01T15:20:32.000Z</time>
      </trkpt>
      <trkpt lat="44.81063" lon="0.84048">
        <ele>215.1</ele>
        <time>2026-05-01T15:20:33.000Z</time>
      </trkpt>
      <trkpt lat="44.81061" lon="0.84047">
        <ele>215.2</ele>
        <time>2026-05-01T15:20:34.000Z</time>
      </trkpt>
      <trkpt lat="44.8106" lon="0.84046">
        <ele>215.3</ele>
        <time>2026-05-01T15:20:35.000Z</time>
      </trkpt>
      <trkpt lat="44.81058" lon="0.84045">
        <ele>215.3</ele>
        <time>2026-05-01T15:20:36.000Z</time>
      </trkpt>
      <trkpt lat="44.81057" lon="0.84044">
        <ele>215.3</ele>
        <time>2026-05-01T15:20:37.000Z</time>
      </trkpt>
      <trkpt lat="44.81056" lon="0.84043">
        <ele>215.5</ele>
        <time>2026-05-01T15:20:38.000Z</time>
      </trkpt>
      <trkpt lat="44.81054" lon="0.84042">
        <ele>215.7</ele>
        <time>2026-05-01T15:20:39.000Z</time>
      </trkpt>
      <trkpt lat="44.81053" lon="0.8404">
        <ele>216</ele>
        <time>2026-05-01T15:20:40.000Z</time>
      </trkpt>
      <trkpt lat="44.81052" lon="0.84039">
        <ele>215.9</ele>
        <time>2026-05-01T15:20:41.000Z</time>
      </trkpt>
      <trkpt lat="44.8105" lon="0.84038">
        <ele>215.7</ele>
        <time>2026-05-01T15:20:42.000Z</time>
      </trkpt>
      <trkpt lat="44.81049" lon="0.84037">
        <ele>215.5</ele>
        <time>2026-05-01T15:20:43.000Z</time>
      </trkpt>
      <trkpt lat="44.81047" lon="0.84035">
        <ele>215.6</ele>
        <time>2026-05-01T15:20:44.000Z</time>
      </trkpt>
      <trkpt lat="44.81046" lon="0.84033">
        <ele>215.2</ele>
        <time>2026-05-01T15:20:45.000Z</time>
      </trkpt>
      <trkpt lat="44.81044" lon="0.84029">
        <ele>215.2</ele>
        <time>2026-05-01T15:20:46.000Z</time>
      </trkpt>
      <trkpt lat="44.81043" lon="0.84026">
        <ele>215.2</ele>
        <time>2026-05-01T15:20:47.000Z</time>
      </trkpt>
      <trkpt lat="44.81041" lon="0.84023">
        <ele>214.9</ele>
        <time>2026-05-01T15:20:48.000Z</time>
      </trkpt>
      <trkpt lat="44.81039" lon="0.8402">
        <ele>215.4</ele>
        <time>2026-05-01T15:20:49.000Z</time>
      </trkpt>
      <trkpt lat="44.81035" lon="0.84017">
        <ele>215.3</ele>
        <time>2026-05-01T15:20:50.000Z</time>
      </trkpt>
      <trkpt lat="44.81032" lon="0.84014">
        <ele>215.6</ele>
        <time>2026-05-01T15:20:51.000Z</time>
      </trkpt>
      <trkpt lat="44.81029" lon="0.8401">
        <ele>215</ele>
        <time>2026-05-01T15:20:52.000Z</time>
      </trkpt>
      <trkpt lat="44.81025" lon="0.84006">
        <ele>215.6</ele>
        <time>2026-05-01T15:20:53.000Z</time>
      </trkpt>
      <trkpt lat="44.81021" lon="0.84002">
        <ele>215.6</ele>
        <time>2026-05-01T15:20:54.000Z</time>
      </trkpt>
      <trkpt lat="44.81017" lon="0.83999">
        <ele>215.8</ele>
        <time>2026-05-01T15:20:55.000Z</time>
      </trkpt>
      <trkpt lat="44.81011" lon="0.83995">
        <ele>217.2</ele>
        <time>2026-05-01T15:20:56.000Z</time>
      </trkpt>
      <trkpt lat="44.81005" lon="0.83993">
        <ele>217.6</ele>
        <time>2026-05-01T15:20:57.000Z</time>
      </trkpt>
      <trkpt lat="44.80999" lon="0.83992">
        <ele>217.3</ele>
        <time>2026-05-01T15:20:58.000Z</time>
      </trkpt>
      <trkpt lat="44.80993" lon="0.83992">
        <ele>217.4</ele>
        <time>2026-05-01T15:20:59.000Z</time>
      </trkpt>
      <trkpt lat="44.80987" lon="0.83991">
        <ele>217.2</ele>
        <time>2026-05-01T15:21:00.000Z</time>
      </trkpt>
      <trkpt lat="44.80981" lon="0.8399">
        <ele>217</ele>
        <time>2026-05-01T15:21:01.000Z</time>
      </trkpt>
      <trkpt lat="44.80974" lon="0.8399">
        <ele>217.6</ele>
        <time>2026-05-01T15:21:02.000Z</time>
      </trkpt>
      <trkpt lat="44.80969" lon="0.83986">
        <ele>218.7</ele>
        <time>2026-05-01T15:21:03.000Z</time>
      </trkpt>
      <trkpt lat="44.80965" lon="0.83982">
        <ele>219.3</ele>
        <time>2026-05-01T15:21:04.000Z</time>
      </trkpt>
      <trkpt lat="44.8096" lon="0.83979">
        <ele>218.9</ele>
        <time>2026-05-01T15:21:05.000Z</time>
      </trkpt>
      <trkpt lat="44.80956" lon="0.83974">
        <ele>219.4</ele>
        <time>2026-05-01T15:21:06.000Z</time>
      </trkpt>
      <trkpt lat="44.80952" lon="0.83971">
        <ele>220.2</ele>
        <time>2026-05-01T15:21:07.000Z</time>
      </trkpt>
      <trkpt lat="44.80947" lon="0.83968">
        <ele>220.6</ele>
        <time>2026-05-01T15:21:08.000Z</time>
      </trkpt>
      <trkpt lat="44.80943" lon="0.83966">
        <ele>221.2</ele>
        <time>2026-05-01T15:21:09.000Z</time>
      </trkpt>
      <trkpt lat="44.80939" lon="0.83962">
        <ele>222.2</ele>
        <time>2026-05-01T15:21:10.000Z</time>
      </trkpt>
      <trkpt lat="44.80935" lon="0.83958">
        <ele>222.3</ele>
        <time>2026-05-01T15:21:11.000Z</time>
      </trkpt>
      <trkpt lat="44.80931" lon="0.83955">
        <ele>222.9</ele>
        <time>2026-05-01T15:21:12.000Z</time>
      </trkpt>
      <trkpt lat="44.80927" lon="0.83952">
        <ele>223.3</ele>
        <time>2026-05-01T15:21:13.000Z</time>
      </trkpt>
      <trkpt lat="44.80922" lon="0.83947">
        <ele>224</ele>
        <time>2026-05-01T15:21:14.000Z</time>
      </trkpt>
      <trkpt lat="44.80917" lon="0.83942">
        <ele>224.1</ele>
        <time>2026-05-01T15:21:15.000Z</time>
      </trkpt>
      <trkpt lat="44.80913" lon="0.83938">
        <ele>224.9</ele>
        <time>2026-05-01T15:21:16.000Z</time>
      </trkpt>
      <trkpt lat="44.80909" lon="0.83932">
        <ele>224.7</ele>
        <time>2026-05-01T15:21:17.000Z</time>
      </trkpt>
      <trkpt lat="44.80907" lon="0.83926">
        <ele>225</ele>
        <time>2026-05-01T15:21:18.000Z</time>
      </trkpt>
      <trkpt lat="44.80904" lon="0.8392">
        <ele>224.7</ele>
        <time>2026-05-01T15:21:19.000Z</time>
      </trkpt>
      <trkpt lat="44.80901" lon="0.83913">
        <ele>225.4</ele>
        <time>2026-05-01T15:21:20.000Z</time>
      </trkpt>
      <trkpt lat="44.80898" lon="0.83907">
        <ele>226.6</ele>
        <time>2026-05-01T15:21:21.000Z</time>
      </trkpt>
      <trkpt lat="44.80895" lon="0.83902">
        <ele>227.5</ele>
        <time>2026-05-01T15:21:22.000Z</time>
      </trkpt>
      <trkpt lat="44.80891" lon="0.83898">
        <ele>228.8</ele>
        <time>2026-05-01T15:21:23.000Z</time>
      </trkpt>
      <trkpt lat="44.80887" lon="0.83894">
        <ele>229.4</ele>
        <time>2026-05-01T15:21:24.000Z</time>
      </trkpt>
      <trkpt lat="44.80882" lon="0.83891">
        <ele>229.5</ele>
        <time>2026-05-01T15:21:25.000Z</time>
      </trkpt>
      <trkpt lat="44.80878" lon="0.83888">
        <ele>229.2</ele>
        <time>2026-05-01T15:21:26.000Z</time>
      </trkpt>
      <trkpt lat="44.80873" lon="0.83886">
        <ele>229.7</ele>
        <time>2026-05-01T15:21:27.000Z</time>
      </trkpt>
      <trkpt lat="44.80869" lon="0.83884">
        <ele>229.8</ele>
        <time>2026-05-01T15:21:28.000Z</time>
      </trkpt>
      <trkpt lat="44.80864" lon="0.8388">
        <ele>229.6</ele>
        <time>2026-05-01T15:21:29.000Z</time>
      </trkpt>
      <trkpt lat="44.8086" lon="0.83876">
        <ele>228</ele>
        <time>2026-05-01T15:21:30.000Z</time>
      </trkpt>
      <trkpt lat="44.80857" lon="0.83872">
        <ele>227</ele>
        <time>2026-05-01T15:21:31.000Z</time>
      </trkpt>
      <trkpt lat="44.80854" lon="0.83871">
        <ele>225.6</ele>
        <time>2026-05-01T15:21:32.000Z</time>
      </trkpt>
      <trkpt lat="44.8085" lon="0.83867">
        <ele>225</ele>
        <time>2026-05-01T15:21:33.000Z</time>
      </trkpt>
      <trkpt lat="44.80848" lon="0.83865">
        <ele>224.6</ele>
        <time>2026-05-01T15:21:34.000Z</time>
      </trkpt>
      <trkpt lat="44.80842" lon="0.8386">
        <ele>226.1</ele>
        <time>2026-05-01T15:21:36.000Z</time>
      </trkpt>
      <trkpt lat="44.80839" lon="0.83858">
        <ele>226.9</ele>
        <time>2026-05-01T15:21:37.000Z</time>
      </trkpt>
      <trkpt lat="44.80838" lon="0.83856">
        <ele>227.1</ele>
        <time>2026-05-01T15:21:38.000Z</time>
      </trkpt>
      <trkpt lat="44.80836" lon="0.83855">
        <ele>228</ele>
        <time>2026-05-01T15:21:39.000Z</time>
      </trkpt>
      <trkpt lat="44.80835" lon="0.83853">
        <ele>228.5</ele>
        <time>2026-05-01T15:21:40.000Z</time>
      </trkpt>
      <trkpt lat="44.80833" lon="0.83851">
        <ele>229.7</ele>
        <time>2026-05-01T15:21:41.000Z</time>
      </trkpt>
      <trkpt lat="44.80831" lon="0.83849">
        <ele>229</ele>
        <time>2026-05-01T15:21:42.000Z</time>
      </trkpt>
      <trkpt lat="44.80828" lon="0.83848">
        <ele>228.9</ele>
        <time>2026-05-01T15:21:43.000Z</time>
      </trkpt>
      <trkpt lat="44.80825" lon="0.83846">
        <ele>228.9</ele>
        <time>2026-05-01T15:21:44.000Z</time>
      </trkpt>
      <trkpt lat="44.80821" lon="0.83844">
        <ele>228.1</ele>
        <time>2026-05-01T15:21:45.000Z</time>
      </trkpt>
      <trkpt lat="44.80819" lon="0.83842">
        <ele>228.6</ele>
        <time>2026-05-01T15:21:46.000Z</time>
      </trkpt>
      <trkpt lat="44.80817" lon="0.8384">
        <ele>228.5</ele>
        <time>2026-05-01T15:21:47.000Z</time>
      </trkpt>
      <trkpt lat="44.80815" lon="0.83837">
        <ele>228.6</ele>
        <time>2026-05-01T15:21:48.000Z</time>
      </trkpt>
      <trkpt lat="44.80812" lon="0.83836">
        <ele>229.6</ele>
        <time>2026-05-01T15:21:49.000Z</time>
      </trkpt>
      <trkpt lat="44.8081" lon="0.83834">
        <ele>230.3</ele>
        <time>2026-05-01T15:21:50.000Z</time>
      </trkpt>
      <trkpt lat="44.80807" lon="0.83833">
        <ele>230.2</ele>
        <time>2026-05-01T15:21:51.000Z</time>
      </trkpt>
      <trkpt lat="44.80805" lon="0.83831">
        <ele>230.4</ele>
        <time>2026-05-01T15:21:52.000Z</time>
      </trkpt>
      <trkpt lat="44.80803" lon="0.83828">
        <ele>230.5</ele>
        <time>2026-05-01T15:21:53.000Z</time>
      </trkpt>
      <trkpt lat="44.808" lon="0.83827">
        <ele>231</ele>
        <time>2026-05-01T15:21:54.000Z</time>
      </trkpt>
      <trkpt lat="44.80798" lon="0.83825">
        <ele>231.2</ele>
        <time>2026-05-01T15:21:55.000Z</time>
      </trkpt>
      <trkpt lat="44.80796" lon="0.83824">
        <ele>230.6</ele>
        <time>2026-05-01T15:21:56.000Z</time>
      </trkpt>
      <trkpt lat="44.80794" lon="0.83823">
        <ele>230.8</ele>
        <time>2026-05-01T15:21:57.000Z</time>
      </trkpt>
      <trkpt lat="44.80792" lon="0.83821">
        <ele>230.5</ele>
        <time>2026-05-01T15:21:58.000Z</time>
      </trkpt>
      <trkpt lat="44.8079" lon="0.83819">
        <ele>230.3</ele>
        <time>2026-05-01T15:21:59.000Z</time>
      </trkpt>
      <trkpt lat="44.80788" lon="0.83817">
        <ele>230.3</ele>
        <time>2026-05-01T15:22:00.000Z</time>
      </trkpt>
      <trkpt lat="44.80786" lon="0.83816">
        <ele>230.3</ele>
        <time>2026-05-01T15:22:01.000Z</time>
      </trkpt>
      <trkpt lat="44.80785" lon="0.83814">
        <ele>230.2</ele>
        <time>2026-05-01T15:22:02.000Z</time>
      </trkpt>
      <trkpt lat="44.80783" lon="0.83812">
        <ele>229.9</ele>
        <time>2026-05-01T15:22:03.000Z</time>
      </trkpt>
      <trkpt lat="44.80782" lon="0.83811">
        <ele>229.4</ele>
        <time>2026-05-01T15:22:04.000Z</time>
      </trkpt>
      <trkpt lat="44.8078" lon="0.8381">
        <ele>229.4</ele>
        <time>2026-05-01T15:22:05.000Z</time>
      </trkpt>
      <trkpt lat="44.80778" lon="0.83808">
        <ele>229.3</ele>
        <time>2026-05-01T15:22:06.000Z</time>
      </trkpt>
      <trkpt lat="44.80777" lon="0.83807">
        <ele>229.2</ele>
        <time>2026-05-01T15:22:07.000Z</time>
      </trkpt>
      <trkpt lat="44.80775" lon="0.83805">
        <ele>229.1</ele>
        <time>2026-05-01T15:22:08.000Z</time>
      </trkpt>
      <trkpt lat="44.80774" lon="0.83803">
        <ele>228.9</ele>
        <time>2026-05-01T15:22:09.000Z</time>
      </trkpt>
      <trkpt lat="44.80773" lon="0.83801">
        <ele>229</ele>
        <time>2026-05-01T15:22:10.000Z</time>
      </trkpt>
      <trkpt lat="44.80772" lon="0.83799">
        <ele>229</ele>
        <time>2026-05-01T15:22:11.000Z</time>
      </trkpt>
      <trkpt lat="44.8077" lon="0.83797">
        <ele>229</ele>
        <time>2026-05-01T15:22:12.000Z</time>
      </trkpt>
      <trkpt lat="44.80769" lon="0.83796">
        <ele>229</ele>
        <time>2026-05-01T15:22:13.000Z</time>
      </trkpt>
      <trkpt lat="44.80768" lon="0.83794">
        <ele>229</ele>
        <time>2026-05-01T15:22:14.000Z</time>
      </trkpt>
      <trkpt lat="44.80767" lon="0.83793">
        <ele>229</ele>
        <time>2026-05-01T15:22:15.000Z</time>
      </trkpt>
      <trkpt lat="44.80766" lon="0.83793">
        <ele>228.9</ele>
        <time>2026-05-01T15:22:16.000Z</time>
      </trkpt>
      <trkpt lat="44.80766" lon="0.83793">
        <ele>228.7</ele>
        <time>2026-05-01T15:22:17.000Z</time>
      </trkpt>
      <trkpt lat="44.80767" lon="0.83794">
        <ele>228.4</ele>
        <time>2026-05-01T15:22:18.000Z</time>
      </trkpt>
      <trkpt lat="44.80767" lon="0.83794">
        <ele>228.4</ele>
        <time>2026-05-01T15:22:19.000Z</time>
      </trkpt>
      <trkpt lat="44.80767" lon="0.83794">
        <ele>228.3</ele>
        <time>2026-05-01T15:22:20.000Z</time>
      </trkpt>
      <trkpt lat="44.80767" lon="0.83794">
        <ele>228.3</ele>
        <time>2026-05-01T15:22:21.000Z</time>
      </trkpt>
      <trkpt lat="44.80767" lon="0.83794">
        <ele>228.3</ele>
        <time>2026-05-01T15:22:22.000Z</time>
      </trkpt>
      <trkpt lat="44.80767" lon="0.83795">
        <ele>228.3</ele>
        <time>2026-05-01T15:22:23.000Z</time>
      </trkpt>
      <trkpt lat="44.80767" lon="0.83795">
        <ele>228.3</ele>
        <time>2026-05-01T15:22:24.000Z</time>
      </trkpt>
      <trkpt lat="44.80767" lon="0.83795">
        <ele>228.3</ele>
        <time>2026-05-01T15:22:25.000Z</time>
      </trkpt>
      <trkpt lat="44.80767" lon="0.83795">
        <ele>228.3</ele>
        <time>2026-05-01T15:22:26.000Z</time>
      </trkpt>
      <trkpt lat="44.80767" lon="0.83795">
        <ele>228.3</ele>
        <time>2026-05-01T15:22:27.000Z</time>
      </trkpt>
      <trkpt lat="44.80767" lon="0.83795">
        <ele>228.3</ele>
        <time>2026-05-01T15:22:28.000Z</time>
      </trkpt>
      <trkpt lat="44.80767" lon="0.83795">
        <ele>228.3</ele>
        <time>2026-05-01T15:22:29.000Z</time>
      </trkpt>
      <trkpt lat="44.80767" lon="0.83795">
        <ele>228.3</ele>
        <time>2026-05-01T15:22:30.000Z</time>
      </trkpt>
      <trkpt lat="44.80767" lon="0.83795">
        <ele>228.3</ele>
        <time>2026-05-01T15:22:31.000Z</time>
      </trkpt>
      <trkpt lat="44.80767" lon="0.83795">
        <ele>228.3</ele>
        <time>2026-05-01T15:22:32.000Z</time>
      </trkpt>
      <trkpt lat="44.80767" lon="0.83795">
        <ele>228.3</ele>
        <time>2026-05-01T15:22:33.000Z</time>
      </trkpt>
      <trkpt lat="44.80767" lon="0.83795">
        <ele>228.3</ele>
        <time>2026-05-01T15:22:34.000Z</time>
      </trkpt>
      <trkpt lat="44.80767" lon="0.83795">
        <ele>228.3</ele>
        <time>2026-05-01T15:22:35.000Z</time>
      </trkpt>
      <trkpt lat="44.80767" lon="0.83795">
        <ele>228.3</ele>
        <time>2026-05-01T15:22:36.000Z</time>
      </trkpt>
      <trkpt lat="44.80767" lon="0.83795">
        <ele>228.3</ele>
        <time>2026-05-01T15:22:37.000Z</time>
      </trkpt>
      <trkpt lat="44.80767" lon="0.83795">
        <ele>228.3</ele>
        <time>2026-05-01T15:22:38.000Z</time>
      </trkpt>
      <trkpt lat="44.80767" lon="0.83795">
        <ele>228.3</ele>
        <time>2026-05-01T15:22:39.000Z</time>
      </trkpt>
      <trkpt lat="44.80767" lon="0.83795">
        <ele>228.3</ele>
        <time>2026-05-01T15:22:40.000Z</time>
      </trkpt>
      <trkpt lat="44.80767" lon="0.83795">
        <ele>228.3</ele>
        <time>2026-05-01T15:22:41.000Z</time>
      </trkpt>
      <trkpt lat="44.80767" lon="0.83795">
        <ele>228.3</ele>
        <time>2026-05-01T15:22:42.000Z</time>
      </trkpt>
      <trkpt lat="44.80767" lon="0.83795">
        <ele>228.3</ele>
        <time>2026-05-01T15:22:43.000Z</time>
      </trkpt>
      <trkpt lat="44.80767" lon="0.83795">
        <ele>228.3</ele>
        <time>2026-05-01T15:22:44.000Z</time>
      </trkpt>
      <trkpt lat="44.80767" lon="0.83795">
        <ele>228.3</ele>
        <time>2026-05-01T15:22:45.000Z</time>
      </trkpt>
      <trkpt lat="44.80767" lon="0.83795">
        <ele>228.3</ele>
        <time>2026-05-01T15:22:46.000Z</time>
      </trkpt>
      <trkpt lat="44.80767" lon="0.83795">
        <ele>228.3</ele>
        <time>2026-05-01T15:22:47.000Z</time>
      </trkpt>
      <trkpt lat="44.80767" lon="0.83795">
        <ele>228.3</ele>
        <time>2026-05-01T15:22:48.000Z</time>
      </trkpt>
      <trkpt lat="44.80767" lon="0.83795">
        <ele>228.3</ele>
        <time>2026-05-01T15:22:49.000Z</time>
      </trkpt>
      <trkpt lat="44.80767" lon="0.83795">
        <ele>228.3</ele>
        <time>2026-05-01T15:22:50.000Z</time>
      </trkpt>
      <trkpt lat="44.80767" lon="0.83795">
        <ele>228.3</ele>
        <time>2026-05-01T15:22:51.000Z</time>
      </trkpt>
      <trkpt lat="44.80767" lon="0.83795">
        <ele>228.3</ele>
        <time>2026-05-01T15:22:52.000Z</time>
      </trkpt>
      <trkpt lat="44.80767" lon="0.83795">
        <ele>228.3</ele>
        <time>2026-05-01T15:22:53.000Z</time>
      </trkpt>
      <trkpt lat="44.80767" lon="0.83795">
        <ele>228.3</ele>
        <time>2026-05-01T15:22:54.000Z</time>
      </trkpt>
      <trkpt lat="44.80767" lon="0.83795">
        <ele>228.3</ele>
        <time>2026-05-01T15:22:55.000Z</time>
      </trkpt>
      <trkpt lat="44.80767" lon="0.83795">
        <ele>228.3</ele>
        <time>2026-05-01T15:22:56.000Z</time>
      </trkpt>
      <trkpt lat="44.80767" lon="0.83795">
        <ele>228.3</ele>
        <time>2026-05-01T15:22:57.000Z</time>
      </trkpt>
      <trkpt lat="44.80767" lon="0.83795">
        <ele>228.3</ele>
        <time>2026-05-01T15:22:58.000Z</time>
      </trkpt>
      <trkpt lat="44.80767" lon="0.83795">
        <ele>228.3</ele>
        <time>2026-05-01T15:22:59.000Z</time>
      </trkpt>
      <trkpt lat="44.80767" lon="0.83795">
        <ele>228.3</ele>
        <time>2026-05-01T15:23:00.000Z</time>
      </trkpt>
      <trkpt lat="44.80767" lon="0.83795">
        <ele>228.3</ele>
        <time>2026-05-01T15:23:01.000Z</time>
      </trkpt>
      <trkpt lat="44.80767" lon="0.83795">
        <ele>228.3</ele>
        <time>2026-05-01T15:23:02.000Z</time>
      </trkpt>
      <trkpt lat="44.80767" lon="0.83795">
        <ele>228.3</ele>
        <time>2026-05-01T15:23:03.000Z</time>
      </trkpt>
      <trkpt lat="44.80767" lon="0.83795">
        <ele>228.3</ele>
        <time>2026-05-01T15:23:04.000Z</time>
      </trkpt>
      <trkpt lat="44.80767" lon="0.83795">
        <ele>228.3</ele>
        <time>2026-05-01T15:23:05.000Z</time>
      </trkpt>
      <trkpt lat="44.80767" lon="0.83795">
        <ele>228.3</ele>
        <time>2026-05-01T15:23:06.000Z</time>
      </trkpt>
      <trkpt lat="44.80767" lon="0.83795">
        <ele>228.3</ele>
        <time>2026-05-01T15:23:07.000Z</time>
      </trkpt>
      <trkpt lat="44.80767" lon="0.83795">
        <ele>228.3</ele>
        <time>2026-05-01T15:23:08.000Z</time>
      </trkpt>
      <trkpt lat="44.80767" lon="0.83795">
        <ele>228.3</ele>
        <time>2026-05-01T15:23:09.000Z</time>
      </trkpt>
      <trkpt lat="44.80767" lon="0.83795">
        <ele>228.3</ele>
        <time>2026-05-01T15:23:10.000Z</time>
      </trkpt>
      <trkpt lat="44.80767" lon="0.83795">
        <ele>228.3</ele>
        <time>2026-05-01T15:23:11.000Z</time>
      </trkpt>
      <trkpt lat="44.80767" lon="0.83795">
        <ele>228.3</ele>
        <time>2026-05-01T15:23:12.000Z</time>
      </trkpt>
      <trkpt lat="44.80767" lon="0.83795">
        <ele>228.3</ele>
        <time>2026-05-01T15:23:13.000Z</time>
      </trkpt>
      <trkpt lat="44.80767" lon="0.83795">
        <ele>228.3</ele>
        <time>2026-05-01T15:23:14.000Z</time>
      </trkpt>
      <trkpt lat="44.80767" lon="0.83795">
        <ele>228.3</ele>
        <time>2026-05-01T15:23:15.000Z</time>
      </trkpt>
      <trkpt lat="44.80767" lon="0.83795">
        <ele>228.3</ele>
        <time>2026-05-01T15:23:16.000Z</time>
      </trkpt>
      <trkpt lat="44.80767" lon="0.83795">
        <ele>228.3</ele>
        <time>2026-05-01T15:23:17.000Z</time>
      </trkpt>
      <trkpt lat="44.80767" lon="0.83795">
        <ele>228.3</ele>
        <time>2026-05-01T15:23:18.000Z</time>
      </trkpt>
      <trkpt lat="44.80767" lon="0.83795">
        <ele>228.3</ele>
        <time>2026-05-01T15:23:19.000Z</time>
      </trkpt>
      <trkpt lat="44.80767" lon="0.83795">
        <ele>228.3</ele>
        <time>2026-05-01T15:23:20.000Z</time>
      </trkpt>
      <trkpt lat="44.80767" lon="0.83795">
        <ele>228.3</ele>
        <time>2026-05-01T15:23:21.000Z</time>
      </trkpt>
      <trkpt lat="44.80767" lon="0.83795">
        <ele>228</ele>
        <time>2026-05-01T15:23:22.000Z</time>
      </trkpt>
      <trkpt lat="44.80767" lon="0.83797">
        <ele>227.8</ele>
        <time>2026-05-01T15:23:23.000Z</time>
      </trkpt>
      <trkpt lat="44.80767" lon="0.83798">
        <ele>227.7</ele>
        <time>2026-05-01T15:23:24.000Z</time>
      </trkpt>
      <trkpt lat="44.80767" lon="0.83798">
        <ele>227.8</ele>
        <time>2026-05-01T15:23:25.000Z</time>
      </trkpt>
      <trkpt lat="44.80767" lon="0.83798">
        <ele>227.7</ele>
        <time>2026-05-01T15:23:26.000Z</time>
      </trkpt>
      <trkpt lat="44.80767" lon="0.83798">
        <ele>227.7</ele>
        <time>2026-05-01T15:23:27.000Z</time>
      </trkpt>
      <trkpt lat="44.80767" lon="0.83798">
        <ele>227.7</ele>
        <time>2026-05-01T15:23:28.000Z</time>
      </trkpt>
      <trkpt lat="44.80767" lon="0.83798">
        <ele>227.7</ele>
        <time>2026-05-01T15:23:29.000Z</time>
      </trkpt>
      <trkpt lat="44.80767" lon="0.83798">
        <ele>227.7</ele>
        <time>2026-05-01T15:23:30.000Z</time>
      </trkpt>
      <trkpt lat="44.80767" lon="0.83798">
        <ele>227.7</ele>
        <time>2026-05-01T15:23:31.000Z</time>
      </trkpt>
      <trkpt lat="44.80767" lon="0.83798">
        <ele>227.7</ele>
        <time>2026-05-01T15:23:32.000Z</time>
      </trkpt>
      <trkpt lat="44.80767" lon="0.83798">
        <ele>227.7</ele>
        <time>2026-05-01T15:23:33.000Z</time>
      </trkpt>
      <trkpt lat="44.80767" lon="0.83798">
        <ele>227.7</ele>
        <time>2026-05-01T15:23:34.000Z</time>
      </trkpt>
      <trkpt lat="44.80767" lon="0.83798">
        <ele>227.7</ele>
        <time>2026-05-01T15:23:35.000Z</time>
      </trkpt>
      <trkpt lat="44.80767" lon="0.83798">
        <ele>227.7</ele>
        <time>2026-05-01T15:23:36.000Z</time>
      </trkpt>
      <trkpt lat="44.80767" lon="0.83798">
        <ele>227.7</ele>
        <time>2026-05-01T15:23:37.000Z</time>
      </trkpt>
      <trkpt lat="44.80767" lon="0.83798">
        <ele>227.7</ele>
        <time>2026-05-01T15:23:38.000Z</time>
      </trkpt>
      <trkpt lat="44.80767" lon="0.83798">
        <ele>227.8</ele>
        <time>2026-05-01T15:23:39.000Z</time>
      </trkpt>
      <trkpt lat="44.80767" lon="0.83798">
        <ele>227.8</ele>
        <time>2026-05-01T15:23:40.000Z</time>
      </trkpt>
      <trkpt lat="44.80767" lon="0.83798">
        <ele>227.8</ele>
        <time>2026-05-01T15:23:41.000Z</time>
      </trkpt>
      <trkpt lat="44.80767" lon="0.83798">
        <ele>227.8</ele>
        <time>2026-05-01T15:23:42.000Z</time>
      </trkpt>
      <trkpt lat="44.80767" lon="0.83798">
        <ele>227.8</ele>
        <time>2026-05-01T15:23:43.000Z</time>
      </trkpt>
      <trkpt lat="44.80767" lon="0.83798">
        <ele>227.8</ele>
        <time>2026-05-01T15:23:44.000Z</time>
      </trkpt>
      <trkpt lat="44.80767" lon="0.83798">
        <ele>227.8</ele>
        <time>2026-05-01T15:23:45.000Z</time>
      </trkpt>
      <trkpt lat="44.80767" lon="0.83798">
        <ele>227.8</ele>
        <time>2026-05-01T15:23:46.000Z</time>
      </trkpt>
      <trkpt lat="44.80767" lon="0.83798">
        <ele>227.8</ele>
        <time>2026-05-01T15:23:47.000Z</time>
      </trkpt>
      <trkpt lat="44.80767" lon="0.83798">
        <ele>227.8</ele>
        <time>2026-05-01T15:23:48.000Z</time>
      </trkpt>
      <trkpt lat="44.80767" lon="0.83798">
        <ele>227.8</ele>
        <time>2026-05-01T15:23:49.000Z</time>
      </trkpt>
      <trkpt lat="44.80767" lon="0.83798">
        <ele>227.8</ele>
        <time>2026-05-01T15:23:50.000Z</time>
      </trkpt>
      <trkpt lat="44.80767" lon="0.83798">
        <ele>227.8</ele>
        <time>2026-05-01T15:23:51.000Z</time>
      </trkpt>
      <trkpt lat="44.80767" lon="0.83798">
        <ele>227.8</ele>
        <time>2026-05-01T15:23:52.000Z</time>
      </trkpt>
      <trkpt lat="44.80767" lon="0.83798">
        <ele>227.8</ele>
        <time>2026-05-01T15:23:53.000Z</time>
      </trkpt>
      <trkpt lat="44.80767" lon="0.83798">
        <ele>227.8</ele>
        <time>2026-05-01T15:23:54.000Z</time>
      </trkpt>
      <trkpt lat="44.80767" lon="0.83798">
        <ele>227.8</ele>
        <time>2026-05-01T15:23:55.000Z</time>
      </trkpt>
      <trkpt lat="44.80767" lon="0.83798">
        <ele>227.8</ele>
        <time>2026-05-01T15:23:56.000Z</time>
      </trkpt>
      <trkpt lat="44.80767" lon="0.83798">
        <ele>227.8</ele>
        <time>2026-05-01T15:23:57.000Z</time>
      </trkpt>
      <trkpt lat="44.80767" lon="0.83798">
        <ele>227.8</ele>
        <time>2026-05-01T15:23:58.000Z</time>
      </trkpt>
      <trkpt lat="44.80767" lon="0.83798">
        <ele>227.8</ele>
        <time>2026-05-01T15:23:59.000Z</time>
      </trkpt>
      <trkpt lat="44.80767" lon="0.83798">
        <ele>227.8</ele>
        <time>2026-05-01T15:24:00.000Z</time>
      </trkpt>
      <trkpt lat="44.80767" lon="0.83798">
        <ele>227.8</ele>
        <time>2026-05-01T15:24:01.000Z</time>
      </trkpt>
      <trkpt lat="44.80767" lon="0.83798">
        <ele>227.8</ele>
        <time>2026-05-01T15:24:02.000Z</time>
      </trkpt>
      <trkpt lat="44.80767" lon="0.83798">
        <ele>227.8</ele>
        <time>2026-05-01T15:24:03.000Z</time>
      </trkpt>
      <trkpt lat="44.80767" lon="0.83798">
        <ele>227.8</ele>
        <time>2026-05-01T15:24:04.000Z</time>
      </trkpt>
      <trkpt lat="44.80767" lon="0.83798">
        <ele>227.8</ele>
        <time>2026-05-01T15:24:05.000Z</time>
      </trkpt>
      <trkpt lat="44.80767" lon="0.83798">
        <ele>228.1</ele>
        <time>2026-05-01T15:24:06.000Z</time>
      </trkpt>
      <trkpt lat="44.80767" lon="0.83798">
        <ele>228.1</ele>
        <time>2026-05-01T15:24:07.000Z</time>
      </trkpt>
      <trkpt lat="44.80767" lon="0.83798">
        <ele>228.1</ele>
        <time>2026-05-01T15:24:08.000Z</time>
      </trkpt>
      <trkpt lat="44.80767" lon="0.83798">
        <ele>228.1</ele>
        <time>2026-05-01T15:24:09.000Z</time>
      </trkpt>
      <trkpt lat="44.80767" lon="0.83798">
        <ele>228.1</ele>
        <time>2026-05-01T15:24:10.000Z</time>
      </trkpt>
      <trkpt lat="44.80767" lon="0.83798">
        <ele>228.1</ele>
        <time>2026-05-01T15:24:11.000Z</time>
      </trkpt>
      <trkpt lat="44.80767" lon="0.83798">
        <ele>228.1</ele>
        <time>2026-05-01T15:24:12.000Z</time>
      </trkpt>
      <trkpt lat="44.80767" lon="0.83798">
        <ele>228.1</ele>
        <time>2026-05-01T15:24:13.000Z</time>
      </trkpt>
      <trkpt lat="44.80767" lon="0.83798">
        <ele>228.1</ele>
        <time>2026-05-01T15:24:14.000Z</time>
      </trkpt>
      <trkpt lat="44.80767" lon="0.83798">
        <ele>228.1</ele>
        <time>2026-05-01T15:24:15.000Z</time>
      </trkpt>
      <trkpt lat="44.80767" lon="0.83798">
        <ele>228.1</ele>
        <time>2026-05-01T15:24:16.000Z</time>
      </trkpt>
      <trkpt lat="44.80767" lon="0.83798">
        <ele>228.1</ele>
        <time>2026-05-01T15:24:17.000Z</time>
      </trkpt>
      <trkpt lat="44.80767" lon="0.83798">
        <ele>228.1</ele>
        <time>2026-05-01T15:24:18.000Z</time>
      </trkpt>
      <trkpt lat="44.80767" lon="0.83798">
        <ele>228.1</ele>
        <time>2026-05-01T15:24:19.000Z</time>
      </trkpt>
      <trkpt lat="44.80767" lon="0.83798">
        <ele>228.1</ele>
        <time>2026-05-01T15:24:20.000Z</time>
      </trkpt>
      <trkpt lat="44.80767" lon="0.83798">
        <ele>228.1</ele>
        <time>2026-05-01T15:24:21.000Z</time>
      </trkpt>
      <trkpt lat="44.80767" lon="0.83798">
        <ele>228.1</ele>
        <time>2026-05-01T15:24:22.000Z</time>
      </trkpt>
      <trkpt lat="44.80767" lon="0.83798">
        <ele>228.1</ele>
        <time>2026-05-01T15:24:23.000Z</time>
      </trkpt>
      <trkpt lat="44.80767" lon="0.83798">
        <ele>228.1</ele>
        <time>2026-05-01T15:24:24.000Z</time>
      </trkpt>
      <trkpt lat="44.80767" lon="0.83798">
        <ele>228.1</ele>
        <time>2026-05-01T15:24:25.000Z</time>
      </trkpt>
      <trkpt lat="44.80767" lon="0.83798">
        <ele>228.1</ele>
        <time>2026-05-01T15:24:26.000Z</time>
      </trkpt>
      <trkpt lat="44.80767" lon="0.83798">
        <ele>228.1</ele>
        <time>2026-05-01T15:24:27.000Z</time>
      </trkpt>
      <trkpt lat="44.80767" lon="0.83798">
        <ele>228.1</ele>
        <time>2026-05-01T15:24:28.000Z</time>
      </trkpt>
      <trkpt lat="44.80767" lon="0.83798">
        <ele>228.1</ele>
        <time>2026-05-01T15:24:29.000Z</time>
      </trkpt>
      <trkpt lat="44.80767" lon="0.83798">
        <ele>228.1</ele>
        <time>2026-05-01T15:24:30.000Z</time>
      </trkpt>
      <trkpt lat="44.80767" lon="0.83798">
        <ele>228.2</ele>
        <time>2026-05-01T15:24:31.000Z</time>
      </trkpt>
      <trkpt lat="44.80768" lon="0.83798">
        <ele>228.2</ele>
        <time>2026-05-01T15:24:32.000Z</time>
      </trkpt>
      <trkpt lat="44.80768" lon="0.83798">
        <ele>228.2</ele>
        <time>2026-05-01T15:24:33.000Z</time>
      </trkpt>
      <trkpt lat="44.80768" lon="0.83798">
        <ele>228.2</ele>
        <time>2026-05-01T15:24:34.000Z</time>
      </trkpt>
      <trkpt lat="44.80768" lon="0.83798">
        <ele>228.2</ele>
        <time>2026-05-01T15:24:35.000Z</time>
      </trkpt>
      <trkpt lat="44.80768" lon="0.83798">
        <ele>228.2</ele>
        <time>2026-05-01T15:24:36.000Z</time>
      </trkpt>
      <trkpt lat="44.80768" lon="0.83798">
        <ele>228.2</ele>
        <time>2026-05-01T15:24:37.000Z</time>
      </trkpt>
      <trkpt lat="44.80768" lon="0.83798">
        <ele>228.2</ele>
        <time>2026-05-01T15:24:38.000Z</time>
      </trkpt>
      <trkpt lat="44.80768" lon="0.83798">
        <ele>228.2</ele>
        <time>2026-05-01T15:24:39.000Z</time>
      </trkpt>
      <trkpt lat="44.80768" lon="0.83798">
        <ele>228.2</ele>
        <time>2026-05-01T15:24:40.000Z</time>
      </trkpt>
      <trkpt lat="44.80768" lon="0.83798">
        <ele>228.2</ele>
        <time>2026-05-01T15:24:41.000Z</time>
      </trkpt>
      <trkpt lat="44.80768" lon="0.83798">
        <ele>228.2</ele>
        <time>2026-05-01T15:24:42.000Z</time>
      </trkpt>
      <trkpt lat="44.80768" lon="0.83798">
        <ele>228.2</ele>
        <time>2026-05-01T15:24:43.000Z</time>
      </trkpt>
      <trkpt lat="44.80768" lon="0.83798">
        <ele>228.2</ele>
        <time>2026-05-01T15:24:44.000Z</time>
      </trkpt>
      <trkpt lat="44.80768" lon="0.83798">
        <ele>228.2</ele>
        <time>2026-05-01T15:24:45.000Z</time>
      </trkpt>
      <trkpt lat="44.80768" lon="0.83798">
        <ele>228.2</ele>
        <time>2026-05-01T15:24:46.000Z</time>
      </trkpt>
      <trkpt lat="44.80768" lon="0.83798">
        <ele>228.2</ele>
        <time>2026-05-01T15:24:47.000Z</time>
      </trkpt>
      <trkpt lat="44.80768" lon="0.83798">
        <ele>228.2</ele>
        <time>2026-05-01T15:24:48.000Z</time>
      </trkpt>
      <trkpt lat="44.80768" lon="0.83798">
        <ele>228.2</ele>
        <time>2026-05-01T15:24:49.000Z</time>
      </trkpt>
      <trkpt lat="44.80768" lon="0.83798">
        <ele>228.2</ele>
        <time>2026-05-01T15:24:50.000Z</time>
      </trkpt>
      <trkpt lat="44.80768" lon="0.83798">
        <ele>228.2</ele>
        <time>2026-05-01T15:24:51.000Z</time>
      </trkpt>
      <trkpt lat="44.80768" lon="0.83798">
        <ele>228.2</ele>
        <time>2026-05-01T15:24:52.000Z</time>
      </trkpt>
      <trkpt lat="44.80768" lon="0.83798">
        <ele>228.2</ele>
        <time>2026-05-01T15:24:53.000Z</time>
      </trkpt>
      <trkpt lat="44.80768" lon="0.83798">
        <ele>228.2</ele>
        <time>2026-05-01T15:24:54.000Z</time>
      </trkpt>
      <trkpt lat="44.80768" lon="0.83798">
        <ele>228.2</ele>
        <time>2026-05-01T15:24:55.000Z</time>
      </trkpt>
      <trkpt lat="44.80768" lon="0.83798">
        <ele>228.9</ele>
        <time>2026-05-01T15:24:56.000Z</time>
      </trkpt>
      <trkpt lat="44.80769" lon="0.83798">
        <ele>228.9</ele>
        <time>2026-05-01T15:24:57.000Z</time>
      </trkpt>
      <trkpt lat="44.80769" lon="0.83798">
        <ele>228.9</ele>
        <time>2026-05-01T15:24:58.000Z</time>
      </trkpt>
      <trkpt lat="44.80769" lon="0.83798">
        <ele>228.9</ele>
        <time>2026-05-01T15:24:59.000Z</time>
      </trkpt>
      <trkpt lat="44.80769" lon="0.83798">
        <ele>228.9</ele>
        <time>2026-05-01T15:25:00.000Z</time>
      </trkpt>
      <trkpt lat="44.80769" lon="0.83798">
        <ele>228.9</ele>
        <time>2026-05-01T15:25:01.000Z</time>
      </trkpt>
      <trkpt lat="44.80769" lon="0.83798">
        <ele>228.9</ele>
        <time>2026-05-01T15:25:02.000Z</time>
      </trkpt>
      <trkpt lat="44.80769" lon="0.83798">
        <ele>228.9</ele>
        <time>2026-05-01T15:25:03.000Z</time>
      </trkpt>
      <trkpt lat="44.80769" lon="0.83798">
        <ele>228.9</ele>
        <time>2026-05-01T15:25:04.000Z</time>
      </trkpt>
      <trkpt lat="44.80769" lon="0.83798">
        <ele>228.9</ele>
        <time>2026-05-01T15:25:05.000Z</time>
      </trkpt>
      <trkpt lat="44.80769" lon="0.83798">
        <ele>228.9</ele>
        <time>2026-05-01T15:25:06.000Z</time>
      </trkpt>
      <trkpt lat="44.80769" lon="0.83798">
        <ele>228.9</ele>
        <time>2026-05-01T15:25:07.000Z</time>
      </trkpt>
      <trkpt lat="44.80769" lon="0.83798">
        <ele>228.9</ele>
        <time>2026-05-01T15:25:08.000Z</time>
      </trkpt>
      <trkpt lat="44.80769" lon="0.83798">
        <ele>229</ele>
        <time>2026-05-01T15:25:09.000Z</time>
      </trkpt>
      <trkpt lat="44.80769" lon="0.83798">
        <ele>229</ele>
        <time>2026-05-01T15:25:10.000Z</time>
      </trkpt>
      <trkpt lat="44.80769" lon="0.83798">
        <ele>229</ele>
        <time>2026-05-01T15:25:11.000Z</time>
      </trkpt>
      <trkpt lat="44.80769" lon="0.83798">
        <ele>229</ele>
        <time>2026-05-01T15:25:12.000Z</time>
      </trkpt>
      <trkpt lat="44.80769" lon="0.83798">
        <ele>229</ele>
        <time>2026-05-01T15:25:13.000Z</time>
      </trkpt>
      <trkpt lat="44.80769" lon="0.83798">
        <ele>228.9</ele>
        <time>2026-05-01T15:25:14.000Z</time>
      </trkpt>
      <trkpt lat="44.80769" lon="0.83799">
        <ele>228.9</ele>
        <time>2026-05-01T15:25:15.000Z</time>
      </trkpt>
      <trkpt lat="44.80769" lon="0.83799">
        <ele>228.9</ele>
        <time>2026-05-01T15:25:16.000Z</time>
      </trkpt>
      <trkpt lat="44.80769" lon="0.83799">
        <ele>228.9</ele>
        <time>2026-05-01T15:25:17.000Z</time>
      </trkpt>
      <trkpt lat="44.80769" lon="0.83799">
        <ele>228.9</ele>
        <time>2026-05-01T15:25:18.000Z</time>
      </trkpt>
      <trkpt lat="44.80769" lon="0.83799">
        <ele>228.9</ele>
        <time>2026-05-01T15:25:19.000Z</time>
      </trkpt>
      <trkpt lat="44.80769" lon="0.83799">
        <ele>228.9</ele>
        <time>2026-05-01T15:25:20.000Z</time>
      </trkpt>
      <trkpt lat="44.80769" lon="0.83799">
        <ele>228.9</ele>
        <time>2026-05-01T15:25:21.000Z</time>
      </trkpt>
      <trkpt lat="44.80769" lon="0.83799">
        <ele>228.9</ele>
        <time>2026-05-01T15:25:22.000Z</time>
      </trkpt>
      <trkpt lat="44.80769" lon="0.83799">
        <ele>228.9</ele>
        <time>2026-05-01T15:25:23.000Z</time>
      </trkpt>
      <trkpt lat="44.80769" lon="0.83799">
        <ele>228.9</ele>
        <time>2026-05-01T15:25:24.000Z</time>
      </trkpt>
      <trkpt lat="44.80769" lon="0.83799">
        <ele>228.9</ele>
        <time>2026-05-01T15:25:25.000Z</time>
      </trkpt>
      <trkpt lat="44.80769" lon="0.83799">
        <ele>228.9</ele>
        <time>2026-05-01T15:25:26.000Z</time>
      </trkpt>
      <trkpt lat="44.80769" lon="0.83799">
        <ele>228.9</ele>
        <time>2026-05-01T15:25:27.000Z</time>
      </trkpt>
      <trkpt lat="44.80769" lon="0.83799">
        <ele>228.9</ele>
        <time>2026-05-01T15:25:28.000Z</time>
      </trkpt>
      <trkpt lat="44.80769" lon="0.83799">
        <ele>228.9</ele>
        <time>2026-05-01T15:25:29.000Z</time>
      </trkpt>
      <trkpt lat="44.80769" lon="0.83799">
        <ele>228.9</ele>
        <time>2026-05-01T15:25:30.000Z</time>
      </trkpt>
      <trkpt lat="44.80769" lon="0.83799">
        <ele>228.9</ele>
        <time>2026-05-01T15:25:31.000Z</time>
      </trkpt>
      <trkpt lat="44.80769" lon="0.83799">
        <ele>228.9</ele>
        <time>2026-05-01T15:25:32.000Z</time>
      </trkpt>
      <trkpt lat="44.80769" lon="0.83799">
        <ele>228.9</ele>
        <time>2026-05-01T15:25:33.000Z</time>
      </trkpt>
      <trkpt lat="44.80769" lon="0.83799">
        <ele>228.9</ele>
        <time>2026-05-01T15:25:34.000Z</time>
      </trkpt>
      <trkpt lat="44.80769" lon="0.83799">
        <ele>228.9</ele>
        <time>2026-05-01T15:25:35.000Z</time>
      </trkpt>
      <trkpt lat="44.80769" lon="0.83799">
        <ele>228.9</ele>
        <time>2026-05-01T15:25:36.000Z</time>
      </trkpt>
      <trkpt lat="44.80769" lon="0.83799">
        <ele>228.9</ele>
        <time>2026-05-01T15:25:37.000Z</time>
      </trkpt>
      <trkpt lat="44.80769" lon="0.83799">
        <ele>228.9</ele>
        <time>2026-05-01T15:25:38.000Z</time>
      </trkpt>
      <trkpt lat="44.80769" lon="0.83799">
        <ele>228.9</ele>
        <time>2026-05-01T15:25:39.000Z</time>
      </trkpt>
      <trkpt lat="44.80769" lon="0.83799">
        <ele>228.9</ele>
        <time>2026-05-01T15:25:40.000Z</time>
      </trkpt>
      <trkpt lat="44.80769" lon="0.83799">
        <ele>228.9</ele>
        <time>2026-05-01T15:25:41.000Z</time>
      </trkpt>
      <trkpt lat="44.80769" lon="0.83799">
        <ele>229</ele>
        <time>2026-05-01T15:25:42.000Z</time>
      </trkpt>
      <trkpt lat="44.80769" lon="0.83799">
        <ele>228.9</ele>
        <time>2026-05-01T15:25:43.000Z</time>
      </trkpt>
      <trkpt lat="44.8077" lon="0.83799">
        <ele>228.9</ele>
        <time>2026-05-01T15:25:44.000Z</time>
      </trkpt>
      <trkpt lat="44.8077" lon="0.83798">
        <ele>228.9</ele>
        <time>2026-05-01T15:25:45.000Z</time>
      </trkpt>
      <trkpt lat="44.8077" lon="0.83797">
        <ele>228.9</ele>
        <time>2026-05-01T15:25:46.000Z</time>
      </trkpt>
      <trkpt lat="44.8077" lon="0.83797">
        <ele>228.8</ele>
        <time>2026-05-01T15:25:47.000Z</time>
      </trkpt>
      <trkpt lat="44.80769" lon="0.83796">
        <ele>228.6</ele>
        <time>2026-05-01T15:25:48.000Z</time>
      </trkpt>
      <trkpt lat="44.80769" lon="0.83796">
        <ele>228.6</ele>
        <time>2026-05-01T15:25:49.000Z</time>
      </trkpt>
      <trkpt lat="44.80769" lon="0.83796">
        <ele>228.8</ele>
        <time>2026-05-01T15:25:50.000Z</time>
      </trkpt>
      <trkpt lat="44.80769" lon="0.83797">
        <ele>228.8</ele>
        <time>2026-05-01T15:25:51.000Z</time>
      </trkpt>
      <trkpt lat="44.80769" lon="0.83797">
        <ele>228.8</ele>
        <time>2026-05-01T15:25:52.000Z</time>
      </trkpt>
      <trkpt lat="44.80769" lon="0.83797">
        <ele>228.8</ele>
        <time>2026-05-01T15:25:53.000Z</time>
      </trkpt>
      <trkpt lat="44.80769" lon="0.83797">
        <ele>228.8</ele>
        <time>2026-05-01T15:25:54.000Z</time>
      </trkpt>
      <trkpt lat="44.80769" lon="0.83797">
        <ele>228.8</ele>
        <time>2026-05-01T15:25:55.000Z</time>
      </trkpt>
      <trkpt lat="44.80769" lon="0.83797">
        <ele>228.8</ele>
        <time>2026-05-01T15:25:56.000Z</time>
      </trkpt>
      <trkpt lat="44.80769" lon="0.83797">
        <ele>228.8</ele>
        <time>2026-05-01T15:25:57.000Z</time>
      </trkpt>
      <trkpt lat="44.80769" lon="0.83797">
        <ele>228.8</ele>
        <time>2026-05-01T15:25:58.000Z</time>
      </trkpt>
      <trkpt lat="44.80769" lon="0.83797">
        <ele>228.8</ele>
        <time>2026-05-01T15:25:59.000Z</time>
      </trkpt>
      <trkpt lat="44.80769" lon="0.83797">
        <ele>228.8</ele>
        <time>2026-05-01T15:26:00.000Z</time>
      </trkpt>
      <trkpt lat="44.80769" lon="0.83796">
        <ele>228.7</ele>
        <time>2026-05-01T15:26:01.000Z</time>
      </trkpt>
      <trkpt lat="44.80768" lon="0.83794">
        <ele>229</ele>
        <time>2026-05-01T15:26:02.000Z</time>
      </trkpt>
      <trkpt lat="44.80767" lon="0.83794">
        <ele>229.2</ele>
        <time>2026-05-01T15:26:03.000Z</time>
      </trkpt>
      <trkpt lat="44.80767" lon="0.83793">
        <ele>229.1</ele>
        <time>2026-05-01T15:26:04.000Z</time>
      </trkpt>
      <trkpt lat="44.80767" lon="0.83793">
        <ele>229.1</ele>
        <time>2026-05-01T15:26:05.000Z</time>
      </trkpt>
      <trkpt lat="44.80767" lon="0.83793">
        <ele>229.1</ele>
        <time>2026-05-01T15:26:06.000Z</time>
      </trkpt>
      <trkpt lat="44.80766" lon="0.83792">
        <ele>229.2</ele>
        <time>2026-05-01T15:26:07.000Z</time>
      </trkpt>
      <trkpt lat="44.80765" lon="0.83791">
        <ele>228.9</ele>
        <time>2026-05-01T15:26:08.000Z</time>
      </trkpt>
      <trkpt lat="44.80764" lon="0.83789">
        <ele>229</ele>
        <time>2026-05-01T15:26:09.000Z</time>
      </trkpt>
      <trkpt lat="44.80763" lon="0.83788">
        <ele>228.8</ele>
        <time>2026-05-01T15:26:10.000Z</time>
      </trkpt>
      <trkpt lat="44.80762" lon="0.83786">
        <ele>228.7</ele>
        <time>2026-05-01T15:26:11.000Z</time>
      </trkpt>
      <trkpt lat="44.80761" lon="0.83785">
        <ele>228.8</ele>
        <time>2026-05-01T15:26:12.000Z</time>
      </trkpt>
      <trkpt lat="44.8076" lon="0.83783">
        <ele>228.8</ele>
        <time>2026-05-01T15:26:13.000Z</time>
      </trkpt>
      <trkpt lat="44.80759" lon="0.83781">
        <ele>228.6</ele>
        <time>2026-05-01T15:26:14.000Z</time>
      </trkpt>
      <trkpt lat="44.80758" lon="0.83779">
        <ele>228.5</ele>
        <time>2026-05-01T15:26:15.000Z</time>
      </trkpt>
      <trkpt lat="44.80757" lon="0.83778">
        <ele>228.2</ele>
        <time>2026-05-01T15:26:16.000Z</time>
      </trkpt>
      <trkpt lat="44.80757" lon="0.83776">
        <ele>228.6</ele>
        <time>2026-05-01T15:26:17.000Z</time>
      </trkpt>
      <trkpt lat="44.80756" lon="0.83774">
        <ele>228.7</ele>
        <time>2026-05-01T15:26:18.000Z</time>
      </trkpt>
      <trkpt lat="44.80755" lon="0.83772">
        <ele>228.7</ele>
        <time>2026-05-01T15:26:19.000Z</time>
      </trkpt>
      <trkpt lat="44.80754" lon="0.8377">
        <ele>228.9</ele>
        <time>2026-05-01T15:26:20.000Z</time>
      </trkpt>
      <trkpt lat="44.80753" lon="0.83767">
        <ele>229.1</ele>
        <time>2026-05-01T15:26:21.000Z</time>
      </trkpt>
      <trkpt lat="44.80751" lon="0.83765">
        <ele>228.7</ele>
        <time>2026-05-01T15:26:22.000Z</time>
      </trkpt>
      <trkpt lat="44.8075" lon="0.83763">
        <ele>228.8</ele>
        <time>2026-05-01T15:26:23.000Z</time>
      </trkpt>
      <trkpt lat="44.80749" lon="0.83761">
        <ele>228.6</ele>
        <time>2026-05-01T15:26:24.000Z</time>
      </trkpt>
      <trkpt lat="44.80748" lon="0.83759">
        <ele>228.6</ele>
        <time>2026-05-01T15:26:25.000Z</time>
      </trkpt>
      <trkpt lat="44.80747" lon="0.83758">
        <ele>228.4</ele>
        <time>2026-05-01T15:26:26.000Z</time>
      </trkpt>
      <trkpt lat="44.80746" lon="0.83755">
        <ele>228.4</ele>
        <time>2026-05-01T15:26:27.000Z</time>
      </trkpt>
      <trkpt lat="44.80745" lon="0.83753">
        <ele>228.5</ele>
        <time>2026-05-01T15:26:28.000Z</time>
      </trkpt>
      <trkpt lat="44.80745" lon="0.83751">
        <ele>228.6</ele>
        <time>2026-05-01T15:26:29.000Z</time>
      </trkpt>
      <trkpt lat="44.80743" lon="0.83749">
        <ele>228.4</ele>
        <time>2026-05-01T15:26:30.000Z</time>
      </trkpt>
      <trkpt lat="44.80742" lon="0.83747">
        <ele>228.5</ele>
        <time>2026-05-01T15:26:31.000Z</time>
      </trkpt>
      <trkpt lat="44.80741" lon="0.83745">
        <ele>228.4</ele>
        <time>2026-05-01T15:26:32.000Z</time>
      </trkpt>
      <trkpt lat="44.8074" lon="0.83743">
        <ele>228.4</ele>
        <time>2026-05-01T15:26:33.000Z</time>
      </trkpt>
      <trkpt lat="44.80739" lon="0.83741">
        <ele>228.2</ele>
        <time>2026-05-01T15:26:34.000Z</time>
      </trkpt>
      <trkpt lat="44.80738" lon="0.83739">
        <ele>228.6</ele>
        <time>2026-05-01T15:26:35.000Z</time>
      </trkpt>
      <trkpt lat="44.80737" lon="0.83737">
        <ele>228.7</ele>
        <time>2026-05-01T15:26:36.000Z</time>
      </trkpt>
      <trkpt lat="44.80737" lon="0.83735">
        <ele>228.7</ele>
        <time>2026-05-01T15:26:37.000Z</time>
      </trkpt>
      <trkpt lat="44.80736" lon="0.83733">
        <ele>228.7</ele>
        <time>2026-05-01T15:26:38.000Z</time>
      </trkpt>
      <trkpt lat="44.80735" lon="0.83731">
        <ele>228.5</ele>
        <time>2026-05-01T15:26:39.000Z</time>
      </trkpt>
      <trkpt lat="44.80734" lon="0.83729">
        <ele>228.4</ele>
        <time>2026-05-01T15:26:40.000Z</time>
      </trkpt>
      <trkpt lat="44.80733" lon="0.83728">
        <ele>228.5</ele>
        <time>2026-05-01T15:26:41.000Z</time>
      </trkpt>
      <trkpt lat="44.80732" lon="0.83726">
        <ele>228.4</ele>
        <time>2026-05-01T15:26:42.000Z</time>
      </trkpt>
      <trkpt lat="44.80731" lon="0.83724">
        <ele>228.5</ele>
        <time>2026-05-01T15:26:43.000Z</time>
      </trkpt>
      <trkpt lat="44.8073" lon="0.83722">
        <ele>228.5</ele>
        <time>2026-05-01T15:26:44.000Z</time>
      </trkpt>
      <trkpt lat="44.80729" lon="0.8372">
        <ele>228.6</ele>
        <time>2026-05-01T15:26:45.000Z</time>
      </trkpt>
      <trkpt lat="44.80729" lon="0.83718">
        <ele>228.4</ele>
        <time>2026-05-01T15:26:46.000Z</time>
      </trkpt>
      <trkpt lat="44.80728" lon="0.83716">
        <ele>228.2</ele>
        <time>2026-05-01T15:26:47.000Z</time>
      </trkpt>
      <trkpt lat="44.80727" lon="0.83714">
        <ele>228.4</ele>
        <time>2026-05-01T15:26:48.000Z</time>
      </trkpt>
      <trkpt lat="44.80726" lon="0.83712">
        <ele>228.6</ele>
        <time>2026-05-01T15:26:49.000Z</time>
      </trkpt>
      <trkpt lat="44.80725" lon="0.8371">
        <ele>228.7</ele>
        <time>2026-05-01T15:26:50.000Z</time>
      </trkpt>
      <trkpt lat="44.80724" lon="0.83708">
        <ele>228.7</ele>
        <time>2026-05-01T15:26:51.000Z</time>
      </trkpt>
      <trkpt lat="44.80724" lon="0.83706">
        <ele>228.5</ele>
        <time>2026-05-01T15:26:52.000Z</time>
      </trkpt>
      <trkpt lat="44.80723" lon="0.83703">
        <ele>228.5</ele>
        <time>2026-05-01T15:26:53.000Z</time>
      </trkpt>
      <trkpt lat="44.80723" lon="0.83701">
        <ele>228.7</ele>
        <time>2026-05-01T15:26:54.000Z</time>
      </trkpt>
      <trkpt lat="44.80722" lon="0.83698">
        <ele>229.1</ele>
        <time>2026-05-01T15:26:55.000Z</time>
      </trkpt>
      <trkpt lat="44.80721" lon="0.83696">
        <ele>229.1</ele>
        <time>2026-05-01T15:26:56.000Z</time>
      </trkpt>
      <trkpt lat="44.80721" lon="0.83694">
        <ele>229.3</ele>
        <time>2026-05-01T15:26:57.000Z</time>
      </trkpt>
      <trkpt lat="44.8072" lon="0.83692">
        <ele>229.4</ele>
        <time>2026-05-01T15:26:58.000Z</time>
      </trkpt>
      <trkpt lat="44.8072" lon="0.83689">
        <ele>229.7</ele>
        <time>2026-05-01T15:26:59.000Z</time>
      </trkpt>
      <trkpt lat="44.80719" lon="0.83687">
        <ele>229.9</ele>
        <time>2026-05-01T15:27:00.000Z</time>
      </trkpt>
      <trkpt lat="44.80718" lon="0.83684">
        <ele>230.4</ele>
        <time>2026-05-01T15:27:01.000Z</time>
      </trkpt>
      <trkpt lat="44.80718" lon="0.83681">
        <ele>231.2</ele>
        <time>2026-05-01T15:27:02.000Z</time>
      </trkpt>
      <trkpt lat="44.80717" lon="0.83678">
        <ele>231.6</ele>
        <time>2026-05-01T15:27:03.000Z</time>
      </trkpt>
      <trkpt lat="44.80717" lon="0.83676">
        <ele>231.7</ele>
        <time>2026-05-01T15:27:04.000Z</time>
      </trkpt>
      <trkpt lat="44.80716" lon="0.83672">
        <ele>232.2</ele>
        <time>2026-05-01T15:27:05.000Z</time>
      </trkpt>
      <trkpt lat="44.80716" lon="0.8367">
        <ele>232.2</ele>
        <time>2026-05-01T15:27:06.000Z</time>
      </trkpt>
      <trkpt lat="44.80716" lon="0.83667">
        <ele>232.3</ele>
        <time>2026-05-01T15:27:07.000Z</time>
      </trkpt>
      <trkpt lat="44.80715" lon="0.83664">
        <ele>233.1</ele>
        <time>2026-05-01T15:27:08.000Z</time>
      </trkpt>
      <trkpt lat="44.80715" lon="0.83661">
        <ele>233</ele>
        <time>2026-05-01T15:27:09.000Z</time>
      </trkpt>
      <trkpt lat="44.80715" lon="0.83658">
        <ele>233.4</ele>
        <time>2026-05-01T15:27:10.000Z</time>
      </trkpt>
      <trkpt lat="44.80715" lon="0.83655">
        <ele>233.9</ele>
        <time>2026-05-01T15:27:11.000Z</time>
      </trkpt>
      <trkpt lat="44.80715" lon="0.83653">
        <ele>234.6</ele>
        <time>2026-05-01T15:27:12.000Z</time>
      </trkpt>
      <trkpt lat="44.80715" lon="0.83649">
        <ele>235.2</ele>
        <time>2026-05-01T15:27:13.000Z</time>
      </trkpt>
      <trkpt lat="44.80714" lon="0.83646">
        <ele>235.9</ele>
        <time>2026-05-01T15:27:14.000Z</time>
      </trkpt>
      <trkpt lat="44.80714" lon="0.83643">
        <ele>236.8</ele>
        <time>2026-05-01T15:27:15.000Z</time>
      </trkpt>
      <trkpt lat="44.80714" lon="0.8364">
        <ele>237.8</ele>
        <time>2026-05-01T15:27:16.000Z</time>
      </trkpt>
      <trkpt lat="44.80714" lon="0.83637">
        <ele>238.5</ele>
        <time>2026-05-01T15:27:17.000Z</time>
      </trkpt>
      <trkpt lat="44.80714" lon="0.83634">
        <ele>239.1</ele>
        <time>2026-05-01T15:27:18.000Z</time>
      </trkpt>
      <trkpt lat="44.80714" lon="0.83631">
        <ele>239.3</ele>
        <time>2026-05-01T15:27:19.000Z</time>
      </trkpt>
      <trkpt lat="44.80713" lon="0.83629">
        <ele>238.7</ele>
        <time>2026-05-01T15:27:20.000Z</time>
      </trkpt>
      <trkpt lat="44.80714" lon="0.83626">
        <ele>239.1</ele>
        <time>2026-05-01T15:27:21.000Z</time>
      </trkpt>
      <trkpt lat="44.80716" lon="0.83623">
        <ele>238.9</ele>
        <time>2026-05-01T15:27:22.000Z</time>
      </trkpt>
      <trkpt lat="44.80718" lon="0.83622">
        <ele>236.9</ele>
        <time>2026-05-01T15:27:23.000Z</time>
      </trkpt>
      <trkpt lat="44.80715" lon="0.83623">
        <ele>234.5</ele>
        <time>2026-05-01T15:27:24.000Z</time>
      </trkpt>
      <trkpt lat="44.80715" lon="0.8362">
        <ele>234.3</ele>
        <time>2026-05-01T15:27:25.000Z</time>
      </trkpt>
      <trkpt lat="44.80715" lon="0.83617">
        <ele>234.5</ele>
        <time>2026-05-01T15:27:26.000Z</time>
      </trkpt>
      <trkpt lat="44.80715" lon="0.83614">
        <ele>234.3</ele>
        <time>2026-05-01T15:27:27.000Z</time>
      </trkpt>
      <trkpt lat="44.80715" lon="0.83612">
        <ele>234.1</ele>
        <time>2026-05-01T15:27:28.000Z</time>
      </trkpt>
      <trkpt lat="44.80715" lon="0.83609">
        <ele>234.3</ele>
        <time>2026-05-01T15:27:29.000Z</time>
      </trkpt>
      <trkpt lat="44.80714" lon="0.83605">
        <ele>235.3</ele>
        <time>2026-05-01T15:27:30.000Z</time>
      </trkpt>
      <trkpt lat="44.80714" lon="0.83602">
        <ele>235.4</ele>
        <time>2026-05-01T15:27:31.000Z</time>
      </trkpt>
      <trkpt lat="44.80714" lon="0.836">
        <ele>235.1</ele>
        <time>2026-05-01T15:27:32.000Z</time>
      </trkpt>
      <trkpt lat="44.80714" lon="0.83597">
        <ele>234.9</ele>
        <time>2026-05-01T15:27:33.000Z</time>
      </trkpt>
      <trkpt lat="44.80714" lon="0.83595">
        <ele>235</ele>
        <time>2026-05-01T15:27:34.000Z</time>
      </trkpt>
      <trkpt lat="44.80714" lon="0.83592">
        <ele>234.4</ele>
        <time>2026-05-01T15:27:35.000Z</time>
      </trkpt>
      <trkpt lat="44.80714" lon="0.8359">
        <ele>234.1</ele>
        <time>2026-05-01T15:27:36.000Z</time>
      </trkpt>
      <trkpt lat="44.80714" lon="0.83587">
        <ele>234.4</ele>
        <time>2026-05-01T15:27:37.000Z</time>
      </trkpt>
      <trkpt lat="44.80713" lon="0.83584">
        <ele>234.4</ele>
        <time>2026-05-01T15:27:38.000Z</time>
      </trkpt>
      <trkpt lat="44.80713" lon="0.83581">
        <ele>234.4</ele>
        <time>2026-05-01T15:27:39.000Z</time>
      </trkpt>
      <trkpt lat="44.80713" lon="0.83579">
        <ele>234.8</ele>
        <time>2026-05-01T15:27:40.000Z</time>
      </trkpt>
      <trkpt lat="44.80713" lon="0.83576">
        <ele>234.7</ele>
        <time>2026-05-01T15:27:41.000Z</time>
      </trkpt>
      <trkpt lat="44.80713" lon="0.83573">
        <ele>234.9</ele>
        <time>2026-05-01T15:27:42.000Z</time>
      </trkpt>
      <trkpt lat="44.80713" lon="0.8357">
        <ele>234.1</ele>
        <time>2026-05-01T15:27:43.000Z</time>
      </trkpt>
      <trkpt lat="44.80713" lon="0.83567">
        <ele>233.9</ele>
        <time>2026-05-01T15:27:44.000Z</time>
      </trkpt>
      <trkpt lat="44.80713" lon="0.83564">
        <ele>234.4</ele>
        <time>2026-05-01T15:27:45.000Z</time>
      </trkpt>
      <trkpt lat="44.80713" lon="0.83562">
        <ele>234.7</ele>
        <time>2026-05-01T15:27:46.000Z</time>
      </trkpt>
      <trkpt lat="44.80713" lon="0.83559">
        <ele>234.7</ele>
        <time>2026-05-01T15:27:47.000Z</time>
      </trkpt>
      <trkpt lat="44.80713" lon="0.83556">
        <ele>234.8</ele>
        <time>2026-05-01T15:27:48.000Z</time>
      </trkpt>
      <trkpt lat="44.80713" lon="0.83554">
        <ele>235.3</ele>
        <time>2026-05-01T15:27:49.000Z</time>
      </trkpt>
      <trkpt lat="44.80713" lon="0.83551">
        <ele>235.5</ele>
        <time>2026-05-01T15:27:50.000Z</time>
      </trkpt>
      <trkpt lat="44.80713" lon="0.83549">
        <ele>235.1</ele>
        <time>2026-05-01T15:27:51.000Z</time>
      </trkpt>
      <trkpt lat="44.80713" lon="0.83547">
        <ele>235.2</ele>
        <time>2026-05-01T15:27:52.000Z</time>
      </trkpt>
      <trkpt lat="44.80713" lon="0.83544">
        <ele>235</ele>
        <time>2026-05-01T15:27:53.000Z</time>
      </trkpt>
      <trkpt lat="44.80713" lon="0.83541">
        <ele>235.1</ele>
        <time>2026-05-01T15:27:54.000Z</time>
      </trkpt>
      <trkpt lat="44.80713" lon="0.83539">
        <ele>235.3</ele>
        <time>2026-05-01T15:27:55.000Z</time>
      </trkpt>
      <trkpt lat="44.80713" lon="0.83536">
        <ele>235.3</ele>
        <time>2026-05-01T15:27:56.000Z</time>
      </trkpt>
      <trkpt lat="44.80713" lon="0.83534">
        <ele>235.2</ele>
        <time>2026-05-01T15:27:57.000Z</time>
      </trkpt>
      <trkpt lat="44.80713" lon="0.83531">
        <ele>235.1</ele>
        <time>2026-05-01T15:27:58.000Z</time>
      </trkpt>
      <trkpt lat="44.80713" lon="0.83529">
        <ele>235.3</ele>
        <time>2026-05-01T15:27:59.000Z</time>
      </trkpt>
      <trkpt lat="44.80713" lon="0.83526">
        <ele>235.7</ele>
        <time>2026-05-01T15:28:00.000Z</time>
      </trkpt>
      <trkpt lat="44.80713" lon="0.83524">
        <ele>235.7</ele>
        <time>2026-05-01T15:28:01.000Z</time>
      </trkpt>
      <trkpt lat="44.80713" lon="0.83522">
        <ele>235.8</ele>
        <time>2026-05-01T15:28:02.000Z</time>
      </trkpt>
      <trkpt lat="44.80714" lon="0.83519">
        <ele>235.7</ele>
        <time>2026-05-01T15:28:03.000Z</time>
      </trkpt>
      <trkpt lat="44.80713" lon="0.83517">
        <ele>235.7</ele>
        <time>2026-05-01T15:28:04.000Z</time>
      </trkpt>
      <trkpt lat="44.80713" lon="0.83515">
        <ele>235.9</ele>
        <time>2026-05-01T15:28:05.000Z</time>
      </trkpt>
      <trkpt lat="44.80713" lon="0.83513">
        <ele>235.8</ele>
        <time>2026-05-01T15:28:06.000Z</time>
      </trkpt>
      <trkpt lat="44.80713" lon="0.83511">
        <ele>235.1</ele>
        <time>2026-05-01T15:28:07.000Z</time>
      </trkpt>
      <trkpt lat="44.80713" lon="0.83509">
        <ele>235.7</ele>
        <time>2026-05-01T15:28:08.000Z</time>
      </trkpt>
      <trkpt lat="44.80712" lon="0.83507">
        <ele>235.9</ele>
        <time>2026-05-01T15:28:09.000Z</time>
      </trkpt>
      <trkpt lat="44.80712" lon="0.83506">
        <ele>236.1</ele>
        <time>2026-05-01T15:28:10.000Z</time>
      </trkpt>
      <trkpt lat="44.80712" lon="0.83503">
        <ele>236.5</ele>
        <time>2026-05-01T15:28:11.000Z</time>
      </trkpt>
      <trkpt lat="44.80712" lon="0.83501">
        <ele>236.4</ele>
        <time>2026-05-01T15:28:12.000Z</time>
      </trkpt>
      <trkpt lat="44.80711" lon="0.835">
        <ele>236.8</ele>
        <time>2026-05-01T15:28:13.000Z</time>
      </trkpt>
      <trkpt lat="44.80711" lon="0.83498">
        <ele>236.7</ele>
        <time>2026-05-01T15:28:14.000Z</time>
      </trkpt>
      <trkpt lat="44.80709" lon="0.83496">
        <ele>236.6</ele>
        <time>2026-05-01T15:28:15.000Z</time>
      </trkpt>
      <trkpt lat="44.80709" lon="0.83494">
        <ele>236.5</ele>
        <time>2026-05-01T15:28:16.000Z</time>
      </trkpt>
      <trkpt lat="44.80708" lon="0.83492">
        <ele>236.9</ele>
        <time>2026-05-01T15:28:17.000Z</time>
      </trkpt>
      <trkpt lat="44.80707" lon="0.8349">
        <ele>237.4</ele>
        <time>2026-05-01T15:28:18.000Z</time>
      </trkpt>
      <trkpt lat="44.80707" lon="0.83488">
        <ele>237.7</ele>
        <time>2026-05-01T15:28:19.000Z</time>
      </trkpt>
      <trkpt lat="44.80706" lon="0.83486">
        <ele>237.4</ele>
        <time>2026-05-01T15:28:20.000Z</time>
      </trkpt>
      <trkpt lat="44.80706" lon="0.83484">
        <ele>237.7</ele>
        <time>2026-05-01T15:28:21.000Z</time>
      </trkpt>
      <trkpt lat="44.80705" lon="0.83482">
        <ele>237.9</ele>
        <time>2026-05-01T15:28:22.000Z</time>
      </trkpt>
      <trkpt lat="44.80704" lon="0.8348">
        <ele>237.6</ele>
        <time>2026-05-01T15:28:23.000Z</time>
      </trkpt>
      <trkpt lat="44.80703" lon="0.83478">
        <ele>237.6</ele>
        <time>2026-05-01T15:28:24.000Z</time>
      </trkpt>
      <trkpt lat="44.80703" lon="0.83476">
        <ele>237.8</ele>
        <time>2026-05-01T15:28:25.000Z</time>
      </trkpt>
      <trkpt lat="44.80705" lon="0.83474">
        <ele>233.3</ele>
        <time>2026-05-01T15:28:26.000Z</time>
      </trkpt>
      <trkpt lat="44.80701" lon="0.8347">
        <ele>239</ele>
        <time>2026-05-01T15:28:27.000Z</time>
      </trkpt>
      <trkpt lat="44.80701" lon="0.83467">
        <ele>239.9</ele>
        <time>2026-05-01T15:28:28.000Z</time>
      </trkpt>
      <trkpt lat="44.80701" lon="0.83465">
        <ele>239.9</ele>
        <time>2026-05-01T15:28:29.000Z</time>
      </trkpt>
      <trkpt lat="44.80701" lon="0.83463">
        <ele>239.6</ele>
        <time>2026-05-01T15:28:30.000Z</time>
      </trkpt>
      <trkpt lat="44.80702" lon="0.83461">
        <ele>239.7</ele>
        <time>2026-05-01T15:28:31.000Z</time>
      </trkpt>
      <trkpt lat="44.80703" lon="0.83459">
        <ele>240.1</ele>
        <time>2026-05-01T15:28:32.000Z</time>
      </trkpt>
      <trkpt lat="44.80704" lon="0.83457">
        <ele>240.6</ele>
        <time>2026-05-01T15:28:33.000Z</time>
      </trkpt>
      <trkpt lat="44.80705" lon="0.83455">
        <ele>240</ele>
        <time>2026-05-01T15:28:34.000Z</time>
      </trkpt>
      <trkpt lat="44.80706" lon="0.83453">
        <ele>238.5</ele>
        <time>2026-05-01T15:28:35.000Z</time>
      </trkpt>
      <trkpt lat="44.80707" lon="0.83452">
        <ele>238.6</ele>
        <time>2026-05-01T15:28:36.000Z</time>
      </trkpt>
      <trkpt lat="44.80708" lon="0.8345">
        <ele>238.5</ele>
        <time>2026-05-01T15:28:37.000Z</time>
      </trkpt>
      <trkpt lat="44.80709" lon="0.8345">
        <ele>238.8</ele>
        <time>2026-05-01T15:28:38.000Z</time>
      </trkpt>
      <trkpt lat="44.8071" lon="0.8345">
        <ele>238.1</ele>
        <time>2026-05-01T15:28:39.000Z</time>
      </trkpt>
      <trkpt lat="44.80711" lon="0.8345">
        <ele>238.8</ele>
        <time>2026-05-01T15:28:40.000Z</time>
      </trkpt>
      <trkpt lat="44.80712" lon="0.83449">
        <ele>240.3</ele>
        <time>2026-05-01T15:28:41.000Z</time>
      </trkpt>
      <trkpt lat="44.8071" lon="0.83451">
        <ele>237.8</ele>
        <time>2026-05-01T15:28:42.000Z</time>
      </trkpt>
      <trkpt lat="44.8071" lon="0.83451">
        <ele>237.8</ele>
        <time>2026-05-01T15:28:43.000Z</time>
      </trkpt>
      <trkpt lat="44.8071" lon="0.8345">
        <ele>237.7</ele>
        <time>2026-05-01T15:28:44.000Z</time>
      </trkpt>
      <trkpt lat="44.8071" lon="0.83449">
        <ele>238.2</ele>
        <time>2026-05-01T15:28:45.000Z</time>
      </trkpt>
      <trkpt lat="44.80711" lon="0.83449">
        <ele>237.8</ele>
        <time>2026-05-01T15:28:46.000Z</time>
      </trkpt>
      <trkpt lat="44.80711" lon="0.83449">
        <ele>237.8</ele>
        <time>2026-05-01T15:28:47.000Z</time>
      </trkpt>
      <trkpt lat="44.80712" lon="0.8345">
        <ele>237.1</ele>
        <time>2026-05-01T15:28:48.000Z</time>
      </trkpt>
      <trkpt lat="44.80712" lon="0.83451">
        <ele>237.1</ele>
        <time>2026-05-01T15:28:49.000Z</time>
      </trkpt>
      <trkpt lat="44.80712" lon="0.83451">
        <ele>237.1</ele>
        <time>2026-05-01T15:28:50.000Z</time>
      </trkpt>
      <trkpt lat="44.80712" lon="0.83451">
        <ele>237.1</ele>
        <time>2026-05-01T15:28:51.000Z</time>
      </trkpt>
      <trkpt lat="44.80712" lon="0.83451">
        <ele>237.1</ele>
        <time>2026-05-01T15:28:52.000Z</time>
      </trkpt>
      <trkpt lat="44.80712" lon="0.83451">
        <ele>237.2</ele>
        <time>2026-05-01T15:28:53.000Z</time>
      </trkpt>
      <trkpt lat="44.80712" lon="0.83451">
        <ele>237.2</ele>
        <time>2026-05-01T15:28:54.000Z</time>
      </trkpt>
      <trkpt lat="44.80712" lon="0.83451">
        <ele>237.2</ele>
        <time>2026-05-01T15:28:55.000Z</time>
      </trkpt>
      <trkpt lat="44.80712" lon="0.83451">
        <ele>237.2</ele>
        <time>2026-05-01T15:28:56.000Z</time>
      </trkpt>
      <trkpt lat="44.80712" lon="0.83451">
        <ele>237.2</ele>
        <time>2026-05-01T15:28:57.000Z</time>
      </trkpt>
      <trkpt lat="44.80712" lon="0.83451">
        <ele>237.2</ele>
        <time>2026-05-01T15:28:58.000Z</time>
      </trkpt>
      <trkpt lat="44.80712" lon="0.83451">
        <ele>237.2</ele>
        <time>2026-05-01T15:28:59.000Z</time>
      </trkpt>
      <trkpt lat="44.80712" lon="0.83451">
        <ele>237.2</ele>
        <time>2026-05-01T15:29:00.000Z</time>
      </trkpt>
      <trkpt lat="44.80712" lon="0.83451">
        <ele>237.5</ele>
        <time>2026-05-01T15:29:01.000Z</time>
      </trkpt>
      <trkpt lat="44.80711" lon="0.83452">
        <ele>237.7</ele>
        <time>2026-05-01T15:29:02.000Z</time>
      </trkpt>
      <trkpt lat="44.80711" lon="0.83453">
        <ele>237.8</ele>
        <time>2026-05-01T15:29:03.000Z</time>
      </trkpt>
      <trkpt lat="44.80709" lon="0.83454">
        <ele>237.5</ele>
        <time>2026-05-01T15:29:04.000Z</time>
      </trkpt>
      <trkpt lat="44.80708" lon="0.83455">
        <ele>237.6</ele>
        <time>2026-05-01T15:29:05.000Z</time>
      </trkpt>
      <trkpt lat="44.80707" lon="0.83456">
        <ele>237.5</ele>
        <time>2026-05-01T15:29:06.000Z</time>
      </trkpt>
      <trkpt lat="44.80707" lon="0.83457">
        <ele>237.6</ele>
        <time>2026-05-01T15:29:07.000Z</time>
      </trkpt>
      <trkpt lat="44.80707" lon="0.83457">
        <ele>235.7</ele>
        <time>2026-05-01T15:29:08.000Z</time>
      </trkpt>
      <trkpt lat="44.80707" lon="0.83457">
        <ele>236.2</ele>
        <time>2026-05-01T15:29:09.000Z</time>
      </trkpt>
      <trkpt lat="44.80707" lon="0.83458">
        <ele>236.5</ele>
        <time>2026-05-01T15:29:10.000Z</time>
      </trkpt>
      <trkpt lat="44.80708" lon="0.83459">
        <ele>236.9</ele>
        <time>2026-05-01T15:29:11.000Z</time>
      </trkpt>
      <trkpt lat="44.80709" lon="0.8346">
        <ele>236.8</ele>
        <time>2026-05-01T15:29:12.000Z</time>
      </trkpt>
      <trkpt lat="44.8071" lon="0.83459">
        <ele>236.6</ele>
        <time>2026-05-01T15:29:13.000Z</time>
      </trkpt>
      <trkpt lat="44.80711" lon="0.83459">
        <ele>237</ele>
        <time>2026-05-01T15:29:14.000Z</time>
      </trkpt>
      <trkpt lat="44.80712" lon="0.83457">
        <ele>237.1</ele>
        <time>2026-05-01T15:29:15.000Z</time>
      </trkpt>
      <trkpt lat="44.80713" lon="0.83456">
        <ele>237.2</ele>
        <time>2026-05-01T15:29:16.000Z</time>
      </trkpt>
      <trkpt lat="44.80714" lon="0.83456">
        <ele>237.4</ele>
        <time>2026-05-01T15:29:17.000Z</time>
      </trkpt>
      <trkpt lat="44.80716" lon="0.83455">
        <ele>238.3</ele>
        <time>2026-05-01T15:29:18.000Z</time>
      </trkpt>
      <trkpt lat="44.80717" lon="0.83453">
        <ele>238.6</ele>
        <time>2026-05-01T15:29:19.000Z</time>
      </trkpt>
      <trkpt lat="44.80718" lon="0.83452">
        <ele>238.8</ele>
        <time>2026-05-01T15:29:20.000Z</time>
      </trkpt>
      <trkpt lat="44.8072" lon="0.83451">
        <ele>239</ele>
        <time>2026-05-01T15:29:21.000Z</time>
      </trkpt>
      <trkpt lat="44.80721" lon="0.8345">
        <ele>239.2</ele>
        <time>2026-05-01T15:29:22.000Z</time>
      </trkpt>
      <trkpt lat="44.80723" lon="0.83449">
        <ele>238.8</ele>
        <time>2026-05-01T15:29:23.000Z</time>
      </trkpt>
      <trkpt lat="44.80724" lon="0.83449">
        <ele>237.9</ele>
        <time>2026-05-01T15:29:24.000Z</time>
      </trkpt>
      <trkpt lat="44.80726" lon="0.83448">
        <ele>238.1</ele>
        <time>2026-05-01T15:29:25.000Z</time>
      </trkpt>
      <trkpt lat="44.80727" lon="0.83447">
        <ele>238.3</ele>
        <time>2026-05-01T15:29:26.000Z</time>
      </trkpt>
      <trkpt lat="44.80729" lon="0.83446">
        <ele>238.8</ele>
        <time>2026-05-01T15:29:27.000Z</time>
      </trkpt>
      <trkpt lat="44.80731" lon="0.83446">
        <ele>239.9</ele>
        <time>2026-05-01T15:29:28.000Z</time>
      </trkpt>
      <trkpt lat="44.80732" lon="0.83446">
        <ele>239.6</ele>
        <time>2026-05-01T15:29:29.000Z</time>
      </trkpt>
      <trkpt lat="44.80734" lon="0.83446">
        <ele>239.9</ele>
        <time>2026-05-01T15:29:30.000Z</time>
      </trkpt>
      <trkpt lat="44.80736" lon="0.83446">
        <ele>239.6</ele>
        <time>2026-05-01T15:29:31.000Z</time>
      </trkpt>
      <trkpt lat="44.80737" lon="0.83446">
        <ele>239.7</ele>
        <time>2026-05-01T15:29:32.000Z</time>
      </trkpt>
      <trkpt lat="44.80739" lon="0.83446">
        <ele>240.2</ele>
        <time>2026-05-01T15:29:33.000Z</time>
      </trkpt>
      <trkpt lat="44.8074" lon="0.83445">
        <ele>240.8</ele>
        <time>2026-05-01T15:29:34.000Z</time>
      </trkpt>
      <trkpt lat="44.80741" lon="0.83446">
        <ele>241.1</ele>
        <time>2026-05-01T15:29:35.000Z</time>
      </trkpt>
      <trkpt lat="44.80743" lon="0.83446">
        <ele>241.3</ele>
        <time>2026-05-01T15:29:36.000Z</time>
      </trkpt>
      <trkpt lat="44.80744" lon="0.83446">
        <ele>243.1</ele>
        <time>2026-05-01T15:29:37.000Z</time>
      </trkpt>
      <trkpt lat="44.80746" lon="0.83446">
        <ele>242.1</ele>
        <time>2026-05-01T15:29:38.000Z</time>
      </trkpt>
      <trkpt lat="44.80747" lon="0.83446">
        <ele>241.7</ele>
        <time>2026-05-01T15:29:39.000Z</time>
      </trkpt>
      <trkpt lat="44.80748" lon="0.83446">
        <ele>241.9</ele>
        <time>2026-05-01T15:29:40.000Z</time>
      </trkpt>
      <trkpt lat="44.8075" lon="0.83446">
        <ele>242.5</ele>
        <time>2026-05-01T15:29:41.000Z</time>
      </trkpt>
      <trkpt lat="44.80751" lon="0.83446">
        <ele>242.6</ele>
        <time>2026-05-01T15:29:42.000Z</time>
      </trkpt>
      <trkpt lat="44.80753" lon="0.83447">
        <ele>242.1</ele>
        <time>2026-05-01T15:29:43.000Z</time>
      </trkpt>
      <trkpt lat="44.80754" lon="0.83447">
        <ele>242.1</ele>
        <time>2026-05-01T15:29:44.000Z</time>
      </trkpt>
      <trkpt lat="44.80756" lon="0.83447">
        <ele>241.9</ele>
        <time>2026-05-01T15:29:45.000Z</time>
      </trkpt>
      <trkpt lat="44.80757" lon="0.83448">
        <ele>241.9</ele>
        <time>2026-05-01T15:29:46.000Z</time>
      </trkpt>
      <trkpt lat="44.80758" lon="0.83449">
        <ele>241.6</ele>
        <time>2026-05-01T15:29:47.000Z</time>
      </trkpt>
      <trkpt lat="44.8076" lon="0.8345">
        <ele>240.4</ele>
        <time>2026-05-01T15:29:48.000Z</time>
      </trkpt>
      <trkpt lat="44.80762" lon="0.8345">
        <ele>240.9</ele>
        <time>2026-05-01T15:29:49.000Z</time>
      </trkpt>
      <trkpt lat="44.80763" lon="0.83451">
        <ele>241</ele>
        <time>2026-05-01T15:29:50.000Z</time>
      </trkpt>
      <trkpt lat="44.80765" lon="0.83452">
        <ele>241</ele>
        <time>2026-05-01T15:29:51.000Z</time>
      </trkpt>
      <trkpt lat="44.80766" lon="0.83452">
        <ele>240.9</ele>
        <time>2026-05-01T15:29:52.000Z</time>
      </trkpt>
      <trkpt lat="44.80768" lon="0.83452">
        <ele>240.3</ele>
        <time>2026-05-01T15:29:53.000Z</time>
      </trkpt>
      <trkpt lat="44.80769" lon="0.83452">
        <ele>240.3</ele>
        <time>2026-05-01T15:29:54.000Z</time>
      </trkpt>
      <trkpt lat="44.80771" lon="0.83452">
        <ele>240.4</ele>
        <time>2026-05-01T15:29:55.000Z</time>
      </trkpt>
      <trkpt lat="44.80773" lon="0.83452">
        <ele>241.1</ele>
        <time>2026-05-01T15:29:56.000Z</time>
      </trkpt>
      <trkpt lat="44.80774" lon="0.83453">
        <ele>241.7</ele>
        <time>2026-05-01T15:29:57.000Z</time>
      </trkpt>
      <trkpt lat="44.80776" lon="0.83454">
        <ele>241.8</ele>
        <time>2026-05-01T15:29:58.000Z</time>
      </trkpt>
      <trkpt lat="44.80777" lon="0.83454">
        <ele>241.7</ele>
        <time>2026-05-01T15:29:59.000Z</time>
      </trkpt>
      <trkpt lat="44.80779" lon="0.83454">
        <ele>241.5</ele>
        <time>2026-05-01T15:30:00.000Z</time>
      </trkpt>
      <trkpt lat="44.80781" lon="0.83455">
        <ele>242.3</ele>
        <time>2026-05-01T15:30:01.000Z</time>
      </trkpt>
      <trkpt lat="44.80782" lon="0.83455">
        <ele>242.5</ele>
        <time>2026-05-01T15:30:02.000Z</time>
      </trkpt>
      <trkpt lat="44.80784" lon="0.83455">
        <ele>242.5</ele>
        <time>2026-05-01T15:30:03.000Z</time>
      </trkpt>
      <trkpt lat="44.80786" lon="0.83455">
        <ele>242.7</ele>
        <time>2026-05-01T15:30:04.000Z</time>
      </trkpt>
      <trkpt lat="44.80787" lon="0.83455">
        <ele>242</ele>
        <time>2026-05-01T15:30:05.000Z</time>
      </trkpt>
      <trkpt lat="44.80789" lon="0.83455">
        <ele>241.8</ele>
        <time>2026-05-01T15:30:06.000Z</time>
      </trkpt>
      <trkpt lat="44.8079" lon="0.83455">
        <ele>242.8</ele>
        <time>2026-05-01T15:30:07.000Z</time>
      </trkpt>
      <trkpt lat="44.80792" lon="0.83455">
        <ele>242.8</ele>
        <time>2026-05-01T15:30:08.000Z</time>
      </trkpt>
      <trkpt lat="44.80794" lon="0.83455">
        <ele>242.7</ele>
        <time>2026-05-01T15:30:09.000Z</time>
      </trkpt>
      <trkpt lat="44.80796" lon="0.83455">
        <ele>242.8</ele>
        <time>2026-05-01T15:30:10.000Z</time>
      </trkpt>
      <trkpt lat="44.80798" lon="0.83455">
        <ele>243.1</ele>
        <time>2026-05-01T15:30:11.000Z</time>
      </trkpt>
      <trkpt lat="44.80799" lon="0.83455">
        <ele>243.6</ele>
        <time>2026-05-01T15:30:12.000Z</time>
      </trkpt>
      <trkpt lat="44.80801" lon="0.83455">
        <ele>244.2</ele>
        <time>2026-05-01T15:30:13.000Z</time>
      </trkpt>
      <trkpt lat="44.80803" lon="0.83455">
        <ele>243.5</ele>
        <time>2026-05-01T15:30:14.000Z</time>
      </trkpt>
      <trkpt lat="44.80804" lon="0.83455">
        <ele>242.9</ele>
        <time>2026-05-01T15:30:15.000Z</time>
      </trkpt>
      <trkpt lat="44.80806" lon="0.83456">
        <ele>242.6</ele>
        <time>2026-05-01T15:30:16.000Z</time>
      </trkpt>
      <trkpt lat="44.80808" lon="0.83456">
        <ele>242.6</ele>
        <time>2026-05-01T15:30:17.000Z</time>
      </trkpt>
      <trkpt lat="44.8081" lon="0.83457">
        <ele>242.2</ele>
        <time>2026-05-01T15:30:18.000Z</time>
      </trkpt>
      <trkpt lat="44.80812" lon="0.83457">
        <ele>239.5</ele>
        <time>2026-05-01T15:30:19.000Z</time>
      </trkpt>
      <trkpt lat="44.80813" lon="0.83457">
        <ele>239.6</ele>
        <time>2026-05-01T15:30:20.000Z</time>
      </trkpt>
      <trkpt lat="44.80815" lon="0.83458">
        <ele>240.7</ele>
        <time>2026-05-01T15:30:21.000Z</time>
      </trkpt>
      <trkpt lat="44.80817" lon="0.83458">
        <ele>241.1</ele>
        <time>2026-05-01T15:30:22.000Z</time>
      </trkpt>
      <trkpt lat="44.80819" lon="0.83459">
        <ele>240.5</ele>
        <time>2026-05-01T15:30:23.000Z</time>
      </trkpt>
      <trkpt lat="44.80821" lon="0.83459">
        <ele>240.3</ele>
        <time>2026-05-01T15:30:24.000Z</time>
      </trkpt>
      <trkpt lat="44.80823" lon="0.83459">
        <ele>240.2</ele>
        <time>2026-05-01T15:30:25.000Z</time>
      </trkpt>
      <trkpt lat="44.80826" lon="0.83459">
        <ele>240</ele>
        <time>2026-05-01T15:30:26.000Z</time>
      </trkpt>
      <trkpt lat="44.80828" lon="0.83459">
        <ele>240</ele>
        <time>2026-05-01T15:30:27.000Z</time>
      </trkpt>
      <trkpt lat="44.8083" lon="0.83459">
        <ele>240</ele>
        <time>2026-05-01T15:30:28.000Z</time>
      </trkpt>
      <trkpt lat="44.80832" lon="0.8346">
        <ele>240</ele>
        <time>2026-05-01T15:30:29.000Z</time>
      </trkpt>
      <trkpt lat="44.80833" lon="0.8346">
        <ele>239.6</ele>
        <time>2026-05-01T15:30:30.000Z</time>
      </trkpt>
      <trkpt lat="44.80835" lon="0.83461">
        <ele>239.8</ele>
        <time>2026-05-01T15:30:31.000Z</time>
      </trkpt>
      <trkpt lat="44.80838" lon="0.83461">
        <ele>239.9</ele>
        <time>2026-05-01T15:30:32.000Z</time>
      </trkpt>
      <trkpt lat="44.80839" lon="0.8346">
        <ele>240.2</ele>
        <time>2026-05-01T15:30:33.000Z</time>
      </trkpt>
      <trkpt lat="44.80841" lon="0.83461">
        <ele>239.2</ele>
        <time>2026-05-01T15:30:34.000Z</time>
      </trkpt>
      <trkpt lat="44.80842" lon="0.83461">
        <ele>239.4</ele>
        <time>2026-05-01T15:30:35.000Z</time>
      </trkpt>
      <trkpt lat="44.80844" lon="0.83461">
        <ele>240.6</ele>
        <time>2026-05-01T15:30:36.000Z</time>
      </trkpt>
      <trkpt lat="44.80845" lon="0.83462">
        <ele>240.5</ele>
        <time>2026-05-01T15:30:37.000Z</time>
      </trkpt>
      <trkpt lat="44.80847" lon="0.83462">
        <ele>240.1</ele>
        <time>2026-05-01T15:30:38.000Z</time>
      </trkpt>
      <trkpt lat="44.80848" lon="0.83462">
        <ele>239.5</ele>
        <time>2026-05-01T15:30:39.000Z</time>
      </trkpt>
      <trkpt lat="44.8085" lon="0.83463">
        <ele>238.9</ele>
        <time>2026-05-01T15:30:40.000Z</time>
      </trkpt>
      <trkpt lat="44.80852" lon="0.83463">
        <ele>238.7</ele>
        <time>2026-05-01T15:30:41.000Z</time>
      </trkpt>
      <trkpt lat="44.80853" lon="0.83463">
        <ele>238.8</ele>
        <time>2026-05-01T15:30:42.000Z</time>
      </trkpt>
      <trkpt lat="44.80855" lon="0.83462">
        <ele>238.8</ele>
        <time>2026-05-01T15:30:43.000Z</time>
      </trkpt>
      <trkpt lat="44.80857" lon="0.83462">
        <ele>238.8</ele>
        <time>2026-05-01T15:30:44.000Z</time>
      </trkpt>
      <trkpt lat="44.80859" lon="0.83462">
        <ele>239.1</ele>
        <time>2026-05-01T15:30:45.000Z</time>
      </trkpt>
      <trkpt lat="44.8086" lon="0.83463">
        <ele>238.8</ele>
        <time>2026-05-01T15:30:46.000Z</time>
      </trkpt>
      <trkpt lat="44.80862" lon="0.83464">
        <ele>238.5</ele>
        <time>2026-05-01T15:30:47.000Z</time>
      </trkpt>
      <trkpt lat="44.80864" lon="0.83466">
        <ele>238.1</ele>
        <time>2026-05-01T15:30:48.000Z</time>
      </trkpt>
      <trkpt lat="44.80866" lon="0.83466">
        <ele>238.7</ele>
        <time>2026-05-01T15:30:49.000Z</time>
      </trkpt>
      <trkpt lat="44.80868" lon="0.83466">
        <ele>238.7</ele>
        <time>2026-05-01T15:30:50.000Z</time>
      </trkpt>
      <trkpt lat="44.8087" lon="0.83466">
        <ele>239.2</ele>
        <time>2026-05-01T15:30:51.000Z</time>
      </trkpt>
      <trkpt lat="44.80872" lon="0.83465">
        <ele>238.8</ele>
        <time>2026-05-01T15:30:52.000Z</time>
      </trkpt>
      <trkpt lat="44.80874" lon="0.83465">
        <ele>239.2</ele>
        <time>2026-05-01T15:30:53.000Z</time>
      </trkpt>
      <trkpt lat="44.80876" lon="0.83465">
        <ele>239.1</ele>
        <time>2026-05-01T15:30:54.000Z</time>
      </trkpt>
      <trkpt lat="44.80878" lon="0.83464">
        <ele>238.9</ele>
        <time>2026-05-01T15:30:55.000Z</time>
      </trkpt>
      <trkpt lat="44.80879" lon="0.83465">
        <ele>238.3</ele>
        <time>2026-05-01T15:30:56.000Z</time>
      </trkpt>
      <trkpt lat="44.80881" lon="0.83465">
        <ele>238</ele>
        <time>2026-05-01T15:30:57.000Z</time>
      </trkpt>
      <trkpt lat="44.80882" lon="0.83465">
        <ele>237.5</ele>
        <time>2026-05-01T15:30:58.000Z</time>
      </trkpt>
      <trkpt lat="44.80883" lon="0.83464">
        <ele>235.7</ele>
        <time>2026-05-01T15:30:59.000Z</time>
      </trkpt>
      <trkpt lat="44.80884" lon="0.83464">
        <ele>234.8</ele>
        <time>2026-05-01T15:31:00.000Z</time>
      </trkpt>
      <trkpt lat="44.80886" lon="0.83464">
        <ele>234.4</ele>
        <time>2026-05-01T15:31:01.000Z</time>
      </trkpt>
      <trkpt lat="44.80887" lon="0.83463">
        <ele>233.1</ele>
        <time>2026-05-01T15:31:02.000Z</time>
      </trkpt>
      <trkpt lat="44.80888" lon="0.83463">
        <ele>232.3</ele>
        <time>2026-05-01T15:31:03.000Z</time>
      </trkpt>
      <trkpt lat="44.8089" lon="0.83462">
        <ele>232</ele>
        <time>2026-05-01T15:31:04.000Z</time>
      </trkpt>
      <trkpt lat="44.80891" lon="0.83462">
        <ele>231.6</ele>
        <time>2026-05-01T15:31:05.000Z</time>
      </trkpt>
      <trkpt lat="44.80893" lon="0.83461">
        <ele>231.1</ele>
        <time>2026-05-01T15:31:06.000Z</time>
      </trkpt>
      <trkpt lat="44.80894" lon="0.8346">
        <ele>231</ele>
        <time>2026-05-01T15:31:07.000Z</time>
      </trkpt>
      <trkpt lat="44.80895" lon="0.8346">
        <ele>230.4</ele>
        <time>2026-05-01T15:31:08.000Z</time>
      </trkpt>
      <trkpt lat="44.80897" lon="0.83459">
        <ele>229.5</ele>
        <time>2026-05-01T15:31:09.000Z</time>
      </trkpt>
      <trkpt lat="44.80898" lon="0.83458">
        <ele>229</ele>
        <time>2026-05-01T15:31:10.000Z</time>
      </trkpt>
      <trkpt lat="44.809" lon="0.83457">
        <ele>228.6</ele>
        <time>2026-05-01T15:31:11.000Z</time>
      </trkpt>
      <trkpt lat="44.80902" lon="0.83457">
        <ele>228.5</ele>
        <time>2026-05-01T15:31:12.000Z</time>
      </trkpt>
      <trkpt lat="44.80904" lon="0.83457">
        <ele>228.4</ele>
        <time>2026-05-01T15:31:13.000Z</time>
      </trkpt>
      <trkpt lat="44.80906" lon="0.83457">
        <ele>228.1</ele>
        <time>2026-05-01T15:31:14.000Z</time>
      </trkpt>
      <trkpt lat="44.80907" lon="0.83457">
        <ele>228</ele>
        <time>2026-05-01T15:31:15.000Z</time>
      </trkpt>
      <trkpt lat="44.80909" lon="0.83457">
        <ele>227.9</ele>
        <time>2026-05-01T15:31:16.000Z</time>
      </trkpt>
      <trkpt lat="44.80911" lon="0.83457">
        <ele>228.2</ele>
        <time>2026-05-01T15:31:17.000Z</time>
      </trkpt>
      <trkpt lat="44.80913" lon="0.83457">
        <ele>227.9</ele>
        <time>2026-05-01T15:31:18.000Z</time>
      </trkpt>
      <trkpt lat="44.80915" lon="0.83457">
        <ele>227.7</ele>
        <time>2026-05-01T15:31:19.000Z</time>
      </trkpt>
      <trkpt lat="44.80916" lon="0.83457">
        <ele>227.5</ele>
        <time>2026-05-01T15:31:20.000Z</time>
      </trkpt>
      <trkpt lat="44.80918" lon="0.83457">
        <ele>227.2</ele>
        <time>2026-05-01T15:31:21.000Z</time>
      </trkpt>
      <trkpt lat="44.8092" lon="0.83457">
        <ele>227.2</ele>
        <time>2026-05-01T15:31:22.000Z</time>
      </trkpt>
      <trkpt lat="44.80923" lon="0.83456">
        <ele>227.5</ele>
        <time>2026-05-01T15:31:23.000Z</time>
      </trkpt>
      <trkpt lat="44.80925" lon="0.83456">
        <ele>227.9</ele>
        <time>2026-05-01T15:31:24.000Z</time>
      </trkpt>
      <trkpt lat="44.80927" lon="0.83456">
        <ele>228.2</ele>
        <time>2026-05-01T15:31:25.000Z</time>
      </trkpt>
      <trkpt lat="44.80929" lon="0.83456">
        <ele>228.6</ele>
        <time>2026-05-01T15:31:26.000Z</time>
      </trkpt>
      <trkpt lat="44.80931" lon="0.83456">
        <ele>228.3</ele>
        <time>2026-05-01T15:31:27.000Z</time>
      </trkpt>
      <trkpt lat="44.80933" lon="0.83455">
        <ele>228.4</ele>
        <time>2026-05-01T15:31:28.000Z</time>
      </trkpt>
      <trkpt lat="44.80935" lon="0.83456">
        <ele>228.3</ele>
        <time>2026-05-01T15:31:29.000Z</time>
      </trkpt>
      <trkpt lat="44.80937" lon="0.83456">
        <ele>228.4</ele>
        <time>2026-05-01T15:31:30.000Z</time>
      </trkpt>
      <trkpt lat="44.80938" lon="0.83456">
        <ele>228</ele>
        <time>2026-05-01T15:31:31.000Z</time>
      </trkpt>
      <trkpt lat="44.8094" lon="0.83455">
        <ele>228.1</ele>
        <time>2026-05-01T15:31:32.000Z</time>
      </trkpt>
      <trkpt lat="44.80941" lon="0.83455">
        <ele>227.5</ele>
        <time>2026-05-01T15:31:33.000Z</time>
      </trkpt>
      <trkpt lat="44.80943" lon="0.83454">
        <ele>227.5</ele>
        <time>2026-05-01T15:31:34.000Z</time>
      </trkpt>
      <trkpt lat="44.80944" lon="0.83454">
        <ele>227</ele>
        <time>2026-05-01T15:31:35.000Z</time>
      </trkpt>
      <trkpt lat="44.80946" lon="0.83454">
        <ele>226.5</ele>
        <time>2026-05-01T15:31:36.000Z</time>
      </trkpt>
      <trkpt lat="44.80948" lon="0.83454">
        <ele>226.1</ele>
        <time>2026-05-01T15:31:37.000Z</time>
      </trkpt>
      <trkpt lat="44.8095" lon="0.83454">
        <ele>226.2</ele>
        <time>2026-05-01T15:31:38.000Z</time>
      </trkpt>
      <trkpt lat="44.80951" lon="0.83454">
        <ele>226.1</ele>
        <time>2026-05-01T15:31:39.000Z</time>
      </trkpt>
      <trkpt lat="44.80953" lon="0.83454">
        <ele>225.8</ele>
        <time>2026-05-01T15:31:40.000Z</time>
      </trkpt>
      <trkpt lat="44.80955" lon="0.83455">
        <ele>225.6</ele>
        <time>2026-05-01T15:31:41.000Z</time>
      </trkpt>
      <trkpt lat="44.80957" lon="0.83455">
        <ele>225.7</ele>
        <time>2026-05-01T15:31:42.000Z</time>
      </trkpt>
      <trkpt lat="44.80959" lon="0.83455">
        <ele>225.5</ele>
        <time>2026-05-01T15:31:43.000Z</time>
      </trkpt>
      <trkpt lat="44.80961" lon="0.83455">
        <ele>224.5</ele>
        <time>2026-05-01T15:31:44.000Z</time>
      </trkpt>
      <trkpt lat="44.80963" lon="0.83456">
        <ele>224.3</ele>
        <time>2026-05-01T15:31:45.000Z</time>
      </trkpt>
      <trkpt lat="44.80965" lon="0.83456">
        <ele>223.7</ele>
        <time>2026-05-01T15:31:46.000Z</time>
      </trkpt>
      <trkpt lat="44.80967" lon="0.83455">
        <ele>223.6</ele>
        <time>2026-05-01T15:31:47.000Z</time>
      </trkpt>
      <trkpt lat="44.80969" lon="0.83456">
        <ele>224</ele>
        <time>2026-05-01T15:31:48.000Z</time>
      </trkpt>
      <trkpt lat="44.80971" lon="0.83456">
        <ele>223.1</ele>
        <time>2026-05-01T15:31:49.000Z</time>
      </trkpt>
      <trkpt lat="44.80973" lon="0.83457">
        <ele>223.4</ele>
        <time>2026-05-01T15:31:50.000Z</time>
      </trkpt>
      <trkpt lat="44.80974" lon="0.83457">
        <ele>223.6</ele>
        <time>2026-05-01T15:31:51.000Z</time>
      </trkpt>
      <trkpt lat="44.80976" lon="0.83457">
        <ele>223.8</ele>
        <time>2026-05-01T15:31:52.000Z</time>
      </trkpt>
      <trkpt lat="44.80978" lon="0.83457">
        <ele>224.4</ele>
        <time>2026-05-01T15:31:53.000Z</time>
      </trkpt>
      <trkpt lat="44.8098" lon="0.83457">
        <ele>224.8</ele>
        <time>2026-05-01T15:31:54.000Z</time>
      </trkpt>
      <trkpt lat="44.80982" lon="0.83457">
        <ele>225.2</ele>
        <time>2026-05-01T15:31:55.000Z</time>
      </trkpt>
      <trkpt lat="44.80984" lon="0.83457">
        <ele>224.9</ele>
        <time>2026-05-01T15:31:56.000Z</time>
      </trkpt>
      <trkpt lat="44.80986" lon="0.83456">
        <ele>224.8</ele>
        <time>2026-05-01T15:31:57.000Z</time>
      </trkpt>
      <trkpt lat="44.80987" lon="0.83456">
        <ele>224.6</ele>
        <time>2026-05-01T15:31:58.000Z</time>
      </trkpt>
      <trkpt lat="44.80989" lon="0.83456">
        <ele>224.4</ele>
        <time>2026-05-01T15:31:59.000Z</time>
      </trkpt>
      <trkpt lat="44.8099" lon="0.83456">
        <ele>224.6</ele>
        <time>2026-05-01T15:32:00.000Z</time>
      </trkpt>
      <trkpt lat="44.80992" lon="0.83457">
        <ele>223.8</ele>
        <time>2026-05-01T15:32:01.000Z</time>
      </trkpt>
      <trkpt lat="44.80994" lon="0.83457">
        <ele>224.1</ele>
        <time>2026-05-01T15:32:02.000Z</time>
      </trkpt>
      <trkpt lat="44.80995" lon="0.83456">
        <ele>224.7</ele>
        <time>2026-05-01T15:32:03.000Z</time>
      </trkpt>
      <trkpt lat="44.80997" lon="0.83456">
        <ele>224.4</ele>
        <time>2026-05-01T15:32:04.000Z</time>
      </trkpt>
      <trkpt lat="44.80998" lon="0.83456">
        <ele>225</ele>
        <time>2026-05-01T15:32:05.000Z</time>
      </trkpt>
      <trkpt lat="44.80999" lon="0.83455">
        <ele>225.1</ele>
        <time>2026-05-01T15:32:06.000Z</time>
      </trkpt>
      <trkpt lat="44.81001" lon="0.83454">
        <ele>224.9</ele>
        <time>2026-05-01T15:32:07.000Z</time>
      </trkpt>
      <trkpt lat="44.81002" lon="0.83453">
        <ele>224.7</ele>
        <time>2026-05-01T15:32:08.000Z</time>
      </trkpt>
      <trkpt lat="44.81004" lon="0.83452">
        <ele>225</ele>
        <time>2026-05-01T15:32:09.000Z</time>
      </trkpt>
      <trkpt lat="44.81005" lon="0.83451">
        <ele>224.7</ele>
        <time>2026-05-01T15:32:10.000Z</time>
      </trkpt>
      <trkpt lat="44.81006" lon="0.83449">
        <ele>224.6</ele>
        <time>2026-05-01T15:32:11.000Z</time>
      </trkpt>
      <trkpt lat="44.81007" lon="0.83447">
        <ele>224.2</ele>
        <time>2026-05-01T15:32:12.000Z</time>
      </trkpt>
      <trkpt lat="44.81009" lon="0.83446">
        <ele>223.9</ele>
        <time>2026-05-01T15:32:13.000Z</time>
      </trkpt>
      <trkpt lat="44.8101" lon="0.83444">
        <ele>223.7</ele>
        <time>2026-05-01T15:32:14.000Z</time>
      </trkpt>
      <trkpt lat="44.81011" lon="0.83443">
        <ele>224.2</ele>
        <time>2026-05-01T15:32:15.000Z</time>
      </trkpt>
      <trkpt lat="44.81011" lon="0.83441">
        <ele>224.7</ele>
        <time>2026-05-01T15:32:16.000Z</time>
      </trkpt>
      <trkpt lat="44.81012" lon="0.83439">
        <ele>224.9</ele>
        <time>2026-05-01T15:32:17.000Z</time>
      </trkpt>
      <trkpt lat="44.81013" lon="0.83437">
        <ele>225.4</ele>
        <time>2026-05-01T15:32:18.000Z</time>
      </trkpt>
      <trkpt lat="44.81013" lon="0.83435">
        <ele>225.8</ele>
        <time>2026-05-01T15:32:19.000Z</time>
      </trkpt>
      <trkpt lat="44.81014" lon="0.83432">
        <ele>226.3</ele>
        <time>2026-05-01T15:32:20.000Z</time>
      </trkpt>
      <trkpt lat="44.81015" lon="0.8343">
        <ele>226.2</ele>
        <time>2026-05-01T15:32:21.000Z</time>
      </trkpt>
      <trkpt lat="44.81015" lon="0.83427">
        <ele>226.3</ele>
        <time>2026-05-01T15:32:22.000Z</time>
      </trkpt>
      <trkpt lat="44.81016" lon="0.83425">
        <ele>226</ele>
        <time>2026-05-01T15:32:23.000Z</time>
      </trkpt>
      <trkpt lat="44.81016" lon="0.83422">
        <ele>225.5</ele>
        <time>2026-05-01T15:32:24.000Z</time>
      </trkpt>
      <trkpt lat="44.81017" lon="0.83419">
        <ele>225.7</ele>
        <time>2026-05-01T15:32:25.000Z</time>
      </trkpt>
      <trkpt lat="44.81018" lon="0.83416">
        <ele>225.6</ele>
        <time>2026-05-01T15:32:26.000Z</time>
      </trkpt>
      <trkpt lat="44.81019" lon="0.83412">
        <ele>226</ele>
        <time>2026-05-01T15:32:27.000Z</time>
      </trkpt>
      <trkpt lat="44.8102" lon="0.83407">
        <ele>225.7</ele>
        <time>2026-05-01T15:32:28.000Z</time>
      </trkpt>
      <trkpt lat="44.81021" lon="0.83404">
        <ele>225.2</ele>
        <time>2026-05-01T15:32:29.000Z</time>
      </trkpt>
      <trkpt lat="44.81023" lon="0.834">
        <ele>224.7</ele>
        <time>2026-05-01T15:32:30.000Z</time>
      </trkpt>
      <trkpt lat="44.81024" lon="0.83396">
        <ele>223.7</ele>
        <time>2026-05-01T15:32:31.000Z</time>
      </trkpt>
      <trkpt lat="44.81026" lon="0.83392">
        <ele>223.8</ele>
        <time>2026-05-01T15:32:32.000Z</time>
      </trkpt>
      <trkpt lat="44.81027" lon="0.83388">
        <ele>223.8</ele>
        <time>2026-05-01T15:32:33.000Z</time>
      </trkpt>
      <trkpt lat="44.81028" lon="0.83384">
        <ele>224.6</ele>
        <time>2026-05-01T15:32:34.000Z</time>
      </trkpt>
      <trkpt lat="44.81029" lon="0.8338">
        <ele>224.7</ele>
        <time>2026-05-01T15:32:35.000Z</time>
      </trkpt>
      <trkpt lat="44.8103" lon="0.83376">
        <ele>224.9</ele>
        <time>2026-05-01T15:32:36.000Z</time>
      </trkpt>
      <trkpt lat="44.81031" lon="0.83372">
        <ele>225.1</ele>
        <time>2026-05-01T15:32:37.000Z</time>
      </trkpt>
      <trkpt lat="44.81032" lon="0.83368">
        <ele>225.5</ele>
        <time>2026-05-01T15:32:38.000Z</time>
      </trkpt>
      <trkpt lat="44.81034" lon="0.83364">
        <ele>226.7</ele>
        <time>2026-05-01T15:32:39.000Z</time>
      </trkpt>
      <trkpt lat="44.81034" lon="0.83359">
        <ele>227</ele>
        <time>2026-05-01T15:32:40.000Z</time>
      </trkpt>
      <trkpt lat="44.81035" lon="0.83355">
        <ele>226.7</ele>
        <time>2026-05-01T15:32:41.000Z</time>
      </trkpt>
      <trkpt lat="44.81035" lon="0.83351">
        <ele>227</ele>
        <time>2026-05-01T15:32:42.000Z</time>
      </trkpt>
      <trkpt lat="44.81035" lon="0.83349">
        <ele>227.2</ele>
        <time>2026-05-01T15:32:43.000Z</time>
      </trkpt>
      <trkpt lat="44.81036" lon="0.83347">
        <ele>226.5</ele>
        <time>2026-05-01T15:32:44.000Z</time>
      </trkpt>
      <trkpt lat="44.81035" lon="0.83345">
        <ele>226.7</ele>
        <time>2026-05-01T15:32:45.000Z</time>
      </trkpt>
      <trkpt lat="44.81035" lon="0.83343">
        <ele>227</ele>
        <time>2026-05-01T15:32:46.000Z</time>
      </trkpt>
      <trkpt lat="44.81034" lon="0.83341">
        <ele>229.7</ele>
        <time>2026-05-01T15:32:47.000Z</time>
      </trkpt>
      <trkpt lat="44.81033" lon="0.83339">
        <ele>229.5</ele>
        <time>2026-05-01T15:32:48.000Z</time>
      </trkpt>
      <trkpt lat="44.81033" lon="0.83337">
        <ele>229.3</ele>
        <time>2026-05-01T15:32:49.000Z</time>
      </trkpt>
      <trkpt lat="44.81033" lon="0.83334">
        <ele>230.3</ele>
        <time>2026-05-01T15:32:50.000Z</time>
      </trkpt>
      <trkpt lat="44.81032" lon="0.83332">
        <ele>231</ele>
        <time>2026-05-01T15:32:51.000Z</time>
      </trkpt>
      <trkpt lat="44.81031" lon="0.83329">
        <ele>231.1</ele>
        <time>2026-05-01T15:32:52.000Z</time>
      </trkpt>
      <trkpt lat="44.8103" lon="0.83324">
        <ele>231.1</ele>
        <time>2026-05-01T15:32:53.000Z</time>
      </trkpt>
      <trkpt lat="44.8103" lon="0.8332">
        <ele>230.8</ele>
        <time>2026-05-01T15:32:54.000Z</time>
      </trkpt>
      <trkpt lat="44.8103" lon="0.83316">
        <ele>230.6</ele>
        <time>2026-05-01T15:32:55.000Z</time>
      </trkpt>
      <trkpt lat="44.8103" lon="0.83312">
        <ele>230.7</ele>
        <time>2026-05-01T15:32:56.000Z</time>
      </trkpt>
      <trkpt lat="44.8103" lon="0.83308">
        <ele>230.6</ele>
        <time>2026-05-01T15:32:57.000Z</time>
      </trkpt>
      <trkpt lat="44.8103" lon="0.83305">
        <ele>230.9</ele>
        <time>2026-05-01T15:32:58.000Z</time>
      </trkpt>
      <trkpt lat="44.81029" lon="0.833">
        <ele>230.6</ele>
        <time>2026-05-01T15:32:59.000Z</time>
      </trkpt>
      <trkpt lat="44.81029" lon="0.83296">
        <ele>230.1</ele>
        <time>2026-05-01T15:33:00.000Z</time>
      </trkpt>
      <trkpt lat="44.8103" lon="0.83293">
        <ele>229.6</ele>
        <time>2026-05-01T15:33:01.000Z</time>
      </trkpt>
      <trkpt lat="44.8103" lon="0.8329">
        <ele>229.4</ele>
        <time>2026-05-01T15:33:02.000Z</time>
      </trkpt>
      <trkpt lat="44.8103" lon="0.83286">
        <ele>229.5</ele>
        <time>2026-05-01T15:33:03.000Z</time>
      </trkpt>
      <trkpt lat="44.81029" lon="0.83284">
        <ele>229.7</ele>
        <time>2026-05-01T15:33:04.000Z</time>
      </trkpt>
      <trkpt lat="44.81029" lon="0.83281">
        <ele>230.2</ele>
        <time>2026-05-01T15:33:05.000Z</time>
      </trkpt>
      <trkpt lat="44.81028" lon="0.83279">
        <ele>230.9</ele>
        <time>2026-05-01T15:33:06.000Z</time>
      </trkpt>
      <trkpt lat="44.81027" lon="0.83276">
        <ele>231.4</ele>
        <time>2026-05-01T15:33:07.000Z</time>
      </trkpt>
      <trkpt lat="44.81026" lon="0.83274">
        <ele>231.5</ele>
        <time>2026-05-01T15:33:08.000Z</time>
      </trkpt>
      <trkpt lat="44.81025" lon="0.83271">
        <ele>231.2</ele>
        <time>2026-05-01T15:33:09.000Z</time>
      </trkpt>
      <trkpt lat="44.81024" lon="0.83268">
        <ele>231.2</ele>
        <time>2026-05-01T15:33:10.000Z</time>
      </trkpt>
      <trkpt lat="44.81023" lon="0.83264">
        <ele>231.6</ele>
        <time>2026-05-01T15:33:11.000Z</time>
      </trkpt>
      <trkpt lat="44.81022" lon="0.8326">
        <ele>232.7</ele>
        <time>2026-05-01T15:33:12.000Z</time>
      </trkpt>
      <trkpt lat="44.8102" lon="0.83257">
        <ele>233.6</ele>
        <time>2026-05-01T15:33:13.000Z</time>
      </trkpt>
      <trkpt lat="44.81019" lon="0.83254">
        <ele>234.1</ele>
        <time>2026-05-01T15:33:14.000Z</time>
      </trkpt>
      <trkpt lat="44.81019" lon="0.8325">
        <ele>234.6</ele>
        <time>2026-05-01T15:33:15.000Z</time>
      </trkpt>
      <trkpt lat="44.81019" lon="0.83247">
        <ele>235.2</ele>
        <time>2026-05-01T15:33:16.000Z</time>
      </trkpt>
      <trkpt lat="44.81019" lon="0.83244">
        <ele>232.7</ele>
        <time>2026-05-01T15:33:17.000Z</time>
      </trkpt>
      <trkpt lat="44.81018" lon="0.83245">
        <ele>235.2</ele>
        <time>2026-05-01T15:33:18.000Z</time>
      </trkpt>
      <trkpt lat="44.81018" lon="0.83244">
        <ele>234.6</ele>
        <time>2026-05-01T15:33:19.000Z</time>
      </trkpt>
      <trkpt lat="44.81017" lon="0.83245">
        <ele>234.5</ele>
        <time>2026-05-01T15:33:20.000Z</time>
      </trkpt>
      <trkpt lat="44.81017" lon="0.83245">
        <ele>235</ele>
        <time>2026-05-01T15:33:21.000Z</time>
      </trkpt>
      <trkpt lat="44.81017" lon="0.83245">
        <ele>235.2</ele>
        <time>2026-05-01T15:33:22.000Z</time>
      </trkpt>
      <trkpt lat="44.81017" lon="0.83245">
        <ele>235.2</ele>
        <time>2026-05-01T15:33:23.000Z</time>
      </trkpt>
      <trkpt lat="44.81016" lon="0.83243">
        <ele>235.5</ele>
        <time>2026-05-01T15:33:24.000Z</time>
      </trkpt>
      <trkpt lat="44.81016" lon="0.83242">
        <ele>235.7</ele>
        <time>2026-05-01T15:33:25.000Z</time>
      </trkpt>
      <trkpt lat="44.81016" lon="0.83242">
        <ele>235.6</ele>
        <time>2026-05-01T15:33:26.000Z</time>
      </trkpt>
      <trkpt lat="44.81016" lon="0.83242">
        <ele>235.6</ele>
        <time>2026-05-01T15:33:27.000Z</time>
      </trkpt>
      <trkpt lat="44.81016" lon="0.83242">
        <ele>235.6</ele>
        <time>2026-05-01T15:33:28.000Z</time>
      </trkpt>
      <trkpt lat="44.81016" lon="0.83242">
        <ele>235.6</ele>
        <time>2026-05-01T15:33:29.000Z</time>
      </trkpt>
      <trkpt lat="44.81016" lon="0.83242">
        <ele>235.6</ele>
        <time>2026-05-01T15:33:30.000Z</time>
      </trkpt>
      <trkpt lat="44.81016" lon="0.83241">
        <ele>235.5</ele>
        <time>2026-05-01T15:33:31.000Z</time>
      </trkpt>
      <trkpt lat="44.81017" lon="0.83241">
        <ele>235.4</ele>
        <time>2026-05-01T15:33:32.000Z</time>
      </trkpt>
      <trkpt lat="44.81017" lon="0.83241">
        <ele>235.4</ele>
        <time>2026-05-01T15:33:33.000Z</time>
      </trkpt>
      <trkpt lat="44.81017" lon="0.83241">
        <ele>235.2</ele>
        <time>2026-05-01T15:33:34.000Z</time>
      </trkpt>
      <trkpt lat="44.81017" lon="0.83241">
        <ele>235.2</ele>
        <time>2026-05-01T15:33:35.000Z</time>
      </trkpt>
      <trkpt lat="44.81015" lon="0.8324">
        <ele>235.2</ele>
        <time>2026-05-01T15:33:36.000Z</time>
      </trkpt>
      <trkpt lat="44.81014" lon="0.83239">
        <ele>235.3</ele>
        <time>2026-05-01T15:33:37.000Z</time>
      </trkpt>
      <trkpt lat="44.81013" lon="0.83237">
        <ele>235</ele>
        <time>2026-05-01T15:33:38.000Z</time>
      </trkpt>
      <trkpt lat="44.81015" lon="0.83235">
        <ele>233.3</ele>
        <time>2026-05-01T15:33:39.000Z</time>
      </trkpt>
      <trkpt lat="44.81017" lon="0.83233">
        <ele>233.3</ele>
        <time>2026-05-01T15:33:40.000Z</time>
      </trkpt>
      <trkpt lat="44.81019" lon="0.8323">
        <ele>233.2</ele>
        <time>2026-05-01T15:33:41.000Z</time>
      </trkpt>
      <trkpt lat="44.81022" lon="0.83227">
        <ele>233.4</ele>
        <time>2026-05-01T15:33:42.000Z</time>
      </trkpt>
      <trkpt lat="44.81024" lon="0.83224">
        <ele>232.5</ele>
        <time>2026-05-01T15:33:43.000Z</time>
      </trkpt>
      <trkpt lat="44.81026" lon="0.83222">
        <ele>231.5</ele>
        <time>2026-05-01T15:33:44.000Z</time>
      </trkpt>
      <trkpt lat="44.81028" lon="0.8322">
        <ele>231.4</ele>
        <time>2026-05-01T15:33:45.000Z</time>
      </trkpt>
      <trkpt lat="44.8103" lon="0.83219">
        <ele>231.7</ele>
        <time>2026-05-01T15:33:46.000Z</time>
      </trkpt>
      <trkpt lat="44.81032" lon="0.83217">
        <ele>231.8</ele>
        <time>2026-05-01T15:33:47.000Z</time>
      </trkpt>
      <trkpt lat="44.81034" lon="0.83214">
        <ele>232</ele>
        <time>2026-05-01T15:33:48.000Z</time>
      </trkpt>
      <trkpt lat="44.81036" lon="0.83212">
        <ele>231.1</ele>
        <time>2026-05-01T15:33:49.000Z</time>
      </trkpt>
      <trkpt lat="44.81038" lon="0.83209">
        <ele>231.7</ele>
        <time>2026-05-01T15:33:50.000Z</time>
      </trkpt>
      <trkpt lat="44.8104" lon="0.83204">
        <ele>232.3</ele>
        <time>2026-05-01T15:33:51.000Z</time>
      </trkpt>
      <trkpt lat="44.81041" lon="0.832">
        <ele>231.7</ele>
        <time>2026-05-01T15:33:52.000Z</time>
      </trkpt>
      <trkpt lat="44.81043" lon="0.83196">
        <ele>231.5</ele>
        <time>2026-05-01T15:33:53.000Z</time>
      </trkpt>
      <trkpt lat="44.81046" lon="0.83192">
        <ele>232.4</ele>
        <time>2026-05-01T15:33:54.000Z</time>
      </trkpt>
      <trkpt lat="44.81049" lon="0.8319">
        <ele>232.8</ele>
        <time>2026-05-01T15:33:55.000Z</time>
      </trkpt>
      <trkpt lat="44.81053" lon="0.83188">
        <ele>233.9</ele>
        <time>2026-05-01T15:33:56.000Z</time>
      </trkpt>
      <trkpt lat="44.81056" lon="0.83187">
        <ele>233.7</ele>
        <time>2026-05-01T15:33:57.000Z</time>
      </trkpt>
      <trkpt lat="44.81059" lon="0.83186">
        <ele>234.1</ele>
        <time>2026-05-01T15:33:58.000Z</time>
      </trkpt>
      <trkpt lat="44.81062" lon="0.83184">
        <ele>233.8</ele>
        <time>2026-05-01T15:33:59.000Z</time>
      </trkpt>
      <trkpt lat="44.81064" lon="0.83181">
        <ele>233.9</ele>
        <time>2026-05-01T15:34:00.000Z</time>
      </trkpt>
      <trkpt lat="44.81066" lon="0.83179">
        <ele>234.3</ele>
        <time>2026-05-01T15:34:01.000Z</time>
      </trkpt>
      <trkpt lat="44.81068" lon="0.83176">
        <ele>234.8</ele>
        <time>2026-05-01T15:34:02.000Z</time>
      </trkpt>
      <trkpt lat="44.8107" lon="0.83173">
        <ele>235.7</ele>
        <time>2026-05-01T15:34:03.000Z</time>
      </trkpt>
      <trkpt lat="44.81073" lon="0.83172">
        <ele>234.9</ele>
        <time>2026-05-01T15:34:04.000Z</time>
      </trkpt>
      <trkpt lat="44.81076" lon="0.8317">
        <ele>234.7</ele>
        <time>2026-05-01T15:34:05.000Z</time>
      </trkpt>
      <trkpt lat="44.81079" lon="0.83168">
        <ele>234.1</ele>
        <time>2026-05-01T15:34:06.000Z</time>
      </trkpt>
      <trkpt lat="44.81082" lon="0.83167">
        <ele>233.5</ele>
        <time>2026-05-01T15:34:07.000Z</time>
      </trkpt>
      <trkpt lat="44.81085" lon="0.83166">
        <ele>233</ele>
        <time>2026-05-01T15:34:08.000Z</time>
      </trkpt>
      <trkpt lat="44.81088" lon="0.83165">
        <ele>232.2</ele>
        <time>2026-05-01T15:34:09.000Z</time>
      </trkpt>
      <trkpt lat="44.81091" lon="0.83164">
        <ele>232.8</ele>
        <time>2026-05-01T15:34:10.000Z</time>
      </trkpt>
      <trkpt lat="44.81094" lon="0.83162">
        <ele>233.9</ele>
        <time>2026-05-01T15:34:11.000Z</time>
      </trkpt>
      <trkpt lat="44.81097" lon="0.8316">
        <ele>235.1</ele>
        <time>2026-05-01T15:34:12.000Z</time>
      </trkpt>
      <trkpt lat="44.811" lon="0.83159">
        <ele>235.5</ele>
        <time>2026-05-01T15:34:13.000Z</time>
      </trkpt>
      <trkpt lat="44.81103" lon="0.83157">
        <ele>235</ele>
        <time>2026-05-01T15:34:14.000Z</time>
      </trkpt>
      <trkpt lat="44.81105" lon="0.83155">
        <ele>235.9</ele>
        <time>2026-05-01T15:34:15.000Z</time>
      </trkpt>
      <trkpt lat="44.81108" lon="0.83154">
        <ele>236.1</ele>
        <time>2026-05-01T15:34:16.000Z</time>
      </trkpt>
      <trkpt lat="44.81111" lon="0.83152">
        <ele>235.5</ele>
        <time>2026-05-01T15:34:17.000Z</time>
      </trkpt>
      <trkpt lat="44.81113" lon="0.8315">
        <ele>235.3</ele>
        <time>2026-05-01T15:34:18.000Z</time>
      </trkpt>
      <trkpt lat="44.81116" lon="0.83149">
        <ele>233.8</ele>
        <time>2026-05-01T15:34:19.000Z</time>
      </trkpt>
      <trkpt lat="44.81119" lon="0.83148">
        <ele>234.1</ele>
        <time>2026-05-01T15:34:20.000Z</time>
      </trkpt>
      <trkpt lat="44.81122" lon="0.83146">
        <ele>233.9</ele>
        <time>2026-05-01T15:34:21.000Z</time>
      </trkpt>
      <trkpt lat="44.81125" lon="0.83146">
        <ele>233.4</ele>
        <time>2026-05-01T15:34:22.000Z</time>
      </trkpt>
      <trkpt lat="44.81129" lon="0.83145">
        <ele>233.7</ele>
        <time>2026-05-01T15:34:23.000Z</time>
      </trkpt>
      <trkpt lat="44.81132" lon="0.83145">
        <ele>233.8</ele>
        <time>2026-05-01T15:34:24.000Z</time>
      </trkpt>
      <trkpt lat="44.81135" lon="0.83144">
        <ele>233.8</ele>
        <time>2026-05-01T15:34:25.000Z</time>
      </trkpt>
      <trkpt lat="44.81138" lon="0.83144">
        <ele>234.1</ele>
        <time>2026-05-01T15:34:26.000Z</time>
      </trkpt>
      <trkpt lat="44.81141" lon="0.83145">
        <ele>234</ele>
        <time>2026-05-01T15:34:27.000Z</time>
      </trkpt>
      <trkpt lat="44.81144" lon="0.83145">
        <ele>233.9</ele>
        <time>2026-05-01T15:34:28.000Z</time>
      </trkpt>
      <trkpt lat="44.81147" lon="0.83145">
        <ele>234.2</ele>
        <time>2026-05-01T15:34:29.000Z</time>
      </trkpt>
      <trkpt lat="44.8115" lon="0.83145">
        <ele>233.7</ele>
        <time>2026-05-01T15:34:30.000Z</time>
      </trkpt>
      <trkpt lat="44.81153" lon="0.83145">
        <ele>234.1</ele>
        <time>2026-05-01T15:34:31.000Z</time>
      </trkpt>
      <trkpt lat="44.81155" lon="0.83144">
        <ele>236.4</ele>
        <time>2026-05-01T15:34:32.000Z</time>
      </trkpt>
      <trkpt lat="44.81157" lon="0.83144">
        <ele>236.5</ele>
        <time>2026-05-01T15:34:33.000Z</time>
      </trkpt>
      <trkpt lat="44.81159" lon="0.83143">
        <ele>236.8</ele>
        <time>2026-05-01T15:34:34.000Z</time>
      </trkpt>
      <trkpt lat="44.81161" lon="0.83143">
        <ele>236.8</ele>
        <time>2026-05-01T15:34:35.000Z</time>
      </trkpt>
      <trkpt lat="44.81162" lon="0.83142">
        <ele>236.9</ele>
        <time>2026-05-01T15:34:36.000Z</time>
      </trkpt>
      <trkpt lat="44.81163" lon="0.83141">
        <ele>237.2</ele>
        <time>2026-05-01T15:34:37.000Z</time>
      </trkpt>
      <trkpt lat="44.81163" lon="0.8314">
        <ele>236.9</ele>
        <time>2026-05-01T15:34:38.000Z</time>
      </trkpt>
      <trkpt lat="44.81164" lon="0.83139">
        <ele>236.1</ele>
        <time>2026-05-01T15:34:39.000Z</time>
      </trkpt>
      <trkpt lat="44.81164" lon="0.83137">
        <ele>235</ele>
        <time>2026-05-01T15:34:40.000Z</time>
      </trkpt>
      <trkpt lat="44.81164" lon="0.83136">
        <ele>234.7</ele>
        <time>2026-05-01T15:34:41.000Z</time>
      </trkpt>
      <trkpt lat="44.81164" lon="0.83135">
        <ele>234.3</ele>
        <time>2026-05-01T15:34:42.000Z</time>
      </trkpt>
      <trkpt lat="44.81164" lon="0.83134">
        <ele>234.4</ele>
        <time>2026-05-01T15:34:43.000Z</time>
      </trkpt>
      <trkpt lat="44.81164" lon="0.83132">
        <ele>234.6</ele>
        <time>2026-05-01T15:34:44.000Z</time>
      </trkpt>
      <trkpt lat="44.81164" lon="0.8313">
        <ele>234.1</ele>
        <time>2026-05-01T15:34:45.000Z</time>
      </trkpt>
      <trkpt lat="44.81164" lon="0.83129">
        <ele>233.6</ele>
        <time>2026-05-01T15:34:46.000Z</time>
      </trkpt>
      <trkpt lat="44.81165" lon="0.83127">
        <ele>232.8</ele>
        <time>2026-05-01T15:34:47.000Z</time>
      </trkpt>
      <trkpt lat="44.81165" lon="0.83126">
        <ele>232.9</ele>
        <time>2026-05-01T15:34:48.000Z</time>
      </trkpt>
      <trkpt lat="44.81165" lon="0.83125">
        <ele>233.4</ele>
        <time>2026-05-01T15:34:49.000Z</time>
      </trkpt>
      <trkpt lat="44.81165" lon="0.83124">
        <ele>233</ele>
        <time>2026-05-01T15:34:50.000Z</time>
      </trkpt>
      <trkpt lat="44.81165" lon="0.83122">
        <ele>233.2</ele>
        <time>2026-05-01T15:34:51.000Z</time>
      </trkpt>
      <trkpt lat="44.81165" lon="0.8312">
        <ele>232.7</ele>
        <time>2026-05-01T15:34:52.000Z</time>
      </trkpt>
      <trkpt lat="44.81165" lon="0.83118">
        <ele>232.5</ele>
        <time>2026-05-01T15:34:53.000Z</time>
      </trkpt>
      <trkpt lat="44.81165" lon="0.83117">
        <ele>233</ele>
        <time>2026-05-01T15:34:54.000Z</time>
      </trkpt>
      <trkpt lat="44.81164" lon="0.83115">
        <ele>233.1</ele>
        <time>2026-05-01T15:34:55.000Z</time>
      </trkpt>
      <trkpt lat="44.81164" lon="0.83114">
        <ele>232.9</ele>
        <time>2026-05-01T15:34:56.000Z</time>
      </trkpt>
      <trkpt lat="44.81164" lon="0.83112">
        <ele>232.9</ele>
        <time>2026-05-01T15:34:57.000Z</time>
      </trkpt>
      <trkpt lat="44.81164" lon="0.8311">
        <ele>232.7</ele>
        <time>2026-05-01T15:34:58.000Z</time>
      </trkpt>
      <trkpt lat="44.81165" lon="0.83109">
        <ele>232.3</ele>
        <time>2026-05-01T15:34:59.000Z</time>
      </trkpt>
      <trkpt lat="44.81165" lon="0.83107">
        <ele>232</ele>
        <time>2026-05-01T15:35:00.000Z</time>
      </trkpt>
      <trkpt lat="44.81165" lon="0.83105">
        <ele>231.6</ele>
        <time>2026-05-01T15:35:01.000Z</time>
      </trkpt>
      <trkpt lat="44.81165" lon="0.83104">
        <ele>231.5</ele>
        <time>2026-05-01T15:35:02.000Z</time>
      </trkpt>
      <trkpt lat="44.81165" lon="0.83101">
        <ele>231.7</ele>
        <time>2026-05-01T15:35:03.000Z</time>
      </trkpt>
      <trkpt lat="44.81165" lon="0.831">
        <ele>232</ele>
        <time>2026-05-01T15:35:04.000Z</time>
      </trkpt>
      <trkpt lat="44.81166" lon="0.83098">
        <ele>230.4</ele>
        <time>2026-05-01T15:35:05.000Z</time>
      </trkpt>
      <trkpt lat="44.81165" lon="0.83096">
        <ele>230.3</ele>
        <time>2026-05-01T15:35:06.000Z</time>
      </trkpt>
      <trkpt lat="44.81165" lon="0.83094">
        <ele>230.6</ele>
        <time>2026-05-01T15:35:07.000Z</time>
      </trkpt>
      <trkpt lat="44.81166" lon="0.83092">
        <ele>230</ele>
        <time>2026-05-01T15:35:08.000Z</time>
      </trkpt>
      <trkpt lat="44.81166" lon="0.8309">
        <ele>229.4</ele>
        <time>2026-05-01T15:35:09.000Z</time>
      </trkpt>
      <trkpt lat="44.81167" lon="0.83088">
        <ele>229.1</ele>
        <time>2026-05-01T15:35:10.000Z</time>
      </trkpt>
      <trkpt lat="44.81167" lon="0.83086">
        <ele>228.1</ele>
        <time>2026-05-01T15:35:11.000Z</time>
      </trkpt>
      <trkpt lat="44.81167" lon="0.83084">
        <ele>227.7</ele>
        <time>2026-05-01T15:35:12.000Z</time>
      </trkpt>
      <trkpt lat="44.81167" lon="0.83082">
        <ele>227.2</ele>
        <time>2026-05-01T15:35:13.000Z</time>
      </trkpt>
      <trkpt lat="44.81167" lon="0.8308">
        <ele>227.3</ele>
        <time>2026-05-01T15:35:14.000Z</time>
      </trkpt>
      <trkpt lat="44.81167" lon="0.83078">
        <ele>227</ele>
        <time>2026-05-01T15:35:15.000Z</time>
      </trkpt>
      <trkpt lat="44.81167" lon="0.83076">
        <ele>227.1</ele>
        <time>2026-05-01T15:35:16.000Z</time>
      </trkpt>
      <trkpt lat="44.81167" lon="0.83074">
        <ele>226.9</ele>
        <time>2026-05-01T15:35:17.000Z</time>
      </trkpt>
      <trkpt lat="44.81167" lon="0.83072">
        <ele>226.8</ele>
        <time>2026-05-01T15:35:18.000Z</time>
      </trkpt>
      <trkpt lat="44.81167" lon="0.83071">
        <ele>227.1</ele>
        <time>2026-05-01T15:35:19.000Z</time>
      </trkpt>
      <trkpt lat="44.81167" lon="0.83069">
        <ele>226.5</ele>
        <time>2026-05-01T15:35:20.000Z</time>
      </trkpt>
      <trkpt lat="44.81167" lon="0.83067">
        <ele>226.6</ele>
        <time>2026-05-01T15:35:21.000Z</time>
      </trkpt>
      <trkpt lat="44.81167" lon="0.83065">
        <ele>226.5</ele>
        <time>2026-05-01T15:35:22.000Z</time>
      </trkpt>
      <trkpt lat="44.81168" lon="0.83063">
        <ele>225.7</ele>
        <time>2026-05-01T15:35:23.000Z</time>
      </trkpt>
      <trkpt lat="44.81168" lon="0.83061">
        <ele>225.5</ele>
        <time>2026-05-01T15:35:24.000Z</time>
      </trkpt>
      <trkpt lat="44.81168" lon="0.8306">
        <ele>225.3</ele>
        <time>2026-05-01T15:35:25.000Z</time>
      </trkpt>
      <trkpt lat="44.81169" lon="0.83058">
        <ele>225.1</ele>
        <time>2026-05-01T15:35:26.000Z</time>
      </trkpt>
      <trkpt lat="44.81169" lon="0.83057">
        <ele>224.5</ele>
        <time>2026-05-01T15:35:27.000Z</time>
      </trkpt>
      <trkpt lat="44.81169" lon="0.83055">
        <ele>223.7</ele>
        <time>2026-05-01T15:35:28.000Z</time>
      </trkpt>
      <trkpt lat="44.81169" lon="0.83053">
        <ele>223.1</ele>
        <time>2026-05-01T15:35:29.000Z</time>
      </trkpt>
      <trkpt lat="44.81169" lon="0.83051">
        <ele>222.9</ele>
        <time>2026-05-01T15:35:30.000Z</time>
      </trkpt>
      <trkpt lat="44.81169" lon="0.83049">
        <ele>222.4</ele>
        <time>2026-05-01T15:35:31.000Z</time>
      </trkpt>
      <trkpt lat="44.81168" lon="0.83047">
        <ele>222.3</ele>
        <time>2026-05-01T15:35:32.000Z</time>
      </trkpt>
      <trkpt lat="44.81168" lon="0.83045">
        <ele>221.7</ele>
        <time>2026-05-01T15:35:33.000Z</time>
      </trkpt>
      <trkpt lat="44.81168" lon="0.83043">
        <ele>222.3</ele>
        <time>2026-05-01T15:35:34.000Z</time>
      </trkpt>
      <trkpt lat="44.81168" lon="0.83041">
        <ele>221.8</ele>
        <time>2026-05-01T15:35:35.000Z</time>
      </trkpt>
      <trkpt lat="44.81168" lon="0.8304">
        <ele>221.7</ele>
        <time>2026-05-01T15:35:36.000Z</time>
      </trkpt>
      <trkpt lat="44.81168" lon="0.83038">
        <ele>221</ele>
        <time>2026-05-01T15:35:37.000Z</time>
      </trkpt>
      <trkpt lat="44.81168" lon="0.83036">
        <ele>221.1</ele>
        <time>2026-05-01T15:35:38.000Z</time>
      </trkpt>
      <trkpt lat="44.81168" lon="0.83035">
        <ele>221.4</ele>
        <time>2026-05-01T15:35:39.000Z</time>
      </trkpt>
      <trkpt lat="44.81168" lon="0.83033">
        <ele>221.2</ele>
        <time>2026-05-01T15:35:40.000Z</time>
      </trkpt>
      <trkpt lat="44.81168" lon="0.83031">
        <ele>221.2</ele>
        <time>2026-05-01T15:35:41.000Z</time>
      </trkpt>
      <trkpt lat="44.81167" lon="0.83029">
        <ele>220.7</ele>
        <time>2026-05-01T15:35:42.000Z</time>
      </trkpt>
      <trkpt lat="44.81167" lon="0.83027">
        <ele>220.5</ele>
        <time>2026-05-01T15:35:43.000Z</time>
      </trkpt>
      <trkpt lat="44.81168" lon="0.83025">
        <ele>219.7</ele>
        <time>2026-05-01T15:35:44.000Z</time>
      </trkpt>
      <trkpt lat="44.81168" lon="0.83024">
        <ele>220.5</ele>
        <time>2026-05-01T15:35:45.000Z</time>
      </trkpt>
      <trkpt lat="44.81168" lon="0.83022">
        <ele>220.6</ele>
        <time>2026-05-01T15:35:46.000Z</time>
      </trkpt>
      <trkpt lat="44.81168" lon="0.8302">
        <ele>220.3</ele>
        <time>2026-05-01T15:35:47.000Z</time>
      </trkpt>
      <trkpt lat="44.81168" lon="0.83018">
        <ele>219.5</ele>
        <time>2026-05-01T15:35:48.000Z</time>
      </trkpt>
      <trkpt lat="44.81168" lon="0.83016">
        <ele>218.9</ele>
        <time>2026-05-01T15:35:49.000Z</time>
      </trkpt>
      <trkpt lat="44.81168" lon="0.83014">
        <ele>218.3</ele>
        <time>2026-05-01T15:35:50.000Z</time>
      </trkpt>
      <trkpt lat="44.81168" lon="0.83012">
        <ele>218</ele>
        <time>2026-05-01T15:35:51.000Z</time>
      </trkpt>
      <trkpt lat="44.81168" lon="0.8301">
        <ele>218.1</ele>
        <time>2026-05-01T15:35:52.000Z</time>
      </trkpt>
      <trkpt lat="44.81168" lon="0.83009">
        <ele>218.2</ele>
        <time>2026-05-01T15:35:53.000Z</time>
      </trkpt>
      <trkpt lat="44.81168" lon="0.83007">
        <ele>218</ele>
        <time>2026-05-01T15:35:54.000Z</time>
      </trkpt>
      <trkpt lat="44.81167" lon="0.83005">
        <ele>217.2</ele>
        <time>2026-05-01T15:35:55.000Z</time>
      </trkpt>
      <trkpt lat="44.81167" lon="0.83003">
        <ele>216.8</ele>
        <time>2026-05-01T15:35:56.000Z</time>
      </trkpt>
      <trkpt lat="44.81167" lon="0.83001">
        <ele>216.4</ele>
        <time>2026-05-01T15:35:57.000Z</time>
      </trkpt>
      <trkpt lat="44.81167" lon="0.82999">
        <ele>216.2</ele>
        <time>2026-05-01T15:35:58.000Z</time>
      </trkpt>
      <trkpt lat="44.81167" lon="0.82997">
        <ele>216.3</ele>
        <time>2026-05-01T15:35:59.000Z</time>
      </trkpt>
      <trkpt lat="44.81167" lon="0.82995">
        <ele>216.4</ele>
        <time>2026-05-01T15:36:00.000Z</time>
      </trkpt>
      <trkpt lat="44.81167" lon="0.82993">
        <ele>215.9</ele>
        <time>2026-05-01T15:36:01.000Z</time>
      </trkpt>
      <trkpt lat="44.81167" lon="0.82991">
        <ele>216</ele>
        <time>2026-05-01T15:36:02.000Z</time>
      </trkpt>
      <trkpt lat="44.81166" lon="0.82989">
        <ele>216.2</ele>
        <time>2026-05-01T15:36:03.000Z</time>
      </trkpt>
      <trkpt lat="44.81166" lon="0.82987">
        <ele>216.3</ele>
        <time>2026-05-01T15:36:04.000Z</time>
      </trkpt>
      <trkpt lat="44.81166" lon="0.82986">
        <ele>216.6</ele>
        <time>2026-05-01T15:36:05.000Z</time>
      </trkpt>
      <trkpt lat="44.81166" lon="0.82984">
        <ele>217.1</ele>
        <time>2026-05-01T15:36:06.000Z</time>
      </trkpt>
      <trkpt lat="44.81166" lon="0.82982">
        <ele>217.6</ele>
        <time>2026-05-01T15:36:07.000Z</time>
      </trkpt>
      <trkpt lat="44.81166" lon="0.8298">
        <ele>217.3</ele>
        <time>2026-05-01T15:36:08.000Z</time>
      </trkpt>
      <trkpt lat="44.81166" lon="0.82978">
        <ele>216.9</ele>
        <time>2026-05-01T15:36:09.000Z</time>
      </trkpt>
      <trkpt lat="44.81165" lon="0.82977">
        <ele>216.6</ele>
        <time>2026-05-01T15:36:10.000Z</time>
      </trkpt>
      <trkpt lat="44.81165" lon="0.82975">
        <ele>216.1</ele>
        <time>2026-05-01T15:36:11.000Z</time>
      </trkpt>
      <trkpt lat="44.81165" lon="0.82973">
        <ele>215.3</ele>
        <time>2026-05-01T15:36:12.000Z</time>
      </trkpt>
      <trkpt lat="44.81165" lon="0.82971">
        <ele>215</ele>
        <time>2026-05-01T15:36:13.000Z</time>
      </trkpt>
      <trkpt lat="44.81166" lon="0.82969">
        <ele>214.7</ele>
        <time>2026-05-01T15:36:14.000Z</time>
      </trkpt>
      <trkpt lat="44.81166" lon="0.82967">
        <ele>214.5</ele>
        <time>2026-05-01T15:36:15.000Z</time>
      </trkpt>
      <trkpt lat="44.81166" lon="0.82964">
        <ele>214.1</ele>
        <time>2026-05-01T15:36:16.000Z</time>
      </trkpt>
      <trkpt lat="44.81165" lon="0.82962">
        <ele>213.9</ele>
        <time>2026-05-01T15:36:17.000Z</time>
      </trkpt>
      <trkpt lat="44.81166" lon="0.8296">
        <ele>213.2</ele>
        <time>2026-05-01T15:36:18.000Z</time>
      </trkpt>
      <trkpt lat="44.81166" lon="0.82958">
        <ele>212.6</ele>
        <time>2026-05-01T15:36:19.000Z</time>
      </trkpt>
      <trkpt lat="44.81166" lon="0.82956">
        <ele>211.8</ele>
        <time>2026-05-01T15:36:20.000Z</time>
      </trkpt>
      <trkpt lat="44.81166" lon="0.82954">
        <ele>212</ele>
        <time>2026-05-01T15:36:21.000Z</time>
      </trkpt>
      <trkpt lat="44.81165" lon="0.82952">
        <ele>212.5</ele>
        <time>2026-05-01T15:36:22.000Z</time>
      </trkpt>
      <trkpt lat="44.81165" lon="0.8295">
        <ele>213.2</ele>
        <time>2026-05-01T15:36:23.000Z</time>
      </trkpt>
      <trkpt lat="44.81164" lon="0.82948">
        <ele>213.3</ele>
        <time>2026-05-01T15:36:24.000Z</time>
      </trkpt>
      <trkpt lat="44.81164" lon="0.82946">
        <ele>213.8</ele>
        <time>2026-05-01T15:36:25.000Z</time>
      </trkpt>
      <trkpt lat="44.81164" lon="0.82944">
        <ele>213.8</ele>
        <time>2026-05-01T15:36:26.000Z</time>
      </trkpt>
      <trkpt lat="44.81164" lon="0.82942">
        <ele>213.6</ele>
        <time>2026-05-01T15:36:27.000Z</time>
      </trkpt>
      <trkpt lat="44.81164" lon="0.8294">
        <ele>213</ele>
        <time>2026-05-01T15:36:28.000Z</time>
      </trkpt>
      <trkpt lat="44.81163" lon="0.82938">
        <ele>212.9</ele>
        <time>2026-05-01T15:36:29.000Z</time>
      </trkpt>
      <trkpt lat="44.81163" lon="0.82936">
        <ele>212.8</ele>
        <time>2026-05-01T15:36:30.000Z</time>
      </trkpt>
      <trkpt lat="44.81163" lon="0.82934">
        <ele>212.7</ele>
        <time>2026-05-01T15:36:31.000Z</time>
      </trkpt>
      <trkpt lat="44.81163" lon="0.82932">
        <ele>212.4</ele>
        <time>2026-05-01T15:36:32.000Z</time>
      </trkpt>
      <trkpt lat="44.81163" lon="0.8293">
        <ele>212.2</ele>
        <time>2026-05-01T15:36:33.000Z</time>
      </trkpt>
      <trkpt lat="44.81163" lon="0.82927">
        <ele>211.8</ele>
        <time>2026-05-01T15:36:34.000Z</time>
      </trkpt>
      <trkpt lat="44.81163" lon="0.82925">
        <ele>211.9</ele>
        <time>2026-05-01T15:36:35.000Z</time>
      </trkpt>
      <trkpt lat="44.81163" lon="0.82923">
        <ele>212</ele>
        <time>2026-05-01T15:36:36.000Z</time>
      </trkpt>
      <trkpt lat="44.81163" lon="0.8292">
        <ele>212.6</ele>
        <time>2026-05-01T15:36:37.000Z</time>
      </trkpt>
      <trkpt lat="44.81163" lon="0.82918">
        <ele>212.5</ele>
        <time>2026-05-01T15:36:38.000Z</time>
      </trkpt>
      <trkpt lat="44.81163" lon="0.82916">
        <ele>212.8</ele>
        <time>2026-05-01T15:36:39.000Z</time>
      </trkpt>
      <trkpt lat="44.81163" lon="0.82913">
        <ele>212.2</ele>
        <time>2026-05-01T15:36:40.000Z</time>
      </trkpt>
      <trkpt lat="44.81163" lon="0.82911">
        <ele>212.2</ele>
        <time>2026-05-01T15:36:41.000Z</time>
      </trkpt>
      <trkpt lat="44.81163" lon="0.82909">
        <ele>212.2</ele>
        <time>2026-05-01T15:36:42.000Z</time>
      </trkpt>
      <trkpt lat="44.81163" lon="0.82906">
        <ele>212.1</ele>
        <time>2026-05-01T15:36:43.000Z</time>
      </trkpt>
      <trkpt lat="44.81163" lon="0.82904">
        <ele>211.5</ele>
        <time>2026-05-01T15:36:44.000Z</time>
      </trkpt>
      <trkpt lat="44.81163" lon="0.82903">
        <ele>211.1</ele>
        <time>2026-05-01T15:36:45.000Z</time>
      </trkpt>
      <trkpt lat="44.81164" lon="0.82901">
        <ele>210.2</ele>
        <time>2026-05-01T15:36:46.000Z</time>
      </trkpt>
      <trkpt lat="44.81164" lon="0.82898">
        <ele>209.9</ele>
        <time>2026-05-01T15:36:47.000Z</time>
      </trkpt>
      <trkpt lat="44.81164" lon="0.82896">
        <ele>209.3</ele>
        <time>2026-05-01T15:36:48.000Z</time>
      </trkpt>
      <trkpt lat="44.81164" lon="0.82894">
        <ele>209</ele>
        <time>2026-05-01T15:36:49.000Z</time>
      </trkpt>
      <trkpt lat="44.81164" lon="0.82892">
        <ele>208.4</ele>
        <time>2026-05-01T15:36:50.000Z</time>
      </trkpt>
      <trkpt lat="44.81164" lon="0.8289">
        <ele>207.7</ele>
        <time>2026-05-01T15:36:51.000Z</time>
      </trkpt>
      <trkpt lat="44.81164" lon="0.82889">
        <ele>207.7</ele>
        <time>2026-05-01T15:36:52.000Z</time>
      </trkpt>
      <trkpt lat="44.81164" lon="0.82889">
        <ele>207.6</ele>
        <time>2026-05-01T15:36:53.000Z</time>
      </trkpt>
      <trkpt lat="44.81164" lon="0.82889">
        <ele>207.6</ele>
        <time>2026-05-01T15:36:54.000Z</time>
      </trkpt>
      <trkpt lat="44.81164" lon="0.82889">
        <ele>207.6</ele>
        <time>2026-05-01T15:36:55.000Z</time>
      </trkpt>
      <trkpt lat="44.81164" lon="0.82889">
        <ele>207.6</ele>
        <time>2026-05-01T15:36:56.000Z</time>
      </trkpt>
      <trkpt lat="44.81164" lon="0.82889">
        <ele>207.6</ele>
        <time>2026-05-01T15:36:57.000Z</time>
      </trkpt>
      <trkpt lat="44.81164" lon="0.82889">
        <ele>207.6</ele>
        <time>2026-05-01T15:36:58.000Z</time>
      </trkpt>
      <trkpt lat="44.81164" lon="0.82889">
        <ele>207.6</ele>
        <time>2026-05-01T15:36:59.000Z</time>
      </trkpt>
      <trkpt lat="44.81164" lon="0.82889">
        <ele>207.6</ele>
        <time>2026-05-01T15:37:00.000Z</time>
      </trkpt>
      <trkpt lat="44.81164" lon="0.82889">
        <ele>207.6</ele>
        <time>2026-05-01T15:37:01.000Z</time>
      </trkpt>
      <trkpt lat="44.81164" lon="0.82889">
        <ele>207.6</ele>
        <time>2026-05-01T15:37:02.000Z</time>
      </trkpt>
      <trkpt lat="44.81164" lon="0.82889">
        <ele>207.6</ele>
        <time>2026-05-01T15:37:03.000Z</time>
      </trkpt>
      <trkpt lat="44.81164" lon="0.82889">
        <ele>207.6</ele>
        <time>2026-05-01T15:37:04.000Z</time>
      </trkpt>
      <trkpt lat="44.81164" lon="0.82889">
        <ele>207.6</ele>
        <time>2026-05-01T15:37:05.000Z</time>
      </trkpt>
      <trkpt lat="44.81164" lon="0.82889">
        <ele>207.6</ele>
        <time>2026-05-01T15:37:06.000Z</time>
      </trkpt>
      <trkpt lat="44.81164" lon="0.82889">
        <ele>207.6</ele>
        <time>2026-05-01T15:37:07.000Z</time>
      </trkpt>
      <trkpt lat="44.81164" lon="0.82889">
        <ele>207.6</ele>
        <time>2026-05-01T15:37:08.000Z</time>
      </trkpt>
      <trkpt lat="44.81164" lon="0.82889">
        <ele>207.6</ele>
        <time>2026-05-01T15:37:09.000Z</time>
      </trkpt>
      <trkpt lat="44.81164" lon="0.82889">
        <ele>207.6</ele>
        <time>2026-05-01T15:37:10.000Z</time>
      </trkpt>
      <trkpt lat="44.81164" lon="0.82889">
        <ele>207.6</ele>
        <time>2026-05-01T15:37:11.000Z</time>
      </trkpt>
      <trkpt lat="44.81164" lon="0.82889">
        <ele>207.6</ele>
        <time>2026-05-01T15:37:12.000Z</time>
      </trkpt>
      <trkpt lat="44.81164" lon="0.82889">
        <ele>207.6</ele>
        <time>2026-05-01T15:37:13.000Z</time>
      </trkpt>
      <trkpt lat="44.81164" lon="0.82888">
        <ele>207.8</ele>
        <time>2026-05-01T15:37:14.000Z</time>
      </trkpt>
      <trkpt lat="44.81164" lon="0.82887">
        <ele>207.5</ele>
        <time>2026-05-01T15:37:15.000Z</time>
      </trkpt>
      <trkpt lat="44.81164" lon="0.82886">
        <ele>208.4</ele>
        <time>2026-05-01T15:37:16.000Z</time>
      </trkpt>
      <trkpt lat="44.81164" lon="0.82884">
        <ele>207.8</ele>
        <time>2026-05-01T15:37:17.000Z</time>
      </trkpt>
      <trkpt lat="44.81163" lon="0.82883">
        <ele>207.9</ele>
        <time>2026-05-01T15:37:18.000Z</time>
      </trkpt>
      <trkpt lat="44.81163" lon="0.82882">
        <ele>207.9</ele>
        <time>2026-05-01T15:37:19.000Z</time>
      </trkpt>
      <trkpt lat="44.81163" lon="0.8288">
        <ele>207.6</ele>
        <time>2026-05-01T15:37:20.000Z</time>
      </trkpt>
      <trkpt lat="44.81163" lon="0.82878">
        <ele>207.5</ele>
        <time>2026-05-01T15:37:21.000Z</time>
      </trkpt>
      <trkpt lat="44.81163" lon="0.82877">
        <ele>206.3</ele>
        <time>2026-05-01T15:37:22.000Z</time>
      </trkpt>
      <trkpt lat="44.81163" lon="0.82875">
        <ele>205.7</ele>
        <time>2026-05-01T15:37:23.000Z</time>
      </trkpt>
      <trkpt lat="44.81163" lon="0.82873">
        <ele>205.6</ele>
        <time>2026-05-01T15:37:24.000Z</time>
      </trkpt>
      <trkpt lat="44.81163" lon="0.82872">
        <ele>205.4</ele>
        <time>2026-05-01T15:37:25.000Z</time>
      </trkpt>
      <trkpt lat="44.81163" lon="0.8287">
        <ele>205.9</ele>
        <time>2026-05-01T15:37:26.000Z</time>
      </trkpt>
      <trkpt lat="44.81162" lon="0.82869">
        <ele>206</ele>
        <time>2026-05-01T15:37:27.000Z</time>
      </trkpt>
      <trkpt lat="44.81162" lon="0.82867">
        <ele>205.4</ele>
        <time>2026-05-01T15:37:28.000Z</time>
      </trkpt>
      <trkpt lat="44.81162" lon="0.82865">
        <ele>206</ele>
        <time>2026-05-01T15:37:29.000Z</time>
      </trkpt>
      <trkpt lat="44.81161" lon="0.82863">
        <ele>206.3</ele>
        <time>2026-05-01T15:37:30.000Z</time>
      </trkpt>
      <trkpt lat="44.81162" lon="0.82861">
        <ele>207.2</ele>
        <time>2026-05-01T15:37:31.000Z</time>
      </trkpt>
      <trkpt lat="44.81162" lon="0.82859">
        <ele>207.5</ele>
        <time>2026-05-01T15:37:32.000Z</time>
      </trkpt>
      <trkpt lat="44.81162" lon="0.82857">
        <ele>208.5</ele>
        <time>2026-05-01T15:37:33.000Z</time>
      </trkpt>
      <trkpt lat="44.81162" lon="0.82855">
        <ele>207.7</ele>
        <time>2026-05-01T15:37:34.000Z</time>
      </trkpt>
      <trkpt lat="44.81162" lon="0.82854">
        <ele>208</ele>
        <time>2026-05-01T15:37:35.000Z</time>
      </trkpt>
      <trkpt lat="44.81163" lon="0.82852">
        <ele>207.9</ele>
        <time>2026-05-01T15:37:36.000Z</time>
      </trkpt>
      <trkpt lat="44.81163" lon="0.82851">
        <ele>207.2</ele>
        <time>2026-05-01T15:37:37.000Z</time>
      </trkpt>
      <trkpt lat="44.81164" lon="0.82849">
        <ele>206.8</ele>
        <time>2026-05-01T15:37:38.000Z</time>
      </trkpt>
      <trkpt lat="44.81164" lon="0.82848">
        <ele>206.6</ele>
        <time>2026-05-01T15:37:39.000Z</time>
      </trkpt>
      <trkpt lat="44.81164" lon="0.82846">
        <ele>207</ele>
        <time>2026-05-01T15:37:40.000Z</time>
      </trkpt>
      <trkpt lat="44.81164" lon="0.82845">
        <ele>206.4</ele>
        <time>2026-05-01T15:37:41.000Z</time>
      </trkpt>
      <trkpt lat="44.81164" lon="0.82844">
        <ele>206.1</ele>
        <time>2026-05-01T15:37:42.000Z</time>
      </trkpt>
      <trkpt lat="44.81164" lon="0.82842">
        <ele>205.8</ele>
        <time>2026-05-01T15:37:43.000Z</time>
      </trkpt>
      <trkpt lat="44.81164" lon="0.8284">
        <ele>205.5</ele>
        <time>2026-05-01T15:37:44.000Z</time>
      </trkpt>
      <trkpt lat="44.81163" lon="0.82838">
        <ele>205.4</ele>
        <time>2026-05-01T15:37:45.000Z</time>
      </trkpt>
      <trkpt lat="44.81163" lon="0.82837">
        <ele>204.2</ele>
        <time>2026-05-01T15:37:46.000Z</time>
      </trkpt>
      <trkpt lat="44.81163" lon="0.82835">
        <ele>204.1</ele>
        <time>2026-05-01T15:37:47.000Z</time>
      </trkpt>
      <trkpt lat="44.81163" lon="0.82833">
        <ele>203.3</ele>
        <time>2026-05-01T15:37:48.000Z</time>
      </trkpt>
      <trkpt lat="44.81163" lon="0.82832">
        <ele>202.6</ele>
        <time>2026-05-01T15:37:49.000Z</time>
      </trkpt>
      <trkpt lat="44.81163" lon="0.82831">
        <ele>202.3</ele>
        <time>2026-05-01T15:37:50.000Z</time>
      </trkpt>
      <trkpt lat="44.81163" lon="0.82829">
        <ele>202.2</ele>
        <time>2026-05-01T15:37:51.000Z</time>
      </trkpt>
      <trkpt lat="44.81164" lon="0.82828">
        <ele>202.4</ele>
        <time>2026-05-01T15:37:52.000Z</time>
      </trkpt>
      <trkpt lat="44.81163" lon="0.82826">
        <ele>201.6</ele>
        <time>2026-05-01T15:37:53.000Z</time>
      </trkpt>
      <trkpt lat="44.81164" lon="0.82825">
        <ele>201.3</ele>
        <time>2026-05-01T15:37:54.000Z</time>
      </trkpt>
      <trkpt lat="44.81164" lon="0.82823">
        <ele>200.9</ele>
        <time>2026-05-01T15:37:55.000Z</time>
      </trkpt>
      <trkpt lat="44.81164" lon="0.82822">
        <ele>201.2</ele>
        <time>2026-05-01T15:37:56.000Z</time>
      </trkpt>
      <trkpt lat="44.81164" lon="0.82821">
        <ele>201.1</ele>
        <time>2026-05-01T15:37:57.000Z</time>
      </trkpt>
      <trkpt lat="44.81164" lon="0.8282">
        <ele>200.9</ele>
        <time>2026-05-01T15:37:58.000Z</time>
      </trkpt>
      <trkpt lat="44.81164" lon="0.82819">
        <ele>201.2</ele>
        <time>2026-05-01T15:37:59.000Z</time>
      </trkpt>
      <trkpt lat="44.81165" lon="0.82819">
        <ele>200.5</ele>
        <time>2026-05-01T15:38:00.000Z</time>
      </trkpt>
      <trkpt lat="44.81165" lon="0.82818">
        <ele>200.3</ele>
        <time>2026-05-01T15:38:01.000Z</time>
      </trkpt>
      <trkpt lat="44.81165" lon="0.82817">
        <ele>201.5</ele>
        <time>2026-05-01T15:38:02.000Z</time>
      </trkpt>
      <trkpt lat="44.81164" lon="0.82817">
        <ele>200.9</ele>
        <time>2026-05-01T15:38:03.000Z</time>
      </trkpt>
      <trkpt lat="44.81164" lon="0.82818">
        <ele>200.8</ele>
        <time>2026-05-01T15:38:04.000Z</time>
      </trkpt>
      <trkpt lat="44.81164" lon="0.82818">
        <ele>200.7</ele>
        <time>2026-05-01T15:38:05.000Z</time>
      </trkpt>
      <trkpt lat="44.81164" lon="0.82817">
        <ele>199.9</ele>
        <time>2026-05-01T15:38:06.000Z</time>
      </trkpt>
      <trkpt lat="44.81164" lon="0.82817">
        <ele>199.7</ele>
        <time>2026-05-01T15:38:07.000Z</time>
      </trkpt>
      <trkpt lat="44.81164" lon="0.82816">
        <ele>199.6</ele>
        <time>2026-05-01T15:38:08.000Z</time>
      </trkpt>
      <trkpt lat="44.81164" lon="0.82817">
        <ele>199.6</ele>
        <time>2026-05-01T15:38:09.000Z</time>
      </trkpt>
      <trkpt lat="44.81164" lon="0.82817">
        <ele>199.6</ele>
        <time>2026-05-01T15:38:10.000Z</time>
      </trkpt>
      <trkpt lat="44.81164" lon="0.82817">
        <ele>199.6</ele>
        <time>2026-05-01T15:38:11.000Z</time>
      </trkpt>
      <trkpt lat="44.81164" lon="0.82817">
        <ele>199.6</ele>
        <time>2026-05-01T15:38:12.000Z</time>
      </trkpt>
      <trkpt lat="44.81164" lon="0.82817">
        <ele>199.6</ele>
        <time>2026-05-01T15:38:13.000Z</time>
      </trkpt>
      <trkpt lat="44.81164" lon="0.82817">
        <ele>199.6</ele>
        <time>2026-05-01T15:38:14.000Z</time>
      </trkpt>
      <trkpt lat="44.81164" lon="0.82817">
        <ele>199.6</ele>
        <time>2026-05-01T15:38:15.000Z</time>
      </trkpt>
      <trkpt lat="44.81164" lon="0.82817">
        <ele>199.6</ele>
        <time>2026-05-01T15:38:16.000Z</time>
      </trkpt>
      <trkpt lat="44.81164" lon="0.82817">
        <ele>199.6</ele>
        <time>2026-05-01T15:38:17.000Z</time>
      </trkpt>
      <trkpt lat="44.81164" lon="0.82816">
        <ele>199.5</ele>
        <time>2026-05-01T15:38:18.000Z</time>
      </trkpt>
      <trkpt lat="44.81163" lon="0.82816">
        <ele>199.4</ele>
        <time>2026-05-01T15:38:19.000Z</time>
      </trkpt>
      <trkpt lat="44.81163" lon="0.82814">
        <ele>199</ele>
        <time>2026-05-01T15:38:20.000Z</time>
      </trkpt>
      <trkpt lat="44.81162" lon="0.82813">
        <ele>198.5</ele>
        <time>2026-05-01T15:38:21.000Z</time>
      </trkpt>
      <trkpt lat="44.81162" lon="0.82812">
        <ele>197.8</ele>
        <time>2026-05-01T15:38:22.000Z</time>
      </trkpt>
      <trkpt lat="44.81162" lon="0.82811">
        <ele>197</ele>
        <time>2026-05-01T15:38:23.000Z</time>
      </trkpt>
      <trkpt lat="44.81162" lon="0.8281">
        <ele>196.7</ele>
        <time>2026-05-01T15:38:24.000Z</time>
      </trkpt>
      <trkpt lat="44.81162" lon="0.82809">
        <ele>197.9</ele>
        <time>2026-05-01T15:38:25.000Z</time>
      </trkpt>
      <trkpt lat="44.81161" lon="0.82808">
        <ele>198.1</ele>
        <time>2026-05-01T15:38:26.000Z</time>
      </trkpt>
      <trkpt lat="44.81161" lon="0.82807">
        <ele>197.5</ele>
        <time>2026-05-01T15:38:27.000Z</time>
      </trkpt>
      <trkpt lat="44.81161" lon="0.82806">
        <ele>197</ele>
        <time>2026-05-01T15:38:28.000Z</time>
      </trkpt>
      <trkpt lat="44.81161" lon="0.82806">
        <ele>197</ele>
        <time>2026-05-01T15:38:29.000Z</time>
      </trkpt>
      <trkpt lat="44.81161" lon="0.82805">
        <ele>197</ele>
        <time>2026-05-01T15:38:30.000Z</time>
      </trkpt>
      <trkpt lat="44.81162" lon="0.82804">
        <ele>196.8</ele>
        <time>2026-05-01T15:38:31.000Z</time>
      </trkpt>
      <trkpt lat="44.81162" lon="0.82803">
        <ele>196.4</ele>
        <time>2026-05-01T15:38:32.000Z</time>
      </trkpt>
      <trkpt lat="44.81162" lon="0.82802">
        <ele>195.9</ele>
        <time>2026-05-01T15:38:33.000Z</time>
      </trkpt>
      <trkpt lat="44.81162" lon="0.82801">
        <ele>195.6</ele>
        <time>2026-05-01T15:38:34.000Z</time>
      </trkpt>
      <trkpt lat="44.81162" lon="0.82799">
        <ele>195.5</ele>
        <time>2026-05-01T15:38:35.000Z</time>
      </trkpt>
      <trkpt lat="44.81163" lon="0.82798">
        <ele>195.3</ele>
        <time>2026-05-01T15:38:36.000Z</time>
      </trkpt>
      <trkpt lat="44.81163" lon="0.82796">
        <ele>195</ele>
        <time>2026-05-01T15:38:37.000Z</time>
      </trkpt>
      <trkpt lat="44.81163" lon="0.82795">
        <ele>195.1</ele>
        <time>2026-05-01T15:38:38.000Z</time>
      </trkpt>
      <trkpt lat="44.81163" lon="0.82793">
        <ele>194.8</ele>
        <time>2026-05-01T15:38:39.000Z</time>
      </trkpt>
      <trkpt lat="44.81163" lon="0.82792">
        <ele>194.3</ele>
        <time>2026-05-01T15:38:40.000Z</time>
      </trkpt>
      <trkpt lat="44.81163" lon="0.8279">
        <ele>194.4</ele>
        <time>2026-05-01T15:38:41.000Z</time>
      </trkpt>
      <trkpt lat="44.81163" lon="0.82788">
        <ele>194.3</ele>
        <time>2026-05-01T15:38:42.000Z</time>
      </trkpt>
      <trkpt lat="44.81163" lon="0.82787">
        <ele>194.6</ele>
        <time>2026-05-01T15:38:43.000Z</time>
      </trkpt>
      <trkpt lat="44.81163" lon="0.82785">
        <ele>194.3</ele>
        <time>2026-05-01T15:38:44.000Z</time>
      </trkpt>
      <trkpt lat="44.81164" lon="0.82783">
        <ele>193.9</ele>
        <time>2026-05-01T15:38:45.000Z</time>
      </trkpt>
      <trkpt lat="44.81166" lon="0.82782">
        <ele>193.2</ele>
        <time>2026-05-01T15:38:46.000Z</time>
      </trkpt>
      <trkpt lat="44.81167" lon="0.8278">
        <ele>192.4</ele>
        <time>2026-05-01T15:38:47.000Z</time>
      </trkpt>
      <trkpt lat="44.81169" lon="0.82779">
        <ele>191.7</ele>
        <time>2026-05-01T15:38:48.000Z</time>
      </trkpt>
      <trkpt lat="44.8117" lon="0.82778">
        <ele>190.9</ele>
        <time>2026-05-01T15:38:49.000Z</time>
      </trkpt>
      <trkpt lat="44.81171" lon="0.82776">
        <ele>191.2</ele>
        <time>2026-05-01T15:38:50.000Z</time>
      </trkpt>
      <trkpt lat="44.81172" lon="0.82774">
        <ele>191.3</ele>
        <time>2026-05-01T15:38:51.000Z</time>
      </trkpt>
      <trkpt lat="44.81172" lon="0.82772">
        <ele>190.8</ele>
        <time>2026-05-01T15:38:52.000Z</time>
      </trkpt>
      <trkpt lat="44.81173" lon="0.8277">
        <ele>190.3</ele>
        <time>2026-05-01T15:38:53.000Z</time>
      </trkpt>
      <trkpt lat="44.81173" lon="0.82767">
        <ele>191.2</ele>
        <time>2026-05-01T15:38:54.000Z</time>
      </trkpt>
      <trkpt lat="44.81173" lon="0.82764">
        <ele>191.2</ele>
        <time>2026-05-01T15:38:55.000Z</time>
      </trkpt>
      <trkpt lat="44.81173" lon="0.82762">
        <ele>191.7</ele>
        <time>2026-05-01T15:38:56.000Z</time>
      </trkpt>
      <trkpt lat="44.81173" lon="0.8276">
        <ele>191.7</ele>
        <time>2026-05-01T15:38:57.000Z</time>
      </trkpt>
      <trkpt lat="44.81173" lon="0.82758">
        <ele>191.9</ele>
        <time>2026-05-01T15:38:58.000Z</time>
      </trkpt>
      <trkpt lat="44.81173" lon="0.82756">
        <ele>191.3</ele>
        <time>2026-05-01T15:38:59.000Z</time>
      </trkpt>
      <trkpt lat="44.81172" lon="0.82754">
        <ele>192.4</ele>
        <time>2026-05-01T15:39:00.000Z</time>
      </trkpt>
      <trkpt lat="44.81172" lon="0.82753">
        <ele>191.9</ele>
        <time>2026-05-01T15:39:01.000Z</time>
      </trkpt>
      <trkpt lat="44.81171" lon="0.82751">
        <ele>191.1</ele>
        <time>2026-05-01T15:39:02.000Z</time>
      </trkpt>
      <trkpt lat="44.81171" lon="0.8275">
        <ele>190.7</ele>
        <time>2026-05-01T15:39:03.000Z</time>
      </trkpt>
      <trkpt lat="44.81171" lon="0.82748">
        <ele>190.5</ele>
        <time>2026-05-01T15:39:04.000Z</time>
      </trkpt>
      <trkpt lat="44.8117" lon="0.82747">
        <ele>189.8</ele>
        <time>2026-05-01T15:39:05.000Z</time>
      </trkpt>
      <trkpt lat="44.8117" lon="0.82746">
        <ele>189.7</ele>
        <time>2026-05-01T15:39:06.000Z</time>
      </trkpt>
      <trkpt lat="44.81171" lon="0.82744">
        <ele>189.9</ele>
        <time>2026-05-01T15:39:07.000Z</time>
      </trkpt>
      <trkpt lat="44.81171" lon="0.82742">
        <ele>189.6</ele>
        <time>2026-05-01T15:39:08.000Z</time>
      </trkpt>
      <trkpt lat="44.81171" lon="0.8274">
        <ele>189.6</ele>
        <time>2026-05-01T15:39:09.000Z</time>
      </trkpt>
      <trkpt lat="44.81171" lon="0.82739">
        <ele>188.9</ele>
        <time>2026-05-01T15:39:10.000Z</time>
      </trkpt>
      <trkpt lat="44.81172" lon="0.82737">
        <ele>188.5</ele>
        <time>2026-05-01T15:39:11.000Z</time>
      </trkpt>
      <trkpt lat="44.81172" lon="0.82735">
        <ele>188.1</ele>
        <time>2026-05-01T15:39:12.000Z</time>
      </trkpt>
      <trkpt lat="44.81172" lon="0.82733">
        <ele>187.7</ele>
        <time>2026-05-01T15:39:13.000Z</time>
      </trkpt>
      <trkpt lat="44.81172" lon="0.82731">
        <ele>186.8</ele>
        <time>2026-05-01T15:39:14.000Z</time>
      </trkpt>
      <trkpt lat="44.81172" lon="0.82729">
        <ele>186.9</ele>
        <time>2026-05-01T15:39:15.000Z</time>
      </trkpt>
      <trkpt lat="44.81172" lon="0.82727">
        <ele>186.7</ele>
        <time>2026-05-01T15:39:16.000Z</time>
      </trkpt>
      <trkpt lat="44.81172" lon="0.82726">
        <ele>186.2</ele>
        <time>2026-05-01T15:39:17.000Z</time>
      </trkpt>
      <trkpt lat="44.81173" lon="0.82724">
        <ele>185.9</ele>
        <time>2026-05-01T15:39:18.000Z</time>
      </trkpt>
      <trkpt lat="44.81173" lon="0.82722">
        <ele>185.6</ele>
        <time>2026-05-01T15:39:19.000Z</time>
      </trkpt>
      <trkpt lat="44.81173" lon="0.8272">
        <ele>185.2</ele>
        <time>2026-05-01T15:39:20.000Z</time>
      </trkpt>
      <trkpt lat="44.81173" lon="0.82718">
        <ele>184.8</ele>
        <time>2026-05-01T15:39:21.000Z</time>
      </trkpt>
      <trkpt lat="44.81173" lon="0.82716">
        <ele>184.6</ele>
        <time>2026-05-01T15:39:22.000Z</time>
      </trkpt>
      <trkpt lat="44.81173" lon="0.82714">
        <ele>184.3</ele>
        <time>2026-05-01T15:39:23.000Z</time>
      </trkpt>
      <trkpt lat="44.81173" lon="0.82712">
        <ele>183.8</ele>
        <time>2026-05-01T15:39:24.000Z</time>
      </trkpt>
      <trkpt lat="44.81173" lon="0.8271">
        <ele>183.6</ele>
        <time>2026-05-01T15:39:25.000Z</time>
      </trkpt>
      <trkpt lat="44.81173" lon="0.82708">
        <ele>183.2</ele>
        <time>2026-05-01T15:39:26.000Z</time>
      </trkpt>
      <trkpt lat="44.81173" lon="0.82706">
        <ele>183.1</ele>
        <time>2026-05-01T15:39:27.000Z</time>
      </trkpt>
      <trkpt lat="44.81173" lon="0.82703">
        <ele>183.1</ele>
        <time>2026-05-01T15:39:28.000Z</time>
      </trkpt>
      <trkpt lat="44.81172" lon="0.827">
        <ele>183</ele>
        <time>2026-05-01T15:39:29.000Z</time>
      </trkpt>
      <trkpt lat="44.81172" lon="0.82697">
        <ele>182.7</ele>
        <time>2026-05-01T15:39:30.000Z</time>
      </trkpt>
      <trkpt lat="44.8117" lon="0.82695">
        <ele>182.3</ele>
        <time>2026-05-01T15:39:31.000Z</time>
      </trkpt>
      <trkpt lat="44.81169" lon="0.82691">
        <ele>182.1</ele>
        <time>2026-05-01T15:39:32.000Z</time>
      </trkpt>
      <trkpt lat="44.8117" lon="0.82688">
        <ele>181.9</ele>
        <time>2026-05-01T15:39:33.000Z</time>
      </trkpt>
      <trkpt lat="44.81169" lon="0.82684">
        <ele>181</ele>
        <time>2026-05-01T15:39:34.000Z</time>
      </trkpt>
      <trkpt lat="44.81168" lon="0.82681">
        <ele>180.6</ele>
        <time>2026-05-01T15:39:35.000Z</time>
      </trkpt>
      <trkpt lat="44.81167" lon="0.82677">
        <ele>180.7</ele>
        <time>2026-05-01T15:39:36.000Z</time>
      </trkpt>
      <trkpt lat="44.81167" lon="0.82673">
        <ele>180</ele>
        <time>2026-05-01T15:39:37.000Z</time>
      </trkpt>
      <trkpt lat="44.81167" lon="0.8267">
        <ele>179.7</ele>
        <time>2026-05-01T15:39:38.000Z</time>
      </trkpt>
      <trkpt lat="44.81166" lon="0.82666">
        <ele>180</ele>
        <time>2026-05-01T15:39:39.000Z</time>
      </trkpt>
      <trkpt lat="44.81167" lon="0.82664">
        <ele>179.1</ele>
        <time>2026-05-01T15:39:40.000Z</time>
      </trkpt>
      <trkpt lat="44.81168" lon="0.82662">
        <ele>179</ele>
        <time>2026-05-01T15:39:41.000Z</time>
      </trkpt>
      <trkpt lat="44.81169" lon="0.82659">
        <ele>178.9</ele>
        <time>2026-05-01T15:39:42.000Z</time>
      </trkpt>
      <trkpt lat="44.81169" lon="0.82657">
        <ele>178.6</ele>
        <time>2026-05-01T15:39:43.000Z</time>
      </trkpt>
      <trkpt lat="44.81171" lon="0.82655">
        <ele>178.7</ele>
        <time>2026-05-01T15:39:44.000Z</time>
      </trkpt>
      <trkpt lat="44.81172" lon="0.82654">
        <ele>178.3</ele>
        <time>2026-05-01T15:39:45.000Z</time>
      </trkpt>
      <trkpt lat="44.81175" lon="0.82655">
        <ele>178.1</ele>
        <time>2026-05-01T15:39:46.000Z</time>
      </trkpt>
      <trkpt lat="44.81177" lon="0.82654">
        <ele>177.5</ele>
        <time>2026-05-01T15:39:47.000Z</time>
      </trkpt>
      <trkpt lat="44.81179" lon="0.82654">
        <ele>177.2</ele>
        <time>2026-05-01T15:39:48.000Z</time>
      </trkpt>
      <trkpt lat="44.8118" lon="0.82653">
        <ele>177.3</ele>
        <time>2026-05-01T15:39:49.000Z</time>
      </trkpt>
      <trkpt lat="44.81182" lon="0.82653">
        <ele>177.2</ele>
        <time>2026-05-01T15:39:50.000Z</time>
      </trkpt>
      <trkpt lat="44.81184" lon="0.82654">
        <ele>176.3</ele>
        <time>2026-05-01T15:39:51.000Z</time>
      </trkpt>
      <trkpt lat="44.81185" lon="0.82655">
        <ele>176.6</ele>
        <time>2026-05-01T15:39:52.000Z</time>
      </trkpt>
      <trkpt lat="44.81188" lon="0.82654">
        <ele>177.5</ele>
        <time>2026-05-01T15:39:53.000Z</time>
      </trkpt>
      <trkpt lat="44.8119" lon="0.82654">
        <ele>178</ele>
        <time>2026-05-01T15:39:54.000Z</time>
      </trkpt>
      <trkpt lat="44.81194" lon="0.82654">
        <ele>178.4</ele>
        <time>2026-05-01T15:39:55.000Z</time>
      </trkpt>
      <trkpt lat="44.81199" lon="0.82653">
        <ele>178.7</ele>
        <time>2026-05-01T15:39:56.000Z</time>
      </trkpt>
      <trkpt lat="44.81205" lon="0.82653">
        <ele>178.4</ele>
        <time>2026-05-01T15:39:57.000Z</time>
      </trkpt>
      <trkpt lat="44.81212" lon="0.82654">
        <ele>178.6</ele>
        <time>2026-05-01T15:39:58.000Z</time>
      </trkpt>
      <trkpt lat="44.81223" lon="0.82658">
        <ele>179.9</ele>
        <time>2026-05-01T15:39:59.000Z</time>
      </trkpt>
      <trkpt lat="44.81228" lon="0.82657">
        <ele>179.2</ele>
        <time>2026-05-01T15:40:00.000Z</time>
      </trkpt>
      <trkpt lat="44.81233" lon="0.82655">
        <ele>178.9</ele>
        <time>2026-05-01T15:40:01.000Z</time>
      </trkpt>
      <trkpt lat="44.81238" lon="0.82654">
        <ele>178.4</ele>
        <time>2026-05-01T15:40:02.000Z</time>
      </trkpt>
      <trkpt lat="44.81241" lon="0.8265">
        <ele>178.3</ele>
        <time>2026-05-01T15:40:03.000Z</time>
      </trkpt>
      <trkpt lat="44.81245" lon="0.82647">
        <ele>178.3</ele>
        <time>2026-05-01T15:40:04.000Z</time>
      </trkpt>
      <trkpt lat="44.81249" lon="0.82642">
        <ele>179.2</ele>
        <time>2026-05-01T15:40:05.000Z</time>
      </trkpt>
      <trkpt lat="44.81252" lon="0.82636">
        <ele>180.1</ele>
        <time>2026-05-01T15:40:06.000Z</time>
      </trkpt>
      <trkpt lat="44.81256" lon="0.82632">
        <ele>180.4</ele>
        <time>2026-05-01T15:40:07.000Z</time>
      </trkpt>
      <trkpt lat="44.8126" lon="0.82628">
        <ele>180.1</ele>
        <time>2026-05-01T15:40:08.000Z</time>
      </trkpt>
      <trkpt lat="44.81264" lon="0.82622">
        <ele>180.1</ele>
        <time>2026-05-01T15:40:09.000Z</time>
      </trkpt>
      <trkpt lat="44.81267" lon="0.82618">
        <ele>180.2</ele>
        <time>2026-05-01T15:40:10.000Z</time>
      </trkpt>
      <trkpt lat="44.81271" lon="0.82613">
        <ele>180.3</ele>
        <time>2026-05-01T15:40:11.000Z</time>
      </trkpt>
      <trkpt lat="44.81274" lon="0.82609">
        <ele>180.4</ele>
        <time>2026-05-01T15:40:12.000Z</time>
      </trkpt>
      <trkpt lat="44.81278" lon="0.82602">
        <ele>181.2</ele>
        <time>2026-05-01T15:40:13.000Z</time>
      </trkpt>
      <trkpt lat="44.8128" lon="0.82594">
        <ele>181.5</ele>
        <time>2026-05-01T15:40:14.000Z</time>
      </trkpt>
      <trkpt lat="44.81283" lon="0.82589">
        <ele>183.4</ele>
        <time>2026-05-01T15:40:15.000Z</time>
      </trkpt>
      <trkpt lat="44.81285" lon="0.82585">
        <ele>184.3</ele>
        <time>2026-05-01T15:40:16.000Z</time>
      </trkpt>
      <trkpt lat="44.81287" lon="0.82581">
        <ele>185.1</ele>
        <time>2026-05-01T15:40:17.000Z</time>
      </trkpt>
      <trkpt lat="44.8129" lon="0.82579">
        <ele>185.9</ele>
        <time>2026-05-01T15:40:18.000Z</time>
      </trkpt>
      <trkpt lat="44.81292" lon="0.82579">
        <ele>185.6</ele>
        <time>2026-05-01T15:40:19.000Z</time>
      </trkpt>
      <trkpt lat="44.81295" lon="0.82579">
        <ele>186.7</ele>
        <time>2026-05-01T15:40:20.000Z</time>
      </trkpt>
      <trkpt lat="44.81298" lon="0.82584">
        <ele>186.2</ele>
        <time>2026-05-01T15:40:21.000Z</time>
      </trkpt>
      <trkpt lat="44.81299" lon="0.82588">
        <ele>186.2</ele>
        <time>2026-05-01T15:40:22.000Z</time>
      </trkpt>
      <trkpt lat="44.81296" lon="0.82593">
        <ele>185.2</ele>
        <time>2026-05-01T15:40:23.000Z</time>
      </trkpt>
      <trkpt lat="44.81293" lon="0.82594">
        <ele>185.8</ele>
        <time>2026-05-01T15:40:24.000Z</time>
      </trkpt>
      <trkpt lat="44.81291" lon="0.82592">
        <ele>182.2</ele>
        <time>2026-05-01T15:40:25.000Z</time>
      </trkpt>
      <trkpt lat="44.81289" lon="0.8259">
        <ele>182.5</ele>
        <time>2026-05-01T15:40:26.000Z</time>
      </trkpt>
      <trkpt lat="44.81287" lon="0.82588">
        <ele>182.9</ele>
        <time>2026-05-01T15:40:27.000Z</time>
      </trkpt>
      <trkpt lat="44.81286" lon="0.82587">
        <ele>182.8</ele>
        <time>2026-05-01T15:40:28.000Z</time>
      </trkpt>
      <trkpt lat="44.81283" lon="0.82586">
        <ele>184</ele>
        <time>2026-05-01T15:40:29.000Z</time>
      </trkpt>
      <trkpt lat="44.81282" lon="0.82585">
        <ele>184.1</ele>
        <time>2026-05-01T15:40:30.000Z</time>
      </trkpt>
      <trkpt lat="44.81279" lon="0.82583">
        <ele>184.8</ele>
        <time>2026-05-01T15:40:31.000Z</time>
      </trkpt>
      <trkpt lat="44.81277" lon="0.82582">
        <ele>185.6</ele>
        <time>2026-05-01T15:40:32.000Z</time>
      </trkpt>
      <trkpt lat="44.81275" lon="0.82581">
        <ele>186.4</ele>
        <time>2026-05-01T15:40:33.000Z</time>
      </trkpt>
      <trkpt lat="44.81273" lon="0.8258">
        <ele>187.2</ele>
        <time>2026-05-01T15:40:34.000Z</time>
      </trkpt>
      <trkpt lat="44.81271" lon="0.82579">
        <ele>187.6</ele>
        <time>2026-05-01T15:40:35.000Z</time>
      </trkpt>
      <trkpt lat="44.81269" lon="0.82579">
        <ele>187.9</ele>
        <time>2026-05-01T15:40:36.000Z</time>
      </trkpt>
      <trkpt lat="44.81267" lon="0.82577">
        <ele>188.3</ele>
        <time>2026-05-01T15:40:37.000Z</time>
      </trkpt>
      <trkpt lat="44.81266" lon="0.82576">
        <ele>188.2</ele>
        <time>2026-05-01T15:40:38.000Z</time>
      </trkpt>
      <trkpt lat="44.81265" lon="0.82574">
        <ele>187.7</ele>
        <time>2026-05-01T15:40:39.000Z</time>
      </trkpt>
      <trkpt lat="44.81265" lon="0.82574">
        <ele>187.3</ele>
        <time>2026-05-01T15:40:40.000Z</time>
      </trkpt>
      <trkpt lat="44.81266" lon="0.82574">
        <ele>186.8</ele>
        <time>2026-05-01T15:40:41.000Z</time>
      </trkpt>
      <trkpt lat="44.81266" lon="0.82574">
        <ele>187.1</ele>
        <time>2026-05-01T15:40:42.000Z</time>
      </trkpt>
      <trkpt lat="44.81266" lon="0.82574">
        <ele>187.1</ele>
        <time>2026-05-01T15:40:43.000Z</time>
      </trkpt>
      <trkpt lat="44.81266" lon="0.82574">
        <ele>187.1</ele>
        <time>2026-05-01T15:40:44.000Z</time>
      </trkpt>
      <trkpt lat="44.81266" lon="0.82574">
        <ele>187.1</ele>
        <time>2026-05-01T15:40:45.000Z</time>
      </trkpt>
      <trkpt lat="44.81266" lon="0.82574">
        <ele>187.1</ele>
        <time>2026-05-01T15:40:46.000Z</time>
      </trkpt>
      <trkpt lat="44.81267" lon="0.82575">
        <ele>186.5</ele>
        <time>2026-05-01T15:40:47.000Z</time>
      </trkpt>
      <trkpt lat="44.81268" lon="0.82575">
        <ele>186.4</ele>
        <time>2026-05-01T15:40:48.000Z</time>
      </trkpt>
      <trkpt lat="44.81269" lon="0.82576">
        <ele>186.5</ele>
        <time>2026-05-01T15:40:49.000Z</time>
      </trkpt>
      <trkpt lat="44.8127" lon="0.82578">
        <ele>186.4</ele>
        <time>2026-05-01T15:40:50.000Z</time>
      </trkpt>
      <trkpt lat="44.81271" lon="0.82578">
        <ele>186.4</ele>
        <time>2026-05-01T15:40:51.000Z</time>
      </trkpt>
      <trkpt lat="44.81273" lon="0.82579">
        <ele>186.2</ele>
        <time>2026-05-01T15:40:52.000Z</time>
      </trkpt>
      <trkpt lat="44.81275" lon="0.82579">
        <ele>186.2</ele>
        <time>2026-05-01T15:40:53.000Z</time>
      </trkpt>
      <trkpt lat="44.81277" lon="0.8258">
        <ele>186.1</ele>
        <time>2026-05-01T15:40:54.000Z</time>
      </trkpt>
      <trkpt lat="44.81278" lon="0.8258">
        <ele>185.7</ele>
        <time>2026-05-01T15:40:55.000Z</time>
      </trkpt>
      <trkpt lat="44.8128" lon="0.8258">
        <ele>185.7</ele>
        <time>2026-05-01T15:40:56.000Z</time>
      </trkpt>
      <trkpt lat="44.81281" lon="0.82581">
        <ele>185.5</ele>
        <time>2026-05-01T15:40:57.000Z</time>
      </trkpt>
      <trkpt lat="44.81282" lon="0.82581">
        <ele>185.3</ele>
        <time>2026-05-01T15:40:58.000Z</time>
      </trkpt>
      <trkpt lat="44.81284" lon="0.82582">
        <ele>185.2</ele>
        <time>2026-05-01T15:40:59.000Z</time>
      </trkpt>
      <trkpt lat="44.81285" lon="0.82582">
        <ele>185.7</ele>
        <time>2026-05-01T15:41:00.000Z</time>
      </trkpt>
      <trkpt lat="44.81287" lon="0.82582">
        <ele>186.1</ele>
        <time>2026-05-01T15:41:01.000Z</time>
      </trkpt>
      <trkpt lat="44.81288" lon="0.82582">
        <ele>186.1</ele>
        <time>2026-05-01T15:41:02.000Z</time>
      </trkpt>
      <trkpt lat="44.8129" lon="0.82582">
        <ele>186.1</ele>
        <time>2026-05-01T15:41:03.000Z</time>
      </trkpt>
      <trkpt lat="44.81291" lon="0.82582">
        <ele>185.9</ele>
        <time>2026-05-01T15:41:04.000Z</time>
      </trkpt>
      <trkpt lat="44.81293" lon="0.82582">
        <ele>185.4</ele>
        <time>2026-05-01T15:41:05.000Z</time>
      </trkpt>
      <trkpt lat="44.81295" lon="0.82582">
        <ele>184.6</ele>
        <time>2026-05-01T15:41:06.000Z</time>
      </trkpt>
      <trkpt lat="44.81297" lon="0.82583">
        <ele>184.5</ele>
        <time>2026-05-01T15:41:07.000Z</time>
      </trkpt>
      <trkpt lat="44.81298" lon="0.82583">
        <ele>184.6</ele>
        <time>2026-05-01T15:41:08.000Z</time>
      </trkpt>
      <trkpt lat="44.813" lon="0.82582">
        <ele>184.7</ele>
        <time>2026-05-01T15:41:09.000Z</time>
      </trkpt>
      <trkpt lat="44.81302" lon="0.82582">
        <ele>184.6</ele>
        <time>2026-05-01T15:41:10.000Z</time>
      </trkpt>
      <trkpt lat="44.81304" lon="0.82582">
        <ele>184.5</ele>
        <time>2026-05-01T15:41:11.000Z</time>
      </trkpt>
      <trkpt lat="44.81306" lon="0.82583">
        <ele>184.3</ele>
        <time>2026-05-01T15:41:12.000Z</time>
      </trkpt>
      <trkpt lat="44.81308" lon="0.82583">
        <ele>184.3</ele>
        <time>2026-05-01T15:41:13.000Z</time>
      </trkpt>
      <trkpt lat="44.8131" lon="0.82583">
        <ele>184</ele>
        <time>2026-05-01T15:41:14.000Z</time>
      </trkpt>
      <trkpt lat="44.81311" lon="0.82584">
        <ele>184.1</ele>
        <time>2026-05-01T15:41:15.000Z</time>
      </trkpt>
      <trkpt lat="44.81313" lon="0.82585">
        <ele>183.8</ele>
        <time>2026-05-01T15:41:16.000Z</time>
      </trkpt>
      <trkpt lat="44.81314" lon="0.82585">
        <ele>183.6</ele>
        <time>2026-05-01T15:41:17.000Z</time>
      </trkpt>
      <trkpt lat="44.81315" lon="0.82586">
        <ele>183.5</ele>
        <time>2026-05-01T15:41:18.000Z</time>
      </trkpt>
      <trkpt lat="44.81317" lon="0.82586">
        <ele>183.5</ele>
        <time>2026-05-01T15:41:19.000Z</time>
      </trkpt>
      <trkpt lat="44.81318" lon="0.82587">
        <ele>183.4</ele>
        <time>2026-05-01T15:41:20.000Z</time>
      </trkpt>
      <trkpt lat="44.8132" lon="0.82587">
        <ele>183.3</ele>
        <time>2026-05-01T15:41:21.000Z</time>
      </trkpt>
      <trkpt lat="44.81321" lon="0.82588">
        <ele>183.1</ele>
        <time>2026-05-01T15:41:22.000Z</time>
      </trkpt>
      <trkpt lat="44.81322" lon="0.82588">
        <ele>183</ele>
        <time>2026-05-01T15:41:23.000Z</time>
      </trkpt>
      <trkpt lat="44.81324" lon="0.82588">
        <ele>183</ele>
        <time>2026-05-01T15:41:24.000Z</time>
      </trkpt>
      <trkpt lat="44.81325" lon="0.82589">
        <ele>183</ele>
        <time>2026-05-01T15:41:25.000Z</time>
      </trkpt>
      <trkpt lat="44.81327" lon="0.82589">
        <ele>183.2</ele>
        <time>2026-05-01T15:41:26.000Z</time>
      </trkpt>
      <trkpt lat="44.81328" lon="0.82589">
        <ele>183.1</ele>
        <time>2026-05-01T15:41:27.000Z</time>
      </trkpt>
      <trkpt lat="44.81329" lon="0.82589">
        <ele>182.7</ele>
        <time>2026-05-01T15:41:28.000Z</time>
      </trkpt>
      <trkpt lat="44.8133" lon="0.82589">
        <ele>182.5</ele>
        <time>2026-05-01T15:41:29.000Z</time>
      </trkpt>
      <trkpt lat="44.81332" lon="0.8259">
        <ele>182.2</ele>
        <time>2026-05-01T15:41:30.000Z</time>
      </trkpt>
      <trkpt lat="44.81333" lon="0.8259">
        <ele>182.1</ele>
        <time>2026-05-01T15:41:31.000Z</time>
      </trkpt>
      <trkpt lat="44.81334" lon="0.8259">
        <ele>182</ele>
        <time>2026-05-01T15:41:32.000Z</time>
      </trkpt>
      <trkpt lat="44.81336" lon="0.8259">
        <ele>181.8</ele>
        <time>2026-05-01T15:41:33.000Z</time>
      </trkpt>
      <trkpt lat="44.81337" lon="0.8259">
        <ele>181.9</ele>
        <time>2026-05-01T15:41:34.000Z</time>
      </trkpt>
      <trkpt lat="44.81339" lon="0.8259">
        <ele>181.8</ele>
        <time>2026-05-01T15:41:35.000Z</time>
      </trkpt>
      <trkpt lat="44.8134" lon="0.8259">
        <ele>181.4</ele>
        <time>2026-05-01T15:41:36.000Z</time>
      </trkpt>
      <trkpt lat="44.81342" lon="0.8259">
        <ele>181.3</ele>
        <time>2026-05-01T15:41:37.000Z</time>
      </trkpt>
      <trkpt lat="44.81343" lon="0.8259">
        <ele>181.2</ele>
        <time>2026-05-01T15:41:38.000Z</time>
      </trkpt>
      <trkpt lat="44.81345" lon="0.8259">
        <ele>181.2</ele>
        <time>2026-05-01T15:41:39.000Z</time>
      </trkpt>
      <trkpt lat="44.81346" lon="0.8259">
        <ele>181</ele>
        <time>2026-05-01T15:41:40.000Z</time>
      </trkpt>
      <trkpt lat="44.81347" lon="0.8259">
        <ele>180.5</ele>
        <time>2026-05-01T15:41:41.000Z</time>
      </trkpt>
      <trkpt lat="44.81349" lon="0.8259">
        <ele>180.7</ele>
        <time>2026-05-01T15:41:42.000Z</time>
      </trkpt>
      <trkpt lat="44.8135" lon="0.8259">
        <ele>180.4</ele>
        <time>2026-05-01T15:41:43.000Z</time>
      </trkpt>
      <trkpt lat="44.81352" lon="0.8259">
        <ele>180.1</ele>
        <time>2026-05-01T15:41:44.000Z</time>
      </trkpt>
      <trkpt lat="44.81353" lon="0.8259">
        <ele>179.7</ele>
        <time>2026-05-01T15:41:45.000Z</time>
      </trkpt>
      <trkpt lat="44.81354" lon="0.82589">
        <ele>179.2</ele>
        <time>2026-05-01T15:41:46.000Z</time>
      </trkpt>
      <trkpt lat="44.81356" lon="0.82589">
        <ele>178.9</ele>
        <time>2026-05-01T15:41:47.000Z</time>
      </trkpt>
      <trkpt lat="44.81358" lon="0.82588">
        <ele>178.8</ele>
        <time>2026-05-01T15:41:48.000Z</time>
      </trkpt>
      <trkpt lat="44.81359" lon="0.82587">
        <ele>178.5</ele>
        <time>2026-05-01T15:41:49.000Z</time>
      </trkpt>
      <trkpt lat="44.8136" lon="0.82586">
        <ele>178.3</ele>
        <time>2026-05-01T15:41:50.000Z</time>
      </trkpt>
      <trkpt lat="44.81362" lon="0.82584">
        <ele>178.1</ele>
        <time>2026-05-01T15:41:51.000Z</time>
      </trkpt>
      <trkpt lat="44.81363" lon="0.82583">
        <ele>178.4</ele>
        <time>2026-05-01T15:41:52.000Z</time>
      </trkpt>
      <trkpt lat="44.81364" lon="0.82581">
        <ele>178.5</ele>
        <time>2026-05-01T15:41:53.000Z</time>
      </trkpt>
      <trkpt lat="44.81364" lon="0.82578">
        <ele>178.8</ele>
        <time>2026-05-01T15:41:54.000Z</time>
      </trkpt>
      <trkpt lat="44.81364" lon="0.82576">
        <ele>179.2</ele>
        <time>2026-05-01T15:41:55.000Z</time>
      </trkpt>
      <trkpt lat="44.81364" lon="0.82574">
        <ele>179.5</ele>
        <time>2026-05-01T15:41:56.000Z</time>
      </trkpt>
      <trkpt lat="44.81363" lon="0.82572">
        <ele>179.9</ele>
        <time>2026-05-01T15:41:57.000Z</time>
      </trkpt>
      <trkpt lat="44.81363" lon="0.8257">
        <ele>179.9</ele>
        <time>2026-05-01T15:41:58.000Z</time>
      </trkpt>
      <trkpt lat="44.81362" lon="0.82568">
        <ele>180.2</ele>
        <time>2026-05-01T15:41:59.000Z</time>
      </trkpt>
      <trkpt lat="44.81361" lon="0.82566">
        <ele>180.5</ele>
        <time>2026-05-01T15:42:00.000Z</time>
      </trkpt>
      <trkpt lat="44.8136" lon="0.82564">
        <ele>180.6</ele>
        <time>2026-05-01T15:42:01.000Z</time>
      </trkpt>
      <trkpt lat="44.81359" lon="0.82562">
        <ele>180.7</ele>
        <time>2026-05-01T15:42:02.000Z</time>
      </trkpt>
      <trkpt lat="44.81358" lon="0.8256">
        <ele>180.8</ele>
        <time>2026-05-01T15:42:03.000Z</time>
      </trkpt>
      <trkpt lat="44.81357" lon="0.82558">
        <ele>180.9</ele>
        <time>2026-05-01T15:42:04.000Z</time>
      </trkpt>
      <trkpt lat="44.81355" lon="0.82557">
        <ele>181.2</ele>
        <time>2026-05-01T15:42:05.000Z</time>
      </trkpt>
      <trkpt lat="44.81355" lon="0.82552">
        <ele>181.3</ele>
        <time>2026-05-01T15:42:06.000Z</time>
      </trkpt>
      <trkpt lat="44.81354" lon="0.8255">
        <ele>181.5</ele>
        <time>2026-05-01T15:42:07.000Z</time>
      </trkpt>
      <trkpt lat="44.81355" lon="0.82546">
        <ele>182.1</ele>
        <time>2026-05-01T15:42:08.000Z</time>
      </trkpt>
      <trkpt lat="44.81353" lon="0.82545">
        <ele>182.2</ele>
        <time>2026-05-01T15:42:09.000Z</time>
      </trkpt>
      <trkpt lat="44.81352" lon="0.82544">
        <ele>182.2</ele>
        <time>2026-05-01T15:42:10.000Z</time>
      </trkpt>
      <trkpt lat="44.8135" lon="0.82543">
        <ele>182.3</ele>
        <time>2026-05-01T15:42:11.000Z</time>
      </trkpt>
      <trkpt lat="44.81348" lon="0.82542">
        <ele>182.6</ele>
        <time>2026-05-01T15:42:12.000Z</time>
      </trkpt>
      <trkpt lat="44.81347" lon="0.82541">
        <ele>183</ele>
        <time>2026-05-01T15:42:13.000Z</time>
      </trkpt>
      <trkpt lat="44.81346" lon="0.82539">
        <ele>183.4</ele>
        <time>2026-05-01T15:42:14.000Z</time>
      </trkpt>
      <trkpt lat="44.81344" lon="0.82538">
        <ele>183.6</ele>
        <time>2026-05-01T15:42:15.000Z</time>
      </trkpt>
      <trkpt lat="44.81343" lon="0.82536">
        <ele>184</ele>
        <time>2026-05-01T15:42:16.000Z</time>
      </trkpt>
      <trkpt lat="44.81342" lon="0.82534">
        <ele>184.3</ele>
        <time>2026-05-01T15:42:17.000Z</time>
      </trkpt>
      <trkpt lat="44.81342" lon="0.82532">
        <ele>184.5</ele>
        <time>2026-05-01T15:42:18.000Z</time>
      </trkpt>
      <trkpt lat="44.81341" lon="0.8253">
        <ele>184.4</ele>
        <time>2026-05-01T15:42:19.000Z</time>
      </trkpt>
      <trkpt lat="44.81341" lon="0.82529">
        <ele>184.6</ele>
        <time>2026-05-01T15:42:20.000Z</time>
      </trkpt>
      <trkpt lat="44.8134" lon="0.82527">
        <ele>184.5</ele>
        <time>2026-05-01T15:42:21.000Z</time>
      </trkpt>
      <trkpt lat="44.8134" lon="0.82525">
        <ele>184.4</ele>
        <time>2026-05-01T15:42:22.000Z</time>
      </trkpt>
      <trkpt lat="44.81339" lon="0.82523">
        <ele>184.1</ele>
        <time>2026-05-01T15:42:23.000Z</time>
      </trkpt>
      <trkpt lat="44.81339" lon="0.82521">
        <ele>184.1</ele>
        <time>2026-05-01T15:42:24.000Z</time>
      </trkpt>
      <trkpt lat="44.81337" lon="0.82519">
        <ele>183.7</ele>
        <time>2026-05-01T15:42:25.000Z</time>
      </trkpt>
      <trkpt lat="44.81338" lon="0.82517">
        <ele>183.5</ele>
        <time>2026-05-01T15:42:26.000Z</time>
      </trkpt>
      <trkpt lat="44.81338" lon="0.82515">
        <ele>183.2</ele>
        <time>2026-05-01T15:42:27.000Z</time>
      </trkpt>
      <trkpt lat="44.81338" lon="0.82513">
        <ele>182.7</ele>
        <time>2026-05-01T15:42:28.000Z</time>
      </trkpt>
      <trkpt lat="44.81339" lon="0.82511">
        <ele>182.4</ele>
        <time>2026-05-01T15:42:29.000Z</time>
      </trkpt>
      <trkpt lat="44.81339" lon="0.82508">
        <ele>181.9</ele>
        <time>2026-05-01T15:42:30.000Z</time>
      </trkpt>
      <trkpt lat="44.8134" lon="0.82506">
        <ele>181.6</ele>
        <time>2026-05-01T15:42:31.000Z</time>
      </trkpt>
      <trkpt lat="44.8134" lon="0.82504">
        <ele>181.3</ele>
        <time>2026-05-01T15:42:32.000Z</time>
      </trkpt>
      <trkpt lat="44.8134" lon="0.82502">
        <ele>180.7</ele>
        <time>2026-05-01T15:42:33.000Z</time>
      </trkpt>
      <trkpt lat="44.8134" lon="0.825">
        <ele>180.2</ele>
        <time>2026-05-01T15:42:34.000Z</time>
      </trkpt>
      <trkpt lat="44.8134" lon="0.82497">
        <ele>180</ele>
        <time>2026-05-01T15:42:35.000Z</time>
      </trkpt>
      <trkpt lat="44.8134" lon="0.82495">
        <ele>179.7</ele>
        <time>2026-05-01T15:42:36.000Z</time>
      </trkpt>
      <trkpt lat="44.81341" lon="0.82493">
        <ele>179.5</ele>
        <time>2026-05-01T15:42:37.000Z</time>
      </trkpt>
      <trkpt lat="44.81341" lon="0.82491">
        <ele>179.4</ele>
        <time>2026-05-01T15:42:38.000Z</time>
      </trkpt>
      <trkpt lat="44.81341" lon="0.82489">
        <ele>179.4</ele>
        <time>2026-05-01T15:42:39.000Z</time>
      </trkpt>
      <trkpt lat="44.81341" lon="0.82487">
        <ele>179.2</ele>
        <time>2026-05-01T15:42:40.000Z</time>
      </trkpt>
      <trkpt lat="44.81342" lon="0.82485">
        <ele>179.1</ele>
        <time>2026-05-01T15:42:41.000Z</time>
      </trkpt>
      <trkpt lat="44.81342" lon="0.82483">
        <ele>178.8</ele>
        <time>2026-05-01T15:42:42.000Z</time>
      </trkpt>
      <trkpt lat="44.81343" lon="0.82481">
        <ele>178.8</ele>
        <time>2026-05-01T15:42:43.000Z</time>
      </trkpt>
      <trkpt lat="44.81344" lon="0.82479">
        <ele>178.3</ele>
        <time>2026-05-01T15:42:44.000Z</time>
      </trkpt>
      <trkpt lat="44.81345" lon="0.82477">
        <ele>178.2</ele>
        <time>2026-05-01T15:42:45.000Z</time>
      </trkpt>
      <trkpt lat="44.81346" lon="0.82476">
        <ele>178.5</ele>
        <time>2026-05-01T15:42:46.000Z</time>
      </trkpt>
      <trkpt lat="44.81348" lon="0.82475">
        <ele>178.3</ele>
        <time>2026-05-01T15:42:47.000Z</time>
      </trkpt>
      <trkpt lat="44.81349" lon="0.82474">
        <ele>177.9</ele>
        <time>2026-05-01T15:42:48.000Z</time>
      </trkpt>
      <trkpt lat="44.81351" lon="0.82473">
        <ele>178.2</ele>
        <time>2026-05-01T15:42:49.000Z</time>
      </trkpt>
      <trkpt lat="44.81352" lon="0.82473">
        <ele>178.2</ele>
        <time>2026-05-01T15:42:50.000Z</time>
      </trkpt>
      <trkpt lat="44.81354" lon="0.82472">
        <ele>178.2</ele>
        <time>2026-05-01T15:42:51.000Z</time>
      </trkpt>
      <trkpt lat="44.81355" lon="0.82472">
        <ele>178</ele>
        <time>2026-05-01T15:42:52.000Z</time>
      </trkpt>
      <trkpt lat="44.81357" lon="0.82472">
        <ele>177.9</ele>
        <time>2026-05-01T15:42:53.000Z</time>
      </trkpt>
      <trkpt lat="44.81358" lon="0.82471">
        <ele>178</ele>
        <time>2026-05-01T15:42:54.000Z</time>
      </trkpt>
      <trkpt lat="44.8136" lon="0.82471">
        <ele>178</ele>
        <time>2026-05-01T15:42:55.000Z</time>
      </trkpt>
      <trkpt lat="44.81362" lon="0.82471">
        <ele>178</ele>
        <time>2026-05-01T15:42:56.000Z</time>
      </trkpt>
      <trkpt lat="44.81363" lon="0.8247">
        <ele>178.1</ele>
        <time>2026-05-01T15:42:57.000Z</time>
      </trkpt>
      <trkpt lat="44.81365" lon="0.8247">
        <ele>178.1</ele>
        <time>2026-05-01T15:42:58.000Z</time>
      </trkpt>
      <trkpt lat="44.81367" lon="0.82469">
        <ele>178.1</ele>
        <time>2026-05-01T15:42:59.000Z</time>
      </trkpt>
      <trkpt lat="44.81368" lon="0.82468">
        <ele>178.2</ele>
        <time>2026-05-01T15:43:00.000Z</time>
      </trkpt>
      <trkpt lat="44.8137" lon="0.82467">
        <ele>178.3</ele>
        <time>2026-05-01T15:43:01.000Z</time>
      </trkpt>
      <trkpt lat="44.81371" lon="0.82466">
        <ele>178.4</ele>
        <time>2026-05-01T15:43:02.000Z</time>
      </trkpt>
      <trkpt lat="44.81373" lon="0.82466">
        <ele>178.4</ele>
        <time>2026-05-01T15:43:03.000Z</time>
      </trkpt>
      <trkpt lat="44.81375" lon="0.82465">
        <ele>178.3</ele>
        <time>2026-05-01T15:43:04.000Z</time>
      </trkpt>
      <trkpt lat="44.81376" lon="0.82464">
        <ele>178.2</ele>
        <time>2026-05-01T15:43:05.000Z</time>
      </trkpt>
      <trkpt lat="44.81378" lon="0.82463">
        <ele>178.2</ele>
        <time>2026-05-01T15:43:06.000Z</time>
      </trkpt>
      <trkpt lat="44.81379" lon="0.82462">
        <ele>178.3</ele>
        <time>2026-05-01T15:43:07.000Z</time>
      </trkpt>
      <trkpt lat="44.81381" lon="0.82461">
        <ele>178.2</ele>
        <time>2026-05-01T15:43:08.000Z</time>
      </trkpt>
      <trkpt lat="44.81383" lon="0.8246">
        <ele>178.3</ele>
        <time>2026-05-01T15:43:09.000Z</time>
      </trkpt>
      <trkpt lat="44.81384" lon="0.82459">
        <ele>178.6</ele>
        <time>2026-05-01T15:43:10.000Z</time>
      </trkpt>
      <trkpt lat="44.81386" lon="0.82459">
        <ele>179</ele>
        <time>2026-05-01T15:43:11.000Z</time>
      </trkpt>
      <trkpt lat="44.81388" lon="0.82458">
        <ele>179</ele>
        <time>2026-05-01T15:43:12.000Z</time>
      </trkpt>
      <trkpt lat="44.81389" lon="0.82458">
        <ele>178.9</ele>
        <time>2026-05-01T15:43:13.000Z</time>
      </trkpt>
      <trkpt lat="44.81391" lon="0.82458">
        <ele>179.2</ele>
        <time>2026-05-01T15:43:14.000Z</time>
      </trkpt>
      <trkpt lat="44.81393" lon="0.82458">
        <ele>179.3</ele>
        <time>2026-05-01T15:43:15.000Z</time>
      </trkpt>
      <trkpt lat="44.81395" lon="0.82458">
        <ele>179.5</ele>
        <time>2026-05-01T15:43:16.000Z</time>
      </trkpt>
      <trkpt lat="44.81397" lon="0.82458">
        <ele>179.6</ele>
        <time>2026-05-01T15:43:17.000Z</time>
      </trkpt>
      <trkpt lat="44.81399" lon="0.82458">
        <ele>179.7</ele>
        <time>2026-05-01T15:43:18.000Z</time>
      </trkpt>
      <trkpt lat="44.81401" lon="0.82459">
        <ele>179.9</ele>
        <time>2026-05-01T15:43:19.000Z</time>
      </trkpt>
      <trkpt lat="44.81403" lon="0.8246">
        <ele>179.9</ele>
        <time>2026-05-01T15:43:20.000Z</time>
      </trkpt>
      <trkpt lat="44.81405" lon="0.82461">
        <ele>179.9</ele>
        <time>2026-05-01T15:43:21.000Z</time>
      </trkpt>
      <trkpt lat="44.81407" lon="0.82462">
        <ele>180.1</ele>
        <time>2026-05-01T15:43:22.000Z</time>
      </trkpt>
      <trkpt lat="44.81408" lon="0.82463">
        <ele>180.2</ele>
        <time>2026-05-01T15:43:23.000Z</time>
      </trkpt>
      <trkpt lat="44.8141" lon="0.82465">
        <ele>180.5</ele>
        <time>2026-05-01T15:43:24.000Z</time>
      </trkpt>
      <trkpt lat="44.81412" lon="0.82466">
        <ele>180.6</ele>
        <time>2026-05-01T15:43:25.000Z</time>
      </trkpt>
      <trkpt lat="44.81414" lon="0.82467">
        <ele>180.8</ele>
        <time>2026-05-01T15:43:26.000Z</time>
      </trkpt>
      <trkpt lat="44.81415" lon="0.82469">
        <ele>181.1</ele>
        <time>2026-05-01T15:43:27.000Z</time>
      </trkpt>
      <trkpt lat="44.81417" lon="0.82471">
        <ele>181.1</ele>
        <time>2026-05-01T15:43:28.000Z</time>
      </trkpt>
      <trkpt lat="44.81418" lon="0.82473">
        <ele>181.3</ele>
        <time>2026-05-01T15:43:29.000Z</time>
      </trkpt>
      <trkpt lat="44.81419" lon="0.82474">
        <ele>181.4</ele>
        <time>2026-05-01T15:43:30.000Z</time>
      </trkpt>
      <trkpt lat="44.81421" lon="0.82476">
        <ele>181.6</ele>
        <time>2026-05-01T15:43:31.000Z</time>
      </trkpt>
      <trkpt lat="44.81422" lon="0.82477">
        <ele>182</ele>
        <time>2026-05-01T15:43:32.000Z</time>
      </trkpt>
      <trkpt lat="44.81423" lon="0.82479">
        <ele>182.4</ele>
        <time>2026-05-01T15:43:33.000Z</time>
      </trkpt>
      <trkpt lat="44.81425" lon="0.82481">
        <ele>182.6</ele>
        <time>2026-05-01T15:43:34.000Z</time>
      </trkpt>
      <trkpt lat="44.81426" lon="0.82482">
        <ele>182.9</ele>
        <time>2026-05-01T15:43:35.000Z</time>
      </trkpt>
      <trkpt lat="44.81428" lon="0.82484">
        <ele>182.9</ele>
        <time>2026-05-01T15:43:36.000Z</time>
      </trkpt>
      <trkpt lat="44.81429" lon="0.82486">
        <ele>183.1</ele>
        <time>2026-05-01T15:43:37.000Z</time>
      </trkpt>
      <trkpt lat="44.81431" lon="0.82487">
        <ele>183.3</ele>
        <time>2026-05-01T15:43:38.000Z</time>
      </trkpt>
      <trkpt lat="44.81433" lon="0.82489">
        <ele>183.5</ele>
        <time>2026-05-01T15:43:39.000Z</time>
      </trkpt>
      <trkpt lat="44.81434" lon="0.82491">
        <ele>183.6</ele>
        <time>2026-05-01T15:43:40.000Z</time>
      </trkpt>
      <trkpt lat="44.81436" lon="0.82492">
        <ele>183.9</ele>
        <time>2026-05-01T15:43:41.000Z</time>
      </trkpt>
      <trkpt lat="44.81437" lon="0.82494">
        <ele>184.2</ele>
        <time>2026-05-01T15:43:42.000Z</time>
      </trkpt>
      <trkpt lat="44.81439" lon="0.82495">
        <ele>184.8</ele>
        <time>2026-05-01T15:43:43.000Z</time>
      </trkpt>
      <trkpt lat="44.81441" lon="0.82497">
        <ele>184.9</ele>
        <time>2026-05-01T15:43:44.000Z</time>
      </trkpt>
      <trkpt lat="44.81442" lon="0.82498">
        <ele>185.2</ele>
        <time>2026-05-01T15:43:45.000Z</time>
      </trkpt>
      <trkpt lat="44.81444" lon="0.82499">
        <ele>185.5</ele>
        <time>2026-05-01T15:43:46.000Z</time>
      </trkpt>
      <trkpt lat="44.81446" lon="0.825">
        <ele>185.7</ele>
        <time>2026-05-01T15:43:47.000Z</time>
      </trkpt>
      <trkpt lat="44.81447" lon="0.82501">
        <ele>185.8</ele>
        <time>2026-05-01T15:43:48.000Z</time>
      </trkpt>
      <trkpt lat="44.81448" lon="0.82502">
        <ele>186.2</ele>
        <time>2026-05-01T15:43:49.000Z</time>
      </trkpt>
      <trkpt lat="44.8145" lon="0.82503">
        <ele>186.4</ele>
        <time>2026-05-01T15:43:50.000Z</time>
      </trkpt>
      <trkpt lat="44.81452" lon="0.82504">
        <ele>186.7</ele>
        <time>2026-05-01T15:43:51.000Z</time>
      </trkpt>
      <trkpt lat="44.81453" lon="0.82505">
        <ele>187.1</ele>
        <time>2026-05-01T15:43:52.000Z</time>
      </trkpt>
      <trkpt lat="44.81455" lon="0.82506">
        <ele>187.3</ele>
        <time>2026-05-01T15:43:53.000Z</time>
      </trkpt>
      <trkpt lat="44.81457" lon="0.82506">
        <ele>187.5</ele>
        <time>2026-05-01T15:43:54.000Z</time>
      </trkpt>
      <trkpt lat="44.81459" lon="0.82507">
        <ele>188</ele>
        <time>2026-05-01T15:43:55.000Z</time>
      </trkpt>
      <trkpt lat="44.81461" lon="0.82508">
        <ele>188.2</ele>
        <time>2026-05-01T15:43:56.000Z</time>
      </trkpt>
      <trkpt lat="44.81463" lon="0.82509">
        <ele>188.8</ele>
        <time>2026-05-01T15:43:57.000Z</time>
      </trkpt>
      <trkpt lat="44.81464" lon="0.8251">
        <ele>189</ele>
        <time>2026-05-01T15:43:58.000Z</time>
      </trkpt>
      <trkpt lat="44.81466" lon="0.82511">
        <ele>189.4</ele>
        <time>2026-05-01T15:43:59.000Z</time>
      </trkpt>
      <trkpt lat="44.81468" lon="0.82512">
        <ele>189.9</ele>
        <time>2026-05-01T15:44:00.000Z</time>
      </trkpt>
      <trkpt lat="44.8147" lon="0.82513">
        <ele>190.1</ele>
        <time>2026-05-01T15:44:01.000Z</time>
      </trkpt>
      <trkpt lat="44.81471" lon="0.82514">
        <ele>190.5</ele>
        <time>2026-05-01T15:44:02.000Z</time>
      </trkpt>
      <trkpt lat="44.81473" lon="0.82514">
        <ele>190.6</ele>
        <time>2026-05-01T15:44:03.000Z</time>
      </trkpt>
      <trkpt lat="44.81475" lon="0.82515">
        <ele>190.7</ele>
        <time>2026-05-01T15:44:04.000Z</time>
      </trkpt>
      <trkpt lat="44.81476" lon="0.82515">
        <ele>190.7</ele>
        <time>2026-05-01T15:44:05.000Z</time>
      </trkpt>
      <trkpt lat="44.81478" lon="0.82516">
        <ele>190.9</ele>
        <time>2026-05-01T15:44:06.000Z</time>
      </trkpt>
      <trkpt lat="44.8148" lon="0.82517">
        <ele>191.1</ele>
        <time>2026-05-01T15:44:07.000Z</time>
      </trkpt>
      <trkpt lat="44.81481" lon="0.82517">
        <ele>191.1</ele>
        <time>2026-05-01T15:44:08.000Z</time>
      </trkpt>
      <trkpt lat="44.81483" lon="0.82517">
        <ele>191.2</ele>
        <time>2026-05-01T15:44:09.000Z</time>
      </trkpt>
      <trkpt lat="44.81484" lon="0.82518">
        <ele>191.2</ele>
        <time>2026-05-01T15:44:10.000Z</time>
      </trkpt>
      <trkpt lat="44.81486" lon="0.82518">
        <ele>191.5</ele>
        <time>2026-05-01T15:44:11.000Z</time>
      </trkpt>
      <trkpt lat="44.81487" lon="0.82518">
        <ele>191.4</ele>
        <time>2026-05-01T15:44:12.000Z</time>
      </trkpt>
      <trkpt lat="44.81489" lon="0.82517">
        <ele>191.6</ele>
        <time>2026-05-01T15:44:13.000Z</time>
      </trkpt>
      <trkpt lat="44.81491" lon="0.82517">
        <ele>191.8</ele>
        <time>2026-05-01T15:44:14.000Z</time>
      </trkpt>
      <trkpt lat="44.81492" lon="0.82517">
        <ele>191.7</ele>
        <time>2026-05-01T15:44:15.000Z</time>
      </trkpt>
      <trkpt lat="44.81494" lon="0.82516">
        <ele>191.5</ele>
        <time>2026-05-01T15:44:16.000Z</time>
      </trkpt>
      <trkpt lat="44.81495" lon="0.82516">
        <ele>191.5</ele>
        <time>2026-05-01T15:44:17.000Z</time>
      </trkpt>
      <trkpt lat="44.81497" lon="0.82515">
        <ele>191.7</ele>
        <time>2026-05-01T15:44:18.000Z</time>
      </trkpt>
      <trkpt lat="44.81498" lon="0.82514">
        <ele>192</ele>
        <time>2026-05-01T15:44:19.000Z</time>
      </trkpt>
      <trkpt lat="44.815" lon="0.82513">
        <ele>192.6</ele>
        <time>2026-05-01T15:44:20.000Z</time>
      </trkpt>
      <trkpt lat="44.81501" lon="0.82512">
        <ele>192.8</ele>
        <time>2026-05-01T15:44:21.000Z</time>
      </trkpt>
      <trkpt lat="44.81502" lon="0.8251">
        <ele>193.5</ele>
        <time>2026-05-01T15:44:22.000Z</time>
      </trkpt>
      <trkpt lat="44.81504" lon="0.8251">
        <ele>193.3</ele>
        <time>2026-05-01T15:44:23.000Z</time>
      </trkpt>
      <trkpt lat="44.81505" lon="0.82509">
        <ele>193.7</ele>
        <time>2026-05-01T15:44:24.000Z</time>
      </trkpt>
      <trkpt lat="44.81506" lon="0.82508">
        <ele>194</ele>
        <time>2026-05-01T15:44:25.000Z</time>
      </trkpt>
      <trkpt lat="44.81507" lon="0.82507">
        <ele>193.7</ele>
        <time>2026-05-01T15:44:26.000Z</time>
      </trkpt>
      <trkpt lat="44.81509" lon="0.82505">
        <ele>193.4</ele>
        <time>2026-05-01T15:44:27.000Z</time>
      </trkpt>
      <trkpt lat="44.8151" lon="0.82505">
        <ele>193.2</ele>
        <time>2026-05-01T15:44:28.000Z</time>
      </trkpt>
      <trkpt lat="44.81511" lon="0.82503">
        <ele>193.6</ele>
        <time>2026-05-01T15:44:29.000Z</time>
      </trkpt>
      <trkpt lat="44.81513" lon="0.82502">
        <ele>193.9</ele>
        <time>2026-05-01T15:44:30.000Z</time>
      </trkpt>
      <trkpt lat="44.81514" lon="0.82501">
        <ele>193.2</ele>
        <time>2026-05-01T15:44:31.000Z</time>
      </trkpt>
      <trkpt lat="44.81515" lon="0.825">
        <ele>192.9</ele>
        <time>2026-05-01T15:44:32.000Z</time>
      </trkpt>
      <trkpt lat="44.81516" lon="0.82499">
        <ele>192.6</ele>
        <time>2026-05-01T15:44:33.000Z</time>
      </trkpt>
      <trkpt lat="44.81518" lon="0.82498">
        <ele>192.5</ele>
        <time>2026-05-01T15:44:34.000Z</time>
      </trkpt>
      <trkpt lat="44.81519" lon="0.82497">
        <ele>192.8</ele>
        <time>2026-05-01T15:44:35.000Z</time>
      </trkpt>
      <trkpt lat="44.81521" lon="0.82496">
        <ele>192.8</ele>
        <time>2026-05-01T15:44:36.000Z</time>
      </trkpt>
      <trkpt lat="44.81522" lon="0.82494">
        <ele>192.4</ele>
        <time>2026-05-01T15:44:37.000Z</time>
      </trkpt>
      <trkpt lat="44.81523" lon="0.82493">
        <ele>192.3</ele>
        <time>2026-05-01T15:44:38.000Z</time>
      </trkpt>
      <trkpt lat="44.81524" lon="0.82492">
        <ele>192.3</ele>
        <time>2026-05-01T15:44:39.000Z</time>
      </trkpt>
      <trkpt lat="44.81525" lon="0.82491">
        <ele>192.5</ele>
        <time>2026-05-01T15:44:40.000Z</time>
      </trkpt>
      <trkpt lat="44.81526" lon="0.82489">
        <ele>192.5</ele>
        <time>2026-05-01T15:44:41.000Z</time>
      </trkpt>
      <trkpt lat="44.81528" lon="0.82488">
        <ele>192.2</ele>
        <time>2026-05-01T15:44:42.000Z</time>
      </trkpt>
      <trkpt lat="44.81529" lon="0.82487">
        <ele>192.3</ele>
        <time>2026-05-01T15:44:43.000Z</time>
      </trkpt>
      <trkpt lat="44.8153" lon="0.82485">
        <ele>192.2</ele>
        <time>2026-05-01T15:44:44.000Z</time>
      </trkpt>
      <trkpt lat="44.81531" lon="0.82484">
        <ele>192</ele>
        <time>2026-05-01T15:44:45.000Z</time>
      </trkpt>
      <trkpt lat="44.81532" lon="0.82482">
        <ele>191.9</ele>
        <time>2026-05-01T15:44:46.000Z</time>
      </trkpt>
      <trkpt lat="44.81532" lon="0.8248">
        <ele>191.7</ele>
        <time>2026-05-01T15:44:47.000Z</time>
      </trkpt>
      <trkpt lat="44.81534" lon="0.82479">
        <ele>191.8</ele>
        <time>2026-05-01T15:44:48.000Z</time>
      </trkpt>
      <trkpt lat="44.81535" lon="0.82477">
        <ele>191.7</ele>
        <time>2026-05-01T15:44:49.000Z</time>
      </trkpt>
      <trkpt lat="44.81536" lon="0.82476">
        <ele>191.7</ele>
        <time>2026-05-01T15:44:50.000Z</time>
      </trkpt>
      <trkpt lat="44.81536" lon="0.82474">
        <ele>191.7</ele>
        <time>2026-05-01T15:44:51.000Z</time>
      </trkpt>
      <trkpt lat="44.81537" lon="0.82472">
        <ele>191.7</ele>
        <time>2026-05-01T15:44:52.000Z</time>
      </trkpt>
      <trkpt lat="44.81538" lon="0.8247">
        <ele>191.5</ele>
        <time>2026-05-01T15:44:53.000Z</time>
      </trkpt>
      <trkpt lat="44.81538" lon="0.82468">
        <ele>191.6</ele>
        <time>2026-05-01T15:44:54.000Z</time>
      </trkpt>
      <trkpt lat="44.81539" lon="0.82466">
        <ele>191.3</ele>
        <time>2026-05-01T15:44:55.000Z</time>
      </trkpt>
      <trkpt lat="44.8154" lon="0.82465">
        <ele>191</ele>
        <time>2026-05-01T15:44:56.000Z</time>
      </trkpt>
      <trkpt lat="44.81541" lon="0.82463">
        <ele>190.8</ele>
        <time>2026-05-01T15:44:57.000Z</time>
      </trkpt>
      <trkpt lat="44.81541" lon="0.82461">
        <ele>190.6</ele>
        <time>2026-05-01T15:44:58.000Z</time>
      </trkpt>
      <trkpt lat="44.81542" lon="0.82459">
        <ele>190.4</ele>
        <time>2026-05-01T15:44:59.000Z</time>
      </trkpt>
      <trkpt lat="44.81542" lon="0.82457">
        <ele>190.1</ele>
        <time>2026-05-01T15:45:00.000Z</time>
      </trkpt>
      <trkpt lat="44.81542" lon="0.82455">
        <ele>189.8</ele>
        <time>2026-05-01T15:45:01.000Z</time>
      </trkpt>
      <trkpt lat="44.81543" lon="0.82453">
        <ele>189.7</ele>
        <time>2026-05-01T15:45:02.000Z</time>
      </trkpt>
      <trkpt lat="44.81543" lon="0.82451">
        <ele>189.6</ele>
        <time>2026-05-01T15:45:03.000Z</time>
      </trkpt>
      <trkpt lat="44.81544" lon="0.82449">
        <ele>189.8</ele>
        <time>2026-05-01T15:45:04.000Z</time>
      </trkpt>
      <trkpt lat="44.81544" lon="0.82447">
        <ele>190</ele>
        <time>2026-05-01T15:45:05.000Z</time>
      </trkpt>
      <trkpt lat="44.81544" lon="0.82445">
        <ele>189.9</ele>
        <time>2026-05-01T15:45:06.000Z</time>
      </trkpt>
      <trkpt lat="44.81545" lon="0.82443">
        <ele>189.9</ele>
        <time>2026-05-01T15:45:07.000Z</time>
      </trkpt>
      <trkpt lat="44.81545" lon="0.82441">
        <ele>189.8</ele>
        <time>2026-05-01T15:45:08.000Z</time>
      </trkpt>
      <trkpt lat="44.81545" lon="0.82439">
        <ele>189.6</ele>
        <time>2026-05-01T15:45:09.000Z</time>
      </trkpt>
      <trkpt lat="44.81546" lon="0.82437">
        <ele>189.4</ele>
        <time>2026-05-01T15:45:10.000Z</time>
      </trkpt>
      <trkpt lat="44.81547" lon="0.82435">
        <ele>189.3</ele>
        <time>2026-05-01T15:45:11.000Z</time>
      </trkpt>
      <trkpt lat="44.81547" lon="0.82433">
        <ele>189.2</ele>
        <time>2026-05-01T15:45:12.000Z</time>
      </trkpt>
      <trkpt lat="44.81547" lon="0.82431">
        <ele>189</ele>
        <time>2026-05-01T15:45:13.000Z</time>
      </trkpt>
      <trkpt lat="44.81548" lon="0.82429">
        <ele>188.7</ele>
        <time>2026-05-01T15:45:14.000Z</time>
      </trkpt>
      <trkpt lat="44.81548" lon="0.82427">
        <ele>188.4</ele>
        <time>2026-05-01T15:45:15.000Z</time>
      </trkpt>
      <trkpt lat="44.81548" lon="0.82425">
        <ele>188.4</ele>
        <time>2026-05-01T15:45:16.000Z</time>
      </trkpt>
      <trkpt lat="44.81549" lon="0.82422">
        <ele>188.4</ele>
        <time>2026-05-01T15:45:17.000Z</time>
      </trkpt>
      <trkpt lat="44.81549" lon="0.8242">
        <ele>188.2</ele>
        <time>2026-05-01T15:45:18.000Z</time>
      </trkpt>
      <trkpt lat="44.81549" lon="0.82418">
        <ele>188.1</ele>
        <time>2026-05-01T15:45:19.000Z</time>
      </trkpt>
      <trkpt lat="44.81549" lon="0.82416">
        <ele>188.2</ele>
        <time>2026-05-01T15:45:20.000Z</time>
      </trkpt>
      <trkpt lat="44.8155" lon="0.82414">
        <ele>188.2</ele>
        <time>2026-05-01T15:45:21.000Z</time>
      </trkpt>
      <trkpt lat="44.8155" lon="0.82411">
        <ele>188</ele>
        <time>2026-05-01T15:45:22.000Z</time>
      </trkpt>
      <trkpt lat="44.8155" lon="0.82409">
        <ele>188</ele>
        <time>2026-05-01T15:45:23.000Z</time>
      </trkpt>
      <trkpt lat="44.81551" lon="0.82407">
        <ele>187.9</ele>
        <time>2026-05-01T15:45:24.000Z</time>
      </trkpt>
      <trkpt lat="44.81551" lon="0.82405">
        <ele>188</ele>
        <time>2026-05-01T15:45:25.000Z</time>
      </trkpt>
      <trkpt lat="44.81552" lon="0.82403">
        <ele>187.8</ele>
        <time>2026-05-01T15:45:26.000Z</time>
      </trkpt>
      <trkpt lat="44.81552" lon="0.82401">
        <ele>187.8</ele>
        <time>2026-05-01T15:45:27.000Z</time>
      </trkpt>
      <trkpt lat="44.81553" lon="0.82399">
        <ele>187.8</ele>
        <time>2026-05-01T15:45:28.000Z</time>
      </trkpt>
      <trkpt lat="44.81554" lon="0.82397">
        <ele>187.8</ele>
        <time>2026-05-01T15:45:29.000Z</time>
      </trkpt>
      <trkpt lat="44.81554" lon="0.82395">
        <ele>187.7</ele>
        <time>2026-05-01T15:45:30.000Z</time>
      </trkpt>
      <trkpt lat="44.81555" lon="0.82392">
        <ele>187.8</ele>
        <time>2026-05-01T15:45:31.000Z</time>
      </trkpt>
      <trkpt lat="44.81555" lon="0.8239">
        <ele>187.8</ele>
        <time>2026-05-01T15:45:32.000Z</time>
      </trkpt>
      <trkpt lat="44.81556" lon="0.82388">
        <ele>188.1</ele>
        <time>2026-05-01T15:45:33.000Z</time>
      </trkpt>
      <trkpt lat="44.81556" lon="0.82386">
        <ele>188</ele>
        <time>2026-05-01T15:45:34.000Z</time>
      </trkpt>
      <trkpt lat="44.81557" lon="0.82384">
        <ele>188</ele>
        <time>2026-05-01T15:45:35.000Z</time>
      </trkpt>
      <trkpt lat="44.81557" lon="0.82381">
        <ele>188.1</ele>
        <time>2026-05-01T15:45:36.000Z</time>
      </trkpt>
      <trkpt lat="44.81558" lon="0.82379">
        <ele>188.1</ele>
        <time>2026-05-01T15:45:37.000Z</time>
      </trkpt>
      <trkpt lat="44.81558" lon="0.82377">
        <ele>188.5</ele>
        <time>2026-05-01T15:45:38.000Z</time>
      </trkpt>
      <trkpt lat="44.81559" lon="0.82374">
        <ele>188.5</ele>
        <time>2026-05-01T15:45:39.000Z</time>
      </trkpt>
      <trkpt lat="44.81559" lon="0.82372">
        <ele>188.5</ele>
        <time>2026-05-01T15:45:40.000Z</time>
      </trkpt>
      <trkpt lat="44.8156" lon="0.8237">
        <ele>188.7</ele>
        <time>2026-05-01T15:45:41.000Z</time>
      </trkpt>
      <trkpt lat="44.8156" lon="0.82368">
        <ele>188.6</ele>
        <time>2026-05-01T15:45:42.000Z</time>
      </trkpt>
      <trkpt lat="44.81561" lon="0.82366">
        <ele>188.8</ele>
        <time>2026-05-01T15:45:43.000Z</time>
      </trkpt>
      <trkpt lat="44.81561" lon="0.82364">
        <ele>188.7</ele>
        <time>2026-05-01T15:45:44.000Z</time>
      </trkpt>
      <trkpt lat="44.81562" lon="0.82362">
        <ele>188.6</ele>
        <time>2026-05-01T15:45:45.000Z</time>
      </trkpt>
      <trkpt lat="44.81562" lon="0.82359">
        <ele>188.5</ele>
        <time>2026-05-01T15:45:46.000Z</time>
      </trkpt>
      <trkpt lat="44.81562" lon="0.82357">
        <ele>188.6</ele>
        <time>2026-05-01T15:45:47.000Z</time>
      </trkpt>
      <trkpt lat="44.81562" lon="0.82355">
        <ele>188.7</ele>
        <time>2026-05-01T15:45:48.000Z</time>
      </trkpt>
      <trkpt lat="44.81563" lon="0.82353">
        <ele>188.6</ele>
        <time>2026-05-01T15:45:49.000Z</time>
      </trkpt>
      <trkpt lat="44.81563" lon="0.82351">
        <ele>188.4</ele>
        <time>2026-05-01T15:45:50.000Z</time>
      </trkpt>
      <trkpt lat="44.81563" lon="0.82349">
        <ele>188.3</ele>
        <time>2026-05-01T15:45:51.000Z</time>
      </trkpt>
      <trkpt lat="44.81564" lon="0.82347">
        <ele>188.3</ele>
        <time>2026-05-01T15:45:52.000Z</time>
      </trkpt>
      <trkpt lat="44.81564" lon="0.82344">
        <ele>188.5</ele>
        <time>2026-05-01T15:45:53.000Z</time>
      </trkpt>
      <trkpt lat="44.81564" lon="0.82342">
        <ele>188.8</ele>
        <time>2026-05-01T15:45:54.000Z</time>
      </trkpt>
      <trkpt lat="44.81564" lon="0.8234">
        <ele>188.6</ele>
        <time>2026-05-01T15:45:55.000Z</time>
      </trkpt>
      <trkpt lat="44.81564" lon="0.82337">
        <ele>188.6</ele>
        <time>2026-05-01T15:45:56.000Z</time>
      </trkpt>
      <trkpt lat="44.81564" lon="0.82335">
        <ele>188.8</ele>
        <time>2026-05-01T15:45:57.000Z</time>
      </trkpt>
      <trkpt lat="44.81565" lon="0.82333">
        <ele>188.9</ele>
        <time>2026-05-01T15:45:58.000Z</time>
      </trkpt>
      <trkpt lat="44.81565" lon="0.82331">
        <ele>188.8</ele>
        <time>2026-05-01T15:45:59.000Z</time>
      </trkpt>
      <trkpt lat="44.81565" lon="0.82328">
        <ele>188.6</ele>
        <time>2026-05-01T15:46:00.000Z</time>
      </trkpt>
      <trkpt lat="44.81565" lon="0.82326">
        <ele>188.3</ele>
        <time>2026-05-01T15:46:01.000Z</time>
      </trkpt>
      <trkpt lat="44.81565" lon="0.82324">
        <ele>188.3</ele>
        <time>2026-05-01T15:46:02.000Z</time>
      </trkpt>
      <trkpt lat="44.81565" lon="0.82322">
        <ele>188.3</ele>
        <time>2026-05-01T15:46:03.000Z</time>
      </trkpt>
      <trkpt lat="44.81565" lon="0.82319">
        <ele>188.5</ele>
        <time>2026-05-01T15:46:04.000Z</time>
      </trkpt>
      <trkpt lat="44.81566" lon="0.82317">
        <ele>188.4</ele>
        <time>2026-05-01T15:46:05.000Z</time>
      </trkpt>
      <trkpt lat="44.81566" lon="0.82315">
        <ele>188.5</ele>
        <time>2026-05-01T15:46:06.000Z</time>
      </trkpt>
      <trkpt lat="44.81566" lon="0.82312">
        <ele>188.8</ele>
        <time>2026-05-01T15:46:07.000Z</time>
      </trkpt>
      <trkpt lat="44.81566" lon="0.8231">
        <ele>188.8</ele>
        <time>2026-05-01T15:46:08.000Z</time>
      </trkpt>
      <trkpt lat="44.81567" lon="0.82308">
        <ele>188.8</ele>
        <time>2026-05-01T15:46:09.000Z</time>
      </trkpt>
      <trkpt lat="44.81567" lon="0.82305">
        <ele>189.1</ele>
        <time>2026-05-01T15:46:10.000Z</time>
      </trkpt>
      <trkpt lat="44.81567" lon="0.82303">
        <ele>189.3</ele>
        <time>2026-05-01T15:46:11.000Z</time>
      </trkpt>
      <trkpt lat="44.81568" lon="0.823">
        <ele>189.8</ele>
        <time>2026-05-01T15:46:12.000Z</time>
      </trkpt>
      <trkpt lat="44.81568" lon="0.82298">
        <ele>189.9</ele>
        <time>2026-05-01T15:46:13.000Z</time>
      </trkpt>
      <trkpt lat="44.81568" lon="0.82296">
        <ele>190</ele>
        <time>2026-05-01T15:46:14.000Z</time>
      </trkpt>
      <trkpt lat="44.81569" lon="0.82294">
        <ele>190.2</ele>
        <time>2026-05-01T15:46:15.000Z</time>
      </trkpt>
      <trkpt lat="44.8157" lon="0.82292">
        <ele>190</ele>
        <time>2026-05-01T15:46:16.000Z</time>
      </trkpt>
      <trkpt lat="44.81571" lon="0.8229">
        <ele>190.2</ele>
        <time>2026-05-01T15:46:17.000Z</time>
      </trkpt>
      <trkpt lat="44.81571" lon="0.82287">
        <ele>190.1</ele>
        <time>2026-05-01T15:46:18.000Z</time>
      </trkpt>
      <trkpt lat="44.81572" lon="0.82285">
        <ele>190.1</ele>
        <time>2026-05-01T15:46:19.000Z</time>
      </trkpt>
      <trkpt lat="44.81573" lon="0.82283">
        <ele>189.9</ele>
        <time>2026-05-01T15:46:20.000Z</time>
      </trkpt>
      <trkpt lat="44.81574" lon="0.82281">
        <ele>189.9</ele>
        <time>2026-05-01T15:46:21.000Z</time>
      </trkpt>
      <trkpt lat="44.81575" lon="0.82279">
        <ele>190</ele>
        <time>2026-05-01T15:46:22.000Z</time>
      </trkpt>
      <trkpt lat="44.81575" lon="0.82277">
        <ele>189.9</ele>
        <time>2026-05-01T15:46:23.000Z</time>
      </trkpt>
      <trkpt lat="44.81576" lon="0.82275">
        <ele>190</ele>
        <time>2026-05-01T15:46:24.000Z</time>
      </trkpt>
      <trkpt lat="44.81577" lon="0.82273">
        <ele>190.3</ele>
        <time>2026-05-01T15:46:25.000Z</time>
      </trkpt>
      <trkpt lat="44.81578" lon="0.82271">
        <ele>190.2</ele>
        <time>2026-05-01T15:46:26.000Z</time>
      </trkpt>
      <trkpt lat="44.81579" lon="0.82268">
        <ele>190.2</ele>
        <time>2026-05-01T15:46:27.000Z</time>
      </trkpt>
      <trkpt lat="44.8158" lon="0.82266">
        <ele>190.3</ele>
        <time>2026-05-01T15:46:28.000Z</time>
      </trkpt>
      <trkpt lat="44.81581" lon="0.82264">
        <ele>190.5</ele>
        <time>2026-05-01T15:46:29.000Z</time>
      </trkpt>
      <trkpt lat="44.81582" lon="0.82262">
        <ele>190.7</ele>
        <time>2026-05-01T15:46:30.000Z</time>
      </trkpt>
      <trkpt lat="44.81583" lon="0.8226">
        <ele>191.1</ele>
        <time>2026-05-01T15:46:31.000Z</time>
      </trkpt>
      <trkpt lat="44.81584" lon="0.82258">
        <ele>191.1</ele>
        <time>2026-05-01T15:46:32.000Z</time>
      </trkpt>
      <trkpt lat="44.81584" lon="0.82256">
        <ele>191.3</ele>
        <time>2026-05-01T15:46:33.000Z</time>
      </trkpt>
      <trkpt lat="44.81585" lon="0.82254">
        <ele>191.4</ele>
        <time>2026-05-01T15:46:34.000Z</time>
      </trkpt>
      <trkpt lat="44.81586" lon="0.82252">
        <ele>191.4</ele>
        <time>2026-05-01T15:46:35.000Z</time>
      </trkpt>
      <trkpt lat="44.81587" lon="0.8225">
        <ele>191.3</ele>
        <time>2026-05-01T15:46:36.000Z</time>
      </trkpt>
      <trkpt lat="44.81588" lon="0.82248">
        <ele>191.6</ele>
        <time>2026-05-01T15:46:37.000Z</time>
      </trkpt>
      <trkpt lat="44.81589" lon="0.82246">
        <ele>191.6</ele>
        <time>2026-05-01T15:46:38.000Z</time>
      </trkpt>
      <trkpt lat="44.81589" lon="0.82244">
        <ele>191.7</ele>
        <time>2026-05-01T15:46:39.000Z</time>
      </trkpt>
      <trkpt lat="44.8159" lon="0.82242">
        <ele>191.6</ele>
        <time>2026-05-01T15:46:40.000Z</time>
      </trkpt>
      <trkpt lat="44.81591" lon="0.8224">
        <ele>191.6</ele>
        <time>2026-05-01T15:46:41.000Z</time>
      </trkpt>
      <trkpt lat="44.81592" lon="0.82238">
        <ele>191.5</ele>
        <time>2026-05-01T15:46:42.000Z</time>
      </trkpt>
      <trkpt lat="44.81593" lon="0.82236">
        <ele>191.2</ele>
        <time>2026-05-01T15:46:43.000Z</time>
      </trkpt>
      <trkpt lat="44.81594" lon="0.82234">
        <ele>190.9</ele>
        <time>2026-05-01T15:46:44.000Z</time>
      </trkpt>
      <trkpt lat="44.81595" lon="0.82232">
        <ele>190.6</ele>
        <time>2026-05-01T15:46:45.000Z</time>
      </trkpt>
      <trkpt lat="44.81596" lon="0.8223">
        <ele>190.6</ele>
        <time>2026-05-01T15:46:46.000Z</time>
      </trkpt>
      <trkpt lat="44.81597" lon="0.82228">
        <ele>190.6</ele>
        <time>2026-05-01T15:46:47.000Z</time>
      </trkpt>
      <trkpt lat="44.81598" lon="0.82226">
        <ele>190.5</ele>
        <time>2026-05-01T15:46:48.000Z</time>
      </trkpt>
      <trkpt lat="44.81599" lon="0.82223">
        <ele>190.7</ele>
        <time>2026-05-01T15:46:49.000Z</time>
      </trkpt>
      <trkpt lat="44.81601" lon="0.82221">
        <ele>190.8</ele>
        <time>2026-05-01T15:46:50.000Z</time>
      </trkpt>
      <trkpt lat="44.81602" lon="0.82219">
        <ele>190.8</ele>
        <time>2026-05-01T15:46:51.000Z</time>
      </trkpt>
      <trkpt lat="44.81604" lon="0.82217">
        <ele>191.2</ele>
        <time>2026-05-01T15:46:52.000Z</time>
      </trkpt>
      <trkpt lat="44.81605" lon="0.82216">
        <ele>191.2</ele>
        <time>2026-05-01T15:46:53.000Z</time>
      </trkpt>
      <trkpt lat="44.81607" lon="0.82214">
        <ele>191.3</ele>
        <time>2026-05-01T15:46:54.000Z</time>
      </trkpt>
      <trkpt lat="44.81608" lon="0.82213">
        <ele>191.4</ele>
        <time>2026-05-01T15:46:55.000Z</time>
      </trkpt>
      <trkpt lat="44.8161" lon="0.82212">
        <ele>191.4</ele>
        <time>2026-05-01T15:46:56.000Z</time>
      </trkpt>
      <trkpt lat="44.81612" lon="0.82211">
        <ele>191.5</ele>
        <time>2026-05-01T15:46:57.000Z</time>
      </trkpt>
      <trkpt lat="44.81613" lon="0.8221">
        <ele>191.6</ele>
        <time>2026-05-01T15:46:58.000Z</time>
      </trkpt>
      <trkpt lat="44.81615" lon="0.8221">
        <ele>191.5</ele>
        <time>2026-05-01T15:46:59.000Z</time>
      </trkpt>
      <trkpt lat="44.81617" lon="0.8221">
        <ele>191.7</ele>
        <time>2026-05-01T15:47:00.000Z</time>
      </trkpt>
      <trkpt lat="44.81619" lon="0.82209">
        <ele>191.8</ele>
        <time>2026-05-01T15:47:01.000Z</time>
      </trkpt>
      <trkpt lat="44.81621" lon="0.82209">
        <ele>192</ele>
        <time>2026-05-01T15:47:02.000Z</time>
      </trkpt>
      <trkpt lat="44.81623" lon="0.8221">
        <ele>192.1</ele>
        <time>2026-05-01T15:47:03.000Z</time>
      </trkpt>
      <trkpt lat="44.81625" lon="0.8221">
        <ele>192.3</ele>
        <time>2026-05-01T15:47:04.000Z</time>
      </trkpt>
      <trkpt lat="44.81627" lon="0.82211">
        <ele>192.5</ele>
        <time>2026-05-01T15:47:05.000Z</time>
      </trkpt>
      <trkpt lat="44.8163" lon="0.82212">
        <ele>192.7</ele>
        <time>2026-05-01T15:47:06.000Z</time>
      </trkpt>
      <trkpt lat="44.81632" lon="0.82213">
        <ele>193.3</ele>
        <time>2026-05-01T15:47:07.000Z</time>
      </trkpt>
      <trkpt lat="44.81635" lon="0.82214">
        <ele>193.8</ele>
        <time>2026-05-01T15:47:08.000Z</time>
      </trkpt>
      <trkpt lat="44.81637" lon="0.82215">
        <ele>194.2</ele>
        <time>2026-05-01T15:47:09.000Z</time>
      </trkpt>
      <trkpt lat="44.81639" lon="0.82216">
        <ele>194.5</ele>
        <time>2026-05-01T15:47:10.000Z</time>
      </trkpt>
      <trkpt lat="44.81641" lon="0.82218">
        <ele>195.3</ele>
        <time>2026-05-01T15:47:11.000Z</time>
      </trkpt>
      <trkpt lat="44.81643" lon="0.82219">
        <ele>196.3</ele>
        <time>2026-05-01T15:47:12.000Z</time>
      </trkpt>
      <trkpt lat="44.81645" lon="0.82221">
        <ele>197.1</ele>
        <time>2026-05-01T15:47:13.000Z</time>
      </trkpt>
      <trkpt lat="44.81647" lon="0.82222">
        <ele>197.5</ele>
        <time>2026-05-01T15:47:14.000Z</time>
      </trkpt>
      <trkpt lat="44.81648" lon="0.82223">
        <ele>197.7</ele>
        <time>2026-05-01T15:47:15.000Z</time>
      </trkpt>
      <trkpt lat="44.8165" lon="0.82224">
        <ele>198.1</ele>
        <time>2026-05-01T15:47:16.000Z</time>
      </trkpt>
      <trkpt lat="44.81652" lon="0.82225">
        <ele>198.3</ele>
        <time>2026-05-01T15:47:17.000Z</time>
      </trkpt>
      <trkpt lat="44.81653" lon="0.82226">
        <ele>198.7</ele>
        <time>2026-05-01T15:47:18.000Z</time>
      </trkpt>
      <trkpt lat="44.81655" lon="0.82226">
        <ele>199.2</ele>
        <time>2026-05-01T15:47:19.000Z</time>
      </trkpt>
      <trkpt lat="44.81657" lon="0.82223">
        <ele>201.2</ele>
        <time>2026-05-01T15:47:20.000Z</time>
      </trkpt>
      <trkpt lat="44.81659" lon="0.82224">
        <ele>201.3</ele>
        <time>2026-05-01T15:47:21.000Z</time>
      </trkpt>
      <trkpt lat="44.81662" lon="0.82224">
        <ele>201.9</ele>
        <time>2026-05-01T15:47:22.000Z</time>
      </trkpt>
      <trkpt lat="44.81664" lon="0.82225">
        <ele>201.9</ele>
        <time>2026-05-01T15:47:23.000Z</time>
      </trkpt>
      <trkpt lat="44.81666" lon="0.82225">
        <ele>201.8</ele>
        <time>2026-05-01T15:47:24.000Z</time>
      </trkpt>
      <trkpt lat="44.81668" lon="0.82226">
        <ele>201.5</ele>
        <time>2026-05-01T15:47:25.000Z</time>
      </trkpt>
      <trkpt lat="44.81669" lon="0.82226">
        <ele>201.7</ele>
        <time>2026-05-01T15:47:26.000Z</time>
      </trkpt>
      <trkpt lat="44.81671" lon="0.82227">
        <ele>201.6</ele>
        <time>2026-05-01T15:47:27.000Z</time>
      </trkpt>
      <trkpt lat="44.81672" lon="0.82227">
        <ele>201.5</ele>
        <time>2026-05-01T15:47:28.000Z</time>
      </trkpt>
      <trkpt lat="44.81674" lon="0.82228">
        <ele>201.4</ele>
        <time>2026-05-01T15:47:29.000Z</time>
      </trkpt>
      <trkpt lat="44.81675" lon="0.82229">
        <ele>201.1</ele>
        <time>2026-05-01T15:47:30.000Z</time>
      </trkpt>
      <trkpt lat="44.81676" lon="0.8223">
        <ele>201.1</ele>
        <time>2026-05-01T15:47:31.000Z</time>
      </trkpt>
      <trkpt lat="44.81678" lon="0.8223">
        <ele>201</ele>
        <time>2026-05-01T15:47:32.000Z</time>
      </trkpt>
      <trkpt lat="44.81679" lon="0.82231">
        <ele>200.9</ele>
        <time>2026-05-01T15:47:33.000Z</time>
      </trkpt>
      <trkpt lat="44.8168" lon="0.82232">
        <ele>200.9</ele>
        <time>2026-05-01T15:47:34.000Z</time>
      </trkpt>
      <trkpt lat="44.81682" lon="0.82233">
        <ele>201.1</ele>
        <time>2026-05-01T15:47:35.000Z</time>
      </trkpt>
      <trkpt lat="44.81683" lon="0.82234">
        <ele>200.7</ele>
        <time>2026-05-01T15:47:36.000Z</time>
      </trkpt>
      <trkpt lat="44.81684" lon="0.82235">
        <ele>200.5</ele>
        <time>2026-05-01T15:47:37.000Z</time>
      </trkpt>
      <trkpt lat="44.81685" lon="0.82237">
        <ele>200.2</ele>
        <time>2026-05-01T15:47:38.000Z</time>
      </trkpt>
      <trkpt lat="44.81686" lon="0.82238">
        <ele>200</ele>
        <time>2026-05-01T15:47:39.000Z</time>
      </trkpt>
      <trkpt lat="44.81688" lon="0.8224">
        <ele>199.7</ele>
        <time>2026-05-01T15:47:40.000Z</time>
      </trkpt>
      <trkpt lat="44.81689" lon="0.82241">
        <ele>199.6</ele>
        <time>2026-05-01T15:47:41.000Z</time>
      </trkpt>
      <trkpt lat="44.8169" lon="0.82243">
        <ele>199.4</ele>
        <time>2026-05-01T15:47:42.000Z</time>
      </trkpt>
      <trkpt lat="44.8169" lon="0.82246">
        <ele>199.5</ele>
        <time>2026-05-01T15:47:43.000Z</time>
      </trkpt>
      <trkpt lat="44.81691" lon="0.82248">
        <ele>199.1</ele>
        <time>2026-05-01T15:47:44.000Z</time>
      </trkpt>
      <trkpt lat="44.81693" lon="0.82249">
        <ele>198.9</ele>
        <time>2026-05-01T15:47:45.000Z</time>
      </trkpt>
      <trkpt lat="44.81694" lon="0.82251">
        <ele>198.9</ele>
        <time>2026-05-01T15:47:46.000Z</time>
      </trkpt>
      <trkpt lat="44.81695" lon="0.82253">
        <ele>198.7</ele>
        <time>2026-05-01T15:47:47.000Z</time>
      </trkpt>
      <trkpt lat="44.81696" lon="0.82255">
        <ele>198.6</ele>
        <time>2026-05-01T15:47:48.000Z</time>
      </trkpt>
      <trkpt lat="44.81697" lon="0.82256">
        <ele>198.3</ele>
        <time>2026-05-01T15:47:49.000Z</time>
      </trkpt>
      <trkpt lat="44.81698" lon="0.82258">
        <ele>198.2</ele>
        <time>2026-05-01T15:47:50.000Z</time>
      </trkpt>
      <trkpt lat="44.81699" lon="0.8226">
        <ele>197.9</ele>
        <time>2026-05-01T15:47:51.000Z</time>
      </trkpt>
      <trkpt lat="44.81699" lon="0.82262">
        <ele>197.9</ele>
        <time>2026-05-01T15:47:52.000Z</time>
      </trkpt>
      <trkpt lat="44.817" lon="0.82264">
        <ele>197.8</ele>
        <time>2026-05-01T15:47:53.000Z</time>
      </trkpt>
      <trkpt lat="44.81701" lon="0.82266">
        <ele>197.5</ele>
        <time>2026-05-01T15:47:54.000Z</time>
      </trkpt>
      <trkpt lat="44.81701" lon="0.82268">
        <ele>197.5</ele>
        <time>2026-05-01T15:47:55.000Z</time>
      </trkpt>
      <trkpt lat="44.81702" lon="0.8227">
        <ele>197.5</ele>
        <time>2026-05-01T15:47:56.000Z</time>
      </trkpt>
      <trkpt lat="44.81703" lon="0.82272">
        <ele>197.4</ele>
        <time>2026-05-01T15:47:57.000Z</time>
      </trkpt>
      <trkpt lat="44.81704" lon="0.82274">
        <ele>197.6</ele>
        <time>2026-05-01T15:47:58.000Z</time>
      </trkpt>
      <trkpt lat="44.81704" lon="0.82276">
        <ele>197.6</ele>
        <time>2026-05-01T15:47:59.000Z</time>
      </trkpt>
      <trkpt lat="44.81705" lon="0.82277">
        <ele>197.6</ele>
        <time>2026-05-01T15:48:00.000Z</time>
      </trkpt>
      <trkpt lat="44.81706" lon="0.82279">
        <ele>197.6</ele>
        <time>2026-05-01T15:48:01.000Z</time>
      </trkpt>
      <trkpt lat="44.81706" lon="0.82281">
        <ele>197.8</ele>
        <time>2026-05-01T15:48:02.000Z</time>
      </trkpt>
      <trkpt lat="44.81706" lon="0.82283">
        <ele>197.7</ele>
        <time>2026-05-01T15:48:03.000Z</time>
      </trkpt>
      <trkpt lat="44.81707" lon="0.82285">
        <ele>197.6</ele>
        <time>2026-05-01T15:48:04.000Z</time>
      </trkpt>
      <trkpt lat="44.81707" lon="0.82287">
        <ele>197.5</ele>
        <time>2026-05-01T15:48:05.000Z</time>
      </trkpt>
      <trkpt lat="44.81708" lon="0.82289">
        <ele>197.5</ele>
        <time>2026-05-01T15:48:06.000Z</time>
      </trkpt>
      <trkpt lat="44.81708" lon="0.82291">
        <ele>197.6</ele>
        <time>2026-05-01T15:48:07.000Z</time>
      </trkpt>
      <trkpt lat="44.81709" lon="0.82294">
        <ele>197.7</ele>
        <time>2026-05-01T15:48:08.000Z</time>
      </trkpt>
      <trkpt lat="44.8171" lon="0.82296">
        <ele>198</ele>
        <time>2026-05-01T15:48:09.000Z</time>
      </trkpt>
      <trkpt lat="44.8171" lon="0.82298">
        <ele>198</ele>
        <time>2026-05-01T15:48:10.000Z</time>
      </trkpt>
      <trkpt lat="44.81711" lon="0.823">
        <ele>197.8</ele>
        <time>2026-05-01T15:48:11.000Z</time>
      </trkpt>
      <trkpt lat="44.81712" lon="0.82302">
        <ele>198</ele>
        <time>2026-05-01T15:48:12.000Z</time>
      </trkpt>
      <trkpt lat="44.81713" lon="0.82304">
        <ele>197.9</ele>
        <time>2026-05-01T15:48:13.000Z</time>
      </trkpt>
      <trkpt lat="44.81714" lon="0.82305">
        <ele>197.5</ele>
        <time>2026-05-01T15:48:14.000Z</time>
      </trkpt>
      <trkpt lat="44.81716" lon="0.82306">
        <ele>197.9</ele>
        <time>2026-05-01T15:48:15.000Z</time>
      </trkpt>
      <trkpt lat="44.81718" lon="0.82307">
        <ele>198.5</ele>
        <time>2026-05-01T15:48:16.000Z</time>
      </trkpt>
      <trkpt lat="44.8172" lon="0.82306">
        <ele>199</ele>
        <time>2026-05-01T15:48:17.000Z</time>
      </trkpt>
      <trkpt lat="44.81722" lon="0.82305">
        <ele>199.4</ele>
        <time>2026-05-01T15:48:18.000Z</time>
      </trkpt>
      <trkpt lat="44.81723" lon="0.82304">
        <ele>199.6</ele>
        <time>2026-05-01T15:48:19.000Z</time>
      </trkpt>
      <trkpt lat="44.81725" lon="0.82303">
        <ele>199.8</ele>
        <time>2026-05-01T15:48:20.000Z</time>
      </trkpt>
      <trkpt lat="44.81726" lon="0.82302">
        <ele>200.3</ele>
        <time>2026-05-01T15:48:21.000Z</time>
      </trkpt>
      <trkpt lat="44.81728" lon="0.82301">
        <ele>200.4</ele>
        <time>2026-05-01T15:48:22.000Z</time>
      </trkpt>
      <trkpt lat="44.81729" lon="0.823">
        <ele>200.8</ele>
        <time>2026-05-01T15:48:23.000Z</time>
      </trkpt>
      <trkpt lat="44.81731" lon="0.82299">
        <ele>201</ele>
        <time>2026-05-01T15:48:24.000Z</time>
      </trkpt>
      <trkpt lat="44.81732" lon="0.82297">
        <ele>201.4</ele>
        <time>2026-05-01T15:48:25.000Z</time>
      </trkpt>
      <trkpt lat="44.81734" lon="0.82296">
        <ele>201.6</ele>
        <time>2026-05-01T15:48:26.000Z</time>
      </trkpt>
      <trkpt lat="44.81735" lon="0.82295">
        <ele>202</ele>
        <time>2026-05-01T15:48:27.000Z</time>
      </trkpt>
      <trkpt lat="44.81736" lon="0.82294">
        <ele>202.4</ele>
        <time>2026-05-01T15:48:28.000Z</time>
      </trkpt>
      <trkpt lat="44.81738" lon="0.82292">
        <ele>202.6</ele>
        <time>2026-05-01T15:48:29.000Z</time>
      </trkpt>
      <trkpt lat="44.81739" lon="0.82291">
        <ele>202.8</ele>
        <time>2026-05-01T15:48:30.000Z</time>
      </trkpt>
      <trkpt lat="44.81741" lon="0.8229">
        <ele>202.9</ele>
        <time>2026-05-01T15:48:31.000Z</time>
      </trkpt>
      <trkpt lat="44.81742" lon="0.82289">
        <ele>202.9</ele>
        <time>2026-05-01T15:48:32.000Z</time>
      </trkpt>
      <trkpt lat="44.81743" lon="0.82288">
        <ele>203</ele>
        <time>2026-05-01T15:48:33.000Z</time>
      </trkpt>
      <trkpt lat="44.81745" lon="0.82287">
        <ele>203.1</ele>
        <time>2026-05-01T15:48:34.000Z</time>
      </trkpt>
      <trkpt lat="44.81746" lon="0.82285">
        <ele>203.2</ele>
        <time>2026-05-01T15:48:35.000Z</time>
      </trkpt>
      <trkpt lat="44.81748" lon="0.82285">
        <ele>203.2</ele>
        <time>2026-05-01T15:48:36.000Z</time>
      </trkpt>
      <trkpt lat="44.81749" lon="0.82284">
        <ele>203.3</ele>
        <time>2026-05-01T15:48:37.000Z</time>
      </trkpt>
      <trkpt lat="44.81751" lon="0.82283">
        <ele>203.2</ele>
        <time>2026-05-01T15:48:38.000Z</time>
      </trkpt>
      <trkpt lat="44.81752" lon="0.82283">
        <ele>203.4</ele>
        <time>2026-05-01T15:48:39.000Z</time>
      </trkpt>
      <trkpt lat="44.81754" lon="0.82283">
        <ele>203.8</ele>
        <time>2026-05-01T15:48:40.000Z</time>
      </trkpt>
      <trkpt lat="44.81755" lon="0.82283">
        <ele>204.2</ele>
        <time>2026-05-01T15:48:41.000Z</time>
      </trkpt>
      <trkpt lat="44.81757" lon="0.82284">
        <ele>204.3</ele>
        <time>2026-05-01T15:48:42.000Z</time>
      </trkpt>
      <trkpt lat="44.81758" lon="0.82284">
        <ele>204.4</ele>
        <time>2026-05-01T15:48:43.000Z</time>
      </trkpt>
      <trkpt lat="44.8176" lon="0.82285">
        <ele>204.3</ele>
        <time>2026-05-01T15:48:44.000Z</time>
      </trkpt>
      <trkpt lat="44.81761" lon="0.82286">
        <ele>204.4</ele>
        <time>2026-05-01T15:48:45.000Z</time>
      </trkpt>
      <trkpt lat="44.81763" lon="0.82287">
        <ele>204.5</ele>
        <time>2026-05-01T15:48:46.000Z</time>
      </trkpt>
      <trkpt lat="44.81764" lon="0.82289">
        <ele>204.6</ele>
        <time>2026-05-01T15:48:47.000Z</time>
      </trkpt>
      <trkpt lat="44.81765" lon="0.8229">
        <ele>204.7</ele>
        <time>2026-05-01T15:48:48.000Z</time>
      </trkpt>
      <trkpt lat="44.81766" lon="0.82291">
        <ele>204.8</ele>
        <time>2026-05-01T15:48:49.000Z</time>
      </trkpt>
      <trkpt lat="44.81767" lon="0.82292">
        <ele>204.6</ele>
        <time>2026-05-01T15:48:50.000Z</time>
      </trkpt>
      <trkpt lat="44.81769" lon="0.82293">
        <ele>204.6</ele>
        <time>2026-05-01T15:48:51.000Z</time>
      </trkpt>
      <trkpt lat="44.8177" lon="0.82294">
        <ele>204.4</ele>
        <time>2026-05-01T15:48:52.000Z</time>
      </trkpt>
      <trkpt lat="44.81772" lon="0.82294">
        <ele>204.4</ele>
        <time>2026-05-01T15:48:53.000Z</time>
      </trkpt>
      <trkpt lat="44.81773" lon="0.82295">
        <ele>204.2</ele>
        <time>2026-05-01T15:48:54.000Z</time>
      </trkpt>
      <trkpt lat="44.81775" lon="0.82294">
        <ele>204.2</ele>
        <time>2026-05-01T15:48:55.000Z</time>
      </trkpt>
      <trkpt lat="44.81776" lon="0.82294">
        <ele>203.9</ele>
        <time>2026-05-01T15:48:56.000Z</time>
      </trkpt>
      <trkpt lat="44.81777" lon="0.82294">
        <ele>203.8</ele>
        <time>2026-05-01T15:48:57.000Z</time>
      </trkpt>
      <trkpt lat="44.81779" lon="0.82294">
        <ele>203.3</ele>
        <time>2026-05-01T15:48:58.000Z</time>
      </trkpt>
      <trkpt lat="44.81781" lon="0.82294">
        <ele>203.4</ele>
        <time>2026-05-01T15:48:59.000Z</time>
      </trkpt>
      <trkpt lat="44.81782" lon="0.82293">
        <ele>203.3</ele>
        <time>2026-05-01T15:49:00.000Z</time>
      </trkpt>
      <trkpt lat="44.81783" lon="0.82292">
        <ele>203.6</ele>
        <time>2026-05-01T15:49:01.000Z</time>
      </trkpt>
      <trkpt lat="44.81785" lon="0.82292">
        <ele>203.6</ele>
        <time>2026-05-01T15:49:02.000Z</time>
      </trkpt>
      <trkpt lat="44.81787" lon="0.82291">
        <ele>203.3</ele>
        <time>2026-05-01T15:49:03.000Z</time>
      </trkpt>
      <trkpt lat="44.81788" lon="0.8229">
        <ele>203.6</ele>
        <time>2026-05-01T15:49:04.000Z</time>
      </trkpt>
      <trkpt lat="44.8179" lon="0.82289">
        <ele>203.9</ele>
        <time>2026-05-01T15:49:05.000Z</time>
      </trkpt>
      <trkpt lat="44.81791" lon="0.82289">
        <ele>203.7</ele>
        <time>2026-05-01T15:49:06.000Z</time>
      </trkpt>
      <trkpt lat="44.81793" lon="0.82287">
        <ele>204</ele>
        <time>2026-05-01T15:49:07.000Z</time>
      </trkpt>
      <trkpt lat="44.81794" lon="0.82286">
        <ele>204.3</ele>
        <time>2026-05-01T15:49:08.000Z</time>
      </trkpt>
      <trkpt lat="44.81795" lon="0.82285">
        <ele>204.4</ele>
        <time>2026-05-01T15:49:09.000Z</time>
      </trkpt>
      <trkpt lat="44.81796" lon="0.82283">
        <ele>204.7</ele>
        <time>2026-05-01T15:49:10.000Z</time>
      </trkpt>
      <trkpt lat="44.81797" lon="0.82281">
        <ele>205.1</ele>
        <time>2026-05-01T15:49:11.000Z</time>
      </trkpt>
      <trkpt lat="44.81797" lon="0.82279">
        <ele>205.4</ele>
        <time>2026-05-01T15:49:12.000Z</time>
      </trkpt>
      <trkpt lat="44.81797" lon="0.82277">
        <ele>205.4</ele>
        <time>2026-05-01T15:49:13.000Z</time>
      </trkpt>
      <trkpt lat="44.81798" lon="0.82275">
        <ele>205.6</ele>
        <time>2026-05-01T15:49:14.000Z</time>
      </trkpt>
      <trkpt lat="44.81798" lon="0.82273">
        <ele>205.6</ele>
        <time>2026-05-01T15:49:15.000Z</time>
      </trkpt>
      <trkpt lat="44.81798" lon="0.8227">
        <ele>205.6</ele>
        <time>2026-05-01T15:49:16.000Z</time>
      </trkpt>
      <trkpt lat="44.81798" lon="0.82268">
        <ele>205.7</ele>
        <time>2026-05-01T15:49:17.000Z</time>
      </trkpt>
      <trkpt lat="44.81798" lon="0.82266">
        <ele>205.8</ele>
        <time>2026-05-01T15:49:18.000Z</time>
      </trkpt>
      <trkpt lat="44.81798" lon="0.82264">
        <ele>206</ele>
        <time>2026-05-01T15:49:19.000Z</time>
      </trkpt>
      <trkpt lat="44.81798" lon="0.82262">
        <ele>206.1</ele>
        <time>2026-05-01T15:49:20.000Z</time>
      </trkpt>
      <trkpt lat="44.81797" lon="0.8226">
        <ele>205.9</ele>
        <time>2026-05-01T15:49:21.000Z</time>
      </trkpt>
      <trkpt lat="44.81796" lon="0.82257">
        <ele>206.6</ele>
        <time>2026-05-01T15:49:22.000Z</time>
      </trkpt>
      <trkpt lat="44.81796" lon="0.82256">
        <ele>206.6</ele>
        <time>2026-05-01T15:49:23.000Z</time>
      </trkpt>
      <trkpt lat="44.81793" lon="0.82256">
        <ele>206.4</ele>
        <time>2026-05-01T15:49:24.000Z</time>
      </trkpt>
      <trkpt lat="44.81793" lon="0.82256">
        <ele>206.8</ele>
        <time>2026-05-01T15:49:25.000Z</time>
      </trkpt>
      <trkpt lat="44.81791" lon="0.82255">
        <ele>206.8</ele>
        <time>2026-05-01T15:49:26.000Z</time>
      </trkpt>
      <trkpt lat="44.8179" lon="0.82253">
        <ele>206.6</ele>
        <time>2026-05-01T15:49:27.000Z</time>
      </trkpt>
      <trkpt lat="44.8179" lon="0.82251">
        <ele>206.8</ele>
        <time>2026-05-01T15:49:28.000Z</time>
      </trkpt>
      <trkpt lat="44.8179" lon="0.82248">
        <ele>207.2</ele>
        <time>2026-05-01T15:49:29.000Z</time>
      </trkpt>
      <trkpt lat="44.8179" lon="0.82246">
        <ele>207.5</ele>
        <time>2026-05-01T15:49:30.000Z</time>
      </trkpt>
      <trkpt lat="44.81789" lon="0.82243">
        <ele>207.8</ele>
        <time>2026-05-01T15:49:31.000Z</time>
      </trkpt>
      <trkpt lat="44.81789" lon="0.82241">
        <ele>208.3</ele>
        <time>2026-05-01T15:49:32.000Z</time>
      </trkpt>
      <trkpt lat="44.81789" lon="0.82239">
        <ele>208.5</ele>
        <time>2026-05-01T15:49:33.000Z</time>
      </trkpt>
      <trkpt lat="44.81788" lon="0.82237">
        <ele>208.6</ele>
        <time>2026-05-01T15:49:34.000Z</time>
      </trkpt>
      <trkpt lat="44.81788" lon="0.82235">
        <ele>208.7</ele>
        <time>2026-05-01T15:49:35.000Z</time>
      </trkpt>
      <trkpt lat="44.81788" lon="0.82233">
        <ele>208.3</ele>
        <time>2026-05-01T15:49:36.000Z</time>
      </trkpt>
      <trkpt lat="44.81788" lon="0.82232">
        <ele>208.1</ele>
        <time>2026-05-01T15:49:37.000Z</time>
      </trkpt>
      <trkpt lat="44.81789" lon="0.8223">
        <ele>208.1</ele>
        <time>2026-05-01T15:49:38.000Z</time>
      </trkpt>
      <trkpt lat="44.81789" lon="0.82228">
        <ele>208</ele>
        <time>2026-05-01T15:49:39.000Z</time>
      </trkpt>
      <trkpt lat="44.8179" lon="0.82226">
        <ele>207.8</ele>
        <time>2026-05-01T15:49:40.000Z</time>
      </trkpt>
      <trkpt lat="44.81791" lon="0.82224">
        <ele>207.7</ele>
        <time>2026-05-01T15:49:41.000Z</time>
      </trkpt>
      <trkpt lat="44.81792" lon="0.82222">
        <ele>207.4</ele>
        <time>2026-05-01T15:49:42.000Z</time>
      </trkpt>
      <trkpt lat="44.81792" lon="0.82221">
        <ele>207.3</ele>
        <time>2026-05-01T15:49:43.000Z</time>
      </trkpt>
      <trkpt lat="44.81793" lon="0.82219">
        <ele>207.1</ele>
        <time>2026-05-01T15:49:44.000Z</time>
      </trkpt>
      <trkpt lat="44.81794" lon="0.82217">
        <ele>207</ele>
        <time>2026-05-01T15:49:45.000Z</time>
      </trkpt>
      <trkpt lat="44.81795" lon="0.82215">
        <ele>206.9</ele>
        <time>2026-05-01T15:49:46.000Z</time>
      </trkpt>
      <trkpt lat="44.81795" lon="0.82213">
        <ele>206.9</ele>
        <time>2026-05-01T15:49:47.000Z</time>
      </trkpt>
      <trkpt lat="44.81796" lon="0.82211">
        <ele>206.9</ele>
        <time>2026-05-01T15:49:48.000Z</time>
      </trkpt>
      <trkpt lat="44.81796" lon="0.82209">
        <ele>206.9</ele>
        <time>2026-05-01T15:49:49.000Z</time>
      </trkpt>
      <trkpt lat="44.81797" lon="0.82207">
        <ele>207.1</ele>
        <time>2026-05-01T15:49:50.000Z</time>
      </trkpt>
      <trkpt lat="44.81797" lon="0.82205">
        <ele>206.8</ele>
        <time>2026-05-01T15:49:51.000Z</time>
      </trkpt>
      <trkpt lat="44.81798" lon="0.82203">
        <ele>206.9</ele>
        <time>2026-05-01T15:49:52.000Z</time>
      </trkpt>
      <trkpt lat="44.81798" lon="0.82201">
        <ele>207</ele>
        <time>2026-05-01T15:49:53.000Z</time>
      </trkpt>
      <trkpt lat="44.81799" lon="0.82199">
        <ele>207.1</ele>
        <time>2026-05-01T15:49:54.000Z</time>
      </trkpt>
      <trkpt lat="44.81799" lon="0.82197">
        <ele>207.1</ele>
        <time>2026-05-01T15:49:55.000Z</time>
      </trkpt>
      <trkpt lat="44.81799" lon="0.82195">
        <ele>207.3</ele>
        <time>2026-05-01T15:49:56.000Z</time>
      </trkpt>
      <trkpt lat="44.818" lon="0.82194">
        <ele>207.4</ele>
        <time>2026-05-01T15:49:57.000Z</time>
      </trkpt>
      <trkpt lat="44.818" lon="0.82193">
        <ele>207.3</ele>
        <time>2026-05-01T15:49:58.000Z</time>
      </trkpt>
      <trkpt lat="44.818" lon="0.82193">
        <ele>207.5</ele>
        <time>2026-05-01T15:49:59.000Z</time>
      </trkpt>
      <trkpt lat="44.818" lon="0.82193">
        <ele>207.5</ele>
        <time>2026-05-01T15:50:00.000Z</time>
      </trkpt>
      <trkpt lat="44.818" lon="0.82192">
        <ele>207.5</ele>
        <time>2026-05-01T15:50:01.000Z</time>
      </trkpt>
      <trkpt lat="44.81801" lon="0.82191">
        <ele>207.6</ele>
        <time>2026-05-01T15:50:02.000Z</time>
      </trkpt>
      <trkpt lat="44.81801" lon="0.82189">
        <ele>207.6</ele>
        <time>2026-05-01T15:50:03.000Z</time>
      </trkpt>
      <trkpt lat="44.81802" lon="0.82187">
        <ele>207.5</ele>
        <time>2026-05-01T15:50:04.000Z</time>
      </trkpt>
      <trkpt lat="44.81802" lon="0.82185">
        <ele>207.7</ele>
        <time>2026-05-01T15:50:05.000Z</time>
      </trkpt>
      <trkpt lat="44.81803" lon="0.82183">
        <ele>208</ele>
        <time>2026-05-01T15:50:06.000Z</time>
      </trkpt>
      <trkpt lat="44.81803" lon="0.82181">
        <ele>208.2</ele>
        <time>2026-05-01T15:50:07.000Z</time>
      </trkpt>
      <trkpt lat="44.81804" lon="0.82179">
        <ele>208.2</ele>
        <time>2026-05-01T15:50:08.000Z</time>
      </trkpt>
      <trkpt lat="44.81804" lon="0.82176">
        <ele>208.3</ele>
        <time>2026-05-01T15:50:09.000Z</time>
      </trkpt>
      <trkpt lat="44.81805" lon="0.82174">
        <ele>208.1</ele>
        <time>2026-05-01T15:50:10.000Z</time>
      </trkpt>
      <trkpt lat="44.81805" lon="0.82172">
        <ele>207.9</ele>
        <time>2026-05-01T15:50:11.000Z</time>
      </trkpt>
      <trkpt lat="44.81805" lon="0.8217">
        <ele>207.9</ele>
        <time>2026-05-01T15:50:12.000Z</time>
      </trkpt>
      <trkpt lat="44.81806" lon="0.82168">
        <ele>207.6</ele>
        <time>2026-05-01T15:50:13.000Z</time>
      </trkpt>
      <trkpt lat="44.81806" lon="0.82166">
        <ele>207.6</ele>
        <time>2026-05-01T15:50:14.000Z</time>
      </trkpt>
      <trkpt lat="44.81805" lon="0.82162">
        <ele>208.5</ele>
        <time>2026-05-01T15:50:15.000Z</time>
      </trkpt>
      <trkpt lat="44.81805" lon="0.82158">
        <ele>209.1</ele>
        <time>2026-05-01T15:50:16.000Z</time>
      </trkpt>
      <trkpt lat="44.81806" lon="0.82156">
        <ele>210.2</ele>
        <time>2026-05-01T15:50:17.000Z</time>
      </trkpt>
      <trkpt lat="44.81806" lon="0.82154">
        <ele>210</ele>
        <time>2026-05-01T15:50:18.000Z</time>
      </trkpt>
      <trkpt lat="44.81807" lon="0.82152">
        <ele>209.6</ele>
        <time>2026-05-01T15:50:19.000Z</time>
      </trkpt>
      <trkpt lat="44.81808" lon="0.8215">
        <ele>209.5</ele>
        <time>2026-05-01T15:50:20.000Z</time>
      </trkpt>
      <trkpt lat="44.81809" lon="0.82148">
        <ele>209.6</ele>
        <time>2026-05-01T15:50:21.000Z</time>
      </trkpt>
      <trkpt lat="44.81809" lon="0.82147">
        <ele>210</ele>
        <time>2026-05-01T15:50:22.000Z</time>
      </trkpt>
      <trkpt lat="44.8181" lon="0.82145">
        <ele>210.2</ele>
        <time>2026-05-01T15:50:23.000Z</time>
      </trkpt>
      <trkpt lat="44.81811" lon="0.82143">
        <ele>210.4</ele>
        <time>2026-05-01T15:50:24.000Z</time>
      </trkpt>
      <trkpt lat="44.81812" lon="0.82142">
        <ele>209.8</ele>
        <time>2026-05-01T15:50:25.000Z</time>
      </trkpt>
      <trkpt lat="44.81814" lon="0.8214">
        <ele>209.5</ele>
        <time>2026-05-01T15:50:26.000Z</time>
      </trkpt>
      <trkpt lat="44.81815" lon="0.82139">
        <ele>209</ele>
        <time>2026-05-01T15:50:27.000Z</time>
      </trkpt>
      <trkpt lat="44.81816" lon="0.82136">
        <ele>208.6</ele>
        <time>2026-05-01T15:50:28.000Z</time>
      </trkpt>
      <trkpt lat="44.81817" lon="0.82135">
        <ele>208</ele>
        <time>2026-05-01T15:50:29.000Z</time>
      </trkpt>
      <trkpt lat="44.81818" lon="0.82134">
        <ele>207.1</ele>
        <time>2026-05-01T15:50:30.000Z</time>
      </trkpt>
      <trkpt lat="44.8182" lon="0.82133">
        <ele>207.1</ele>
        <time>2026-05-01T15:50:31.000Z</time>
      </trkpt>
      <trkpt lat="44.81821" lon="0.82132">
        <ele>206.9</ele>
        <time>2026-05-01T15:50:32.000Z</time>
      </trkpt>
      <trkpt lat="44.81822" lon="0.8213">
        <ele>206.8</ele>
        <time>2026-05-01T15:50:33.000Z</time>
      </trkpt>
      <trkpt lat="44.81823" lon="0.82128">
        <ele>207</ele>
        <time>2026-05-01T15:50:34.000Z</time>
      </trkpt>
      <trkpt lat="44.81824" lon="0.82127">
        <ele>206.3</ele>
        <time>2026-05-01T15:50:35.000Z</time>
      </trkpt>
      <trkpt lat="44.81825" lon="0.82125">
        <ele>205.6</ele>
        <time>2026-05-01T15:50:36.000Z</time>
      </trkpt>
      <trkpt lat="44.81826" lon="0.82123">
        <ele>205.1</ele>
        <time>2026-05-01T15:50:37.000Z</time>
      </trkpt>
      <trkpt lat="44.81827" lon="0.82121">
        <ele>204.7</ele>
        <time>2026-05-01T15:50:38.000Z</time>
      </trkpt>
      <trkpt lat="44.81828" lon="0.82119">
        <ele>203.9</ele>
        <time>2026-05-01T15:50:39.000Z</time>
      </trkpt>
      <trkpt lat="44.81829" lon="0.82117">
        <ele>204.4</ele>
        <time>2026-05-01T15:50:40.000Z</time>
      </trkpt>
      <trkpt lat="44.81829" lon="0.82114">
        <ele>204.3</ele>
        <time>2026-05-01T15:50:41.000Z</time>
      </trkpt>
      <trkpt lat="44.8183" lon="0.82112">
        <ele>205.1</ele>
        <time>2026-05-01T15:50:42.000Z</time>
      </trkpt>
      <trkpt lat="44.81831" lon="0.82109">
        <ele>204.9</ele>
        <time>2026-05-01T15:50:43.000Z</time>
      </trkpt>
      <trkpt lat="44.81831" lon="0.82107">
        <ele>205.1</ele>
        <time>2026-05-01T15:50:44.000Z</time>
      </trkpt>
      <trkpt lat="44.81832" lon="0.82105">
        <ele>205.3</ele>
        <time>2026-05-01T15:50:45.000Z</time>
      </trkpt>
      <trkpt lat="44.81833" lon="0.82102">
        <ele>205.6</ele>
        <time>2026-05-01T15:50:46.000Z</time>
      </trkpt>
      <trkpt lat="44.81833" lon="0.82099">
        <ele>205.7</ele>
        <time>2026-05-01T15:50:47.000Z</time>
      </trkpt>
      <trkpt lat="44.81833" lon="0.82097">
        <ele>206</ele>
        <time>2026-05-01T15:50:48.000Z</time>
      </trkpt>
      <trkpt lat="44.81834" lon="0.82096">
        <ele>206.1</ele>
        <time>2026-05-01T15:50:49.000Z</time>
      </trkpt>
      <trkpt lat="44.81834" lon="0.82094">
        <ele>205.5</ele>
        <time>2026-05-01T15:50:50.000Z</time>
      </trkpt>
      <trkpt lat="44.81834" lon="0.82091">
        <ele>204.9</ele>
        <time>2026-05-01T15:50:51.000Z</time>
      </trkpt>
      <trkpt lat="44.81835" lon="0.82088">
        <ele>205</ele>
        <time>2026-05-01T15:50:52.000Z</time>
      </trkpt>
      <trkpt lat="44.81836" lon="0.82086">
        <ele>204.1</ele>
        <time>2026-05-01T15:50:53.000Z</time>
      </trkpt>
      <trkpt lat="44.81837" lon="0.82084">
        <ele>203.7</ele>
        <time>2026-05-01T15:50:54.000Z</time>
      </trkpt>
      <trkpt lat="44.81837" lon="0.82081">
        <ele>203.8</ele>
        <time>2026-05-01T15:50:55.000Z</time>
      </trkpt>
      <trkpt lat="44.81838" lon="0.8208">
        <ele>204.7</ele>
        <time>2026-05-01T15:50:56.000Z</time>
      </trkpt>
      <trkpt lat="44.81839" lon="0.82077">
        <ele>204.7</ele>
        <time>2026-05-01T15:50:57.000Z</time>
      </trkpt>
      <trkpt lat="44.81839" lon="0.82075">
        <ele>205.1</ele>
        <time>2026-05-01T15:50:58.000Z</time>
      </trkpt>
      <trkpt lat="44.8184" lon="0.82073">
        <ele>204.1</ele>
        <time>2026-05-01T15:50:59.000Z</time>
      </trkpt>
      <trkpt lat="44.8184" lon="0.8207">
        <ele>204.2</ele>
        <time>2026-05-01T15:51:00.000Z</time>
      </trkpt>
      <trkpt lat="44.8184" lon="0.82067">
        <ele>203.9</ele>
        <time>2026-05-01T15:51:01.000Z</time>
      </trkpt>
      <trkpt lat="44.81841" lon="0.82065">
        <ele>203.5</ele>
        <time>2026-05-01T15:51:02.000Z</time>
      </trkpt>
      <trkpt lat="44.81842" lon="0.82063">
        <ele>202.9</ele>
        <time>2026-05-01T15:51:03.000Z</time>
      </trkpt>
      <trkpt lat="44.81843" lon="0.8206">
        <ele>203</ele>
        <time>2026-05-01T15:51:04.000Z</time>
      </trkpt>
      <trkpt lat="44.81844" lon="0.82058">
        <ele>202.5</ele>
        <time>2026-05-01T15:51:05.000Z</time>
      </trkpt>
      <trkpt lat="44.81845" lon="0.82056">
        <ele>202.3</ele>
        <time>2026-05-01T15:51:06.000Z</time>
      </trkpt>
      <trkpt lat="44.81846" lon="0.82054">
        <ele>201.8</ele>
        <time>2026-05-01T15:51:07.000Z</time>
      </trkpt>
      <trkpt lat="44.81847" lon="0.82052">
        <ele>202.3</ele>
        <time>2026-05-01T15:51:08.000Z</time>
      </trkpt>
      <trkpt lat="44.81848" lon="0.8205">
        <ele>202.4</ele>
        <time>2026-05-01T15:51:09.000Z</time>
      </trkpt>
      <trkpt lat="44.8185" lon="0.82048">
        <ele>202.4</ele>
        <time>2026-05-01T15:51:10.000Z</time>
      </trkpt>
      <trkpt lat="44.81851" lon="0.82046">
        <ele>202.4</ele>
        <time>2026-05-01T15:51:11.000Z</time>
      </trkpt>
      <trkpt lat="44.81852" lon="0.82045">
        <ele>202.5</ele>
        <time>2026-05-01T15:51:12.000Z</time>
      </trkpt>
      <trkpt lat="44.81853" lon="0.82043">
        <ele>202.5</ele>
        <time>2026-05-01T15:51:13.000Z</time>
      </trkpt>
      <trkpt lat="44.81854" lon="0.82041">
        <ele>202.7</ele>
        <time>2026-05-01T15:51:14.000Z</time>
      </trkpt>
      <trkpt lat="44.81855" lon="0.8204">
        <ele>202.8</ele>
        <time>2026-05-01T15:51:15.000Z</time>
      </trkpt>
      <trkpt lat="44.81857" lon="0.82038">
        <ele>202.6</ele>
        <time>2026-05-01T15:51:16.000Z</time>
      </trkpt>
      <trkpt lat="44.81858" lon="0.82037">
        <ele>202.8</ele>
        <time>2026-05-01T15:51:17.000Z</time>
      </trkpt>
      <trkpt lat="44.81859" lon="0.82036">
        <ele>202.7</ele>
        <time>2026-05-01T15:51:18.000Z</time>
      </trkpt>
      <trkpt lat="44.81861" lon="0.82035">
        <ele>202.5</ele>
        <time>2026-05-01T15:51:19.000Z</time>
      </trkpt>
      <trkpt lat="44.81862" lon="0.82034">
        <ele>201.9</ele>
        <time>2026-05-01T15:51:20.000Z</time>
      </trkpt>
      <trkpt lat="44.81864" lon="0.82033">
        <ele>202.3</ele>
        <time>2026-05-01T15:51:21.000Z</time>
      </trkpt>
      <trkpt lat="44.81865" lon="0.82032">
        <ele>202.6</ele>
        <time>2026-05-01T15:51:22.000Z</time>
      </trkpt>
      <trkpt lat="44.81866" lon="0.8203">
        <ele>202.3</ele>
        <time>2026-05-01T15:51:23.000Z</time>
      </trkpt>
      <trkpt lat="44.81867" lon="0.82029">
        <ele>202.1</ele>
        <time>2026-05-01T15:51:24.000Z</time>
      </trkpt>
      <trkpt lat="44.81869" lon="0.82027">
        <ele>202.1</ele>
        <time>2026-05-01T15:51:25.000Z</time>
      </trkpt>
      <trkpt lat="44.8187" lon="0.82025">
        <ele>201.8</ele>
        <time>2026-05-01T15:51:26.000Z</time>
      </trkpt>
      <trkpt lat="44.81871" lon="0.82024">
        <ele>201.4</ele>
        <time>2026-05-01T15:51:27.000Z</time>
      </trkpt>
      <trkpt lat="44.81873" lon="0.82022">
        <ele>201.3</ele>
        <time>2026-05-01T15:51:28.000Z</time>
      </trkpt>
      <trkpt lat="44.81874" lon="0.82021">
        <ele>201.2</ele>
        <time>2026-05-01T15:51:29.000Z</time>
      </trkpt>
      <trkpt lat="44.81875" lon="0.8202">
        <ele>200.8</ele>
        <time>2026-05-01T15:51:30.000Z</time>
      </trkpt>
      <trkpt lat="44.81876" lon="0.82019">
        <ele>200.4</ele>
        <time>2026-05-01T15:51:31.000Z</time>
      </trkpt>
      <trkpt lat="44.81877" lon="0.82017">
        <ele>200.2</ele>
        <time>2026-05-01T15:51:32.000Z</time>
      </trkpt>
      <trkpt lat="44.81879" lon="0.82015">
        <ele>199.9</ele>
        <time>2026-05-01T15:51:33.000Z</time>
      </trkpt>
      <trkpt lat="44.8188" lon="0.82014">
        <ele>200</ele>
        <time>2026-05-01T15:51:34.000Z</time>
      </trkpt>
      <trkpt lat="44.81882" lon="0.82013">
        <ele>199.9</ele>
        <time>2026-05-01T15:51:35.000Z</time>
      </trkpt>
      <trkpt lat="44.81883" lon="0.82011">
        <ele>199.9</ele>
        <time>2026-05-01T15:51:36.000Z</time>
      </trkpt>
      <trkpt lat="44.81885" lon="0.8201">
        <ele>200.2</ele>
        <time>2026-05-01T15:51:37.000Z</time>
      </trkpt>
      <trkpt lat="44.81887" lon="0.82008">
        <ele>200.4</ele>
        <time>2026-05-01T15:51:38.000Z</time>
      </trkpt>
      <trkpt lat="44.81888" lon="0.82006">
        <ele>200.5</ele>
        <time>2026-05-01T15:51:39.000Z</time>
      </trkpt>
      <trkpt lat="44.8189" lon="0.82004">
        <ele>200.7</ele>
        <time>2026-05-01T15:51:40.000Z</time>
      </trkpt>
      <trkpt lat="44.81891" lon="0.82002">
        <ele>201.6</ele>
        <time>2026-05-01T15:51:41.000Z</time>
      </trkpt>
      <trkpt lat="44.81892" lon="0.81999">
        <ele>202.2</ele>
        <time>2026-05-01T15:51:42.000Z</time>
      </trkpt>
      <trkpt lat="44.81894" lon="0.81997">
        <ele>202.7</ele>
        <time>2026-05-01T15:51:43.000Z</time>
      </trkpt>
      <trkpt lat="44.81896" lon="0.81996">
        <ele>202.4</ele>
        <time>2026-05-01T15:51:44.000Z</time>
      </trkpt>
      <trkpt lat="44.81898" lon="0.81995">
        <ele>202.5</ele>
        <time>2026-05-01T15:51:45.000Z</time>
      </trkpt>
      <trkpt lat="44.81899" lon="0.81994">
        <ele>202.3</ele>
        <time>2026-05-01T15:51:46.000Z</time>
      </trkpt>
      <trkpt lat="44.81901" lon="0.81993">
        <ele>202.2</ele>
        <time>2026-05-01T15:51:47.000Z</time>
      </trkpt>
      <trkpt lat="44.81902" lon="0.81991">
        <ele>202.2</ele>
        <time>2026-05-01T15:51:48.000Z</time>
      </trkpt>
      <trkpt lat="44.81904" lon="0.8199">
        <ele>202.5</ele>
        <time>2026-05-01T15:51:49.000Z</time>
      </trkpt>
      <trkpt lat="44.81905" lon="0.81989">
        <ele>201.8</ele>
        <time>2026-05-01T15:51:50.000Z</time>
      </trkpt>
      <trkpt lat="44.81906" lon="0.81988">
        <ele>201.3</ele>
        <time>2026-05-01T15:51:51.000Z</time>
      </trkpt>
      <trkpt lat="44.81907" lon="0.81986">
        <ele>201.3</ele>
        <time>2026-05-01T15:51:52.000Z</time>
      </trkpt>
      <trkpt lat="44.81908" lon="0.81983">
        <ele>201.6</ele>
        <time>2026-05-01T15:51:53.000Z</time>
      </trkpt>
      <trkpt lat="44.81909" lon="0.81982">
        <ele>201.8</ele>
        <time>2026-05-01T15:51:54.000Z</time>
      </trkpt>
      <trkpt lat="44.8191" lon="0.81981">
        <ele>201.8</ele>
        <time>2026-05-01T15:51:55.000Z</time>
      </trkpt>
      <trkpt lat="44.81912" lon="0.81981">
        <ele>201.6</ele>
        <time>2026-05-01T15:51:56.000Z</time>
      </trkpt>
      <trkpt lat="44.81912" lon="0.8198">
        <ele>201.7</ele>
        <time>2026-05-01T15:51:57.000Z</time>
      </trkpt>
      <trkpt lat="44.81914" lon="0.81979">
        <ele>201.8</ele>
        <time>2026-05-01T15:51:58.000Z</time>
      </trkpt>
      <trkpt lat="44.81916" lon="0.81978">
        <ele>201.9</ele>
        <time>2026-05-01T15:51:59.000Z</time>
      </trkpt>
      <trkpt lat="44.81917" lon="0.81977">
        <ele>202</ele>
        <time>2026-05-01T15:52:00.000Z</time>
      </trkpt>
      <trkpt lat="44.81919" lon="0.81976">
        <ele>201.9</ele>
        <time>2026-05-01T15:52:01.000Z</time>
      </trkpt>
      <trkpt lat="44.81921" lon="0.81975">
        <ele>202.4</ele>
        <time>2026-05-01T15:52:02.000Z</time>
      </trkpt>
      <trkpt lat="44.81923" lon="0.81975">
        <ele>202.2</ele>
        <time>2026-05-01T15:52:03.000Z</time>
      </trkpt>
      <trkpt lat="44.81925" lon="0.81974">
        <ele>202.7</ele>
        <time>2026-05-01T15:52:04.000Z</time>
      </trkpt>
      <trkpt lat="44.81927" lon="0.81972">
        <ele>202.1</ele>
        <time>2026-05-01T15:52:05.000Z</time>
      </trkpt>
      <trkpt lat="44.81929" lon="0.8197">
        <ele>201.9</ele>
        <time>2026-05-01T15:52:06.000Z</time>
      </trkpt>
      <trkpt lat="44.81931" lon="0.81969">
        <ele>201.3</ele>
        <time>2026-05-01T15:52:07.000Z</time>
      </trkpt>
      <trkpt lat="44.81933" lon="0.81968">
        <ele>202.1</ele>
        <time>2026-05-01T15:52:08.000Z</time>
      </trkpt>
      <trkpt lat="44.81936" lon="0.81967">
        <ele>202.5</ele>
        <time>2026-05-01T15:52:09.000Z</time>
      </trkpt>
      <trkpt lat="44.81938" lon="0.81965">
        <ele>203.1</ele>
        <time>2026-05-01T15:52:10.000Z</time>
      </trkpt>
      <trkpt lat="44.81941" lon="0.81964">
        <ele>203.2</ele>
        <time>2026-05-01T15:52:11.000Z</time>
      </trkpt>
      <trkpt lat="44.81943" lon="0.81962">
        <ele>203.1</ele>
        <time>2026-05-01T15:52:12.000Z</time>
      </trkpt>
      <trkpt lat="44.81946" lon="0.81961">
        <ele>201.9</ele>
        <time>2026-05-01T15:52:13.000Z</time>
      </trkpt>
      <trkpt lat="44.81949" lon="0.81959">
        <ele>201.9</ele>
        <time>2026-05-01T15:52:14.000Z</time>
      </trkpt>
      <trkpt lat="44.81951" lon="0.81957">
        <ele>202</ele>
        <time>2026-05-01T15:52:15.000Z</time>
      </trkpt>
      <trkpt lat="44.81954" lon="0.81956">
        <ele>202.2</ele>
        <time>2026-05-01T15:52:16.000Z</time>
      </trkpt>
      <trkpt lat="44.81957" lon="0.81954">
        <ele>202.1</ele>
        <time>2026-05-01T15:52:17.000Z</time>
      </trkpt>
      <trkpt lat="44.81959" lon="0.81952">
        <ele>202.6</ele>
        <time>2026-05-01T15:52:18.000Z</time>
      </trkpt>
      <trkpt lat="44.81962" lon="0.81951">
        <ele>201.9</ele>
        <time>2026-05-01T15:52:19.000Z</time>
      </trkpt>
      <trkpt lat="44.81964" lon="0.81949">
        <ele>201.6</ele>
        <time>2026-05-01T15:52:20.000Z</time>
      </trkpt>
      <trkpt lat="44.81967" lon="0.81947">
        <ele>201.8</ele>
        <time>2026-05-01T15:52:21.000Z</time>
      </trkpt>
      <trkpt lat="44.81971" lon="0.81945">
        <ele>201.1</ele>
        <time>2026-05-01T15:52:22.000Z</time>
      </trkpt>
      <trkpt lat="44.81974" lon="0.81943">
        <ele>201.4</ele>
        <time>2026-05-01T15:52:23.000Z</time>
      </trkpt>
      <trkpt lat="44.81976" lon="0.81941">
        <ele>201.3</ele>
        <time>2026-05-01T15:52:24.000Z</time>
      </trkpt>
      <trkpt lat="44.81979" lon="0.81939">
        <ele>200.5</ele>
        <time>2026-05-01T15:52:25.000Z</time>
      </trkpt>
      <trkpt lat="44.81982" lon="0.81937">
        <ele>200.7</ele>
        <time>2026-05-01T15:52:26.000Z</time>
      </trkpt>
      <trkpt lat="44.81984" lon="0.81935">
        <ele>200.9</ele>
        <time>2026-05-01T15:52:27.000Z</time>
      </trkpt>
      <trkpt lat="44.81987" lon="0.81933">
        <ele>200.4</ele>
        <time>2026-05-01T15:52:28.000Z</time>
      </trkpt>
      <trkpt lat="44.81988" lon="0.81932">
        <ele>200.6</ele>
        <time>2026-05-01T15:52:29.000Z</time>
      </trkpt>
      <trkpt lat="44.8199" lon="0.81931">
        <ele>200.2</ele>
        <time>2026-05-01T15:52:30.000Z</time>
      </trkpt>
      <trkpt lat="44.81993" lon="0.81929">
        <ele>200.1</ele>
        <time>2026-05-01T15:52:31.000Z</time>
      </trkpt>
      <trkpt lat="44.81995" lon="0.81929">
        <ele>200.2</ele>
        <time>2026-05-01T15:52:32.000Z</time>
      </trkpt>
      <trkpt lat="44.81997" lon="0.81927">
        <ele>200.6</ele>
        <time>2026-05-01T15:52:33.000Z</time>
      </trkpt>
      <trkpt lat="44.81998" lon="0.81925">
        <ele>200.4</ele>
        <time>2026-05-01T15:52:34.000Z</time>
      </trkpt>
      <trkpt lat="44.82" lon="0.81924">
        <ele>200.9</ele>
        <time>2026-05-01T15:52:35.000Z</time>
      </trkpt>
      <trkpt lat="44.82001" lon="0.81923">
        <ele>201</ele>
        <time>2026-05-01T15:52:36.000Z</time>
      </trkpt>
      <trkpt lat="44.82002" lon="0.81921">
        <ele>200.8</ele>
        <time>2026-05-01T15:52:37.000Z</time>
      </trkpt>
      <trkpt lat="44.82003" lon="0.8192">
        <ele>200.4</ele>
        <time>2026-05-01T15:52:38.000Z</time>
      </trkpt>
      <trkpt lat="44.82005" lon="0.81919">
        <ele>200.2</ele>
        <time>2026-05-01T15:52:39.000Z</time>
      </trkpt>
      <trkpt lat="44.82007" lon="0.81917">
        <ele>200.2</ele>
        <time>2026-05-01T15:52:40.000Z</time>
      </trkpt>
      <trkpt lat="44.82009" lon="0.81916">
        <ele>200</ele>
        <time>2026-05-01T15:52:41.000Z</time>
      </trkpt>
      <trkpt lat="44.82011" lon="0.81914">
        <ele>199.4</ele>
        <time>2026-05-01T15:52:42.000Z</time>
      </trkpt>
      <trkpt lat="44.82013" lon="0.81912">
        <ele>199.1</ele>
        <time>2026-05-01T15:52:43.000Z</time>
      </trkpt>
      <trkpt lat="44.82015" lon="0.8191">
        <ele>199.1</ele>
        <time>2026-05-01T15:52:44.000Z</time>
      </trkpt>
      <trkpt lat="44.82018" lon="0.81908">
        <ele>198.7</ele>
        <time>2026-05-01T15:52:45.000Z</time>
      </trkpt>
      <trkpt lat="44.82022" lon="0.81907">
        <ele>198.1</ele>
        <time>2026-05-01T15:52:46.000Z</time>
      </trkpt>
      <trkpt lat="44.82025" lon="0.81905">
        <ele>197.8</ele>
        <time>2026-05-01T15:52:47.000Z</time>
      </trkpt>
      <trkpt lat="44.82028" lon="0.81904">
        <ele>197.2</ele>
        <time>2026-05-01T15:52:48.000Z</time>
      </trkpt>
      <trkpt lat="44.82031" lon="0.81902">
        <ele>197.8</ele>
        <time>2026-05-01T15:52:49.000Z</time>
      </trkpt>
      <trkpt lat="44.82034" lon="0.81901">
        <ele>198</ele>
        <time>2026-05-01T15:52:50.000Z</time>
      </trkpt>
      <trkpt lat="44.82037" lon="0.81899">
        <ele>196.7</ele>
        <time>2026-05-01T15:52:51.000Z</time>
      </trkpt>
      <trkpt lat="44.8204" lon="0.81898">
        <ele>195.8</ele>
        <time>2026-05-01T15:52:52.000Z</time>
      </trkpt>
      <trkpt lat="44.82044" lon="0.81897">
        <ele>195.5</ele>
        <time>2026-05-01T15:52:53.000Z</time>
      </trkpt>
      <trkpt lat="44.82047" lon="0.81896">
        <ele>194.8</ele>
        <time>2026-05-01T15:52:54.000Z</time>
      </trkpt>
      <trkpt lat="44.82051" lon="0.81895">
        <ele>194.3</ele>
        <time>2026-05-01T15:52:55.000Z</time>
      </trkpt>
      <trkpt lat="44.82055" lon="0.81894">
        <ele>194.7</ele>
        <time>2026-05-01T15:52:56.000Z</time>
      </trkpt>
      <trkpt lat="44.82058" lon="0.81892">
        <ele>195</ele>
        <time>2026-05-01T15:52:57.000Z</time>
      </trkpt>
      <trkpt lat="44.82061" lon="0.81891">
        <ele>194.5</ele>
        <time>2026-05-01T15:52:58.000Z</time>
      </trkpt>
      <trkpt lat="44.82065" lon="0.8189">
        <ele>194.4</ele>
        <time>2026-05-01T15:52:59.000Z</time>
      </trkpt>
      <trkpt lat="44.82068" lon="0.81889">
        <ele>194.4</ele>
        <time>2026-05-01T15:53:00.000Z</time>
      </trkpt>
      <trkpt lat="44.82071" lon="0.81888">
        <ele>194</ele>
        <time>2026-05-01T15:53:01.000Z</time>
      </trkpt>
      <trkpt lat="44.82075" lon="0.81888">
        <ele>194</ele>
        <time>2026-05-01T15:53:02.000Z</time>
      </trkpt>
      <trkpt lat="44.82078" lon="0.81887">
        <ele>193.3</ele>
        <time>2026-05-01T15:53:03.000Z</time>
      </trkpt>
      <trkpt lat="44.82082" lon="0.81886">
        <ele>192.8</ele>
        <time>2026-05-01T15:53:04.000Z</time>
      </trkpt>
      <trkpt lat="44.82085" lon="0.81886">
        <ele>192.8</ele>
        <time>2026-05-01T15:53:05.000Z</time>
      </trkpt>
      <trkpt lat="44.82089" lon="0.81887">
        <ele>193.2</ele>
        <time>2026-05-01T15:53:06.000Z</time>
      </trkpt>
      <trkpt lat="44.82092" lon="0.81886">
        <ele>194.8</ele>
        <time>2026-05-01T15:53:07.000Z</time>
      </trkpt>
      <trkpt lat="44.82096" lon="0.81886">
        <ele>195.9</ele>
        <time>2026-05-01T15:53:08.000Z</time>
      </trkpt>
      <trkpt lat="44.82099" lon="0.81886">
        <ele>196.1</ele>
        <time>2026-05-01T15:53:09.000Z</time>
      </trkpt>
      <trkpt lat="44.82101" lon="0.81886">
        <ele>196.2</ele>
        <time>2026-05-01T15:53:10.000Z</time>
      </trkpt>
      <trkpt lat="44.82104" lon="0.81886">
        <ele>195.3</ele>
        <time>2026-05-01T15:53:11.000Z</time>
      </trkpt>
      <trkpt lat="44.82107" lon="0.81885">
        <ele>195.1</ele>
        <time>2026-05-01T15:53:12.000Z</time>
      </trkpt>
      <trkpt lat="44.8211" lon="0.81886">
        <ele>195.4</ele>
        <time>2026-05-01T15:53:13.000Z</time>
      </trkpt>
      <trkpt lat="44.82113" lon="0.81887">
        <ele>195.3</ele>
        <time>2026-05-01T15:53:14.000Z</time>
      </trkpt>
      <trkpt lat="44.82116" lon="0.81888">
        <ele>195.2</ele>
        <time>2026-05-01T15:53:15.000Z</time>
      </trkpt>
      <trkpt lat="44.82119" lon="0.81888">
        <ele>195.4</ele>
        <time>2026-05-01T15:53:16.000Z</time>
      </trkpt>
      <trkpt lat="44.82121" lon="0.81888">
        <ele>195.3</ele>
        <time>2026-05-01T15:53:17.000Z</time>
      </trkpt>
      <trkpt lat="44.82124" lon="0.81888">
        <ele>194.9</ele>
        <time>2026-05-01T15:53:18.000Z</time>
      </trkpt>
      <trkpt lat="44.82127" lon="0.81888">
        <ele>194.7</ele>
        <time>2026-05-01T15:53:19.000Z</time>
      </trkpt>
      <trkpt lat="44.8213" lon="0.81888">
        <ele>193.3</ele>
        <time>2026-05-01T15:53:20.000Z</time>
      </trkpt>
      <trkpt lat="44.82133" lon="0.81888">
        <ele>193.3</ele>
        <time>2026-05-01T15:53:21.000Z</time>
      </trkpt>
      <trkpt lat="44.82136" lon="0.81888">
        <ele>194.5</ele>
        <time>2026-05-01T15:53:22.000Z</time>
      </trkpt>
      <trkpt lat="44.82139" lon="0.81888">
        <ele>194.7</ele>
        <time>2026-05-01T15:53:23.000Z</time>
      </trkpt>
      <trkpt lat="44.82143" lon="0.81888">
        <ele>194.3</ele>
        <time>2026-05-01T15:53:24.000Z</time>
      </trkpt>
      <trkpt lat="44.82146" lon="0.81888">
        <ele>194.6</ele>
        <time>2026-05-01T15:53:25.000Z</time>
      </trkpt>
      <trkpt lat="44.82149" lon="0.81888">
        <ele>195.5</ele>
        <time>2026-05-01T15:53:26.000Z</time>
      </trkpt>
      <trkpt lat="44.82152" lon="0.81888">
        <ele>195.8</ele>
        <time>2026-05-01T15:53:27.000Z</time>
      </trkpt>
      <trkpt lat="44.82155" lon="0.81888">
        <ele>197</ele>
        <time>2026-05-01T15:53:28.000Z</time>
      </trkpt>
      <trkpt lat="44.82158" lon="0.81888">
        <ele>197.7</ele>
        <time>2026-05-01T15:53:29.000Z</time>
      </trkpt>
      <trkpt lat="44.82161" lon="0.81888">
        <ele>197.1</ele>
        <time>2026-05-01T15:53:30.000Z</time>
      </trkpt>
      <trkpt lat="44.82164" lon="0.81889">
        <ele>196.7</ele>
        <time>2026-05-01T15:53:31.000Z</time>
      </trkpt>
      <trkpt lat="44.82168" lon="0.81888">
        <ele>196.6</ele>
        <time>2026-05-01T15:53:32.000Z</time>
      </trkpt>
      <trkpt lat="44.8217" lon="0.81888">
        <ele>195.7</ele>
        <time>2026-05-01T15:53:33.000Z</time>
      </trkpt>
      <trkpt lat="44.82173" lon="0.81889">
        <ele>196.6</ele>
        <time>2026-05-01T15:53:34.000Z</time>
      </trkpt>
      <trkpt lat="44.82176" lon="0.8189">
        <ele>196.7</ele>
        <time>2026-05-01T15:53:35.000Z</time>
      </trkpt>
      <trkpt lat="44.82178" lon="0.8189">
        <ele>199.1</ele>
        <time>2026-05-01T15:53:36.000Z</time>
      </trkpt>
      <trkpt lat="44.8218" lon="0.8189">
        <ele>198.2</ele>
        <time>2026-05-01T15:53:37.000Z</time>
      </trkpt>
      <trkpt lat="44.82182" lon="0.8189">
        <ele>198.9</ele>
        <time>2026-05-01T15:53:38.000Z</time>
      </trkpt>
      <trkpt lat="44.82184" lon="0.8189">
        <ele>199.4</ele>
        <time>2026-05-01T15:53:39.000Z</time>
      </trkpt>
      <trkpt lat="44.82185" lon="0.8189">
        <ele>199.2</ele>
        <time>2026-05-01T15:53:40.000Z</time>
      </trkpt>
      <trkpt lat="44.82186" lon="0.8189">
        <ele>199.1</ele>
        <time>2026-05-01T15:53:41.000Z</time>
      </trkpt>
      <trkpt lat="44.82188" lon="0.81889">
        <ele>199</ele>
        <time>2026-05-01T15:53:42.000Z</time>
      </trkpt>
      <trkpt lat="44.82189" lon="0.81888">
        <ele>198.7</ele>
        <time>2026-05-01T15:53:43.000Z</time>
      </trkpt>
      <trkpt lat="44.82191" lon="0.81888">
        <ele>199.4</ele>
        <time>2026-05-01T15:53:44.000Z</time>
      </trkpt>
      <trkpt lat="44.82192" lon="0.81887">
        <ele>200.3</ele>
        <time>2026-05-01T15:53:45.000Z</time>
      </trkpt>
      <trkpt lat="44.82193" lon="0.81885">
        <ele>200.2</ele>
        <time>2026-05-01T15:53:46.000Z</time>
      </trkpt>
      <trkpt lat="44.82192" lon="0.81884">
        <ele>200.3</ele>
        <time>2026-05-01T15:53:47.000Z</time>
      </trkpt>
      <trkpt lat="44.82192" lon="0.81883">
        <ele>199.8</ele>
        <time>2026-05-01T15:53:48.000Z</time>
      </trkpt>
      <trkpt lat="44.82192" lon="0.81882">
        <ele>199.5</ele>
        <time>2026-05-01T15:53:49.000Z</time>
      </trkpt>
      <trkpt lat="44.82191" lon="0.81881">
        <ele>199.7</ele>
        <time>2026-05-01T15:53:50.000Z</time>
      </trkpt>
      <trkpt lat="44.8219" lon="0.81879">
        <ele>199.6</ele>
        <time>2026-05-01T15:53:51.000Z</time>
      </trkpt>
      <trkpt lat="44.82189" lon="0.81877">
        <ele>199.8</ele>
        <time>2026-05-01T15:53:52.000Z</time>
      </trkpt>
      <trkpt lat="44.82187" lon="0.81876">
        <ele>200.2</ele>
        <time>2026-05-01T15:53:53.000Z</time>
      </trkpt>
      <trkpt lat="44.82186" lon="0.81874">
        <ele>200.1</ele>
        <time>2026-05-01T15:53:54.000Z</time>
      </trkpt>
      <trkpt lat="44.82184" lon="0.81872">
        <ele>199.9</ele>
        <time>2026-05-01T15:53:55.000Z</time>
      </trkpt>
      <trkpt lat="44.82183" lon="0.8187">
        <ele>199.8</ele>
        <time>2026-05-01T15:53:56.000Z</time>
      </trkpt>
      <trkpt lat="44.82181" lon="0.81868">
        <ele>199.7</ele>
        <time>2026-05-01T15:53:57.000Z</time>
      </trkpt>
      <trkpt lat="44.8218" lon="0.81866">
        <ele>199.4</ele>
        <time>2026-05-01T15:53:58.000Z</time>
      </trkpt>
      <trkpt lat="44.82179" lon="0.81864">
        <ele>199.6</ele>
        <time>2026-05-01T15:53:59.000Z</time>
      </trkpt>
      <trkpt lat="44.82178" lon="0.81863">
        <ele>199.8</ele>
        <time>2026-05-01T15:54:00.000Z</time>
      </trkpt>
      <trkpt lat="44.82176" lon="0.8186">
        <ele>200.4</ele>
        <time>2026-05-01T15:54:01.000Z</time>
      </trkpt>
      <trkpt lat="44.82175" lon="0.81857">
        <ele>201.5</ele>
        <time>2026-05-01T15:54:02.000Z</time>
      </trkpt>
      <trkpt lat="44.82173" lon="0.81855">
        <ele>201.3</ele>
        <time>2026-05-01T15:54:03.000Z</time>
      </trkpt>
      <trkpt lat="44.82172" lon="0.81853">
        <ele>201.5</ele>
        <time>2026-05-01T15:54:04.000Z</time>
      </trkpt>
      <trkpt lat="44.82171" lon="0.81852">
        <ele>201.5</ele>
        <time>2026-05-01T15:54:05.000Z</time>
      </trkpt>
      <trkpt lat="44.82169" lon="0.8185">
        <ele>202</ele>
        <time>2026-05-01T15:54:06.000Z</time>
      </trkpt>
      <trkpt lat="44.82168" lon="0.81849">
        <ele>201.5</ele>
        <time>2026-05-01T15:54:07.000Z</time>
      </trkpt>
      <trkpt lat="44.82167" lon="0.81848">
        <ele>201.7</ele>
        <time>2026-05-01T15:54:08.000Z</time>
      </trkpt>
      <trkpt lat="44.82166" lon="0.81846">
        <ele>201.6</ele>
        <time>2026-05-01T15:54:09.000Z</time>
      </trkpt>
      <trkpt lat="44.82165" lon="0.81844">
        <ele>201.6</ele>
        <time>2026-05-01T15:54:10.000Z</time>
      </trkpt>
      <trkpt lat="44.82163" lon="0.81843">
        <ele>200.8</ele>
        <time>2026-05-01T15:54:11.000Z</time>
      </trkpt>
      <trkpt lat="44.82162" lon="0.81841">
        <ele>200.7</ele>
        <time>2026-05-01T15:54:12.000Z</time>
      </trkpt>
      <trkpt lat="44.82161" lon="0.81839">
        <ele>201.2</ele>
        <time>2026-05-01T15:54:13.000Z</time>
      </trkpt>
      <trkpt lat="44.8216" lon="0.81838">
        <ele>201.2</ele>
        <time>2026-05-01T15:54:14.000Z</time>
      </trkpt>
      <trkpt lat="44.82158" lon="0.81835">
        <ele>201.1</ele>
        <time>2026-05-01T15:54:15.000Z</time>
      </trkpt>
      <trkpt lat="44.82157" lon="0.81833">
        <ele>200.9</ele>
        <time>2026-05-01T15:54:16.000Z</time>
      </trkpt>
      <trkpt lat="44.82156" lon="0.81831">
        <ele>201.1</ele>
        <time>2026-05-01T15:54:17.000Z</time>
      </trkpt>
      <trkpt lat="44.82154" lon="0.81829">
        <ele>201</ele>
        <time>2026-05-01T15:54:18.000Z</time>
      </trkpt>
      <trkpt lat="44.82153" lon="0.81828">
        <ele>201.1</ele>
        <time>2026-05-01T15:54:19.000Z</time>
      </trkpt>
      <trkpt lat="44.82152" lon="0.81826">
        <ele>201</ele>
        <time>2026-05-01T15:54:20.000Z</time>
      </trkpt>
      <trkpt lat="44.82137" lon="0.81761">
        <ele>200</ele>
        <time>2026-05-01T15:55:26.000Z</time>
      </trkpt>
      <trkpt lat="44.82138" lon="0.81761">
        <ele>199.2</ele>
        <time>2026-05-01T15:55:27.000Z</time>
      </trkpt>
      <trkpt lat="44.82139" lon="0.8176">
        <ele>199.5</ele>
        <time>2026-05-01T15:55:28.000Z</time>
      </trkpt>
      <trkpt lat="44.82141" lon="0.8176">
        <ele>200</ele>
        <time>2026-05-01T15:55:29.000Z</time>
      </trkpt>
      <trkpt lat="44.82143" lon="0.81759">
        <ele>199.8</ele>
        <time>2026-05-01T15:55:30.000Z</time>
      </trkpt>
      <trkpt lat="44.82144" lon="0.81759">
        <ele>199.6</ele>
        <time>2026-05-01T15:55:31.000Z</time>
      </trkpt>
      <trkpt lat="44.82146" lon="0.81758">
        <ele>199.7</ele>
        <time>2026-05-01T15:55:32.000Z</time>
      </trkpt>
      <trkpt lat="44.82148" lon="0.81757">
        <ele>199.5</ele>
        <time>2026-05-01T15:55:33.000Z</time>
      </trkpt>
      <trkpt lat="44.8215" lon="0.81757">
        <ele>199.4</ele>
        <time>2026-05-01T15:55:34.000Z</time>
      </trkpt>
      <trkpt lat="44.82151" lon="0.81756">
        <ele>199.4</ele>
        <time>2026-05-01T15:55:35.000Z</time>
      </trkpt>
      <trkpt lat="44.82153" lon="0.81755">
        <ele>199.3</ele>
        <time>2026-05-01T15:55:36.000Z</time>
      </trkpt>
      <trkpt lat="44.82155" lon="0.81754">
        <ele>199.5</ele>
        <time>2026-05-01T15:55:37.000Z</time>
      </trkpt>
      <trkpt lat="44.82156" lon="0.81754">
        <ele>199.5</ele>
        <time>2026-05-01T15:55:38.000Z</time>
      </trkpt>
      <trkpt lat="44.82158" lon="0.81753">
        <ele>199.6</ele>
        <time>2026-05-01T15:55:39.000Z</time>
      </trkpt>
      <trkpt lat="44.82159" lon="0.81752">
        <ele>199.5</ele>
        <time>2026-05-01T15:55:40.000Z</time>
      </trkpt>
      <trkpt lat="44.82161" lon="0.81751">
        <ele>199.8</ele>
        <time>2026-05-01T15:55:41.000Z</time>
      </trkpt>
      <trkpt lat="44.82162" lon="0.8175">
        <ele>200</ele>
        <time>2026-05-01T15:55:42.000Z</time>
      </trkpt>
      <trkpt lat="44.82164" lon="0.81749">
        <ele>199.9</ele>
        <time>2026-05-01T15:55:43.000Z</time>
      </trkpt>
      <trkpt lat="44.82165" lon="0.81748">
        <ele>200</ele>
        <time>2026-05-01T15:55:44.000Z</time>
      </trkpt>
      <trkpt lat="44.82167" lon="0.81747">
        <ele>199.9</ele>
        <time>2026-05-01T15:55:45.000Z</time>
      </trkpt>
      <trkpt lat="44.82168" lon="0.81746">
        <ele>200.1</ele>
        <time>2026-05-01T15:55:46.000Z</time>
      </trkpt>
      <trkpt lat="44.8217" lon="0.81745">
        <ele>200</ele>
        <time>2026-05-01T15:55:47.000Z</time>
      </trkpt>
      <trkpt lat="44.82171" lon="0.81743">
        <ele>199.8</ele>
        <time>2026-05-01T15:55:48.000Z</time>
      </trkpt>
      <trkpt lat="44.82172" lon="0.81742">
        <ele>199.9</ele>
        <time>2026-05-01T15:55:49.000Z</time>
      </trkpt>
      <trkpt lat="44.82174" lon="0.81741">
        <ele>200</ele>
        <time>2026-05-01T15:55:50.000Z</time>
      </trkpt>
      <trkpt lat="44.82175" lon="0.8174">
        <ele>200.2</ele>
        <time>2026-05-01T15:55:51.000Z</time>
      </trkpt>
      <trkpt lat="44.82177" lon="0.81739">
        <ele>200.2</ele>
        <time>2026-05-01T15:55:52.000Z</time>
      </trkpt>
      <trkpt lat="44.82178" lon="0.81737">
        <ele>200.3</ele>
        <time>2026-05-01T15:55:53.000Z</time>
      </trkpt>
      <trkpt lat="44.82179" lon="0.81736">
        <ele>200.4</ele>
        <time>2026-05-01T15:55:54.000Z</time>
      </trkpt>
      <trkpt lat="44.82181" lon="0.81735">
        <ele>200.5</ele>
        <time>2026-05-01T15:55:55.000Z</time>
      </trkpt>
      <trkpt lat="44.82182" lon="0.81734">
        <ele>200.6</ele>
        <time>2026-05-01T15:55:56.000Z</time>
      </trkpt>
      <trkpt lat="44.82184" lon="0.81733">
        <ele>200.6</ele>
        <time>2026-05-01T15:55:57.000Z</time>
      </trkpt>
      <trkpt lat="44.82185" lon="0.81732">
        <ele>200.5</ele>
        <time>2026-05-01T15:55:58.000Z</time>
      </trkpt>
      <trkpt lat="44.82186" lon="0.81731">
        <ele>200.5</ele>
        <time>2026-05-01T15:55:59.000Z</time>
      </trkpt>
      <trkpt lat="44.82188" lon="0.81729">
        <ele>200.6</ele>
        <time>2026-05-01T15:56:00.000Z</time>
      </trkpt>
      <trkpt lat="44.82189" lon="0.81728">
        <ele>200.6</ele>
        <time>2026-05-01T15:56:01.000Z</time>
      </trkpt>
      <trkpt lat="44.8219" lon="0.81726">
        <ele>200.7</ele>
        <time>2026-05-01T15:56:02.000Z</time>
      </trkpt>
      <trkpt lat="44.82192" lon="0.81726">
        <ele>200.7</ele>
        <time>2026-05-01T15:56:03.000Z</time>
      </trkpt>
      <trkpt lat="44.82193" lon="0.81725">
        <ele>200.5</ele>
        <time>2026-05-01T15:56:04.000Z</time>
      </trkpt>
      <trkpt lat="44.82195" lon="0.81723">
        <ele>200.8</ele>
        <time>2026-05-01T15:56:05.000Z</time>
      </trkpt>
      <trkpt lat="44.82196" lon="0.81722">
        <ele>200.8</ele>
        <time>2026-05-01T15:56:06.000Z</time>
      </trkpt>
      <trkpt lat="44.82197" lon="0.8172">
        <ele>201.3</ele>
        <time>2026-05-01T15:56:07.000Z</time>
      </trkpt>
      <trkpt lat="44.82198" lon="0.81718">
        <ele>201.6</ele>
        <time>2026-05-01T15:56:08.000Z</time>
      </trkpt>
      <trkpt lat="44.822" lon="0.81717">
        <ele>201.5</ele>
        <time>2026-05-01T15:56:09.000Z</time>
      </trkpt>
      <trkpt lat="44.82201" lon="0.81716">
        <ele>201.3</ele>
        <time>2026-05-01T15:56:10.000Z</time>
      </trkpt>
      <trkpt lat="44.82202" lon="0.81715">
        <ele>201.9</ele>
        <time>2026-05-01T15:56:11.000Z</time>
      </trkpt>
      <trkpt lat="44.82204" lon="0.81714">
        <ele>201.9</ele>
        <time>2026-05-01T15:56:12.000Z</time>
      </trkpt>
      <trkpt lat="44.82206" lon="0.81714">
        <ele>202.3</ele>
        <time>2026-05-01T15:56:13.000Z</time>
      </trkpt>
      <trkpt lat="44.82207" lon="0.81713">
        <ele>202.6</ele>
        <time>2026-05-01T15:56:14.000Z</time>
      </trkpt>
      <trkpt lat="44.82209" lon="0.81713">
        <ele>202.8</ele>
        <time>2026-05-01T15:56:15.000Z</time>
      </trkpt>
      <trkpt lat="44.82211" lon="0.81711">
        <ele>199.8</ele>
        <time>2026-05-01T15:56:16.000Z</time>
      </trkpt>
      <trkpt lat="44.82214" lon="0.8171">
        <ele>199.4</ele>
        <time>2026-05-01T15:56:17.000Z</time>
      </trkpt>
      <trkpt lat="44.82215" lon="0.81709">
        <ele>200.1</ele>
        <time>2026-05-01T15:56:18.000Z</time>
      </trkpt>
      <trkpt lat="44.82216" lon="0.81709">
        <ele>200.6</ele>
        <time>2026-05-01T15:56:19.000Z</time>
      </trkpt>
      <trkpt lat="44.82218" lon="0.81708">
        <ele>201.1</ele>
        <time>2026-05-01T15:56:20.000Z</time>
      </trkpt>
      <trkpt lat="44.82219" lon="0.81707">
        <ele>200.9</ele>
        <time>2026-05-01T15:56:21.000Z</time>
      </trkpt>
      <trkpt lat="44.8222" lon="0.81707">
        <ele>200.9</ele>
        <time>2026-05-01T15:56:22.000Z</time>
      </trkpt>
      <trkpt lat="44.82222" lon="0.81706">
        <ele>201.2</ele>
        <time>2026-05-01T15:56:23.000Z</time>
      </trkpt>
      <trkpt lat="44.82223" lon="0.81705">
        <ele>201.7</ele>
        <time>2026-05-01T15:56:24.000Z</time>
      </trkpt>
      <trkpt lat="44.82224" lon="0.81704">
        <ele>201.9</ele>
        <time>2026-05-01T15:56:25.000Z</time>
      </trkpt>
      <trkpt lat="44.82226" lon="0.81703">
        <ele>201.9</ele>
        <time>2026-05-01T15:56:26.000Z</time>
      </trkpt>
      <trkpt lat="44.82227" lon="0.81702">
        <ele>201.9</ele>
        <time>2026-05-01T15:56:27.000Z</time>
      </trkpt>
      <trkpt lat="44.82228" lon="0.81701">
        <ele>201.7</ele>
        <time>2026-05-01T15:56:28.000Z</time>
      </trkpt>
      <trkpt lat="44.82229" lon="0.81699">
        <ele>201.7</ele>
        <time>2026-05-01T15:56:29.000Z</time>
      </trkpt>
      <trkpt lat="44.8223" lon="0.81698">
        <ele>201.9</ele>
        <time>2026-05-01T15:56:30.000Z</time>
      </trkpt>
      <trkpt lat="44.82232" lon="0.81697">
        <ele>201.9</ele>
        <time>2026-05-01T15:56:31.000Z</time>
      </trkpt>
      <trkpt lat="44.82233" lon="0.81696">
        <ele>202.1</ele>
        <time>2026-05-01T15:56:32.000Z</time>
      </trkpt>
      <trkpt lat="44.82234" lon="0.81695">
        <ele>202.1</ele>
        <time>2026-05-01T15:56:33.000Z</time>
      </trkpt>
      <trkpt lat="44.82235" lon="0.81694">
        <ele>202.3</ele>
        <time>2026-05-01T15:56:34.000Z</time>
      </trkpt>
      <trkpt lat="44.82237" lon="0.81693">
        <ele>202.4</ele>
        <time>2026-05-01T15:56:35.000Z</time>
      </trkpt>
      <trkpt lat="44.82238" lon="0.81691">
        <ele>202.7</ele>
        <time>2026-05-01T15:56:36.000Z</time>
      </trkpt>
      <trkpt lat="44.82239" lon="0.8169">
        <ele>202.7</ele>
        <time>2026-05-01T15:56:37.000Z</time>
      </trkpt>
      <trkpt lat="44.82241" lon="0.81689">
        <ele>202.8</ele>
        <time>2026-05-01T15:56:38.000Z</time>
      </trkpt>
      <trkpt lat="44.82242" lon="0.81688">
        <ele>202.8</ele>
        <time>2026-05-01T15:56:39.000Z</time>
      </trkpt>
      <trkpt lat="44.82243" lon="0.81686">
        <ele>202.6</ele>
        <time>2026-05-01T15:56:40.000Z</time>
      </trkpt>
      <trkpt lat="44.82245" lon="0.81685">
        <ele>202.7</ele>
        <time>2026-05-01T15:56:41.000Z</time>
      </trkpt>
      <trkpt lat="44.82246" lon="0.81684">
        <ele>202.5</ele>
        <time>2026-05-01T15:56:42.000Z</time>
      </trkpt>
      <trkpt lat="44.82247" lon="0.81683">
        <ele>202.4</ele>
        <time>2026-05-01T15:56:43.000Z</time>
      </trkpt>
      <trkpt lat="44.82248" lon="0.81681">
        <ele>202.5</ele>
        <time>2026-05-01T15:56:44.000Z</time>
      </trkpt>
      <trkpt lat="44.8225" lon="0.8168">
        <ele>202.5</ele>
        <time>2026-05-01T15:56:45.000Z</time>
      </trkpt>
      <trkpt lat="44.82251" lon="0.81679">
        <ele>202.3</ele>
        <time>2026-05-01T15:56:46.000Z</time>
      </trkpt>
      <trkpt lat="44.82252" lon="0.81678">
        <ele>202.9</ele>
        <time>2026-05-01T15:56:47.000Z</time>
      </trkpt>
      <trkpt lat="44.82254" lon="0.81676">
        <ele>203</ele>
        <time>2026-05-01T15:56:48.000Z</time>
      </trkpt>
      <trkpt lat="44.82255" lon="0.81675">
        <ele>203</ele>
        <time>2026-05-01T15:56:49.000Z</time>
      </trkpt>
      <trkpt lat="44.82256" lon="0.81673">
        <ele>203</ele>
        <time>2026-05-01T15:56:50.000Z</time>
      </trkpt>
      <trkpt lat="44.82257" lon="0.81672">
        <ele>202.5</ele>
        <time>2026-05-01T15:56:51.000Z</time>
      </trkpt>
      <trkpt lat="44.82258" lon="0.81671">
        <ele>202.6</ele>
        <time>2026-05-01T15:56:52.000Z</time>
      </trkpt>
      <trkpt lat="44.8226" lon="0.8167">
        <ele>201.9</ele>
        <time>2026-05-01T15:56:53.000Z</time>
      </trkpt>
      <trkpt lat="44.82261" lon="0.81668">
        <ele>202</ele>
        <time>2026-05-01T15:56:54.000Z</time>
      </trkpt>
      <trkpt lat="44.82263" lon="0.81667">
        <ele>202</ele>
        <time>2026-05-01T15:56:55.000Z</time>
      </trkpt>
      <trkpt lat="44.82264" lon="0.81666">
        <ele>201.6</ele>
        <time>2026-05-01T15:56:56.000Z</time>
      </trkpt>
      <trkpt lat="44.82265" lon="0.81665">
        <ele>201.7</ele>
        <time>2026-05-01T15:56:57.000Z</time>
      </trkpt>
      <trkpt lat="44.82266" lon="0.81663">
        <ele>202.5</ele>
        <time>2026-05-01T15:56:58.000Z</time>
      </trkpt>
      <trkpt lat="44.82268" lon="0.81662">
        <ele>202</ele>
        <time>2026-05-01T15:56:59.000Z</time>
      </trkpt>
      <trkpt lat="44.8227" lon="0.81661">
        <ele>202.5</ele>
        <time>2026-05-01T15:57:00.000Z</time>
      </trkpt>
      <trkpt lat="44.82272" lon="0.81662">
        <ele>202.4</ele>
        <time>2026-05-01T15:57:01.000Z</time>
      </trkpt>
      <trkpt lat="44.82273" lon="0.81661">
        <ele>202.8</ele>
        <time>2026-05-01T15:57:02.000Z</time>
      </trkpt>
      <trkpt lat="44.82273" lon="0.8166">
        <ele>202.4</ele>
        <time>2026-05-01T15:57:03.000Z</time>
      </trkpt>
      <trkpt lat="44.82274" lon="0.81658">
        <ele>202.5</ele>
        <time>2026-05-01T15:57:04.000Z</time>
      </trkpt>
      <trkpt lat="44.82275" lon="0.81656">
        <ele>202.4</ele>
        <time>2026-05-01T15:57:05.000Z</time>
      </trkpt>
      <trkpt lat="44.82276" lon="0.81655">
        <ele>202.2</ele>
        <time>2026-05-01T15:57:06.000Z</time>
      </trkpt>
      <trkpt lat="44.82278" lon="0.81654">
        <ele>202.2</ele>
        <time>2026-05-01T15:57:07.000Z</time>
      </trkpt>
      <trkpt lat="44.82279" lon="0.81653">
        <ele>202</ele>
        <time>2026-05-01T15:57:08.000Z</time>
      </trkpt>
      <trkpt lat="44.8228" lon="0.81652">
        <ele>202.5</ele>
        <time>2026-05-01T15:57:09.000Z</time>
      </trkpt>
      <trkpt lat="44.82282" lon="0.81651">
        <ele>202.5</ele>
        <time>2026-05-01T15:57:10.000Z</time>
      </trkpt>
      <trkpt lat="44.82283" lon="0.8165">
        <ele>202.7</ele>
        <time>2026-05-01T15:57:11.000Z</time>
      </trkpt>
      <trkpt lat="44.82284" lon="0.81649">
        <ele>201.5</ele>
        <time>2026-05-01T15:57:12.000Z</time>
      </trkpt>
      <trkpt lat="44.82284" lon="0.81648">
        <ele>200.4</ele>
        <time>2026-05-01T15:57:13.000Z</time>
      </trkpt>
      <trkpt lat="44.82284" lon="0.81647">
        <ele>200.7</ele>
        <time>2026-05-01T15:57:14.000Z</time>
      </trkpt>
      <trkpt lat="44.82283" lon="0.81647">
        <ele>200.7</ele>
        <time>2026-05-01T15:57:15.000Z</time>
      </trkpt>
      <trkpt lat="44.82283" lon="0.81647">
        <ele>200.7</ele>
        <time>2026-05-01T15:57:16.000Z</time>
      </trkpt>
      <trkpt lat="44.82283" lon="0.81647">
        <ele>200.7</ele>
        <time>2026-05-01T15:57:17.000Z</time>
      </trkpt>
      <trkpt lat="44.82283" lon="0.81647">
        <ele>200.7</ele>
        <time>2026-05-01T15:57:18.000Z</time>
      </trkpt>
      <trkpt lat="44.82283" lon="0.81647">
        <ele>200.6</ele>
        <time>2026-05-01T15:57:19.000Z</time>
      </trkpt>
      <trkpt lat="44.82283" lon="0.81647">
        <ele>200.7</ele>
        <time>2026-05-01T15:57:20.000Z</time>
      </trkpt>
      <trkpt lat="44.82283" lon="0.81647">
        <ele>200.7</ele>
        <time>2026-05-01T15:57:21.000Z</time>
      </trkpt>
      <trkpt lat="44.82284" lon="0.81647">
        <ele>201</ele>
        <time>2026-05-01T15:57:22.000Z</time>
      </trkpt>
      <trkpt lat="44.82285" lon="0.81646">
        <ele>201.3</ele>
        <time>2026-05-01T15:57:23.000Z</time>
      </trkpt>
      <trkpt lat="44.82285" lon="0.81649">
        <ele>201.7</ele>
        <time>2026-05-01T15:57:24.000Z</time>
      </trkpt>
      <trkpt lat="44.82286" lon="0.81648">
        <ele>201.5</ele>
        <time>2026-05-01T15:57:25.000Z</time>
      </trkpt>
      <trkpt lat="44.82288" lon="0.81647">
        <ele>201.4</ele>
        <time>2026-05-01T15:57:26.000Z</time>
      </trkpt>
      <trkpt lat="44.82289" lon="0.81646">
        <ele>201.4</ele>
        <time>2026-05-01T15:57:27.000Z</time>
      </trkpt>
      <trkpt lat="44.82291" lon="0.81645">
        <ele>201.1</ele>
        <time>2026-05-01T15:57:28.000Z</time>
      </trkpt>
      <trkpt lat="44.82293" lon="0.81644">
        <ele>200.7</ele>
        <time>2026-05-01T15:57:29.000Z</time>
      </trkpt>
      <trkpt lat="44.82294" lon="0.81643">
        <ele>200.9</ele>
        <time>2026-05-01T15:57:30.000Z</time>
      </trkpt>
      <trkpt lat="44.82295" lon="0.81642">
        <ele>200.3</ele>
        <time>2026-05-01T15:57:31.000Z</time>
      </trkpt>
      <trkpt lat="44.82294" lon="0.81642">
        <ele>200.5</ele>
        <time>2026-05-01T15:57:32.000Z</time>
      </trkpt>
      <trkpt lat="44.82294" lon="0.81642">
        <ele>200.5</ele>
        <time>2026-05-01T15:57:33.000Z</time>
      </trkpt>
      <trkpt lat="44.82294" lon="0.81642">
        <ele>200.5</ele>
        <time>2026-05-01T15:57:34.000Z</time>
      </trkpt>
      <trkpt lat="44.82294" lon="0.81642">
        <ele>200.6</ele>
        <time>2026-05-01T15:57:35.000Z</time>
      </trkpt>
      <trkpt lat="44.82294" lon="0.81642">
        <ele>200.6</ele>
        <time>2026-05-01T15:57:36.000Z</time>
      </trkpt>
      <trkpt lat="44.82294" lon="0.81642">
        <ele>200.6</ele>
        <time>2026-05-01T15:57:37.000Z</time>
      </trkpt>
      <trkpt lat="44.82294" lon="0.81642">
        <ele>200.6</ele>
        <time>2026-05-01T15:57:38.000Z</time>
      </trkpt>
      <trkpt lat="44.82294" lon="0.81642">
        <ele>200.6</ele>
        <time>2026-05-01T15:57:39.000Z</time>
      </trkpt>
      <trkpt lat="44.82294" lon="0.81642">
        <ele>200.6</ele>
        <time>2026-05-01T15:57:40.000Z</time>
      </trkpt>
      <trkpt lat="44.82294" lon="0.81642">
        <ele>200.6</ele>
        <time>2026-05-01T15:57:41.000Z</time>
      </trkpt>
      <trkpt lat="44.82294" lon="0.81642">
        <ele>200.6</ele>
        <time>2026-05-01T15:57:42.000Z</time>
      </trkpt>
      <trkpt lat="44.82294" lon="0.81641">
        <ele>200.7</ele>
        <time>2026-05-01T15:57:43.000Z</time>
      </trkpt>
      <trkpt lat="44.82294" lon="0.81641">
        <ele>201.1</ele>
        <time>2026-05-01T15:57:44.000Z</time>
      </trkpt>
      <trkpt lat="44.82294" lon="0.81641">
        <ele>201.1</ele>
        <time>2026-05-01T15:57:45.000Z</time>
      </trkpt>
      <trkpt lat="44.82294" lon="0.81641">
        <ele>201.1</ele>
        <time>2026-05-01T15:57:46.000Z</time>
      </trkpt>
      <trkpt lat="44.82294" lon="0.81641">
        <ele>201.1</ele>
        <time>2026-05-01T15:57:47.000Z</time>
      </trkpt>
      <trkpt lat="44.82292" lon="0.81641">
        <ele>201.1</ele>
        <time>2026-05-01T15:57:48.000Z</time>
      </trkpt>
      <trkpt lat="44.82292" lon="0.81641">
        <ele>201</ele>
        <time>2026-05-01T15:57:49.000Z</time>
      </trkpt>
      <trkpt lat="44.8229" lon="0.81642">
        <ele>200.8</ele>
        <time>2026-05-01T15:57:50.000Z</time>
      </trkpt>
      <trkpt lat="44.8229" lon="0.81643">
        <ele>200.8</ele>
        <time>2026-05-01T15:57:51.000Z</time>
      </trkpt>
      <trkpt lat="44.8229" lon="0.81643">
        <ele>200.8</ele>
        <time>2026-05-01T15:57:52.000Z</time>
      </trkpt>
      <trkpt lat="44.8229" lon="0.81643">
        <ele>200.8</ele>
        <time>2026-05-01T15:57:53.000Z</time>
      </trkpt>
      <trkpt lat="44.8229" lon="0.81643">
        <ele>200.8</ele>
        <time>2026-05-01T15:57:54.000Z</time>
      </trkpt>
      <trkpt lat="44.8229" lon="0.81643">
        <ele>200.8</ele>
        <time>2026-05-01T15:57:55.000Z</time>
      </trkpt>
      <trkpt lat="44.8229" lon="0.81643">
        <ele>200.7</ele>
        <time>2026-05-01T15:57:56.000Z</time>
      </trkpt>
      <trkpt lat="44.8229" lon="0.81643">
        <ele>200.9</ele>
        <time>2026-05-01T15:57:57.000Z</time>
      </trkpt>
      <trkpt lat="44.82291" lon="0.81642">
        <ele>200.5</ele>
        <time>2026-05-01T15:57:58.000Z</time>
      </trkpt>
      <trkpt lat="44.82291" lon="0.81642">
        <ele>200.6</ele>
        <time>2026-05-01T15:57:59.000Z</time>
      </trkpt>
      <trkpt lat="44.82291" lon="0.81642">
        <ele>200.6</ele>
        <time>2026-05-01T15:58:00.000Z</time>
      </trkpt>
      <trkpt lat="44.82291" lon="0.81641">
        <ele>200.6</ele>
        <time>2026-05-01T15:58:01.000Z</time>
      </trkpt>
      <trkpt lat="44.82291" lon="0.81641">
        <ele>200.6</ele>
        <time>2026-05-01T15:58:02.000Z</time>
      </trkpt>
      <trkpt lat="44.82291" lon="0.81641">
        <ele>200.6</ele>
        <time>2026-05-01T15:58:03.000Z</time>
      </trkpt>
      <trkpt lat="44.82291" lon="0.81641">
        <ele>200.6</ele>
        <time>2026-05-01T15:58:04.000Z</time>
      </trkpt>
      <trkpt lat="44.82291" lon="0.81641">
        <ele>200.6</ele>
        <time>2026-05-01T15:58:05.000Z</time>
      </trkpt>
      <trkpt lat="44.82291" lon="0.81641">
        <ele>200.6</ele>
        <time>2026-05-01T15:58:06.000Z</time>
      </trkpt>
      <trkpt lat="44.82291" lon="0.81641">
        <ele>200.6</ele>
        <time>2026-05-01T15:58:07.000Z</time>
      </trkpt>
      <trkpt lat="44.82291" lon="0.81641">
        <ele>200.6</ele>
        <time>2026-05-01T15:58:08.000Z</time>
      </trkpt>
      <trkpt lat="44.82291" lon="0.81641">
        <ele>200.6</ele>
        <time>2026-05-01T15:58:09.000Z</time>
      </trkpt>
      <trkpt lat="44.82291" lon="0.81641">
        <ele>200.6</ele>
        <time>2026-05-01T15:58:10.000Z</time>
      </trkpt>
      <trkpt lat="44.82292" lon="0.81641">
        <ele>200.5</ele>
        <time>2026-05-01T15:58:11.000Z</time>
      </trkpt>
      <trkpt lat="44.82292" lon="0.8164">
        <ele>200.7</ele>
        <time>2026-05-01T15:58:12.000Z</time>
      </trkpt>
      <trkpt lat="44.82293" lon="0.8164">
        <ele>201</ele>
        <time>2026-05-01T15:58:13.000Z</time>
      </trkpt>
      <trkpt lat="44.82293" lon="0.8164">
        <ele>201.4</ele>
        <time>2026-05-01T15:58:14.000Z</time>
      </trkpt>
      <trkpt lat="44.82295" lon="0.8164">
        <ele>201</ele>
        <time>2026-05-01T15:58:15.000Z</time>
      </trkpt>
      <trkpt lat="44.82295" lon="0.81641">
        <ele>201</ele>
        <time>2026-05-01T15:58:16.000Z</time>
      </trkpt>
      <trkpt lat="44.82295" lon="0.81641">
        <ele>201</ele>
        <time>2026-05-01T15:58:17.000Z</time>
      </trkpt>
      <trkpt lat="44.82295" lon="0.81641">
        <ele>201</ele>
        <time>2026-05-01T15:58:18.000Z</time>
      </trkpt>
      <trkpt lat="44.82295" lon="0.81641">
        <ele>201</ele>
        <time>2026-05-01T15:58:19.000Z</time>
      </trkpt>
      <trkpt lat="44.82296" lon="0.81641">
        <ele>200.9</ele>
        <time>2026-05-01T15:58:20.000Z</time>
      </trkpt>
      <trkpt lat="44.82296" lon="0.81641">
        <ele>200.9</ele>
        <time>2026-05-01T15:58:21.000Z</time>
      </trkpt>
      <trkpt lat="44.82296" lon="0.81641">
        <ele>200.9</ele>
        <time>2026-05-01T15:58:22.000Z</time>
      </trkpt>
      <trkpt lat="44.82296" lon="0.81641">
        <ele>201.2</ele>
        <time>2026-05-01T15:58:23.000Z</time>
      </trkpt>
      <trkpt lat="44.82296" lon="0.81641">
        <ele>201.2</ele>
        <time>2026-05-01T15:58:24.000Z</time>
      </trkpt>
      <trkpt lat="44.82296" lon="0.81641">
        <ele>201.3</ele>
        <time>2026-05-01T15:58:25.000Z</time>
      </trkpt>
      <trkpt lat="44.82296" lon="0.81641">
        <ele>201.3</ele>
        <time>2026-05-01T15:58:26.000Z</time>
      </trkpt>
      <trkpt lat="44.82296" lon="0.81641">
        <ele>201.3</ele>
        <time>2026-05-01T15:58:27.000Z</time>
      </trkpt>
      <trkpt lat="44.82296" lon="0.81641">
        <ele>201.3</ele>
        <time>2026-05-01T15:58:28.000Z</time>
      </trkpt>
      <trkpt lat="44.82296" lon="0.81641">
        <ele>201.3</ele>
        <time>2026-05-01T15:58:29.000Z</time>
      </trkpt>
      <trkpt lat="44.82296" lon="0.81641">
        <ele>201.3</ele>
        <time>2026-05-01T15:58:30.000Z</time>
      </trkpt>
      <trkpt lat="44.82296" lon="0.81641">
        <ele>201.3</ele>
        <time>2026-05-01T15:58:31.000Z</time>
      </trkpt>
      <trkpt lat="44.82296" lon="0.81641">
        <ele>201.3</ele>
        <time>2026-05-01T15:58:32.000Z</time>
      </trkpt>
      <trkpt lat="44.82296" lon="0.81641">
        <ele>201.3</ele>
        <time>2026-05-01T15:58:33.000Z</time>
      </trkpt>
      <trkpt lat="44.82296" lon="0.81641">
        <ele>201.3</ele>
        <time>2026-05-01T15:58:34.000Z</time>
      </trkpt>
      <trkpt lat="44.82296" lon="0.81641">
        <ele>201.3</ele>
        <time>2026-05-01T15:58:35.000Z</time>
      </trkpt>
      <trkpt lat="44.82296" lon="0.81641">
        <ele>201.3</ele>
        <time>2026-05-01T15:58:36.000Z</time>
      </trkpt>
      <trkpt lat="44.82296" lon="0.81641">
        <ele>201.3</ele>
        <time>2026-05-01T15:58:37.000Z</time>
      </trkpt>
      <trkpt lat="44.82296" lon="0.81641">
        <ele>201.3</ele>
        <time>2026-05-01T15:58:38.000Z</time>
      </trkpt>
      <trkpt lat="44.82296" lon="0.81641">
        <ele>201.3</ele>
        <time>2026-05-01T15:58:39.000Z</time>
      </trkpt>
      <trkpt lat="44.82296" lon="0.81641">
        <ele>201.3</ele>
        <time>2026-05-01T15:58:40.000Z</time>
      </trkpt>
      <trkpt lat="44.82296" lon="0.81641">
        <ele>201.3</ele>
        <time>2026-05-01T15:58:41.000Z</time>
      </trkpt>
      <trkpt lat="44.82296" lon="0.81641">
        <ele>201.3</ele>
        <time>2026-05-01T15:58:42.000Z</time>
      </trkpt>
      <trkpt lat="44.82296" lon="0.81641">
        <ele>201.3</ele>
        <time>2026-05-01T15:58:43.000Z</time>
      </trkpt>
      <trkpt lat="44.82296" lon="0.81641">
        <ele>201.3</ele>
        <time>2026-05-01T15:58:44.000Z</time>
      </trkpt>
      <trkpt lat="44.82296" lon="0.81641">
        <ele>201.3</ele>
        <time>2026-05-01T15:58:45.000Z</time>
      </trkpt>
      <trkpt lat="44.82296" lon="0.81641">
        <ele>201.3</ele>
        <time>2026-05-01T15:58:46.000Z</time>
      </trkpt>
      <trkpt lat="44.82296" lon="0.81641">
        <ele>201.3</ele>
        <time>2026-05-01T15:58:47.000Z</time>
      </trkpt>
      <trkpt lat="44.82296" lon="0.81641">
        <ele>201.3</ele>
        <time>2026-05-01T15:58:48.000Z</time>
      </trkpt>
      <trkpt lat="44.82296" lon="0.8164">
        <ele>201.3</ele>
        <time>2026-05-01T15:58:49.000Z</time>
      </trkpt>
      <trkpt lat="44.82296" lon="0.81639">
        <ele>201.5</ele>
        <time>2026-05-01T15:58:50.000Z</time>
      </trkpt>
      <trkpt lat="44.82297" lon="0.81639">
        <ele>201.7</ele>
        <time>2026-05-01T15:58:51.000Z</time>
      </trkpt>
      <trkpt lat="44.82297" lon="0.81638">
        <ele>201.6</ele>
        <time>2026-05-01T15:58:52.000Z</time>
      </trkpt>
      <trkpt lat="44.82298" lon="0.81637">
        <ele>201.7</ele>
        <time>2026-05-01T15:58:53.000Z</time>
      </trkpt>
      <trkpt lat="44.82299" lon="0.81636">
        <ele>201.8</ele>
        <time>2026-05-01T15:58:54.000Z</time>
      </trkpt>
      <trkpt lat="44.823" lon="0.81635">
        <ele>201.9</ele>
        <time>2026-05-01T15:58:55.000Z</time>
      </trkpt>
      <trkpt lat="44.82301" lon="0.81634">
        <ele>202.1</ele>
        <time>2026-05-01T15:58:56.000Z</time>
      </trkpt>
      <trkpt lat="44.82303" lon="0.81632">
        <ele>202.2</ele>
        <time>2026-05-01T15:58:57.000Z</time>
      </trkpt>
      <trkpt lat="44.82304" lon="0.81631">
        <ele>202</ele>
        <time>2026-05-01T15:58:58.000Z</time>
      </trkpt>
      <trkpt lat="44.82305" lon="0.8163">
        <ele>202</ele>
        <time>2026-05-01T15:58:59.000Z</time>
      </trkpt>
      <trkpt lat="44.82307" lon="0.81629">
        <ele>202.1</ele>
        <time>2026-05-01T15:59:00.000Z</time>
      </trkpt>
      <trkpt lat="44.82308" lon="0.81628">
        <ele>202</ele>
        <time>2026-05-01T15:59:01.000Z</time>
      </trkpt>
      <trkpt lat="44.82309" lon="0.81626">
        <ele>202.5</ele>
        <time>2026-05-01T15:59:02.000Z</time>
      </trkpt>
      <trkpt lat="44.8231" lon="0.81624">
        <ele>202.3</ele>
        <time>2026-05-01T15:59:03.000Z</time>
      </trkpt>
      <trkpt lat="44.82311" lon="0.81623">
        <ele>202.2</ele>
        <time>2026-05-01T15:59:04.000Z</time>
      </trkpt>
      <trkpt lat="44.82312" lon="0.81622">
        <ele>202</ele>
        <time>2026-05-01T15:59:05.000Z</time>
      </trkpt>
      <trkpt lat="44.82313" lon="0.81621">
        <ele>202.3</ele>
        <time>2026-05-01T15:59:06.000Z</time>
      </trkpt>
      <trkpt lat="44.82314" lon="0.81621">
        <ele>201.5</ele>
        <time>2026-05-01T15:59:07.000Z</time>
      </trkpt>
      <trkpt lat="44.82315" lon="0.8162">
        <ele>201.5</ele>
        <time>2026-05-01T15:59:08.000Z</time>
      </trkpt>
      <trkpt lat="44.82316" lon="0.81619">
        <ele>200.8</ele>
        <time>2026-05-01T15:59:09.000Z</time>
      </trkpt>
      <trkpt lat="44.82318" lon="0.81618">
        <ele>200.6</ele>
        <time>2026-05-01T15:59:10.000Z</time>
      </trkpt>
      <trkpt lat="44.82319" lon="0.81616">
        <ele>199.5</ele>
        <time>2026-05-01T15:59:11.000Z</time>
      </trkpt>
      <trkpt lat="44.8232" lon="0.81615">
        <ele>199.7</ele>
        <time>2026-05-01T15:59:12.000Z</time>
      </trkpt>
      <trkpt lat="44.82322" lon="0.81615">
        <ele>199.2</ele>
        <time>2026-05-01T15:59:13.000Z</time>
      </trkpt>
      <trkpt lat="44.82323" lon="0.81613">
        <ele>198.8</ele>
        <time>2026-05-01T15:59:14.000Z</time>
      </trkpt>
      <trkpt lat="44.82324" lon="0.81613">
        <ele>198.2</ele>
        <time>2026-05-01T15:59:15.000Z</time>
      </trkpt>
      <trkpt lat="44.82326" lon="0.81612">
        <ele>198.1</ele>
        <time>2026-05-01T15:59:16.000Z</time>
      </trkpt>
      <trkpt lat="44.82327" lon="0.81611">
        <ele>198.2</ele>
        <time>2026-05-01T15:59:17.000Z</time>
      </trkpt>
      <trkpt lat="44.82328" lon="0.8161">
        <ele>198</ele>
        <time>2026-05-01T15:59:18.000Z</time>
      </trkpt>
      <trkpt lat="44.8233" lon="0.81608">
        <ele>198</ele>
        <time>2026-05-01T15:59:19.000Z</time>
      </trkpt>
      <trkpt lat="44.82332" lon="0.81607">
        <ele>198.4</ele>
        <time>2026-05-01T15:59:20.000Z</time>
      </trkpt>
      <trkpt lat="44.82333" lon="0.81605">
        <ele>198.4</ele>
        <time>2026-05-01T15:59:21.000Z</time>
      </trkpt>
      <trkpt lat="44.82335" lon="0.81604">
        <ele>198.6</ele>
        <time>2026-05-01T15:59:22.000Z</time>
      </trkpt>
      <trkpt lat="44.82336" lon="0.81602">
        <ele>198.7</ele>
        <time>2026-05-01T15:59:23.000Z</time>
      </trkpt>
      <trkpt lat="44.82338" lon="0.816">
        <ele>199.2</ele>
        <time>2026-05-01T15:59:24.000Z</time>
      </trkpt>
      <trkpt lat="44.8234" lon="0.81599">
        <ele>199.2</ele>
        <time>2026-05-01T15:59:25.000Z</time>
      </trkpt>
      <trkpt lat="44.82341" lon="0.81598">
        <ele>199.5</ele>
        <time>2026-05-01T15:59:26.000Z</time>
      </trkpt>
      <trkpt lat="44.82343" lon="0.81596">
        <ele>199.5</ele>
        <time>2026-05-01T15:59:27.000Z</time>
      </trkpt>
      <trkpt lat="44.82344" lon="0.81595">
        <ele>199.3</ele>
        <time>2026-05-01T15:59:28.000Z</time>
      </trkpt>
      <trkpt lat="44.82345" lon="0.81594">
        <ele>199.2</ele>
        <time>2026-05-01T15:59:29.000Z</time>
      </trkpt>
      <trkpt lat="44.82347" lon="0.81593">
        <ele>199.2</ele>
        <time>2026-05-01T15:59:30.000Z</time>
      </trkpt>
      <trkpt lat="44.82348" lon="0.81591">
        <ele>199.1</ele>
        <time>2026-05-01T15:59:31.000Z</time>
      </trkpt>
      <trkpt lat="44.82349" lon="0.8159">
        <ele>198.9</ele>
        <time>2026-05-01T15:59:32.000Z</time>
      </trkpt>
      <trkpt lat="44.82351" lon="0.81589">
        <ele>198.6</ele>
        <time>2026-05-01T15:59:33.000Z</time>
      </trkpt>
      <trkpt lat="44.82352" lon="0.81587">
        <ele>197.7</ele>
        <time>2026-05-01T15:59:34.000Z</time>
      </trkpt>
      <trkpt lat="44.82353" lon="0.81586">
        <ele>197.2</ele>
        <time>2026-05-01T15:59:35.000Z</time>
      </trkpt>
      <trkpt lat="44.82354" lon="0.81585">
        <ele>197.2</ele>
        <time>2026-05-01T15:59:36.000Z</time>
      </trkpt>
      <trkpt lat="44.82356" lon="0.81584">
        <ele>197.2</ele>
        <time>2026-05-01T15:59:37.000Z</time>
      </trkpt>
      <trkpt lat="44.82357" lon="0.81582">
        <ele>196.9</ele>
        <time>2026-05-01T15:59:38.000Z</time>
      </trkpt>
      <trkpt lat="44.82358" lon="0.81581">
        <ele>196.8</ele>
        <time>2026-05-01T15:59:39.000Z</time>
      </trkpt>
      <trkpt lat="44.82359" lon="0.8158">
        <ele>196.1</ele>
        <time>2026-05-01T15:59:40.000Z</time>
      </trkpt>
      <trkpt lat="44.8236" lon="0.81578">
        <ele>195.5</ele>
        <time>2026-05-01T15:59:41.000Z</time>
      </trkpt>
      <trkpt lat="44.82362" lon="0.81577">
        <ele>195.2</ele>
        <time>2026-05-01T15:59:42.000Z</time>
      </trkpt>
      <trkpt lat="44.82363" lon="0.81576">
        <ele>195.5</ele>
        <time>2026-05-01T15:59:43.000Z</time>
      </trkpt>
      <trkpt lat="44.82364" lon="0.81574">
        <ele>195.4</ele>
        <time>2026-05-01T15:59:44.000Z</time>
      </trkpt>
      <trkpt lat="44.82366" lon="0.81573">
        <ele>195.7</ele>
        <time>2026-05-01T15:59:45.000Z</time>
      </trkpt>
      <trkpt lat="44.82367" lon="0.81571">
        <ele>195.9</ele>
        <time>2026-05-01T15:59:46.000Z</time>
      </trkpt>
      <trkpt lat="44.82368" lon="0.8157">
        <ele>195.7</ele>
        <time>2026-05-01T15:59:47.000Z</time>
      </trkpt>
      <trkpt lat="44.82369" lon="0.81569">
        <ele>195.1</ele>
        <time>2026-05-01T15:59:48.000Z</time>
      </trkpt>
      <trkpt lat="44.82371" lon="0.81568">
        <ele>195.3</ele>
        <time>2026-05-01T15:59:49.000Z</time>
      </trkpt>
      <trkpt lat="44.82372" lon="0.81566">
        <ele>195.3</ele>
        <time>2026-05-01T15:59:50.000Z</time>
      </trkpt>
      <trkpt lat="44.82374" lon="0.81565">
        <ele>195.7</ele>
        <time>2026-05-01T15:59:51.000Z</time>
      </trkpt>
      <trkpt lat="44.82375" lon="0.81563">
        <ele>195.8</ele>
        <time>2026-05-01T15:59:52.000Z</time>
      </trkpt>
      <trkpt lat="44.82377" lon="0.81562">
        <ele>195.9</ele>
        <time>2026-05-01T15:59:53.000Z</time>
      </trkpt>
      <trkpt lat="44.82378" lon="0.8156">
        <ele>195.7</ele>
        <time>2026-05-01T15:59:54.000Z</time>
      </trkpt>
      <trkpt lat="44.8238" lon="0.81559">
        <ele>195.8</ele>
        <time>2026-05-01T15:59:55.000Z</time>
      </trkpt>
      <trkpt lat="44.82381" lon="0.81557">
        <ele>196</ele>
        <time>2026-05-01T15:59:56.000Z</time>
      </trkpt>
      <trkpt lat="44.82382" lon="0.81555">
        <ele>196.3</ele>
        <time>2026-05-01T15:59:57.000Z</time>
      </trkpt>
      <trkpt lat="44.82383" lon="0.81554">
        <ele>196.2</ele>
        <time>2026-05-01T15:59:58.000Z</time>
      </trkpt>
      <trkpt lat="44.82384" lon="0.81552">
        <ele>196.3</ele>
        <time>2026-05-01T15:59:59.000Z</time>
      </trkpt>
      <trkpt lat="44.82386" lon="0.81551">
        <ele>196</ele>
        <time>2026-05-01T16:00:00.000Z</time>
      </trkpt>
      <trkpt lat="44.82387" lon="0.81549">
        <ele>195.8</ele>
        <time>2026-05-01T16:00:01.000Z</time>
      </trkpt>
      <trkpt lat="44.82388" lon="0.81547">
        <ele>196</ele>
        <time>2026-05-01T16:00:02.000Z</time>
      </trkpt>
      <trkpt lat="44.82389" lon="0.81546">
        <ele>196</ele>
        <time>2026-05-01T16:00:03.000Z</time>
      </trkpt>
      <trkpt lat="44.82391" lon="0.81544">
        <ele>195.7</ele>
        <time>2026-05-01T16:00:04.000Z</time>
      </trkpt>
      <trkpt lat="44.82392" lon="0.81543">
        <ele>195.9</ele>
        <time>2026-05-01T16:00:05.000Z</time>
      </trkpt>
      <trkpt lat="44.82393" lon="0.81541">
        <ele>195.9</ele>
        <time>2026-05-01T16:00:06.000Z</time>
      </trkpt>
      <trkpt lat="44.82394" lon="0.81539">
        <ele>196</ele>
        <time>2026-05-01T16:00:07.000Z</time>
      </trkpt>
      <trkpt lat="44.82395" lon="0.81537">
        <ele>196.1</ele>
        <time>2026-05-01T16:00:08.000Z</time>
      </trkpt>
      <trkpt lat="44.82396" lon="0.81536">
        <ele>196</ele>
        <time>2026-05-01T16:00:09.000Z</time>
      </trkpt>
      <trkpt lat="44.82398" lon="0.81534">
        <ele>196</ele>
        <time>2026-05-01T16:00:10.000Z</time>
      </trkpt>
      <trkpt lat="44.82398" lon="0.81532">
        <ele>196.3</ele>
        <time>2026-05-01T16:00:11.000Z</time>
      </trkpt>
      <trkpt lat="44.82399" lon="0.81531">
        <ele>196.2</ele>
        <time>2026-05-01T16:00:12.000Z</time>
      </trkpt>
      <trkpt lat="44.82401" lon="0.81529">
        <ele>196.1</ele>
        <time>2026-05-01T16:00:13.000Z</time>
      </trkpt>
      <trkpt lat="44.82402" lon="0.81527">
        <ele>196.1</ele>
        <time>2026-05-01T16:00:14.000Z</time>
      </trkpt>
      <trkpt lat="44.82403" lon="0.81526">
        <ele>195.9</ele>
        <time>2026-05-01T16:00:15.000Z</time>
      </trkpt>
      <trkpt lat="44.82404" lon="0.81524">
        <ele>195.9</ele>
        <time>2026-05-01T16:00:16.000Z</time>
      </trkpt>
      <trkpt lat="44.82405" lon="0.81522">
        <ele>196</ele>
        <time>2026-05-01T16:00:17.000Z</time>
      </trkpt>
      <trkpt lat="44.82407" lon="0.81521">
        <ele>196</ele>
        <time>2026-05-01T16:00:18.000Z</time>
      </trkpt>
      <trkpt lat="44.82408" lon="0.81519">
        <ele>196.1</ele>
        <time>2026-05-01T16:00:19.000Z</time>
      </trkpt>
      <trkpt lat="44.82408" lon="0.81516">
        <ele>196.3</ele>
        <time>2026-05-01T16:00:20.000Z</time>
      </trkpt>
      <trkpt lat="44.8241" lon="0.81514">
        <ele>196.3</ele>
        <time>2026-05-01T16:00:21.000Z</time>
      </trkpt>
      <trkpt lat="44.82411" lon="0.81513">
        <ele>196.5</ele>
        <time>2026-05-01T16:00:22.000Z</time>
      </trkpt>
      <trkpt lat="44.82412" lon="0.81511">
        <ele>196.4</ele>
        <time>2026-05-01T16:00:23.000Z</time>
      </trkpt>
      <trkpt lat="44.82413" lon="0.81509">
        <ele>196.4</ele>
        <time>2026-05-01T16:00:24.000Z</time>
      </trkpt>
      <trkpt lat="44.82414" lon="0.81507">
        <ele>196.3</ele>
        <time>2026-05-01T16:00:25.000Z</time>
      </trkpt>
      <trkpt lat="44.82415" lon="0.81505">
        <ele>196.2</ele>
        <time>2026-05-01T16:00:26.000Z</time>
      </trkpt>
      <trkpt lat="44.82416" lon="0.81502">
        <ele>196.1</ele>
        <time>2026-05-01T16:00:27.000Z</time>
      </trkpt>
      <trkpt lat="44.82417" lon="0.815">
        <ele>195.9</ele>
        <time>2026-05-01T16:00:28.000Z</time>
      </trkpt>
      <trkpt lat="44.82417" lon="0.81498">
        <ele>195.7</ele>
        <time>2026-05-01T16:00:29.000Z</time>
      </trkpt>
      <trkpt lat="44.82418" lon="0.81496">
        <ele>195.6</ele>
        <time>2026-05-01T16:00:30.000Z</time>
      </trkpt>
      <trkpt lat="44.82419" lon="0.81494">
        <ele>195.3</ele>
        <time>2026-05-01T16:00:31.000Z</time>
      </trkpt>
      <trkpt lat="44.8242" lon="0.81492">
        <ele>195</ele>
        <time>2026-05-01T16:00:32.000Z</time>
      </trkpt>
      <trkpt lat="44.82422" lon="0.8149">
        <ele>194.5</ele>
        <time>2026-05-01T16:00:33.000Z</time>
      </trkpt>
      <trkpt lat="44.82423" lon="0.81488">
        <ele>194.3</ele>
        <time>2026-05-01T16:00:34.000Z</time>
      </trkpt>
      <trkpt lat="44.82424" lon="0.81487">
        <ele>194.3</ele>
        <time>2026-05-01T16:00:35.000Z</time>
      </trkpt>
      <trkpt lat="44.82425" lon="0.81485">
        <ele>194</ele>
        <time>2026-05-01T16:00:36.000Z</time>
      </trkpt>
      <trkpt lat="44.82425" lon="0.81483">
        <ele>193.7</ele>
        <time>2026-05-01T16:00:37.000Z</time>
      </trkpt>
      <trkpt lat="44.82426" lon="0.81481">
        <ele>193.3</ele>
        <time>2026-05-01T16:00:38.000Z</time>
      </trkpt>
      <trkpt lat="44.82428" lon="0.81479">
        <ele>193.2</ele>
        <time>2026-05-01T16:00:39.000Z</time>
      </trkpt>
      <trkpt lat="44.82429" lon="0.81477">
        <ele>193.1</ele>
        <time>2026-05-01T16:00:40.000Z</time>
      </trkpt>
      <trkpt lat="44.8243" lon="0.81476">
        <ele>193.4</ele>
        <time>2026-05-01T16:00:41.000Z</time>
      </trkpt>
      <trkpt lat="44.82431" lon="0.81474">
        <ele>193.5</ele>
        <time>2026-05-01T16:00:42.000Z</time>
      </trkpt>
      <trkpt lat="44.82433" lon="0.81472">
        <ele>193.5</ele>
        <time>2026-05-01T16:00:43.000Z</time>
      </trkpt>
      <trkpt lat="44.82434" lon="0.81471">
        <ele>193.7</ele>
        <time>2026-05-01T16:00:44.000Z</time>
      </trkpt>
      <trkpt lat="44.82435" lon="0.8147">
        <ele>193.8</ele>
        <time>2026-05-01T16:00:45.000Z</time>
      </trkpt>
      <trkpt lat="44.82436" lon="0.81468">
        <ele>193.9</ele>
        <time>2026-05-01T16:00:46.000Z</time>
      </trkpt>
      <trkpt lat="44.82438" lon="0.81466">
        <ele>194.3</ele>
        <time>2026-05-01T16:00:47.000Z</time>
      </trkpt>
      <trkpt lat="44.82439" lon="0.81465">
        <ele>194.4</ele>
        <time>2026-05-01T16:00:48.000Z</time>
      </trkpt>
      <trkpt lat="44.8244" lon="0.81463">
        <ele>194.8</ele>
        <time>2026-05-01T16:00:49.000Z</time>
      </trkpt>
      <trkpt lat="44.82442" lon="0.81462">
        <ele>194.7</ele>
        <time>2026-05-01T16:00:50.000Z</time>
      </trkpt>
      <trkpt lat="44.82443" lon="0.8146">
        <ele>194.7</ele>
        <time>2026-05-01T16:00:51.000Z</time>
      </trkpt>
      <trkpt lat="44.82444" lon="0.81458">
        <ele>194.7</ele>
        <time>2026-05-01T16:00:52.000Z</time>
      </trkpt>
      <trkpt lat="44.82445" lon="0.81457">
        <ele>194.6</ele>
        <time>2026-05-01T16:00:53.000Z</time>
      </trkpt>
      <trkpt lat="44.82447" lon="0.81455">
        <ele>194.6</ele>
        <time>2026-05-01T16:00:54.000Z</time>
      </trkpt>
      <trkpt lat="44.82448" lon="0.81454">
        <ele>194.8</ele>
        <time>2026-05-01T16:00:55.000Z</time>
      </trkpt>
      <trkpt lat="44.82449" lon="0.81452">
        <ele>194.7</ele>
        <time>2026-05-01T16:00:56.000Z</time>
      </trkpt>
      <trkpt lat="44.8245" lon="0.81451">
        <ele>194.7</ele>
        <time>2026-05-01T16:00:57.000Z</time>
      </trkpt>
      <trkpt lat="44.82451" lon="0.81449">
        <ele>194.5</ele>
        <time>2026-05-01T16:00:58.000Z</time>
      </trkpt>
      <trkpt lat="44.82453" lon="0.81448">
        <ele>194.8</ele>
        <time>2026-05-01T16:00:59.000Z</time>
      </trkpt>
      <trkpt lat="44.82454" lon="0.81446">
        <ele>194.8</ele>
        <time>2026-05-01T16:01:00.000Z</time>
      </trkpt>
      <trkpt lat="44.82455" lon="0.81445">
        <ele>194.7</ele>
        <time>2026-05-01T16:01:01.000Z</time>
      </trkpt>
      <trkpt lat="44.82456" lon="0.81444">
        <ele>194.7</ele>
        <time>2026-05-01T16:01:02.000Z</time>
      </trkpt>
      <trkpt lat="44.82458" lon="0.81442">
        <ele>195</ele>
        <time>2026-05-01T16:01:03.000Z</time>
      </trkpt>
      <trkpt lat="44.82459" lon="0.81441">
        <ele>195.1</ele>
        <time>2026-05-01T16:01:04.000Z</time>
      </trkpt>
      <trkpt lat="44.8246" lon="0.8144">
        <ele>195.1</ele>
        <time>2026-05-01T16:01:05.000Z</time>
      </trkpt>
      <trkpt lat="44.82461" lon="0.81439">
        <ele>195.2</ele>
        <time>2026-05-01T16:01:06.000Z</time>
      </trkpt>
      <trkpt lat="44.82463" lon="0.81437">
        <ele>195.5</ele>
        <time>2026-05-01T16:01:07.000Z</time>
      </trkpt>
      <trkpt lat="44.82464" lon="0.81436">
        <ele>195.7</ele>
        <time>2026-05-01T16:01:08.000Z</time>
      </trkpt>
      <trkpt lat="44.82466" lon="0.81435">
        <ele>196</ele>
        <time>2026-05-01T16:01:09.000Z</time>
      </trkpt>
      <trkpt lat="44.82467" lon="0.81434">
        <ele>196.1</ele>
        <time>2026-05-01T16:01:10.000Z</time>
      </trkpt>
      <trkpt lat="44.82469" lon="0.81432">
        <ele>195.4</ele>
        <time>2026-05-01T16:01:11.000Z</time>
      </trkpt>
      <trkpt lat="44.82471" lon="0.8143">
        <ele>195.4</ele>
        <time>2026-05-01T16:01:12.000Z</time>
      </trkpt>
      <trkpt lat="44.82472" lon="0.81428">
        <ele>195.9</ele>
        <time>2026-05-01T16:01:13.000Z</time>
      </trkpt>
      <trkpt lat="44.82474" lon="0.81426">
        <ele>196.4</ele>
        <time>2026-05-01T16:01:14.000Z</time>
      </trkpt>
      <trkpt lat="44.82476" lon="0.81425">
        <ele>196.5</ele>
        <time>2026-05-01T16:01:15.000Z</time>
      </trkpt>
      <trkpt lat="44.82478" lon="0.81423">
        <ele>197.2</ele>
        <time>2026-05-01T16:01:16.000Z</time>
      </trkpt>
      <trkpt lat="44.8248" lon="0.8142">
        <ele>197.6</ele>
        <time>2026-05-01T16:01:17.000Z</time>
      </trkpt>
      <trkpt lat="44.82482" lon="0.81418">
        <ele>198.4</ele>
        <time>2026-05-01T16:01:18.000Z</time>
      </trkpt>
      <trkpt lat="44.82484" lon="0.81417">
        <ele>198.3</ele>
        <time>2026-05-01T16:01:19.000Z</time>
      </trkpt>
      <trkpt lat="44.82487" lon="0.81416">
        <ele>198.7</ele>
        <time>2026-05-01T16:01:20.000Z</time>
      </trkpt>
      <trkpt lat="44.82488" lon="0.81416">
        <ele>198.7</ele>
        <time>2026-05-01T16:01:21.000Z</time>
      </trkpt>
      <trkpt lat="44.8249" lon="0.81415">
        <ele>198.7</ele>
        <time>2026-05-01T16:01:22.000Z</time>
      </trkpt>
      <trkpt lat="44.82492" lon="0.81414">
        <ele>199.5</ele>
        <time>2026-05-01T16:01:23.000Z</time>
      </trkpt>
      <trkpt lat="44.82494" lon="0.81414">
        <ele>198.8</ele>
        <time>2026-05-01T16:01:24.000Z</time>
      </trkpt>
      <trkpt lat="44.82496" lon="0.81413">
        <ele>198.3</ele>
        <time>2026-05-01T16:01:25.000Z</time>
      </trkpt>
      <trkpt lat="44.82498" lon="0.81413">
        <ele>198.1</ele>
        <time>2026-05-01T16:01:26.000Z</time>
      </trkpt>
      <trkpt lat="44.82499" lon="0.81412">
        <ele>197.7</ele>
        <time>2026-05-01T16:01:27.000Z</time>
      </trkpt>
      <trkpt lat="44.82501" lon="0.81412">
        <ele>197.5</ele>
        <time>2026-05-01T16:01:28.000Z</time>
      </trkpt>
      <trkpt lat="44.82503" lon="0.81412">
        <ele>197.3</ele>
        <time>2026-05-01T16:01:29.000Z</time>
      </trkpt>
      <trkpt lat="44.82505" lon="0.81411">
        <ele>197.4</ele>
        <time>2026-05-01T16:01:30.000Z</time>
      </trkpt>
      <trkpt lat="44.82506" lon="0.81411">
        <ele>197.4</ele>
        <time>2026-05-01T16:01:31.000Z</time>
      </trkpt>
      <trkpt lat="44.82508" lon="0.8141">
        <ele>197.5</ele>
        <time>2026-05-01T16:01:32.000Z</time>
      </trkpt>
      <trkpt lat="44.82509" lon="0.81409">
        <ele>197.6</ele>
        <time>2026-05-01T16:01:33.000Z</time>
      </trkpt>
      <trkpt lat="44.82511" lon="0.81408">
        <ele>197.6</ele>
        <time>2026-05-01T16:01:34.000Z</time>
      </trkpt>
      <trkpt lat="44.82512" lon="0.81407">
        <ele>197.7</ele>
        <time>2026-05-01T16:01:35.000Z</time>
      </trkpt>
      <trkpt lat="44.82514" lon="0.81406">
        <ele>197.9</ele>
        <time>2026-05-01T16:01:36.000Z</time>
      </trkpt>
      <trkpt lat="44.82515" lon="0.81405">
        <ele>197.5</ele>
        <time>2026-05-01T16:01:37.000Z</time>
      </trkpt>
      <trkpt lat="44.82516" lon="0.81405">
        <ele>197.3</ele>
        <time>2026-05-01T16:01:38.000Z</time>
      </trkpt>
      <trkpt lat="44.82518" lon="0.81405">
        <ele>197</ele>
        <time>2026-05-01T16:01:39.000Z</time>
      </trkpt>
      <trkpt lat="44.82519" lon="0.81405">
        <ele>196.9</ele>
        <time>2026-05-01T16:01:40.000Z</time>
      </trkpt>
      <trkpt lat="44.8252" lon="0.81406">
        <ele>197</ele>
        <time>2026-05-01T16:01:41.000Z</time>
      </trkpt>
      <trkpt lat="44.82522" lon="0.81406">
        <ele>197.2</ele>
        <time>2026-05-01T16:01:42.000Z</time>
      </trkpt>
      <trkpt lat="44.82523" lon="0.81405">
        <ele>197.1</ele>
        <time>2026-05-01T16:01:43.000Z</time>
      </trkpt>
      <trkpt lat="44.82525" lon="0.81404">
        <ele>197.5</ele>
        <time>2026-05-01T16:01:44.000Z</time>
      </trkpt>
      <trkpt lat="44.82526" lon="0.81403">
        <ele>197.4</ele>
        <time>2026-05-01T16:01:45.000Z</time>
      </trkpt>
      <trkpt lat="44.82528" lon="0.81403">
        <ele>197.4</ele>
        <time>2026-05-01T16:01:46.000Z</time>
      </trkpt>
      <trkpt lat="44.82529" lon="0.81402">
        <ele>197.3</ele>
        <time>2026-05-01T16:01:47.000Z</time>
      </trkpt>
      <trkpt lat="44.8253" lon="0.81401">
        <ele>197.4</ele>
        <time>2026-05-01T16:01:48.000Z</time>
      </trkpt>
      <trkpt lat="44.82532" lon="0.814">
        <ele>197.6</ele>
        <time>2026-05-01T16:01:49.000Z</time>
      </trkpt>
      <trkpt lat="44.82533" lon="0.81399">
        <ele>197.4</ele>
        <time>2026-05-01T16:01:50.000Z</time>
      </trkpt>
      <trkpt lat="44.82534" lon="0.81398">
        <ele>197.5</ele>
        <time>2026-05-01T16:01:51.000Z</time>
      </trkpt>
      <trkpt lat="44.82536" lon="0.81398">
        <ele>197.5</ele>
        <time>2026-05-01T16:01:52.000Z</time>
      </trkpt>
      <trkpt lat="44.82537" lon="0.81397">
        <ele>197.8</ele>
        <time>2026-05-01T16:01:53.000Z</time>
      </trkpt>
      <trkpt lat="44.82538" lon="0.81396">
        <ele>198</ele>
        <time>2026-05-01T16:01:54.000Z</time>
      </trkpt>
      <trkpt lat="44.82539" lon="0.81395">
        <ele>198.1</ele>
        <time>2026-05-01T16:01:55.000Z</time>
      </trkpt>
      <trkpt lat="44.8254" lon="0.81395">
        <ele>197.8</ele>
        <time>2026-05-01T16:01:56.000Z</time>
      </trkpt>
      <trkpt lat="44.82542" lon="0.81394">
        <ele>198</ele>
        <time>2026-05-01T16:01:57.000Z</time>
      </trkpt>
      <trkpt lat="44.82543" lon="0.81394">
        <ele>198.1</ele>
        <time>2026-05-01T16:01:58.000Z</time>
      </trkpt>
      <trkpt lat="44.82545" lon="0.81393">
        <ele>198.3</ele>
        <time>2026-05-01T16:01:59.000Z</time>
      </trkpt>
      <trkpt lat="44.82546" lon="0.81392">
        <ele>198.5</ele>
        <time>2026-05-01T16:02:00.000Z</time>
      </trkpt>
      <trkpt lat="44.82547" lon="0.81392">
        <ele>198.2</ele>
        <time>2026-05-01T16:02:01.000Z</time>
      </trkpt>
      <trkpt lat="44.82548" lon="0.81391">
        <ele>198.5</ele>
        <time>2026-05-01T16:02:02.000Z</time>
      </trkpt>
      <trkpt lat="44.8255" lon="0.81391">
        <ele>198.3</ele>
        <time>2026-05-01T16:02:03.000Z</time>
      </trkpt>
      <trkpt lat="44.82551" lon="0.8139">
        <ele>198.6</ele>
        <time>2026-05-01T16:02:04.000Z</time>
      </trkpt>
      <trkpt lat="44.82553" lon="0.8139">
        <ele>198.8</ele>
        <time>2026-05-01T16:02:05.000Z</time>
      </trkpt>
      <trkpt lat="44.82555" lon="0.81389">
        <ele>198.9</ele>
        <time>2026-05-01T16:02:06.000Z</time>
      </trkpt>
      <trkpt lat="44.82556" lon="0.81389">
        <ele>198.9</ele>
        <time>2026-05-01T16:02:07.000Z</time>
      </trkpt>
      <trkpt lat="44.82557" lon="0.81388">
        <ele>199.4</ele>
        <time>2026-05-01T16:02:08.000Z</time>
      </trkpt>
      <trkpt lat="44.82559" lon="0.81388">
        <ele>199.1</ele>
        <time>2026-05-01T16:02:09.000Z</time>
      </trkpt>
      <trkpt lat="44.8256" lon="0.81388">
        <ele>199</ele>
        <time>2026-05-01T16:02:10.000Z</time>
      </trkpt>
      <trkpt lat="44.82562" lon="0.81387">
        <ele>198.9</ele>
        <time>2026-05-01T16:02:11.000Z</time>
      </trkpt>
      <trkpt lat="44.82563" lon="0.81387">
        <ele>199.3</ele>
        <time>2026-05-01T16:02:12.000Z</time>
      </trkpt>
      <trkpt lat="44.82565" lon="0.81388">
        <ele>199.4</ele>
        <time>2026-05-01T16:02:13.000Z</time>
      </trkpt>
      <trkpt lat="44.82566" lon="0.81388">
        <ele>199.5</ele>
        <time>2026-05-01T16:02:14.000Z</time>
      </trkpt>
      <trkpt lat="44.82568" lon="0.81388">
        <ele>199.4</ele>
        <time>2026-05-01T16:02:15.000Z</time>
      </trkpt>
      <trkpt lat="44.8257" lon="0.81388">
        <ele>199.5</ele>
        <time>2026-05-01T16:02:16.000Z</time>
      </trkpt>
      <trkpt lat="44.82571" lon="0.81388">
        <ele>199.8</ele>
        <time>2026-05-01T16:02:17.000Z</time>
      </trkpt>
      <trkpt lat="44.82573" lon="0.81388">
        <ele>200</ele>
        <time>2026-05-01T16:02:18.000Z</time>
      </trkpt>
      <trkpt lat="44.82574" lon="0.81388">
        <ele>200.2</ele>
        <time>2026-05-01T16:02:19.000Z</time>
      </trkpt>
      <trkpt lat="44.82576" lon="0.81388">
        <ele>200.4</ele>
        <time>2026-05-01T16:02:20.000Z</time>
      </trkpt>
      <trkpt lat="44.82577" lon="0.81388">
        <ele>200.6</ele>
        <time>2026-05-01T16:02:21.000Z</time>
      </trkpt>
      <trkpt lat="44.82579" lon="0.81387">
        <ele>200.8</ele>
        <time>2026-05-01T16:02:22.000Z</time>
      </trkpt>
      <trkpt lat="44.8258" lon="0.81387">
        <ele>201.1</ele>
        <time>2026-05-01T16:02:23.000Z</time>
      </trkpt>
      <trkpt lat="44.82581" lon="0.81387">
        <ele>201.9</ele>
        <time>2026-05-01T16:02:24.000Z</time>
      </trkpt>
      <trkpt lat="44.82583" lon="0.81387">
        <ele>202.4</ele>
        <time>2026-05-01T16:02:25.000Z</time>
      </trkpt>
      <trkpt lat="44.82584" lon="0.81387">
        <ele>201.5</ele>
        <time>2026-05-01T16:02:26.000Z</time>
      </trkpt>
      <trkpt lat="44.82586" lon="0.81387">
        <ele>201.7</ele>
        <time>2026-05-01T16:02:27.000Z</time>
      </trkpt>
      <trkpt lat="44.82588" lon="0.81387">
        <ele>201.7</ele>
        <time>2026-05-01T16:02:28.000Z</time>
      </trkpt>
      <trkpt lat="44.82589" lon="0.81388">
        <ele>201.9</ele>
        <time>2026-05-01T16:02:29.000Z</time>
      </trkpt>
      <trkpt lat="44.82591" lon="0.81388">
        <ele>202</ele>
        <time>2026-05-01T16:02:30.000Z</time>
      </trkpt>
      <trkpt lat="44.82592" lon="0.81388">
        <ele>202.5</ele>
        <time>2026-05-01T16:02:31.000Z</time>
      </trkpt>
      <trkpt lat="44.82594" lon="0.81388">
        <ele>202.3</ele>
        <time>2026-05-01T16:02:32.000Z</time>
      </trkpt>
      <trkpt lat="44.82595" lon="0.81388">
        <ele>202.6</ele>
        <time>2026-05-01T16:02:33.000Z</time>
      </trkpt>
      <trkpt lat="44.82597" lon="0.81387">
        <ele>202.7</ele>
        <time>2026-05-01T16:02:34.000Z</time>
      </trkpt>
      <trkpt lat="44.82599" lon="0.81387">
        <ele>202.8</ele>
        <time>2026-05-01T16:02:35.000Z</time>
      </trkpt>
      <trkpt lat="44.826" lon="0.81387">
        <ele>202.3</ele>
        <time>2026-05-01T16:02:36.000Z</time>
      </trkpt>
      <trkpt lat="44.82601" lon="0.81386">
        <ele>202.7</ele>
        <time>2026-05-01T16:02:37.000Z</time>
      </trkpt>
      <trkpt lat="44.82603" lon="0.81385">
        <ele>202.7</ele>
        <time>2026-05-01T16:02:38.000Z</time>
      </trkpt>
      <trkpt lat="44.82604" lon="0.81384">
        <ele>203.1</ele>
        <time>2026-05-01T16:02:39.000Z</time>
      </trkpt>
      <trkpt lat="44.82606" lon="0.81384">
        <ele>203</ele>
        <time>2026-05-01T16:02:40.000Z</time>
      </trkpt>
      <trkpt lat="44.82607" lon="0.81383">
        <ele>202.3</ele>
        <time>2026-05-01T16:02:41.000Z</time>
      </trkpt>
      <trkpt lat="44.82608" lon="0.81382">
        <ele>202.1</ele>
        <time>2026-05-01T16:02:42.000Z</time>
      </trkpt>
      <trkpt lat="44.8261" lon="0.81381">
        <ele>201</ele>
        <time>2026-05-01T16:02:43.000Z</time>
      </trkpt>
      <trkpt lat="44.82612" lon="0.8138">
        <ele>201.1</ele>
        <time>2026-05-01T16:02:44.000Z</time>
      </trkpt>
      <trkpt lat="44.82615" lon="0.81378">
        <ele>201.4</ele>
        <time>2026-05-01T16:02:45.000Z</time>
      </trkpt>
      <trkpt lat="44.82618" lon="0.81378">
        <ele>201.5</ele>
        <time>2026-05-01T16:02:46.000Z</time>
      </trkpt>
      <trkpt lat="44.8262" lon="0.81376">
        <ele>201.7</ele>
        <time>2026-05-01T16:02:47.000Z</time>
      </trkpt>
      <trkpt lat="44.82623" lon="0.81375">
        <ele>203</ele>
        <time>2026-05-01T16:02:48.000Z</time>
      </trkpt>
      <trkpt lat="44.82626" lon="0.81373">
        <ele>203.1</ele>
        <time>2026-05-01T16:02:49.000Z</time>
      </trkpt>
      <trkpt lat="44.82629" lon="0.81372">
        <ele>202.2</ele>
        <time>2026-05-01T16:02:50.000Z</time>
      </trkpt>
      <trkpt lat="44.82632" lon="0.8137">
        <ele>202.1</ele>
        <time>2026-05-01T16:02:51.000Z</time>
      </trkpt>
      <trkpt lat="44.82635" lon="0.81369">
        <ele>201.7</ele>
        <time>2026-05-01T16:02:52.000Z</time>
      </trkpt>
      <trkpt lat="44.82638" lon="0.81368">
        <ele>201.8</ele>
        <time>2026-05-01T16:02:53.000Z</time>
      </trkpt>
      <trkpt lat="44.82642" lon="0.81368">
        <ele>201.4</ele>
        <time>2026-05-01T16:02:54.000Z</time>
      </trkpt>
      <trkpt lat="44.82645" lon="0.81367">
        <ele>201.7</ele>
        <time>2026-05-01T16:02:55.000Z</time>
      </trkpt>
      <trkpt lat="44.82649" lon="0.81367">
        <ele>202.4</ele>
        <time>2026-05-01T16:02:56.000Z</time>
      </trkpt>
      <trkpt lat="44.82652" lon="0.81366">
        <ele>203.6</ele>
        <time>2026-05-01T16:02:57.000Z</time>
      </trkpt>
      <trkpt lat="44.82656" lon="0.81367">
        <ele>204</ele>
        <time>2026-05-01T16:02:58.000Z</time>
      </trkpt>
      <trkpt lat="44.82659" lon="0.81368">
        <ele>204.7</ele>
        <time>2026-05-01T16:02:59.000Z</time>
      </trkpt>
      <trkpt lat="44.82663" lon="0.81368">
        <ele>204.9</ele>
        <time>2026-05-01T16:03:00.000Z</time>
      </trkpt>
      <trkpt lat="44.82666" lon="0.81367">
        <ele>205.2</ele>
        <time>2026-05-01T16:03:01.000Z</time>
      </trkpt>
      <trkpt lat="44.8267" lon="0.81368">
        <ele>206.9</ele>
        <time>2026-05-01T16:03:02.000Z</time>
      </trkpt>
      <trkpt lat="44.82673" lon="0.81368">
        <ele>207.9</ele>
        <time>2026-05-01T16:03:03.000Z</time>
      </trkpt>
      <trkpt lat="44.82676" lon="0.81369">
        <ele>206.7</ele>
        <time>2026-05-01T16:03:04.000Z</time>
      </trkpt>
      <trkpt lat="44.8268" lon="0.8137">
        <ele>207</ele>
        <time>2026-05-01T16:03:05.000Z</time>
      </trkpt>
      <trkpt lat="44.82683" lon="0.81371">
        <ele>207</ele>
        <time>2026-05-01T16:03:06.000Z</time>
      </trkpt>
      <trkpt lat="44.82686" lon="0.81372">
        <ele>205.9</ele>
        <time>2026-05-01T16:03:07.000Z</time>
      </trkpt>
      <trkpt lat="44.82689" lon="0.81373">
        <ele>206.3</ele>
        <time>2026-05-01T16:03:08.000Z</time>
      </trkpt>
      <trkpt lat="44.82692" lon="0.81374">
        <ele>207.8</ele>
        <time>2026-05-01T16:03:09.000Z</time>
      </trkpt>
      <trkpt lat="44.82696" lon="0.81374">
        <ele>208.5</ele>
        <time>2026-05-01T16:03:10.000Z</time>
      </trkpt>
      <trkpt lat="44.82699" lon="0.81374">
        <ele>209</ele>
        <time>2026-05-01T16:03:11.000Z</time>
      </trkpt>
      <trkpt lat="44.82701" lon="0.81374">
        <ele>208.9</ele>
        <time>2026-05-01T16:03:12.000Z</time>
      </trkpt>
      <trkpt lat="44.82704" lon="0.81374">
        <ele>208.4</ele>
        <time>2026-05-01T16:03:13.000Z</time>
      </trkpt>
      <trkpt lat="44.82707" lon="0.81374">
        <ele>207.7</ele>
        <time>2026-05-01T16:03:14.000Z</time>
      </trkpt>
      <trkpt lat="44.8271" lon="0.81375">
        <ele>208</ele>
        <time>2026-05-01T16:03:15.000Z</time>
      </trkpt>
      <trkpt lat="44.82713" lon="0.81375">
        <ele>208.1</ele>
        <time>2026-05-01T16:03:16.000Z</time>
      </trkpt>
      <trkpt lat="44.82716" lon="0.81375">
        <ele>208.1</ele>
        <time>2026-05-01T16:03:17.000Z</time>
      </trkpt>
      <trkpt lat="44.82719" lon="0.81375">
        <ele>208.3</ele>
        <time>2026-05-01T16:03:18.000Z</time>
      </trkpt>
      <trkpt lat="44.82722" lon="0.81375">
        <ele>208.4</ele>
        <time>2026-05-01T16:03:19.000Z</time>
      </trkpt>
      <trkpt lat="44.82725" lon="0.81376">
        <ele>209.3</ele>
        <time>2026-05-01T16:03:20.000Z</time>
      </trkpt>
      <trkpt lat="44.82728" lon="0.81376">
        <ele>209.5</ele>
        <time>2026-05-01T16:03:21.000Z</time>
      </trkpt>
      <trkpt lat="44.82731" lon="0.81377">
        <ele>208.8</ele>
        <time>2026-05-01T16:03:22.000Z</time>
      </trkpt>
      <trkpt lat="44.82734" lon="0.81378">
        <ele>208.7</ele>
        <time>2026-05-01T16:03:23.000Z</time>
      </trkpt>
      <trkpt lat="44.82736" lon="0.81378">
        <ele>208.4</ele>
        <time>2026-05-01T16:03:24.000Z</time>
      </trkpt>
      <trkpt lat="44.82739" lon="0.81379">
        <ele>208.5</ele>
        <time>2026-05-01T16:03:25.000Z</time>
      </trkpt>
      <trkpt lat="44.82742" lon="0.8138">
        <ele>207.7</ele>
        <time>2026-05-01T16:03:26.000Z</time>
      </trkpt>
      <trkpt lat="44.82745" lon="0.8138">
        <ele>207.6</ele>
        <time>2026-05-01T16:03:27.000Z</time>
      </trkpt>
      <trkpt lat="44.82747" lon="0.8138">
        <ele>208.6</ele>
        <time>2026-05-01T16:03:28.000Z</time>
      </trkpt>
      <trkpt lat="44.8275" lon="0.81381">
        <ele>209</ele>
        <time>2026-05-01T16:03:29.000Z</time>
      </trkpt>
      <trkpt lat="44.82753" lon="0.81381">
        <ele>210.3</ele>
        <time>2026-05-01T16:03:30.000Z</time>
      </trkpt>
      <trkpt lat="44.82756" lon="0.81382">
        <ele>209.9</ele>
        <time>2026-05-01T16:03:31.000Z</time>
      </trkpt>
      <trkpt lat="44.82759" lon="0.81383">
        <ele>209.7</ele>
        <time>2026-05-01T16:03:32.000Z</time>
      </trkpt>
      <trkpt lat="44.82762" lon="0.81384">
        <ele>210</ele>
        <time>2026-05-01T16:03:33.000Z</time>
      </trkpt>
      <trkpt lat="44.82765" lon="0.81386">
        <ele>209.9</ele>
        <time>2026-05-01T16:03:34.000Z</time>
      </trkpt>
      <trkpt lat="44.82767" lon="0.81388">
        <ele>209.2</ele>
        <time>2026-05-01T16:03:35.000Z</time>
      </trkpt>
      <trkpt lat="44.8277" lon="0.8139">
        <ele>208.4</ele>
        <time>2026-05-01T16:03:36.000Z</time>
      </trkpt>
      <trkpt lat="44.82774" lon="0.81391">
        <ele>208</ele>
        <time>2026-05-01T16:03:37.000Z</time>
      </trkpt>
      <trkpt lat="44.82777" lon="0.81392">
        <ele>207.8</ele>
        <time>2026-05-01T16:03:38.000Z</time>
      </trkpt>
      <trkpt lat="44.8278" lon="0.81393">
        <ele>208.3</ele>
        <time>2026-05-01T16:03:39.000Z</time>
      </trkpt>
      <trkpt lat="44.82783" lon="0.81395">
        <ele>206.3</ele>
        <time>2026-05-01T16:03:40.000Z</time>
      </trkpt>
      <trkpt lat="44.82786" lon="0.81396">
        <ele>206.3</ele>
        <time>2026-05-01T16:03:41.000Z</time>
      </trkpt>
      <trkpt lat="44.82789" lon="0.81396">
        <ele>205.7</ele>
        <time>2026-05-01T16:03:42.000Z</time>
      </trkpt>
      <trkpt lat="44.82792" lon="0.81397">
        <ele>206.1</ele>
        <time>2026-05-01T16:03:43.000Z</time>
      </trkpt>
      <trkpt lat="44.82795" lon="0.81398">
        <ele>206.3</ele>
        <time>2026-05-01T16:03:44.000Z</time>
      </trkpt>
      <trkpt lat="44.82798" lon="0.81398">
        <ele>206.5</ele>
        <time>2026-05-01T16:03:45.000Z</time>
      </trkpt>
      <trkpt lat="44.82801" lon="0.81399">
        <ele>206.9</ele>
        <time>2026-05-01T16:03:46.000Z</time>
      </trkpt>
      <trkpt lat="44.82804" lon="0.814">
        <ele>206.9</ele>
        <time>2026-05-01T16:03:47.000Z</time>
      </trkpt>
      <trkpt lat="44.82807" lon="0.81402">
        <ele>206.6</ele>
        <time>2026-05-01T16:03:48.000Z</time>
      </trkpt>
      <trkpt lat="44.8281" lon="0.81404">
        <ele>206.5</ele>
        <time>2026-05-01T16:03:49.000Z</time>
      </trkpt>
      <trkpt lat="44.82813" lon="0.81405">
        <ele>205.9</ele>
        <time>2026-05-01T16:03:50.000Z</time>
      </trkpt>
      <trkpt lat="44.82816" lon="0.81407">
        <ele>205.6</ele>
        <time>2026-05-01T16:03:51.000Z</time>
      </trkpt>
      <trkpt lat="44.82819" lon="0.81408">
        <ele>206.2</ele>
        <time>2026-05-01T16:03:52.000Z</time>
      </trkpt>
      <trkpt lat="44.82822" lon="0.81409">
        <ele>205.3</ele>
        <time>2026-05-01T16:03:53.000Z</time>
      </trkpt>
      <trkpt lat="44.82825" lon="0.8141">
        <ele>205.1</ele>
        <time>2026-05-01T16:03:54.000Z</time>
      </trkpt>
      <trkpt lat="44.82828" lon="0.81411">
        <ele>204.2</ele>
        <time>2026-05-01T16:03:55.000Z</time>
      </trkpt>
      <trkpt lat="44.82831" lon="0.81412">
        <ele>203.5</ele>
        <time>2026-05-01T16:03:56.000Z</time>
      </trkpt>
      <trkpt lat="44.82834" lon="0.81413">
        <ele>203.2</ele>
        <time>2026-05-01T16:03:57.000Z</time>
      </trkpt>
      <trkpt lat="44.82838" lon="0.81413">
        <ele>204</ele>
        <time>2026-05-01T16:03:58.000Z</time>
      </trkpt>
      <trkpt lat="44.82841" lon="0.81414">
        <ele>204.4</ele>
        <time>2026-05-01T16:03:59.000Z</time>
      </trkpt>
      <trkpt lat="44.82844" lon="0.81415">
        <ele>204.2</ele>
        <time>2026-05-01T16:04:00.000Z</time>
      </trkpt>
      <trkpt lat="44.82847" lon="0.81417">
        <ele>204.5</ele>
        <time>2026-05-01T16:04:01.000Z</time>
      </trkpt>
      <trkpt lat="44.82851" lon="0.81418">
        <ele>205.1</ele>
        <time>2026-05-01T16:04:02.000Z</time>
      </trkpt>
      <trkpt lat="44.82854" lon="0.81419">
        <ele>206.4</ele>
        <time>2026-05-01T16:04:03.000Z</time>
      </trkpt>
      <trkpt lat="44.82857" lon="0.81421">
        <ele>205.8</ele>
        <time>2026-05-01T16:04:04.000Z</time>
      </trkpt>
      <trkpt lat="44.8286" lon="0.81422">
        <ele>205.6</ele>
        <time>2026-05-01T16:04:05.000Z</time>
      </trkpt>
      <trkpt lat="44.82863" lon="0.81423">
        <ele>205.6</ele>
        <time>2026-05-01T16:04:06.000Z</time>
      </trkpt>
      <trkpt lat="44.82865" lon="0.81424">
        <ele>205.2</ele>
        <time>2026-05-01T16:04:07.000Z</time>
      </trkpt>
      <trkpt lat="44.82868" lon="0.81425">
        <ele>204.4</ele>
        <time>2026-05-01T16:04:08.000Z</time>
      </trkpt>
      <trkpt lat="44.8287" lon="0.81425">
        <ele>204.6</ele>
        <time>2026-05-01T16:04:09.000Z</time>
      </trkpt>
      <trkpt lat="44.82873" lon="0.81426">
        <ele>205.3</ele>
        <time>2026-05-01T16:04:10.000Z</time>
      </trkpt>
      <trkpt lat="44.82876" lon="0.81427">
        <ele>206.4</ele>
        <time>2026-05-01T16:04:11.000Z</time>
      </trkpt>
      <trkpt lat="44.82879" lon="0.81427">
        <ele>206.5</ele>
        <time>2026-05-01T16:04:12.000Z</time>
      </trkpt>
      <trkpt lat="44.82881" lon="0.81427">
        <ele>207.1</ele>
        <time>2026-05-01T16:04:13.000Z</time>
      </trkpt>
      <trkpt lat="44.82885" lon="0.81426">
        <ele>208.3</ele>
        <time>2026-05-01T16:04:14.000Z</time>
      </trkpt>
      <trkpt lat="44.82887" lon="0.81425">
        <ele>207</ele>
        <time>2026-05-01T16:04:15.000Z</time>
      </trkpt>
      <trkpt lat="44.82891" lon="0.81425">
        <ele>206.5</ele>
        <time>2026-05-01T16:04:16.000Z</time>
      </trkpt>
      <trkpt lat="44.82895" lon="0.81426">
        <ele>205.7</ele>
        <time>2026-05-01T16:04:17.000Z</time>
      </trkpt>
      <trkpt lat="44.829" lon="0.81426">
        <ele>205.9</ele>
        <time>2026-05-01T16:04:18.000Z</time>
      </trkpt>
      <trkpt lat="44.82906" lon="0.81427">
        <ele>205.9</ele>
        <time>2026-05-01T16:04:19.000Z</time>
      </trkpt>
      <trkpt lat="44.82911" lon="0.81428">
        <ele>205.6</ele>
        <time>2026-05-01T16:04:20.000Z</time>
      </trkpt>
      <trkpt lat="44.82916" lon="0.81429">
        <ele>204.8</ele>
        <time>2026-05-01T16:04:21.000Z</time>
      </trkpt>
      <trkpt lat="44.82921" lon="0.8143">
        <ele>204.5</ele>
        <time>2026-05-01T16:04:22.000Z</time>
      </trkpt>
      <trkpt lat="44.82925" lon="0.8143">
        <ele>204.6</ele>
        <time>2026-05-01T16:04:23.000Z</time>
      </trkpt>
      <trkpt lat="44.8293" lon="0.8143">
        <ele>204.6</ele>
        <time>2026-05-01T16:04:24.000Z</time>
      </trkpt>
      <trkpt lat="44.82934" lon="0.8143">
        <ele>204.7</ele>
        <time>2026-05-01T16:04:25.000Z</time>
      </trkpt>
      <trkpt lat="44.82938" lon="0.8143">
        <ele>204.8</ele>
        <time>2026-05-01T16:04:26.000Z</time>
      </trkpt>
      <trkpt lat="44.82942" lon="0.8143">
        <ele>204.8</ele>
        <time>2026-05-01T16:04:27.000Z</time>
      </trkpt>
      <trkpt lat="44.82947" lon="0.8143">
        <ele>204.8</ele>
        <time>2026-05-01T16:04:28.000Z</time>
      </trkpt>
      <trkpt lat="44.82951" lon="0.81431">
        <ele>205.1</ele>
        <time>2026-05-01T16:04:29.000Z</time>
      </trkpt>
      <trkpt lat="44.82954" lon="0.81432">
        <ele>205.1</ele>
        <time>2026-05-01T16:04:30.000Z</time>
      </trkpt>
      <trkpt lat="44.82957" lon="0.81433">
        <ele>205.4</ele>
        <time>2026-05-01T16:04:31.000Z</time>
      </trkpt>
      <trkpt lat="44.82961" lon="0.81433">
        <ele>205.6</ele>
        <time>2026-05-01T16:04:32.000Z</time>
      </trkpt>
      <trkpt lat="44.82964" lon="0.81434">
        <ele>205.8</ele>
        <time>2026-05-01T16:04:33.000Z</time>
      </trkpt>
      <trkpt lat="44.82968" lon="0.81434">
        <ele>206.5</ele>
        <time>2026-05-01T16:04:34.000Z</time>
      </trkpt>
      <trkpt lat="44.82971" lon="0.81434">
        <ele>207.3</ele>
        <time>2026-05-01T16:04:35.000Z</time>
      </trkpt>
      <trkpt lat="44.82974" lon="0.81434">
        <ele>209.2</ele>
        <time>2026-05-01T16:04:36.000Z</time>
      </trkpt>
      <trkpt lat="44.82978" lon="0.81434">
        <ele>209.8</ele>
        <time>2026-05-01T16:04:37.000Z</time>
      </trkpt>
      <trkpt lat="44.82981" lon="0.81434">
        <ele>210</ele>
        <time>2026-05-01T16:04:38.000Z</time>
      </trkpt>
      <trkpt lat="44.82984" lon="0.81435">
        <ele>210.1</ele>
        <time>2026-05-01T16:04:39.000Z</time>
      </trkpt>
      <trkpt lat="44.82986" lon="0.81435">
        <ele>210.4</ele>
        <time>2026-05-01T16:04:40.000Z</time>
      </trkpt>
      <trkpt lat="44.82989" lon="0.81436">
        <ele>210.8</ele>
        <time>2026-05-01T16:04:41.000Z</time>
      </trkpt>
      <trkpt lat="44.82992" lon="0.8144">
        <ele>209.9</ele>
        <time>2026-05-01T16:04:42.000Z</time>
      </trkpt>
      <trkpt lat="44.82995" lon="0.81442">
        <ele>209.3</ele>
        <time>2026-05-01T16:04:43.000Z</time>
      </trkpt>
      <trkpt lat="44.82998" lon="0.81443">
        <ele>210.1</ele>
        <time>2026-05-01T16:04:44.000Z</time>
      </trkpt>
      <trkpt lat="44.83001" lon="0.81445">
        <ele>209.9</ele>
        <time>2026-05-01T16:04:45.000Z</time>
      </trkpt>
      <trkpt lat="44.83003" lon="0.81445">
        <ele>208.8</ele>
        <time>2026-05-01T16:04:46.000Z</time>
      </trkpt>
      <trkpt lat="44.83006" lon="0.81446">
        <ele>209.2</ele>
        <time>2026-05-01T16:04:47.000Z</time>
      </trkpt>
      <trkpt lat="44.83007" lon="0.81445">
        <ele>208.9</ele>
        <time>2026-05-01T16:04:48.000Z</time>
      </trkpt>
      <trkpt lat="44.83008" lon="0.81444">
        <ele>208.6</ele>
        <time>2026-05-01T16:04:49.000Z</time>
      </trkpt>
      <trkpt lat="44.83008" lon="0.81443">
        <ele>207.8</ele>
        <time>2026-05-01T16:04:50.000Z</time>
      </trkpt>
      <trkpt lat="44.83008" lon="0.81443">
        <ele>208.3</ele>
        <time>2026-05-01T16:04:51.000Z</time>
      </trkpt>
      <trkpt lat="44.83008" lon="0.81443">
        <ele>209</ele>
        <time>2026-05-01T16:04:52.000Z</time>
      </trkpt>
      <trkpt lat="44.83008" lon="0.81443">
        <ele>208.9</ele>
        <time>2026-05-01T16:04:53.000Z</time>
      </trkpt>
      <trkpt lat="44.83007" lon="0.81442">
        <ele>209.8</ele>
        <time>2026-05-01T16:04:54.000Z</time>
      </trkpt>
      <trkpt lat="44.83007" lon="0.81442">
        <ele>210.1</ele>
        <time>2026-05-01T16:04:55.000Z</time>
      </trkpt>
      <trkpt lat="44.83008" lon="0.81442">
        <ele>209.7</ele>
        <time>2026-05-01T16:04:56.000Z</time>
      </trkpt>
      <trkpt lat="44.83008" lon="0.81441">
        <ele>209.8</ele>
        <time>2026-05-01T16:04:57.000Z</time>
      </trkpt>
      <trkpt lat="44.83008" lon="0.81441">
        <ele>209.7</ele>
        <time>2026-05-01T16:04:58.000Z</time>
      </trkpt>
      <trkpt lat="44.83008" lon="0.81441">
        <ele>210</ele>
        <time>2026-05-01T16:04:59.000Z</time>
      </trkpt>
      <trkpt lat="44.83008" lon="0.81441">
        <ele>210.2</ele>
        <time>2026-05-01T16:05:00.000Z</time>
      </trkpt>
      <trkpt lat="44.83008" lon="0.81441">
        <ele>210.1</ele>
        <time>2026-05-01T16:05:01.000Z</time>
      </trkpt>
      <trkpt lat="44.83008" lon="0.81441">
        <ele>209.5</ele>
        <time>2026-05-01T16:05:02.000Z</time>
      </trkpt>
      <trkpt lat="44.83008" lon="0.81441">
        <ele>209.4</ele>
        <time>2026-05-01T16:05:03.000Z</time>
      </trkpt>
      <trkpt lat="44.83008" lon="0.81441">
        <ele>209.8</ele>
        <time>2026-05-01T16:05:04.000Z</time>
      </trkpt>
      <trkpt lat="44.83008" lon="0.81441">
        <ele>209.4</ele>
        <time>2026-05-01T16:05:05.000Z</time>
      </trkpt>
      <trkpt lat="44.83008" lon="0.81441">
        <ele>209.2</ele>
        <time>2026-05-01T16:05:06.000Z</time>
      </trkpt>
      <trkpt lat="44.83008" lon="0.81441">
        <ele>209.2</ele>
        <time>2026-05-01T16:05:07.000Z</time>
      </trkpt>
      <trkpt lat="44.83008" lon="0.81441">
        <ele>209</ele>
        <time>2026-05-01T16:05:08.000Z</time>
      </trkpt>
      <trkpt lat="44.83008" lon="0.81441">
        <ele>209</ele>
        <time>2026-05-01T16:05:09.000Z</time>
      </trkpt>
      <trkpt lat="44.83008" lon="0.81441">
        <ele>209</ele>
        <time>2026-05-01T16:05:10.000Z</time>
      </trkpt>
      <trkpt lat="44.83008" lon="0.81442">
        <ele>209.7</ele>
        <time>2026-05-01T16:05:11.000Z</time>
      </trkpt>
      <trkpt lat="44.83008" lon="0.81442">
        <ele>210</ele>
        <time>2026-05-01T16:05:12.000Z</time>
      </trkpt>
      <trkpt lat="44.83008" lon="0.81443">
        <ele>210.7</ele>
        <time>2026-05-01T16:05:13.000Z</time>
      </trkpt>
      <trkpt lat="44.83007" lon="0.81443">
        <ele>210.6</ele>
        <time>2026-05-01T16:05:14.000Z</time>
      </trkpt>
      <trkpt lat="44.83007" lon="0.81443">
        <ele>210.4</ele>
        <time>2026-05-01T16:05:15.000Z</time>
      </trkpt>
      <trkpt lat="44.83007" lon="0.81442">
        <ele>210.4</ele>
        <time>2026-05-01T16:05:16.000Z</time>
      </trkpt>
      <trkpt lat="44.83007" lon="0.81442">
        <ele>210.4</ele>
        <time>2026-05-01T16:05:17.000Z</time>
      </trkpt>
      <trkpt lat="44.83009" lon="0.81441">
        <ele>210.7</ele>
        <time>2026-05-01T16:05:18.000Z</time>
      </trkpt>
      <trkpt lat="44.8301" lon="0.81441">
        <ele>210.1</ele>
        <time>2026-05-01T16:05:19.000Z</time>
      </trkpt>
      <trkpt lat="44.83011" lon="0.81441">
        <ele>210.1</ele>
        <time>2026-05-01T16:05:20.000Z</time>
      </trkpt>
      <trkpt lat="44.83013" lon="0.81442">
        <ele>210.3</ele>
        <time>2026-05-01T16:05:21.000Z</time>
      </trkpt>
      <trkpt lat="44.83014" lon="0.81443">
        <ele>209.6</ele>
        <time>2026-05-01T16:05:22.000Z</time>
      </trkpt>
      <trkpt lat="44.83015" lon="0.81442">
        <ele>209.5</ele>
        <time>2026-05-01T16:05:23.000Z</time>
      </trkpt>
      <trkpt lat="44.83017" lon="0.8144">
        <ele>209.1</ele>
        <time>2026-05-01T16:05:24.000Z</time>
      </trkpt>
      <trkpt lat="44.83018" lon="0.81441">
        <ele>208.2</ele>
        <time>2026-05-01T16:05:25.000Z</time>
      </trkpt>
      <trkpt lat="44.83018" lon="0.81442">
        <ele>208.1</ele>
        <time>2026-05-01T16:05:26.000Z</time>
      </trkpt>
      <trkpt lat="44.83018" lon="0.81442">
        <ele>208</ele>
        <time>2026-05-01T16:05:27.000Z</time>
      </trkpt>
      <trkpt lat="44.83019" lon="0.81442">
        <ele>207.7</ele>
        <time>2026-05-01T16:05:28.000Z</time>
      </trkpt>
      <trkpt lat="44.8302" lon="0.81443">
        <ele>207.6</ele>
        <time>2026-05-01T16:05:29.000Z</time>
      </trkpt>
      <trkpt lat="44.83021" lon="0.81444">
        <ele>207.3</ele>
        <time>2026-05-01T16:05:30.000Z</time>
      </trkpt>
      <trkpt lat="44.83022" lon="0.81443">
        <ele>206.8</ele>
        <time>2026-05-01T16:05:31.000Z</time>
      </trkpt>
      <trkpt lat="44.83024" lon="0.81442">
        <ele>207.1</ele>
        <time>2026-05-01T16:05:32.000Z</time>
      </trkpt>
      <trkpt lat="44.83025" lon="0.81442">
        <ele>205.6</ele>
        <time>2026-05-01T16:05:33.000Z</time>
      </trkpt>
      <trkpt lat="44.83027" lon="0.81442">
        <ele>206.3</ele>
        <time>2026-05-01T16:05:34.000Z</time>
      </trkpt>
      <trkpt lat="44.83028" lon="0.81443">
        <ele>205.7</ele>
        <time>2026-05-01T16:05:35.000Z</time>
      </trkpt>
      <trkpt lat="44.8303" lon="0.81444">
        <ele>205.8</ele>
        <time>2026-05-01T16:05:36.000Z</time>
      </trkpt>
      <trkpt lat="44.83031" lon="0.81445">
        <ele>206.2</ele>
        <time>2026-05-01T16:05:37.000Z</time>
      </trkpt>
      <trkpt lat="44.83033" lon="0.81445">
        <ele>204.9</ele>
        <time>2026-05-01T16:05:38.000Z</time>
      </trkpt>
      <trkpt lat="44.83034" lon="0.81446">
        <ele>204.8</ele>
        <time>2026-05-01T16:05:39.000Z</time>
      </trkpt>
      <trkpt lat="44.83035" lon="0.81446">
        <ele>203.7</ele>
        <time>2026-05-01T16:05:40.000Z</time>
      </trkpt>
      <trkpt lat="44.83037" lon="0.81447">
        <ele>202.4</ele>
        <time>2026-05-01T16:05:41.000Z</time>
      </trkpt>
      <trkpt lat="44.83038" lon="0.81448">
        <ele>200</ele>
        <time>2026-05-01T16:05:42.000Z</time>
      </trkpt>
      <trkpt lat="44.83039" lon="0.81448">
        <ele>200</ele>
        <time>2026-05-01T16:05:43.000Z</time>
      </trkpt>
      <trkpt lat="44.8304" lon="0.81448">
        <ele>200.2</ele>
        <time>2026-05-01T16:05:44.000Z</time>
      </trkpt>
      <trkpt lat="44.83041" lon="0.81448">
        <ele>201.4</ele>
        <time>2026-05-01T16:05:45.000Z</time>
      </trkpt>
      <trkpt lat="44.83042" lon="0.81448">
        <ele>201.3</ele>
        <time>2026-05-01T16:05:46.000Z</time>
      </trkpt>
      <trkpt lat="44.83043" lon="0.81447">
        <ele>201</ele>
        <time>2026-05-01T16:05:47.000Z</time>
      </trkpt>
      <trkpt lat="44.83044" lon="0.81447">
        <ele>201.2</ele>
        <time>2026-05-01T16:05:48.000Z</time>
      </trkpt>
      <trkpt lat="44.83044" lon="0.81446">
        <ele>201.2</ele>
        <time>2026-05-01T16:05:49.000Z</time>
      </trkpt>
      <trkpt lat="44.83044" lon="0.81446">
        <ele>201.2</ele>
        <time>2026-05-01T16:05:50.000Z</time>
      </trkpt>
      <trkpt lat="44.83044" lon="0.81446">
        <ele>201.2</ele>
        <time>2026-05-01T16:05:51.000Z</time>
      </trkpt>
      <trkpt lat="44.83044" lon="0.81446">
        <ele>201.2</ele>
        <time>2026-05-01T16:05:52.000Z</time>
      </trkpt>
      <trkpt lat="44.83044" lon="0.81446">
        <ele>201.2</ele>
        <time>2026-05-01T16:05:53.000Z</time>
      </trkpt>
      <trkpt lat="44.83045" lon="0.81445">
        <ele>201.6</ele>
        <time>2026-05-01T16:05:54.000Z</time>
      </trkpt>
      <trkpt lat="44.83046" lon="0.81444">
        <ele>201.7</ele>
        <time>2026-05-01T16:05:55.000Z</time>
      </trkpt>
      <trkpt lat="44.83047" lon="0.81443">
        <ele>202.6</ele>
        <time>2026-05-01T16:05:56.000Z</time>
      </trkpt>
      <trkpt lat="44.83048" lon="0.81442">
        <ele>203.1</ele>
        <time>2026-05-01T16:05:57.000Z</time>
      </trkpt>
      <trkpt lat="44.83049" lon="0.81442">
        <ele>203.5</ele>
        <time>2026-05-01T16:05:58.000Z</time>
      </trkpt>
      <trkpt lat="44.83051" lon="0.81441">
        <ele>203.7</ele>
        <time>2026-05-01T16:05:59.000Z</time>
      </trkpt>
      <trkpt lat="44.83052" lon="0.81441">
        <ele>204.6</ele>
        <time>2026-05-01T16:06:00.000Z</time>
      </trkpt>
      <trkpt lat="44.83053" lon="0.81441">
        <ele>204.7</ele>
        <time>2026-05-01T16:06:01.000Z</time>
      </trkpt>
      <trkpt lat="44.83055" lon="0.81441">
        <ele>205.9</ele>
        <time>2026-05-01T16:06:02.000Z</time>
      </trkpt>
      <trkpt lat="44.83057" lon="0.81441">
        <ele>206.4</ele>
        <time>2026-05-01T16:06:03.000Z</time>
      </trkpt>
      <trkpt lat="44.83058" lon="0.81441">
        <ele>206.3</ele>
        <time>2026-05-01T16:06:04.000Z</time>
      </trkpt>
      <trkpt lat="44.8306" lon="0.81441">
        <ele>206.5</ele>
        <time>2026-05-01T16:06:05.000Z</time>
      </trkpt>
      <trkpt lat="44.83061" lon="0.81441">
        <ele>206.3</ele>
        <time>2026-05-01T16:06:06.000Z</time>
      </trkpt>
      <trkpt lat="44.83062" lon="0.81441">
        <ele>207.8</ele>
        <time>2026-05-01T16:06:07.000Z</time>
      </trkpt>
      <trkpt lat="44.83064" lon="0.81442">
        <ele>207.6</ele>
        <time>2026-05-01T16:06:08.000Z</time>
      </trkpt>
      <trkpt lat="44.83065" lon="0.81442">
        <ele>208.1</ele>
        <time>2026-05-01T16:06:09.000Z</time>
      </trkpt>
      <trkpt lat="44.83067" lon="0.81442">
        <ele>208.1</ele>
        <time>2026-05-01T16:06:10.000Z</time>
      </trkpt>
      <trkpt lat="44.83068" lon="0.81443">
        <ele>209.1</ele>
        <time>2026-05-01T16:06:11.000Z</time>
      </trkpt>
      <trkpt lat="44.83069" lon="0.81444">
        <ele>209.5</ele>
        <time>2026-05-01T16:06:12.000Z</time>
      </trkpt>
      <trkpt lat="44.83071" lon="0.81444">
        <ele>210.2</ele>
        <time>2026-05-01T16:06:13.000Z</time>
      </trkpt>
      <trkpt lat="44.83072" lon="0.81444">
        <ele>210.9</ele>
        <time>2026-05-01T16:06:14.000Z</time>
      </trkpt>
      <trkpt lat="44.83073" lon="0.81445">
        <ele>211</ele>
        <time>2026-05-01T16:06:15.000Z</time>
      </trkpt>
      <trkpt lat="44.83074" lon="0.81445">
        <ele>212.1</ele>
        <time>2026-05-01T16:06:16.000Z</time>
      </trkpt>
      <trkpt lat="44.83076" lon="0.81443">
        <ele>212.2</ele>
        <time>2026-05-01T16:06:17.000Z</time>
      </trkpt>
      <trkpt lat="44.83077" lon="0.81445">
        <ele>212.7</ele>
        <time>2026-05-01T16:06:18.000Z</time>
      </trkpt>
      <trkpt lat="44.83078" lon="0.81446">
        <ele>212.5</ele>
        <time>2026-05-01T16:06:19.000Z</time>
      </trkpt>
      <trkpt lat="44.8308" lon="0.81448">
        <ele>211.8</ele>
        <time>2026-05-01T16:06:20.000Z</time>
      </trkpt>
      <trkpt lat="44.83081" lon="0.81449">
        <ele>211.6</ele>
        <time>2026-05-01T16:06:21.000Z</time>
      </trkpt>
      <trkpt lat="44.83082" lon="0.8145">
        <ele>211</ele>
        <time>2026-05-01T16:06:22.000Z</time>
      </trkpt>
      <trkpt lat="44.83083" lon="0.81451">
        <ele>210.8</ele>
        <time>2026-05-01T16:06:23.000Z</time>
      </trkpt>
      <trkpt lat="44.83085" lon="0.81453">
        <ele>210.5</ele>
        <time>2026-05-01T16:06:24.000Z</time>
      </trkpt>
      <trkpt lat="44.83086" lon="0.81454">
        <ele>210.5</ele>
        <time>2026-05-01T16:06:25.000Z</time>
      </trkpt>
      <trkpt lat="44.83087" lon="0.81455">
        <ele>210.2</ele>
        <time>2026-05-01T16:06:26.000Z</time>
      </trkpt>
      <trkpt lat="44.83088" lon="0.81455">
        <ele>209.4</ele>
        <time>2026-05-01T16:06:27.000Z</time>
      </trkpt>
      <trkpt lat="44.8309" lon="0.81454">
        <ele>210.7</ele>
        <time>2026-05-01T16:06:28.000Z</time>
      </trkpt>
      <trkpt lat="44.83092" lon="0.81453">
        <ele>211.3</ele>
        <time>2026-05-01T16:06:29.000Z</time>
      </trkpt>
      <trkpt lat="44.83093" lon="0.81452">
        <ele>212.3</ele>
        <time>2026-05-01T16:06:30.000Z</time>
      </trkpt>
      <trkpt lat="44.83095" lon="0.81452">
        <ele>212.4</ele>
        <time>2026-05-01T16:06:31.000Z</time>
      </trkpt>
      <trkpt lat="44.83096" lon="0.81452">
        <ele>212.6</ele>
        <time>2026-05-01T16:06:32.000Z</time>
      </trkpt>
      <trkpt lat="44.83099" lon="0.81451">
        <ele>213</ele>
        <time>2026-05-01T16:06:33.000Z</time>
      </trkpt>
      <trkpt lat="44.83101" lon="0.8145">
        <ele>212.8</ele>
        <time>2026-05-01T16:06:34.000Z</time>
      </trkpt>
      <trkpt lat="44.83105" lon="0.81451">
        <ele>211.6</ele>
        <time>2026-05-01T16:06:35.000Z</time>
      </trkpt>
      <trkpt lat="44.83109" lon="0.81451">
        <ele>211.9</ele>
        <time>2026-05-01T16:06:36.000Z</time>
      </trkpt>
      <trkpt lat="44.83114" lon="0.81452">
        <ele>212</ele>
        <time>2026-05-01T16:06:37.000Z</time>
      </trkpt>
      <trkpt lat="44.83119" lon="0.81454">
        <ele>212.6</ele>
        <time>2026-05-01T16:06:38.000Z</time>
      </trkpt>
      <trkpt lat="44.83124" lon="0.81454">
        <ele>213.5</ele>
        <time>2026-05-01T16:06:39.000Z</time>
      </trkpt>
      <trkpt lat="44.83129" lon="0.81455">
        <ele>214.3</ele>
        <time>2026-05-01T16:06:40.000Z</time>
      </trkpt>
      <trkpt lat="44.83134" lon="0.81456">
        <ele>214.9</ele>
        <time>2026-05-01T16:06:41.000Z</time>
      </trkpt>
      <trkpt lat="44.83138" lon="0.81456">
        <ele>215.2</ele>
        <time>2026-05-01T16:06:42.000Z</time>
      </trkpt>
      <trkpt lat="44.83144" lon="0.81458">
        <ele>215.3</ele>
        <time>2026-05-01T16:06:43.000Z</time>
      </trkpt>
      <trkpt lat="44.83149" lon="0.81458">
        <ele>216.4</ele>
        <time>2026-05-01T16:06:44.000Z</time>
      </trkpt>
      <trkpt lat="44.83153" lon="0.81459">
        <ele>216.4</ele>
        <time>2026-05-01T16:06:45.000Z</time>
      </trkpt>
      <trkpt lat="44.83158" lon="0.8146">
        <ele>216.5</ele>
        <time>2026-05-01T16:06:46.000Z</time>
      </trkpt>
      <trkpt lat="44.83163" lon="0.8146">
        <ele>216.4</ele>
        <time>2026-05-01T16:06:47.000Z</time>
      </trkpt>
      <trkpt lat="44.83168" lon="0.81461">
        <ele>217.5</ele>
        <time>2026-05-01T16:06:48.000Z</time>
      </trkpt>
      <trkpt lat="44.83172" lon="0.81461">
        <ele>217.2</ele>
        <time>2026-05-01T16:06:49.000Z</time>
      </trkpt>
      <trkpt lat="44.83177" lon="0.81461">
        <ele>217.3</ele>
        <time>2026-05-01T16:06:50.000Z</time>
      </trkpt>
      <trkpt lat="44.83181" lon="0.81462">
        <ele>217.8</ele>
        <time>2026-05-01T16:06:51.000Z</time>
      </trkpt>
      <trkpt lat="44.83185" lon="0.81463">
        <ele>217.7</ele>
        <time>2026-05-01T16:06:52.000Z</time>
      </trkpt>
      <trkpt lat="44.8319" lon="0.81464">
        <ele>217.9</ele>
        <time>2026-05-01T16:06:53.000Z</time>
      </trkpt>
      <trkpt lat="44.83195" lon="0.81464">
        <ele>218.7</ele>
        <time>2026-05-01T16:06:54.000Z</time>
      </trkpt>
      <trkpt lat="44.832" lon="0.81465">
        <ele>219</ele>
        <time>2026-05-01T16:06:55.000Z</time>
      </trkpt>
      <trkpt lat="44.83205" lon="0.81466">
        <ele>219.3</ele>
        <time>2026-05-01T16:06:56.000Z</time>
      </trkpt>
      <trkpt lat="44.83209" lon="0.81468">
        <ele>219.1</ele>
        <time>2026-05-01T16:06:57.000Z</time>
      </trkpt>
      <trkpt lat="44.83213" lon="0.81469">
        <ele>219.7</ele>
        <time>2026-05-01T16:06:58.000Z</time>
      </trkpt>
      <trkpt lat="44.83218" lon="0.81469">
        <ele>220.5</ele>
        <time>2026-05-01T16:06:59.000Z</time>
      </trkpt>
      <trkpt lat="44.83223" lon="0.81469">
        <ele>221.4</ele>
        <time>2026-05-01T16:07:00.000Z</time>
      </trkpt>
      <trkpt lat="44.83228" lon="0.81469">
        <ele>221.3</ele>
        <time>2026-05-01T16:07:01.000Z</time>
      </trkpt>
      <trkpt lat="44.83233" lon="0.8147">
        <ele>221.6</ele>
        <time>2026-05-01T16:07:02.000Z</time>
      </trkpt>
      <trkpt lat="44.83238" lon="0.81471">
        <ele>222.3</ele>
        <time>2026-05-01T16:07:03.000Z</time>
      </trkpt>
      <trkpt lat="44.83243" lon="0.81471">
        <ele>222.3</ele>
        <time>2026-05-01T16:07:04.000Z</time>
      </trkpt>
      <trkpt lat="44.83248" lon="0.81471">
        <ele>222.6</ele>
        <time>2026-05-01T16:07:05.000Z</time>
      </trkpt>
      <trkpt lat="44.83253" lon="0.81471">
        <ele>222.7</ele>
        <time>2026-05-01T16:07:06.000Z</time>
      </trkpt>
      <trkpt lat="44.83257" lon="0.81471">
        <ele>222.2</ele>
        <time>2026-05-01T16:07:07.000Z</time>
      </trkpt>
      <trkpt lat="44.83262" lon="0.81471">
        <ele>222</ele>
        <time>2026-05-01T16:07:08.000Z</time>
      </trkpt>
      <trkpt lat="44.83265" lon="0.81471">
        <ele>222.8</ele>
        <time>2026-05-01T16:07:09.000Z</time>
      </trkpt>
      <trkpt lat="44.83268" lon="0.81472">
        <ele>222.8</ele>
        <time>2026-05-01T16:07:10.000Z</time>
      </trkpt>
      <trkpt lat="44.83271" lon="0.81473">
        <ele>223.5</ele>
        <time>2026-05-01T16:07:11.000Z</time>
      </trkpt>
      <trkpt lat="44.83274" lon="0.81474">
        <ele>224</ele>
        <time>2026-05-01T16:07:12.000Z</time>
      </trkpt>
      <trkpt lat="44.83276" lon="0.81476">
        <ele>223.9</ele>
        <time>2026-05-01T16:07:13.000Z</time>
      </trkpt>
      <trkpt lat="44.83279" lon="0.81477">
        <ele>224.1</ele>
        <time>2026-05-01T16:07:14.000Z</time>
      </trkpt>
      <trkpt lat="44.83279" lon="0.81476">
        <ele>224.2</ele>
        <time>2026-05-01T16:07:15.000Z</time>
      </trkpt>
      <trkpt lat="44.83281" lon="0.81476">
        <ele>223.9</ele>
        <time>2026-05-01T16:07:16.000Z</time>
      </trkpt>
      <trkpt lat="44.83283" lon="0.81476">
        <ele>224.1</ele>
        <time>2026-05-01T16:07:17.000Z</time>
      </trkpt>
      <trkpt lat="44.83283" lon="0.81476">
        <ele>225.1</ele>
        <time>2026-05-01T16:07:18.000Z</time>
      </trkpt>
      <trkpt lat="44.83285" lon="0.81476">
        <ele>225.5</ele>
        <time>2026-05-01T16:07:19.000Z</time>
      </trkpt>
      <trkpt lat="44.83287" lon="0.81477">
        <ele>223.4</ele>
        <time>2026-05-01T16:07:20.000Z</time>
      </trkpt>
      <trkpt lat="44.83289" lon="0.81478">
        <ele>222.6</ele>
        <time>2026-05-01T16:07:21.000Z</time>
      </trkpt>
      <trkpt lat="44.83291" lon="0.8148">
        <ele>222.4</ele>
        <time>2026-05-01T16:07:22.000Z</time>
      </trkpt>
      <trkpt lat="44.83292" lon="0.81482">
        <ele>221.3</ele>
        <time>2026-05-01T16:07:23.000Z</time>
      </trkpt>
      <trkpt lat="44.83294" lon="0.81483">
        <ele>221.6</ele>
        <time>2026-05-01T16:07:24.000Z</time>
      </trkpt>
      <trkpt lat="44.83296" lon="0.81484">
        <ele>222.6</ele>
        <time>2026-05-01T16:07:25.000Z</time>
      </trkpt>
      <trkpt lat="44.83297" lon="0.81485">
        <ele>222.6</ele>
        <time>2026-05-01T16:07:26.000Z</time>
      </trkpt>
      <trkpt lat="44.83294" lon="0.81483">
        <ele>223.8</ele>
        <time>2026-05-01T16:07:27.000Z</time>
      </trkpt>
      <trkpt lat="44.83294" lon="0.81483">
        <ele>224.3</ele>
        <time>2026-05-01T16:07:28.000Z</time>
      </trkpt>
      <trkpt lat="44.83293" lon="0.81485">
        <ele>224.3</ele>
        <time>2026-05-01T16:07:29.000Z</time>
      </trkpt>
      <trkpt lat="44.83293" lon="0.81485">
        <ele>224.5</ele>
        <time>2026-05-01T16:07:30.000Z</time>
      </trkpt>
      <trkpt lat="44.83292" lon="0.81485">
        <ele>224.5</ele>
        <time>2026-05-01T16:07:31.000Z</time>
      </trkpt>
      <trkpt lat="44.83292" lon="0.81485">
        <ele>224.6</ele>
        <time>2026-05-01T16:07:32.000Z</time>
      </trkpt>
      <trkpt lat="44.83292" lon="0.81485">
        <ele>223.9</ele>
        <time>2026-05-01T16:07:33.000Z</time>
      </trkpt>
      <trkpt lat="44.83292" lon="0.81485">
        <ele>224.3</ele>
        <time>2026-05-01T16:07:34.000Z</time>
      </trkpt>
      <trkpt lat="44.83293" lon="0.81485">
        <ele>224.4</ele>
        <time>2026-05-01T16:07:35.000Z</time>
      </trkpt>
      <trkpt lat="44.83294" lon="0.81485">
        <ele>224.6</ele>
        <time>2026-05-01T16:07:36.000Z</time>
      </trkpt>
      <trkpt lat="44.83295" lon="0.81485">
        <ele>223.9</ele>
        <time>2026-05-01T16:07:37.000Z</time>
      </trkpt>
      <trkpt lat="44.83297" lon="0.81486">
        <ele>223.6</ele>
        <time>2026-05-01T16:07:38.000Z</time>
      </trkpt>
      <trkpt lat="44.83297" lon="0.81488">
        <ele>222.6</ele>
        <time>2026-05-01T16:07:39.000Z</time>
      </trkpt>
      <trkpt lat="44.83298" lon="0.81488">
        <ele>222.6</ele>
        <time>2026-05-01T16:07:40.000Z</time>
      </trkpt>
      <trkpt lat="44.833" lon="0.81489">
        <ele>222.2</ele>
        <time>2026-05-01T16:07:41.000Z</time>
      </trkpt>
      <trkpt lat="44.833" lon="0.81489">
        <ele>222.1</ele>
        <time>2026-05-01T16:07:42.000Z</time>
      </trkpt>
      <trkpt lat="44.83301" lon="0.81489">
        <ele>222.1</ele>
        <time>2026-05-01T16:07:43.000Z</time>
      </trkpt>
      <trkpt lat="44.83302" lon="0.81489">
        <ele>221.9</ele>
        <time>2026-05-01T16:07:44.000Z</time>
      </trkpt>
      <trkpt lat="44.83302" lon="0.81489">
        <ele>221.8</ele>
        <time>2026-05-01T16:07:45.000Z</time>
      </trkpt>
      <trkpt lat="44.83302" lon="0.81489">
        <ele>222</ele>
        <time>2026-05-01T16:07:46.000Z</time>
      </trkpt>
      <trkpt lat="44.83303" lon="0.81489">
        <ele>221.6</ele>
        <time>2026-05-01T16:07:47.000Z</time>
      </trkpt>
      <trkpt lat="44.83304" lon="0.8149">
        <ele>221.4</ele>
        <time>2026-05-01T16:07:48.000Z</time>
      </trkpt>
      <trkpt lat="44.83306" lon="0.8149">
        <ele>221.5</ele>
        <time>2026-05-01T16:07:49.000Z</time>
      </trkpt>
      <trkpt lat="44.83307" lon="0.8149">
        <ele>221.8</ele>
        <time>2026-05-01T16:07:50.000Z</time>
      </trkpt>
      <trkpt lat="44.83308" lon="0.8149">
        <ele>221.9</ele>
        <time>2026-05-01T16:07:51.000Z</time>
      </trkpt>
      <trkpt lat="44.8331" lon="0.8149">
        <ele>222.2</ele>
        <time>2026-05-01T16:07:52.000Z</time>
      </trkpt>
      <trkpt lat="44.83311" lon="0.81491">
        <ele>221.9</ele>
        <time>2026-05-01T16:07:53.000Z</time>
      </trkpt>
      <trkpt lat="44.83312" lon="0.81491">
        <ele>223</ele>
        <time>2026-05-01T16:07:54.000Z</time>
      </trkpt>
      <trkpt lat="44.83313" lon="0.81492">
        <ele>223.8</ele>
        <time>2026-05-01T16:07:55.000Z</time>
      </trkpt>
      <trkpt lat="44.83314" lon="0.81493">
        <ele>223.5</ele>
        <time>2026-05-01T16:07:56.000Z</time>
      </trkpt>
      <trkpt lat="44.83316" lon="0.81493">
        <ele>223.4</ele>
        <time>2026-05-01T16:07:57.000Z</time>
      </trkpt>
      <trkpt lat="44.83317" lon="0.81493">
        <ele>223.1</ele>
        <time>2026-05-01T16:07:58.000Z</time>
      </trkpt>
      <trkpt lat="44.83319" lon="0.81493">
        <ele>223</ele>
        <time>2026-05-01T16:07:59.000Z</time>
      </trkpt>
      <trkpt lat="44.8332" lon="0.81493">
        <ele>222.8</ele>
        <time>2026-05-01T16:08:00.000Z</time>
      </trkpt>
      <trkpt lat="44.83321" lon="0.81492">
        <ele>223.1</ele>
        <time>2026-05-01T16:08:01.000Z</time>
      </trkpt>
      <trkpt lat="44.83322" lon="0.81492">
        <ele>223.1</ele>
        <time>2026-05-01T16:08:02.000Z</time>
      </trkpt>
      <trkpt lat="44.83324" lon="0.81493">
        <ele>223.3</ele>
        <time>2026-05-01T16:08:03.000Z</time>
      </trkpt>
      <trkpt lat="44.83325" lon="0.81493">
        <ele>223.5</ele>
        <time>2026-05-01T16:08:04.000Z</time>
      </trkpt>
      <trkpt lat="44.83326" lon="0.81493">
        <ele>223.6</ele>
        <time>2026-05-01T16:08:05.000Z</time>
      </trkpt>
      <trkpt lat="44.83328" lon="0.81494">
        <ele>223.5</ele>
        <time>2026-05-01T16:08:06.000Z</time>
      </trkpt>
      <trkpt lat="44.83329" lon="0.81494">
        <ele>224.2</ele>
        <time>2026-05-01T16:08:07.000Z</time>
      </trkpt>
      <trkpt lat="44.83331" lon="0.81494">
        <ele>224.5</ele>
        <time>2026-05-01T16:08:08.000Z</time>
      </trkpt>
      <trkpt lat="44.83332" lon="0.81494">
        <ele>223.8</ele>
        <time>2026-05-01T16:08:09.000Z</time>
      </trkpt>
      <trkpt lat="44.83333" lon="0.81493">
        <ele>223.6</ele>
        <time>2026-05-01T16:08:10.000Z</time>
      </trkpt>
      <trkpt lat="44.83334" lon="0.81494">
        <ele>226</ele>
        <time>2026-05-01T16:08:11.000Z</time>
      </trkpt>
      <trkpt lat="44.83336" lon="0.81494">
        <ele>225.8</ele>
        <time>2026-05-01T16:08:12.000Z</time>
      </trkpt>
      <trkpt lat="44.83339" lon="0.81495">
        <ele>225.6</ele>
        <time>2026-05-01T16:08:13.000Z</time>
      </trkpt>
      <trkpt lat="44.83342" lon="0.81496">
        <ele>225.7</ele>
        <time>2026-05-01T16:08:14.000Z</time>
      </trkpt>
      <trkpt lat="44.83345" lon="0.81496">
        <ele>225.2</ele>
        <time>2026-05-01T16:08:15.000Z</time>
      </trkpt>
      <trkpt lat="44.83348" lon="0.81497">
        <ele>225.5</ele>
        <time>2026-05-01T16:08:16.000Z</time>
      </trkpt>
      <trkpt lat="44.83351" lon="0.81498">
        <ele>225.4</ele>
        <time>2026-05-01T16:08:17.000Z</time>
      </trkpt>
      <trkpt lat="44.83354" lon="0.81499">
        <ele>226</ele>
        <time>2026-05-01T16:08:18.000Z</time>
      </trkpt>
      <trkpt lat="44.83357" lon="0.815">
        <ele>225.7</ele>
        <time>2026-05-01T16:08:19.000Z</time>
      </trkpt>
      <trkpt lat="44.8336" lon="0.81501">
        <ele>226</ele>
        <time>2026-05-01T16:08:20.000Z</time>
      </trkpt>
      <trkpt lat="44.83363" lon="0.81503">
        <ele>226.1</ele>
        <time>2026-05-01T16:08:21.000Z</time>
      </trkpt>
      <trkpt lat="44.83366" lon="0.81504">
        <ele>225.7</ele>
        <time>2026-05-01T16:08:22.000Z</time>
      </trkpt>
      <trkpt lat="44.83369" lon="0.81505">
        <ele>225.6</ele>
        <time>2026-05-01T16:08:23.000Z</time>
      </trkpt>
      <trkpt lat="44.83372" lon="0.81506">
        <ele>226</ele>
        <time>2026-05-01T16:08:24.000Z</time>
      </trkpt>
      <trkpt lat="44.83375" lon="0.81507">
        <ele>225.7</ele>
        <time>2026-05-01T16:08:25.000Z</time>
      </trkpt>
      <trkpt lat="44.83378" lon="0.81509">
        <ele>225.6</ele>
        <time>2026-05-01T16:08:26.000Z</time>
      </trkpt>
      <trkpt lat="44.83381" lon="0.81509">
        <ele>225.7</ele>
        <time>2026-05-01T16:08:27.000Z</time>
      </trkpt>
      <trkpt lat="44.83384" lon="0.8151">
        <ele>225.5</ele>
        <time>2026-05-01T16:08:28.000Z</time>
      </trkpt>
      <trkpt lat="44.83387" lon="0.81511">
        <ele>225.5</ele>
        <time>2026-05-01T16:08:29.000Z</time>
      </trkpt>
      <trkpt lat="44.8339" lon="0.81512">
        <ele>225.4</ele>
        <time>2026-05-01T16:08:30.000Z</time>
      </trkpt>
      <trkpt lat="44.83393" lon="0.81513">
        <ele>226.3</ele>
        <time>2026-05-01T16:08:31.000Z</time>
      </trkpt>
      <trkpt lat="44.83396" lon="0.81514">
        <ele>226.9</ele>
        <time>2026-05-01T16:08:32.000Z</time>
      </trkpt>
      <trkpt lat="44.834" lon="0.81515">
        <ele>227</ele>
        <time>2026-05-01T16:08:33.000Z</time>
      </trkpt>
      <trkpt lat="44.83403" lon="0.81515">
        <ele>228.8</ele>
        <time>2026-05-01T16:08:34.000Z</time>
      </trkpt>
      <trkpt lat="44.83406" lon="0.81517">
        <ele>228.2</ele>
        <time>2026-05-01T16:08:35.000Z</time>
      </trkpt>
      <trkpt lat="44.8341" lon="0.81517">
        <ele>228</ele>
        <time>2026-05-01T16:08:36.000Z</time>
      </trkpt>
      <trkpt lat="44.83413" lon="0.81518">
        <ele>226.9</ele>
        <time>2026-05-01T16:08:37.000Z</time>
      </trkpt>
      <trkpt lat="44.83416" lon="0.81519">
        <ele>227.2</ele>
        <time>2026-05-01T16:08:38.000Z</time>
      </trkpt>
      <trkpt lat="44.8342" lon="0.8152">
        <ele>227.2</ele>
        <time>2026-05-01T16:08:39.000Z</time>
      </trkpt>
      <trkpt lat="44.83423" lon="0.81521">
        <ele>228.1</ele>
        <time>2026-05-01T16:08:40.000Z</time>
      </trkpt>
      <trkpt lat="44.83426" lon="0.81522">
        <ele>227.7</ele>
        <time>2026-05-01T16:08:41.000Z</time>
      </trkpt>
      <trkpt lat="44.8343" lon="0.81524">
        <ele>227.5</ele>
        <time>2026-05-01T16:08:42.000Z</time>
      </trkpt>
      <trkpt lat="44.83433" lon="0.81525">
        <ele>227.4</ele>
        <time>2026-05-01T16:08:43.000Z</time>
      </trkpt>
      <trkpt lat="44.83436" lon="0.81525">
        <ele>227.2</ele>
        <time>2026-05-01T16:08:44.000Z</time>
      </trkpt>
      <trkpt lat="44.83439" lon="0.81526">
        <ele>227.1</ele>
        <time>2026-05-01T16:08:45.000Z</time>
      </trkpt>
      <trkpt lat="44.83443" lon="0.81527">
        <ele>227.2</ele>
        <time>2026-05-01T16:08:46.000Z</time>
      </trkpt>
      <trkpt lat="44.83446" lon="0.81526">
        <ele>226.7</ele>
        <time>2026-05-01T16:08:47.000Z</time>
      </trkpt>
      <trkpt lat="44.8345" lon="0.81527">
        <ele>226.2</ele>
        <time>2026-05-01T16:08:48.000Z</time>
      </trkpt>
      <trkpt lat="44.83453" lon="0.81527">
        <ele>225.2</ele>
        <time>2026-05-01T16:08:49.000Z</time>
      </trkpt>
      <trkpt lat="44.83456" lon="0.81528">
        <ele>224.7</ele>
        <time>2026-05-01T16:08:50.000Z</time>
      </trkpt>
      <trkpt lat="44.83459" lon="0.81529">
        <ele>223.2</ele>
        <time>2026-05-01T16:08:51.000Z</time>
      </trkpt>
      <trkpt lat="44.83462" lon="0.8153">
        <ele>221.8</ele>
        <time>2026-05-01T16:08:52.000Z</time>
      </trkpt>
      <trkpt lat="44.83464" lon="0.81531">
        <ele>220.9</ele>
        <time>2026-05-01T16:08:53.000Z</time>
      </trkpt>
      <trkpt lat="44.83467" lon="0.81533">
        <ele>220</ele>
        <time>2026-05-01T16:08:54.000Z</time>
      </trkpt>
      <trkpt lat="44.83471" lon="0.81533">
        <ele>218.7</ele>
        <time>2026-05-01T16:08:55.000Z</time>
      </trkpt>
      <trkpt lat="44.83476" lon="0.81534">
        <ele>218.6</ele>
        <time>2026-05-01T16:08:56.000Z</time>
      </trkpt>
      <trkpt lat="44.83482" lon="0.81534">
        <ele>218.4</ele>
        <time>2026-05-01T16:08:57.000Z</time>
      </trkpt>
      <trkpt lat="44.83487" lon="0.81534">
        <ele>218.6</ele>
        <time>2026-05-01T16:08:58.000Z</time>
      </trkpt>
      <trkpt lat="44.83493" lon="0.81535">
        <ele>218.3</ele>
        <time>2026-05-01T16:08:59.000Z</time>
      </trkpt>
      <trkpt lat="44.83499" lon="0.81535">
        <ele>217.6</ele>
        <time>2026-05-01T16:09:00.000Z</time>
      </trkpt>
      <trkpt lat="44.83504" lon="0.81535">
        <ele>217.3</ele>
        <time>2026-05-01T16:09:01.000Z</time>
      </trkpt>
      <trkpt lat="44.83511" lon="0.81535">
        <ele>218</ele>
        <time>2026-05-01T16:09:02.000Z</time>
      </trkpt>
      <trkpt lat="44.83517" lon="0.81536">
        <ele>217.3</ele>
        <time>2026-05-01T16:09:03.000Z</time>
      </trkpt>
      <trkpt lat="44.83522" lon="0.81536">
        <ele>217.6</ele>
        <time>2026-05-01T16:09:04.000Z</time>
      </trkpt>
      <trkpt lat="44.83528" lon="0.81536">
        <ele>218.2</ele>
        <time>2026-05-01T16:09:05.000Z</time>
      </trkpt>
      <trkpt lat="44.83532" lon="0.81536">
        <ele>219.1</ele>
        <time>2026-05-01T16:09:06.000Z</time>
      </trkpt>
      <trkpt lat="44.83538" lon="0.81539">
        <ele>219.6</ele>
        <time>2026-05-01T16:09:07.000Z</time>
      </trkpt>
      <trkpt lat="44.83543" lon="0.81541">
        <ele>219.9</ele>
        <time>2026-05-01T16:09:08.000Z</time>
      </trkpt>
      <trkpt lat="44.83547" lon="0.81544">
        <ele>220.3</ele>
        <time>2026-05-01T16:09:09.000Z</time>
      </trkpt>
      <trkpt lat="44.83551" lon="0.81547">
        <ele>219.9</ele>
        <time>2026-05-01T16:09:10.000Z</time>
      </trkpt>
      <trkpt lat="44.83556" lon="0.8155">
        <ele>219.8</ele>
        <time>2026-05-01T16:09:11.000Z</time>
      </trkpt>
      <trkpt lat="44.8356" lon="0.81552">
        <ele>219.9</ele>
        <time>2026-05-01T16:09:12.000Z</time>
      </trkpt>
      <trkpt lat="44.83565" lon="0.81555">
        <ele>219.6</ele>
        <time>2026-05-01T16:09:13.000Z</time>
      </trkpt>
      <trkpt lat="44.83569" lon="0.81557">
        <ele>220.6</ele>
        <time>2026-05-01T16:09:14.000Z</time>
      </trkpt>
      <trkpt lat="44.83573" lon="0.8156">
        <ele>220.4</ele>
        <time>2026-05-01T16:09:15.000Z</time>
      </trkpt>
      <trkpt lat="44.83578" lon="0.81562">
        <ele>220.5</ele>
        <time>2026-05-01T16:09:16.000Z</time>
      </trkpt>
      <trkpt lat="44.83582" lon="0.81564">
        <ele>221.2</ele>
        <time>2026-05-01T16:09:17.000Z</time>
      </trkpt>
      <trkpt lat="44.83585" lon="0.81566">
        <ele>220.4</ele>
        <time>2026-05-01T16:09:18.000Z</time>
      </trkpt>
      <trkpt lat="44.83589" lon="0.81567">
        <ele>221.1</ele>
        <time>2026-05-01T16:09:19.000Z</time>
      </trkpt>
      <trkpt lat="44.83593" lon="0.81568">
        <ele>221.5</ele>
        <time>2026-05-01T16:09:20.000Z</time>
      </trkpt>
      <trkpt lat="44.83596" lon="0.81568">
        <ele>221.8</ele>
        <time>2026-05-01T16:09:21.000Z</time>
      </trkpt>
      <trkpt lat="44.836" lon="0.81569">
        <ele>222.4</ele>
        <time>2026-05-01T16:09:22.000Z</time>
      </trkpt>
      <trkpt lat="44.83603" lon="0.81569">
        <ele>223</ele>
        <time>2026-05-01T16:09:23.000Z</time>
      </trkpt>
      <trkpt lat="44.83605" lon="0.8157">
        <ele>222.3</ele>
        <time>2026-05-01T16:09:24.000Z</time>
      </trkpt>
      <trkpt lat="44.83609" lon="0.81572">
        <ele>223.7</ele>
        <time>2026-05-01T16:09:25.000Z</time>
      </trkpt>
      <trkpt lat="44.83611" lon="0.81572">
        <ele>223.5</ele>
        <time>2026-05-01T16:09:26.000Z</time>
      </trkpt>
      <trkpt lat="44.83614" lon="0.81572">
        <ele>223.7</ele>
        <time>2026-05-01T16:09:27.000Z</time>
      </trkpt>
      <trkpt lat="44.83616" lon="0.81572">
        <ele>223.4</ele>
        <time>2026-05-01T16:09:28.000Z</time>
      </trkpt>
      <trkpt lat="44.83618" lon="0.81573">
        <ele>223.3</ele>
        <time>2026-05-01T16:09:29.000Z</time>
      </trkpt>
      <trkpt lat="44.8362" lon="0.81573">
        <ele>223.2</ele>
        <time>2026-05-01T16:09:30.000Z</time>
      </trkpt>
      <trkpt lat="44.83622" lon="0.81573">
        <ele>223.4</ele>
        <time>2026-05-01T16:09:31.000Z</time>
      </trkpt>
      <trkpt lat="44.83624" lon="0.81573">
        <ele>224.7</ele>
        <time>2026-05-01T16:09:32.000Z</time>
      </trkpt>
      <trkpt lat="44.83625" lon="0.81573">
        <ele>224.9</ele>
        <time>2026-05-01T16:09:33.000Z</time>
      </trkpt>
      <trkpt lat="44.83627" lon="0.81574">
        <ele>225.2</ele>
        <time>2026-05-01T16:09:34.000Z</time>
      </trkpt>
      <trkpt lat="44.83628" lon="0.81574">
        <ele>226.7</ele>
        <time>2026-05-01T16:09:35.000Z</time>
      </trkpt>
      <trkpt lat="44.8363" lon="0.81575">
        <ele>227.4</ele>
        <time>2026-05-01T16:09:36.000Z</time>
      </trkpt>
      <trkpt lat="44.83632" lon="0.81576">
        <ele>228</ele>
        <time>2026-05-01T16:09:37.000Z</time>
      </trkpt>
      <trkpt lat="44.83635" lon="0.81577">
        <ele>228.1</ele>
        <time>2026-05-01T16:09:38.000Z</time>
      </trkpt>
      <trkpt lat="44.83637" lon="0.81578">
        <ele>228.6</ele>
        <time>2026-05-01T16:09:39.000Z</time>
      </trkpt>
      <trkpt lat="44.83638" lon="0.81579">
        <ele>227.8</ele>
        <time>2026-05-01T16:09:40.000Z</time>
      </trkpt>
      <trkpt lat="44.83639" lon="0.8158">
        <ele>227.7</ele>
        <time>2026-05-01T16:09:41.000Z</time>
      </trkpt>
      <trkpt lat="44.8364" lon="0.8158">
        <ele>227.8</ele>
        <time>2026-05-01T16:09:42.000Z</time>
      </trkpt>
      <trkpt lat="44.83642" lon="0.8158">
        <ele>227.8</ele>
        <time>2026-05-01T16:09:43.000Z</time>
      </trkpt>
      <trkpt lat="44.83643" lon="0.8158">
        <ele>228</ele>
        <time>2026-05-01T16:09:44.000Z</time>
      </trkpt>
      <trkpt lat="44.83645" lon="0.8158">
        <ele>228.5</ele>
        <time>2026-05-01T16:09:45.000Z</time>
      </trkpt>
      <trkpt lat="44.83646" lon="0.8158">
        <ele>229.2</ele>
        <time>2026-05-01T16:09:46.000Z</time>
      </trkpt>
      <trkpt lat="44.83648" lon="0.8158">
        <ele>229.3</ele>
        <time>2026-05-01T16:09:47.000Z</time>
      </trkpt>
      <trkpt lat="44.83649" lon="0.8158">
        <ele>228.9</ele>
        <time>2026-05-01T16:09:48.000Z</time>
      </trkpt>
      <trkpt lat="44.83651" lon="0.8158">
        <ele>228.3</ele>
        <time>2026-05-01T16:09:49.000Z</time>
      </trkpt>
      <trkpt lat="44.83653" lon="0.8158">
        <ele>228.6</ele>
        <time>2026-05-01T16:09:50.000Z</time>
      </trkpt>
      <trkpt lat="44.83654" lon="0.8158">
        <ele>228.6</ele>
        <time>2026-05-01T16:09:51.000Z</time>
      </trkpt>
      <trkpt lat="44.83656" lon="0.8158">
        <ele>228.2</ele>
        <time>2026-05-01T16:09:52.000Z</time>
      </trkpt>
      <trkpt lat="44.83657" lon="0.8158">
        <ele>228</ele>
        <time>2026-05-01T16:09:53.000Z</time>
      </trkpt>
      <trkpt lat="44.83659" lon="0.81581">
        <ele>228.1</ele>
        <time>2026-05-01T16:09:54.000Z</time>
      </trkpt>
      <trkpt lat="44.8366" lon="0.81581">
        <ele>227.9</ele>
        <time>2026-05-01T16:09:55.000Z</time>
      </trkpt>
      <trkpt lat="44.83662" lon="0.81581">
        <ele>228</ele>
        <time>2026-05-01T16:09:56.000Z</time>
      </trkpt>
      <trkpt lat="44.83663" lon="0.81582">
        <ele>228</ele>
        <time>2026-05-01T16:09:57.000Z</time>
      </trkpt>
      <trkpt lat="44.83664" lon="0.81583">
        <ele>228.6</ele>
        <time>2026-05-01T16:09:58.000Z</time>
      </trkpt>
      <trkpt lat="44.83666" lon="0.81584">
        <ele>227.8</ele>
        <time>2026-05-01T16:09:59.000Z</time>
      </trkpt>
      <trkpt lat="44.83667" lon="0.81585">
        <ele>228</ele>
        <time>2026-05-01T16:10:00.000Z</time>
      </trkpt>
      <trkpt lat="44.83668" lon="0.81586">
        <ele>227</ele>
        <time>2026-05-01T16:10:01.000Z</time>
      </trkpt>
      <trkpt lat="44.8367" lon="0.81587">
        <ele>226.7</ele>
        <time>2026-05-01T16:10:02.000Z</time>
      </trkpt>
      <trkpt lat="44.83671" lon="0.81587">
        <ele>226.6</ele>
        <time>2026-05-01T16:10:03.000Z</time>
      </trkpt>
      <trkpt lat="44.83672" lon="0.81588">
        <ele>226.6</ele>
        <time>2026-05-01T16:10:04.000Z</time>
      </trkpt>
      <trkpt lat="44.83674" lon="0.81589">
        <ele>226.5</ele>
        <time>2026-05-01T16:10:05.000Z</time>
      </trkpt>
      <trkpt lat="44.83675" lon="0.8159">
        <ele>226.5</ele>
        <time>2026-05-01T16:10:06.000Z</time>
      </trkpt>
      <trkpt lat="44.83677" lon="0.8159">
        <ele>226.7</ele>
        <time>2026-05-01T16:10:07.000Z</time>
      </trkpt>
      <trkpt lat="44.83678" lon="0.8159">
        <ele>226.9</ele>
        <time>2026-05-01T16:10:08.000Z</time>
      </trkpt>
      <trkpt lat="44.8368" lon="0.8159">
        <ele>226.9</ele>
        <time>2026-05-01T16:10:09.000Z</time>
      </trkpt>
      <trkpt lat="44.83681" lon="0.8159">
        <ele>226.9</ele>
        <time>2026-05-01T16:10:10.000Z</time>
      </trkpt>
      <trkpt lat="44.83683" lon="0.81591">
        <ele>228.5</ele>
        <time>2026-05-01T16:10:11.000Z</time>
      </trkpt>
      <trkpt lat="44.83684" lon="0.81591">
        <ele>228.7</ele>
        <time>2026-05-01T16:10:12.000Z</time>
      </trkpt>
      <trkpt lat="44.83685" lon="0.81592">
        <ele>229</ele>
        <time>2026-05-01T16:10:13.000Z</time>
      </trkpt>
      <trkpt lat="44.83687" lon="0.81593">
        <ele>228.5</ele>
        <time>2026-05-01T16:10:14.000Z</time>
      </trkpt>
      <trkpt lat="44.83688" lon="0.81593">
        <ele>228.2</ele>
        <time>2026-05-01T16:10:15.000Z</time>
      </trkpt>
      <trkpt lat="44.8369" lon="0.81593">
        <ele>227.9</ele>
        <time>2026-05-01T16:10:16.000Z</time>
      </trkpt>
      <trkpt lat="44.83691" lon="0.81593">
        <ele>227.5</ele>
        <time>2026-05-01T16:10:17.000Z</time>
      </trkpt>
      <trkpt lat="44.83693" lon="0.81594">
        <ele>227.1</ele>
        <time>2026-05-01T16:10:18.000Z</time>
      </trkpt>
      <trkpt lat="44.83694" lon="0.81594">
        <ele>226.8</ele>
        <time>2026-05-01T16:10:19.000Z</time>
      </trkpt>
      <trkpt lat="44.83695" lon="0.81595">
        <ele>226.1</ele>
        <time>2026-05-01T16:10:20.000Z</time>
      </trkpt>
      <trkpt lat="44.83697" lon="0.81596">
        <ele>226.1</ele>
        <time>2026-05-01T16:10:21.000Z</time>
      </trkpt>
      <trkpt lat="44.83698" lon="0.81597">
        <ele>226.3</ele>
        <time>2026-05-01T16:10:22.000Z</time>
      </trkpt>
      <trkpt lat="44.83699" lon="0.81598">
        <ele>226.1</ele>
        <time>2026-05-01T16:10:23.000Z</time>
      </trkpt>
      <trkpt lat="44.83701" lon="0.81598">
        <ele>226.4</ele>
        <time>2026-05-01T16:10:24.000Z</time>
      </trkpt>
      <trkpt lat="44.83702" lon="0.81599">
        <ele>225.8</ele>
        <time>2026-05-01T16:10:25.000Z</time>
      </trkpt>
      <trkpt lat="44.83704" lon="0.816">
        <ele>225.7</ele>
        <time>2026-05-01T16:10:26.000Z</time>
      </trkpt>
      <trkpt lat="44.83705" lon="0.81601">
        <ele>225.3</ele>
        <time>2026-05-01T16:10:27.000Z</time>
      </trkpt>
      <trkpt lat="44.83706" lon="0.81602">
        <ele>225.7</ele>
        <time>2026-05-01T16:10:28.000Z</time>
      </trkpt>
      <trkpt lat="44.83708" lon="0.81602">
        <ele>226</ele>
        <time>2026-05-01T16:10:29.000Z</time>
      </trkpt>
      <trkpt lat="44.83709" lon="0.81603">
        <ele>225.8</ele>
        <time>2026-05-01T16:10:30.000Z</time>
      </trkpt>
      <trkpt lat="44.83711" lon="0.81604">
        <ele>225.3</ele>
        <time>2026-05-01T16:10:31.000Z</time>
      </trkpt>
      <trkpt lat="44.83712" lon="0.81605">
        <ele>225.1</ele>
        <time>2026-05-01T16:10:32.000Z</time>
      </trkpt>
      <trkpt lat="44.83714" lon="0.81605">
        <ele>224.8</ele>
        <time>2026-05-01T16:10:33.000Z</time>
      </trkpt>
      <trkpt lat="44.83715" lon="0.81605">
        <ele>224.5</ele>
        <time>2026-05-01T16:10:34.000Z</time>
      </trkpt>
      <trkpt lat="44.83717" lon="0.81607">
        <ele>223.8</ele>
        <time>2026-05-01T16:10:35.000Z</time>
      </trkpt>
      <trkpt lat="44.83718" lon="0.81609">
        <ele>223.6</ele>
        <time>2026-05-01T16:10:36.000Z</time>
      </trkpt>
      <trkpt lat="44.8372" lon="0.8161">
        <ele>224.1</ele>
        <time>2026-05-01T16:10:37.000Z</time>
      </trkpt>
      <trkpt lat="44.83722" lon="0.81611">
        <ele>223.9</ele>
        <time>2026-05-01T16:10:38.000Z</time>
      </trkpt>
      <trkpt lat="44.83723" lon="0.81611">
        <ele>224.1</ele>
        <time>2026-05-01T16:10:39.000Z</time>
      </trkpt>
      <trkpt lat="44.83724" lon="0.81612">
        <ele>222.7</ele>
        <time>2026-05-01T16:10:40.000Z</time>
      </trkpt>
      <trkpt lat="44.83726" lon="0.81614">
        <ele>223.1</ele>
        <time>2026-05-01T16:10:41.000Z</time>
      </trkpt>
      <trkpt lat="44.83727" lon="0.81614">
        <ele>222.2</ele>
        <time>2026-05-01T16:10:42.000Z</time>
      </trkpt>
      <trkpt lat="44.83728" lon="0.81615">
        <ele>221.2</ele>
        <time>2026-05-01T16:10:43.000Z</time>
      </trkpt>
      <trkpt lat="44.83729" lon="0.81616">
        <ele>221.4</ele>
        <time>2026-05-01T16:10:44.000Z</time>
      </trkpt>
      <trkpt lat="44.83731" lon="0.81618">
        <ele>220.5</ele>
        <time>2026-05-01T16:10:45.000Z</time>
      </trkpt>
      <trkpt lat="44.83732" lon="0.81619">
        <ele>220</ele>
        <time>2026-05-01T16:10:46.000Z</time>
      </trkpt>
      <trkpt lat="44.83733" lon="0.8162">
        <ele>219.4</ele>
        <time>2026-05-01T16:10:47.000Z</time>
      </trkpt>
      <trkpt lat="44.83734" lon="0.81621">
        <ele>219.1</ele>
        <time>2026-05-01T16:10:48.000Z</time>
      </trkpt>
      <trkpt lat="44.83735" lon="0.81622">
        <ele>219.1</ele>
        <time>2026-05-01T16:10:49.000Z</time>
      </trkpt>
      <trkpt lat="44.83736" lon="0.81624">
        <ele>218.6</ele>
        <time>2026-05-01T16:10:50.000Z</time>
      </trkpt>
      <trkpt lat="44.83738" lon="0.81625">
        <ele>218.4</ele>
        <time>2026-05-01T16:10:51.000Z</time>
      </trkpt>
      <trkpt lat="44.83739" lon="0.81627">
        <ele>218.2</ele>
        <time>2026-05-01T16:10:52.000Z</time>
      </trkpt>
      <trkpt lat="44.83739" lon="0.81628">
        <ele>218.4</ele>
        <time>2026-05-01T16:10:53.000Z</time>
      </trkpt>
      <trkpt lat="44.8374" lon="0.8163">
        <ele>218.2</ele>
        <time>2026-05-01T16:10:54.000Z</time>
      </trkpt>
      <trkpt lat="44.83741" lon="0.8163">
        <ele>218.3</ele>
        <time>2026-05-01T16:10:55.000Z</time>
      </trkpt>
      <trkpt lat="44.83741" lon="0.8163">
        <ele>218.3</ele>
        <time>2026-05-01T16:10:56.000Z</time>
      </trkpt>
      <trkpt lat="44.83741" lon="0.8163">
        <ele>218.2</ele>
        <time>2026-05-01T16:10:57.000Z</time>
      </trkpt>
      <trkpt lat="44.83743" lon="0.8163">
        <ele>218</ele>
        <time>2026-05-01T16:10:58.000Z</time>
      </trkpt>
      <trkpt lat="44.83744" lon="0.8163">
        <ele>217.9</ele>
        <time>2026-05-01T16:10:59.000Z</time>
      </trkpt>
      <trkpt lat="44.83746" lon="0.81631">
        <ele>217.9</ele>
        <time>2026-05-01T16:11:00.000Z</time>
      </trkpt>
      <trkpt lat="44.83747" lon="0.81631">
        <ele>217.8</ele>
        <time>2026-05-01T16:11:01.000Z</time>
      </trkpt>
      <trkpt lat="44.83748" lon="0.81632">
        <ele>218.1</ele>
        <time>2026-05-01T16:11:02.000Z</time>
      </trkpt>
      <trkpt lat="44.8375" lon="0.81632">
        <ele>217.7</ele>
        <time>2026-05-01T16:11:03.000Z</time>
      </trkpt>
      <trkpt lat="44.83751" lon="0.81633">
        <ele>218</ele>
        <time>2026-05-01T16:11:04.000Z</time>
      </trkpt>
      <trkpt lat="44.83752" lon="0.81634">
        <ele>217.6</ele>
        <time>2026-05-01T16:11:05.000Z</time>
      </trkpt>
      <trkpt lat="44.83754" lon="0.81635">
        <ele>217.7</ele>
        <time>2026-05-01T16:11:06.000Z</time>
      </trkpt>
      <trkpt lat="44.83755" lon="0.81636">
        <ele>217.7</ele>
        <time>2026-05-01T16:11:07.000Z</time>
      </trkpt>
      <trkpt lat="44.83756" lon="0.81637">
        <ele>216.6</ele>
        <time>2026-05-01T16:11:08.000Z</time>
      </trkpt>
      <trkpt lat="44.83758" lon="0.81638">
        <ele>216</ele>
        <time>2026-05-01T16:11:09.000Z</time>
      </trkpt>
      <trkpt lat="44.83759" lon="0.81638">
        <ele>215.4</ele>
        <time>2026-05-01T16:11:10.000Z</time>
      </trkpt>
      <trkpt lat="44.8376" lon="0.81639">
        <ele>215.2</ele>
        <time>2026-05-01T16:11:11.000Z</time>
      </trkpt>
      <trkpt lat="44.83762" lon="0.8164">
        <ele>215</ele>
        <time>2026-05-01T16:11:12.000Z</time>
      </trkpt>
      <trkpt lat="44.83763" lon="0.81641">
        <ele>215</ele>
        <time>2026-05-01T16:11:13.000Z</time>
      </trkpt>
      <trkpt lat="44.83764" lon="0.81641">
        <ele>214.9</ele>
        <time>2026-05-01T16:11:14.000Z</time>
      </trkpt>
      <trkpt lat="44.83766" lon="0.81643">
        <ele>214.3</ele>
        <time>2026-05-01T16:11:15.000Z</time>
      </trkpt>
      <trkpt lat="44.83767" lon="0.81644">
        <ele>215</ele>
        <time>2026-05-01T16:11:16.000Z</time>
      </trkpt>
      <trkpt lat="44.83768" lon="0.81645">
        <ele>215.2</ele>
        <time>2026-05-01T16:11:17.000Z</time>
      </trkpt>
      <trkpt lat="44.8377" lon="0.81646">
        <ele>215.1</ele>
        <time>2026-05-01T16:11:18.000Z</time>
      </trkpt>
      <trkpt lat="44.83772" lon="0.81647">
        <ele>216.4</ele>
        <time>2026-05-01T16:11:19.000Z</time>
      </trkpt>
      <trkpt lat="44.83774" lon="0.81648">
        <ele>216.2</ele>
        <time>2026-05-01T16:11:20.000Z</time>
      </trkpt>
      <trkpt lat="44.83775" lon="0.8165">
        <ele>216.6</ele>
        <time>2026-05-01T16:11:21.000Z</time>
      </trkpt>
      <trkpt lat="44.83777" lon="0.81651">
        <ele>217.1</ele>
        <time>2026-05-01T16:11:22.000Z</time>
      </trkpt>
      <trkpt lat="44.83778" lon="0.81652">
        <ele>216.8</ele>
        <time>2026-05-01T16:11:23.000Z</time>
      </trkpt>
      <trkpt lat="44.83779" lon="0.81653">
        <ele>216.5</ele>
        <time>2026-05-01T16:11:24.000Z</time>
      </trkpt>
      <trkpt lat="44.83781" lon="0.81654">
        <ele>216.2</ele>
        <time>2026-05-01T16:11:25.000Z</time>
      </trkpt>
      <trkpt lat="44.83782" lon="0.81654">
        <ele>216.1</ele>
        <time>2026-05-01T16:11:26.000Z</time>
      </trkpt>
      <trkpt lat="44.83784" lon="0.81655">
        <ele>215.9</ele>
        <time>2026-05-01T16:11:27.000Z</time>
      </trkpt>
      <trkpt lat="44.83785" lon="0.81656">
        <ele>215.2</ele>
        <time>2026-05-01T16:11:28.000Z</time>
      </trkpt>
      <trkpt lat="44.83786" lon="0.81657">
        <ele>215.3</ele>
        <time>2026-05-01T16:11:29.000Z</time>
      </trkpt>
      <trkpt lat="44.83787" lon="0.81658">
        <ele>215.5</ele>
        <time>2026-05-01T16:11:30.000Z</time>
      </trkpt>
      <trkpt lat="44.83789" lon="0.81659">
        <ele>215.3</ele>
        <time>2026-05-01T16:11:31.000Z</time>
      </trkpt>
      <trkpt lat="44.8379" lon="0.8166">
        <ele>215.4</ele>
        <time>2026-05-01T16:11:32.000Z</time>
      </trkpt>
      <trkpt lat="44.83792" lon="0.81661">
        <ele>215.1</ele>
        <time>2026-05-01T16:11:33.000Z</time>
      </trkpt>
      <trkpt lat="44.83793" lon="0.81662">
        <ele>215</ele>
        <time>2026-05-01T16:11:34.000Z</time>
      </trkpt>
      <trkpt lat="44.83795" lon="0.81664">
        <ele>214.4</ele>
        <time>2026-05-01T16:11:35.000Z</time>
      </trkpt>
      <trkpt lat="44.83796" lon="0.81665">
        <ele>215</ele>
        <time>2026-05-01T16:11:36.000Z</time>
      </trkpt>
      <trkpt lat="44.83797" lon="0.81666">
        <ele>215.2</ele>
        <time>2026-05-01T16:11:37.000Z</time>
      </trkpt>
      <trkpt lat="44.83799" lon="0.81667">
        <ele>215.1</ele>
        <time>2026-05-01T16:11:38.000Z</time>
      </trkpt>
      <trkpt lat="44.838" lon="0.81668">
        <ele>214.7</ele>
        <time>2026-05-01T16:11:39.000Z</time>
      </trkpt>
      <trkpt lat="44.83801" lon="0.81668">
        <ele>215.3</ele>
        <time>2026-05-01T16:11:40.000Z</time>
      </trkpt>
      <trkpt lat="44.83803" lon="0.81669">
        <ele>215.5</ele>
        <time>2026-05-01T16:11:41.000Z</time>
      </trkpt>
      <trkpt lat="44.83804" lon="0.81669">
        <ele>215.8</ele>
        <time>2026-05-01T16:11:42.000Z</time>
      </trkpt>
      <trkpt lat="44.83805" lon="0.8167">
        <ele>215.2</ele>
        <time>2026-05-01T16:11:43.000Z</time>
      </trkpt>
      <trkpt lat="44.83806" lon="0.81671">
        <ele>214.8</ele>
        <time>2026-05-01T16:11:44.000Z</time>
      </trkpt>
      <trkpt lat="44.83808" lon="0.81671">
        <ele>214.5</ele>
        <time>2026-05-01T16:11:45.000Z</time>
      </trkpt>
      <trkpt lat="44.83809" lon="0.81672">
        <ele>214.8</ele>
        <time>2026-05-01T16:11:46.000Z</time>
      </trkpt>
      <trkpt lat="44.8381" lon="0.81672">
        <ele>214.4</ele>
        <time>2026-05-01T16:11:47.000Z</time>
      </trkpt>
      <trkpt lat="44.83811" lon="0.81673">
        <ele>214.6</ele>
        <time>2026-05-01T16:11:48.000Z</time>
      </trkpt>
      <trkpt lat="44.83813" lon="0.81674">
        <ele>214.2</ele>
        <time>2026-05-01T16:11:49.000Z</time>
      </trkpt>
      <trkpt lat="44.83814" lon="0.81675">
        <ele>214.3</ele>
        <time>2026-05-01T16:11:50.000Z</time>
      </trkpt>
      <trkpt lat="44.83815" lon="0.81676">
        <ele>213.8</ele>
        <time>2026-05-01T16:11:51.000Z</time>
      </trkpt>
      <trkpt lat="44.83816" lon="0.81677">
        <ele>213.8</ele>
        <time>2026-05-01T16:11:52.000Z</time>
      </trkpt>
      <trkpt lat="44.83817" lon="0.81678">
        <ele>213.6</ele>
        <time>2026-05-01T16:11:53.000Z</time>
      </trkpt>
      <trkpt lat="44.83819" lon="0.81679">
        <ele>213</ele>
        <time>2026-05-01T16:11:54.000Z</time>
      </trkpt>
      <trkpt lat="44.8382" lon="0.8168">
        <ele>212.9</ele>
        <time>2026-05-01T16:11:55.000Z</time>
      </trkpt>
      <trkpt lat="44.83822" lon="0.81681">
        <ele>212.9</ele>
        <time>2026-05-01T16:11:56.000Z</time>
      </trkpt>
      <trkpt lat="44.83823" lon="0.81682">
        <ele>213.5</ele>
        <time>2026-05-01T16:11:57.000Z</time>
      </trkpt>
      <trkpt lat="44.83824" lon="0.81683">
        <ele>214.1</ele>
        <time>2026-05-01T16:11:58.000Z</time>
      </trkpt>
      <trkpt lat="44.83825" lon="0.81684">
        <ele>214.1</ele>
        <time>2026-05-01T16:11:59.000Z</time>
      </trkpt>
      <trkpt lat="44.83827" lon="0.81685">
        <ele>213.6</ele>
        <time>2026-05-01T16:12:00.000Z</time>
      </trkpt>
      <trkpt lat="44.83828" lon="0.81686">
        <ele>213.2</ele>
        <time>2026-05-01T16:12:01.000Z</time>
      </trkpt>
      <trkpt lat="44.83829" lon="0.81687">
        <ele>212.8</ele>
        <time>2026-05-01T16:12:02.000Z</time>
      </trkpt>
      <trkpt lat="44.8383" lon="0.81687">
        <ele>212.9</ele>
        <time>2026-05-01T16:12:03.000Z</time>
      </trkpt>
      <trkpt lat="44.83832" lon="0.81688">
        <ele>212.6</ele>
        <time>2026-05-01T16:12:04.000Z</time>
      </trkpt>
      <trkpt lat="44.83833" lon="0.81688">
        <ele>213</ele>
        <time>2026-05-01T16:12:05.000Z</time>
      </trkpt>
      <trkpt lat="44.83835" lon="0.8169">
        <ele>212.7</ele>
        <time>2026-05-01T16:12:06.000Z</time>
      </trkpt>
      <trkpt lat="44.83836" lon="0.8169">
        <ele>212.2</ele>
        <time>2026-05-01T16:12:07.000Z</time>
      </trkpt>
      <trkpt lat="44.83837" lon="0.81691">
        <ele>212.7</ele>
        <time>2026-05-01T16:12:08.000Z</time>
      </trkpt>
      <trkpt lat="44.83837" lon="0.81691">
        <ele>212.5</ele>
        <time>2026-05-01T16:12:09.000Z</time>
      </trkpt>
      <trkpt lat="44.83837" lon="0.81691">
        <ele>212.5</ele>
        <time>2026-05-01T16:12:10.000Z</time>
      </trkpt>
      <trkpt lat="44.83838" lon="0.81691">
        <ele>212.5</ele>
        <time>2026-05-01T16:12:11.000Z</time>
      </trkpt>
      <trkpt lat="44.8384" lon="0.81691">
        <ele>214</ele>
        <time>2026-05-01T16:12:12.000Z</time>
      </trkpt>
      <trkpt lat="44.83842" lon="0.81692">
        <ele>213.3</ele>
        <time>2026-05-01T16:12:13.000Z</time>
      </trkpt>
      <trkpt lat="44.83843" lon="0.81692">
        <ele>213.2</ele>
        <time>2026-05-01T16:12:14.000Z</time>
      </trkpt>
      <trkpt lat="44.83844" lon="0.81694">
        <ele>213.9</ele>
        <time>2026-05-01T16:12:15.000Z</time>
      </trkpt>
      <trkpt lat="44.83845" lon="0.81694">
        <ele>214</ele>
        <time>2026-05-01T16:12:16.000Z</time>
      </trkpt>
      <trkpt lat="44.83847" lon="0.81695">
        <ele>214.5</ele>
        <time>2026-05-01T16:12:17.000Z</time>
      </trkpt>
      <trkpt lat="44.83848" lon="0.81695">
        <ele>215.2</ele>
        <time>2026-05-01T16:12:18.000Z</time>
      </trkpt>
      <trkpt lat="44.83849" lon="0.81696">
        <ele>215.1</ele>
        <time>2026-05-01T16:12:19.000Z</time>
      </trkpt>
      <trkpt lat="44.83851" lon="0.81697">
        <ele>215.2</ele>
        <time>2026-05-01T16:12:20.000Z</time>
      </trkpt>
      <trkpt lat="44.83852" lon="0.81698">
        <ele>215</ele>
        <time>2026-05-01T16:12:21.000Z</time>
      </trkpt>
      <trkpt lat="44.83854" lon="0.81699">
        <ele>214.6</ele>
        <time>2026-05-01T16:12:22.000Z</time>
      </trkpt>
      <trkpt lat="44.83855" lon="0.81699">
        <ele>213.4</ele>
        <time>2026-05-01T16:12:23.000Z</time>
      </trkpt>
      <trkpt lat="44.83857" lon="0.817">
        <ele>212.6</ele>
        <time>2026-05-01T16:12:24.000Z</time>
      </trkpt>
      <trkpt lat="44.83859" lon="0.81701">
        <ele>212.2</ele>
        <time>2026-05-01T16:12:25.000Z</time>
      </trkpt>
      <trkpt lat="44.8386" lon="0.81701">
        <ele>212.3</ele>
        <time>2026-05-01T16:12:26.000Z</time>
      </trkpt>
      <trkpt lat="44.83861" lon="0.81701">
        <ele>212.8</ele>
        <time>2026-05-01T16:12:27.000Z</time>
      </trkpt>
      <trkpt lat="44.83863" lon="0.81702">
        <ele>212.3</ele>
        <time>2026-05-01T16:12:28.000Z</time>
      </trkpt>
      <trkpt lat="44.83865" lon="0.81703">
        <ele>212.5</ele>
        <time>2026-05-01T16:12:29.000Z</time>
      </trkpt>
      <trkpt lat="44.83866" lon="0.81703">
        <ele>212.8</ele>
        <time>2026-05-01T16:12:30.000Z</time>
      </trkpt>
      <trkpt lat="44.83868" lon="0.81704">
        <ele>212.7</ele>
        <time>2026-05-01T16:12:31.000Z</time>
      </trkpt>
      <trkpt lat="44.83869" lon="0.81705">
        <ele>212.2</ele>
        <time>2026-05-01T16:12:32.000Z</time>
      </trkpt>
      <trkpt lat="44.83871" lon="0.81705">
        <ele>211.4</ele>
        <time>2026-05-01T16:12:33.000Z</time>
      </trkpt>
      <trkpt lat="44.83872" lon="0.81706">
        <ele>211.9</ele>
        <time>2026-05-01T16:12:34.000Z</time>
      </trkpt>
      <trkpt lat="44.83874" lon="0.81706">
        <ele>211.8</ele>
        <time>2026-05-01T16:12:35.000Z</time>
      </trkpt>
      <trkpt lat="44.83875" lon="0.81706">
        <ele>211.7</ele>
        <time>2026-05-01T16:12:36.000Z</time>
      </trkpt>
      <trkpt lat="44.83877" lon="0.81705">
        <ele>211</ele>
        <time>2026-05-01T16:12:37.000Z</time>
      </trkpt>
      <trkpt lat="44.83878" lon="0.81703">
        <ele>210.8</ele>
        <time>2026-05-01T16:12:38.000Z</time>
      </trkpt>
      <trkpt lat="44.83879" lon="0.81701">
        <ele>211</ele>
        <time>2026-05-01T16:12:39.000Z</time>
      </trkpt>
      <trkpt lat="44.8388" lon="0.81698">
        <ele>211.3</ele>
        <time>2026-05-01T16:12:40.000Z</time>
      </trkpt>
      <trkpt lat="44.83881" lon="0.81695">
        <ele>212.3</ele>
        <time>2026-05-01T16:12:41.000Z</time>
      </trkpt>
      <trkpt lat="44.83881" lon="0.81693">
        <ele>212.7</ele>
        <time>2026-05-01T16:12:42.000Z</time>
      </trkpt>
      <trkpt lat="44.83882" lon="0.81691">
        <ele>212.6</ele>
        <time>2026-05-01T16:12:43.000Z</time>
      </trkpt>
      <trkpt lat="44.83883" lon="0.81688">
        <ele>212.7</ele>
        <time>2026-05-01T16:12:44.000Z</time>
      </trkpt>
      <trkpt lat="44.83883" lon="0.81686">
        <ele>213.1</ele>
        <time>2026-05-01T16:12:45.000Z</time>
      </trkpt>
      <trkpt lat="44.83883" lon="0.81683">
        <ele>212.3</ele>
        <time>2026-05-01T16:12:46.000Z</time>
      </trkpt>
      <trkpt lat="44.83883" lon="0.8168">
        <ele>212.2</ele>
        <time>2026-05-01T16:12:47.000Z</time>
      </trkpt>
      <trkpt lat="44.83882" lon="0.81677">
        <ele>212.4</ele>
        <time>2026-05-01T16:12:48.000Z</time>
      </trkpt>
      <trkpt lat="44.83882" lon="0.81675">
        <ele>211.6</ele>
        <time>2026-05-01T16:12:49.000Z</time>
      </trkpt>
      <trkpt lat="44.83882" lon="0.81674">
        <ele>211.6</ele>
        <time>2026-05-01T16:12:50.000Z</time>
      </trkpt>
      <trkpt lat="44.83883" lon="0.81672">
        <ele>211.6</ele>
        <time>2026-05-01T16:12:51.000Z</time>
      </trkpt>
      <trkpt lat="44.83883" lon="0.8167">
        <ele>211.4</ele>
        <time>2026-05-01T16:12:52.000Z</time>
      </trkpt>
      <trkpt lat="44.83883" lon="0.81667">
        <ele>211.9</ele>
        <time>2026-05-01T16:12:53.000Z</time>
      </trkpt>
      <trkpt lat="44.83883" lon="0.81665">
        <ele>212.2</ele>
        <time>2026-05-01T16:12:54.000Z</time>
      </trkpt>
      <trkpt lat="44.83883" lon="0.81663">
        <ele>212.1</ele>
        <time>2026-05-01T16:12:55.000Z</time>
      </trkpt>
      <trkpt lat="44.83883" lon="0.81661">
        <ele>212.4</ele>
        <time>2026-05-01T16:12:56.000Z</time>
      </trkpt>
      <trkpt lat="44.83883" lon="0.81659">
        <ele>213.8</ele>
        <time>2026-05-01T16:12:57.000Z</time>
      </trkpt>
      <trkpt lat="44.83883" lon="0.81657">
        <ele>214.5</ele>
        <time>2026-05-01T16:12:58.000Z</time>
      </trkpt>
      <trkpt lat="44.83884" lon="0.81655">
        <ele>214.7</ele>
        <time>2026-05-01T16:12:59.000Z</time>
      </trkpt>
      <trkpt lat="44.83884" lon="0.81653">
        <ele>215</ele>
        <time>2026-05-01T16:13:00.000Z</time>
      </trkpt>
      <trkpt lat="44.83884" lon="0.81651">
        <ele>215.2</ele>
        <time>2026-05-01T16:13:01.000Z</time>
      </trkpt>
      <trkpt lat="44.83884" lon="0.81649">
        <ele>215.2</ele>
        <time>2026-05-01T16:13:02.000Z</time>
      </trkpt>
      <trkpt lat="44.83883" lon="0.81646">
        <ele>214.4</ele>
        <time>2026-05-01T16:13:03.000Z</time>
      </trkpt>
      <trkpt lat="44.83883" lon="0.81643">
        <ele>214.6</ele>
        <time>2026-05-01T16:13:04.000Z</time>
      </trkpt>
      <trkpt lat="44.83882" lon="0.81641">
        <ele>214.6</ele>
        <time>2026-05-01T16:13:05.000Z</time>
      </trkpt>
      <trkpt lat="44.83882" lon="0.81638">
        <ele>215.9</ele>
        <time>2026-05-01T16:13:06.000Z</time>
      </trkpt>
      <trkpt lat="44.83881" lon="0.81635">
        <ele>216.1</ele>
        <time>2026-05-01T16:13:07.000Z</time>
      </trkpt>
      <trkpt lat="44.83881" lon="0.81632">
        <ele>215.3</ele>
        <time>2026-05-01T16:13:08.000Z</time>
      </trkpt>
      <trkpt lat="44.8388" lon="0.81629">
        <ele>215.4</ele>
        <time>2026-05-01T16:13:09.000Z</time>
      </trkpt>
      <trkpt lat="44.8388" lon="0.81625">
        <ele>215.5</ele>
        <time>2026-05-01T16:13:10.000Z</time>
      </trkpt>
      <trkpt lat="44.8388" lon="0.81622">
        <ele>213.7</ele>
        <time>2026-05-01T16:13:11.000Z</time>
      </trkpt>
      <trkpt lat="44.83879" lon="0.81618">
        <ele>214.3</ele>
        <time>2026-05-01T16:13:12.000Z</time>
      </trkpt>
      <trkpt lat="44.83879" lon="0.81614">
        <ele>214.5</ele>
        <time>2026-05-01T16:13:13.000Z</time>
      </trkpt>
      <trkpt lat="44.83879" lon="0.8161">
        <ele>214.6</ele>
        <time>2026-05-01T16:13:14.000Z</time>
      </trkpt>
      <trkpt lat="44.83879" lon="0.81606">
        <ele>214.8</ele>
        <time>2026-05-01T16:13:15.000Z</time>
      </trkpt>
      <trkpt lat="44.83879" lon="0.81601">
        <ele>214.2</ele>
        <time>2026-05-01T16:13:16.000Z</time>
      </trkpt>
      <trkpt lat="44.83879" lon="0.81596">
        <ele>215.5</ele>
        <time>2026-05-01T16:13:17.000Z</time>
      </trkpt>
      <trkpt lat="44.83879" lon="0.81592">
        <ele>216</ele>
        <time>2026-05-01T16:13:18.000Z</time>
      </trkpt>
      <trkpt lat="44.8388" lon="0.81587">
        <ele>216.6</ele>
        <time>2026-05-01T16:13:19.000Z</time>
      </trkpt>
      <trkpt lat="44.83882" lon="0.81582">
        <ele>216.9</ele>
        <time>2026-05-01T16:13:20.000Z</time>
      </trkpt>
      <trkpt lat="44.83883" lon="0.81578">
        <ele>216.4</ele>
        <time>2026-05-01T16:13:21.000Z</time>
      </trkpt>
      <trkpt lat="44.83883" lon="0.81573">
        <ele>216.6</ele>
        <time>2026-05-01T16:13:22.000Z</time>
      </trkpt>
      <trkpt lat="44.83884" lon="0.81569">
        <ele>216.7</ele>
        <time>2026-05-01T16:13:23.000Z</time>
      </trkpt>
      <trkpt lat="44.83884" lon="0.81564">
        <ele>217.3</ele>
        <time>2026-05-01T16:13:24.000Z</time>
      </trkpt>
      <trkpt lat="44.83884" lon="0.8156">
        <ele>216.3</ele>
        <time>2026-05-01T16:13:25.000Z</time>
      </trkpt>
      <trkpt lat="44.83884" lon="0.81555">
        <ele>215.7</ele>
        <time>2026-05-01T16:13:26.000Z</time>
      </trkpt>
      <trkpt lat="44.83885" lon="0.8155">
        <ele>214.7</ele>
        <time>2026-05-01T16:13:27.000Z</time>
      </trkpt>
      <trkpt lat="44.83885" lon="0.81545">
        <ele>214.1</ele>
        <time>2026-05-01T16:13:28.000Z</time>
      </trkpt>
      <trkpt lat="44.83886" lon="0.8154">
        <ele>213.8</ele>
        <time>2026-05-01T16:13:29.000Z</time>
      </trkpt>
      <trkpt lat="44.83886" lon="0.81535">
        <ele>212.9</ele>
        <time>2026-05-01T16:13:30.000Z</time>
      </trkpt>
      <trkpt lat="44.83886" lon="0.81529">
        <ele>214.1</ele>
        <time>2026-05-01T16:13:31.000Z</time>
      </trkpt>
      <trkpt lat="44.83886" lon="0.81524">
        <ele>214.1</ele>
        <time>2026-05-01T16:13:32.000Z</time>
      </trkpt>
      <trkpt lat="44.83887" lon="0.8152">
        <ele>213.7</ele>
        <time>2026-05-01T16:13:33.000Z</time>
      </trkpt>
      <trkpt lat="44.83888" lon="0.81517">
        <ele>213.2</ele>
        <time>2026-05-01T16:13:34.000Z</time>
      </trkpt>
      <trkpt lat="44.83889" lon="0.81514">
        <ele>213.4</ele>
        <time>2026-05-01T16:13:35.000Z</time>
      </trkpt>
      <trkpt lat="44.8389" lon="0.81512">
        <ele>212.9</ele>
        <time>2026-05-01T16:13:36.000Z</time>
      </trkpt>
      <trkpt lat="44.8389" lon="0.81509">
        <ele>212</ele>
        <time>2026-05-01T16:13:37.000Z</time>
      </trkpt>
      <trkpt lat="44.83892" lon="0.81505">
        <ele>210</ele>
        <time>2026-05-01T16:13:38.000Z</time>
      </trkpt>
      <trkpt lat="44.83893" lon="0.81501">
        <ele>208.5</ele>
        <time>2026-05-01T16:13:39.000Z</time>
      </trkpt>
      <trkpt lat="44.83894" lon="0.81498">
        <ele>206.8</ele>
        <time>2026-05-01T16:13:40.000Z</time>
      </trkpt>
      <trkpt lat="44.83896" lon="0.81494">
        <ele>205.9</ele>
        <time>2026-05-01T16:13:41.000Z</time>
      </trkpt>
      <trkpt lat="44.83897" lon="0.81491">
        <ele>205.1</ele>
        <time>2026-05-01T16:13:42.000Z</time>
      </trkpt>
      <trkpt lat="44.83899" lon="0.81487">
        <ele>204.5</ele>
        <time>2026-05-01T16:13:43.000Z</time>
      </trkpt>
      <trkpt lat="44.83902" lon="0.81484">
        <ele>204.6</ele>
        <time>2026-05-01T16:13:44.000Z</time>
      </trkpt>
      <trkpt lat="44.83904" lon="0.8148">
        <ele>204.1</ele>
        <time>2026-05-01T16:13:45.000Z</time>
      </trkpt>
      <trkpt lat="44.83906" lon="0.81477">
        <ele>204.4</ele>
        <time>2026-05-01T16:13:46.000Z</time>
      </trkpt>
      <trkpt lat="44.83907" lon="0.81474">
        <ele>204</ele>
        <time>2026-05-01T16:13:47.000Z</time>
      </trkpt>
      <trkpt lat="44.8391" lon="0.81471">
        <ele>204.2</ele>
        <time>2026-05-01T16:13:48.000Z</time>
      </trkpt>
      <trkpt lat="44.83911" lon="0.81469">
        <ele>203.2</ele>
        <time>2026-05-01T16:13:49.000Z</time>
      </trkpt>
      <trkpt lat="44.83913" lon="0.81466">
        <ele>203.8</ele>
        <time>2026-05-01T16:13:50.000Z</time>
      </trkpt>
      <trkpt lat="44.83915" lon="0.81463">
        <ele>202.2</ele>
        <time>2026-05-01T16:13:51.000Z</time>
      </trkpt>
      <trkpt lat="44.83916" lon="0.81461">
        <ele>201.8</ele>
        <time>2026-05-01T16:13:52.000Z</time>
      </trkpt>
      <trkpt lat="44.83917" lon="0.81459">
        <ele>202.1</ele>
        <time>2026-05-01T16:13:53.000Z</time>
      </trkpt>
      <trkpt lat="44.83918" lon="0.81457">
        <ele>202.3</ele>
        <time>2026-05-01T16:13:54.000Z</time>
      </trkpt>
      <trkpt lat="44.8392" lon="0.81455">
        <ele>202</ele>
        <time>2026-05-01T16:13:55.000Z</time>
      </trkpt>
      <trkpt lat="44.83921" lon="0.81452">
        <ele>201.5</ele>
        <time>2026-05-01T16:13:56.000Z</time>
      </trkpt>
      <trkpt lat="44.83922" lon="0.8145">
        <ele>201.1</ele>
        <time>2026-05-01T16:13:57.000Z</time>
      </trkpt>
      <trkpt lat="44.83923" lon="0.81447">
        <ele>201.3</ele>
        <time>2026-05-01T16:13:58.000Z</time>
      </trkpt>
      <trkpt lat="44.83924" lon="0.81445">
        <ele>201.1</ele>
        <time>2026-05-01T16:13:59.000Z</time>
      </trkpt>
      <trkpt lat="44.83926" lon="0.81443">
        <ele>201</ele>
        <time>2026-05-01T16:14:00.000Z</time>
      </trkpt>
      <trkpt lat="44.83927" lon="0.81441">
        <ele>201.9</ele>
        <time>2026-05-01T16:14:01.000Z</time>
      </trkpt>
      <trkpt lat="44.83928" lon="0.81439">
        <ele>202</ele>
        <time>2026-05-01T16:14:02.000Z</time>
      </trkpt>
      <trkpt lat="44.83929" lon="0.81438">
        <ele>202.5</ele>
        <time>2026-05-01T16:14:03.000Z</time>
      </trkpt>
      <trkpt lat="44.83931" lon="0.81436">
        <ele>203.2</ele>
        <time>2026-05-01T16:14:04.000Z</time>
      </trkpt>
      <trkpt lat="44.83932" lon="0.81435">
        <ele>203.7</ele>
        <time>2026-05-01T16:14:05.000Z</time>
      </trkpt>
      <trkpt lat="44.83933" lon="0.81433">
        <ele>203.4</ele>
        <time>2026-05-01T16:14:06.000Z</time>
      </trkpt>
      <trkpt lat="44.83934" lon="0.81431">
        <ele>203.1</ele>
        <time>2026-05-01T16:14:07.000Z</time>
      </trkpt>
      <trkpt lat="44.83936" lon="0.8143">
        <ele>202.5</ele>
        <time>2026-05-01T16:14:08.000Z</time>
      </trkpt>
      <trkpt lat="44.83937" lon="0.81428">
        <ele>202.1</ele>
        <time>2026-05-01T16:14:09.000Z</time>
      </trkpt>
      <trkpt lat="44.83938" lon="0.81426">
        <ele>202.1</ele>
        <time>2026-05-01T16:14:10.000Z</time>
      </trkpt>
      <trkpt lat="44.83939" lon="0.81425">
        <ele>202.4</ele>
        <time>2026-05-01T16:14:11.000Z</time>
      </trkpt>
      <trkpt lat="44.8394" lon="0.81424">
        <ele>202.1</ele>
        <time>2026-05-01T16:14:12.000Z</time>
      </trkpt>
      <trkpt lat="44.83941" lon="0.81421">
        <ele>202.8</ele>
        <time>2026-05-01T16:14:13.000Z</time>
      </trkpt>
      <trkpt lat="44.83942" lon="0.8142">
        <ele>202.2</ele>
        <time>2026-05-01T16:14:14.000Z</time>
      </trkpt>
      <trkpt lat="44.83943" lon="0.81419">
        <ele>201.8</ele>
        <time>2026-05-01T16:14:15.000Z</time>
      </trkpt>
      <trkpt lat="44.83945" lon="0.81417">
        <ele>201.4</ele>
        <time>2026-05-01T16:14:16.000Z</time>
      </trkpt>
      <trkpt lat="44.83946" lon="0.81416">
        <ele>200.3</ele>
        <time>2026-05-01T16:14:17.000Z</time>
      </trkpt>
      <trkpt lat="44.83947" lon="0.81414">
        <ele>199.9</ele>
        <time>2026-05-01T16:14:18.000Z</time>
      </trkpt>
      <trkpt lat="44.83949" lon="0.81412">
        <ele>200.1</ele>
        <time>2026-05-01T16:14:19.000Z</time>
      </trkpt>
      <trkpt lat="44.8395" lon="0.81411">
        <ele>200.8</ele>
        <time>2026-05-01T16:14:20.000Z</time>
      </trkpt>
      <trkpt lat="44.83952" lon="0.81409">
        <ele>200.6</ele>
        <time>2026-05-01T16:14:21.000Z</time>
      </trkpt>
      <trkpt lat="44.83953" lon="0.81408">
        <ele>200.7</ele>
        <time>2026-05-01T16:14:22.000Z</time>
      </trkpt>
      <trkpt lat="44.83954" lon="0.81406">
        <ele>201.3</ele>
        <time>2026-05-01T16:14:23.000Z</time>
      </trkpt>
      <trkpt lat="44.83955" lon="0.81404">
        <ele>201.3</ele>
        <time>2026-05-01T16:14:24.000Z</time>
      </trkpt>
      <trkpt lat="44.83956" lon="0.81403">
        <ele>201.5</ele>
        <time>2026-05-01T16:14:25.000Z</time>
      </trkpt>
      <trkpt lat="44.83958" lon="0.81401">
        <ele>202.4</ele>
        <time>2026-05-01T16:14:26.000Z</time>
      </trkpt>
      <trkpt lat="44.83959" lon="0.814">
        <ele>202</ele>
        <time>2026-05-01T16:14:27.000Z</time>
      </trkpt>
      <trkpt lat="44.8396" lon="0.81399">
        <ele>201.1</ele>
        <time>2026-05-01T16:14:28.000Z</time>
      </trkpt>
      <trkpt lat="44.83962" lon="0.81397">
        <ele>200.2</ele>
        <time>2026-05-01T16:14:29.000Z</time>
      </trkpt>
      <trkpt lat="44.83963" lon="0.81395">
        <ele>201</ele>
        <time>2026-05-01T16:14:30.000Z</time>
      </trkpt>
      <trkpt lat="44.83964" lon="0.81393">
        <ele>200.9</ele>
        <time>2026-05-01T16:14:31.000Z</time>
      </trkpt>
      <trkpt lat="44.83965" lon="0.81391">
        <ele>200.6</ele>
        <time>2026-05-01T16:14:32.000Z</time>
      </trkpt>
      <trkpt lat="44.83966" lon="0.81388">
        <ele>201</ele>
        <time>2026-05-01T16:14:33.000Z</time>
      </trkpt>
      <trkpt lat="44.83968" lon="0.81386">
        <ele>200.4</ele>
        <time>2026-05-01T16:14:34.000Z</time>
      </trkpt>
      <trkpt lat="44.83969" lon="0.81385">
        <ele>200.2</ele>
        <time>2026-05-01T16:14:35.000Z</time>
      </trkpt>
      <trkpt lat="44.8397" lon="0.81383">
        <ele>199.9</ele>
        <time>2026-05-01T16:14:36.000Z</time>
      </trkpt>
      <trkpt lat="44.83971" lon="0.81381">
        <ele>199.8</ele>
        <time>2026-05-01T16:14:37.000Z</time>
      </trkpt>
      <trkpt lat="44.83972" lon="0.81379">
        <ele>199.1</ele>
        <time>2026-05-01T16:14:38.000Z</time>
      </trkpt>
      <trkpt lat="44.83973" lon="0.81377">
        <ele>198.6</ele>
        <time>2026-05-01T16:14:39.000Z</time>
      </trkpt>
      <trkpt lat="44.83975" lon="0.81375">
        <ele>198.9</ele>
        <time>2026-05-01T16:14:40.000Z</time>
      </trkpt>
      <trkpt lat="44.83976" lon="0.81373">
        <ele>199.2</ele>
        <time>2026-05-01T16:14:41.000Z</time>
      </trkpt>
      <trkpt lat="44.83977" lon="0.81371">
        <ele>199.2</ele>
        <time>2026-05-01T16:14:42.000Z</time>
      </trkpt>
      <trkpt lat="44.83978" lon="0.81369">
        <ele>199.9</ele>
        <time>2026-05-01T16:14:43.000Z</time>
      </trkpt>
      <trkpt lat="44.83979" lon="0.81367">
        <ele>200</ele>
        <time>2026-05-01T16:14:44.000Z</time>
      </trkpt>
      <trkpt lat="44.83981" lon="0.81365">
        <ele>200.3</ele>
        <time>2026-05-01T16:14:45.000Z</time>
      </trkpt>
      <trkpt lat="44.83982" lon="0.81364">
        <ele>200.4</ele>
        <time>2026-05-01T16:14:46.000Z</time>
      </trkpt>
      <trkpt lat="44.83983" lon="0.81362">
        <ele>199.8</ele>
        <time>2026-05-01T16:14:47.000Z</time>
      </trkpt>
      <trkpt lat="44.83984" lon="0.81361">
        <ele>199.4</ele>
        <time>2026-05-01T16:14:48.000Z</time>
      </trkpt>
      <trkpt lat="44.83986" lon="0.81359">
        <ele>198.9</ele>
        <time>2026-05-01T16:14:49.000Z</time>
      </trkpt>
      <trkpt lat="44.83987" lon="0.81357">
        <ele>198.3</ele>
        <time>2026-05-01T16:14:50.000Z</time>
      </trkpt>
      <trkpt lat="44.83988" lon="0.81356">
        <ele>197.7</ele>
        <time>2026-05-01T16:14:51.000Z</time>
      </trkpt>
      <trkpt lat="44.8399" lon="0.81354">
        <ele>197.2</ele>
        <time>2026-05-01T16:14:52.000Z</time>
      </trkpt>
      <trkpt lat="44.83991" lon="0.81352">
        <ele>197.5</ele>
        <time>2026-05-01T16:14:53.000Z</time>
      </trkpt>
      <trkpt lat="44.83992" lon="0.8135">
        <ele>197.7</ele>
        <time>2026-05-01T16:14:54.000Z</time>
      </trkpt>
      <trkpt lat="44.83993" lon="0.81348">
        <ele>197.2</ele>
        <time>2026-05-01T16:14:55.000Z</time>
      </trkpt>
      <trkpt lat="44.83995" lon="0.81347">
        <ele>197.2</ele>
        <time>2026-05-01T16:14:56.000Z</time>
      </trkpt>
      <trkpt lat="44.83995" lon="0.81346">
        <ele>196</ele>
        <time>2026-05-01T16:14:57.000Z</time>
      </trkpt>
      <trkpt lat="44.83996" lon="0.81344">
        <ele>195.7</ele>
        <time>2026-05-01T16:14:58.000Z</time>
      </trkpt>
      <trkpt lat="44.83997" lon="0.81342">
        <ele>196.4</ele>
        <time>2026-05-01T16:14:59.000Z</time>
      </trkpt>
      <trkpt lat="44.83999" lon="0.8134">
        <ele>196.6</ele>
        <time>2026-05-01T16:15:00.000Z</time>
      </trkpt>
      <trkpt lat="44.84" lon="0.81338">
        <ele>196.9</ele>
        <time>2026-05-01T16:15:01.000Z</time>
      </trkpt>
      <trkpt lat="44.84001" lon="0.81336">
        <ele>197.1</ele>
        <time>2026-05-01T16:15:02.000Z</time>
      </trkpt>
      <trkpt lat="44.84002" lon="0.81334">
        <ele>196.4</ele>
        <time>2026-05-01T16:15:03.000Z</time>
      </trkpt>
      <trkpt lat="44.84003" lon="0.81332">
        <ele>196.5</ele>
        <time>2026-05-01T16:15:04.000Z</time>
      </trkpt>
      <trkpt lat="44.84005" lon="0.8133">
        <ele>196.4</ele>
        <time>2026-05-01T16:15:05.000Z</time>
      </trkpt>
      <trkpt lat="44.84006" lon="0.81329">
        <ele>195.8</ele>
        <time>2026-05-01T16:15:06.000Z</time>
      </trkpt>
      <trkpt lat="44.84007" lon="0.81327">
        <ele>196</ele>
        <time>2026-05-01T16:15:07.000Z</time>
      </trkpt>
      <trkpt lat="44.84008" lon="0.81325">
        <ele>196.6</ele>
        <time>2026-05-01T16:15:08.000Z</time>
      </trkpt>
      <trkpt lat="44.84009" lon="0.81323">
        <ele>196.5</ele>
        <time>2026-05-01T16:15:09.000Z</time>
      </trkpt>
      <trkpt lat="44.8401" lon="0.81321">
        <ele>196.9</ele>
        <time>2026-05-01T16:15:10.000Z</time>
      </trkpt>
      <trkpt lat="44.84011" lon="0.81319">
        <ele>197</ele>
        <time>2026-05-01T16:15:11.000Z</time>
      </trkpt>
      <trkpt lat="44.84012" lon="0.81317">
        <ele>196.8</ele>
        <time>2026-05-01T16:15:12.000Z</time>
      </trkpt>
      <trkpt lat="44.84012" lon="0.81315">
        <ele>196.7</ele>
        <time>2026-05-01T16:15:13.000Z</time>
      </trkpt>
      <trkpt lat="44.84013" lon="0.81313">
        <ele>196.5</ele>
        <time>2026-05-01T16:15:14.000Z</time>
      </trkpt>
      <trkpt lat="44.84014" lon="0.81312">
        <ele>196</ele>
        <time>2026-05-01T16:15:15.000Z</time>
      </trkpt>
      <trkpt lat="44.84015" lon="0.8131">
        <ele>196</ele>
        <time>2026-05-01T16:15:16.000Z</time>
      </trkpt>
      <trkpt lat="44.84016" lon="0.81307">
        <ele>196.1</ele>
        <time>2026-05-01T16:15:17.000Z</time>
      </trkpt>
      <trkpt lat="44.84017" lon="0.81305">
        <ele>196.1</ele>
        <time>2026-05-01T16:15:18.000Z</time>
      </trkpt>
      <trkpt lat="44.84018" lon="0.81303">
        <ele>196</ele>
        <time>2026-05-01T16:15:19.000Z</time>
      </trkpt>
      <trkpt lat="44.84019" lon="0.81301">
        <ele>195.6</ele>
        <time>2026-05-01T16:15:20.000Z</time>
      </trkpt>
      <trkpt lat="44.8402" lon="0.813">
        <ele>195.4</ele>
        <time>2026-05-01T16:15:21.000Z</time>
      </trkpt>
      <trkpt lat="44.84021" lon="0.81298">
        <ele>195.3</ele>
        <time>2026-05-01T16:15:22.000Z</time>
      </trkpt>
      <trkpt lat="44.84022" lon="0.81296">
        <ele>195.3</ele>
        <time>2026-05-01T16:15:23.000Z</time>
      </trkpt>
      <trkpt lat="44.84023" lon="0.81295">
        <ele>194.9</ele>
        <time>2026-05-01T16:15:24.000Z</time>
      </trkpt>
      <trkpt lat="44.84024" lon="0.81293">
        <ele>194.5</ele>
        <time>2026-05-01T16:15:25.000Z</time>
      </trkpt>
      <trkpt lat="44.84025" lon="0.81292">
        <ele>193.9</ele>
        <time>2026-05-01T16:15:26.000Z</time>
      </trkpt>
      <trkpt lat="44.84025" lon="0.8129">
        <ele>193.9</ele>
        <time>2026-05-01T16:15:27.000Z</time>
      </trkpt>
      <trkpt lat="44.84026" lon="0.81288">
        <ele>193.8</ele>
        <time>2026-05-01T16:15:28.000Z</time>
      </trkpt>
      <trkpt lat="44.84027" lon="0.81286">
        <ele>193.6</ele>
        <time>2026-05-01T16:15:29.000Z</time>
      </trkpt>
      <trkpt lat="44.84028" lon="0.81284">
        <ele>193.5</ele>
        <time>2026-05-01T16:15:30.000Z</time>
      </trkpt>
      <trkpt lat="44.84029" lon="0.81282">
        <ele>193.5</ele>
        <time>2026-05-01T16:15:31.000Z</time>
      </trkpt>
      <trkpt lat="44.8403" lon="0.8128">
        <ele>193.7</ele>
        <time>2026-05-01T16:15:32.000Z</time>
      </trkpt>
      <trkpt lat="44.84031" lon="0.81278">
        <ele>193.3</ele>
        <time>2026-05-01T16:15:33.000Z</time>
      </trkpt>
      <trkpt lat="44.84032" lon="0.81276">
        <ele>193.5</ele>
        <time>2026-05-01T16:15:34.000Z</time>
      </trkpt>
      <trkpt lat="44.84033" lon="0.81274">
        <ele>193.3</ele>
        <time>2026-05-01T16:15:35.000Z</time>
      </trkpt>
      <trkpt lat="44.84034" lon="0.81272">
        <ele>193.2</ele>
        <time>2026-05-01T16:15:36.000Z</time>
      </trkpt>
      <trkpt lat="44.84035" lon="0.8127">
        <ele>193.2</ele>
        <time>2026-05-01T16:15:37.000Z</time>
      </trkpt>
      <trkpt lat="44.84036" lon="0.81268">
        <ele>192.8</ele>
        <time>2026-05-01T16:15:38.000Z</time>
      </trkpt>
      <trkpt lat="44.84037" lon="0.81265">
        <ele>192.7</ele>
        <time>2026-05-01T16:15:39.000Z</time>
      </trkpt>
      <trkpt lat="44.84038" lon="0.81263">
        <ele>192.5</ele>
        <time>2026-05-01T16:15:40.000Z</time>
      </trkpt>
      <trkpt lat="44.84039" lon="0.81261">
        <ele>192.6</ele>
        <time>2026-05-01T16:15:41.000Z</time>
      </trkpt>
      <trkpt lat="44.8404" lon="0.81258">
        <ele>192.5</ele>
        <time>2026-05-01T16:15:42.000Z</time>
      </trkpt>
      <trkpt lat="44.84041" lon="0.81256">
        <ele>192.3</ele>
        <time>2026-05-01T16:15:43.000Z</time>
      </trkpt>
      <trkpt lat="44.84043" lon="0.81254">
        <ele>192.3</ele>
        <time>2026-05-01T16:15:44.000Z</time>
      </trkpt>
      <trkpt lat="44.84044" lon="0.81252">
        <ele>192.3</ele>
        <time>2026-05-01T16:15:45.000Z</time>
      </trkpt>
      <trkpt lat="44.84045" lon="0.8125">
        <ele>192.1</ele>
        <time>2026-05-01T16:15:46.000Z</time>
      </trkpt>
      <trkpt lat="44.84046" lon="0.81248">
        <ele>191.9</ele>
        <time>2026-05-01T16:15:47.000Z</time>
      </trkpt>
      <trkpt lat="44.84047" lon="0.81247">
        <ele>191.7</ele>
        <time>2026-05-01T16:15:48.000Z</time>
      </trkpt>
      <trkpt lat="44.84048" lon="0.81245">
        <ele>191.5</ele>
        <time>2026-05-01T16:15:49.000Z</time>
      </trkpt>
      <trkpt lat="44.84049" lon="0.81243">
        <ele>191.4</ele>
        <time>2026-05-01T16:15:50.000Z</time>
      </trkpt>
      <trkpt lat="44.8405" lon="0.8124">
        <ele>191.3</ele>
        <time>2026-05-01T16:15:51.000Z</time>
      </trkpt>
      <trkpt lat="44.8405" lon="0.81238">
        <ele>191.2</ele>
        <time>2026-05-01T16:15:52.000Z</time>
      </trkpt>
      <trkpt lat="44.84051" lon="0.81236">
        <ele>191.1</ele>
        <time>2026-05-01T16:15:53.000Z</time>
      </trkpt>
      <trkpt lat="44.84052" lon="0.81234">
        <ele>190.8</ele>
        <time>2026-05-01T16:15:54.000Z</time>
      </trkpt>
      <trkpt lat="44.84053" lon="0.81232">
        <ele>190.6</ele>
        <time>2026-05-01T16:15:55.000Z</time>
      </trkpt>
      <trkpt lat="44.84054" lon="0.8123">
        <ele>190.5</ele>
        <time>2026-05-01T16:15:56.000Z</time>
      </trkpt>
      <trkpt lat="44.84055" lon="0.81228">
        <ele>190.3</ele>
        <time>2026-05-01T16:15:57.000Z</time>
      </trkpt>
      <trkpt lat="44.84056" lon="0.81226">
        <ele>190.2</ele>
        <time>2026-05-01T16:15:58.000Z</time>
      </trkpt>
      <trkpt lat="44.84057" lon="0.81224">
        <ele>190.1</ele>
        <time>2026-05-01T16:15:59.000Z</time>
      </trkpt>
      <trkpt lat="44.84058" lon="0.81223">
        <ele>190.2</ele>
        <time>2026-05-01T16:16:00.000Z</time>
      </trkpt>
      <trkpt lat="44.84058" lon="0.81223">
        <ele>190.3</ele>
        <time>2026-05-01T16:16:01.000Z</time>
      </trkpt>
      <trkpt lat="44.84059" lon="0.81222">
        <ele>190.2</ele>
        <time>2026-05-01T16:16:02.000Z</time>
      </trkpt>
      <trkpt lat="44.8406" lon="0.81221">
        <ele>190.3</ele>
        <time>2026-05-01T16:16:03.000Z</time>
      </trkpt>
      <trkpt lat="44.8406" lon="0.81219">
        <ele>190.6</ele>
        <time>2026-05-01T16:16:04.000Z</time>
      </trkpt>
      <trkpt lat="44.84061" lon="0.81217">
        <ele>191.2</ele>
        <time>2026-05-01T16:16:05.000Z</time>
      </trkpt>
      <trkpt lat="44.8406" lon="0.81214">
        <ele>191.5</ele>
        <time>2026-05-01T16:16:06.000Z</time>
      </trkpt>
      <trkpt lat="44.8406" lon="0.81212">
        <ele>191.8</ele>
        <time>2026-05-01T16:16:07.000Z</time>
      </trkpt>
      <trkpt lat="44.84059" lon="0.8121">
        <ele>192.4</ele>
        <time>2026-05-01T16:16:08.000Z</time>
      </trkpt>
      <trkpt lat="44.84058" lon="0.81209">
        <ele>193.5</ele>
        <time>2026-05-01T16:16:09.000Z</time>
      </trkpt>
      <trkpt lat="44.8406" lon="0.81206">
        <ele>195.4</ele>
        <time>2026-05-01T16:16:10.000Z</time>
      </trkpt>
      <trkpt lat="44.84061" lon="0.81206">
        <ele>195</ele>
        <time>2026-05-01T16:16:11.000Z</time>
      </trkpt>
      <trkpt lat="44.84061" lon="0.81206">
        <ele>195</ele>
        <time>2026-05-01T16:16:12.000Z</time>
      </trkpt>
      <trkpt lat="44.84061" lon="0.81206">
        <ele>195.1</ele>
        <time>2026-05-01T16:16:13.000Z</time>
      </trkpt>
      <trkpt lat="44.84062" lon="0.81205">
        <ele>195.1</ele>
        <time>2026-05-01T16:16:14.000Z</time>
      </trkpt>
      <trkpt lat="44.84064" lon="0.81204">
        <ele>195.8</ele>
        <time>2026-05-01T16:16:15.000Z</time>
      </trkpt>
      <trkpt lat="44.84065" lon="0.81202">
        <ele>195.9</ele>
        <time>2026-05-01T16:16:16.000Z</time>
      </trkpt>
      <trkpt lat="44.84067" lon="0.81201">
        <ele>195.8</ele>
        <time>2026-05-01T16:16:17.000Z</time>
      </trkpt>
      <trkpt lat="44.84068" lon="0.812">
        <ele>195.9</ele>
        <time>2026-05-01T16:16:18.000Z</time>
      </trkpt>
      <trkpt lat="44.8407" lon="0.81199">
        <ele>196.1</ele>
        <time>2026-05-01T16:16:19.000Z</time>
      </trkpt>
      <trkpt lat="44.84072" lon="0.81198">
        <ele>196.4</ele>
        <time>2026-05-01T16:16:20.000Z</time>
      </trkpt>
      <trkpt lat="44.84074" lon="0.81197">
        <ele>196.5</ele>
        <time>2026-05-01T16:16:21.000Z</time>
      </trkpt>
      <trkpt lat="44.84075" lon="0.81197">
        <ele>196.3</ele>
        <time>2026-05-01T16:16:22.000Z</time>
      </trkpt>
      <trkpt lat="44.84077" lon="0.81196">
        <ele>196.1</ele>
        <time>2026-05-01T16:16:23.000Z</time>
      </trkpt>
      <trkpt lat="44.84078" lon="0.81196">
        <ele>196</ele>
        <time>2026-05-01T16:16:24.000Z</time>
      </trkpt>
      <trkpt lat="44.8408" lon="0.81195">
        <ele>196.1</ele>
        <time>2026-05-01T16:16:25.000Z</time>
      </trkpt>
      <trkpt lat="44.84081" lon="0.81194">
        <ele>196.4</ele>
        <time>2026-05-01T16:16:26.000Z</time>
      </trkpt>
      <trkpt lat="44.84082" lon="0.81193">
        <ele>196.3</ele>
        <time>2026-05-01T16:16:27.000Z</time>
      </trkpt>
      <trkpt lat="44.84084" lon="0.81192">
        <ele>196.1</ele>
        <time>2026-05-01T16:16:28.000Z</time>
      </trkpt>
      <trkpt lat="44.84085" lon="0.81191">
        <ele>196.2</ele>
        <time>2026-05-01T16:16:29.000Z</time>
      </trkpt>
      <trkpt lat="44.84087" lon="0.81191">
        <ele>196.2</ele>
        <time>2026-05-01T16:16:30.000Z</time>
      </trkpt>
      <trkpt lat="44.84088" lon="0.8119">
        <ele>196.1</ele>
        <time>2026-05-01T16:16:31.000Z</time>
      </trkpt>
      <trkpt lat="44.8409" lon="0.81189">
        <ele>196</ele>
        <time>2026-05-01T16:16:32.000Z</time>
      </trkpt>
      <trkpt lat="44.84091" lon="0.81189">
        <ele>195.8</ele>
        <time>2026-05-01T16:16:33.000Z</time>
      </trkpt>
      <trkpt lat="44.84093" lon="0.81189">
        <ele>195.6</ele>
        <time>2026-05-01T16:16:34.000Z</time>
      </trkpt>
      <trkpt lat="44.84094" lon="0.81188">
        <ele>195.4</ele>
        <time>2026-05-01T16:16:35.000Z</time>
      </trkpt>
      <trkpt lat="44.84096" lon="0.81188">
        <ele>195.3</ele>
        <time>2026-05-01T16:16:36.000Z</time>
      </trkpt>
      <trkpt lat="44.84098" lon="0.81189">
        <ele>195.5</ele>
        <time>2026-05-01T16:16:37.000Z</time>
      </trkpt>
      <trkpt lat="44.84101" lon="0.8119">
        <ele>195</ele>
        <time>2026-05-01T16:16:38.000Z</time>
      </trkpt>
      <trkpt lat="44.84103" lon="0.81191">
        <ele>194.9</ele>
        <time>2026-05-01T16:16:39.000Z</time>
      </trkpt>
      <trkpt lat="44.84105" lon="0.81193">
        <ele>195</ele>
        <time>2026-05-01T16:16:40.000Z</time>
      </trkpt>
      <trkpt lat="44.84107" lon="0.81194">
        <ele>195.3</ele>
        <time>2026-05-01T16:16:41.000Z</time>
      </trkpt>
      <trkpt lat="44.84109" lon="0.81194">
        <ele>196.3</ele>
        <time>2026-05-01T16:16:42.000Z</time>
      </trkpt>
      <trkpt lat="44.84111" lon="0.81195">
        <ele>197.7</ele>
        <time>2026-05-01T16:16:43.000Z</time>
      </trkpt>
      <trkpt lat="44.84113" lon="0.81196">
        <ele>198</ele>
        <time>2026-05-01T16:16:44.000Z</time>
      </trkpt>
      <trkpt lat="44.84114" lon="0.81197">
        <ele>197.9</ele>
        <time>2026-05-01T16:16:45.000Z</time>
      </trkpt>
      <trkpt lat="44.84116" lon="0.81197">
        <ele>197.8</ele>
        <time>2026-05-01T16:16:46.000Z</time>
      </trkpt>
      <trkpt lat="44.84117" lon="0.81199">
        <ele>197.5</ele>
        <time>2026-05-01T16:16:47.000Z</time>
      </trkpt>
      <trkpt lat="44.84118" lon="0.812">
        <ele>197.6</ele>
        <time>2026-05-01T16:16:48.000Z</time>
      </trkpt>
      <trkpt lat="44.84119" lon="0.81202">
        <ele>196.6</ele>
        <time>2026-05-01T16:16:49.000Z</time>
      </trkpt>
      <trkpt lat="44.84121" lon="0.81203">
        <ele>197.2</ele>
        <time>2026-05-01T16:16:50.000Z</time>
      </trkpt>
      <trkpt lat="44.84123" lon="0.81205">
        <ele>197.5</ele>
        <time>2026-05-01T16:16:51.000Z</time>
      </trkpt>
      <trkpt lat="44.84125" lon="0.81207">
        <ele>198.6</ele>
        <time>2026-05-01T16:16:52.000Z</time>
      </trkpt>
      <trkpt lat="44.84127" lon="0.8121">
        <ele>198</ele>
        <time>2026-05-01T16:16:53.000Z</time>
      </trkpt>
      <trkpt lat="44.84129" lon="0.81213">
        <ele>198.4</ele>
        <time>2026-05-01T16:16:54.000Z</time>
      </trkpt>
      <trkpt lat="44.84131" lon="0.81217">
        <ele>198.1</ele>
        <time>2026-05-01T16:16:55.000Z</time>
      </trkpt>
      <trkpt lat="44.84133" lon="0.8122">
        <ele>197.9</ele>
        <time>2026-05-01T16:16:56.000Z</time>
      </trkpt>
      <trkpt lat="44.84136" lon="0.81224">
        <ele>196.8</ele>
        <time>2026-05-01T16:16:57.000Z</time>
      </trkpt>
      <trkpt lat="44.84139" lon="0.81228">
        <ele>196.7</ele>
        <time>2026-05-01T16:16:58.000Z</time>
      </trkpt>
      <trkpt lat="44.84142" lon="0.81231">
        <ele>196.6</ele>
        <time>2026-05-01T16:16:59.000Z</time>
      </trkpt>
      <trkpt lat="44.84144" lon="0.81235">
        <ele>196.3</ele>
        <time>2026-05-01T16:17:00.000Z</time>
      </trkpt>
      <trkpt lat="44.84147" lon="0.81238">
        <ele>196.5</ele>
        <time>2026-05-01T16:17:01.000Z</time>
      </trkpt>
      <trkpt lat="44.8415" lon="0.81241">
        <ele>196.9</ele>
        <time>2026-05-01T16:17:02.000Z</time>
      </trkpt>
      <trkpt lat="44.84152" lon="0.81243">
        <ele>197</ele>
        <time>2026-05-01T16:17:03.000Z</time>
      </trkpt>
      <trkpt lat="44.84154" lon="0.81244">
        <ele>196.9</ele>
        <time>2026-05-01T16:17:04.000Z</time>
      </trkpt>
      <trkpt lat="44.84156" lon="0.81246">
        <ele>197.2</ele>
        <time>2026-05-01T16:17:05.000Z</time>
      </trkpt>
      <trkpt lat="44.84158" lon="0.81247">
        <ele>196.8</ele>
        <time>2026-05-01T16:17:06.000Z</time>
      </trkpt>
      <trkpt lat="44.84159" lon="0.81249">
        <ele>196</ele>
        <time>2026-05-01T16:17:07.000Z</time>
      </trkpt>
      <trkpt lat="44.84161" lon="0.81249">
        <ele>195.4</ele>
        <time>2026-05-01T16:17:08.000Z</time>
      </trkpt>
      <trkpt lat="44.84162" lon="0.81249">
        <ele>195.7</ele>
        <time>2026-05-01T16:17:09.000Z</time>
      </trkpt>
      <trkpt lat="44.84164" lon="0.81248">
        <ele>196</ele>
        <time>2026-05-01T16:17:10.000Z</time>
      </trkpt>
      <trkpt lat="44.84165" lon="0.81248">
        <ele>196.5</ele>
        <time>2026-05-01T16:17:11.000Z</time>
      </trkpt>
      <trkpt lat="44.84166" lon="0.81247">
        <ele>195.8</ele>
        <time>2026-05-01T16:17:12.000Z</time>
      </trkpt>
      <trkpt lat="44.84166" lon="0.81246">
        <ele>195.3</ele>
        <time>2026-05-01T16:17:13.000Z</time>
      </trkpt>
      <trkpt lat="44.84166" lon="0.81245">
        <ele>195.5</ele>
        <time>2026-05-01T16:17:14.000Z</time>
      </trkpt>
      <trkpt lat="44.84166" lon="0.81245">
        <ele>195.9</ele>
        <time>2026-05-01T16:17:15.000Z</time>
      </trkpt>
      <trkpt lat="44.84166" lon="0.81245">
        <ele>195.9</ele>
        <time>2026-05-01T16:17:16.000Z</time>
      </trkpt>
      <trkpt lat="44.84166" lon="0.81244">
        <ele>196.3</ele>
        <time>2026-05-01T16:17:17.000Z</time>
      </trkpt>
      <trkpt lat="44.84168" lon="0.81245">
        <ele>196.9</ele>
        <time>2026-05-01T16:17:18.000Z</time>
      </trkpt>
      <trkpt lat="44.8417" lon="0.81244">
        <ele>196.9</ele>
        <time>2026-05-01T16:17:19.000Z</time>
      </trkpt>
      <trkpt lat="44.84171" lon="0.81243">
        <ele>196.7</ele>
        <time>2026-05-01T16:17:20.000Z</time>
      </trkpt>
      <trkpt lat="44.84173" lon="0.81242">
        <ele>196.8</ele>
        <time>2026-05-01T16:17:21.000Z</time>
      </trkpt>
      <trkpt lat="44.84174" lon="0.81241">
        <ele>196.8</ele>
        <time>2026-05-01T16:17:22.000Z</time>
      </trkpt>
      <trkpt lat="44.84175" lon="0.8124">
        <ele>196.9</ele>
        <time>2026-05-01T16:17:23.000Z</time>
      </trkpt>
      <trkpt lat="44.84176" lon="0.81238">
        <ele>196.3</ele>
        <time>2026-05-01T16:17:24.000Z</time>
      </trkpt>
      <trkpt lat="44.84177" lon="0.81237">
        <ele>195.8</ele>
        <time>2026-05-01T16:17:25.000Z</time>
      </trkpt>
      <trkpt lat="44.84178" lon="0.81235">
        <ele>196.5</ele>
        <time>2026-05-01T16:17:26.000Z</time>
      </trkpt>
      <trkpt lat="44.84179" lon="0.81232">
        <ele>196.6</ele>
        <time>2026-05-01T16:17:27.000Z</time>
      </trkpt>
      <trkpt lat="44.84181" lon="0.81231">
        <ele>196.3</ele>
        <time>2026-05-01T16:17:28.000Z</time>
      </trkpt>
      <trkpt lat="44.84182" lon="0.8123">
        <ele>196.4</ele>
        <time>2026-05-01T16:17:29.000Z</time>
      </trkpt>
      <trkpt lat="44.84184" lon="0.81228">
        <ele>196.7</ele>
        <time>2026-05-01T16:17:30.000Z</time>
      </trkpt>
      <trkpt lat="44.84185" lon="0.81226">
        <ele>196.9</ele>
        <time>2026-05-01T16:17:31.000Z</time>
      </trkpt>
      <trkpt lat="44.84186" lon="0.81225">
        <ele>196.7</ele>
        <time>2026-05-01T16:17:32.000Z</time>
      </trkpt>
      <trkpt lat="44.84187" lon="0.81223">
        <ele>197.3</ele>
        <time>2026-05-01T16:17:33.000Z</time>
      </trkpt>
      <trkpt lat="44.84188" lon="0.81221">
        <ele>197.2</ele>
        <time>2026-05-01T16:17:34.000Z</time>
      </trkpt>
      <trkpt lat="44.8419" lon="0.8122">
        <ele>197.1</ele>
        <time>2026-05-01T16:17:35.000Z</time>
      </trkpt>
      <trkpt lat="44.84191" lon="0.81218">
        <ele>197.7</ele>
        <time>2026-05-01T16:17:36.000Z</time>
      </trkpt>
      <trkpt lat="44.84192" lon="0.81217">
        <ele>197.3</ele>
        <time>2026-05-01T16:17:37.000Z</time>
      </trkpt>
      <trkpt lat="44.84194" lon="0.81215">
        <ele>196.6</ele>
        <time>2026-05-01T16:17:38.000Z</time>
      </trkpt>
      <trkpt lat="44.84195" lon="0.81213">
        <ele>195.8</ele>
        <time>2026-05-01T16:17:39.000Z</time>
      </trkpt>
      <trkpt lat="44.84197" lon="0.81212">
        <ele>195.2</ele>
        <time>2026-05-01T16:17:40.000Z</time>
      </trkpt>
      <trkpt lat="44.84198" lon="0.81211">
        <ele>194.7</ele>
        <time>2026-05-01T16:17:41.000Z</time>
      </trkpt>
      <trkpt lat="44.84199" lon="0.81209">
        <ele>195.2</ele>
        <time>2026-05-01T16:17:42.000Z</time>
      </trkpt>
      <trkpt lat="44.84201" lon="0.81207">
        <ele>195.4</ele>
        <time>2026-05-01T16:17:43.000Z</time>
      </trkpt>
      <trkpt lat="44.84202" lon="0.81205">
        <ele>195.2</ele>
        <time>2026-05-01T16:17:44.000Z</time>
      </trkpt>
      <trkpt lat="44.84204" lon="0.81204">
        <ele>195.7</ele>
        <time>2026-05-01T16:17:45.000Z</time>
      </trkpt>
      <trkpt lat="44.84205" lon="0.81202">
        <ele>195.6</ele>
        <time>2026-05-01T16:17:46.000Z</time>
      </trkpt>
      <trkpt lat="44.84207" lon="0.81201">
        <ele>196.2</ele>
        <time>2026-05-01T16:17:47.000Z</time>
      </trkpt>
      <trkpt lat="44.84208" lon="0.81199">
        <ele>195.4</ele>
        <time>2026-05-01T16:17:48.000Z</time>
      </trkpt>
      <trkpt lat="44.8421" lon="0.81198">
        <ele>195.7</ele>
        <time>2026-05-01T16:17:49.000Z</time>
      </trkpt>
      <trkpt lat="44.84211" lon="0.81196">
        <ele>196.2</ele>
        <time>2026-05-01T16:17:50.000Z</time>
      </trkpt>
      <trkpt lat="44.84213" lon="0.81195">
        <ele>196.1</ele>
        <time>2026-05-01T16:17:51.000Z</time>
      </trkpt>
      <trkpt lat="44.84214" lon="0.81194">
        <ele>196</ele>
        <time>2026-05-01T16:17:52.000Z</time>
      </trkpt>
      <trkpt lat="44.84216" lon="0.81192">
        <ele>195.6</ele>
        <time>2026-05-01T16:17:53.000Z</time>
      </trkpt>
      <trkpt lat="44.84217" lon="0.81191">
        <ele>196.1</ele>
        <time>2026-05-01T16:17:54.000Z</time>
      </trkpt>
      <trkpt lat="44.84219" lon="0.8119">
        <ele>195.6</ele>
        <time>2026-05-01T16:17:55.000Z</time>
      </trkpt>
      <trkpt lat="44.8422" lon="0.81189">
        <ele>195.5</ele>
        <time>2026-05-01T16:17:56.000Z</time>
      </trkpt>
      <trkpt lat="44.84222" lon="0.81188">
        <ele>195.4</ele>
        <time>2026-05-01T16:17:57.000Z</time>
      </trkpt>
      <trkpt lat="44.84224" lon="0.81187">
        <ele>195.3</ele>
        <time>2026-05-01T16:17:58.000Z</time>
      </trkpt>
      <trkpt lat="44.84225" lon="0.81186">
        <ele>195.5</ele>
        <time>2026-05-01T16:17:59.000Z</time>
      </trkpt>
      <trkpt lat="44.84227" lon="0.81185">
        <ele>195.7</ele>
        <time>2026-05-01T16:18:00.000Z</time>
      </trkpt>
      <trkpt lat="44.84228" lon="0.81184">
        <ele>195.5</ele>
        <time>2026-05-01T16:18:01.000Z</time>
      </trkpt>
      <trkpt lat="44.8423" lon="0.81183">
        <ele>195.5</ele>
        <time>2026-05-01T16:18:02.000Z</time>
      </trkpt>
      <trkpt lat="44.84231" lon="0.81182">
        <ele>195.4</ele>
        <time>2026-05-01T16:18:03.000Z</time>
      </trkpt>
      <trkpt lat="44.84233" lon="0.81181">
        <ele>195.2</ele>
        <time>2026-05-01T16:18:04.000Z</time>
      </trkpt>
      <trkpt lat="44.84234" lon="0.81179">
        <ele>195.3</ele>
        <time>2026-05-01T16:18:05.000Z</time>
      </trkpt>
      <trkpt lat="44.84235" lon="0.81178">
        <ele>195.3</ele>
        <time>2026-05-01T16:18:06.000Z</time>
      </trkpt>
      <trkpt lat="44.84237" lon="0.81177">
        <ele>195</ele>
        <time>2026-05-01T16:18:07.000Z</time>
      </trkpt>
      <trkpt lat="44.84238" lon="0.81176">
        <ele>195</ele>
        <time>2026-05-01T16:18:08.000Z</time>
      </trkpt>
      <trkpt lat="44.84239" lon="0.81175">
        <ele>194.9</ele>
        <time>2026-05-01T16:18:09.000Z</time>
      </trkpt>
      <trkpt lat="44.84241" lon="0.81174">
        <ele>195</ele>
        <time>2026-05-01T16:18:10.000Z</time>
      </trkpt>
      <trkpt lat="44.84242" lon="0.81173">
        <ele>194.6</ele>
        <time>2026-05-01T16:18:11.000Z</time>
      </trkpt>
      <trkpt lat="44.84243" lon="0.81172">
        <ele>194.6</ele>
        <time>2026-05-01T16:18:12.000Z</time>
      </trkpt>
      <trkpt lat="44.84245" lon="0.8117">
        <ele>194.7</ele>
        <time>2026-05-01T16:18:13.000Z</time>
      </trkpt>
      <trkpt lat="44.84246" lon="0.81169">
        <ele>194.2</ele>
        <time>2026-05-01T16:18:14.000Z</time>
      </trkpt>
      <trkpt lat="44.84247" lon="0.81168">
        <ele>194.4</ele>
        <time>2026-05-01T16:18:15.000Z</time>
      </trkpt>
      <trkpt lat="44.84249" lon="0.81166">
        <ele>194.3</ele>
        <time>2026-05-01T16:18:16.000Z</time>
      </trkpt>
      <trkpt lat="44.8425" lon="0.81165">
        <ele>194.1</ele>
        <time>2026-05-01T16:18:17.000Z</time>
      </trkpt>
      <trkpt lat="44.84252" lon="0.81164">
        <ele>193.9</ele>
        <time>2026-05-01T16:18:18.000Z</time>
      </trkpt>
      <trkpt lat="44.84253" lon="0.81162">
        <ele>193.5</ele>
        <time>2026-05-01T16:18:19.000Z</time>
      </trkpt>
      <trkpt lat="44.84254" lon="0.81161">
        <ele>193.6</ele>
        <time>2026-05-01T16:18:20.000Z</time>
      </trkpt>
      <trkpt lat="44.84256" lon="0.8116">
        <ele>193.7</ele>
        <time>2026-05-01T16:18:21.000Z</time>
      </trkpt>
      <trkpt lat="44.84256" lon="0.81158">
        <ele>194.3</ele>
        <time>2026-05-01T16:18:22.000Z</time>
      </trkpt>
      <trkpt lat="44.84257" lon="0.81157">
        <ele>194.1</ele>
        <time>2026-05-01T16:18:23.000Z</time>
      </trkpt>
      <trkpt lat="44.84259" lon="0.81155">
        <ele>194.3</ele>
        <time>2026-05-01T16:18:24.000Z</time>
      </trkpt>
      <trkpt lat="44.84261" lon="0.81153">
        <ele>194.1</ele>
        <time>2026-05-01T16:18:25.000Z</time>
      </trkpt>
      <trkpt lat="44.84262" lon="0.81151">
        <ele>194</ele>
        <time>2026-05-01T16:18:26.000Z</time>
      </trkpt>
      <trkpt lat="44.84263" lon="0.8115">
        <ele>194.1</ele>
        <time>2026-05-01T16:18:27.000Z</time>
      </trkpt>
      <trkpt lat="44.84265" lon="0.81148">
        <ele>194</ele>
        <time>2026-05-01T16:18:28.000Z</time>
      </trkpt>
      <trkpt lat="44.84266" lon="0.81147">
        <ele>193.8</ele>
        <time>2026-05-01T16:18:29.000Z</time>
      </trkpt>
      <trkpt lat="44.84268" lon="0.81146">
        <ele>193.6</ele>
        <time>2026-05-01T16:18:30.000Z</time>
      </trkpt>
      <trkpt lat="44.84269" lon="0.81144">
        <ele>193.4</ele>
        <time>2026-05-01T16:18:31.000Z</time>
      </trkpt>
      <trkpt lat="44.8427" lon="0.81143">
        <ele>193.2</ele>
        <time>2026-05-01T16:18:32.000Z</time>
      </trkpt>
      <trkpt lat="44.84271" lon="0.81141">
        <ele>193.1</ele>
        <time>2026-05-01T16:18:33.000Z</time>
      </trkpt>
      <trkpt lat="44.84273" lon="0.8114">
        <ele>192.7</ele>
        <time>2026-05-01T16:18:34.000Z</time>
      </trkpt>
      <trkpt lat="44.84274" lon="0.81139">
        <ele>192.6</ele>
        <time>2026-05-01T16:18:35.000Z</time>
      </trkpt>
      <trkpt lat="44.84275" lon="0.81138">
        <ele>192.2</ele>
        <time>2026-05-01T16:18:36.000Z</time>
      </trkpt>
      <trkpt lat="44.84277" lon="0.81136">
        <ele>192.1</ele>
        <time>2026-05-01T16:18:37.000Z</time>
      </trkpt>
      <trkpt lat="44.84278" lon="0.81135">
        <ele>192.3</ele>
        <time>2026-05-01T16:18:38.000Z</time>
      </trkpt>
      <trkpt lat="44.84279" lon="0.81133">
        <ele>192.2</ele>
        <time>2026-05-01T16:18:39.000Z</time>
      </trkpt>
      <trkpt lat="44.84281" lon="0.81131">
        <ele>192.3</ele>
        <time>2026-05-01T16:18:40.000Z</time>
      </trkpt>
      <trkpt lat="44.84282" lon="0.81129">
        <ele>192.4</ele>
        <time>2026-05-01T16:18:41.000Z</time>
      </trkpt>
      <trkpt lat="44.84283" lon="0.81127">
        <ele>192.5</ele>
        <time>2026-05-01T16:18:42.000Z</time>
      </trkpt>
      <trkpt lat="44.84284" lon="0.81124">
        <ele>192.3</ele>
        <time>2026-05-01T16:18:43.000Z</time>
      </trkpt>
      <trkpt lat="44.84286" lon="0.81122">
        <ele>192.4</ele>
        <time>2026-05-01T16:18:44.000Z</time>
      </trkpt>
      <trkpt lat="44.84287" lon="0.81119">
        <ele>192.3</ele>
        <time>2026-05-01T16:18:45.000Z</time>
      </trkpt>
      <trkpt lat="44.84288" lon="0.81117">
        <ele>192.1</ele>
        <time>2026-05-01T16:18:46.000Z</time>
      </trkpt>
      <trkpt lat="44.84289" lon="0.81114">
        <ele>192</ele>
        <time>2026-05-01T16:18:47.000Z</time>
      </trkpt>
      <trkpt lat="44.8429" lon="0.81112">
        <ele>191.8</ele>
        <time>2026-05-01T16:18:48.000Z</time>
      </trkpt>
      <trkpt lat="44.84291" lon="0.81109">
        <ele>191.7</ele>
        <time>2026-05-01T16:18:49.000Z</time>
      </trkpt>
      <trkpt lat="44.84293" lon="0.81106">
        <ele>191.9</ele>
        <time>2026-05-01T16:18:50.000Z</time>
      </trkpt>
      <trkpt lat="44.84294" lon="0.81104">
        <ele>192.2</ele>
        <time>2026-05-01T16:18:51.000Z</time>
      </trkpt>
      <trkpt lat="44.84295" lon="0.81102">
        <ele>192.2</ele>
        <time>2026-05-01T16:18:52.000Z</time>
      </trkpt>
      <trkpt lat="44.84296" lon="0.81099">
        <ele>192.3</ele>
        <time>2026-05-01T16:18:53.000Z</time>
      </trkpt>
      <trkpt lat="44.84298" lon="0.81098">
        <ele>192</ele>
        <time>2026-05-01T16:18:54.000Z</time>
      </trkpt>
      <trkpt lat="44.84299" lon="0.81096">
        <ele>192.2</ele>
        <time>2026-05-01T16:18:55.000Z</time>
      </trkpt>
      <trkpt lat="44.843" lon="0.81094">
        <ele>192</ele>
        <time>2026-05-01T16:18:56.000Z</time>
      </trkpt>
      <trkpt lat="44.84302" lon="0.81092">
        <ele>192.1</ele>
        <time>2026-05-01T16:18:57.000Z</time>
      </trkpt>
      <trkpt lat="44.84303" lon="0.8109">
        <ele>192</ele>
        <time>2026-05-01T16:18:58.000Z</time>
      </trkpt>
      <trkpt lat="44.84305" lon="0.81089">
        <ele>191.4</ele>
        <time>2026-05-01T16:18:59.000Z</time>
      </trkpt>
      <trkpt lat="44.84306" lon="0.81088">
        <ele>191.9</ele>
        <time>2026-05-01T16:19:00.000Z</time>
      </trkpt>
      <trkpt lat="44.84308" lon="0.81086">
        <ele>192</ele>
        <time>2026-05-01T16:19:01.000Z</time>
      </trkpt>
      <trkpt lat="44.84309" lon="0.81085">
        <ele>191.9</ele>
        <time>2026-05-01T16:19:02.000Z</time>
      </trkpt>
      <trkpt lat="44.84311" lon="0.81083">
        <ele>191.7</ele>
        <time>2026-05-01T16:19:03.000Z</time>
      </trkpt>
      <trkpt lat="44.84312" lon="0.81081">
        <ele>191.7</ele>
        <time>2026-05-01T16:19:04.000Z</time>
      </trkpt>
      <trkpt lat="44.84313" lon="0.81079">
        <ele>191.8</ele>
        <time>2026-05-01T16:19:05.000Z</time>
      </trkpt>
      <trkpt lat="44.84314" lon="0.81077">
        <ele>191.7</ele>
        <time>2026-05-01T16:19:06.000Z</time>
      </trkpt>
      <trkpt lat="44.84315" lon="0.81076">
        <ele>191.5</ele>
        <time>2026-05-01T16:19:07.000Z</time>
      </trkpt>
      <trkpt lat="44.84316" lon="0.81074">
        <ele>191.3</ele>
        <time>2026-05-01T16:19:08.000Z</time>
      </trkpt>
      <trkpt lat="44.84318" lon="0.81072">
        <ele>191</ele>
        <time>2026-05-01T16:19:09.000Z</time>
      </trkpt>
      <trkpt lat="44.84319" lon="0.81071">
        <ele>190.8</ele>
        <time>2026-05-01T16:19:10.000Z</time>
      </trkpt>
      <trkpt lat="44.8432" lon="0.8107">
        <ele>190.6</ele>
        <time>2026-05-01T16:19:11.000Z</time>
      </trkpt>
      <trkpt lat="44.84322" lon="0.81068">
        <ele>190.1</ele>
        <time>2026-05-01T16:19:12.000Z</time>
      </trkpt>
      <trkpt lat="44.84323" lon="0.81066">
        <ele>189.7</ele>
        <time>2026-05-01T16:19:13.000Z</time>
      </trkpt>
      <trkpt lat="44.84324" lon="0.81065">
        <ele>189.1</ele>
        <time>2026-05-01T16:19:14.000Z</time>
      </trkpt>
      <trkpt lat="44.84326" lon="0.81063">
        <ele>188.6</ele>
        <time>2026-05-01T16:19:15.000Z</time>
      </trkpt>
      <trkpt lat="44.84327" lon="0.81062">
        <ele>188.3</ele>
        <time>2026-05-01T16:19:16.000Z</time>
      </trkpt>
      <trkpt lat="44.84328" lon="0.8106">
        <ele>188.3</ele>
        <time>2026-05-01T16:19:17.000Z</time>
      </trkpt>
      <trkpt lat="44.8433" lon="0.81058">
        <ele>187.8</ele>
        <time>2026-05-01T16:19:18.000Z</time>
      </trkpt>
      <trkpt lat="44.84331" lon="0.81057">
        <ele>187.3</ele>
        <time>2026-05-01T16:19:19.000Z</time>
      </trkpt>
      <trkpt lat="44.84333" lon="0.81056">
        <ele>187.2</ele>
        <time>2026-05-01T16:19:20.000Z</time>
      </trkpt>
      <trkpt lat="44.84334" lon="0.81054">
        <ele>187</ele>
        <time>2026-05-01T16:19:21.000Z</time>
      </trkpt>
      <trkpt lat="44.84335" lon="0.81053">
        <ele>186.3</ele>
        <time>2026-05-01T16:19:22.000Z</time>
      </trkpt>
      <trkpt lat="44.84337" lon="0.81052">
        <ele>186.1</ele>
        <time>2026-05-01T16:19:23.000Z</time>
      </trkpt>
      <trkpt lat="44.84337" lon="0.81051">
        <ele>186</ele>
        <time>2026-05-01T16:19:24.000Z</time>
      </trkpt>
      <trkpt lat="44.84338" lon="0.8105">
        <ele>185.8</ele>
        <time>2026-05-01T16:19:25.000Z</time>
      </trkpt>
      <trkpt lat="44.84339" lon="0.81049">
        <ele>184.8</ele>
        <time>2026-05-01T16:19:26.000Z</time>
      </trkpt>
      <trkpt lat="44.84339" lon="0.81048">
        <ele>183.8</ele>
        <time>2026-05-01T16:19:27.000Z</time>
      </trkpt>
      <trkpt lat="44.8434" lon="0.81047">
        <ele>183.4</ele>
        <time>2026-05-01T16:19:28.000Z</time>
      </trkpt>
      <trkpt lat="44.84341" lon="0.81045">
        <ele>183.2</ele>
        <time>2026-05-01T16:19:29.000Z</time>
      </trkpt>
      <trkpt lat="44.84343" lon="0.81044">
        <ele>182.8</ele>
        <time>2026-05-01T16:19:30.000Z</time>
      </trkpt>
      <trkpt lat="44.84345" lon="0.81043">
        <ele>182.9</ele>
        <time>2026-05-01T16:19:31.000Z</time>
      </trkpt>
      <trkpt lat="44.84346" lon="0.81041">
        <ele>182.7</ele>
        <time>2026-05-01T16:19:32.000Z</time>
      </trkpt>
      <trkpt lat="44.84348" lon="0.81039">
        <ele>182.8</ele>
        <time>2026-05-01T16:19:33.000Z</time>
      </trkpt>
      <trkpt lat="44.84349" lon="0.81038">
        <ele>182.4</ele>
        <time>2026-05-01T16:19:34.000Z</time>
      </trkpt>
      <trkpt lat="44.84351" lon="0.81037">
        <ele>182.6</ele>
        <time>2026-05-01T16:19:35.000Z</time>
      </trkpt>
      <trkpt lat="44.84352" lon="0.81035">
        <ele>182.4</ele>
        <time>2026-05-01T16:19:36.000Z</time>
      </trkpt>
      <trkpt lat="44.84354" lon="0.81033">
        <ele>182</ele>
        <time>2026-05-01T16:19:37.000Z</time>
      </trkpt>
      <trkpt lat="44.84355" lon="0.81031">
        <ele>182.1</ele>
        <time>2026-05-01T16:19:38.000Z</time>
      </trkpt>
      <trkpt lat="44.84356" lon="0.81029">
        <ele>181.2</ele>
        <time>2026-05-01T16:19:39.000Z</time>
      </trkpt>
      <trkpt lat="44.84357" lon="0.81027">
        <ele>181</ele>
        <time>2026-05-01T16:19:40.000Z</time>
      </trkpt>
      <trkpt lat="44.84359" lon="0.81026">
        <ele>181</ele>
        <time>2026-05-01T16:19:41.000Z</time>
      </trkpt>
      <trkpt lat="44.8436" lon="0.81025">
        <ele>180.8</ele>
        <time>2026-05-01T16:19:42.000Z</time>
      </trkpt>
      <trkpt lat="44.84361" lon="0.81023">
        <ele>180.5</ele>
        <time>2026-05-01T16:19:43.000Z</time>
      </trkpt>
      <trkpt lat="44.84362" lon="0.81021">
        <ele>180.4</ele>
        <time>2026-05-01T16:19:44.000Z</time>
      </trkpt>
      <trkpt lat="44.84363" lon="0.81019">
        <ele>180.5</ele>
        <time>2026-05-01T16:19:45.000Z</time>
      </trkpt>
      <trkpt lat="44.84364" lon="0.81018">
        <ele>180.9</ele>
        <time>2026-05-01T16:19:46.000Z</time>
      </trkpt>
      <trkpt lat="44.84366" lon="0.81016">
        <ele>181.4</ele>
        <time>2026-05-01T16:19:47.000Z</time>
      </trkpt>
      <trkpt lat="44.84367" lon="0.81014">
        <ele>181</ele>
        <time>2026-05-01T16:19:48.000Z</time>
      </trkpt>
      <trkpt lat="44.84368" lon="0.81012">
        <ele>181.2</ele>
        <time>2026-05-01T16:19:49.000Z</time>
      </trkpt>
      <trkpt lat="44.8437" lon="0.81011">
        <ele>180.6</ele>
        <time>2026-05-01T16:19:50.000Z</time>
      </trkpt>
      <trkpt lat="44.84371" lon="0.81009">
        <ele>180.5</ele>
        <time>2026-05-01T16:19:51.000Z</time>
      </trkpt>
      <trkpt lat="44.84373" lon="0.81007">
        <ele>181.2</ele>
        <time>2026-05-01T16:19:52.000Z</time>
      </trkpt>
      <trkpt lat="44.84375" lon="0.81006">
        <ele>181.5</ele>
        <time>2026-05-01T16:19:53.000Z</time>
      </trkpt>
      <trkpt lat="44.84376" lon="0.81004">
        <ele>181.3</ele>
        <time>2026-05-01T16:19:54.000Z</time>
      </trkpt>
      <trkpt lat="44.84377" lon="0.81003">
        <ele>181.6</ele>
        <time>2026-05-01T16:19:55.000Z</time>
      </trkpt>
      <trkpt lat="44.84379" lon="0.81001">
        <ele>181.6</ele>
        <time>2026-05-01T16:19:56.000Z</time>
      </trkpt>
      <trkpt lat="44.8438" lon="0.80999">
        <ele>181.9</ele>
        <time>2026-05-01T16:19:57.000Z</time>
      </trkpt>
      <trkpt lat="44.8438" lon="0.80998">
        <ele>181.3</ele>
        <time>2026-05-01T16:19:58.000Z</time>
      </trkpt>
      <trkpt lat="44.8438" lon="0.80997">
        <ele>181.1</ele>
        <time>2026-05-01T16:19:59.000Z</time>
      </trkpt>
      <trkpt lat="44.84381" lon="0.80996">
        <ele>181.3</ele>
        <time>2026-05-01T16:20:00.000Z</time>
      </trkpt>
      <trkpt lat="44.84382" lon="0.80994">
        <ele>181.2</ele>
        <time>2026-05-01T16:20:01.000Z</time>
      </trkpt>
      <trkpt lat="44.84384" lon="0.80993">
        <ele>181.2</ele>
        <time>2026-05-01T16:20:02.000Z</time>
      </trkpt>
      <trkpt lat="44.84385" lon="0.80991">
        <ele>181.2</ele>
        <time>2026-05-01T16:20:03.000Z</time>
      </trkpt>
      <trkpt lat="44.84387" lon="0.8099">
        <ele>181.2</ele>
        <time>2026-05-01T16:20:04.000Z</time>
      </trkpt>
      <trkpt lat="44.84388" lon="0.80988">
        <ele>181.5</ele>
        <time>2026-05-01T16:20:05.000Z</time>
      </trkpt>
      <trkpt lat="44.8439" lon="0.80986">
        <ele>181.4</ele>
        <time>2026-05-01T16:20:06.000Z</time>
      </trkpt>
      <trkpt lat="44.84391" lon="0.80984">
        <ele>181.7</ele>
        <time>2026-05-01T16:20:07.000Z</time>
      </trkpt>
      <trkpt lat="44.84393" lon="0.80982">
        <ele>181.8</ele>
        <time>2026-05-01T16:20:08.000Z</time>
      </trkpt>
      <trkpt lat="44.84394" lon="0.8098">
        <ele>181.7</ele>
        <time>2026-05-01T16:20:09.000Z</time>
      </trkpt>
      <trkpt lat="44.84395" lon="0.80978">
        <ele>182.2</ele>
        <time>2026-05-01T16:20:10.000Z</time>
      </trkpt>
      <trkpt lat="44.84397" lon="0.80976">
        <ele>182.6</ele>
        <time>2026-05-01T16:20:11.000Z</time>
      </trkpt>
      <trkpt lat="44.84398" lon="0.80974">
        <ele>181.9</ele>
        <time>2026-05-01T16:20:12.000Z</time>
      </trkpt>
      <trkpt lat="44.844" lon="0.80972">
        <ele>181.9</ele>
        <time>2026-05-01T16:20:13.000Z</time>
      </trkpt>
      <trkpt lat="44.84401" lon="0.8097">
        <ele>182</ele>
        <time>2026-05-01T16:20:14.000Z</time>
      </trkpt>
      <trkpt lat="44.84402" lon="0.80968">
        <ele>182.4</ele>
        <time>2026-05-01T16:20:15.000Z</time>
      </trkpt>
      <trkpt lat="44.84404" lon="0.80966">
        <ele>181.9</ele>
        <time>2026-05-01T16:20:16.000Z</time>
      </trkpt>
      <trkpt lat="44.84405" lon="0.80964">
        <ele>182.2</ele>
        <time>2026-05-01T16:20:17.000Z</time>
      </trkpt>
      <trkpt lat="44.84406" lon="0.80961">
        <ele>182.9</ele>
        <time>2026-05-01T16:20:18.000Z</time>
      </trkpt>
      <trkpt lat="44.84407" lon="0.80959">
        <ele>183.4</ele>
        <time>2026-05-01T16:20:19.000Z</time>
      </trkpt>
      <trkpt lat="44.84409" lon="0.80957">
        <ele>183.1</ele>
        <time>2026-05-01T16:20:20.000Z</time>
      </trkpt>
      <trkpt lat="44.8441" lon="0.80955">
        <ele>182.9</ele>
        <time>2026-05-01T16:20:21.000Z</time>
      </trkpt>
      <trkpt lat="44.84411" lon="0.80954">
        <ele>182.5</ele>
        <time>2026-05-01T16:20:22.000Z</time>
      </trkpt>
      <trkpt lat="44.84412" lon="0.80952">
        <ele>182.7</ele>
        <time>2026-05-01T16:20:23.000Z</time>
      </trkpt>
      <trkpt lat="44.84413" lon="0.80949">
        <ele>182.9</ele>
        <time>2026-05-01T16:20:24.000Z</time>
      </trkpt>
      <trkpt lat="44.84415" lon="0.80947">
        <ele>183.1</ele>
        <time>2026-05-01T16:20:25.000Z</time>
      </trkpt>
      <trkpt lat="44.84416" lon="0.80945">
        <ele>183.4</ele>
        <time>2026-05-01T16:20:26.000Z</time>
      </trkpt>
      <trkpt lat="44.84417" lon="0.80943">
        <ele>183.3</ele>
        <time>2026-05-01T16:20:27.000Z</time>
      </trkpt>
      <trkpt lat="44.84418" lon="0.80941">
        <ele>183.2</ele>
        <time>2026-05-01T16:20:28.000Z</time>
      </trkpt>
      <trkpt lat="44.84419" lon="0.80938">
        <ele>183.3</ele>
        <time>2026-05-01T16:20:29.000Z</time>
      </trkpt>
      <trkpt lat="44.84421" lon="0.80936">
        <ele>183.3</ele>
        <time>2026-05-01T16:20:30.000Z</time>
      </trkpt>
      <trkpt lat="44.84422" lon="0.80934">
        <ele>183.4</ele>
        <time>2026-05-01T16:20:31.000Z</time>
      </trkpt>
      <trkpt lat="44.84423" lon="0.80932">
        <ele>183.4</ele>
        <time>2026-05-01T16:20:32.000Z</time>
      </trkpt>
      <trkpt lat="44.84424" lon="0.80931">
        <ele>183.2</ele>
        <time>2026-05-01T16:20:33.000Z</time>
      </trkpt>
      <trkpt lat="44.84425" lon="0.80929">
        <ele>183.2</ele>
        <time>2026-05-01T16:20:34.000Z</time>
      </trkpt>
      <trkpt lat="44.84426" lon="0.80927">
        <ele>183.2</ele>
        <time>2026-05-01T16:20:35.000Z</time>
      </trkpt>
      <trkpt lat="44.84427" lon="0.80925">
        <ele>183</ele>
        <time>2026-05-01T16:20:36.000Z</time>
      </trkpt>
      <trkpt lat="44.84428" lon="0.80922">
        <ele>182.9</ele>
        <time>2026-05-01T16:20:37.000Z</time>
      </trkpt>
      <trkpt lat="44.84429" lon="0.8092">
        <ele>182.9</ele>
        <time>2026-05-01T16:20:38.000Z</time>
      </trkpt>
      <trkpt lat="44.84429" lon="0.80918">
        <ele>182.8</ele>
        <time>2026-05-01T16:20:39.000Z</time>
      </trkpt>
      <trkpt lat="44.8443" lon="0.80916">
        <ele>182.5</ele>
        <time>2026-05-01T16:20:40.000Z</time>
      </trkpt>
      <trkpt lat="44.8443" lon="0.80913">
        <ele>182.6</ele>
        <time>2026-05-01T16:20:41.000Z</time>
      </trkpt>
      <trkpt lat="44.8443" lon="0.80911">
        <ele>182.6</ele>
        <time>2026-05-01T16:20:42.000Z</time>
      </trkpt>
      <trkpt lat="44.8443" lon="0.80909">
        <ele>182.3</ele>
        <time>2026-05-01T16:20:43.000Z</time>
      </trkpt>
      <trkpt lat="44.84429" lon="0.80906">
        <ele>182.1</ele>
        <time>2026-05-01T16:20:44.000Z</time>
      </trkpt>
      <trkpt lat="44.84429" lon="0.80903">
        <ele>182.4</ele>
        <time>2026-05-01T16:20:45.000Z</time>
      </trkpt>
      <trkpt lat="44.84429" lon="0.809">
        <ele>182.5</ele>
        <time>2026-05-01T16:20:46.000Z</time>
      </trkpt>
      <trkpt lat="44.84429" lon="0.80898">
        <ele>182.4</ele>
        <time>2026-05-01T16:20:47.000Z</time>
      </trkpt>
      <trkpt lat="44.84428" lon="0.80895">
        <ele>182.4</ele>
        <time>2026-05-01T16:20:48.000Z</time>
      </trkpt>
      <trkpt lat="44.84428" lon="0.80892">
        <ele>181.8</ele>
        <time>2026-05-01T16:20:49.000Z</time>
      </trkpt>
      <trkpt lat="44.84427" lon="0.8089">
        <ele>181.2</ele>
        <time>2026-05-01T16:20:50.000Z</time>
      </trkpt>
      <trkpt lat="44.84427" lon="0.80887">
        <ele>180.9</ele>
        <time>2026-05-01T16:20:51.000Z</time>
      </trkpt>
      <trkpt lat="44.84427" lon="0.80885">
        <ele>180.9</ele>
        <time>2026-05-01T16:20:52.000Z</time>
      </trkpt>
      <trkpt lat="44.84426" lon="0.80882">
        <ele>180.8</ele>
        <time>2026-05-01T16:20:53.000Z</time>
      </trkpt>
      <trkpt lat="44.84426" lon="0.8088">
        <ele>180.6</ele>
        <time>2026-05-01T16:20:54.000Z</time>
      </trkpt>
      <trkpt lat="44.84426" lon="0.80877">
        <ele>180.7</ele>
        <time>2026-05-01T16:20:55.000Z</time>
      </trkpt>
      <trkpt lat="44.84426" lon="0.80875">
        <ele>181</ele>
        <time>2026-05-01T16:20:56.000Z</time>
      </trkpt>
      <trkpt lat="44.84425" lon="0.80873">
        <ele>181.1</ele>
        <time>2026-05-01T16:20:57.000Z</time>
      </trkpt>
      <trkpt lat="44.84425" lon="0.8087">
        <ele>181.2</ele>
        <time>2026-05-01T16:20:58.000Z</time>
      </trkpt>
      <trkpt lat="44.84425" lon="0.80867">
        <ele>181</ele>
        <time>2026-05-01T16:20:59.000Z</time>
      </trkpt>
      <trkpt lat="44.84425" lon="0.80865">
        <ele>181.2</ele>
        <time>2026-05-01T16:21:00.000Z</time>
      </trkpt>
      <trkpt lat="44.84425" lon="0.80862">
        <ele>181.3</ele>
        <time>2026-05-01T16:21:01.000Z</time>
      </trkpt>
      <trkpt lat="44.84425" lon="0.8086">
        <ele>181.3</ele>
        <time>2026-05-01T16:21:02.000Z</time>
      </trkpt>
      <trkpt lat="44.84425" lon="0.80857">
        <ele>181.2</ele>
        <time>2026-05-01T16:21:03.000Z</time>
      </trkpt>
      <trkpt lat="44.84425" lon="0.80854">
        <ele>181</ele>
        <time>2026-05-01T16:21:04.000Z</time>
      </trkpt>
      <trkpt lat="44.84425" lon="0.80852">
        <ele>181</ele>
        <time>2026-05-01T16:21:05.000Z</time>
      </trkpt>
      <trkpt lat="44.84424" lon="0.80849">
        <ele>181.2</ele>
        <time>2026-05-01T16:21:06.000Z</time>
      </trkpt>
      <trkpt lat="44.84424" lon="0.80847">
        <ele>181.2</ele>
        <time>2026-05-01T16:21:07.000Z</time>
      </trkpt>
      <trkpt lat="44.84423" lon="0.80844">
        <ele>180.4</ele>
        <time>2026-05-01T16:21:08.000Z</time>
      </trkpt>
      <trkpt lat="44.84422" lon="0.80841">
        <ele>180.1</ele>
        <time>2026-05-01T16:21:09.000Z</time>
      </trkpt>
      <trkpt lat="44.84421" lon="0.8084">
        <ele>179.9</ele>
        <time>2026-05-01T16:21:10.000Z</time>
      </trkpt>
      <trkpt lat="44.8442" lon="0.80838">
        <ele>179.6</ele>
        <time>2026-05-01T16:21:11.000Z</time>
      </trkpt>
      <trkpt lat="44.84419" lon="0.80836">
        <ele>179.2</ele>
        <time>2026-05-01T16:21:12.000Z</time>
      </trkpt>
      <trkpt lat="44.84419" lon="0.80835">
        <ele>179.1</ele>
        <time>2026-05-01T16:21:13.000Z</time>
      </trkpt>
      <trkpt lat="44.84418" lon="0.80833">
        <ele>179.8</ele>
        <time>2026-05-01T16:21:14.000Z</time>
      </trkpt>
      <trkpt lat="44.84417" lon="0.80831">
        <ele>180.1</ele>
        <time>2026-05-01T16:21:15.000Z</time>
      </trkpt>
      <trkpt lat="44.84415" lon="0.8083">
        <ele>180.4</ele>
        <time>2026-05-01T16:21:16.000Z</time>
      </trkpt>
      <trkpt lat="44.84414" lon="0.80828">
        <ele>179.9</ele>
        <time>2026-05-01T16:21:17.000Z</time>
      </trkpt>
      <trkpt lat="44.84412" lon="0.80825">
        <ele>181.1</ele>
        <time>2026-05-01T16:21:18.000Z</time>
      </trkpt>
      <trkpt lat="44.8441" lon="0.80822">
        <ele>181.4</ele>
        <time>2026-05-01T16:21:19.000Z</time>
      </trkpt>
      <trkpt lat="44.84408" lon="0.8082">
        <ele>181.4</ele>
        <time>2026-05-01T16:21:20.000Z</time>
      </trkpt>
      <trkpt lat="44.84406" lon="0.80818">
        <ele>180.8</ele>
        <time>2026-05-01T16:21:21.000Z</time>
      </trkpt>
      <trkpt lat="44.84404" lon="0.80814">
        <ele>180.6</ele>
        <time>2026-05-01T16:21:22.000Z</time>
      </trkpt>
      <trkpt lat="44.84401" lon="0.80811">
        <ele>180.6</ele>
        <time>2026-05-01T16:21:23.000Z</time>
      </trkpt>
      <trkpt lat="44.844" lon="0.80808">
        <ele>180.6</ele>
        <time>2026-05-01T16:21:24.000Z</time>
      </trkpt>
      <trkpt lat="44.84397" lon="0.80804">
        <ele>181.6</ele>
        <time>2026-05-01T16:21:25.000Z</time>
      </trkpt>
      <trkpt lat="44.84395" lon="0.80801">
        <ele>181.4</ele>
        <time>2026-05-01T16:21:26.000Z</time>
      </trkpt>
      <trkpt lat="44.84393" lon="0.80798">
        <ele>182</ele>
        <time>2026-05-01T16:21:27.000Z</time>
      </trkpt>
      <trkpt lat="44.84391" lon="0.80794">
        <ele>183.5</ele>
        <time>2026-05-01T16:21:28.000Z</time>
      </trkpt>
      <trkpt lat="44.84389" lon="0.8079">
        <ele>183.5</ele>
        <time>2026-05-01T16:21:29.000Z</time>
      </trkpt>
      <trkpt lat="44.84388" lon="0.80785">
        <ele>183.5</ele>
        <time>2026-05-01T16:21:30.000Z</time>
      </trkpt>
      <trkpt lat="44.84387" lon="0.8078">
        <ele>184.6</ele>
        <time>2026-05-01T16:21:31.000Z</time>
      </trkpt>
      <trkpt lat="44.84387" lon="0.80775">
        <ele>185.6</ele>
        <time>2026-05-01T16:21:32.000Z</time>
      </trkpt>
      <trkpt lat="44.84385" lon="0.8077">
        <ele>185.4</ele>
        <time>2026-05-01T16:21:33.000Z</time>
      </trkpt>
      <trkpt lat="44.84385" lon="0.80765">
        <ele>186.3</ele>
        <time>2026-05-01T16:21:34.000Z</time>
      </trkpt>
      <trkpt lat="44.84385" lon="0.8076">
        <ele>186.5</ele>
        <time>2026-05-01T16:21:35.000Z</time>
      </trkpt>
      <trkpt lat="44.84385" lon="0.80754">
        <ele>186.9</ele>
        <time>2026-05-01T16:21:36.000Z</time>
      </trkpt>
      <trkpt lat="44.84385" lon="0.80749">
        <ele>187.3</ele>
        <time>2026-05-01T16:21:37.000Z</time>
      </trkpt>
      <trkpt lat="44.84386" lon="0.80743">
        <ele>187.6</ele>
        <time>2026-05-01T16:21:38.000Z</time>
      </trkpt>
      <trkpt lat="44.84387" lon="0.80739">
        <ele>187.9</ele>
        <time>2026-05-01T16:21:39.000Z</time>
      </trkpt>
      <trkpt lat="44.84389" lon="0.80735">
        <ele>187.1</ele>
        <time>2026-05-01T16:21:40.000Z</time>
      </trkpt>
      <trkpt lat="44.8439" lon="0.80732">
        <ele>185.8</ele>
        <time>2026-05-01T16:21:41.000Z</time>
      </trkpt>
      <trkpt lat="44.84391" lon="0.80729">
        <ele>185.3</ele>
        <time>2026-05-01T16:21:42.000Z</time>
      </trkpt>
      <trkpt lat="44.84391" lon="0.80726">
        <ele>183.5</ele>
        <time>2026-05-01T16:21:43.000Z</time>
      </trkpt>
      <trkpt lat="44.84393" lon="0.80722">
        <ele>183.2</ele>
        <time>2026-05-01T16:21:44.000Z</time>
      </trkpt>
      <trkpt lat="44.84395" lon="0.80717">
        <ele>185.8</ele>
        <time>2026-05-01T16:21:45.000Z</time>
      </trkpt>
      <trkpt lat="44.84397" lon="0.80712">
        <ele>187.9</ele>
        <time>2026-05-01T16:21:46.000Z</time>
      </trkpt>
      <trkpt lat="44.844" lon="0.80707">
        <ele>187.4</ele>
        <time>2026-05-01T16:21:47.000Z</time>
      </trkpt>
      <trkpt lat="44.84403" lon="0.80702">
        <ele>187.3</ele>
        <time>2026-05-01T16:21:48.000Z</time>
      </trkpt>
      <trkpt lat="44.84406" lon="0.80698">
        <ele>187.4</ele>
        <time>2026-05-01T16:21:49.000Z</time>
      </trkpt>
      <trkpt lat="44.84408" lon="0.80693">
        <ele>186.7</ele>
        <time>2026-05-01T16:21:50.000Z</time>
      </trkpt>
      <trkpt lat="44.84411" lon="0.80689">
        <ele>184.6</ele>
        <time>2026-05-01T16:21:51.000Z</time>
      </trkpt>
      <trkpt lat="44.84415" lon="0.80685">
        <ele>183.5</ele>
        <time>2026-05-01T16:21:52.000Z</time>
      </trkpt>
      <trkpt lat="44.84418" lon="0.80681">
        <ele>183.8</ele>
        <time>2026-05-01T16:21:53.000Z</time>
      </trkpt>
      <trkpt lat="44.84421" lon="0.80678">
        <ele>184.2</ele>
        <time>2026-05-01T16:21:54.000Z</time>
      </trkpt>
      <trkpt lat="44.84424" lon="0.80675">
        <ele>185.2</ele>
        <time>2026-05-01T16:21:55.000Z</time>
      </trkpt>
      <trkpt lat="44.84427" lon="0.80671">
        <ele>186.6</ele>
        <time>2026-05-01T16:21:56.000Z</time>
      </trkpt>
      <trkpt lat="44.8443" lon="0.80668">
        <ele>186.8</ele>
        <time>2026-05-01T16:21:57.000Z</time>
      </trkpt>
      <trkpt lat="44.84432" lon="0.80665">
        <ele>187.2</ele>
        <time>2026-05-01T16:21:58.000Z</time>
      </trkpt>
      <trkpt lat="44.84435" lon="0.80661">
        <ele>187.3</ele>
        <time>2026-05-01T16:21:59.000Z</time>
      </trkpt>
      <trkpt lat="44.84438" lon="0.80659">
        <ele>187.7</ele>
        <time>2026-05-01T16:22:00.000Z</time>
      </trkpt>
      <trkpt lat="44.84441" lon="0.80658">
        <ele>187.4</ele>
        <time>2026-05-01T16:22:01.000Z</time>
      </trkpt>
      <trkpt lat="44.84442" lon="0.80657">
        <ele>188.4</ele>
        <time>2026-05-01T16:22:02.000Z</time>
      </trkpt>
      <trkpt lat="44.84445" lon="0.80655">
        <ele>186.3</ele>
        <time>2026-05-01T16:22:03.000Z</time>
      </trkpt>
      <trkpt lat="44.84448" lon="0.80653">
        <ele>185.7</ele>
        <time>2026-05-01T16:22:04.000Z</time>
      </trkpt>
      <trkpt lat="44.84451" lon="0.8065">
        <ele>185</ele>
        <time>2026-05-01T16:22:05.000Z</time>
      </trkpt>
      <trkpt lat="44.84455" lon="0.80647">
        <ele>185.3</ele>
        <time>2026-05-01T16:22:06.000Z</time>
      </trkpt>
      <trkpt lat="44.84458" lon="0.80643">
        <ele>185.4</ele>
        <time>2026-05-01T16:22:07.000Z</time>
      </trkpt>
      <trkpt lat="44.84461" lon="0.80641">
        <ele>186.2</ele>
        <time>2026-05-01T16:22:08.000Z</time>
      </trkpt>
      <trkpt lat="44.84465" lon="0.80639">
        <ele>186.6</ele>
        <time>2026-05-01T16:22:09.000Z</time>
      </trkpt>
      <trkpt lat="44.84469" lon="0.80637">
        <ele>187.3</ele>
        <time>2026-05-01T16:22:10.000Z</time>
      </trkpt>
      <trkpt lat="44.84472" lon="0.80636">
        <ele>186.7</ele>
        <time>2026-05-01T16:22:11.000Z</time>
      </trkpt>
      <trkpt lat="44.84476" lon="0.80635">
        <ele>186.5</ele>
        <time>2026-05-01T16:22:12.000Z</time>
      </trkpt>
      <trkpt lat="44.8448" lon="0.80634">
        <ele>186.1</ele>
        <time>2026-05-01T16:22:13.000Z</time>
      </trkpt>
      <trkpt lat="44.84483" lon="0.80633">
        <ele>186.8</ele>
        <time>2026-05-01T16:22:14.000Z</time>
      </trkpt>
      <trkpt lat="44.84486" lon="0.80632">
        <ele>186.9</ele>
        <time>2026-05-01T16:22:15.000Z</time>
      </trkpt>
      <trkpt lat="44.8449" lon="0.8063">
        <ele>186.6</ele>
        <time>2026-05-01T16:22:16.000Z</time>
      </trkpt>
      <trkpt lat="44.84493" lon="0.80629">
        <ele>186.9</ele>
        <time>2026-05-01T16:22:17.000Z</time>
      </trkpt>
      <trkpt lat="44.84496" lon="0.80627">
        <ele>187.8</ele>
        <time>2026-05-01T16:22:18.000Z</time>
      </trkpt>
      <trkpt lat="44.84499" lon="0.80625">
        <ele>188.7</ele>
        <time>2026-05-01T16:22:19.000Z</time>
      </trkpt>
      <trkpt lat="44.84502" lon="0.80622">
        <ele>188.3</ele>
        <time>2026-05-01T16:22:20.000Z</time>
      </trkpt>
      <trkpt lat="44.84504" lon="0.8062">
        <ele>188.3</ele>
        <time>2026-05-01T16:22:21.000Z</time>
      </trkpt>
      <trkpt lat="44.84508" lon="0.80619">
        <ele>188.4</ele>
        <time>2026-05-01T16:22:22.000Z</time>
      </trkpt>
      <trkpt lat="44.84511" lon="0.80617">
        <ele>189.5</ele>
        <time>2026-05-01T16:22:23.000Z</time>
      </trkpt>
      <trkpt lat="44.84514" lon="0.80615">
        <ele>189.4</ele>
        <time>2026-05-01T16:22:24.000Z</time>
      </trkpt>
      <trkpt lat="44.84517" lon="0.80613">
        <ele>189.9</ele>
        <time>2026-05-01T16:22:25.000Z</time>
      </trkpt>
      <trkpt lat="44.8452" lon="0.80611">
        <ele>190.6</ele>
        <time>2026-05-01T16:22:26.000Z</time>
      </trkpt>
      <trkpt lat="44.84522" lon="0.80608">
        <ele>191.2</ele>
        <time>2026-05-01T16:22:27.000Z</time>
      </trkpt>
      <trkpt lat="44.84525" lon="0.80604">
        <ele>191.8</ele>
        <time>2026-05-01T16:22:28.000Z</time>
      </trkpt>
      <trkpt lat="44.84528" lon="0.80602">
        <ele>194.2</ele>
        <time>2026-05-01T16:22:29.000Z</time>
      </trkpt>
      <trkpt lat="44.8453" lon="0.806">
        <ele>194.1</ele>
        <time>2026-05-01T16:22:30.000Z</time>
      </trkpt>
      <trkpt lat="44.84532" lon="0.80599">
        <ele>193.2</ele>
        <time>2026-05-01T16:22:31.000Z</time>
      </trkpt>
      <trkpt lat="44.84535" lon="0.80597">
        <ele>193.2</ele>
        <time>2026-05-01T16:22:32.000Z</time>
      </trkpt>
      <trkpt lat="44.84538" lon="0.80596">
        <ele>193.8</ele>
        <time>2026-05-01T16:22:33.000Z</time>
      </trkpt>
      <trkpt lat="44.8454" lon="0.80594">
        <ele>194.4</ele>
        <time>2026-05-01T16:22:34.000Z</time>
      </trkpt>
      <trkpt lat="44.84543" lon="0.80591">
        <ele>194.6</ele>
        <time>2026-05-01T16:22:35.000Z</time>
      </trkpt>
      <trkpt lat="44.84545" lon="0.80589">
        <ele>195</ele>
        <time>2026-05-01T16:22:36.000Z</time>
      </trkpt>
      <trkpt lat="44.84548" lon="0.80587">
        <ele>194.8</ele>
        <time>2026-05-01T16:22:37.000Z</time>
      </trkpt>
      <trkpt lat="44.84551" lon="0.80584">
        <ele>193.8</ele>
        <time>2026-05-01T16:22:38.000Z</time>
      </trkpt>
      <trkpt lat="44.84554" lon="0.80582">
        <ele>192.3</ele>
        <time>2026-05-01T16:22:39.000Z</time>
      </trkpt>
      <trkpt lat="44.84557" lon="0.80579">
        <ele>193.1</ele>
        <time>2026-05-01T16:22:40.000Z</time>
      </trkpt>
      <trkpt lat="44.8456" lon="0.80577">
        <ele>192.6</ele>
        <time>2026-05-01T16:22:41.000Z</time>
      </trkpt>
      <trkpt lat="44.84562" lon="0.80575">
        <ele>194.3</ele>
        <time>2026-05-01T16:22:42.000Z</time>
      </trkpt>
      <trkpt lat="44.84565" lon="0.80572">
        <ele>193.2</ele>
        <time>2026-05-01T16:22:43.000Z</time>
      </trkpt>
      <trkpt lat="44.84568" lon="0.80569">
        <ele>192.9</ele>
        <time>2026-05-01T16:22:44.000Z</time>
      </trkpt>
      <trkpt lat="44.84572" lon="0.80566">
        <ele>193.3</ele>
        <time>2026-05-01T16:22:45.000Z</time>
      </trkpt>
      <trkpt lat="44.84575" lon="0.80564">
        <ele>193.3</ele>
        <time>2026-05-01T16:22:46.000Z</time>
      </trkpt>
      <trkpt lat="44.84578" lon="0.80562">
        <ele>193.8</ele>
        <time>2026-05-01T16:22:47.000Z</time>
      </trkpt>
      <trkpt lat="44.84581" lon="0.80558">
        <ele>193.1</ele>
        <time>2026-05-01T16:22:48.000Z</time>
      </trkpt>
      <trkpt lat="44.84584" lon="0.80556">
        <ele>192.9</ele>
        <time>2026-05-01T16:22:49.000Z</time>
      </trkpt>
      <trkpt lat="44.84587" lon="0.80553">
        <ele>192.8</ele>
        <time>2026-05-01T16:22:50.000Z</time>
      </trkpt>
      <trkpt lat="44.8459" lon="0.80552">
        <ele>192.2</ele>
        <time>2026-05-01T16:22:51.000Z</time>
      </trkpt>
      <trkpt lat="44.84594" lon="0.8055">
        <ele>192.5</ele>
        <time>2026-05-01T16:22:52.000Z</time>
      </trkpt>
      <trkpt lat="44.84597" lon="0.80548">
        <ele>192.6</ele>
        <time>2026-05-01T16:22:53.000Z</time>
      </trkpt>
      <trkpt lat="44.84601" lon="0.80547">
        <ele>192.2</ele>
        <time>2026-05-01T16:22:54.000Z</time>
      </trkpt>
      <trkpt lat="44.84604" lon="0.80546">
        <ele>192.2</ele>
        <time>2026-05-01T16:22:55.000Z</time>
      </trkpt>
      <trkpt lat="44.84608" lon="0.80546">
        <ele>191.9</ele>
        <time>2026-05-01T16:22:56.000Z</time>
      </trkpt>
      <trkpt lat="44.84611" lon="0.80546">
        <ele>192</ele>
        <time>2026-05-01T16:22:57.000Z</time>
      </trkpt>
      <trkpt lat="44.84614" lon="0.80547">
        <ele>191.4</ele>
        <time>2026-05-01T16:22:58.000Z</time>
      </trkpt>
      <trkpt lat="44.84617" lon="0.80548">
        <ele>190.3</ele>
        <time>2026-05-01T16:22:59.000Z</time>
      </trkpt>
      <trkpt lat="44.8462" lon="0.80549">
        <ele>189.8</ele>
        <time>2026-05-01T16:23:00.000Z</time>
      </trkpt>
      <trkpt lat="44.84623" lon="0.80549">
        <ele>189.9</ele>
        <time>2026-05-01T16:23:01.000Z</time>
      </trkpt>
      <trkpt lat="44.84625" lon="0.80549">
        <ele>189.7</ele>
        <time>2026-05-01T16:23:02.000Z</time>
      </trkpt>
      <trkpt lat="44.84628" lon="0.80549">
        <ele>189.5</ele>
        <time>2026-05-01T16:23:03.000Z</time>
      </trkpt>
      <trkpt lat="44.8463" lon="0.80549">
        <ele>189.2</ele>
        <time>2026-05-01T16:23:04.000Z</time>
      </trkpt>
      <trkpt lat="44.84633" lon="0.80549">
        <ele>188.9</ele>
        <time>2026-05-01T16:23:05.000Z</time>
      </trkpt>
      <trkpt lat="44.84635" lon="0.80549">
        <ele>188.7</ele>
        <time>2026-05-01T16:23:06.000Z</time>
      </trkpt>
      <trkpt lat="44.84637" lon="0.80548">
        <ele>188.6</ele>
        <time>2026-05-01T16:23:07.000Z</time>
      </trkpt>
      <trkpt lat="44.84639" lon="0.80548">
        <ele>188.4</ele>
        <time>2026-05-01T16:23:08.000Z</time>
      </trkpt>
      <trkpt lat="44.84641" lon="0.80548">
        <ele>188.5</ele>
        <time>2026-05-01T16:23:09.000Z</time>
      </trkpt>
      <trkpt lat="44.84643" lon="0.80548">
        <ele>188.2</ele>
        <time>2026-05-01T16:23:10.000Z</time>
      </trkpt>
      <trkpt lat="44.84645" lon="0.80547">
        <ele>187.9</ele>
        <time>2026-05-01T16:23:11.000Z</time>
      </trkpt>
      <trkpt lat="44.84647" lon="0.80547">
        <ele>187.8</ele>
        <time>2026-05-01T16:23:12.000Z</time>
      </trkpt>
      <trkpt lat="44.84649" lon="0.80546">
        <ele>187.6</ele>
        <time>2026-05-01T16:23:13.000Z</time>
      </trkpt>
      <trkpt lat="44.84651" lon="0.80545">
        <ele>187.6</ele>
        <time>2026-05-01T16:23:14.000Z</time>
      </trkpt>
      <trkpt lat="44.84652" lon="0.80545">
        <ele>187.3</ele>
        <time>2026-05-01T16:23:15.000Z</time>
      </trkpt>
      <trkpt lat="44.84654" lon="0.80544">
        <ele>187.5</ele>
        <time>2026-05-01T16:23:16.000Z</time>
      </trkpt>
      <trkpt lat="44.84655" lon="0.80543">
        <ele>187.8</ele>
        <time>2026-05-01T16:23:17.000Z</time>
      </trkpt>
      <trkpt lat="44.84657" lon="0.80542">
        <ele>188.3</ele>
        <time>2026-05-01T16:23:18.000Z</time>
      </trkpt>
      <trkpt lat="44.84659" lon="0.80541">
        <ele>188</ele>
        <time>2026-05-01T16:23:19.000Z</time>
      </trkpt>
      <trkpt lat="44.8466" lon="0.8054">
        <ele>188.4</ele>
        <time>2026-05-01T16:23:20.000Z</time>
      </trkpt>
      <trkpt lat="44.84662" lon="0.80539">
        <ele>188.4</ele>
        <time>2026-05-01T16:23:21.000Z</time>
      </trkpt>
      <trkpt lat="44.84663" lon="0.80538">
        <ele>188</ele>
        <time>2026-05-01T16:23:22.000Z</time>
      </trkpt>
      <trkpt lat="44.84665" lon="0.80537">
        <ele>187.4</ele>
        <time>2026-05-01T16:23:23.000Z</time>
      </trkpt>
      <trkpt lat="44.84667" lon="0.80536">
        <ele>187.2</ele>
        <time>2026-05-01T16:23:24.000Z</time>
      </trkpt>
      <trkpt lat="44.84669" lon="0.80536">
        <ele>186.9</ele>
        <time>2026-05-01T16:23:25.000Z</time>
      </trkpt>
      <trkpt lat="44.84671" lon="0.80535">
        <ele>186.6</ele>
        <time>2026-05-01T16:23:26.000Z</time>
      </trkpt>
      <trkpt lat="44.84672" lon="0.80534">
        <ele>186.3</ele>
        <time>2026-05-01T16:23:27.000Z</time>
      </trkpt>
      <trkpt lat="44.84674" lon="0.80533">
        <ele>186.2</ele>
        <time>2026-05-01T16:23:28.000Z</time>
      </trkpt>
      <trkpt lat="44.84676" lon="0.80534">
        <ele>186.3</ele>
        <time>2026-05-01T16:23:29.000Z</time>
      </trkpt>
      <trkpt lat="44.84677" lon="0.80535">
        <ele>186.3</ele>
        <time>2026-05-01T16:23:30.000Z</time>
      </trkpt>
      <trkpt lat="44.84678" lon="0.80537">
        <ele>185.8</ele>
        <time>2026-05-01T16:23:31.000Z</time>
      </trkpt>
      <trkpt lat="44.84679" lon="0.8054">
        <ele>185.3</ele>
        <time>2026-05-01T16:23:32.000Z</time>
      </trkpt>
      <trkpt lat="44.84678" lon="0.80542">
        <ele>185.1</ele>
        <time>2026-05-01T16:23:33.000Z</time>
      </trkpt>
      <trkpt lat="44.84678" lon="0.80544">
        <ele>183.5</ele>
        <time>2026-05-01T16:23:34.000Z</time>
      </trkpt>
      <trkpt lat="44.84677" lon="0.80545">
        <ele>183.1</ele>
        <time>2026-05-01T16:23:35.000Z</time>
      </trkpt>
      <trkpt lat="44.84678" lon="0.80546">
        <ele>183.7</ele>
        <time>2026-05-01T16:23:36.000Z</time>
      </trkpt>
      <trkpt lat="44.84678" lon="0.80547">
        <ele>184.1</ele>
        <time>2026-05-01T16:23:37.000Z</time>
      </trkpt>
      <trkpt lat="44.84678" lon="0.80547">
        <ele>184.1</ele>
        <time>2026-05-01T16:23:38.000Z</time>
      </trkpt>
      <trkpt lat="44.84677" lon="0.80548">
        <ele>184.3</ele>
        <time>2026-05-01T16:23:39.000Z</time>
      </trkpt>
      <trkpt lat="44.84677" lon="0.80547">
        <ele>184.3</ele>
        <time>2026-05-01T16:23:40.000Z</time>
      </trkpt>
      <trkpt lat="44.84677" lon="0.80547">
        <ele>184.3</ele>
        <time>2026-05-01T16:23:41.000Z</time>
      </trkpt>
      <trkpt lat="44.84677" lon="0.80547">
        <ele>184.1</ele>
        <time>2026-05-01T16:23:42.000Z</time>
      </trkpt>
      <trkpt lat="44.84677" lon="0.80546">
        <ele>183.9</ele>
        <time>2026-05-01T16:23:43.000Z</time>
      </trkpt>
      <trkpt lat="44.84678" lon="0.80544">
        <ele>184.1</ele>
        <time>2026-05-01T16:23:44.000Z</time>
      </trkpt>
      <trkpt lat="44.84678" lon="0.80543">
        <ele>184.3</ele>
        <time>2026-05-01T16:23:45.000Z</time>
      </trkpt>
      <trkpt lat="44.84679" lon="0.80543">
        <ele>184.3</ele>
        <time>2026-05-01T16:23:46.000Z</time>
      </trkpt>
      <trkpt lat="44.84679" lon="0.80542">
        <ele>184.2</ele>
        <time>2026-05-01T16:23:47.000Z</time>
      </trkpt>
      <trkpt lat="44.84681" lon="0.8054">
        <ele>183.8</ele>
        <time>2026-05-01T16:23:48.000Z</time>
      </trkpt>
      <trkpt lat="44.84682" lon="0.80538">
        <ele>183.6</ele>
        <time>2026-05-01T16:23:49.000Z</time>
      </trkpt>
      <trkpt lat="44.84683" lon="0.80535">
        <ele>183.5</ele>
        <time>2026-05-01T16:23:50.000Z</time>
      </trkpt>
      <trkpt lat="44.84684" lon="0.80532">
        <ele>183.8</ele>
        <time>2026-05-01T16:23:51.000Z</time>
      </trkpt>
      <trkpt lat="44.84684" lon="0.80529">
        <ele>183.5</ele>
        <time>2026-05-01T16:23:52.000Z</time>
      </trkpt>
      <trkpt lat="44.84685" lon="0.80526">
        <ele>183.4</ele>
        <time>2026-05-01T16:23:53.000Z</time>
      </trkpt>
      <trkpt lat="44.84686" lon="0.80523">
        <ele>183.4</ele>
        <time>2026-05-01T16:23:54.000Z</time>
      </trkpt>
      <trkpt lat="44.84687" lon="0.8052">
        <ele>183.6</ele>
        <time>2026-05-01T16:23:55.000Z</time>
      </trkpt>
      <trkpt lat="44.84687" lon="0.80517">
        <ele>183.4</ele>
        <time>2026-05-01T16:23:56.000Z</time>
      </trkpt>
      <trkpt lat="44.84688" lon="0.80514">
        <ele>183.2</ele>
        <time>2026-05-01T16:23:57.000Z</time>
      </trkpt>
      <trkpt lat="44.84688" lon="0.80512">
        <ele>183.4</ele>
        <time>2026-05-01T16:23:58.000Z</time>
      </trkpt>
      <trkpt lat="44.84688" lon="0.80509">
        <ele>183.3</ele>
        <time>2026-05-01T16:23:59.000Z</time>
      </trkpt>
      <trkpt lat="44.84688" lon="0.80507">
        <ele>183.2</ele>
        <time>2026-05-01T16:24:00.000Z</time>
      </trkpt>
      <trkpt lat="44.84688" lon="0.80504">
        <ele>183.1</ele>
        <time>2026-05-01T16:24:01.000Z</time>
      </trkpt>
      <trkpt lat="44.84688" lon="0.80502">
        <ele>183</ele>
        <time>2026-05-01T16:24:02.000Z</time>
      </trkpt>
      <trkpt lat="44.84688" lon="0.80499">
        <ele>183</ele>
        <time>2026-05-01T16:24:03.000Z</time>
      </trkpt>
      <trkpt lat="44.84688" lon="0.80497">
        <ele>182.9</ele>
        <time>2026-05-01T16:24:04.000Z</time>
      </trkpt>
      <trkpt lat="44.84688" lon="0.80494">
        <ele>182.6</ele>
        <time>2026-05-01T16:24:05.000Z</time>
      </trkpt>
      <trkpt lat="44.84689" lon="0.80492">
        <ele>182.6</ele>
        <time>2026-05-01T16:24:06.000Z</time>
      </trkpt>
      <trkpt lat="44.84688" lon="0.80489">
        <ele>182.4</ele>
        <time>2026-05-01T16:24:07.000Z</time>
      </trkpt>
      <trkpt lat="44.84688" lon="0.80487">
        <ele>182.5</ele>
        <time>2026-05-01T16:24:08.000Z</time>
      </trkpt>
      <trkpt lat="44.84688" lon="0.80484">
        <ele>182.5</ele>
        <time>2026-05-01T16:24:09.000Z</time>
      </trkpt>
      <trkpt lat="44.84688" lon="0.80481">
        <ele>182.6</ele>
        <time>2026-05-01T16:24:10.000Z</time>
      </trkpt>
      <trkpt lat="44.84688" lon="0.80479">
        <ele>182.5</ele>
        <time>2026-05-01T16:24:11.000Z</time>
      </trkpt>
      <trkpt lat="44.84688" lon="0.80477">
        <ele>182.5</ele>
        <time>2026-05-01T16:24:12.000Z</time>
      </trkpt>
      <trkpt lat="44.84687" lon="0.80475">
        <ele>182.4</ele>
        <time>2026-05-01T16:24:13.000Z</time>
      </trkpt>
      <trkpt lat="44.84687" lon="0.80472">
        <ele>182.4</ele>
        <time>2026-05-01T16:24:14.000Z</time>
      </trkpt>
      <trkpt lat="44.84687" lon="0.8047">
        <ele>182.3</ele>
        <time>2026-05-01T16:24:15.000Z</time>
      </trkpt>
      <trkpt lat="44.84687" lon="0.80467">
        <ele>182.3</ele>
        <time>2026-05-01T16:24:16.000Z</time>
      </trkpt>
      <trkpt lat="44.84687" lon="0.80465">
        <ele>181.9</ele>
        <time>2026-05-01T16:24:17.000Z</time>
      </trkpt>
      <trkpt lat="44.84687" lon="0.80462">
        <ele>181.6</ele>
        <time>2026-05-01T16:24:18.000Z</time>
      </trkpt>
      <trkpt lat="44.84687" lon="0.8046">
        <ele>181.3</ele>
        <time>2026-05-01T16:24:19.000Z</time>
      </trkpt>
      <trkpt lat="44.84687" lon="0.80457">
        <ele>181.1</ele>
        <time>2026-05-01T16:24:20.000Z</time>
      </trkpt>
      <trkpt lat="44.84687" lon="0.80454">
        <ele>181</ele>
        <time>2026-05-01T16:24:21.000Z</time>
      </trkpt>
      <trkpt lat="44.84687" lon="0.80452">
        <ele>181</ele>
        <time>2026-05-01T16:24:22.000Z</time>
      </trkpt>
      <trkpt lat="44.84687" lon="0.80449">
        <ele>181.1</ele>
        <time>2026-05-01T16:24:23.000Z</time>
      </trkpt>
      <trkpt lat="44.84687" lon="0.80447">
        <ele>180.9</ele>
        <time>2026-05-01T16:24:24.000Z</time>
      </trkpt>
      <trkpt lat="44.84687" lon="0.80444">
        <ele>180.8</ele>
        <time>2026-05-01T16:24:25.000Z</time>
      </trkpt>
      <trkpt lat="44.84687" lon="0.80441">
        <ele>180.8</ele>
        <time>2026-05-01T16:24:26.000Z</time>
      </trkpt>
      <trkpt lat="44.84687" lon="0.80439">
        <ele>180.7</ele>
        <time>2026-05-01T16:24:27.000Z</time>
      </trkpt>
      <trkpt lat="44.84686" lon="0.80436">
        <ele>180.6</ele>
        <time>2026-05-01T16:24:28.000Z</time>
      </trkpt>
      <trkpt lat="44.84686" lon="0.80434">
        <ele>180.4</ele>
        <time>2026-05-01T16:24:29.000Z</time>
      </trkpt>
      <trkpt lat="44.84686" lon="0.80431">
        <ele>180.4</ele>
        <time>2026-05-01T16:24:30.000Z</time>
      </trkpt>
      <trkpt lat="44.84686" lon="0.80429">
        <ele>180.3</ele>
        <time>2026-05-01T16:24:31.000Z</time>
      </trkpt>
      <trkpt lat="44.84685" lon="0.80426">
        <ele>180.2</ele>
        <time>2026-05-01T16:24:32.000Z</time>
      </trkpt>
      <trkpt lat="44.84686" lon="0.80424">
        <ele>179.9</ele>
        <time>2026-05-01T16:24:33.000Z</time>
      </trkpt>
      <trkpt lat="44.84686" lon="0.80421">
        <ele>180</ele>
        <time>2026-05-01T16:24:34.000Z</time>
      </trkpt>
      <trkpt lat="44.84685" lon="0.80419">
        <ele>179.8</ele>
        <time>2026-05-01T16:24:35.000Z</time>
      </trkpt>
      <trkpt lat="44.84685" lon="0.80417">
        <ele>179.5</ele>
        <time>2026-05-01T16:24:36.000Z</time>
      </trkpt>
      <trkpt lat="44.84685" lon="0.80416">
        <ele>179.2</ele>
        <time>2026-05-01T16:24:37.000Z</time>
      </trkpt>
      <trkpt lat="44.84685" lon="0.80414">
        <ele>179.3</ele>
        <time>2026-05-01T16:24:38.000Z</time>
      </trkpt>
      <trkpt lat="44.84685" lon="0.80414">
        <ele>179.3</ele>
        <time>2026-05-01T16:24:39.000Z</time>
      </trkpt>
      <trkpt lat="44.84685" lon="0.80414">
        <ele>179.3</ele>
        <time>2026-05-01T16:24:40.000Z</time>
      </trkpt>
      <trkpt lat="44.84684" lon="0.80413">
        <ele>178.9</ele>
        <time>2026-05-01T16:24:41.000Z</time>
      </trkpt>
      <trkpt lat="44.84684" lon="0.80411">
        <ele>178.8</ele>
        <time>2026-05-01T16:24:42.000Z</time>
      </trkpt>
      <trkpt lat="44.84684" lon="0.80408">
        <ele>178.6</ele>
        <time>2026-05-01T16:24:43.000Z</time>
      </trkpt>
      <trkpt lat="44.84684" lon="0.80406">
        <ele>178.4</ele>
        <time>2026-05-01T16:24:44.000Z</time>
      </trkpt>
      <trkpt lat="44.84684" lon="0.80403">
        <ele>178.2</ele>
        <time>2026-05-01T16:24:45.000Z</time>
      </trkpt>
      <trkpt lat="44.84684" lon="0.80401">
        <ele>178.1</ele>
        <time>2026-05-01T16:24:46.000Z</time>
      </trkpt>
      <trkpt lat="44.84684" lon="0.80398">
        <ele>178.3</ele>
        <time>2026-05-01T16:24:47.000Z</time>
      </trkpt>
      <trkpt lat="44.84684" lon="0.80396">
        <ele>178.4</ele>
        <time>2026-05-01T16:24:48.000Z</time>
      </trkpt>
      <trkpt lat="44.84684" lon="0.80393">
        <ele>178.2</ele>
        <time>2026-05-01T16:24:49.000Z</time>
      </trkpt>
      <trkpt lat="44.84684" lon="0.8039">
        <ele>177.9</ele>
        <time>2026-05-01T16:24:50.000Z</time>
      </trkpt>
      <trkpt lat="44.84684" lon="0.80388">
        <ele>177.6</ele>
        <time>2026-05-01T16:24:51.000Z</time>
      </trkpt>
      <trkpt lat="44.84684" lon="0.80385">
        <ele>177.2</ele>
        <time>2026-05-01T16:24:52.000Z</time>
      </trkpt>
      <trkpt lat="44.84684" lon="0.80383">
        <ele>177.3</ele>
        <time>2026-05-01T16:24:53.000Z</time>
      </trkpt>
      <trkpt lat="44.84683" lon="0.8038">
        <ele>177.2</ele>
        <time>2026-05-01T16:24:54.000Z</time>
      </trkpt>
      <trkpt lat="44.84683" lon="0.80378">
        <ele>176.9</ele>
        <time>2026-05-01T16:24:55.000Z</time>
      </trkpt>
      <trkpt lat="44.84683" lon="0.80375">
        <ele>176.3</ele>
        <time>2026-05-01T16:24:56.000Z</time>
      </trkpt>
      <trkpt lat="44.84683" lon="0.80373">
        <ele>176.1</ele>
        <time>2026-05-01T16:24:57.000Z</time>
      </trkpt>
      <trkpt lat="44.84683" lon="0.8037">
        <ele>175.7</ele>
        <time>2026-05-01T16:24:58.000Z</time>
      </trkpt>
      <trkpt lat="44.84683" lon="0.80368">
        <ele>176.4</ele>
        <time>2026-05-01T16:24:59.000Z</time>
      </trkpt>
      <trkpt lat="44.84683" lon="0.80365">
        <ele>176.3</ele>
        <time>2026-05-01T16:25:00.000Z</time>
      </trkpt>
      <trkpt lat="44.84683" lon="0.80362">
        <ele>176.2</ele>
        <time>2026-05-01T16:25:01.000Z</time>
      </trkpt>
      <trkpt lat="44.84683" lon="0.8036">
        <ele>175.9</ele>
        <time>2026-05-01T16:25:02.000Z</time>
      </trkpt>
      <trkpt lat="44.84683" lon="0.80357">
        <ele>175.7</ele>
        <time>2026-05-01T16:25:03.000Z</time>
      </trkpt>
      <trkpt lat="44.84682" lon="0.80354">
        <ele>175.2</ele>
        <time>2026-05-01T16:25:04.000Z</time>
      </trkpt>
      <trkpt lat="44.84682" lon="0.80351">
        <ele>175.1</ele>
        <time>2026-05-01T16:25:05.000Z</time>
      </trkpt>
      <trkpt lat="44.84683" lon="0.80348">
        <ele>173.6</ele>
        <time>2026-05-01T16:25:06.000Z</time>
      </trkpt>
      <trkpt lat="44.84683" lon="0.80346">
        <ele>172.7</ele>
        <time>2026-05-01T16:25:07.000Z</time>
      </trkpt>
      <trkpt lat="44.84683" lon="0.80343">
        <ele>171.8</ele>
        <time>2026-05-01T16:25:08.000Z</time>
      </trkpt>
      <trkpt lat="44.84682" lon="0.8034">
        <ele>171.6</ele>
        <time>2026-05-01T16:25:09.000Z</time>
      </trkpt>
      <trkpt lat="44.84681" lon="0.80338">
        <ele>171.1</ele>
        <time>2026-05-01T16:25:10.000Z</time>
      </trkpt>
      <trkpt lat="44.8468" lon="0.80335">
        <ele>171</ele>
        <time>2026-05-01T16:25:11.000Z</time>
      </trkpt>
      <trkpt lat="44.84679" lon="0.80333">
        <ele>170.9</ele>
        <time>2026-05-01T16:25:12.000Z</time>
      </trkpt>
      <trkpt lat="44.84679" lon="0.80331">
        <ele>170.6</ele>
        <time>2026-05-01T16:25:13.000Z</time>
      </trkpt>
      <trkpt lat="44.84678" lon="0.80328">
        <ele>170.2</ele>
        <time>2026-05-01T16:25:14.000Z</time>
      </trkpt>
      <trkpt lat="44.84677" lon="0.80326">
        <ele>170.5</ele>
        <time>2026-05-01T16:25:15.000Z</time>
      </trkpt>
      <trkpt lat="44.84676" lon="0.80324">
        <ele>170.9</ele>
        <time>2026-05-01T16:25:16.000Z</time>
      </trkpt>
      <trkpt lat="44.84674" lon="0.80321">
        <ele>171.4</ele>
        <time>2026-05-01T16:25:17.000Z</time>
      </trkpt>
      <trkpt lat="44.84673" lon="0.80319">
        <ele>172.9</ele>
        <time>2026-05-01T16:25:18.000Z</time>
      </trkpt>
      <trkpt lat="44.84672" lon="0.80317">
        <ele>173.6</ele>
        <time>2026-05-01T16:25:19.000Z</time>
      </trkpt>
      <trkpt lat="44.84671" lon="0.80315">
        <ele>174.1</ele>
        <time>2026-05-01T16:25:20.000Z</time>
      </trkpt>
      <trkpt lat="44.8467" lon="0.80313">
        <ele>174.1</ele>
        <time>2026-05-01T16:25:21.000Z</time>
      </trkpt>
      <trkpt lat="44.84669" lon="0.80312">
        <ele>173.4</ele>
        <time>2026-05-01T16:25:22.000Z</time>
      </trkpt>
      <trkpt lat="44.84668" lon="0.8031">
        <ele>173</ele>
        <time>2026-05-01T16:25:23.000Z</time>
      </trkpt>
      <trkpt lat="44.84668" lon="0.80309">
        <ele>173</ele>
        <time>2026-05-01T16:25:24.000Z</time>
      </trkpt>
      <trkpt lat="44.84667" lon="0.80307">
        <ele>173.1</ele>
        <time>2026-05-01T16:25:25.000Z</time>
      </trkpt>
      <trkpt lat="44.84666" lon="0.80305">
        <ele>172.8</ele>
        <time>2026-05-01T16:25:26.000Z</time>
      </trkpt>
      <trkpt lat="44.84665" lon="0.80303">
        <ele>171.7</ele>
        <time>2026-05-01T16:25:27.000Z</time>
      </trkpt>
      <trkpt lat="44.84664" lon="0.80302">
        <ele>170.8</ele>
        <time>2026-05-01T16:25:28.000Z</time>
      </trkpt>
      <trkpt lat="44.84663" lon="0.803">
        <ele>169.8</ele>
        <time>2026-05-01T16:25:29.000Z</time>
      </trkpt>
      <trkpt lat="44.84662" lon="0.80299">
        <ele>169.2</ele>
        <time>2026-05-01T16:25:30.000Z</time>
      </trkpt>
      <trkpt lat="44.8466" lon="0.80298">
        <ele>168.7</ele>
        <time>2026-05-01T16:25:31.000Z</time>
      </trkpt>
      <trkpt lat="44.84659" lon="0.80297">
        <ele>168.4</ele>
        <time>2026-05-01T16:25:32.000Z</time>
      </trkpt>
      <trkpt lat="44.84658" lon="0.80295">
        <ele>168.3</ele>
        <time>2026-05-01T16:25:33.000Z</time>
      </trkpt>
      <trkpt lat="44.84656" lon="0.80294">
        <ele>167.7</ele>
        <time>2026-05-01T16:25:34.000Z</time>
      </trkpt>
      <trkpt lat="44.84655" lon="0.80293">
        <ele>168.2</ele>
        <time>2026-05-01T16:25:35.000Z</time>
      </trkpt>
      <trkpt lat="44.84653" lon="0.80292">
        <ele>167.8</ele>
        <time>2026-05-01T16:25:36.000Z</time>
      </trkpt>
      <trkpt lat="44.84652" lon="0.80291">
        <ele>167.5</ele>
        <time>2026-05-01T16:25:37.000Z</time>
      </trkpt>
      <trkpt lat="44.8465" lon="0.8029">
        <ele>167.3</ele>
        <time>2026-05-01T16:25:38.000Z</time>
      </trkpt>
      <trkpt lat="44.84648" lon="0.80289">
        <ele>167.2</ele>
        <time>2026-05-01T16:25:39.000Z</time>
      </trkpt>
      <trkpt lat="44.84647" lon="0.80289">
        <ele>167.4</ele>
        <time>2026-05-01T16:25:40.000Z</time>
      </trkpt>
      <trkpt lat="44.84645" lon="0.80288">
        <ele>167.5</ele>
        <time>2026-05-01T16:25:41.000Z</time>
      </trkpt>
      <trkpt lat="44.84644" lon="0.80286">
        <ele>167.6</ele>
        <time>2026-05-01T16:25:42.000Z</time>
      </trkpt>
      <trkpt lat="44.84642" lon="0.80286">
        <ele>167.3</ele>
        <time>2026-05-01T16:25:43.000Z</time>
      </trkpt>
      <trkpt lat="44.84641" lon="0.80285">
        <ele>166.9</ele>
        <time>2026-05-01T16:25:44.000Z</time>
      </trkpt>
      <trkpt lat="44.84639" lon="0.80283">
        <ele>166.8</ele>
        <time>2026-05-01T16:25:45.000Z</time>
      </trkpt>
      <trkpt lat="44.84638" lon="0.80282">
        <ele>166.2</ele>
        <time>2026-05-01T16:25:46.000Z</time>
      </trkpt>
      <trkpt lat="44.84636" lon="0.80282">
        <ele>166.6</ele>
        <time>2026-05-01T16:25:47.000Z</time>
      </trkpt>
      <trkpt lat="44.84634" lon="0.80281">
        <ele>166.7</ele>
        <time>2026-05-01T16:25:48.000Z</time>
      </trkpt>
      <trkpt lat="44.84632" lon="0.8028">
        <ele>166.5</ele>
        <time>2026-05-01T16:25:49.000Z</time>
      </trkpt>
      <trkpt lat="44.84631" lon="0.80279">
        <ele>166.1</ele>
        <time>2026-05-01T16:25:50.000Z</time>
      </trkpt>
      <trkpt lat="44.84629" lon="0.80278">
        <ele>166</ele>
        <time>2026-05-01T16:25:51.000Z</time>
      </trkpt>
      <trkpt lat="44.84627" lon="0.80277">
        <ele>166.3</ele>
        <time>2026-05-01T16:25:52.000Z</time>
      </trkpt>
      <trkpt lat="44.84626" lon="0.80276">
        <ele>165.6</ele>
        <time>2026-05-01T16:25:53.000Z</time>
      </trkpt>
      <trkpt lat="44.84624" lon="0.80275">
        <ele>164.8</ele>
        <time>2026-05-01T16:25:54.000Z</time>
      </trkpt>
      <trkpt lat="44.84622" lon="0.80274">
        <ele>164.2</ele>
        <time>2026-05-01T16:25:55.000Z</time>
      </trkpt>
      <trkpt lat="44.8462" lon="0.80273">
        <ele>163.3</ele>
        <time>2026-05-01T16:25:56.000Z</time>
      </trkpt>
      <trkpt lat="44.84619" lon="0.80272">
        <ele>163</ele>
        <time>2026-05-01T16:25:57.000Z</time>
      </trkpt>
      <trkpt lat="44.84617" lon="0.8027">
        <ele>163.4</ele>
        <time>2026-05-01T16:25:58.000Z</time>
      </trkpt>
      <trkpt lat="44.84615" lon="0.80268">
        <ele>163.5</ele>
        <time>2026-05-01T16:25:59.000Z</time>
      </trkpt>
      <trkpt lat="44.84614" lon="0.80267">
        <ele>163</ele>
        <time>2026-05-01T16:26:00.000Z</time>
      </trkpt>
      <trkpt lat="44.84612" lon="0.80265">
        <ele>162.6</ele>
        <time>2026-05-01T16:26:01.000Z</time>
      </trkpt>
      <trkpt lat="44.84611" lon="0.80264">
        <ele>162</ele>
        <time>2026-05-01T16:26:02.000Z</time>
      </trkpt>
      <trkpt lat="44.84609" lon="0.80262">
        <ele>161.2</ele>
        <time>2026-05-01T16:26:03.000Z</time>
      </trkpt>
      <trkpt lat="44.84608" lon="0.80261">
        <ele>160.3</ele>
        <time>2026-05-01T16:26:04.000Z</time>
      </trkpt>
      <trkpt lat="44.84606" lon="0.80259">
        <ele>159.6</ele>
        <time>2026-05-01T16:26:05.000Z</time>
      </trkpt>
      <trkpt lat="44.84605" lon="0.80258">
        <ele>159.1</ele>
        <time>2026-05-01T16:26:06.000Z</time>
      </trkpt>
      <trkpt lat="44.84604" lon="0.80255">
        <ele>158.8</ele>
        <time>2026-05-01T16:26:07.000Z</time>
      </trkpt>
      <trkpt lat="44.84603" lon="0.80253">
        <ele>158.3</ele>
        <time>2026-05-01T16:26:08.000Z</time>
      </trkpt>
      <trkpt lat="44.84602" lon="0.80251">
        <ele>158.6</ele>
        <time>2026-05-01T16:26:09.000Z</time>
      </trkpt>
      <trkpt lat="44.84602" lon="0.80249">
        <ele>160.9</ele>
        <time>2026-05-01T16:26:10.000Z</time>
      </trkpt>
      <trkpt lat="44.84603" lon="0.80249">
        <ele>159.6</ele>
        <time>2026-05-01T16:26:11.000Z</time>
      </trkpt>
      <trkpt lat="44.84602" lon="0.80246">
        <ele>159.4</ele>
        <time>2026-05-01T16:26:12.000Z</time>
      </trkpt>
      <trkpt lat="44.84602" lon="0.80243">
        <ele>160.1</ele>
        <time>2026-05-01T16:26:13.000Z</time>
      </trkpt>
      <trkpt lat="44.84602" lon="0.80243">
        <ele>159.7</ele>
        <time>2026-05-01T16:26:14.000Z</time>
      </trkpt>
      <trkpt lat="44.84602" lon="0.80243">
        <ele>159.7</ele>
        <time>2026-05-01T16:26:15.000Z</time>
      </trkpt>
      <trkpt lat="44.84602" lon="0.80241">
        <ele>159.8</ele>
        <time>2026-05-01T16:26:16.000Z</time>
      </trkpt>
      <trkpt lat="44.84601" lon="0.80239">
        <ele>159.7</ele>
        <time>2026-05-01T16:26:17.000Z</time>
      </trkpt>
      <trkpt lat="44.84601" lon="0.80238">
        <ele>159.7</ele>
        <time>2026-05-01T16:26:18.000Z</time>
      </trkpt>
      <trkpt lat="44.846" lon="0.80237">
        <ele>159.2</ele>
        <time>2026-05-01T16:26:19.000Z</time>
      </trkpt>
      <trkpt lat="44.84598" lon="0.80236">
        <ele>159</ele>
        <time>2026-05-01T16:26:20.000Z</time>
      </trkpt>
      <trkpt lat="44.84597" lon="0.80235">
        <ele>160.3</ele>
        <time>2026-05-01T16:26:21.000Z</time>
      </trkpt>
      <trkpt lat="44.84596" lon="0.80234">
        <ele>160.9</ele>
        <time>2026-05-01T16:26:22.000Z</time>
      </trkpt>
      <trkpt lat="44.84595" lon="0.80232">
        <ele>161.2</ele>
        <time>2026-05-01T16:26:23.000Z</time>
      </trkpt>
      <trkpt lat="44.84594" lon="0.8023">
        <ele>162.3</ele>
        <time>2026-05-01T16:26:24.000Z</time>
      </trkpt>
      <trkpt lat="44.84593" lon="0.80229">
        <ele>162.5</ele>
        <time>2026-05-01T16:26:25.000Z</time>
      </trkpt>
      <trkpt lat="44.84592" lon="0.80227">
        <ele>161.9</ele>
        <time>2026-05-01T16:26:26.000Z</time>
      </trkpt>
      <trkpt lat="44.84591" lon="0.80225">
        <ele>162.8</ele>
        <time>2026-05-01T16:26:27.000Z</time>
      </trkpt>
      <trkpt lat="44.84589" lon="0.80224">
        <ele>162.8</ele>
        <time>2026-05-01T16:26:28.000Z</time>
      </trkpt>
      <trkpt lat="44.84588" lon="0.80223">
        <ele>162.8</ele>
        <time>2026-05-01T16:26:29.000Z</time>
      </trkpt>
      <trkpt lat="44.84586" lon="0.80221">
        <ele>163.2</ele>
        <time>2026-05-01T16:26:30.000Z</time>
      </trkpt>
      <trkpt lat="44.84585" lon="0.8022">
        <ele>163.7</ele>
        <time>2026-05-01T16:26:31.000Z</time>
      </trkpt>
      <trkpt lat="44.84583" lon="0.8022">
        <ele>164.4</ele>
        <time>2026-05-01T16:26:32.000Z</time>
      </trkpt>
      <trkpt lat="44.84581" lon="0.80219">
        <ele>165.3</ele>
        <time>2026-05-01T16:26:33.000Z</time>
      </trkpt>
      <trkpt lat="44.84579" lon="0.80218">
        <ele>166.1</ele>
        <time>2026-05-01T16:26:34.000Z</time>
      </trkpt>
      <trkpt lat="44.84578" lon="0.80216">
        <ele>165.9</ele>
        <time>2026-05-01T16:26:35.000Z</time>
      </trkpt>
      <trkpt lat="44.84577" lon="0.80215">
        <ele>165</ele>
        <time>2026-05-01T16:26:36.000Z</time>
      </trkpt>
      <trkpt lat="44.84575" lon="0.80214">
        <ele>164.8</ele>
        <time>2026-05-01T16:26:37.000Z</time>
      </trkpt>
      <trkpt lat="44.84573" lon="0.80213">
        <ele>164.2</ele>
        <time>2026-05-01T16:26:38.000Z</time>
      </trkpt>
      <trkpt lat="44.84572" lon="0.80211">
        <ele>163.5</ele>
        <time>2026-05-01T16:26:39.000Z</time>
      </trkpt>
      <trkpt lat="44.84571" lon="0.80209">
        <ele>163.2</ele>
        <time>2026-05-01T16:26:40.000Z</time>
      </trkpt>
      <trkpt lat="44.8457" lon="0.80207">
        <ele>164.1</ele>
        <time>2026-05-01T16:26:41.000Z</time>
      </trkpt>
      <trkpt lat="44.84568" lon="0.80205">
        <ele>163.1</ele>
        <time>2026-05-01T16:26:42.000Z</time>
      </trkpt>
      <trkpt lat="44.84567" lon="0.80203">
        <ele>162.8</ele>
        <time>2026-05-01T16:26:43.000Z</time>
      </trkpt>
      <trkpt lat="44.84565" lon="0.80202">
        <ele>162.3</ele>
        <time>2026-05-01T16:26:44.000Z</time>
      </trkpt>
      <trkpt lat="44.84564" lon="0.802">
        <ele>163.1</ele>
        <time>2026-05-01T16:26:45.000Z</time>
      </trkpt>
      <trkpt lat="44.84562" lon="0.80198">
        <ele>163.3</ele>
        <time>2026-05-01T16:26:46.000Z</time>
      </trkpt>
      <trkpt lat="44.84561" lon="0.80196">
        <ele>163.3</ele>
        <time>2026-05-01T16:26:47.000Z</time>
      </trkpt>
      <trkpt lat="44.8456" lon="0.80194">
        <ele>162.7</ele>
        <time>2026-05-01T16:26:48.000Z</time>
      </trkpt>
      <trkpt lat="44.84558" lon="0.80192">
        <ele>162.5</ele>
        <time>2026-05-01T16:26:49.000Z</time>
      </trkpt>
      <trkpt lat="44.84557" lon="0.8019">
        <ele>162.8</ele>
        <time>2026-05-01T16:26:50.000Z</time>
      </trkpt>
      <trkpt lat="44.84556" lon="0.80188">
        <ele>162.7</ele>
        <time>2026-05-01T16:26:51.000Z</time>
      </trkpt>
      <trkpt lat="44.84554" lon="0.80186">
        <ele>162.5</ele>
        <time>2026-05-01T16:26:52.000Z</time>
      </trkpt>
      <trkpt lat="44.84553" lon="0.80185">
        <ele>162.4</ele>
        <time>2026-05-01T16:26:53.000Z</time>
      </trkpt>
      <trkpt lat="44.84552" lon="0.80182">
        <ele>162</ele>
        <time>2026-05-01T16:26:54.000Z</time>
      </trkpt>
      <trkpt lat="44.84551" lon="0.8018">
        <ele>161.9</ele>
        <time>2026-05-01T16:26:55.000Z</time>
      </trkpt>
      <trkpt lat="44.84549" lon="0.80178">
        <ele>161.7</ele>
        <time>2026-05-01T16:26:56.000Z</time>
      </trkpt>
      <trkpt lat="44.84548" lon="0.80176">
        <ele>161.8</ele>
        <time>2026-05-01T16:26:57.000Z</time>
      </trkpt>
      <trkpt lat="44.84546" lon="0.80174">
        <ele>161.6</ele>
        <time>2026-05-01T16:26:58.000Z</time>
      </trkpt>
      <trkpt lat="44.84545" lon="0.80172">
        <ele>161.7</ele>
        <time>2026-05-01T16:26:59.000Z</time>
      </trkpt>
      <trkpt lat="44.84544" lon="0.8017">
        <ele>161.7</ele>
        <time>2026-05-01T16:27:00.000Z</time>
      </trkpt>
      <trkpt lat="44.84543" lon="0.80167">
        <ele>162</ele>
        <time>2026-05-01T16:27:01.000Z</time>
      </trkpt>
      <trkpt lat="44.84542" lon="0.80165">
        <ele>161.9</ele>
        <time>2026-05-01T16:27:02.000Z</time>
      </trkpt>
      <trkpt lat="44.84541" lon="0.80163">
        <ele>162.3</ele>
        <time>2026-05-01T16:27:03.000Z</time>
      </trkpt>
      <trkpt lat="44.8454" lon="0.80161">
        <ele>162.2</ele>
        <time>2026-05-01T16:27:04.000Z</time>
      </trkpt>
      <trkpt lat="44.84539" lon="0.80159">
        <ele>162</ele>
        <time>2026-05-01T16:27:05.000Z</time>
      </trkpt>
      <trkpt lat="44.84538" lon="0.80157">
        <ele>161.9</ele>
        <time>2026-05-01T16:27:06.000Z</time>
      </trkpt>
      <trkpt lat="44.84537" lon="0.80154">
        <ele>161.7</ele>
        <time>2026-05-01T16:27:07.000Z</time>
      </trkpt>
      <trkpt lat="44.84536" lon="0.80152">
        <ele>161.7</ele>
        <time>2026-05-01T16:27:08.000Z</time>
      </trkpt>
      <trkpt lat="44.84535" lon="0.80149">
        <ele>162.2</ele>
        <time>2026-05-01T16:27:09.000Z</time>
      </trkpt>
      <trkpt lat="44.84534" lon="0.80147">
        <ele>161.8</ele>
        <time>2026-05-01T16:27:10.000Z</time>
      </trkpt>
      <trkpt lat="44.84533" lon="0.80144">
        <ele>162</ele>
        <time>2026-05-01T16:27:11.000Z</time>
      </trkpt>
      <trkpt lat="44.84532" lon="0.80142">
        <ele>162.4</ele>
        <time>2026-05-01T16:27:12.000Z</time>
      </trkpt>
      <trkpt lat="44.84531" lon="0.8014">
        <ele>163</ele>
        <time>2026-05-01T16:27:13.000Z</time>
      </trkpt>
      <trkpt lat="44.8453" lon="0.80137">
        <ele>163.2</ele>
        <time>2026-05-01T16:27:14.000Z</time>
      </trkpt>
      <trkpt lat="44.84529" lon="0.80135">
        <ele>162.5</ele>
        <time>2026-05-01T16:27:15.000Z</time>
      </trkpt>
      <trkpt lat="44.84528" lon="0.80132">
        <ele>162.2</ele>
        <time>2026-05-01T16:27:16.000Z</time>
      </trkpt>
      <trkpt lat="44.84528" lon="0.8013">
        <ele>162.7</ele>
        <time>2026-05-01T16:27:17.000Z</time>
      </trkpt>
      <trkpt lat="44.84526" lon="0.80127">
        <ele>163</ele>
        <time>2026-05-01T16:27:18.000Z</time>
      </trkpt>
      <trkpt lat="44.84526" lon="0.80124">
        <ele>162.9</ele>
        <time>2026-05-01T16:27:19.000Z</time>
      </trkpt>
      <trkpt lat="44.84525" lon="0.80122">
        <ele>162.6</ele>
        <time>2026-05-01T16:27:20.000Z</time>
      </trkpt>
      <trkpt lat="44.84524" lon="0.8012">
        <ele>163.6</ele>
        <time>2026-05-01T16:27:21.000Z</time>
      </trkpt>
      <trkpt lat="44.84523" lon="0.80117">
        <ele>164.2</ele>
        <time>2026-05-01T16:27:22.000Z</time>
      </trkpt>
      <trkpt lat="44.84523" lon="0.80114">
        <ele>164.3</ele>
        <time>2026-05-01T16:27:23.000Z</time>
      </trkpt>
      <trkpt lat="44.84522" lon="0.80111">
        <ele>163.8</ele>
        <time>2026-05-01T16:27:24.000Z</time>
      </trkpt>
      <trkpt lat="44.84522" lon="0.80109">
        <ele>164.3</ele>
        <time>2026-05-01T16:27:25.000Z</time>
      </trkpt>
      <trkpt lat="44.84521" lon="0.80106">
        <ele>164.3</ele>
        <time>2026-05-01T16:27:26.000Z</time>
      </trkpt>
      <trkpt lat="44.84521" lon="0.80103">
        <ele>164</ele>
        <time>2026-05-01T16:27:27.000Z</time>
      </trkpt>
      <trkpt lat="44.8452" lon="0.80101">
        <ele>163.9</ele>
        <time>2026-05-01T16:27:28.000Z</time>
      </trkpt>
      <trkpt lat="44.8452" lon="0.80098">
        <ele>163.7</ele>
        <time>2026-05-01T16:27:29.000Z</time>
      </trkpt>
      <trkpt lat="44.84519" lon="0.80096">
        <ele>163.8</ele>
        <time>2026-05-01T16:27:30.000Z</time>
      </trkpt>
      <trkpt lat="44.84519" lon="0.80093">
        <ele>163.4</ele>
        <time>2026-05-01T16:27:31.000Z</time>
      </trkpt>
      <trkpt lat="44.84519" lon="0.8009">
        <ele>163</ele>
        <time>2026-05-01T16:27:32.000Z</time>
      </trkpt>
      <trkpt lat="44.84518" lon="0.80087">
        <ele>163.4</ele>
        <time>2026-05-01T16:27:33.000Z</time>
      </trkpt>
      <trkpt lat="44.84517" lon="0.80085">
        <ele>163.2</ele>
        <time>2026-05-01T16:27:34.000Z</time>
      </trkpt>
      <trkpt lat="44.84516" lon="0.80082">
        <ele>163.8</ele>
        <time>2026-05-01T16:27:35.000Z</time>
      </trkpt>
      <trkpt lat="44.84515" lon="0.80079">
        <ele>163.9</ele>
        <time>2026-05-01T16:27:36.000Z</time>
      </trkpt>
      <trkpt lat="44.84515" lon="0.80077">
        <ele>164.2</ele>
        <time>2026-05-01T16:27:37.000Z</time>
      </trkpt>
      <trkpt lat="44.84514" lon="0.80074">
        <ele>164.3</ele>
        <time>2026-05-01T16:27:38.000Z</time>
      </trkpt>
      <trkpt lat="44.84513" lon="0.80072">
        <ele>164</ele>
        <time>2026-05-01T16:27:39.000Z</time>
      </trkpt>
      <trkpt lat="44.84512" lon="0.80069">
        <ele>164.1</ele>
        <time>2026-05-01T16:27:40.000Z</time>
      </trkpt>
      <trkpt lat="44.84512" lon="0.80067">
        <ele>164.6</ele>
        <time>2026-05-01T16:27:41.000Z</time>
      </trkpt>
      <trkpt lat="44.84511" lon="0.80064">
        <ele>164.6</ele>
        <time>2026-05-01T16:27:42.000Z</time>
      </trkpt>
      <trkpt lat="44.84511" lon="0.80062">
        <ele>164.6</ele>
        <time>2026-05-01T16:27:43.000Z</time>
      </trkpt>
      <trkpt lat="44.8451" lon="0.80059">
        <ele>163.9</ele>
        <time>2026-05-01T16:27:44.000Z</time>
      </trkpt>
      <trkpt lat="44.8451" lon="0.80056">
        <ele>163.6</ele>
        <time>2026-05-01T16:27:45.000Z</time>
      </trkpt>
      <trkpt lat="44.8451" lon="0.80053">
        <ele>163.5</ele>
        <time>2026-05-01T16:27:46.000Z</time>
      </trkpt>
      <trkpt lat="44.8451" lon="0.80049">
        <ele>163.6</ele>
        <time>2026-05-01T16:27:47.000Z</time>
      </trkpt>
      <trkpt lat="44.8451" lon="0.80046">
        <ele>163.7</ele>
        <time>2026-05-01T16:27:48.000Z</time>
      </trkpt>
      <trkpt lat="44.84509" lon="0.80042">
        <ele>163.9</ele>
        <time>2026-05-01T16:27:49.000Z</time>
      </trkpt>
      <trkpt lat="44.84509" lon="0.80038">
        <ele>164</ele>
        <time>2026-05-01T16:27:50.000Z</time>
      </trkpt>
      <trkpt lat="44.84509" lon="0.80034">
        <ele>163.4</ele>
        <time>2026-05-01T16:27:51.000Z</time>
      </trkpt>
      <trkpt lat="44.84509" lon="0.80029">
        <ele>164.1</ele>
        <time>2026-05-01T16:27:52.000Z</time>
      </trkpt>
      <trkpt lat="44.84509" lon="0.80025">
        <ele>164.8</ele>
        <time>2026-05-01T16:27:53.000Z</time>
      </trkpt>
      <trkpt lat="44.84509" lon="0.8002">
        <ele>165</ele>
        <time>2026-05-01T16:27:54.000Z</time>
      </trkpt>
      <trkpt lat="44.84509" lon="0.80016">
        <ele>165.5</ele>
        <time>2026-05-01T16:27:55.000Z</time>
      </trkpt>
      <trkpt lat="44.84509" lon="0.80012">
        <ele>165.6</ele>
        <time>2026-05-01T16:27:56.000Z</time>
      </trkpt>
      <trkpt lat="44.84509" lon="0.80008">
        <ele>166.7</ele>
        <time>2026-05-01T16:27:57.000Z</time>
      </trkpt>
      <trkpt lat="44.84509" lon="0.80003">
        <ele>166.2</ele>
        <time>2026-05-01T16:27:58.000Z</time>
      </trkpt>
      <trkpt lat="44.84509" lon="0.79999">
        <ele>166.6</ele>
        <time>2026-05-01T16:27:59.000Z</time>
      </trkpt>
      <trkpt lat="44.84509" lon="0.79994">
        <ele>167</ele>
        <time>2026-05-01T16:28:00.000Z</time>
      </trkpt>
      <trkpt lat="44.84509" lon="0.7999">
        <ele>167.3</ele>
        <time>2026-05-01T16:28:01.000Z</time>
      </trkpt>
      <trkpt lat="44.8451" lon="0.79985">
        <ele>167.1</ele>
        <time>2026-05-01T16:28:02.000Z</time>
      </trkpt>
      <trkpt lat="44.8451" lon="0.79981">
        <ele>168.1</ele>
        <time>2026-05-01T16:28:03.000Z</time>
      </trkpt>
      <trkpt lat="44.84511" lon="0.79977">
        <ele>168.5</ele>
        <time>2026-05-01T16:28:04.000Z</time>
      </trkpt>
      <trkpt lat="44.84511" lon="0.79973">
        <ele>169.6</ele>
        <time>2026-05-01T16:28:05.000Z</time>
      </trkpt>
      <trkpt lat="44.84512" lon="0.7997">
        <ele>168.9</ele>
        <time>2026-05-01T16:28:06.000Z</time>
      </trkpt>
      <trkpt lat="44.84513" lon="0.79966">
        <ele>169.7</ele>
        <time>2026-05-01T16:28:07.000Z</time>
      </trkpt>
      <trkpt lat="44.84514" lon="0.79963">
        <ele>170.3</ele>
        <time>2026-05-01T16:28:08.000Z</time>
      </trkpt>
      <trkpt lat="44.84514" lon="0.7996">
        <ele>171</ele>
        <time>2026-05-01T16:28:09.000Z</time>
      </trkpt>
      <trkpt lat="44.84514" lon="0.79957">
        <ele>171.4</ele>
        <time>2026-05-01T16:28:10.000Z</time>
      </trkpt>
      <trkpt lat="44.84515" lon="0.79955">
        <ele>171.3</ele>
        <time>2026-05-01T16:28:11.000Z</time>
      </trkpt>
      <trkpt lat="44.84515" lon="0.79952">
        <ele>171.2</ele>
        <time>2026-05-01T16:28:12.000Z</time>
      </trkpt>
      <trkpt lat="44.84516" lon="0.7995">
        <ele>170.7</ele>
        <time>2026-05-01T16:28:13.000Z</time>
      </trkpt>
      <trkpt lat="44.84516" lon="0.79948">
        <ele>170.2</ele>
        <time>2026-05-01T16:28:14.000Z</time>
      </trkpt>
      <trkpt lat="44.84517" lon="0.79946">
        <ele>170.1</ele>
        <time>2026-05-01T16:28:15.000Z</time>
      </trkpt>
      <trkpt lat="44.84517" lon="0.79944">
        <ele>169.7</ele>
        <time>2026-05-01T16:28:16.000Z</time>
      </trkpt>
      <trkpt lat="44.84517" lon="0.79942">
        <ele>169.3</ele>
        <time>2026-05-01T16:28:17.000Z</time>
      </trkpt>
      <trkpt lat="44.84518" lon="0.7994">
        <ele>168.7</ele>
        <time>2026-05-01T16:28:18.000Z</time>
      </trkpt>
      <trkpt lat="44.84519" lon="0.79938">
        <ele>168.5</ele>
        <time>2026-05-01T16:28:19.000Z</time>
      </trkpt>
      <trkpt lat="44.84519" lon="0.79936">
        <ele>168.4</ele>
        <time>2026-05-01T16:28:20.000Z</time>
      </trkpt>
      <trkpt lat="44.8452" lon="0.79933">
        <ele>168.6</ele>
        <time>2026-05-01T16:28:21.000Z</time>
      </trkpt>
      <trkpt lat="44.8452" lon="0.79931">
        <ele>169</ele>
        <time>2026-05-01T16:28:22.000Z</time>
      </trkpt>
      <trkpt lat="44.8452" lon="0.79928">
        <ele>169</ele>
        <time>2026-05-01T16:28:23.000Z</time>
      </trkpt>
      <trkpt lat="44.8452" lon="0.79926">
        <ele>168.8</ele>
        <time>2026-05-01T16:28:24.000Z</time>
      </trkpt>
      <trkpt lat="44.84521" lon="0.79923">
        <ele>168.5</ele>
        <time>2026-05-01T16:28:25.000Z</time>
      </trkpt>
      <trkpt lat="44.84522" lon="0.79921">
        <ele>168.2</ele>
        <time>2026-05-01T16:28:26.000Z</time>
      </trkpt>
      <trkpt lat="44.84522" lon="0.79919">
        <ele>167.6</ele>
        <time>2026-05-01T16:28:27.000Z</time>
      </trkpt>
      <trkpt lat="44.84523" lon="0.79917">
        <ele>167.5</ele>
        <time>2026-05-01T16:28:28.000Z</time>
      </trkpt>
      <trkpt lat="44.84523" lon="0.79915">
        <ele>167.8</ele>
        <time>2026-05-01T16:28:29.000Z</time>
      </trkpt>
      <trkpt lat="44.84524" lon="0.79912">
        <ele>167.4</ele>
        <time>2026-05-01T16:28:30.000Z</time>
      </trkpt>
      <trkpt lat="44.84525" lon="0.7991">
        <ele>167.1</ele>
        <time>2026-05-01T16:28:31.000Z</time>
      </trkpt>
      <trkpt lat="44.84527" lon="0.79908">
        <ele>167.1</ele>
        <time>2026-05-01T16:28:32.000Z</time>
      </trkpt>
      <trkpt lat="44.84528" lon="0.79906">
        <ele>166.7</ele>
        <time>2026-05-01T16:28:33.000Z</time>
      </trkpt>
      <trkpt lat="44.84529" lon="0.79904">
        <ele>166.4</ele>
        <time>2026-05-01T16:28:34.000Z</time>
      </trkpt>
      <trkpt lat="44.8453" lon="0.79902">
        <ele>166.2</ele>
        <time>2026-05-01T16:28:35.000Z</time>
      </trkpt>
      <trkpt lat="44.84531" lon="0.799">
        <ele>166.4</ele>
        <time>2026-05-01T16:28:36.000Z</time>
      </trkpt>
      <trkpt lat="44.84533" lon="0.79899">
        <ele>166.3</ele>
        <time>2026-05-01T16:28:37.000Z</time>
      </trkpt>
      <trkpt lat="44.84534" lon="0.79898">
        <ele>166.5</ele>
        <time>2026-05-01T16:28:38.000Z</time>
      </trkpt>
      <trkpt lat="44.84535" lon="0.79897">
        <ele>165.6</ele>
        <time>2026-05-01T16:28:39.000Z</time>
      </trkpt>
      <trkpt lat="44.84536" lon="0.79895">
        <ele>165.2</ele>
        <time>2026-05-01T16:28:40.000Z</time>
      </trkpt>
      <trkpt lat="44.84537" lon="0.79893">
        <ele>165</ele>
        <time>2026-05-01T16:28:41.000Z</time>
      </trkpt>
      <trkpt lat="44.84538" lon="0.79891">
        <ele>165.1</ele>
        <time>2026-05-01T16:28:42.000Z</time>
      </trkpt>
      <trkpt lat="44.84539" lon="0.7989">
        <ele>165.3</ele>
        <time>2026-05-01T16:28:43.000Z</time>
      </trkpt>
      <trkpt lat="44.8454" lon="0.79889">
        <ele>165</ele>
        <time>2026-05-01T16:28:44.000Z</time>
      </trkpt>
      <trkpt lat="44.84541" lon="0.79887">
        <ele>164.6</ele>
        <time>2026-05-01T16:28:45.000Z</time>
      </trkpt>
      <trkpt lat="44.84542" lon="0.79885">
        <ele>164.8</ele>
        <time>2026-05-01T16:28:46.000Z</time>
      </trkpt>
      <trkpt lat="44.84542" lon="0.79884">
        <ele>164.3</ele>
        <time>2026-05-01T16:28:47.000Z</time>
      </trkpt>
      <trkpt lat="44.84543" lon="0.79883">
        <ele>164.1</ele>
        <time>2026-05-01T16:28:48.000Z</time>
      </trkpt>
      <trkpt lat="44.84544" lon="0.79882">
        <ele>163.8</ele>
        <time>2026-05-01T16:28:49.000Z</time>
      </trkpt>
      <trkpt lat="44.84545" lon="0.79881">
        <ele>162.8</ele>
        <time>2026-05-01T16:28:50.000Z</time>
      </trkpt>
      <trkpt lat="44.84546" lon="0.79879">
        <ele>161.9</ele>
        <time>2026-05-01T16:28:51.000Z</time>
      </trkpt>
      <trkpt lat="44.84546" lon="0.79877">
        <ele>162.6</ele>
        <time>2026-05-01T16:28:52.000Z</time>
      </trkpt>
      <trkpt lat="44.84548" lon="0.79875">
        <ele>162.2</ele>
        <time>2026-05-01T16:28:53.000Z</time>
      </trkpt>
      <trkpt lat="44.84549" lon="0.79873">
        <ele>161.8</ele>
        <time>2026-05-01T16:28:54.000Z</time>
      </trkpt>
      <trkpt lat="44.8455" lon="0.79871">
        <ele>161.2</ele>
        <time>2026-05-01T16:28:55.000Z</time>
      </trkpt>
      <trkpt lat="44.84551" lon="0.79869">
        <ele>160.6</ele>
        <time>2026-05-01T16:28:56.000Z</time>
      </trkpt>
      <trkpt lat="44.84552" lon="0.79867">
        <ele>159.9</ele>
        <time>2026-05-01T16:28:57.000Z</time>
      </trkpt>
      <trkpt lat="44.84552" lon="0.79865">
        <ele>159.9</ele>
        <time>2026-05-01T16:28:58.000Z</time>
      </trkpt>
      <trkpt lat="44.84552" lon="0.79863">
        <ele>159.2</ele>
        <time>2026-05-01T16:28:59.000Z</time>
      </trkpt>
      <trkpt lat="44.84552" lon="0.79861">
        <ele>158.8</ele>
        <time>2026-05-01T16:29:00.000Z</time>
      </trkpt>
      <trkpt lat="44.84551" lon="0.79859">
        <ele>158.1</ele>
        <time>2026-05-01T16:29:01.000Z</time>
      </trkpt>
      <trkpt lat="44.84551" lon="0.79857">
        <ele>157.4</ele>
        <time>2026-05-01T16:29:02.000Z</time>
      </trkpt>
      <trkpt lat="44.8455" lon="0.79855">
        <ele>157.2</ele>
        <time>2026-05-01T16:29:03.000Z</time>
      </trkpt>
      <trkpt lat="44.8455" lon="0.79853">
        <ele>156.7</ele>
        <time>2026-05-01T16:29:04.000Z</time>
      </trkpt>
      <trkpt lat="44.8455" lon="0.79851">
        <ele>156.4</ele>
        <time>2026-05-01T16:29:05.000Z</time>
      </trkpt>
      <trkpt lat="44.84549" lon="0.79849">
        <ele>156.1</ele>
        <time>2026-05-01T16:29:06.000Z</time>
      </trkpt>
      <trkpt lat="44.84549" lon="0.79846">
        <ele>155.1</ele>
        <time>2026-05-01T16:29:07.000Z</time>
      </trkpt>
      <trkpt lat="44.84548" lon="0.79844">
        <ele>154.3</ele>
        <time>2026-05-01T16:29:08.000Z</time>
      </trkpt>
      <trkpt lat="44.84548" lon="0.79842">
        <ele>153.5</ele>
        <time>2026-05-01T16:29:09.000Z</time>
      </trkpt>
      <trkpt lat="44.84547" lon="0.7984">
        <ele>153.1</ele>
        <time>2026-05-01T16:29:10.000Z</time>
      </trkpt>
      <trkpt lat="44.84547" lon="0.79838">
        <ele>152.5</ele>
        <time>2026-05-01T16:29:11.000Z</time>
      </trkpt>
      <trkpt lat="44.84547" lon="0.79836">
        <ele>152.2</ele>
        <time>2026-05-01T16:29:12.000Z</time>
      </trkpt>
      <trkpt lat="44.84547" lon="0.79833">
        <ele>152.5</ele>
        <time>2026-05-01T16:29:13.000Z</time>
      </trkpt>
      <trkpt lat="44.84547" lon="0.79831">
        <ele>152.2</ele>
        <time>2026-05-01T16:29:14.000Z</time>
      </trkpt>
      <trkpt lat="44.84546" lon="0.79829">
        <ele>152.1</ele>
        <time>2026-05-01T16:29:15.000Z</time>
      </trkpt>
      <trkpt lat="44.84546" lon="0.79827">
        <ele>151.9</ele>
        <time>2026-05-01T16:29:16.000Z</time>
      </trkpt>
      <trkpt lat="44.84546" lon="0.79825">
        <ele>151.3</ele>
        <time>2026-05-01T16:29:17.000Z</time>
      </trkpt>
      <trkpt lat="44.84546" lon="0.79822">
        <ele>150.2</ele>
        <time>2026-05-01T16:29:18.000Z</time>
      </trkpt>
      <trkpt lat="44.84545" lon="0.7982">
        <ele>150.7</ele>
        <time>2026-05-01T16:29:19.000Z</time>
      </trkpt>
      <trkpt lat="44.84545" lon="0.79817">
        <ele>150.6</ele>
        <time>2026-05-01T16:29:20.000Z</time>
      </trkpt>
      <trkpt lat="44.84544" lon="0.79815">
        <ele>150.6</ele>
        <time>2026-05-01T16:29:21.000Z</time>
      </trkpt>
      <trkpt lat="44.84544" lon="0.79812">
        <ele>149.5</ele>
        <time>2026-05-01T16:29:22.000Z</time>
      </trkpt>
      <trkpt lat="44.84544" lon="0.79809">
        <ele>149.8</ele>
        <time>2026-05-01T16:29:23.000Z</time>
      </trkpt>
      <trkpt lat="44.84544" lon="0.79807">
        <ele>149.5</ele>
        <time>2026-05-01T16:29:24.000Z</time>
      </trkpt>
      <trkpt lat="44.84544" lon="0.79804">
        <ele>149.8</ele>
        <time>2026-05-01T16:29:25.000Z</time>
      </trkpt>
      <trkpt lat="44.84544" lon="0.79801">
        <ele>149.7</ele>
        <time>2026-05-01T16:29:26.000Z</time>
      </trkpt>
      <trkpt lat="44.84544" lon="0.79798">
        <ele>150.1</ele>
        <time>2026-05-01T16:29:27.000Z</time>
      </trkpt>
      <trkpt lat="44.84543" lon="0.79795">
        <ele>150.1</ele>
        <time>2026-05-01T16:29:28.000Z</time>
      </trkpt>
      <trkpt lat="44.84543" lon="0.79792">
        <ele>151.4</ele>
        <time>2026-05-01T16:29:29.000Z</time>
      </trkpt>
      <trkpt lat="44.84543" lon="0.79788">
        <ele>150.7</ele>
        <time>2026-05-01T16:29:30.000Z</time>
      </trkpt>
      <trkpt lat="44.84543" lon="0.79785">
        <ele>151.2</ele>
        <time>2026-05-01T16:29:31.000Z</time>
      </trkpt>
      <trkpt lat="44.84543" lon="0.79782">
        <ele>151.3</ele>
        <time>2026-05-01T16:29:32.000Z</time>
      </trkpt>
      <trkpt lat="44.84544" lon="0.7978">
        <ele>151.5</ele>
        <time>2026-05-01T16:29:33.000Z</time>
      </trkpt>
      <trkpt lat="44.84544" lon="0.79777">
        <ele>152.2</ele>
        <time>2026-05-01T16:29:34.000Z</time>
      </trkpt>
      <trkpt lat="44.84544" lon="0.79774">
        <ele>152.9</ele>
        <time>2026-05-01T16:29:35.000Z</time>
      </trkpt>
      <trkpt lat="44.84544" lon="0.79772">
        <ele>153</ele>
        <time>2026-05-01T16:29:36.000Z</time>
      </trkpt>
      <trkpt lat="44.84545" lon="0.79769">
        <ele>152.9</ele>
        <time>2026-05-01T16:29:37.000Z</time>
      </trkpt>
      <trkpt lat="44.84545" lon="0.79767">
        <ele>153.3</ele>
        <time>2026-05-01T16:29:38.000Z</time>
      </trkpt>
      <trkpt lat="44.84545" lon="0.79764">
        <ele>153.6</ele>
        <time>2026-05-01T16:29:39.000Z</time>
      </trkpt>
      <trkpt lat="44.84545" lon="0.79762">
        <ele>153.4</ele>
        <time>2026-05-01T16:29:40.000Z</time>
      </trkpt>
      <trkpt lat="44.84545" lon="0.7976">
        <ele>153.2</ele>
        <time>2026-05-01T16:29:41.000Z</time>
      </trkpt>
      <trkpt lat="44.84547" lon="0.79757">
        <ele>152.7</ele>
        <time>2026-05-01T16:29:42.000Z</time>
      </trkpt>
      <trkpt lat="44.84548" lon="0.79756">
        <ele>151.3</ele>
        <time>2026-05-01T16:29:43.000Z</time>
      </trkpt>
      <trkpt lat="44.84549" lon="0.79754">
        <ele>151</ele>
        <time>2026-05-01T16:29:44.000Z</time>
      </trkpt>
      <trkpt lat="44.84549" lon="0.79751">
        <ele>151.2</ele>
        <time>2026-05-01T16:29:45.000Z</time>
      </trkpt>
      <trkpt lat="44.84549" lon="0.79749">
        <ele>150.5</ele>
        <time>2026-05-01T16:29:46.000Z</time>
      </trkpt>
      <trkpt lat="44.8455" lon="0.79746">
        <ele>150.1</ele>
        <time>2026-05-01T16:29:47.000Z</time>
      </trkpt>
      <trkpt lat="44.8455" lon="0.79743">
        <ele>150.5</ele>
        <time>2026-05-01T16:29:48.000Z</time>
      </trkpt>
      <trkpt lat="44.8455" lon="0.7974">
        <ele>151.2</ele>
        <time>2026-05-01T16:29:49.000Z</time>
      </trkpt>
      <trkpt lat="44.8455" lon="0.79737">
        <ele>151.7</ele>
        <time>2026-05-01T16:29:50.000Z</time>
      </trkpt>
      <trkpt lat="44.8455" lon="0.79735">
        <ele>151.2</ele>
        <time>2026-05-01T16:29:51.000Z</time>
      </trkpt>
      <trkpt lat="44.8455" lon="0.79732">
        <ele>150.8</ele>
        <time>2026-05-01T16:29:52.000Z</time>
      </trkpt>
      <trkpt lat="44.8455" lon="0.79729">
        <ele>151</ele>
        <time>2026-05-01T16:29:53.000Z</time>
      </trkpt>
      <trkpt lat="44.8455" lon="0.79727">
        <ele>150.4</ele>
        <time>2026-05-01T16:29:54.000Z</time>
      </trkpt>
      <trkpt lat="44.8455" lon="0.79724">
        <ele>150.4</ele>
        <time>2026-05-01T16:29:55.000Z</time>
      </trkpt>
      <trkpt lat="44.84551" lon="0.79721">
        <ele>150</ele>
        <time>2026-05-01T16:29:56.000Z</time>
      </trkpt>
      <trkpt lat="44.8455" lon="0.79718">
        <ele>150.7</ele>
        <time>2026-05-01T16:29:57.000Z</time>
      </trkpt>
      <trkpt lat="44.8455" lon="0.79716">
        <ele>151.1</ele>
        <time>2026-05-01T16:29:58.000Z</time>
      </trkpt>
      <trkpt lat="44.8455" lon="0.79713">
        <ele>151</ele>
        <time>2026-05-01T16:29:59.000Z</time>
      </trkpt>
      <trkpt lat="44.8455" lon="0.79711">
        <ele>151.3</ele>
        <time>2026-05-01T16:30:00.000Z</time>
      </trkpt>
      <trkpt lat="44.8455" lon="0.79708">
        <ele>151.1</ele>
        <time>2026-05-01T16:30:01.000Z</time>
      </trkpt>
      <trkpt lat="44.8455" lon="0.79706">
        <ele>151.6</ele>
        <time>2026-05-01T16:30:02.000Z</time>
      </trkpt>
      <trkpt lat="44.8455" lon="0.79703">
        <ele>151.7</ele>
        <time>2026-05-01T16:30:03.000Z</time>
      </trkpt>
      <trkpt lat="44.8455" lon="0.79701">
        <ele>151.4</ele>
        <time>2026-05-01T16:30:04.000Z</time>
      </trkpt>
      <trkpt lat="44.8455" lon="0.79699">
        <ele>151.1</ele>
        <time>2026-05-01T16:30:05.000Z</time>
      </trkpt>
      <trkpt lat="44.84549" lon="0.79697">
        <ele>151.2</ele>
        <time>2026-05-01T16:30:06.000Z</time>
      </trkpt>
      <trkpt lat="44.84549" lon="0.79695">
        <ele>151.3</ele>
        <time>2026-05-01T16:30:07.000Z</time>
      </trkpt>
      <trkpt lat="44.84549" lon="0.79693">
        <ele>151</ele>
        <time>2026-05-01T16:30:08.000Z</time>
      </trkpt>
      <trkpt lat="44.8455" lon="0.7969">
        <ele>150.9</ele>
        <time>2026-05-01T16:30:09.000Z</time>
      </trkpt>
      <trkpt lat="44.8455" lon="0.79687">
        <ele>151.4</ele>
        <time>2026-05-01T16:30:10.000Z</time>
      </trkpt>
      <trkpt lat="44.84549" lon="0.79685">
        <ele>151.1</ele>
        <time>2026-05-01T16:30:11.000Z</time>
      </trkpt>
      <trkpt lat="44.84549" lon="0.79683">
        <ele>151.7</ele>
        <time>2026-05-01T16:30:12.000Z</time>
      </trkpt>
      <trkpt lat="44.8455" lon="0.7968">
        <ele>150</ele>
        <time>2026-05-01T16:30:13.000Z</time>
      </trkpt>
      <trkpt lat="44.8455" lon="0.79678">
        <ele>149.3</ele>
        <time>2026-05-01T16:30:14.000Z</time>
      </trkpt>
      <trkpt lat="44.8455" lon="0.79676">
        <ele>149.5</ele>
        <time>2026-05-01T16:30:15.000Z</time>
      </trkpt>
      <trkpt lat="44.84549" lon="0.79674">
        <ele>150.3</ele>
        <time>2026-05-01T16:30:16.000Z</time>
      </trkpt>
      <trkpt lat="44.84549" lon="0.79671">
        <ele>150.2</ele>
        <time>2026-05-01T16:30:17.000Z</time>
      </trkpt>
      <trkpt lat="44.84549" lon="0.79667">
        <ele>150.2</ele>
        <time>2026-05-01T16:30:18.000Z</time>
      </trkpt>
      <trkpt lat="44.84549" lon="0.79665">
        <ele>150.5</ele>
        <time>2026-05-01T16:30:19.000Z</time>
      </trkpt>
      <trkpt lat="44.84549" lon="0.79662">
        <ele>150.1</ele>
        <time>2026-05-01T16:30:20.000Z</time>
      </trkpt>
      <trkpt lat="44.84549" lon="0.79659">
        <ele>150.1</ele>
        <time>2026-05-01T16:30:21.000Z</time>
      </trkpt>
      <trkpt lat="44.84549" lon="0.79656">
        <ele>150.1</ele>
        <time>2026-05-01T16:30:22.000Z</time>
      </trkpt>
      <trkpt lat="44.84549" lon="0.79654">
        <ele>150.1</ele>
        <time>2026-05-01T16:30:23.000Z</time>
      </trkpt>
      <trkpt lat="44.84549" lon="0.7965">
        <ele>149.8</ele>
        <time>2026-05-01T16:30:24.000Z</time>
      </trkpt>
      <trkpt lat="44.84548" lon="0.79648">
        <ele>149.4</ele>
        <time>2026-05-01T16:30:25.000Z</time>
      </trkpt>
      <trkpt lat="44.84548" lon="0.79645">
        <ele>148.9</ele>
        <time>2026-05-01T16:30:26.000Z</time>
      </trkpt>
      <trkpt lat="44.84548" lon="0.79642">
        <ele>149.5</ele>
        <time>2026-05-01T16:30:27.000Z</time>
      </trkpt>
      <trkpt lat="44.84547" lon="0.7964">
        <ele>149.6</ele>
        <time>2026-05-01T16:30:28.000Z</time>
      </trkpt>
      <trkpt lat="44.84547" lon="0.79637">
        <ele>149.5</ele>
        <time>2026-05-01T16:30:29.000Z</time>
      </trkpt>
      <trkpt lat="44.84547" lon="0.79635">
        <ele>149</ele>
        <time>2026-05-01T16:30:30.000Z</time>
      </trkpt>
      <trkpt lat="44.84546" lon="0.79632">
        <ele>148.5</ele>
        <time>2026-05-01T16:30:31.000Z</time>
      </trkpt>
      <trkpt lat="44.84546" lon="0.7963">
        <ele>148.3</ele>
        <time>2026-05-01T16:30:32.000Z</time>
      </trkpt>
      <trkpt lat="44.84545" lon="0.79627">
        <ele>148.4</ele>
        <time>2026-05-01T16:30:33.000Z</time>
      </trkpt>
      <trkpt lat="44.84545" lon="0.79624">
        <ele>148.3</ele>
        <time>2026-05-01T16:30:34.000Z</time>
      </trkpt>
      <trkpt lat="44.84544" lon="0.79622">
        <ele>148.4</ele>
        <time>2026-05-01T16:30:35.000Z</time>
      </trkpt>
      <trkpt lat="44.84543" lon="0.79619">
        <ele>148.1</ele>
        <time>2026-05-01T16:30:36.000Z</time>
      </trkpt>
      <trkpt lat="44.84543" lon="0.79616">
        <ele>147.9</ele>
        <time>2026-05-01T16:30:37.000Z</time>
      </trkpt>
      <trkpt lat="44.84542" lon="0.79614">
        <ele>147.6</ele>
        <time>2026-05-01T16:30:38.000Z</time>
      </trkpt>
      <trkpt lat="44.84542" lon="0.79611">
        <ele>147</ele>
        <time>2026-05-01T16:30:39.000Z</time>
      </trkpt>
      <trkpt lat="44.84541" lon="0.79608">
        <ele>147</ele>
        <time>2026-05-01T16:30:40.000Z</time>
      </trkpt>
      <trkpt lat="44.8454" lon="0.79606">
        <ele>147</ele>
        <time>2026-05-01T16:30:41.000Z</time>
      </trkpt>
      <trkpt lat="44.8454" lon="0.79603">
        <ele>147.2</ele>
        <time>2026-05-01T16:30:42.000Z</time>
      </trkpt>
      <trkpt lat="44.84539" lon="0.79601">
        <ele>147.2</ele>
        <time>2026-05-01T16:30:43.000Z</time>
      </trkpt>
      <trkpt lat="44.84538" lon="0.79599">
        <ele>147.2</ele>
        <time>2026-05-01T16:30:44.000Z</time>
      </trkpt>
      <trkpt lat="44.84537" lon="0.79597">
        <ele>147.2</ele>
        <time>2026-05-01T16:30:45.000Z</time>
      </trkpt>
      <trkpt lat="44.84536" lon="0.79594">
        <ele>147.3</ele>
        <time>2026-05-01T16:30:46.000Z</time>
      </trkpt>
      <trkpt lat="44.84536" lon="0.79592">
        <ele>146.6</ele>
        <time>2026-05-01T16:30:47.000Z</time>
      </trkpt>
      <trkpt lat="44.84535" lon="0.7959">
        <ele>146.4</ele>
        <time>2026-05-01T16:30:48.000Z</time>
      </trkpt>
      <trkpt lat="44.84534" lon="0.79588">
        <ele>146.9</ele>
        <time>2026-05-01T16:30:49.000Z</time>
      </trkpt>
      <trkpt lat="44.84533" lon="0.79585">
        <ele>146.9</ele>
        <time>2026-05-01T16:30:50.000Z</time>
      </trkpt>
      <trkpt lat="44.84532" lon="0.79583">
        <ele>147.7</ele>
        <time>2026-05-01T16:30:51.000Z</time>
      </trkpt>
      <trkpt lat="44.84531" lon="0.79581">
        <ele>147.6</ele>
        <time>2026-05-01T16:30:52.000Z</time>
      </trkpt>
      <trkpt lat="44.8453" lon="0.79578">
        <ele>147.9</ele>
        <time>2026-05-01T16:30:53.000Z</time>
      </trkpt>
      <trkpt lat="44.8453" lon="0.79576">
        <ele>147.5</ele>
        <time>2026-05-01T16:30:54.000Z</time>
      </trkpt>
      <trkpt lat="44.84529" lon="0.79574">
        <ele>147.5</ele>
        <time>2026-05-01T16:30:55.000Z</time>
      </trkpt>
      <trkpt lat="44.84527" lon="0.79572">
        <ele>147.8</ele>
        <time>2026-05-01T16:30:56.000Z</time>
      </trkpt>
      <trkpt lat="44.84526" lon="0.7957">
        <ele>148.2</ele>
        <time>2026-05-01T16:30:57.000Z</time>
      </trkpt>
      <trkpt lat="44.84525" lon="0.79567">
        <ele>148.3</ele>
        <time>2026-05-01T16:30:58.000Z</time>
      </trkpt>
      <trkpt lat="44.84524" lon="0.79565">
        <ele>148.7</ele>
        <time>2026-05-01T16:30:59.000Z</time>
      </trkpt>
      <trkpt lat="44.84523" lon="0.79562">
        <ele>148.4</ele>
        <time>2026-05-01T16:31:00.000Z</time>
      </trkpt>
      <trkpt lat="44.84522" lon="0.7956">
        <ele>148.5</ele>
        <time>2026-05-01T16:31:01.000Z</time>
      </trkpt>
      <trkpt lat="44.84521" lon="0.79558">
        <ele>148.5</ele>
        <time>2026-05-01T16:31:02.000Z</time>
      </trkpt>
      <trkpt lat="44.8452" lon="0.79556">
        <ele>148.3</ele>
        <time>2026-05-01T16:31:03.000Z</time>
      </trkpt>
      <trkpt lat="44.84519" lon="0.79554">
        <ele>148.1</ele>
        <time>2026-05-01T16:31:04.000Z</time>
      </trkpt>
      <trkpt lat="44.84518" lon="0.79551">
        <ele>147.8</ele>
        <time>2026-05-01T16:31:05.000Z</time>
      </trkpt>
      <trkpt lat="44.84517" lon="0.79549">
        <ele>147.7</ele>
        <time>2026-05-01T16:31:06.000Z</time>
      </trkpt>
      <trkpt lat="44.84516" lon="0.79547">
        <ele>147.3</ele>
        <time>2026-05-01T16:31:07.000Z</time>
      </trkpt>
      <trkpt lat="44.84515" lon="0.79545">
        <ele>147.2</ele>
        <time>2026-05-01T16:31:08.000Z</time>
      </trkpt>
      <trkpt lat="44.84514" lon="0.79544">
        <ele>146.8</ele>
        <time>2026-05-01T16:31:09.000Z</time>
      </trkpt>
      <trkpt lat="44.84513" lon="0.79542">
        <ele>146.5</ele>
        <time>2026-05-01T16:31:10.000Z</time>
      </trkpt>
      <trkpt lat="44.84512" lon="0.7954">
        <ele>146.2</ele>
        <time>2026-05-01T16:31:11.000Z</time>
      </trkpt>
      <trkpt lat="44.84511" lon="0.79538">
        <ele>145.8</ele>
        <time>2026-05-01T16:31:12.000Z</time>
      </trkpt>
      <trkpt lat="44.8451" lon="0.79536">
        <ele>145.9</ele>
        <time>2026-05-01T16:31:13.000Z</time>
      </trkpt>
      <trkpt lat="44.84508" lon="0.79535">
        <ele>145.7</ele>
        <time>2026-05-01T16:31:14.000Z</time>
      </trkpt>
      <trkpt lat="44.84507" lon="0.79533">
        <ele>145.7</ele>
        <time>2026-05-01T16:31:15.000Z</time>
      </trkpt>
      <trkpt lat="44.84506" lon="0.7953">
        <ele>145.7</ele>
        <time>2026-05-01T16:31:16.000Z</time>
      </trkpt>
      <trkpt lat="44.84504" lon="0.79528">
        <ele>145.6</ele>
        <time>2026-05-01T16:31:17.000Z</time>
      </trkpt>
      <trkpt lat="44.84503" lon="0.79527">
        <ele>145.2</ele>
        <time>2026-05-01T16:31:18.000Z</time>
      </trkpt>
      <trkpt lat="44.84501" lon="0.79526">
        <ele>145.1</ele>
        <time>2026-05-01T16:31:19.000Z</time>
      </trkpt>
      <trkpt lat="44.84501" lon="0.79524">
        <ele>144.5</ele>
        <time>2026-05-01T16:31:20.000Z</time>
      </trkpt>
      <trkpt lat="44.845" lon="0.79524">
        <ele>143.6</ele>
        <time>2026-05-01T16:31:21.000Z</time>
      </trkpt>
      <trkpt lat="44.845" lon="0.79523">
        <ele>142.5</ele>
        <time>2026-05-01T16:31:22.000Z</time>
      </trkpt>
      <trkpt lat="44.84499" lon="0.79522">
        <ele>142</ele>
        <time>2026-05-01T16:31:23.000Z</time>
      </trkpt>
      <trkpt lat="44.84498" lon="0.7952">
        <ele>141.7</ele>
        <time>2026-05-01T16:31:24.000Z</time>
      </trkpt>
      <trkpt lat="44.84496" lon="0.79519">
        <ele>141.2</ele>
        <time>2026-05-01T16:31:25.000Z</time>
      </trkpt>
      <trkpt lat="44.84495" lon="0.79517">
        <ele>140.5</ele>
        <time>2026-05-01T16:31:26.000Z</time>
      </trkpt>
      <trkpt lat="44.84494" lon="0.79516">
        <ele>140.3</ele>
        <time>2026-05-01T16:31:27.000Z</time>
      </trkpt>
      <trkpt lat="44.84493" lon="0.79514">
        <ele>140</ele>
        <time>2026-05-01T16:31:28.000Z</time>
      </trkpt>
      <trkpt lat="44.84492" lon="0.79512">
        <ele>139.9</ele>
        <time>2026-05-01T16:31:29.000Z</time>
      </trkpt>
      <trkpt lat="44.84491" lon="0.79511">
        <ele>139.2</ele>
        <time>2026-05-01T16:31:30.000Z</time>
      </trkpt>
      <trkpt lat="44.8449" lon="0.79509">
        <ele>138.7</ele>
        <time>2026-05-01T16:31:31.000Z</time>
      </trkpt>
      <trkpt lat="44.84489" lon="0.79508">
        <ele>138.2</ele>
        <time>2026-05-01T16:31:32.000Z</time>
      </trkpt>
      <trkpt lat="44.84488" lon="0.79507">
        <ele>137.8</ele>
        <time>2026-05-01T16:31:33.000Z</time>
      </trkpt>
      <trkpt lat="44.84486" lon="0.79505">
        <ele>137.9</ele>
        <time>2026-05-01T16:31:34.000Z</time>
      </trkpt>
      <trkpt lat="44.84485" lon="0.79504">
        <ele>138.2</ele>
        <time>2026-05-01T16:31:35.000Z</time>
      </trkpt>
      <trkpt lat="44.84485" lon="0.79502">
        <ele>137.5</ele>
        <time>2026-05-01T16:31:36.000Z</time>
      </trkpt>
      <trkpt lat="44.84484" lon="0.79501">
        <ele>136.8</ele>
        <time>2026-05-01T16:31:37.000Z</time>
      </trkpt>
      <trkpt lat="44.84483" lon="0.79499">
        <ele>136.3</ele>
        <time>2026-05-01T16:31:38.000Z</time>
      </trkpt>
      <trkpt lat="44.84482" lon="0.79498">
        <ele>136.1</ele>
        <time>2026-05-01T16:31:39.000Z</time>
      </trkpt>
      <trkpt lat="44.84481" lon="0.79496">
        <ele>135.8</ele>
        <time>2026-05-01T16:31:40.000Z</time>
      </trkpt>
      <trkpt lat="44.84481" lon="0.79494">
        <ele>134.8</ele>
        <time>2026-05-01T16:31:41.000Z</time>
      </trkpt>
      <trkpt lat="44.8448" lon="0.79492">
        <ele>133.4</ele>
        <time>2026-05-01T16:31:42.000Z</time>
      </trkpt>
      <trkpt lat="44.84479" lon="0.79491">
        <ele>132.7</ele>
        <time>2026-05-01T16:31:43.000Z</time>
      </trkpt>
      <trkpt lat="44.84479" lon="0.79489">
        <ele>132.9</ele>
        <time>2026-05-01T16:31:44.000Z</time>
      </trkpt>
      <trkpt lat="44.84478" lon="0.79487">
        <ele>133</ele>
        <time>2026-05-01T16:31:45.000Z</time>
      </trkpt>
      <trkpt lat="44.84478" lon="0.79484">
        <ele>131.9</ele>
        <time>2026-05-01T16:31:46.000Z</time>
      </trkpt>
      <trkpt lat="44.84477" lon="0.79482">
        <ele>131.8</ele>
        <time>2026-05-01T16:31:47.000Z</time>
      </trkpt>
      <trkpt lat="44.84477" lon="0.7948">
        <ele>130.3</ele>
        <time>2026-05-01T16:31:48.000Z</time>
      </trkpt>
      <trkpt lat="44.84476" lon="0.79478">
        <ele>129.9</ele>
        <time>2026-05-01T16:31:49.000Z</time>
      </trkpt>
      <trkpt lat="44.84476" lon="0.79476">
        <ele>129.3</ele>
        <time>2026-05-01T16:31:50.000Z</time>
      </trkpt>
      <trkpt lat="44.84475" lon="0.79474">
        <ele>129.3</ele>
        <time>2026-05-01T16:31:51.000Z</time>
      </trkpt>
      <trkpt lat="44.84474" lon="0.79471">
        <ele>130</ele>
        <time>2026-05-01T16:31:52.000Z</time>
      </trkpt>
      <trkpt lat="44.84473" lon="0.79468">
        <ele>130.7</ele>
        <time>2026-05-01T16:31:53.000Z</time>
      </trkpt>
      <trkpt lat="44.84472" lon="0.79465">
        <ele>131.2</ele>
        <time>2026-05-01T16:31:54.000Z</time>
      </trkpt>
      <trkpt lat="44.84471" lon="0.79463">
        <ele>131.7</ele>
        <time>2026-05-01T16:31:55.000Z</time>
      </trkpt>
      <trkpt lat="44.8447" lon="0.7946">
        <ele>132.4</ele>
        <time>2026-05-01T16:31:56.000Z</time>
      </trkpt>
      <trkpt lat="44.84469" lon="0.79458">
        <ele>132.1</ele>
        <time>2026-05-01T16:31:57.000Z</time>
      </trkpt>
      <trkpt lat="44.84469" lon="0.79455">
        <ele>132.4</ele>
        <time>2026-05-01T16:31:58.000Z</time>
      </trkpt>
      <trkpt lat="44.84468" lon="0.79452">
        <ele>132.4</ele>
        <time>2026-05-01T16:31:59.000Z</time>
      </trkpt>
      <trkpt lat="44.84467" lon="0.79449">
        <ele>132.1</ele>
        <time>2026-05-01T16:32:00.000Z</time>
      </trkpt>
      <trkpt lat="44.84467" lon="0.79447">
        <ele>131.8</ele>
        <time>2026-05-01T16:32:01.000Z</time>
      </trkpt>
      <trkpt lat="44.84466" lon="0.79445">
        <ele>132</ele>
        <time>2026-05-01T16:32:02.000Z</time>
      </trkpt>
      <trkpt lat="44.84464" lon="0.79444">
        <ele>131.8</ele>
        <time>2026-05-01T16:32:03.000Z</time>
      </trkpt>
      <trkpt lat="44.84462" lon="0.79445">
        <ele>131</ele>
        <time>2026-05-01T16:32:04.000Z</time>
      </trkpt>
      <trkpt lat="44.8446" lon="0.79446">
        <ele>130.1</ele>
        <time>2026-05-01T16:32:05.000Z</time>
      </trkpt>
      <trkpt lat="44.84459" lon="0.7945">
        <ele>129.4</ele>
        <time>2026-05-01T16:32:06.000Z</time>
      </trkpt>
      <trkpt lat="44.84459" lon="0.79452">
        <ele>129.3</ele>
        <time>2026-05-01T16:32:07.000Z</time>
      </trkpt>
      <trkpt lat="44.84459" lon="0.79452">
        <ele>129.4</ele>
        <time>2026-05-01T16:32:08.000Z</time>
      </trkpt>
      <trkpt lat="44.84459" lon="0.79451">
        <ele>129.4</ele>
        <time>2026-05-01T16:32:09.000Z</time>
      </trkpt>
      <trkpt lat="44.84459" lon="0.79453">
        <ele>129.1</ele>
        <time>2026-05-01T16:32:10.000Z</time>
      </trkpt>
      <trkpt lat="44.84459" lon="0.79456">
        <ele>129</ele>
        <time>2026-05-01T16:32:11.000Z</time>
      </trkpt>
      <trkpt lat="44.84459" lon="0.79458">
        <ele>128.7</ele>
        <time>2026-05-01T16:32:12.000Z</time>
      </trkpt>
      <trkpt lat="44.84459" lon="0.7946">
        <ele>129.5</ele>
        <time>2026-05-01T16:32:13.000Z</time>
      </trkpt>
      <trkpt lat="44.84459" lon="0.79462">
        <ele>130.2</ele>
        <time>2026-05-01T16:32:14.000Z</time>
      </trkpt>
      <trkpt lat="44.84458" lon="0.79463">
        <ele>130</ele>
        <time>2026-05-01T16:32:15.000Z</time>
      </trkpt>
      <trkpt lat="44.84458" lon="0.79465">
        <ele>130.5</ele>
        <time>2026-05-01T16:32:16.000Z</time>
      </trkpt>
      <trkpt lat="44.84459" lon="0.79467">
        <ele>130.8</ele>
        <time>2026-05-01T16:32:17.000Z</time>
      </trkpt>
      <trkpt lat="44.84459" lon="0.79469">
        <ele>130.5</ele>
        <time>2026-05-01T16:32:18.000Z</time>
      </trkpt>
      <trkpt lat="44.84459" lon="0.79471">
        <ele>130</ele>
        <time>2026-05-01T16:32:19.000Z</time>
      </trkpt>
      <trkpt lat="44.8446" lon="0.79473">
        <ele>129.6</ele>
        <time>2026-05-01T16:32:20.000Z</time>
      </trkpt>
      <trkpt lat="44.8446" lon="0.79475">
        <ele>129.4</ele>
        <time>2026-05-01T16:32:21.000Z</time>
      </trkpt>
      <trkpt lat="44.84461" lon="0.79477">
        <ele>129.3</ele>
        <time>2026-05-01T16:32:22.000Z</time>
      </trkpt>
      <trkpt lat="44.84461" lon="0.79479">
        <ele>130.1</ele>
        <time>2026-05-01T16:32:23.000Z</time>
      </trkpt>
      <trkpt lat="44.84462" lon="0.79481">
        <ele>129</ele>
        <time>2026-05-01T16:32:24.000Z</time>
      </trkpt>
      <trkpt lat="44.84462" lon="0.79484">
        <ele>128.3</ele>
        <time>2026-05-01T16:32:25.000Z</time>
      </trkpt>
      <trkpt lat="44.84463" lon="0.79486">
        <ele>128.9</ele>
        <time>2026-05-01T16:32:26.000Z</time>
      </trkpt>
      <trkpt lat="44.84463" lon="0.79488">
        <ele>129.1</ele>
        <time>2026-05-01T16:32:27.000Z</time>
      </trkpt>
      <trkpt lat="44.84464" lon="0.7949">
        <ele>129.2</ele>
        <time>2026-05-01T16:32:28.000Z</time>
      </trkpt>
      <trkpt lat="44.84464" lon="0.79492">
        <ele>129.1</ele>
        <time>2026-05-01T16:32:29.000Z</time>
      </trkpt>
      <trkpt lat="44.84465" lon="0.79494">
        <ele>128.6</ele>
        <time>2026-05-01T16:32:30.000Z</time>
      </trkpt>
      <trkpt lat="44.84467" lon="0.79496">
        <ele>129.2</ele>
        <time>2026-05-01T16:32:31.000Z</time>
      </trkpt>
      <trkpt lat="44.84468" lon="0.79498">
        <ele>129.2</ele>
        <time>2026-05-01T16:32:32.000Z</time>
      </trkpt>
      <trkpt lat="44.84469" lon="0.795">
        <ele>129.2</ele>
        <time>2026-05-01T16:32:33.000Z</time>
      </trkpt>
      <trkpt lat="44.8447" lon="0.79502">
        <ele>128.7</ele>
        <time>2026-05-01T16:32:34.000Z</time>
      </trkpt>
      <trkpt lat="44.84471" lon="0.79503">
        <ele>128.4</ele>
        <time>2026-05-01T16:32:35.000Z</time>
      </trkpt>
      <trkpt lat="44.84472" lon="0.79505">
        <ele>128.7</ele>
        <time>2026-05-01T16:32:36.000Z</time>
      </trkpt>
      <trkpt lat="44.84473" lon="0.79507">
        <ele>128.2</ele>
        <time>2026-05-01T16:32:37.000Z</time>
      </trkpt>
      <trkpt lat="44.84474" lon="0.79508">
        <ele>127.1</ele>
        <time>2026-05-01T16:32:38.000Z</time>
      </trkpt>
      <trkpt lat="44.84474" lon="0.7951">
        <ele>125.9</ele>
        <time>2026-05-01T16:32:39.000Z</time>
      </trkpt>
      <trkpt lat="44.84475" lon="0.79512">
        <ele>125.8</ele>
        <time>2026-05-01T16:32:40.000Z</time>
      </trkpt>
      <trkpt lat="44.84476" lon="0.79514">
        <ele>125.6</ele>
        <time>2026-05-01T16:32:41.000Z</time>
      </trkpt>
      <trkpt lat="44.84477" lon="0.79515">
        <ele>125.5</ele>
        <time>2026-05-01T16:32:42.000Z</time>
      </trkpt>
      <trkpt lat="44.84477" lon="0.79517">
        <ele>125.6</ele>
        <time>2026-05-01T16:32:43.000Z</time>
      </trkpt>
      <trkpt lat="44.84477" lon="0.79518">
        <ele>126.2</ele>
        <time>2026-05-01T16:32:44.000Z</time>
      </trkpt>
      <trkpt lat="44.84477" lon="0.79521">
        <ele>125</ele>
        <time>2026-05-01T16:32:45.000Z</time>
      </trkpt>
      <trkpt lat="44.84477" lon="0.79523">
        <ele>124.8</ele>
        <time>2026-05-01T16:32:46.000Z</time>
      </trkpt>
      <trkpt lat="44.84478" lon="0.79525">
        <ele>124.3</ele>
        <time>2026-05-01T16:32:47.000Z</time>
      </trkpt>
      <trkpt lat="44.84478" lon="0.79526">
        <ele>125</ele>
        <time>2026-05-01T16:32:48.000Z</time>
      </trkpt>
      <trkpt lat="44.84479" lon="0.79528">
        <ele>124.4</ele>
        <time>2026-05-01T16:32:49.000Z</time>
      </trkpt>
      <trkpt lat="44.84479" lon="0.7953">
        <ele>123.2</ele>
        <time>2026-05-01T16:32:50.000Z</time>
      </trkpt>
      <trkpt lat="44.84479" lon="0.79533">
        <ele>122</ele>
        <time>2026-05-01T16:32:51.000Z</time>
      </trkpt>
      <trkpt lat="44.84479" lon="0.79536">
        <ele>122.3</ele>
        <time>2026-05-01T16:32:52.000Z</time>
      </trkpt>
      <trkpt lat="44.84478" lon="0.79538">
        <ele>123.9</ele>
        <time>2026-05-01T16:32:53.000Z</time>
      </trkpt>
      <trkpt lat="44.84478" lon="0.79541">
        <ele>124.3</ele>
        <time>2026-05-01T16:32:54.000Z</time>
      </trkpt>
      <trkpt lat="44.84478" lon="0.79544">
        <ele>124.9</ele>
        <time>2026-05-01T16:32:55.000Z</time>
      </trkpt>
      <trkpt lat="44.84477" lon="0.79548">
        <ele>124.2</ele>
        <time>2026-05-01T16:32:56.000Z</time>
      </trkpt>
      <trkpt lat="44.84477" lon="0.79551">
        <ele>123.4</ele>
        <time>2026-05-01T16:32:57.000Z</time>
      </trkpt>
      <trkpt lat="44.84478" lon="0.79554">
        <ele>121.7</ele>
        <time>2026-05-01T16:32:58.000Z</time>
      </trkpt>
      <trkpt lat="44.84478" lon="0.79557">
        <ele>121.3</ele>
        <time>2026-05-01T16:32:59.000Z</time>
      </trkpt>
      <trkpt lat="44.84479" lon="0.7956">
        <ele>121.2</ele>
        <time>2026-05-01T16:33:00.000Z</time>
      </trkpt>
      <trkpt lat="44.8448" lon="0.79563">
        <ele>122</ele>
        <time>2026-05-01T16:33:01.000Z</time>
      </trkpt>
      <trkpt lat="44.84482" lon="0.79565">
        <ele>122.3</ele>
        <time>2026-05-01T16:33:02.000Z</time>
      </trkpt>
      <trkpt lat="44.84482" lon="0.79566">
        <ele>122.4</ele>
        <time>2026-05-01T16:33:03.000Z</time>
      </trkpt>
      <trkpt lat="44.84483" lon="0.79567">
        <ele>122.1</ele>
        <time>2026-05-01T16:33:04.000Z</time>
      </trkpt>
      <trkpt lat="44.84483" lon="0.7957">
        <ele>121.7</ele>
        <time>2026-05-01T16:33:05.000Z</time>
      </trkpt>
      <trkpt lat="44.84484" lon="0.79572">
        <ele>121.5</ele>
        <time>2026-05-01T16:33:06.000Z</time>
      </trkpt>
      <trkpt lat="44.84485" lon="0.79574">
        <ele>120.9</ele>
        <time>2026-05-01T16:33:07.000Z</time>
      </trkpt>
      <trkpt lat="44.84485" lon="0.79576">
        <ele>120.7</ele>
        <time>2026-05-01T16:33:08.000Z</time>
      </trkpt>
      <trkpt lat="44.84486" lon="0.79579">
        <ele>120.5</ele>
        <time>2026-05-01T16:33:09.000Z</time>
      </trkpt>
      <trkpt lat="44.84486" lon="0.79581">
        <ele>120.5</ele>
        <time>2026-05-01T16:33:10.000Z</time>
      </trkpt>
      <trkpt lat="44.84487" lon="0.79583">
        <ele>120.4</ele>
        <time>2026-05-01T16:33:11.000Z</time>
      </trkpt>
      <trkpt lat="44.84487" lon="0.79585">
        <ele>120.1</ele>
        <time>2026-05-01T16:33:12.000Z</time>
      </trkpt>
      <trkpt lat="44.84488" lon="0.79587">
        <ele>119.6</ele>
        <time>2026-05-01T16:33:13.000Z</time>
      </trkpt>
      <trkpt lat="44.84489" lon="0.79589">
        <ele>119.2</ele>
        <time>2026-05-01T16:33:14.000Z</time>
      </trkpt>
      <trkpt lat="44.84489" lon="0.79592">
        <ele>118.9</ele>
        <time>2026-05-01T16:33:15.000Z</time>
      </trkpt>
      <trkpt lat="44.84489" lon="0.79594">
        <ele>118.8</ele>
        <time>2026-05-01T16:33:16.000Z</time>
      </trkpt>
      <trkpt lat="44.8449" lon="0.79597">
        <ele>119.1</ele>
        <time>2026-05-01T16:33:17.000Z</time>
      </trkpt>
      <trkpt lat="44.8449" lon="0.79599">
        <ele>120.1</ele>
        <time>2026-05-01T16:33:18.000Z</time>
      </trkpt>
      <trkpt lat="44.84492" lon="0.79601">
        <ele>119.9</ele>
        <time>2026-05-01T16:33:19.000Z</time>
      </trkpt>
      <trkpt lat="44.84492" lon="0.79603">
        <ele>120.1</ele>
        <time>2026-05-01T16:33:20.000Z</time>
      </trkpt>
      <trkpt lat="44.84493" lon="0.79606">
        <ele>120.3</ele>
        <time>2026-05-01T16:33:21.000Z</time>
      </trkpt>
      <trkpt lat="44.84494" lon="0.79608">
        <ele>120</ele>
        <time>2026-05-01T16:33:22.000Z</time>
      </trkpt>
      <trkpt lat="44.84494" lon="0.79611">
        <ele>121.6</ele>
        <time>2026-05-01T16:33:23.000Z</time>
      </trkpt>
      <trkpt lat="44.84495" lon="0.79613">
        <ele>121.4</ele>
        <time>2026-05-01T16:33:24.000Z</time>
      </trkpt>
      <trkpt lat="44.84495" lon="0.79616">
        <ele>121.7</ele>
        <time>2026-05-01T16:33:25.000Z</time>
      </trkpt>
      <trkpt lat="44.84496" lon="0.79619">
        <ele>121.9</ele>
        <time>2026-05-01T16:33:26.000Z</time>
      </trkpt>
      <trkpt lat="44.84496" lon="0.79622">
        <ele>122.4</ele>
        <time>2026-05-01T16:33:27.000Z</time>
      </trkpt>
      <trkpt lat="44.84496" lon="0.79624">
        <ele>121.1</ele>
        <time>2026-05-01T16:33:28.000Z</time>
      </trkpt>
      <trkpt lat="44.84497" lon="0.79627">
        <ele>122.7</ele>
        <time>2026-05-01T16:33:29.000Z</time>
      </trkpt>
      <trkpt lat="44.84498" lon="0.79629">
        <ele>122.1</ele>
        <time>2026-05-01T16:33:30.000Z</time>
      </trkpt>
      <trkpt lat="44.84499" lon="0.79632">
        <ele>122.3</ele>
        <time>2026-05-01T16:33:31.000Z</time>
      </trkpt>
      <trkpt lat="44.845" lon="0.79634">
        <ele>122.2</ele>
        <time>2026-05-01T16:33:32.000Z</time>
      </trkpt>
      <trkpt lat="44.84499" lon="0.79637">
        <ele>121.6</ele>
        <time>2026-05-01T16:33:33.000Z</time>
      </trkpt>
      <trkpt lat="44.845" lon="0.79639">
        <ele>122.4</ele>
        <time>2026-05-01T16:33:34.000Z</time>
      </trkpt>
      <trkpt lat="44.845" lon="0.79642">
        <ele>122.1</ele>
        <time>2026-05-01T16:33:35.000Z</time>
      </trkpt>
      <trkpt lat="44.845" lon="0.79645">
        <ele>122.1</ele>
        <time>2026-05-01T16:33:36.000Z</time>
      </trkpt>
      <trkpt lat="44.845" lon="0.79647">
        <ele>122.2</ele>
        <time>2026-05-01T16:33:37.000Z</time>
      </trkpt>
      <trkpt lat="44.845" lon="0.7965">
        <ele>121.9</ele>
        <time>2026-05-01T16:33:38.000Z</time>
      </trkpt>
      <trkpt lat="44.845" lon="0.79653">
        <ele>121.3</ele>
        <time>2026-05-01T16:33:39.000Z</time>
      </trkpt>
      <trkpt lat="44.845" lon="0.79656">
        <ele>120.7</ele>
        <time>2026-05-01T16:33:40.000Z</time>
      </trkpt>
      <trkpt lat="44.845" lon="0.79658">
        <ele>120.5</ele>
        <time>2026-05-01T16:33:41.000Z</time>
      </trkpt>
      <trkpt lat="44.845" lon="0.79661">
        <ele>119.3</ele>
        <time>2026-05-01T16:33:42.000Z</time>
      </trkpt>
      <trkpt lat="44.84499" lon="0.79664">
        <ele>118.1</ele>
        <time>2026-05-01T16:33:43.000Z</time>
      </trkpt>
      <trkpt lat="44.84499" lon="0.79666">
        <ele>118.7</ele>
        <time>2026-05-01T16:33:44.000Z</time>
      </trkpt>
      <trkpt lat="44.84499" lon="0.79669">
        <ele>118.2</ele>
        <time>2026-05-01T16:33:45.000Z</time>
      </trkpt>
      <trkpt lat="44.84498" lon="0.79672">
        <ele>117.7</ele>
        <time>2026-05-01T16:33:46.000Z</time>
      </trkpt>
      <trkpt lat="44.84498" lon="0.79674">
        <ele>117.1</ele>
        <time>2026-05-01T16:33:47.000Z</time>
      </trkpt>
      <trkpt lat="44.84498" lon="0.79677">
        <ele>117</ele>
        <time>2026-05-01T16:33:48.000Z</time>
      </trkpt>
      <trkpt lat="44.84497" lon="0.7968">
        <ele>116.6</ele>
        <time>2026-05-01T16:33:49.000Z</time>
      </trkpt>
      <trkpt lat="44.84498" lon="0.79683">
        <ele>116.8</ele>
        <time>2026-05-01T16:33:50.000Z</time>
      </trkpt>
      <trkpt lat="44.84498" lon="0.79685">
        <ele>118</ele>
        <time>2026-05-01T16:33:51.000Z</time>
      </trkpt>
      <trkpt lat="44.84497" lon="0.79688">
        <ele>118.4</ele>
        <time>2026-05-01T16:33:52.000Z</time>
      </trkpt>
      <trkpt lat="44.84497" lon="0.79691">
        <ele>118.9</ele>
        <time>2026-05-01T16:33:53.000Z</time>
      </trkpt>
      <trkpt lat="44.84497" lon="0.79694">
        <ele>119.3</ele>
        <time>2026-05-01T16:33:54.000Z</time>
      </trkpt>
      <trkpt lat="44.84497" lon="0.79696">
        <ele>120.3</ele>
        <time>2026-05-01T16:33:55.000Z</time>
      </trkpt>
      <trkpt lat="44.84497" lon="0.79699">
        <ele>119.6</ele>
        <time>2026-05-01T16:33:56.000Z</time>
      </trkpt>
      <trkpt lat="44.84497" lon="0.79702">
        <ele>119.6</ele>
        <time>2026-05-01T16:33:57.000Z</time>
      </trkpt>
      <trkpt lat="44.84496" lon="0.79704">
        <ele>118.5</ele>
        <time>2026-05-01T16:33:58.000Z</time>
      </trkpt>
      <trkpt lat="44.84496" lon="0.79707">
        <ele>118.1</ele>
        <time>2026-05-01T16:33:59.000Z</time>
      </trkpt>
      <trkpt lat="44.84496" lon="0.7971">
        <ele>118.6</ele>
        <time>2026-05-01T16:34:00.000Z</time>
      </trkpt>
      <trkpt lat="44.84495" lon="0.79712">
        <ele>117.5</ele>
        <time>2026-05-01T16:34:01.000Z</time>
      </trkpt>
      <trkpt lat="44.84495" lon="0.79715">
        <ele>117.3</ele>
        <time>2026-05-01T16:34:02.000Z</time>
      </trkpt>
      <trkpt lat="44.84495" lon="0.79718">
        <ele>117.4</ele>
        <time>2026-05-01T16:34:03.000Z</time>
      </trkpt>
      <trkpt lat="44.84495" lon="0.7972">
        <ele>117.2</ele>
        <time>2026-05-01T16:34:04.000Z</time>
      </trkpt>
      <trkpt lat="44.84495" lon="0.79723">
        <ele>117.4</ele>
        <time>2026-05-01T16:34:05.000Z</time>
      </trkpt>
      <trkpt lat="44.84494" lon="0.79725">
        <ele>117.6</ele>
        <time>2026-05-01T16:34:06.000Z</time>
      </trkpt>
      <trkpt lat="44.84494" lon="0.79727">
        <ele>117.7</ele>
        <time>2026-05-01T16:34:07.000Z</time>
      </trkpt>
      <trkpt lat="44.84494" lon="0.7973">
        <ele>117.8</ele>
        <time>2026-05-01T16:34:08.000Z</time>
      </trkpt>
      <trkpt lat="44.84494" lon="0.79732">
        <ele>117.7</ele>
        <time>2026-05-01T16:34:09.000Z</time>
      </trkpt>
      <trkpt lat="44.84493" lon="0.79734">
        <ele>117.7</ele>
        <time>2026-05-01T16:34:10.000Z</time>
      </trkpt>
      <trkpt lat="44.84492" lon="0.79735">
        <ele>117.5</ele>
        <time>2026-05-01T16:34:11.000Z</time>
      </trkpt>
      <trkpt lat="44.8449" lon="0.79733">
        <ele>116.9</ele>
        <time>2026-05-01T16:34:12.000Z</time>
      </trkpt>
      <trkpt lat="44.84489" lon="0.79732">
        <ele>116.7</ele>
        <time>2026-05-01T16:34:13.000Z</time>
      </trkpt>
      <trkpt lat="44.84488" lon="0.79731">
        <ele>116.4</ele>
        <time>2026-05-01T16:34:14.000Z</time>
      </trkpt>
      <trkpt lat="44.84488" lon="0.7973">
        <ele>116.3</ele>
        <time>2026-05-01T16:34:15.000Z</time>
      </trkpt>
      <trkpt lat="44.84487" lon="0.79728">
        <ele>116.1</ele>
        <time>2026-05-01T16:34:16.000Z</time>
      </trkpt>
      <trkpt lat="44.84487" lon="0.79726">
        <ele>115.8</ele>
        <time>2026-05-01T16:34:17.000Z</time>
      </trkpt>
      <trkpt lat="44.84487" lon="0.79724">
        <ele>115.7</ele>
        <time>2026-05-01T16:34:18.000Z</time>
      </trkpt>
      <trkpt lat="44.84487" lon="0.79721">
        <ele>115.4</ele>
        <time>2026-05-01T16:34:19.000Z</time>
      </trkpt>
      <trkpt lat="44.84487" lon="0.79719">
        <ele>114.8</ele>
        <time>2026-05-01T16:34:20.000Z</time>
      </trkpt>
      <trkpt lat="44.84487" lon="0.79717">
        <ele>114.6</ele>
        <time>2026-05-01T16:34:21.000Z</time>
      </trkpt>
      <trkpt lat="44.84486" lon="0.79715">
        <ele>114.5</ele>
        <time>2026-05-01T16:34:22.000Z</time>
      </trkpt>
      <trkpt lat="44.84486" lon="0.79712">
        <ele>114.5</ele>
        <time>2026-05-01T16:34:23.000Z</time>
      </trkpt>
      <trkpt lat="44.84486" lon="0.7971">
        <ele>113.5</ele>
        <time>2026-05-01T16:34:24.000Z</time>
      </trkpt>
      <trkpt lat="44.84486" lon="0.79708">
        <ele>113.3</ele>
        <time>2026-05-01T16:34:25.000Z</time>
      </trkpt>
      <trkpt lat="44.84486" lon="0.79705">
        <ele>113.2</ele>
        <time>2026-05-01T16:34:26.000Z</time>
      </trkpt>
      <trkpt lat="44.84486" lon="0.79703">
        <ele>112.2</ele>
        <time>2026-05-01T16:34:27.000Z</time>
      </trkpt>
      <trkpt lat="44.84486" lon="0.79701">
        <ele>111.9</ele>
        <time>2026-05-01T16:34:28.000Z</time>
      </trkpt>
      <trkpt lat="44.84486" lon="0.79699">
        <ele>111.2</ele>
        <time>2026-05-01T16:34:29.000Z</time>
      </trkpt>
      <trkpt lat="44.84486" lon="0.79696">
        <ele>111</ele>
        <time>2026-05-01T16:34:30.000Z</time>
      </trkpt>
      <trkpt lat="44.84486" lon="0.79693">
        <ele>110.4</ele>
        <time>2026-05-01T16:34:31.000Z</time>
      </trkpt>
      <trkpt lat="44.84486" lon="0.7969">
        <ele>110.4</ele>
        <time>2026-05-01T16:34:32.000Z</time>
      </trkpt>
      <trkpt lat="44.84485" lon="0.79687">
        <ele>110.6</ele>
        <time>2026-05-01T16:34:33.000Z</time>
      </trkpt>
      <trkpt lat="44.84485" lon="0.79685">
        <ele>109.8</ele>
        <time>2026-05-01T16:34:34.000Z</time>
      </trkpt>
      <trkpt lat="44.84484" lon="0.79682">
        <ele>109.8</ele>
        <time>2026-05-01T16:34:35.000Z</time>
      </trkpt>
      <trkpt lat="44.84484" lon="0.7968">
        <ele>109.6</ele>
        <time>2026-05-01T16:34:36.000Z</time>
      </trkpt>
      <trkpt lat="44.84483" lon="0.79678">
        <ele>109.9</ele>
        <time>2026-05-01T16:34:37.000Z</time>
      </trkpt>
      <trkpt lat="44.84483" lon="0.79675">
        <ele>110.3</ele>
        <time>2026-05-01T16:34:38.000Z</time>
      </trkpt>
      <trkpt lat="44.84482" lon="0.79673">
        <ele>110.1</ele>
        <time>2026-05-01T16:34:39.000Z</time>
      </trkpt>
      <trkpt lat="44.84482" lon="0.79671">
        <ele>110</ele>
        <time>2026-05-01T16:34:40.000Z</time>
      </trkpt>
      <trkpt lat="44.84481" lon="0.79668">
        <ele>110.3</ele>
        <time>2026-05-01T16:34:41.000Z</time>
      </trkpt>
      <trkpt lat="44.8448" lon="0.79666">
        <ele>110.3</ele>
        <time>2026-05-01T16:34:42.000Z</time>
      </trkpt>
      <trkpt lat="44.84479" lon="0.79663">
        <ele>110.2</ele>
        <time>2026-05-01T16:34:43.000Z</time>
      </trkpt>
      <trkpt lat="44.84479" lon="0.79661">
        <ele>109.9</ele>
        <time>2026-05-01T16:34:44.000Z</time>
      </trkpt>
      <trkpt lat="44.84478" lon="0.79659">
        <ele>109.7</ele>
        <time>2026-05-01T16:34:45.000Z</time>
      </trkpt>
      <trkpt lat="44.84477" lon="0.79657">
        <ele>109.5</ele>
        <time>2026-05-01T16:34:46.000Z</time>
      </trkpt>
      <trkpt lat="44.84477" lon="0.79654">
        <ele>109.3</ele>
        <time>2026-05-01T16:34:47.000Z</time>
      </trkpt>
      <trkpt lat="44.84476" lon="0.79652">
        <ele>109.4</ele>
        <time>2026-05-01T16:34:48.000Z</time>
      </trkpt>
      <trkpt lat="44.84475" lon="0.7965">
        <ele>109.5</ele>
        <time>2026-05-01T16:34:49.000Z</time>
      </trkpt>
      <trkpt lat="44.84475" lon="0.79648">
        <ele>110.3</ele>
        <time>2026-05-01T16:34:50.000Z</time>
      </trkpt>
      <trkpt lat="44.84474" lon="0.79646">
        <ele>110.5</ele>
        <time>2026-05-01T16:34:51.000Z</time>
      </trkpt>
      <trkpt lat="44.84474" lon="0.79643">
        <ele>110.8</ele>
        <time>2026-05-01T16:34:52.000Z</time>
      </trkpt>
      <trkpt lat="44.84474" lon="0.79642">
        <ele>111.1</ele>
        <time>2026-05-01T16:34:53.000Z</time>
      </trkpt>
      <trkpt lat="44.84474" lon="0.79641">
        <ele>111</ele>
        <time>2026-05-01T16:34:54.000Z</time>
      </trkpt>
      <trkpt lat="44.84473" lon="0.79638">
        <ele>111</ele>
        <time>2026-05-01T16:34:55.000Z</time>
      </trkpt>
      <trkpt lat="44.84472" lon="0.79636">
        <ele>110.8</ele>
        <time>2026-05-01T16:34:56.000Z</time>
      </trkpt>
      <trkpt lat="44.84471" lon="0.79634">
        <ele>110.8</ele>
        <time>2026-05-01T16:34:57.000Z</time>
      </trkpt>
      <trkpt lat="44.84471" lon="0.79632">
        <ele>110.7</ele>
        <time>2026-05-01T16:34:58.000Z</time>
      </trkpt>
      <trkpt lat="44.8447" lon="0.7963">
        <ele>110.4</ele>
        <time>2026-05-01T16:34:59.000Z</time>
      </trkpt>
      <trkpt lat="44.8447" lon="0.79628">
        <ele>109.7</ele>
        <time>2026-05-01T16:35:00.000Z</time>
      </trkpt>
      <trkpt lat="44.84469" lon="0.79626">
        <ele>109.9</ele>
        <time>2026-05-01T16:35:01.000Z</time>
      </trkpt>
      <trkpt lat="44.84468" lon="0.79623">
        <ele>109.8</ele>
        <time>2026-05-01T16:35:02.000Z</time>
      </trkpt>
      <trkpt lat="44.84467" lon="0.79621">
        <ele>110</ele>
        <time>2026-05-01T16:35:03.000Z</time>
      </trkpt>
      <trkpt lat="44.84466" lon="0.79618">
        <ele>110.4</ele>
        <time>2026-05-01T16:35:04.000Z</time>
      </trkpt>
      <trkpt lat="44.84465" lon="0.79616">
        <ele>110.5</ele>
        <time>2026-05-01T16:35:05.000Z</time>
      </trkpt>
      <trkpt lat="44.84464" lon="0.79614">
        <ele>110.5</ele>
        <time>2026-05-01T16:35:06.000Z</time>
      </trkpt>
      <trkpt lat="44.84463" lon="0.79611">
        <ele>110.5</ele>
        <time>2026-05-01T16:35:07.000Z</time>
      </trkpt>
      <trkpt lat="44.84462" lon="0.79609">
        <ele>110.3</ele>
        <time>2026-05-01T16:35:08.000Z</time>
      </trkpt>
      <trkpt lat="44.84461" lon="0.79607">
        <ele>110.5</ele>
        <time>2026-05-01T16:35:09.000Z</time>
      </trkpt>
      <trkpt lat="44.8446" lon="0.79605">
        <ele>110.3</ele>
        <time>2026-05-01T16:35:10.000Z</time>
      </trkpt>
      <trkpt lat="44.84459" lon="0.79602">
        <ele>110.2</ele>
        <time>2026-05-01T16:35:11.000Z</time>
      </trkpt>
      <trkpt lat="44.84458" lon="0.796">
        <ele>110.2</ele>
        <time>2026-05-01T16:35:12.000Z</time>
      </trkpt>
      <trkpt lat="44.84458" lon="0.79599">
        <ele>109.9</ele>
        <time>2026-05-01T16:35:13.000Z</time>
      </trkpt>
      <trkpt lat="44.84457" lon="0.79597">
        <ele>109.9</ele>
        <time>2026-05-01T16:35:14.000Z</time>
      </trkpt>
      <trkpt lat="44.84456" lon="0.79595">
        <ele>110</ele>
        <time>2026-05-01T16:35:15.000Z</time>
      </trkpt>
      <trkpt lat="44.84455" lon="0.79593">
        <ele>110</ele>
        <time>2026-05-01T16:35:16.000Z</time>
      </trkpt>
      <trkpt lat="44.84453" lon="0.79591">
        <ele>109.9</ele>
        <time>2026-05-01T16:35:17.000Z</time>
      </trkpt>
      <trkpt lat="44.84452" lon="0.79589">
        <ele>109.6</ele>
        <time>2026-05-01T16:35:18.000Z</time>
      </trkpt>
      <trkpt lat="44.84451" lon="0.79587">
        <ele>109.6</ele>
        <time>2026-05-01T16:35:19.000Z</time>
      </trkpt>
      <trkpt lat="44.8445" lon="0.79585">
        <ele>109.1</ele>
        <time>2026-05-01T16:35:20.000Z</time>
      </trkpt>
      <trkpt lat="44.8445" lon="0.79583">
        <ele>109.3</ele>
        <time>2026-05-01T16:35:21.000Z</time>
      </trkpt>
      <trkpt lat="44.84449" lon="0.7958">
        <ele>109.1</ele>
        <time>2026-05-01T16:35:22.000Z</time>
      </trkpt>
      <trkpt lat="44.84448" lon="0.79578">
        <ele>108.9</ele>
        <time>2026-05-01T16:35:23.000Z</time>
      </trkpt>
      <trkpt lat="44.84447" lon="0.79576">
        <ele>109.1</ele>
        <time>2026-05-01T16:35:24.000Z</time>
      </trkpt>
      <trkpt lat="44.84445" lon="0.79574">
        <ele>109</ele>
        <time>2026-05-01T16:35:25.000Z</time>
      </trkpt>
      <trkpt lat="44.84444" lon="0.79572">
        <ele>109.1</ele>
        <time>2026-05-01T16:35:26.000Z</time>
      </trkpt>
      <trkpt lat="44.84443" lon="0.7957">
        <ele>108.9</ele>
        <time>2026-05-01T16:35:27.000Z</time>
      </trkpt>
      <trkpt lat="44.84442" lon="0.79568">
        <ele>108.6</ele>
        <time>2026-05-01T16:35:28.000Z</time>
      </trkpt>
      <trkpt lat="44.84441" lon="0.79565">
        <ele>108.6</ele>
        <time>2026-05-01T16:35:29.000Z</time>
      </trkpt>
      <trkpt lat="44.8444" lon="0.79563">
        <ele>108.6</ele>
        <time>2026-05-01T16:35:30.000Z</time>
      </trkpt>
      <trkpt lat="44.84439" lon="0.79561">
        <ele>108.7</ele>
        <time>2026-05-01T16:35:31.000Z</time>
      </trkpt>
      <trkpt lat="44.84438" lon="0.79559">
        <ele>108.6</ele>
        <time>2026-05-01T16:35:32.000Z</time>
      </trkpt>
      <trkpt lat="44.84437" lon="0.79557">
        <ele>108.5</ele>
        <time>2026-05-01T16:35:33.000Z</time>
      </trkpt>
      <trkpt lat="44.84436" lon="0.79555">
        <ele>108.3</ele>
        <time>2026-05-01T16:35:34.000Z</time>
      </trkpt>
      <trkpt lat="44.84435" lon="0.79553">
        <ele>108.3</ele>
        <time>2026-05-01T16:35:35.000Z</time>
      </trkpt>
      <trkpt lat="44.84434" lon="0.79551">
        <ele>108.4</ele>
        <time>2026-05-01T16:35:36.000Z</time>
      </trkpt>
      <trkpt lat="44.84434" lon="0.79551">
        <ele>108.3</ele>
        <time>2026-05-01T16:35:37.000Z</time>
      </trkpt>
      <trkpt lat="44.84434" lon="0.7955">
        <ele>108.4</ele>
        <time>2026-05-01T16:35:38.000Z</time>
      </trkpt>
      <trkpt lat="44.84434" lon="0.7955">
        <ele>108.4</ele>
        <time>2026-05-01T16:35:39.000Z</time>
      </trkpt>
      <trkpt lat="44.84433" lon="0.79547">
        <ele>108.6</ele>
        <time>2026-05-01T16:35:40.000Z</time>
      </trkpt>
      <trkpt lat="44.84432" lon="0.79546">
        <ele>108.3</ele>
        <time>2026-05-01T16:35:41.000Z</time>
      </trkpt>
      <trkpt lat="44.84431" lon="0.79544">
        <ele>108.2</ele>
        <time>2026-05-01T16:35:42.000Z</time>
      </trkpt>
      <trkpt lat="44.8443" lon="0.79542">
        <ele>107.9</ele>
        <time>2026-05-01T16:35:43.000Z</time>
      </trkpt>
      <trkpt lat="44.84429" lon="0.7954">
        <ele>108.1</ele>
        <time>2026-05-01T16:35:44.000Z</time>
      </trkpt>
      <trkpt lat="44.84428" lon="0.79538">
        <ele>107.8</ele>
        <time>2026-05-01T16:35:45.000Z</time>
      </trkpt>
      <trkpt lat="44.84427" lon="0.79536">
        <ele>107.8</ele>
        <time>2026-05-01T16:35:46.000Z</time>
      </trkpt>
      <trkpt lat="44.84426" lon="0.79535">
        <ele>107.5</ele>
        <time>2026-05-01T16:35:47.000Z</time>
      </trkpt>
      <trkpt lat="44.84425" lon="0.79533">
        <ele>107.7</ele>
        <time>2026-05-01T16:35:48.000Z</time>
      </trkpt>
      <trkpt lat="44.84424" lon="0.79531">
        <ele>107.6</ele>
        <time>2026-05-01T16:35:49.000Z</time>
      </trkpt>
      <trkpt lat="44.84423" lon="0.79529">
        <ele>107.5</ele>
        <time>2026-05-01T16:35:50.000Z</time>
      </trkpt>
      <trkpt lat="44.84422" lon="0.79527">
        <ele>107.5</ele>
        <time>2026-05-01T16:35:51.000Z</time>
      </trkpt>
      <trkpt lat="44.84421" lon="0.79525">
        <ele>107.4</ele>
        <time>2026-05-01T16:35:52.000Z</time>
      </trkpt>
      <trkpt lat="44.8442" lon="0.79524">
        <ele>107.4</ele>
        <time>2026-05-01T16:35:53.000Z</time>
      </trkpt>
      <trkpt lat="44.84419" lon="0.79522">
        <ele>107.1</ele>
        <time>2026-05-01T16:35:54.000Z</time>
      </trkpt>
      <trkpt lat="44.84418" lon="0.7952">
        <ele>107</ele>
        <time>2026-05-01T16:35:55.000Z</time>
      </trkpt>
      <trkpt lat="44.84417" lon="0.79518">
        <ele>106.8</ele>
        <time>2026-05-01T16:35:56.000Z</time>
      </trkpt>
      <trkpt lat="44.84416" lon="0.79516">
        <ele>106.8</ele>
        <time>2026-05-01T16:35:57.000Z</time>
      </trkpt>
      <trkpt lat="44.84414" lon="0.79514">
        <ele>106.7</ele>
        <time>2026-05-01T16:35:58.000Z</time>
      </trkpt>
      <trkpt lat="44.84413" lon="0.79512">
        <ele>106.7</ele>
        <time>2026-05-01T16:35:59.000Z</time>
      </trkpt>
      <trkpt lat="44.84412" lon="0.7951">
        <ele>106.7</ele>
        <time>2026-05-01T16:36:00.000Z</time>
      </trkpt>
      <trkpt lat="44.84411" lon="0.79508">
        <ele>106.7</ele>
        <time>2026-05-01T16:36:01.000Z</time>
      </trkpt>
      <trkpt lat="44.8441" lon="0.79506">
        <ele>106.6</ele>
        <time>2026-05-01T16:36:02.000Z</time>
      </trkpt>
      <trkpt lat="44.84409" lon="0.79504">
        <ele>106.4</ele>
        <time>2026-05-01T16:36:03.000Z</time>
      </trkpt>
      <trkpt lat="44.84408" lon="0.79502">
        <ele>106.3</ele>
        <time>2026-05-01T16:36:04.000Z</time>
      </trkpt>
      <trkpt lat="44.84407" lon="0.79499">
        <ele>106.3</ele>
        <time>2026-05-01T16:36:05.000Z</time>
      </trkpt>
      <trkpt lat="44.84406" lon="0.79497">
        <ele>106.2</ele>
        <time>2026-05-01T16:36:06.000Z</time>
      </trkpt>
      <trkpt lat="44.84405" lon="0.79495">
        <ele>106.1</ele>
        <time>2026-05-01T16:36:07.000Z</time>
      </trkpt>
      <trkpt lat="44.84404" lon="0.79493">
        <ele>105.8</ele>
        <time>2026-05-01T16:36:08.000Z</time>
      </trkpt>
      <trkpt lat="44.84403" lon="0.79491">
        <ele>106</ele>
        <time>2026-05-01T16:36:09.000Z</time>
      </trkpt>
      <trkpt lat="44.84402" lon="0.79489">
        <ele>105.9</ele>
        <time>2026-05-01T16:36:10.000Z</time>
      </trkpt>
      <trkpt lat="44.84401" lon="0.79487">
        <ele>105.9</ele>
        <time>2026-05-01T16:36:11.000Z</time>
      </trkpt>
      <trkpt lat="44.844" lon="0.79485">
        <ele>105.9</ele>
        <time>2026-05-01T16:36:12.000Z</time>
      </trkpt>
      <trkpt lat="44.84399" lon="0.79483">
        <ele>105.8</ele>
        <time>2026-05-01T16:36:13.000Z</time>
      </trkpt>
      <trkpt lat="44.84398" lon="0.79481">
        <ele>105.8</ele>
        <time>2026-05-01T16:36:14.000Z</time>
      </trkpt>
      <trkpt lat="44.84396" lon="0.79479">
        <ele>106</ele>
        <time>2026-05-01T16:36:15.000Z</time>
      </trkpt>
      <trkpt lat="44.84395" lon="0.79477">
        <ele>106.1</ele>
        <time>2026-05-01T16:36:16.000Z</time>
      </trkpt>
      <trkpt lat="44.84394" lon="0.79476">
        <ele>106.1</ele>
        <time>2026-05-01T16:36:17.000Z</time>
      </trkpt>
      <trkpt lat="44.84393" lon="0.79474">
        <ele>105.8</ele>
        <time>2026-05-01T16:36:18.000Z</time>
      </trkpt>
      <trkpt lat="44.84392" lon="0.79472">
        <ele>105.6</ele>
        <time>2026-05-01T16:36:19.000Z</time>
      </trkpt>
      <trkpt lat="44.84391" lon="0.7947">
        <ele>105.6</ele>
        <time>2026-05-01T16:36:20.000Z</time>
      </trkpt>
      <trkpt lat="44.8439" lon="0.79468">
        <ele>105.5</ele>
        <time>2026-05-01T16:36:21.000Z</time>
      </trkpt>
      <trkpt lat="44.84389" lon="0.79466">
        <ele>105.3</ele>
        <time>2026-05-01T16:36:22.000Z</time>
      </trkpt>
      <trkpt lat="44.84388" lon="0.79463">
        <ele>105.1</ele>
        <time>2026-05-01T16:36:23.000Z</time>
      </trkpt>
      <trkpt lat="44.84387" lon="0.79461">
        <ele>105.1</ele>
        <time>2026-05-01T16:36:24.000Z</time>
      </trkpt>
      <trkpt lat="44.84387" lon="0.79459">
        <ele>105.3</ele>
        <time>2026-05-01T16:36:25.000Z</time>
      </trkpt>
      <trkpt lat="44.84386" lon="0.79457">
        <ele>105.3</ele>
        <time>2026-05-01T16:36:26.000Z</time>
      </trkpt>
      <trkpt lat="44.84385" lon="0.79455">
        <ele>105.3</ele>
        <time>2026-05-01T16:36:27.000Z</time>
      </trkpt>
      <trkpt lat="44.84384" lon="0.79452">
        <ele>105.3</ele>
        <time>2026-05-01T16:36:28.000Z</time>
      </trkpt>
      <trkpt lat="44.84383" lon="0.7945">
        <ele>105.2</ele>
        <time>2026-05-01T16:36:29.000Z</time>
      </trkpt>
      <trkpt lat="44.84383" lon="0.79447">
        <ele>105.2</ele>
        <time>2026-05-01T16:36:30.000Z</time>
      </trkpt>
      <trkpt lat="44.84382" lon="0.79446">
        <ele>104.8</ele>
        <time>2026-05-01T16:36:31.000Z</time>
      </trkpt>
      <trkpt lat="44.84382" lon="0.79445">
        <ele>104.9</ele>
        <time>2026-05-01T16:36:32.000Z</time>
      </trkpt>
      <trkpt lat="44.84381" lon="0.79442">
        <ele>105.2</ele>
        <time>2026-05-01T16:36:33.000Z</time>
      </trkpt>
      <trkpt lat="44.8438" lon="0.7944">
        <ele>105.4</ele>
        <time>2026-05-01T16:36:34.000Z</time>
      </trkpt>
      <trkpt lat="44.84379" lon="0.79437">
        <ele>105.2</ele>
        <time>2026-05-01T16:36:35.000Z</time>
      </trkpt>
      <trkpt lat="44.84379" lon="0.79435">
        <ele>105.1</ele>
        <time>2026-05-01T16:36:36.000Z</time>
      </trkpt>
      <trkpt lat="44.84378" lon="0.79433">
        <ele>105</ele>
        <time>2026-05-01T16:36:37.000Z</time>
      </trkpt>
      <trkpt lat="44.84377" lon="0.7943">
        <ele>104.6</ele>
        <time>2026-05-01T16:36:38.000Z</time>
      </trkpt>
      <trkpt lat="44.84376" lon="0.79428">
        <ele>104.6</ele>
        <time>2026-05-01T16:36:39.000Z</time>
      </trkpt>
      <trkpt lat="44.84376" lon="0.79425">
        <ele>104.7</ele>
        <time>2026-05-01T16:36:40.000Z</time>
      </trkpt>
      <trkpt lat="44.84375" lon="0.79423">
        <ele>104.5</ele>
        <time>2026-05-01T16:36:41.000Z</time>
      </trkpt>
      <trkpt lat="44.84375" lon="0.79421">
        <ele>104.3</ele>
        <time>2026-05-01T16:36:42.000Z</time>
      </trkpt>
      <trkpt lat="44.84374" lon="0.79418">
        <ele>104</ele>
        <time>2026-05-01T16:36:43.000Z</time>
      </trkpt>
      <trkpt lat="44.84374" lon="0.79416">
        <ele>104</ele>
        <time>2026-05-01T16:36:44.000Z</time>
      </trkpt>
      <trkpt lat="44.84373" lon="0.79413">
        <ele>104.1</ele>
        <time>2026-05-01T16:36:45.000Z</time>
      </trkpt>
      <trkpt lat="44.84373" lon="0.79411">
        <ele>103.9</ele>
        <time>2026-05-01T16:36:46.000Z</time>
      </trkpt>
      <trkpt lat="44.84372" lon="0.79409">
        <ele>103.6</ele>
        <time>2026-05-01T16:36:47.000Z</time>
      </trkpt>
      <trkpt lat="44.84371" lon="0.79407">
        <ele>103.6</ele>
        <time>2026-05-01T16:36:48.000Z</time>
      </trkpt>
      <trkpt lat="44.84371" lon="0.79404">
        <ele>103.5</ele>
        <time>2026-05-01T16:36:49.000Z</time>
      </trkpt>
      <trkpt lat="44.8437" lon="0.79402">
        <ele>103.4</ele>
        <time>2026-05-01T16:36:50.000Z</time>
      </trkpt>
      <trkpt lat="44.84369" lon="0.794">
        <ele>103.4</ele>
        <time>2026-05-01T16:36:51.000Z</time>
      </trkpt>
      <trkpt lat="44.84369" lon="0.79397">
        <ele>103.2</ele>
        <time>2026-05-01T16:36:52.000Z</time>
      </trkpt>
      <trkpt lat="44.84368" lon="0.79395">
        <ele>103.2</ele>
        <time>2026-05-01T16:36:53.000Z</time>
      </trkpt>
      <trkpt lat="44.84367" lon="0.79392">
        <ele>103.1</ele>
        <time>2026-05-01T16:36:54.000Z</time>
      </trkpt>
      <trkpt lat="44.84367" lon="0.7939">
        <ele>103</ele>
        <time>2026-05-01T16:36:55.000Z</time>
      </trkpt>
      <trkpt lat="44.84366" lon="0.79388">
        <ele>103</ele>
        <time>2026-05-01T16:36:56.000Z</time>
      </trkpt>
      <trkpt lat="44.84365" lon="0.79386">
        <ele>103.1</ele>
        <time>2026-05-01T16:36:57.000Z</time>
      </trkpt>
      <trkpt lat="44.84365" lon="0.79383">
        <ele>103.1</ele>
        <time>2026-05-01T16:36:58.000Z</time>
      </trkpt>
      <trkpt lat="44.84364" lon="0.79381">
        <ele>103</ele>
        <time>2026-05-01T16:36:59.000Z</time>
      </trkpt>
      <trkpt lat="44.84364" lon="0.79378">
        <ele>102.8</ele>
        <time>2026-05-01T16:37:00.000Z</time>
      </trkpt>
      <trkpt lat="44.84363" lon="0.79376">
        <ele>102.8</ele>
        <time>2026-05-01T16:37:01.000Z</time>
      </trkpt>
      <trkpt lat="44.84362" lon="0.79374">
        <ele>102.6</ele>
        <time>2026-05-01T16:37:02.000Z</time>
      </trkpt>
      <trkpt lat="44.84362" lon="0.79371">
        <ele>102.4</ele>
        <time>2026-05-01T16:37:03.000Z</time>
      </trkpt>
      <trkpt lat="44.84361" lon="0.79369">
        <ele>102.5</ele>
        <time>2026-05-01T16:37:04.000Z</time>
      </trkpt>
      <trkpt lat="44.84361" lon="0.79367">
        <ele>101.8</ele>
        <time>2026-05-01T16:37:05.000Z</time>
      </trkpt>
      <trkpt lat="44.8436" lon="0.79364">
        <ele>101.5</ele>
        <time>2026-05-01T16:37:06.000Z</time>
      </trkpt>
      <trkpt lat="44.84359" lon="0.79362">
        <ele>101.3</ele>
        <time>2026-05-01T16:37:07.000Z</time>
      </trkpt>
      <trkpt lat="44.84358" lon="0.79359">
        <ele>101.2</ele>
        <time>2026-05-01T16:37:08.000Z</time>
      </trkpt>
      <trkpt lat="44.84357" lon="0.79357">
        <ele>100.9</ele>
        <time>2026-05-01T16:37:09.000Z</time>
      </trkpt>
      <trkpt lat="44.84356" lon="0.79355">
        <ele>100.7</ele>
        <time>2026-05-01T16:37:10.000Z</time>
      </trkpt>
      <trkpt lat="44.84356" lon="0.79352">
        <ele>100.7</ele>
        <time>2026-05-01T16:37:11.000Z</time>
      </trkpt>
      <trkpt lat="44.84355" lon="0.7935">
        <ele>100.7</ele>
        <time>2026-05-01T16:37:12.000Z</time>
      </trkpt>
      <trkpt lat="44.84354" lon="0.79348">
        <ele>100.5</ele>
        <time>2026-05-01T16:37:13.000Z</time>
      </trkpt>
      <trkpt lat="44.84353" lon="0.79346">
        <ele>100.3</ele>
        <time>2026-05-01T16:37:14.000Z</time>
      </trkpt>
      <trkpt lat="44.84353" lon="0.79345">
        <ele>100.4</ele>
        <time>2026-05-01T16:37:15.000Z</time>
      </trkpt>
      <trkpt lat="44.84353" lon="0.79345">
        <ele>100.4</ele>
        <time>2026-05-01T16:37:16.000Z</time>
      </trkpt>
      <trkpt lat="44.84353" lon="0.79345">
        <ele>100.4</ele>
        <time>2026-05-01T16:37:17.000Z</time>
      </trkpt>
      <trkpt lat="44.84353" lon="0.79345">
        <ele>100.4</ele>
        <time>2026-05-01T16:37:18.000Z</time>
      </trkpt>
      <trkpt lat="44.84353" lon="0.79345">
        <ele>100.4</ele>
        <time>2026-05-01T16:37:19.000Z</time>
      </trkpt>
      <trkpt lat="44.84353" lon="0.79345">
        <ele>100.4</ele>
        <time>2026-05-01T16:37:20.000Z</time>
      </trkpt>
      <trkpt lat="44.84352" lon="0.79344">
        <ele>100.3</ele>
        <time>2026-05-01T16:37:21.000Z</time>
      </trkpt>
      <trkpt lat="44.84351" lon="0.79342">
        <ele>100.4</ele>
        <time>2026-05-01T16:37:22.000Z</time>
      </trkpt>
      <trkpt lat="44.84351" lon="0.79339">
        <ele>100.2</ele>
        <time>2026-05-01T16:37:23.000Z</time>
      </trkpt>
      <trkpt lat="44.8435" lon="0.79337">
        <ele>100.2</ele>
        <time>2026-05-01T16:37:24.000Z</time>
      </trkpt>
      <trkpt lat="44.84349" lon="0.79336">
        <ele>100.1</ele>
        <time>2026-05-01T16:37:25.000Z</time>
      </trkpt>
      <trkpt lat="44.84348" lon="0.79334">
        <ele>100</ele>
        <time>2026-05-01T16:37:26.000Z</time>
      </trkpt>
      <trkpt lat="44.84347" lon="0.79332">
        <ele>99.8</ele>
        <time>2026-05-01T16:37:27.000Z</time>
      </trkpt>
      <trkpt lat="44.84346" lon="0.7933">
        <ele>99.5</ele>
        <time>2026-05-01T16:37:28.000Z</time>
      </trkpt>
      <trkpt lat="44.84346" lon="0.79328">
        <ele>99.2</ele>
        <time>2026-05-01T16:37:29.000Z</time>
      </trkpt>
      <trkpt lat="44.84345" lon="0.79326">
        <ele>98.3</ele>
        <time>2026-05-01T16:37:30.000Z</time>
      </trkpt>
      <trkpt lat="44.84344" lon="0.79324">
        <ele>97.8</ele>
        <time>2026-05-01T16:37:31.000Z</time>
      </trkpt>
      <trkpt lat="44.84343" lon="0.79322">
        <ele>97.4</ele>
        <time>2026-05-01T16:37:32.000Z</time>
      </trkpt>
      <trkpt lat="44.84342" lon="0.7932">
        <ele>97.1</ele>
        <time>2026-05-01T16:37:33.000Z</time>
      </trkpt>
      <trkpt lat="44.84342" lon="0.79317">
        <ele>97.3</ele>
        <time>2026-05-01T16:37:34.000Z</time>
      </trkpt>
      <trkpt lat="44.84341" lon="0.79315">
        <ele>97.3</ele>
        <time>2026-05-01T16:37:35.000Z</time>
      </trkpt>
      <trkpt lat="44.84341" lon="0.79313">
        <ele>97</ele>
        <time>2026-05-01T16:37:36.000Z</time>
      </trkpt>
      <trkpt lat="44.8434" lon="0.7931">
        <ele>97</ele>
        <time>2026-05-01T16:37:37.000Z</time>
      </trkpt>
      <trkpt lat="44.8434" lon="0.79308">
        <ele>97.3</ele>
        <time>2026-05-01T16:37:38.000Z</time>
      </trkpt>
      <trkpt lat="44.84339" lon="0.79305">
        <ele>97.1</ele>
        <time>2026-05-01T16:37:39.000Z</time>
      </trkpt>
      <trkpt lat="44.84339" lon="0.79303">
        <ele>96.8</ele>
        <time>2026-05-01T16:37:40.000Z</time>
      </trkpt>
      <trkpt lat="44.84338" lon="0.79301">
        <ele>96.6</ele>
        <time>2026-05-01T16:37:41.000Z</time>
      </trkpt>
      <trkpt lat="44.84338" lon="0.79298">
        <ele>96.3</ele>
        <time>2026-05-01T16:37:42.000Z</time>
      </trkpt>
      <trkpt lat="44.84337" lon="0.79296">
        <ele>96</ele>
        <time>2026-05-01T16:37:43.000Z</time>
      </trkpt>
      <trkpt lat="44.84337" lon="0.79294">
        <ele>96.5</ele>
        <time>2026-05-01T16:37:44.000Z</time>
      </trkpt>
      <trkpt lat="44.84336" lon="0.79291">
        <ele>96.4</ele>
        <time>2026-05-01T16:37:45.000Z</time>
      </trkpt>
      <trkpt lat="44.84336" lon="0.79289">
        <ele>96.7</ele>
        <time>2026-05-01T16:37:46.000Z</time>
      </trkpt>
      <trkpt lat="44.84336" lon="0.79286">
        <ele>96.9</ele>
        <time>2026-05-01T16:37:47.000Z</time>
      </trkpt>
      <trkpt lat="44.84336" lon="0.79284">
        <ele>96.7</ele>
        <time>2026-05-01T16:37:48.000Z</time>
      </trkpt>
      <trkpt lat="44.84337" lon="0.79281">
        <ele>96.6</ele>
        <time>2026-05-01T16:37:49.000Z</time>
      </trkpt>
      <trkpt lat="44.84337" lon="0.79278">
        <ele>96.1</ele>
        <time>2026-05-01T16:37:50.000Z</time>
      </trkpt>
      <trkpt lat="44.84337" lon="0.79276">
        <ele>96.1</ele>
        <time>2026-05-01T16:37:51.000Z</time>
      </trkpt>
      <trkpt lat="44.84338" lon="0.79273">
        <ele>96.3</ele>
        <time>2026-05-01T16:37:52.000Z</time>
      </trkpt>
      <trkpt lat="44.84338" lon="0.79271">
        <ele>96.7</ele>
        <time>2026-05-01T16:37:53.000Z</time>
      </trkpt>
      <trkpt lat="44.84338" lon="0.79269">
        <ele>97.2</ele>
        <time>2026-05-01T16:37:54.000Z</time>
      </trkpt>
      <trkpt lat="44.84338" lon="0.79266">
        <ele>97.2</ele>
        <time>2026-05-01T16:37:55.000Z</time>
      </trkpt>
      <trkpt lat="44.84338" lon="0.79264">
        <ele>97.5</ele>
        <time>2026-05-01T16:37:56.000Z</time>
      </trkpt>
      <trkpt lat="44.84339" lon="0.79261">
        <ele>97.3</ele>
        <time>2026-05-01T16:37:57.000Z</time>
      </trkpt>
      <trkpt lat="44.84339" lon="0.79259">
        <ele>97.1</ele>
        <time>2026-05-01T16:37:58.000Z</time>
      </trkpt>
      <trkpt lat="44.84339" lon="0.79256">
        <ele>97.4</ele>
        <time>2026-05-01T16:37:59.000Z</time>
      </trkpt>
      <trkpt lat="44.84339" lon="0.79254">
        <ele>97.2</ele>
        <time>2026-05-01T16:38:00.000Z</time>
      </trkpt>
      <trkpt lat="44.84339" lon="0.79251">
        <ele>97.1</ele>
        <time>2026-05-01T16:38:01.000Z</time>
      </trkpt>
      <trkpt lat="44.84339" lon="0.79248">
        <ele>97.3</ele>
        <time>2026-05-01T16:38:02.000Z</time>
      </trkpt>
      <trkpt lat="44.84339" lon="0.79246">
        <ele>97.6</ele>
        <time>2026-05-01T16:38:03.000Z</time>
      </trkpt>
      <trkpt lat="44.84339" lon="0.79243">
        <ele>97.7</ele>
        <time>2026-05-01T16:38:04.000Z</time>
      </trkpt>
      <trkpt lat="44.84339" lon="0.79241">
        <ele>97.7</ele>
        <time>2026-05-01T16:38:05.000Z</time>
      </trkpt>
      <trkpt lat="44.8434" lon="0.79238">
        <ele>97.8</ele>
        <time>2026-05-01T16:38:06.000Z</time>
      </trkpt>
      <trkpt lat="44.8434" lon="0.79236">
        <ele>98</ele>
        <time>2026-05-01T16:38:07.000Z</time>
      </trkpt>
      <trkpt lat="44.8434" lon="0.79233">
        <ele>97.8</ele>
        <time>2026-05-01T16:38:08.000Z</time>
      </trkpt>
      <trkpt lat="44.8434" lon="0.79231">
        <ele>97.8</ele>
        <time>2026-05-01T16:38:09.000Z</time>
      </trkpt>
      <trkpt lat="44.8434" lon="0.79229">
        <ele>98.2</ele>
        <time>2026-05-01T16:38:10.000Z</time>
      </trkpt>
      <trkpt lat="44.84341" lon="0.79226">
        <ele>98.4</ele>
        <time>2026-05-01T16:38:11.000Z</time>
      </trkpt>
      <trkpt lat="44.84341" lon="0.79224">
        <ele>98.7</ele>
        <time>2026-05-01T16:38:12.000Z</time>
      </trkpt>
      <trkpt lat="44.84341" lon="0.79221">
        <ele>98.5</ele>
        <time>2026-05-01T16:38:13.000Z</time>
      </trkpt>
      <trkpt lat="44.84341" lon="0.79219">
        <ele>98.4</ele>
        <time>2026-05-01T16:38:14.000Z</time>
      </trkpt>
      <trkpt lat="44.84341" lon="0.79217">
        <ele>98.3</ele>
        <time>2026-05-01T16:38:15.000Z</time>
      </trkpt>
      <trkpt lat="44.84341" lon="0.79214">
        <ele>98.2</ele>
        <time>2026-05-01T16:38:16.000Z</time>
      </trkpt>
      <trkpt lat="44.84341" lon="0.79212">
        <ele>98.3</ele>
        <time>2026-05-01T16:38:17.000Z</time>
      </trkpt>
      <trkpt lat="44.84341" lon="0.79211">
        <ele>98.4</ele>
        <time>2026-05-01T16:38:18.000Z</time>
      </trkpt>
      <trkpt lat="44.84341" lon="0.79208">
        <ele>98.6</ele>
        <time>2026-05-01T16:38:19.000Z</time>
      </trkpt>
      <trkpt lat="44.84342" lon="0.79207">
        <ele>98.7</ele>
        <time>2026-05-01T16:38:20.000Z</time>
      </trkpt>
      <trkpt lat="44.84342" lon="0.79205">
        <ele>98.6</ele>
        <time>2026-05-01T16:38:21.000Z</time>
      </trkpt>
      <trkpt lat="44.84342" lon="0.79205">
        <ele>98.6</ele>
        <time>2026-05-01T16:38:22.000Z</time>
      </trkpt>
      <trkpt lat="44.84342" lon="0.79205">
        <ele>98.6</ele>
        <time>2026-05-01T16:38:23.000Z</time>
      </trkpt>
      <trkpt lat="44.84342" lon="0.79205">
        <ele>98.6</ele>
        <time>2026-05-01T16:38:24.000Z</time>
      </trkpt>
      <trkpt lat="44.84342" lon="0.79205">
        <ele>98.6</ele>
        <time>2026-05-01T16:38:25.000Z</time>
      </trkpt>
      <trkpt lat="44.84342" lon="0.79205">
        <ele>98.6</ele>
        <time>2026-05-01T16:38:26.000Z</time>
      </trkpt>
      <trkpt lat="44.84341" lon="0.79205">
        <ele>99</ele>
        <time>2026-05-01T16:38:27.000Z</time>
      </trkpt>
      <trkpt lat="44.84341" lon="0.79205">
        <ele>99</ele>
        <time>2026-05-01T16:38:28.000Z</time>
      </trkpt>
      <trkpt lat="44.84341" lon="0.79204">
        <ele>98.8</ele>
        <time>2026-05-01T16:38:29.000Z</time>
      </trkpt>
      <trkpt lat="44.8434" lon="0.79202">
        <ele>98.4</ele>
        <time>2026-05-01T16:38:30.000Z</time>
      </trkpt>
      <trkpt lat="44.84339" lon="0.792">
        <ele>98.8</ele>
        <time>2026-05-01T16:38:31.000Z</time>
      </trkpt>
      <trkpt lat="44.84339" lon="0.79199">
        <ele>99.9</ele>
        <time>2026-05-01T16:38:32.000Z</time>
      </trkpt>
      <trkpt lat="44.84338" lon="0.79197">
        <ele>101.3</ele>
        <time>2026-05-01T16:38:33.000Z</time>
      </trkpt>
      <trkpt lat="44.84338" lon="0.79196">
        <ele>101.7</ele>
        <time>2026-05-01T16:38:34.000Z</time>
      </trkpt>
      <trkpt lat="44.84338" lon="0.79194">
        <ele>101.5</ele>
        <time>2026-05-01T16:38:35.000Z</time>
      </trkpt>
      <trkpt lat="44.84338" lon="0.79194">
        <ele>101.5</ele>
        <time>2026-05-01T16:38:36.000Z</time>
      </trkpt>
      <trkpt lat="44.84338" lon="0.79194">
        <ele>101.5</ele>
        <time>2026-05-01T16:38:37.000Z</time>
      </trkpt>
      <trkpt lat="44.84338" lon="0.79194">
        <ele>101.3</ele>
        <time>2026-05-01T16:38:38.000Z</time>
      </trkpt>
      <trkpt lat="44.84339" lon="0.79194">
        <ele>101.2</ele>
        <time>2026-05-01T16:38:39.000Z</time>
      </trkpt>
      <trkpt lat="44.84339" lon="0.79194">
        <ele>101.5</ele>
        <time>2026-05-01T16:38:40.000Z</time>
      </trkpt>
      <trkpt lat="44.84339" lon="0.79194">
        <ele>101.7</ele>
        <time>2026-05-01T16:38:41.000Z</time>
      </trkpt>
      <trkpt lat="44.84339" lon="0.79195">
        <ele>101.7</ele>
        <time>2026-05-01T16:38:42.000Z</time>
      </trkpt>
      <trkpt lat="44.84339" lon="0.79195">
        <ele>101.7</ele>
        <time>2026-05-01T16:38:43.000Z</time>
      </trkpt>
      <trkpt lat="44.84339" lon="0.79195">
        <ele>101.7</ele>
        <time>2026-05-01T16:38:44.000Z</time>
      </trkpt>
      <trkpt lat="44.84339" lon="0.79195">
        <ele>101.2</ele>
        <time>2026-05-01T16:38:45.000Z</time>
      </trkpt>
      <trkpt lat="44.8434" lon="0.79194">
        <ele>101.1</ele>
        <time>2026-05-01T16:38:46.000Z</time>
      </trkpt>
      <trkpt lat="44.84342" lon="0.79193">
        <ele>101.4</ele>
        <time>2026-05-01T16:38:47.000Z</time>
      </trkpt>
      <trkpt lat="44.84342" lon="0.79192">
        <ele>101.3</ele>
        <time>2026-05-01T16:38:48.000Z</time>
      </trkpt>
      <trkpt lat="44.84343" lon="0.7919">
        <ele>101.4</ele>
        <time>2026-05-01T16:38:49.000Z</time>
      </trkpt>
      <trkpt lat="44.84344" lon="0.79189">
        <ele>101.3</ele>
        <time>2026-05-01T16:38:50.000Z</time>
      </trkpt>
      <trkpt lat="44.84345" lon="0.79187">
        <ele>101.2</ele>
        <time>2026-05-01T16:38:51.000Z</time>
      </trkpt>
      <trkpt lat="44.84345" lon="0.79185">
        <ele>101</ele>
        <time>2026-05-01T16:38:52.000Z</time>
      </trkpt>
      <trkpt lat="44.84347" lon="0.79183">
        <ele>100.8</ele>
        <time>2026-05-01T16:38:53.000Z</time>
      </trkpt>
      <trkpt lat="44.84347" lon="0.79181">
        <ele>100.4</ele>
        <time>2026-05-01T16:38:54.000Z</time>
      </trkpt>
      <trkpt lat="44.84349" lon="0.79179">
        <ele>100.4</ele>
        <time>2026-05-01T16:38:55.000Z</time>
      </trkpt>
      <trkpt lat="44.8435" lon="0.79177">
        <ele>100.3</ele>
        <time>2026-05-01T16:38:56.000Z</time>
      </trkpt>
      <trkpt lat="44.84351" lon="0.79175">
        <ele>100.3</ele>
        <time>2026-05-01T16:38:57.000Z</time>
      </trkpt>
      <trkpt lat="44.84352" lon="0.79173">
        <ele>100.3</ele>
        <time>2026-05-01T16:38:58.000Z</time>
      </trkpt>
      <trkpt lat="44.84353" lon="0.79171">
        <ele>100.1</ele>
        <time>2026-05-01T16:38:59.000Z</time>
      </trkpt>
      <trkpt lat="44.84354" lon="0.79169">
        <ele>99.9</ele>
        <time>2026-05-01T16:39:00.000Z</time>
      </trkpt>
      <trkpt lat="44.84355" lon="0.79167">
        <ele>100.1</ele>
        <time>2026-05-01T16:39:01.000Z</time>
      </trkpt>
      <trkpt lat="44.84356" lon="0.79165">
        <ele>100.2</ele>
        <time>2026-05-01T16:39:02.000Z</time>
      </trkpt>
      <trkpt lat="44.84356" lon="0.79163">
        <ele>99.6</ele>
        <time>2026-05-01T16:39:03.000Z</time>
      </trkpt>
      <trkpt lat="44.84357" lon="0.79161">
        <ele>99.5</ele>
        <time>2026-05-01T16:39:04.000Z</time>
      </trkpt>
      <trkpt lat="44.84358" lon="0.79159">
        <ele>99.4</ele>
        <time>2026-05-01T16:39:05.000Z</time>
      </trkpt>
      <trkpt lat="44.84358" lon="0.79157">
        <ele>99.1</ele>
        <time>2026-05-01T16:39:06.000Z</time>
      </trkpt>
      <trkpt lat="44.84359" lon="0.79155">
        <ele>98.8</ele>
        <time>2026-05-01T16:39:07.000Z</time>
      </trkpt>
      <trkpt lat="44.8436" lon="0.79153">
        <ele>98.6</ele>
        <time>2026-05-01T16:39:08.000Z</time>
      </trkpt>
      <trkpt lat="44.8436" lon="0.79152">
        <ele>98.4</ele>
        <time>2026-05-01T16:39:09.000Z</time>
      </trkpt>
      <trkpt lat="44.8436" lon="0.79152">
        <ele>98.2</ele>
        <time>2026-05-01T16:39:10.000Z</time>
      </trkpt>
      <trkpt lat="44.8436" lon="0.79152">
        <ele>98.1</ele>
        <time>2026-05-01T16:39:11.000Z</time>
      </trkpt>
      <trkpt lat="44.84357" lon="0.79149">
        <ele>97.9</ele>
        <time>2026-05-01T16:39:12.000Z</time>
      </trkpt>
      <trkpt lat="44.84356" lon="0.79148">
        <ele>98</ele>
        <time>2026-05-01T16:39:13.000Z</time>
      </trkpt>
      <trkpt lat="44.84357" lon="0.79148">
        <ele>97.9</ele>
        <time>2026-05-01T16:39:14.000Z</time>
      </trkpt>
      <trkpt lat="44.84357" lon="0.79148">
        <ele>97.9</ele>
        <time>2026-05-01T16:39:15.000Z</time>
      </trkpt>
      <trkpt lat="44.84357" lon="0.79148">
        <ele>97.9</ele>
        <time>2026-05-01T16:39:16.000Z</time>
      </trkpt>
      <trkpt lat="44.84357" lon="0.79148">
        <ele>97.9</ele>
        <time>2026-05-01T16:39:17.000Z</time>
      </trkpt>
      <trkpt lat="44.84357" lon="0.79148">
        <ele>97.9</ele>
        <time>2026-05-01T16:39:18.000Z</time>
      </trkpt>
      <trkpt lat="44.84357" lon="0.79148">
        <ele>97.9</ele>
        <time>2026-05-01T16:39:19.000Z</time>
      </trkpt>
      <trkpt lat="44.84357" lon="0.79148">
        <ele>97.9</ele>
        <time>2026-05-01T16:39:20.000Z</time>
      </trkpt>
      <trkpt lat="44.84357" lon="0.79148">
        <ele>97.9</ele>
        <time>2026-05-01T16:39:21.000Z</time>
      </trkpt>
      <trkpt lat="44.84357" lon="0.79148">
        <ele>97.9</ele>
        <time>2026-05-01T16:39:22.000Z</time>
      </trkpt>
      <trkpt lat="44.84357" lon="0.79148">
        <ele>97.7</ele>
        <time>2026-05-01T16:39:23.000Z</time>
      </trkpt>
      <trkpt lat="44.84357" lon="0.79148">
        <ele>97.7</ele>
        <time>2026-05-01T16:39:24.000Z</time>
      </trkpt>
      <trkpt lat="44.84357" lon="0.79148">
        <ele>98</ele>
        <time>2026-05-01T16:39:25.000Z</time>
      </trkpt>
      <trkpt lat="44.84358" lon="0.79147">
        <ele>97.9</ele>
        <time>2026-05-01T16:39:26.000Z</time>
      </trkpt>
      <trkpt lat="44.8436" lon="0.79147">
        <ele>97.7</ele>
        <time>2026-05-01T16:39:27.000Z</time>
      </trkpt>
      <trkpt lat="44.84361" lon="0.79147">
        <ele>97.5</ele>
        <time>2026-05-01T16:39:28.000Z</time>
      </trkpt>
      <trkpt lat="44.84363" lon="0.79147">
        <ele>97.6</ele>
        <time>2026-05-01T16:39:29.000Z</time>
      </trkpt>
      <trkpt lat="44.84365" lon="0.79147">
        <ele>97.8</ele>
        <time>2026-05-01T16:39:30.000Z</time>
      </trkpt>
      <trkpt lat="44.84367" lon="0.79148">
        <ele>97.9</ele>
        <time>2026-05-01T16:39:31.000Z</time>
      </trkpt>
      <trkpt lat="44.84369" lon="0.79149">
        <ele>97.9</ele>
        <time>2026-05-01T16:39:32.000Z</time>
      </trkpt>
      <trkpt lat="44.8437" lon="0.7915">
        <ele>98</ele>
        <time>2026-05-01T16:39:33.000Z</time>
      </trkpt>
      <trkpt lat="44.84372" lon="0.79151">
        <ele>98</ele>
        <time>2026-05-01T16:39:34.000Z</time>
      </trkpt>
      <trkpt lat="44.84374" lon="0.79152">
        <ele>98.2</ele>
        <time>2026-05-01T16:39:35.000Z</time>
      </trkpt>
      <trkpt lat="44.84375" lon="0.79154">
        <ele>98.3</ele>
        <time>2026-05-01T16:39:36.000Z</time>
      </trkpt>
      <trkpt lat="44.84377" lon="0.79155">
        <ele>98.3</ele>
        <time>2026-05-01T16:39:37.000Z</time>
      </trkpt>
      <trkpt lat="44.84379" lon="0.79156">
        <ele>98.7</ele>
        <time>2026-05-01T16:39:38.000Z</time>
      </trkpt>
      <trkpt lat="44.8438" lon="0.79158">
        <ele>98.8</ele>
        <time>2026-05-01T16:39:39.000Z</time>
      </trkpt>
      <trkpt lat="44.84382" lon="0.79159">
        <ele>98.8</ele>
        <time>2026-05-01T16:39:40.000Z</time>
      </trkpt>
      <trkpt lat="44.84384" lon="0.79161">
        <ele>98.7</ele>
        <time>2026-05-01T16:39:41.000Z</time>
      </trkpt>
      <trkpt lat="44.84385" lon="0.79162">
        <ele>98.8</ele>
        <time>2026-05-01T16:39:42.000Z</time>
      </trkpt>
      <trkpt lat="44.84387" lon="0.79164">
        <ele>98.9</ele>
        <time>2026-05-01T16:39:43.000Z</time>
      </trkpt>
      <trkpt lat="44.84388" lon="0.79165">
        <ele>98.4</ele>
        <time>2026-05-01T16:39:44.000Z</time>
      </trkpt>
      <trkpt lat="44.8439" lon="0.79167">
        <ele>98.1</ele>
        <time>2026-05-01T16:39:45.000Z</time>
      </trkpt>
      <trkpt lat="44.84391" lon="0.79168">
        <ele>98.2</ele>
        <time>2026-05-01T16:39:46.000Z</time>
      </trkpt>
      <trkpt lat="44.84393" lon="0.79169">
        <ele>98</ele>
        <time>2026-05-01T16:39:47.000Z</time>
      </trkpt>
      <trkpt lat="44.84394" lon="0.7917">
        <ele>98.3</ele>
        <time>2026-05-01T16:39:48.000Z</time>
      </trkpt>
      <trkpt lat="44.84396" lon="0.79172">
        <ele>97.6</ele>
        <time>2026-05-01T16:39:49.000Z</time>
      </trkpt>
      <trkpt lat="44.84397" lon="0.79173">
        <ele>97.1</ele>
        <time>2026-05-01T16:39:50.000Z</time>
      </trkpt>
      <trkpt lat="44.84399" lon="0.79174">
        <ele>97.1</ele>
        <time>2026-05-01T16:39:51.000Z</time>
      </trkpt>
      <trkpt lat="44.844" lon="0.79175">
        <ele>97.2</ele>
        <time>2026-05-01T16:39:52.000Z</time>
      </trkpt>
      <trkpt lat="44.84402" lon="0.79176">
        <ele>97.7</ele>
        <time>2026-05-01T16:39:53.000Z</time>
      </trkpt>
      <trkpt lat="44.84403" lon="0.79178">
        <ele>97.8</ele>
        <time>2026-05-01T16:39:54.000Z</time>
      </trkpt>
      <trkpt lat="44.84405" lon="0.79179">
        <ele>98</ele>
        <time>2026-05-01T16:39:55.000Z</time>
      </trkpt>
      <trkpt lat="44.84407" lon="0.7918">
        <ele>98.1</ele>
        <time>2026-05-01T16:39:56.000Z</time>
      </trkpt>
      <trkpt lat="44.84408" lon="0.79181">
        <ele>98.3</ele>
        <time>2026-05-01T16:39:57.000Z</time>
      </trkpt>
      <trkpt lat="44.8441" lon="0.79183">
        <ele>98.2</ele>
        <time>2026-05-01T16:39:58.000Z</time>
      </trkpt>
      <trkpt lat="44.84412" lon="0.79184">
        <ele>98.4</ele>
        <time>2026-05-01T16:39:59.000Z</time>
      </trkpt>
      <trkpt lat="44.84413" lon="0.79186">
        <ele>98.2</ele>
        <time>2026-05-01T16:40:00.000Z</time>
      </trkpt>
      <trkpt lat="44.84415" lon="0.79188">
        <ele>97.8</ele>
        <time>2026-05-01T16:40:01.000Z</time>
      </trkpt>
      <trkpt lat="44.84416" lon="0.7919">
        <ele>97.1</ele>
        <time>2026-05-01T16:40:02.000Z</time>
      </trkpt>
      <trkpt lat="44.84417" lon="0.79192">
        <ele>97.2</ele>
        <time>2026-05-01T16:40:03.000Z</time>
      </trkpt>
      <trkpt lat="44.84418" lon="0.79194">
        <ele>97.4</ele>
        <time>2026-05-01T16:40:04.000Z</time>
      </trkpt>
      <trkpt lat="44.8442" lon="0.79195">
        <ele>97.4</ele>
        <time>2026-05-01T16:40:05.000Z</time>
      </trkpt>
      <trkpt lat="44.84421" lon="0.79196">
        <ele>97.5</ele>
        <time>2026-05-01T16:40:06.000Z</time>
      </trkpt>
      <trkpt lat="44.84423" lon="0.79198">
        <ele>97.8</ele>
        <time>2026-05-01T16:40:07.000Z</time>
      </trkpt>
      <trkpt lat="44.84424" lon="0.79199">
        <ele>98</ele>
        <time>2026-05-01T16:40:08.000Z</time>
      </trkpt>
      <trkpt lat="44.84426" lon="0.79201">
        <ele>98.1</ele>
        <time>2026-05-01T16:40:09.000Z</time>
      </trkpt>
      <trkpt lat="44.84427" lon="0.79202">
        <ele>98.2</ele>
        <time>2026-05-01T16:40:10.000Z</time>
      </trkpt>
      <trkpt lat="44.84428" lon="0.79204">
        <ele>97.7</ele>
        <time>2026-05-01T16:40:11.000Z</time>
      </trkpt>
      <trkpt lat="44.8443" lon="0.79205">
        <ele>97.4</ele>
        <time>2026-05-01T16:40:12.000Z</time>
      </trkpt>
      <trkpt lat="44.84431" lon="0.79207">
        <ele>97.4</ele>
        <time>2026-05-01T16:40:13.000Z</time>
      </trkpt>
      <trkpt lat="44.84433" lon="0.79209">
        <ele>97.6</ele>
        <time>2026-05-01T16:40:14.000Z</time>
      </trkpt>
      <trkpt lat="44.84434" lon="0.7921">
        <ele>97.3</ele>
        <time>2026-05-01T16:40:15.000Z</time>
      </trkpt>
      <trkpt lat="44.84435" lon="0.79212">
        <ele>97</ele>
        <time>2026-05-01T16:40:16.000Z</time>
      </trkpt>
      <trkpt lat="44.84437" lon="0.79214">
        <ele>97</ele>
        <time>2026-05-01T16:40:17.000Z</time>
      </trkpt>
      <trkpt lat="44.84438" lon="0.79215">
        <ele>96.8</ele>
        <time>2026-05-01T16:40:18.000Z</time>
      </trkpt>
      <trkpt lat="44.84439" lon="0.79217">
        <ele>96.5</ele>
        <time>2026-05-01T16:40:19.000Z</time>
      </trkpt>
      <trkpt lat="44.8444" lon="0.79218">
        <ele>96.4</ele>
        <time>2026-05-01T16:40:20.000Z</time>
      </trkpt>
      <trkpt lat="44.84441" lon="0.7922">
        <ele>96.2</ele>
        <time>2026-05-01T16:40:21.000Z</time>
      </trkpt>
      <trkpt lat="44.84443" lon="0.79221">
        <ele>95.9</ele>
        <time>2026-05-01T16:40:22.000Z</time>
      </trkpt>
      <trkpt lat="44.84444" lon="0.79221">
        <ele>95.9</ele>
        <time>2026-05-01T16:40:23.000Z</time>
      </trkpt>
      <trkpt lat="44.84446" lon="0.79221">
        <ele>95.8</ele>
        <time>2026-05-01T16:40:24.000Z</time>
      </trkpt>
      <trkpt lat="44.84447" lon="0.7922">
        <ele>95.7</ele>
        <time>2026-05-01T16:40:25.000Z</time>
      </trkpt>
      <trkpt lat="44.84448" lon="0.79218">
        <ele>95.4</ele>
        <time>2026-05-01T16:40:26.000Z</time>
      </trkpt>
      <trkpt lat="44.84448" lon="0.79216">
        <ele>95</ele>
        <time>2026-05-01T16:40:27.000Z</time>
      </trkpt>
      <trkpt lat="44.84448" lon="0.79214">
        <ele>94.7</ele>
        <time>2026-05-01T16:40:28.000Z</time>
      </trkpt>
      <trkpt lat="44.84447" lon="0.79212">
        <ele>94.1</ele>
        <time>2026-05-01T16:40:29.000Z</time>
      </trkpt>
      <trkpt lat="44.84446" lon="0.7921">
        <ele>93.7</ele>
        <time>2026-05-01T16:40:30.000Z</time>
      </trkpt>
      <trkpt lat="44.84444" lon="0.79209">
        <ele>93.6</ele>
        <time>2026-05-01T16:40:31.000Z</time>
      </trkpt>
      <trkpt lat="44.84443" lon="0.79208">
        <ele>93.4</ele>
        <time>2026-05-01T16:40:32.000Z</time>
      </trkpt>
      <trkpt lat="44.84442" lon="0.79206">
        <ele>93.6</ele>
        <time>2026-05-01T16:40:33.000Z</time>
      </trkpt>
      <trkpt lat="44.84441" lon="0.79204">
        <ele>93.3</ele>
        <time>2026-05-01T16:40:34.000Z</time>
      </trkpt>
      <trkpt lat="44.8444" lon="0.79202">
        <ele>93.1</ele>
        <time>2026-05-01T16:40:35.000Z</time>
      </trkpt>
      <trkpt lat="44.84439" lon="0.79201">
        <ele>92.9</ele>
        <time>2026-05-01T16:40:36.000Z</time>
      </trkpt>
      <trkpt lat="44.84438" lon="0.79199">
        <ele>92.6</ele>
        <time>2026-05-01T16:40:37.000Z</time>
      </trkpt>
      <trkpt lat="44.84436" lon="0.79197">
        <ele>92.5</ele>
        <time>2026-05-01T16:40:38.000Z</time>
      </trkpt>
      <trkpt lat="44.84435" lon="0.79195">
        <ele>92.4</ele>
        <time>2026-05-01T16:40:39.000Z</time>
      </trkpt>
      <trkpt lat="44.84434" lon="0.79193">
        <ele>92.2</ele>
        <time>2026-05-01T16:40:40.000Z</time>
      </trkpt>
      <trkpt lat="44.84433" lon="0.79191">
        <ele>92</ele>
        <time>2026-05-01T16:40:41.000Z</time>
      </trkpt>
      <trkpt lat="44.84432" lon="0.79189">
        <ele>92</ele>
        <time>2026-05-01T16:40:42.000Z</time>
      </trkpt>
      <trkpt lat="44.8443" lon="0.79187">
        <ele>91.9</ele>
        <time>2026-05-01T16:40:43.000Z</time>
      </trkpt>
      <trkpt lat="44.84429" lon="0.79185">
        <ele>92.3</ele>
        <time>2026-05-01T16:40:44.000Z</time>
      </trkpt>
      <trkpt lat="44.84428" lon="0.79183">
        <ele>92.4</ele>
        <time>2026-05-01T16:40:45.000Z</time>
      </trkpt>
      <trkpt lat="44.84427" lon="0.79181">
        <ele>92.2</ele>
        <time>2026-05-01T16:40:46.000Z</time>
      </trkpt>
      <trkpt lat="44.84426" lon="0.79179">
        <ele>92.2</ele>
        <time>2026-05-01T16:40:47.000Z</time>
      </trkpt>
      <trkpt lat="44.84425" lon="0.79176">
        <ele>92.1</ele>
        <time>2026-05-01T16:40:48.000Z</time>
      </trkpt>
      <trkpt lat="44.84424" lon="0.79174">
        <ele>91.9</ele>
        <time>2026-05-01T16:40:49.000Z</time>
      </trkpt>
      <trkpt lat="44.84423" lon="0.79172">
        <ele>91.7</ele>
        <time>2026-05-01T16:40:50.000Z</time>
      </trkpt>
      <trkpt lat="44.84422" lon="0.7917">
        <ele>91.6</ele>
        <time>2026-05-01T16:40:51.000Z</time>
      </trkpt>
      <trkpt lat="44.84421" lon="0.79168">
        <ele>90.8</ele>
        <time>2026-05-01T16:40:52.000Z</time>
      </trkpt>
      <trkpt lat="44.8442" lon="0.79167">
        <ele>91</ele>
        <time>2026-05-01T16:40:53.000Z</time>
      </trkpt>
      <trkpt lat="44.8442" lon="0.79166">
        <ele>89.7</ele>
        <time>2026-05-01T16:40:54.000Z</time>
      </trkpt>
      <trkpt lat="44.84419" lon="0.79165">
        <ele>89.7</ele>
        <time>2026-05-01T16:40:55.000Z</time>
      </trkpt>
      <trkpt lat="44.84419" lon="0.79163">
        <ele>89.5</ele>
        <time>2026-05-01T16:40:56.000Z</time>
      </trkpt>
      <trkpt lat="44.84418" lon="0.79162">
        <ele>88.1</ele>
        <time>2026-05-01T16:40:57.000Z</time>
      </trkpt>
      <trkpt lat="44.84417" lon="0.7916">
        <ele>87.9</ele>
        <time>2026-05-01T16:40:58.000Z</time>
      </trkpt>
      <trkpt lat="44.84415" lon="0.79158">
        <ele>88.1</ele>
        <time>2026-05-01T16:40:59.000Z</time>
      </trkpt>
      <trkpt lat="44.84414" lon="0.79156">
        <ele>88.3</ele>
        <time>2026-05-01T16:41:00.000Z</time>
      </trkpt>
      <trkpt lat="44.84412" lon="0.79154">
        <ele>88.7</ele>
        <time>2026-05-01T16:41:01.000Z</time>
      </trkpt>
      <trkpt lat="44.84411" lon="0.79152">
        <ele>88.5</ele>
        <time>2026-05-01T16:41:02.000Z</time>
      </trkpt>
      <trkpt lat="44.84409" lon="0.7915">
        <ele>88.4</ele>
        <time>2026-05-01T16:41:03.000Z</time>
      </trkpt>
      <trkpt lat="44.84408" lon="0.79148">
        <ele>88.3</ele>
        <time>2026-05-01T16:41:04.000Z</time>
      </trkpt>
      <trkpt lat="44.84407" lon="0.79146">
        <ele>88.2</ele>
        <time>2026-05-01T16:41:05.000Z</time>
      </trkpt>
      <trkpt lat="44.84406" lon="0.79144">
        <ele>88.1</ele>
        <time>2026-05-01T16:41:06.000Z</time>
      </trkpt>
      <trkpt lat="44.84405" lon="0.79142">
        <ele>87.9</ele>
        <time>2026-05-01T16:41:07.000Z</time>
      </trkpt>
      <trkpt lat="44.84404" lon="0.7914">
        <ele>88.2</ele>
        <time>2026-05-01T16:41:08.000Z</time>
      </trkpt>
      <trkpt lat="44.84403" lon="0.79138">
        <ele>88.1</ele>
        <time>2026-05-01T16:41:09.000Z</time>
      </trkpt>
      <trkpt lat="44.84402" lon="0.79135">
        <ele>88</ele>
        <time>2026-05-01T16:41:10.000Z</time>
      </trkpt>
      <trkpt lat="44.84401" lon="0.79133">
        <ele>88.2</ele>
        <time>2026-05-01T16:41:11.000Z</time>
      </trkpt>
      <trkpt lat="44.84401" lon="0.79131">
        <ele>88.3</ele>
        <time>2026-05-01T16:41:12.000Z</time>
      </trkpt>
      <trkpt lat="44.844" lon="0.79128">
        <ele>89.2</ele>
        <time>2026-05-01T16:41:13.000Z</time>
      </trkpt>
      <trkpt lat="44.84399" lon="0.79126">
        <ele>90</ele>
        <time>2026-05-01T16:41:14.000Z</time>
      </trkpt>
      <trkpt lat="44.84399" lon="0.79123">
        <ele>89.6</ele>
        <time>2026-05-01T16:41:15.000Z</time>
      </trkpt>
      <trkpt lat="44.84398" lon="0.79121">
        <ele>89.5</ele>
        <time>2026-05-01T16:41:16.000Z</time>
      </trkpt>
      <trkpt lat="44.84397" lon="0.79119">
        <ele>89.2</ele>
        <time>2026-05-01T16:41:17.000Z</time>
      </trkpt>
      <trkpt lat="44.84396" lon="0.79117">
        <ele>88.8</ele>
        <time>2026-05-01T16:41:18.000Z</time>
      </trkpt>
      <trkpt lat="44.84395" lon="0.79115">
        <ele>89</ele>
        <time>2026-05-01T16:41:19.000Z</time>
      </trkpt>
      <trkpt lat="44.84394" lon="0.79113">
        <ele>88.8</ele>
        <time>2026-05-01T16:41:20.000Z</time>
      </trkpt>
      <trkpt lat="44.84393" lon="0.79111">
        <ele>88.5</ele>
        <time>2026-05-01T16:41:21.000Z</time>
      </trkpt>
      <trkpt lat="44.84392" lon="0.79108">
        <ele>88.4</ele>
        <time>2026-05-01T16:41:22.000Z</time>
      </trkpt>
      <trkpt lat="44.84391" lon="0.79106">
        <ele>88.3</ele>
        <time>2026-05-01T16:41:23.000Z</time>
      </trkpt>
      <trkpt lat="44.84391" lon="0.79104">
        <ele>88.3</ele>
        <time>2026-05-01T16:41:24.000Z</time>
      </trkpt>
      <trkpt lat="44.84389" lon="0.79102">
        <ele>88.6</ele>
        <time>2026-05-01T16:41:25.000Z</time>
      </trkpt>
      <trkpt lat="44.84388" lon="0.79101">
        <ele>88.4</ele>
        <time>2026-05-01T16:41:26.000Z</time>
      </trkpt>
      <trkpt lat="44.84387" lon="0.791">
        <ele>88</ele>
        <time>2026-05-01T16:41:27.000Z</time>
      </trkpt>
      <trkpt lat="44.84386" lon="0.791">
        <ele>88.3</ele>
        <time>2026-05-01T16:41:28.000Z</time>
      </trkpt>
      <trkpt lat="44.84385" lon="0.79099">
        <ele>88.2</ele>
        <time>2026-05-01T16:41:29.000Z</time>
      </trkpt>
      <trkpt lat="44.84384" lon="0.79099">
        <ele>88.2</ele>
        <time>2026-05-01T16:41:30.000Z</time>
      </trkpt>
      <trkpt lat="44.84384" lon="0.79099">
        <ele>88.2</ele>
        <time>2026-05-01T16:41:31.000Z</time>
      </trkpt>
      <trkpt lat="44.84384" lon="0.79099">
        <ele>88.2</ele>
        <time>2026-05-01T16:41:32.000Z</time>
      </trkpt>
      <trkpt lat="44.84384" lon="0.79099">
        <ele>88.2</ele>
        <time>2026-05-01T16:41:33.000Z</time>
      </trkpt>
      <trkpt lat="44.84384" lon="0.79099">
        <ele>88</ele>
        <time>2026-05-01T16:41:34.000Z</time>
      </trkpt>
      <trkpt lat="44.84384" lon="0.79099">
        <ele>88</ele>
        <time>2026-05-01T16:41:35.000Z</time>
      </trkpt>
      <trkpt lat="44.84383" lon="0.79097">
        <ele>88.1</ele>
        <time>2026-05-01T16:41:36.000Z</time>
      </trkpt>
      <trkpt lat="44.84383" lon="0.79097">
        <ele>88.1</ele>
        <time>2026-05-01T16:41:37.000Z</time>
      </trkpt>
      <trkpt lat="44.84383" lon="0.79097">
        <ele>88.1</ele>
        <time>2026-05-01T16:41:38.000Z</time>
      </trkpt>
      <trkpt lat="44.84383" lon="0.79097">
        <ele>88.1</ele>
        <time>2026-05-01T16:41:39.000Z</time>
      </trkpt>
      <trkpt lat="44.84383" lon="0.79097">
        <ele>88.1</ele>
        <time>2026-05-01T16:41:40.000Z</time>
      </trkpt>
      <trkpt lat="44.84383" lon="0.79097">
        <ele>88.1</ele>
        <time>2026-05-01T16:41:41.000Z</time>
      </trkpt>
      <trkpt lat="44.84383" lon="0.79096">
        <ele>88</ele>
        <time>2026-05-01T16:41:42.000Z</time>
      </trkpt>
      <trkpt lat="44.84383" lon="0.79096">
        <ele>88.2</ele>
        <time>2026-05-01T16:41:43.000Z</time>
      </trkpt>
      <trkpt lat="44.84383" lon="0.79096">
        <ele>88.2</ele>
        <time>2026-05-01T16:41:44.000Z</time>
      </trkpt>
      <trkpt lat="44.84383" lon="0.79096">
        <ele>88.2</ele>
        <time>2026-05-01T16:41:45.000Z</time>
      </trkpt>
      <trkpt lat="44.84383" lon="0.79096">
        <ele>88.2</ele>
        <time>2026-05-01T16:41:46.000Z</time>
      </trkpt>
      <trkpt lat="44.84383" lon="0.79096">
        <ele>88.2</ele>
        <time>2026-05-01T16:41:47.000Z</time>
      </trkpt>
      <trkpt lat="44.84383" lon="0.79096">
        <ele>88.2</ele>
        <time>2026-05-01T16:41:48.000Z</time>
      </trkpt>
      <trkpt lat="44.84383" lon="0.79096">
        <ele>88.2</ele>
        <time>2026-05-01T16:41:49.000Z</time>
      </trkpt>
      <trkpt lat="44.84383" lon="0.79095">
        <ele>88.5</ele>
        <time>2026-05-01T16:41:50.000Z</time>
      </trkpt>
      <trkpt lat="44.84384" lon="0.79094">
        <ele>88.6</ele>
        <time>2026-05-01T16:41:51.000Z</time>
      </trkpt>
      <trkpt lat="44.84386" lon="0.79092">
        <ele>88.5</ele>
        <time>2026-05-01T16:41:52.000Z</time>
      </trkpt>
      <trkpt lat="44.84387" lon="0.79092">
        <ele>88.9</ele>
        <time>2026-05-01T16:41:53.000Z</time>
      </trkpt>
      <trkpt lat="44.84389" lon="0.79092">
        <ele>89.1</ele>
        <time>2026-05-01T16:41:54.000Z</time>
      </trkpt>
      <trkpt lat="44.8439" lon="0.79091">
        <ele>89.1</ele>
        <time>2026-05-01T16:41:55.000Z</time>
      </trkpt>
      <trkpt lat="44.84391" lon="0.79089">
        <ele>89.2</ele>
        <time>2026-05-01T16:41:56.000Z</time>
      </trkpt>
      <trkpt lat="44.84392" lon="0.79089">
        <ele>89.3</ele>
        <time>2026-05-01T16:41:57.000Z</time>
      </trkpt>
      <trkpt lat="44.84392" lon="0.79089">
        <ele>89.2</ele>
        <time>2026-05-01T16:41:58.000Z</time>
      </trkpt>
      <trkpt lat="44.84393" lon="0.79088">
        <ele>89.2</ele>
        <time>2026-05-01T16:41:59.000Z</time>
      </trkpt>
      <trkpt lat="44.84393" lon="0.79087">
        <ele>89.1</ele>
        <time>2026-05-01T16:42:00.000Z</time>
      </trkpt>
      <trkpt lat="44.84392" lon="0.79086">
        <ele>88.8</ele>
        <time>2026-05-01T16:42:01.000Z</time>
      </trkpt>
      <trkpt lat="44.84391" lon="0.79084">
        <ele>88.7</ele>
        <time>2026-05-01T16:42:02.000Z</time>
      </trkpt>
      <trkpt lat="44.84389" lon="0.79083">
        <ele>88.3</ele>
        <time>2026-05-01T16:42:03.000Z</time>
      </trkpt>
      <trkpt lat="44.84388" lon="0.79082">
        <ele>88.3</ele>
        <time>2026-05-01T16:42:04.000Z</time>
      </trkpt>
      <trkpt lat="44.84387" lon="0.7908">
        <ele>88.2</ele>
        <time>2026-05-01T16:42:05.000Z</time>
      </trkpt>
      <trkpt lat="44.84385" lon="0.79078">
        <ele>87.9</ele>
        <time>2026-05-01T16:42:06.000Z</time>
      </trkpt>
      <trkpt lat="44.84385" lon="0.79076">
        <ele>88.2</ele>
        <time>2026-05-01T16:42:07.000Z</time>
      </trkpt>
      <trkpt lat="44.84385" lon="0.79073">
        <ele>88.1</ele>
        <time>2026-05-01T16:42:08.000Z</time>
      </trkpt>
      <trkpt lat="44.84384" lon="0.79071">
        <ele>88</ele>
        <time>2026-05-01T16:42:09.000Z</time>
      </trkpt>
      <trkpt lat="44.84384" lon="0.79069">
        <ele>88</ele>
        <time>2026-05-01T16:42:10.000Z</time>
      </trkpt>
      <trkpt lat="44.84384" lon="0.79067">
        <ele>88</ele>
        <time>2026-05-01T16:42:11.000Z</time>
      </trkpt>
      <trkpt lat="44.84384" lon="0.79065">
        <ele>88.1</ele>
        <time>2026-05-01T16:42:12.000Z</time>
      </trkpt>
      <trkpt lat="44.84384" lon="0.79063">
        <ele>88</ele>
        <time>2026-05-01T16:42:13.000Z</time>
      </trkpt>
      <trkpt lat="44.84384" lon="0.79061">
        <ele>87.9</ele>
        <time>2026-05-01T16:42:14.000Z</time>
      </trkpt>
      <trkpt lat="44.84384" lon="0.79059">
        <ele>87.9</ele>
        <time>2026-05-01T16:42:15.000Z</time>
      </trkpt>
      <trkpt lat="44.84384" lon="0.79057">
        <ele>87.9</ele>
        <time>2026-05-01T16:42:16.000Z</time>
      </trkpt>
      <trkpt lat="44.84384" lon="0.79055">
        <ele>88.2</ele>
        <time>2026-05-01T16:42:17.000Z</time>
      </trkpt>
      <trkpt lat="44.84384" lon="0.79053">
        <ele>88.7</ele>
        <time>2026-05-01T16:42:18.000Z</time>
      </trkpt>
      <trkpt lat="44.84385" lon="0.79052">
        <ele>88.9</ele>
        <time>2026-05-01T16:42:19.000Z</time>
      </trkpt>
      <trkpt lat="44.84384" lon="0.7905">
        <ele>88.5</ele>
        <time>2026-05-01T16:42:20.000Z</time>
      </trkpt>
      <trkpt lat="44.84384" lon="0.79047">
        <ele>88.8</ele>
        <time>2026-05-01T16:42:21.000Z</time>
      </trkpt>
      <trkpt lat="44.84384" lon="0.79046">
        <ele>88.7</ele>
        <time>2026-05-01T16:42:22.000Z</time>
      </trkpt>
      <trkpt lat="44.84384" lon="0.79044">
        <ele>88.9</ele>
        <time>2026-05-01T16:42:23.000Z</time>
      </trkpt>
      <trkpt lat="44.84383" lon="0.79042">
        <ele>89.2</ele>
        <time>2026-05-01T16:42:24.000Z</time>
      </trkpt>
      <trkpt lat="44.84383" lon="0.7904">
        <ele>89.5</ele>
        <time>2026-05-01T16:42:25.000Z</time>
      </trkpt>
      <trkpt lat="44.84382" lon="0.79038">
        <ele>90</ele>
        <time>2026-05-01T16:42:26.000Z</time>
      </trkpt>
      <trkpt lat="44.84382" lon="0.79038">
        <ele>90.3</ele>
        <time>2026-05-01T16:42:27.000Z</time>
      </trkpt>
      <trkpt lat="44.84381" lon="0.79036">
        <ele>90.6</ele>
        <time>2026-05-01T16:42:28.000Z</time>
      </trkpt>
      <trkpt lat="44.84381" lon="0.79036">
        <ele>90.7</ele>
        <time>2026-05-01T16:42:29.000Z</time>
      </trkpt>
      <trkpt lat="44.84381" lon="0.79036">
        <ele>90.7</ele>
        <time>2026-05-01T16:42:30.000Z</time>
      </trkpt>
      <trkpt lat="44.84381" lon="0.79036">
        <ele>90.7</ele>
        <time>2026-05-01T16:42:31.000Z</time>
      </trkpt>
      <trkpt lat="44.84381" lon="0.79036">
        <ele>90.7</ele>
        <time>2026-05-01T16:42:32.000Z</time>
      </trkpt>
      <trkpt lat="44.84381" lon="0.79036">
        <ele>90.7</ele>
        <time>2026-05-01T16:42:33.000Z</time>
      </trkpt>
      <trkpt lat="44.84381" lon="0.79036">
        <ele>90.7</ele>
        <time>2026-05-01T16:42:34.000Z</time>
      </trkpt>
      <trkpt lat="44.84381" lon="0.79036">
        <ele>90.7</ele>
        <time>2026-05-01T16:42:35.000Z</time>
      </trkpt>
      <trkpt lat="44.84381" lon="0.79036">
        <ele>90.7</ele>
        <time>2026-05-01T16:42:36.000Z</time>
      </trkpt>
      <trkpt lat="44.84381" lon="0.79036">
        <ele>90.9</ele>
        <time>2026-05-01T16:42:37.000Z</time>
      </trkpt>
      <trkpt lat="44.84381" lon="0.79036">
        <ele>90.9</ele>
        <time>2026-05-01T16:42:38.000Z</time>
      </trkpt>
      <trkpt lat="44.84381" lon="0.79036">
        <ele>90.9</ele>
        <time>2026-05-01T16:42:39.000Z</time>
      </trkpt>
      <trkpt lat="44.84381" lon="0.79036">
        <ele>90.9</ele>
        <time>2026-05-01T16:42:40.000Z</time>
      </trkpt>
      <trkpt lat="44.84381" lon="0.79036">
        <ele>91.2</ele>
        <time>2026-05-01T16:42:41.000Z</time>
      </trkpt>
      <trkpt lat="44.8438" lon="0.79034">
        <ele>91.3</ele>
        <time>2026-05-01T16:42:42.000Z</time>
      </trkpt>
      <trkpt lat="44.84379" lon="0.79033">
        <ele>90.9</ele>
        <time>2026-05-01T16:42:43.000Z</time>
      </trkpt>
      <trkpt lat="44.84379" lon="0.79031">
        <ele>90.6</ele>
        <time>2026-05-01T16:42:44.000Z</time>
      </trkpt>
      <trkpt lat="44.84378" lon="0.7903">
        <ele>90.7</ele>
        <time>2026-05-01T16:42:45.000Z</time>
      </trkpt>
      <trkpt lat="44.84378" lon="0.79028">
        <ele>90.6</ele>
        <time>2026-05-01T16:42:46.000Z</time>
      </trkpt>
      <trkpt lat="44.84377" lon="0.79026">
        <ele>90.4</ele>
        <time>2026-05-01T16:42:47.000Z</time>
      </trkpt>
      <trkpt lat="44.84377" lon="0.79024">
        <ele>90.2</ele>
        <time>2026-05-01T16:42:48.000Z</time>
      </trkpt>
      <trkpt lat="44.84376" lon="0.79022">
        <ele>90.2</ele>
        <time>2026-05-01T16:42:49.000Z</time>
      </trkpt>
      <trkpt lat="44.84375" lon="0.79021">
        <ele>89.8</ele>
        <time>2026-05-01T16:42:50.000Z</time>
      </trkpt>
      <trkpt lat="44.84375" lon="0.79019">
        <ele>89.5</ele>
        <time>2026-05-01T16:42:51.000Z</time>
      </trkpt>
      <trkpt lat="44.84374" lon="0.79018">
        <ele>88.9</ele>
        <time>2026-05-01T16:42:52.000Z</time>
      </trkpt>
      <trkpt lat="44.84373" lon="0.79016">
        <ele>88.5</ele>
        <time>2026-05-01T16:42:53.000Z</time>
      </trkpt>
      <trkpt lat="44.84372" lon="0.79015">
        <ele>87.8</ele>
        <time>2026-05-01T16:42:54.000Z</time>
      </trkpt>
      <trkpt lat="44.84371" lon="0.79013">
        <ele>87.4</ele>
        <time>2026-05-01T16:42:55.000Z</time>
      </trkpt>
      <trkpt lat="44.8437" lon="0.79012">
        <ele>87.1</ele>
        <time>2026-05-01T16:42:56.000Z</time>
      </trkpt>
      <trkpt lat="44.84369" lon="0.7901">
        <ele>87.2</ele>
        <time>2026-05-01T16:42:57.000Z</time>
      </trkpt>
      <trkpt lat="44.84368" lon="0.79008">
        <ele>87.3</ele>
        <time>2026-05-01T16:42:58.000Z</time>
      </trkpt>
      <trkpt lat="44.84367" lon="0.79006">
        <ele>87.2</ele>
        <time>2026-05-01T16:42:59.000Z</time>
      </trkpt>
      <trkpt lat="44.84366" lon="0.79004">
        <ele>86.9</ele>
        <time>2026-05-01T16:43:00.000Z</time>
      </trkpt>
      <trkpt lat="44.84365" lon="0.79002">
        <ele>86.8</ele>
        <time>2026-05-01T16:43:01.000Z</time>
      </trkpt>
      <trkpt lat="44.84364" lon="0.79">
        <ele>86.9</ele>
        <time>2026-05-01T16:43:02.000Z</time>
      </trkpt>
      <trkpt lat="44.84363" lon="0.78998">
        <ele>86.8</ele>
        <time>2026-05-01T16:43:03.000Z</time>
      </trkpt>
      <trkpt lat="44.84362" lon="0.78996">
        <ele>86.6</ele>
        <time>2026-05-01T16:43:04.000Z</time>
      </trkpt>
      <trkpt lat="44.84361" lon="0.78994">
        <ele>86.4</ele>
        <time>2026-05-01T16:43:05.000Z</time>
      </trkpt>
      <trkpt lat="44.8436" lon="0.78992">
        <ele>86.3</ele>
        <time>2026-05-01T16:43:06.000Z</time>
      </trkpt>
      <trkpt lat="44.84359" lon="0.7899">
        <ele>86.3</ele>
        <time>2026-05-01T16:43:07.000Z</time>
      </trkpt>
      <trkpt lat="44.84359" lon="0.78988">
        <ele>86.4</ele>
        <time>2026-05-01T16:43:08.000Z</time>
      </trkpt>
      <trkpt lat="44.84358" lon="0.78986">
        <ele>86.4</ele>
        <time>2026-05-01T16:43:09.000Z</time>
      </trkpt>
      <trkpt lat="44.84357" lon="0.78984">
        <ele>86.3</ele>
        <time>2026-05-01T16:43:10.000Z</time>
      </trkpt>
      <trkpt lat="44.84356" lon="0.78982">
        <ele>86.3</ele>
        <time>2026-05-01T16:43:11.000Z</time>
      </trkpt>
      <trkpt lat="44.84355" lon="0.7898">
        <ele>86.2</ele>
        <time>2026-05-01T16:43:12.000Z</time>
      </trkpt>
      <trkpt lat="44.84355" lon="0.78978">
        <ele>86.2</ele>
        <time>2026-05-01T16:43:13.000Z</time>
      </trkpt>
      <trkpt lat="44.84354" lon="0.78976">
        <ele>86.2</ele>
        <time>2026-05-01T16:43:14.000Z</time>
      </trkpt>
      <trkpt lat="44.84353" lon="0.78974">
        <ele>86.2</ele>
        <time>2026-05-01T16:43:15.000Z</time>
      </trkpt>
      <trkpt lat="44.84353" lon="0.78972">
        <ele>86.3</ele>
        <time>2026-05-01T16:43:16.000Z</time>
      </trkpt>
      <trkpt lat="44.84352" lon="0.7897">
        <ele>86.3</ele>
        <time>2026-05-01T16:43:17.000Z</time>
      </trkpt>
      <trkpt lat="44.84351" lon="0.78968">
        <ele>86.5</ele>
        <time>2026-05-01T16:43:18.000Z</time>
      </trkpt>
      <trkpt lat="44.8435" lon="0.78966">
        <ele>86.6</ele>
        <time>2026-05-01T16:43:19.000Z</time>
      </trkpt>
      <trkpt lat="44.8435" lon="0.78964">
        <ele>86.6</ele>
        <time>2026-05-01T16:43:20.000Z</time>
      </trkpt>
      <trkpt lat="44.84349" lon="0.78962">
        <ele>87.1</ele>
        <time>2026-05-01T16:43:21.000Z</time>
      </trkpt>
      <trkpt lat="44.84348" lon="0.7896">
        <ele>87</ele>
        <time>2026-05-01T16:43:22.000Z</time>
      </trkpt>
      <trkpt lat="44.84347" lon="0.78958">
        <ele>86.9</ele>
        <time>2026-05-01T16:43:23.000Z</time>
      </trkpt>
      <trkpt lat="44.84346" lon="0.78956">
        <ele>87.2</ele>
        <time>2026-05-01T16:43:24.000Z</time>
      </trkpt>
      <trkpt lat="44.84345" lon="0.78954">
        <ele>87.4</ele>
        <time>2026-05-01T16:43:25.000Z</time>
      </trkpt>
      <trkpt lat="44.84344" lon="0.78951">
        <ele>87.3</ele>
        <time>2026-05-01T16:43:26.000Z</time>
      </trkpt>
      <trkpt lat="44.84343" lon="0.78949">
        <ele>87.4</ele>
        <time>2026-05-01T16:43:27.000Z</time>
      </trkpt>
      <trkpt lat="44.84343" lon="0.78947">
        <ele>87.4</ele>
        <time>2026-05-01T16:43:28.000Z</time>
      </trkpt>
      <trkpt lat="44.84342" lon="0.78945">
        <ele>87.4</ele>
        <time>2026-05-01T16:43:29.000Z</time>
      </trkpt>
      <trkpt lat="44.84341" lon="0.78943">
        <ele>87.4</ele>
        <time>2026-05-01T16:43:30.000Z</time>
      </trkpt>
      <trkpt lat="44.8434" lon="0.78941">
        <ele>87.5</ele>
        <time>2026-05-01T16:43:31.000Z</time>
      </trkpt>
      <trkpt lat="44.8434" lon="0.78939">
        <ele>87.6</ele>
        <time>2026-05-01T16:43:32.000Z</time>
      </trkpt>
      <trkpt lat="44.84339" lon="0.78937">
        <ele>87.4</ele>
        <time>2026-05-01T16:43:33.000Z</time>
      </trkpt>
      <trkpt lat="44.84338" lon="0.78936">
        <ele>87.3</ele>
        <time>2026-05-01T16:43:34.000Z</time>
      </trkpt>
      <trkpt lat="44.84338" lon="0.78934">
        <ele>87.3</ele>
        <time>2026-05-01T16:43:35.000Z</time>
      </trkpt>
      <trkpt lat="44.84337" lon="0.78932">
        <ele>87.1</ele>
        <time>2026-05-01T16:43:36.000Z</time>
      </trkpt>
      <trkpt lat="44.84336" lon="0.78931">
        <ele>86.7</ele>
        <time>2026-05-01T16:43:37.000Z</time>
      </trkpt>
      <trkpt lat="44.84335" lon="0.7893">
        <ele>86.5</ele>
        <time>2026-05-01T16:43:38.000Z</time>
      </trkpt>
      <trkpt lat="44.84334" lon="0.78929">
        <ele>86.4</ele>
        <time>2026-05-01T16:43:39.000Z</time>
      </trkpt>
      <trkpt lat="44.84333" lon="0.78928">
        <ele>86.7</ele>
        <time>2026-05-01T16:43:40.000Z</time>
      </trkpt>
      <trkpt lat="44.84332" lon="0.78928">
        <ele>87.1</ele>
        <time>2026-05-01T16:43:41.000Z</time>
      </trkpt>
      <trkpt lat="44.84332" lon="0.78927">
        <ele>87.1</ele>
        <time>2026-05-01T16:43:42.000Z</time>
      </trkpt>
      <trkpt lat="44.84331" lon="0.78925">
        <ele>87.2</ele>
        <time>2026-05-01T16:43:43.000Z</time>
      </trkpt>
      <trkpt lat="44.8433" lon="0.78923">
        <ele>87.4</ele>
        <time>2026-05-01T16:43:44.000Z</time>
      </trkpt>
      <trkpt lat="44.84329" lon="0.78922">
        <ele>87.4</ele>
        <time>2026-05-01T16:43:45.000Z</time>
      </trkpt>
      <trkpt lat="44.84329" lon="0.7892">
        <ele>87.3</ele>
        <time>2026-05-01T16:43:46.000Z</time>
      </trkpt>
      <trkpt lat="44.84328" lon="0.78918">
        <ele>87.3</ele>
        <time>2026-05-01T16:43:47.000Z</time>
      </trkpt>
      <trkpt lat="44.84328" lon="0.78916">
        <ele>87.2</ele>
        <time>2026-05-01T16:43:48.000Z</time>
      </trkpt>
      <trkpt lat="44.84327" lon="0.78914">
        <ele>87.2</ele>
        <time>2026-05-01T16:43:49.000Z</time>
      </trkpt>
      <trkpt lat="44.84326" lon="0.78912">
        <ele>87.3</ele>
        <time>2026-05-01T16:43:50.000Z</time>
      </trkpt>
      <trkpt lat="44.84325" lon="0.78911">
        <ele>87.3</ele>
        <time>2026-05-01T16:43:51.000Z</time>
      </trkpt>
      <trkpt lat="44.84324" lon="0.78909">
        <ele>87.3</ele>
        <time>2026-05-01T16:43:52.000Z</time>
      </trkpt>
      <trkpt lat="44.84324" lon="0.78907">
        <ele>87.4</ele>
        <time>2026-05-01T16:43:53.000Z</time>
      </trkpt>
      <trkpt lat="44.84323" lon="0.78906">
        <ele>87.5</ele>
        <time>2026-05-01T16:43:54.000Z</time>
      </trkpt>
      <trkpt lat="44.84322" lon="0.78904">
        <ele>87.5</ele>
        <time>2026-05-01T16:43:55.000Z</time>
      </trkpt>
      <trkpt lat="44.84322" lon="0.78903">
        <ele>87.3</ele>
        <time>2026-05-01T16:43:56.000Z</time>
      </trkpt>
      <trkpt lat="44.84321" lon="0.78901">
        <ele>87.3</ele>
        <time>2026-05-01T16:43:57.000Z</time>
      </trkpt>
      <trkpt lat="44.84321" lon="0.78899">
        <ele>87.7</ele>
        <time>2026-05-01T16:43:58.000Z</time>
      </trkpt>
      <trkpt lat="44.84321" lon="0.78899">
        <ele>87.7</ele>
        <time>2026-05-01T16:43:59.000Z</time>
      </trkpt>
      <trkpt lat="44.84321" lon="0.78899">
        <ele>87.7</ele>
        <time>2026-05-01T16:44:00.000Z</time>
      </trkpt>
      <trkpt lat="44.84321" lon="0.78899">
        <ele>87.7</ele>
        <time>2026-05-01T16:44:01.000Z</time>
      </trkpt>
      <trkpt lat="44.84321" lon="0.78899">
        <ele>87.7</ele>
        <time>2026-05-01T16:44:02.000Z</time>
      </trkpt>
      <trkpt lat="44.84321" lon="0.78899">
        <ele>87.7</ele>
        <time>2026-05-01T16:44:03.000Z</time>
      </trkpt>
      <trkpt lat="44.84321" lon="0.78899">
        <ele>87.7</ele>
        <time>2026-05-01T16:44:04.000Z</time>
      </trkpt>
      <trkpt lat="44.84321" lon="0.78899">
        <ele>87.7</ele>
        <time>2026-05-01T16:44:05.000Z</time>
      </trkpt>
      <trkpt lat="44.84321" lon="0.78899">
        <ele>87.7</ele>
        <time>2026-05-01T16:44:06.000Z</time>
      </trkpt>
      <trkpt lat="44.84321" lon="0.78899">
        <ele>87.7</ele>
        <time>2026-05-01T16:44:07.000Z</time>
      </trkpt>
      <trkpt lat="44.84321" lon="0.78899">
        <ele>87.7</ele>
        <time>2026-05-01T16:44:08.000Z</time>
      </trkpt>
      <trkpt lat="44.84321" lon="0.789">
        <ele>87.7</ele>
        <time>2026-05-01T16:44:09.000Z</time>
      </trkpt>
      <trkpt lat="44.84321" lon="0.789">
        <ele>87.7</ele>
        <time>2026-05-01T16:44:10.000Z</time>
      </trkpt>
      <trkpt lat="44.84321" lon="0.789">
        <ele>87.7</ele>
        <time>2026-05-01T16:44:11.000Z</time>
      </trkpt>
      <trkpt lat="44.8432" lon="0.789">
        <ele>87.5</ele>
        <time>2026-05-01T16:44:12.000Z</time>
      </trkpt>
      <trkpt lat="44.8432" lon="0.789">
        <ele>87.6</ele>
        <time>2026-05-01T16:44:13.000Z</time>
      </trkpt>
      <trkpt lat="44.8432" lon="0.789">
        <ele>87.6</ele>
        <time>2026-05-01T16:44:14.000Z</time>
      </trkpt>
      <trkpt lat="44.8432" lon="0.789">
        <ele>87.6</ele>
        <time>2026-05-01T16:44:15.000Z</time>
      </trkpt>
      <trkpt lat="44.8432" lon="0.789">
        <ele>87.6</ele>
        <time>2026-05-01T16:44:16.000Z</time>
      </trkpt>
      <trkpt lat="44.8432" lon="0.789">
        <ele>87.6</ele>
        <time>2026-05-01T16:44:17.000Z</time>
      </trkpt>
      <trkpt lat="44.8432" lon="0.789">
        <ele>87.6</ele>
        <time>2026-05-01T16:44:18.000Z</time>
      </trkpt>
      <trkpt lat="44.8432" lon="0.789">
        <ele>87.6</ele>
        <time>2026-05-01T16:44:19.000Z</time>
      </trkpt>
      <trkpt lat="44.8432" lon="0.789">
        <ele>87.6</ele>
        <time>2026-05-01T16:44:20.000Z</time>
      </trkpt>
      <trkpt lat="44.8432" lon="0.789">
        <ele>87.3</ele>
        <time>2026-05-01T16:44:21.000Z</time>
      </trkpt>
      <trkpt lat="44.8432" lon="0.789">
        <ele>87.1</ele>
        <time>2026-05-01T16:44:22.000Z</time>
      </trkpt>
      <trkpt lat="44.8432" lon="0.78899">
        <ele>87.1</ele>
        <time>2026-05-01T16:44:23.000Z</time>
      </trkpt>
      <trkpt lat="44.8432" lon="0.789">
        <ele>87.4</ele>
        <time>2026-05-01T16:44:24.000Z</time>
      </trkpt>
      <trkpt lat="44.8432" lon="0.789">
        <ele>87.4</ele>
        <time>2026-05-01T16:44:25.000Z</time>
      </trkpt>
      <trkpt lat="44.8432" lon="0.789">
        <ele>87.3</ele>
        <time>2026-05-01T16:44:26.000Z</time>
      </trkpt>
      <trkpt lat="44.8432" lon="0.78899">
        <ele>87.3</ele>
        <time>2026-05-01T16:44:27.000Z</time>
      </trkpt>
      <trkpt lat="44.8432" lon="0.78899">
        <ele>87.4</ele>
        <time>2026-05-01T16:44:28.000Z</time>
      </trkpt>
      <trkpt lat="44.8432" lon="0.78899">
        <ele>87.8</ele>
        <time>2026-05-01T16:44:29.000Z</time>
      </trkpt>
      <trkpt lat="44.8432" lon="0.78899">
        <ele>87.8</ele>
        <time>2026-05-01T16:44:30.000Z</time>
      </trkpt>
      <trkpt lat="44.8432" lon="0.789">
        <ele>87.8</ele>
        <time>2026-05-01T16:44:31.000Z</time>
      </trkpt>
      <trkpt lat="44.8432" lon="0.789">
        <ele>87.8</ele>
        <time>2026-05-01T16:44:32.000Z</time>
      </trkpt>
      <trkpt lat="44.8432" lon="0.789">
        <ele>88.4</ele>
        <time>2026-05-01T16:44:33.000Z</time>
      </trkpt>
      <trkpt lat="44.8432" lon="0.789">
        <ele>88.4</ele>
        <time>2026-05-01T16:44:34.000Z</time>
      </trkpt>
      <trkpt lat="44.8432" lon="0.789">
        <ele>88.3</ele>
        <time>2026-05-01T16:44:35.000Z</time>
      </trkpt>
      <trkpt lat="44.8432" lon="0.789">
        <ele>88.3</ele>
        <time>2026-05-01T16:44:36.000Z</time>
      </trkpt>
    </trkseg>
  </trk>
</gpx>